<?xml version="1.0" encoding="UTF-8"?>
<gpx creator="Garmin Connect" version="1.1"
  xsi:schemaLocation="http://www.topografix.com/GPX/1/1 http://www.topografix.com/GPX/11.xsd"
  xmlns:ns3="http://www.garmin.com/xmlschemas/TrackPointExtension/v1"
  xmlns="http://www.topografix.com/GPX/1/1"
  xmlns:xsi="http://www.w3.org/2001/XMLSchema-instance" xmlns:ns2="http://www.garmin.com/xmlschemas/GpxExtensions/v3">
  <metadata>
    <link href="connect.garmin.com">
      <text>Garmin Connect</text>
    </link>
    <time>2021-06-26T14:36:10.000Z</time>
  </metadata>
  <trk>
    <name>Fresno County Hiking</name>
    <type>hiking</type>
    <trkseg>
      <trkpt lat="36.8062579818069934844970703125" lon="-118.39937330223619937896728515625">
        <ele>3218.39990234375</ele>
        <time>2021-06-26T14:36:10.000Z</time>
        <extensions>
          <ns3:TrackPointExtension>
            <ns3:atemp>24.0</ns3:atemp>
            <ns3:hr>91</ns3:hr>
          </ns3:TrackPointExtension>
        </extensions>
      </trkpt>
      <trkpt lat="36.80625370703637599945068359375" lon="-118.39937455952167510986328125">
        <ele>3218.39990234375</ele>
        <time>2021-06-26T14:36:11.000Z</time>
        <extensions>
          <ns3:TrackPointExtension>
            <ns3:atemp>24.0</ns3:atemp>
            <ns3:hr>91</ns3:hr>
          </ns3:TrackPointExtension>
        </extensions>
      </trkpt>
      <trkpt lat="36.8062744103372097015380859375" lon="-118.39938989840447902679443359375">
        <ele>3217.39990234375</ele>
        <time>2021-06-26T14:36:21.000Z</time>
        <extensions>
          <ns3:TrackPointExtension>
            <ns3:atemp>24.0</ns3:atemp>
            <ns3:hr>89</ns3:hr>
          </ns3:TrackPointExtension>
        </extensions>
      </trkpt>
      <trkpt lat="36.80631103925406932830810546875" lon="-118.39940900914371013641357421875">
        <ele>3216.800048828125</ele>
        <time>2021-06-26T14:36:24.000Z</time>
        <extensions>
          <ns3:TrackPointExtension>
            <ns3:atemp>24.0</ns3:atemp>
            <ns3:hr>90</ns3:hr>
          </ns3:TrackPointExtension>
        </extensions>
      </trkpt>
      <trkpt lat="36.80631958879530429840087890625" lon="-118.39941554702818393707275390625">
        <ele>3216.39990234375</ele>
        <time>2021-06-26T14:36:25.000Z</time>
        <extensions>
          <ns3:TrackPointExtension>
            <ns3:atemp>24.0</ns3:atemp>
            <ns3:hr>90</ns3:hr>
          </ns3:TrackPointExtension>
        </extensions>
      </trkpt>
      <trkpt lat="36.806336939334869384765625" lon="-118.39942912571132183074951171875">
        <ele>3216.199951171875</ele>
        <time>2021-06-26T14:36:27.000Z</time>
        <extensions>
          <ns3:TrackPointExtension>
            <ns3:atemp>24.0</ns3:atemp>
            <ns3:hr>90</ns3:hr>
          </ns3:TrackPointExtension>
        </extensions>
      </trkpt>
      <trkpt lat="36.80635378696024417877197265625" lon="-118.3994437940418720245361328125">
        <ele>3216</ele>
        <time>2021-06-26T14:36:29.000Z</time>
        <extensions>
          <ns3:TrackPointExtension>
            <ns3:atemp>24.0</ns3:atemp>
            <ns3:hr>90</ns3:hr>
          </ns3:TrackPointExtension>
        </extensions>
      </trkpt>
      <trkpt lat="36.80638111196458339691162109375" lon="-118.3994521759450435638427734375">
        <ele>3215.199951171875</ele>
        <time>2021-06-26T14:36:32.000Z</time>
        <extensions>
          <ns3:TrackPointExtension>
            <ns3:atemp>24.0</ns3:atemp>
            <ns3:hr>88</ns3:hr>
          </ns3:TrackPointExtension>
        </extensions>
      </trkpt>
      <trkpt lat="36.8063991330564022064208984375" lon="-118.3994461409747600555419921875">
        <ele>3215.199951171875</ele>
        <time>2021-06-26T14:36:33.000Z</time>
        <extensions>
          <ns3:TrackPointExtension>
            <ns3:atemp>24.0</ns3:atemp>
            <ns3:hr>87</ns3:hr>
          </ns3:TrackPointExtension>
        </extensions>
      </trkpt>
      <trkpt lat="36.80645302869379520416259765625" lon="-118.39943130500614643096923828125">
        <ele>3215.800048828125</ele>
        <time>2021-06-26T14:36:38.000Z</time>
        <extensions>
          <ns3:TrackPointExtension>
            <ns3:atemp>24.0</ns3:atemp>
            <ns3:hr>84</ns3:hr>
          </ns3:TrackPointExtension>
        </extensions>
      </trkpt>
      <trkpt lat="36.80647146888077259063720703125" lon="-118.39941722340881824493408203125">
        <ele>3216</ele>
        <time>2021-06-26T14:36:40.000Z</time>
        <extensions>
          <ns3:TrackPointExtension>
            <ns3:atemp>24.0</ns3:atemp>
            <ns3:hr>83</ns3:hr>
          </ns3:TrackPointExtension>
        </extensions>
      </trkpt>
      <trkpt lat="36.80649259127676486968994140625" lon="-118.3993831090629100799560546875">
        <ele>3216.199951171875</ele>
        <time>2021-06-26T14:36:43.000Z</time>
        <extensions>
          <ns3:TrackPointExtension>
            <ns3:atemp>24.0</ns3:atemp>
            <ns3:hr>82</ns3:hr>
          </ns3:TrackPointExtension>
        </extensions>
      </trkpt>
      <trkpt lat="36.80651203729212284088134765625" lon="-118.39934698306024074554443359375">
        <ele>3216.39990234375</ele>
        <time>2021-06-26T14:36:46.000Z</time>
        <extensions>
          <ns3:TrackPointExtension>
            <ns3:atemp>24.0</ns3:atemp>
            <ns3:hr>85</ns3:hr>
          </ns3:TrackPointExtension>
        </extensions>
      </trkpt>
      <trkpt lat="36.8065097741782665252685546875" lon="-118.39934237301349639892578125">
        <ele>3216.39990234375</ele>
        <time>2021-06-26T14:36:47.000Z</time>
        <extensions>
          <ns3:TrackPointExtension>
            <ns3:atemp>24.0</ns3:atemp>
            <ns3:hr>82</ns3:hr>
          </ns3:TrackPointExtension>
        </extensions>
      </trkpt>
      <trkpt lat="36.80651924572885036468505859375" lon="-118.39934044517576694488525390625">
        <ele>3216.60009765625</ele>
        <time>2021-06-26T14:36:48.000Z</time>
        <extensions>
          <ns3:TrackPointExtension>
            <ns3:atemp>24.0</ns3:atemp>
            <ns3:hr>82</ns3:hr>
          </ns3:TrackPointExtension>
        </extensions>
      </trkpt>
      <trkpt lat="36.8065367639064788818359375" lon="-118.39932091534137725830078125">
        <ele>3217.199951171875</ele>
        <time>2021-06-26T14:36:51.000Z</time>
        <extensions>
          <ns3:TrackPointExtension>
            <ns3:atemp>24.0</ns3:atemp>
            <ns3:hr>80</ns3:hr>
          </ns3:TrackPointExtension>
        </extensions>
      </trkpt>
      <trkpt lat="36.80657439865171909332275390625" lon="-118.3993036486208438873291015625">
        <ele>3217.39990234375</ele>
        <time>2021-06-26T14:36:55.000Z</time>
        <extensions>
          <ns3:TrackPointExtension>
            <ns3:atemp>24.0</ns3:atemp>
            <ns3:hr>76</ns3:hr>
          </ns3:TrackPointExtension>
        </extensions>
      </trkpt>
      <trkpt lat="36.80658512748777866363525390625" lon="-118.39930457063019275665283203125">
        <ele>3217.60009765625</ele>
        <time>2021-06-26T14:36:56.000Z</time>
        <extensions>
          <ns3:TrackPointExtension>
            <ns3:atemp>24.0</ns3:atemp>
            <ns3:hr>76</ns3:hr>
          </ns3:TrackPointExtension>
        </extensions>
      </trkpt>
      <trkpt lat="36.80659099481999874114990234375" lon="-118.39929937385022640228271484375">
        <ele>3217.60009765625</ele>
        <time>2021-06-26T14:36:57.000Z</time>
        <extensions>
          <ns3:TrackPointExtension>
            <ns3:atemp>24.0</ns3:atemp>
            <ns3:hr>80</ns3:hr>
          </ns3:TrackPointExtension>
        </extensions>
      </trkpt>
      <trkpt lat="36.8066643364727497100830078125" lon="-118.39929568581283092498779296875">
        <ele>3217.39990234375</ele>
        <time>2021-06-26T14:37:04.000Z</time>
        <extensions>
          <ns3:TrackPointExtension>
            <ns3:atemp>24.0</ns3:atemp>
            <ns3:hr>80</ns3:hr>
          </ns3:TrackPointExtension>
        </extensions>
      </trkpt>
      <trkpt lat="36.806671880185604095458984375" lon="-118.39929065667092800140380859375">
        <ele>3217.39990234375</ele>
        <time>2021-06-26T14:37:05.000Z</time>
        <extensions>
          <ns3:TrackPointExtension>
            <ns3:atemp>24.0</ns3:atemp>
            <ns3:hr>83</ns3:hr>
          </ns3:TrackPointExtension>
        </extensions>
      </trkpt>
      <trkpt lat="36.806681938469409942626953125" lon="-118.39928981848061084747314453125">
        <ele>3217.39990234375</ele>
        <time>2021-06-26T14:37:06.000Z</time>
        <extensions>
          <ns3:TrackPointExtension>
            <ns3:atemp>24.0</ns3:atemp>
            <ns3:hr>86</ns3:hr>
          </ns3:TrackPointExtension>
        </extensions>
      </trkpt>
      <trkpt lat="36.806722171604633331298828125" lon="-118.3992500044405460357666015625">
        <ele>3218</ele>
        <time>2021-06-26T14:37:12.000Z</time>
        <extensions>
          <ns3:TrackPointExtension>
            <ns3:atemp>24.0</ns3:atemp>
            <ns3:hr>89</ns3:hr>
          </ns3:TrackPointExtension>
        </extensions>
      </trkpt>
      <trkpt lat="36.80672426708042621612548828125" lon="-118.39924153871834278106689453125">
        <ele>3218.199951171875</ele>
        <time>2021-06-26T14:37:13.000Z</time>
        <extensions>
          <ns3:TrackPointExtension>
            <ns3:atemp>24.0</ns3:atemp>
            <ns3:hr>91</ns3:hr>
          </ns3:TrackPointExtension>
        </extensions>
      </trkpt>
      <trkpt lat="36.8067277036607265472412109375" lon="-118.39922209270298480987548828125">
        <ele>3218.199951171875</ele>
        <time>2021-06-26T14:37:15.000Z</time>
        <extensions>
          <ns3:TrackPointExtension>
            <ns3:atemp>24.0</ns3:atemp>
            <ns3:hr>94</ns3:hr>
          </ns3:TrackPointExtension>
        </extensions>
      </trkpt>
      <trkpt lat="36.80672585964202880859375" lon="-118.39921136386692523956298828125">
        <ele>3218.60009765625</ele>
        <time>2021-06-26T14:37:16.000Z</time>
        <extensions>
          <ns3:TrackPointExtension>
            <ns3:atemp>24.0</ns3:atemp>
            <ns3:hr>96</ns3:hr>
          </ns3:TrackPointExtension>
        </extensions>
      </trkpt>
      <trkpt lat="36.80672476999461650848388671875" lon="-118.399192504584789276123046875">
        <ele>3218.60009765625</ele>
        <time>2021-06-26T14:37:18.000Z</time>
        <extensions>
          <ns3:TrackPointExtension>
            <ns3:atemp>24.0</ns3:atemp>
            <ns3:hr>99</ns3:hr>
          </ns3:TrackPointExtension>
        </extensions>
      </trkpt>
      <trkpt lat="36.806719489395618438720703125" lon="-118.39916668832302093505859375">
        <ele>3218.800048828125</ele>
        <time>2021-06-26T14:37:20.000Z</time>
        <extensions>
          <ns3:TrackPointExtension>
            <ns3:atemp>24.0</ns3:atemp>
            <ns3:hr>103</ns3:hr>
          </ns3:TrackPointExtension>
        </extensions>
      </trkpt>
      <trkpt lat="36.80670331232249736785888671875" lon="-118.3990987949073314666748046875">
        <ele>3219.60009765625</ele>
        <time>2021-06-26T14:37:25.000Z</time>
        <extensions>
          <ns3:TrackPointExtension>
            <ns3:atemp>24.0</ns3:atemp>
            <ns3:hr>104</ns3:hr>
          </ns3:TrackPointExtension>
        </extensions>
      </trkpt>
      <trkpt lat="36.80668889544904232025146484375" lon="-118.3990578912198543548583984375">
        <ele>3220.199951171875</ele>
        <time>2021-06-26T14:37:28.000Z</time>
        <extensions>
          <ns3:TrackPointExtension>
            <ns3:atemp>24.0</ns3:atemp>
            <ns3:hr>105</ns3:hr>
          </ns3:TrackPointExtension>
        </extensions>
      </trkpt>
      <trkpt lat="36.8066780827939510345458984375" lon="-118.3989898301661014556884765625">
        <ele>3220.60009765625</ele>
        <time>2021-06-26T14:37:33.000Z</time>
        <extensions>
          <ns3:TrackPointExtension>
            <ns3:atemp>24.0</ns3:atemp>
            <ns3:hr>107</ns3:hr>
          </ns3:TrackPointExtension>
        </extensions>
      </trkpt>
      <trkpt lat="36.8066837824881076812744140625" lon="-118.39892386458814144134521484375">
        <ele>3221.199951171875</ele>
        <time>2021-06-26T14:37:36.000Z</time>
        <extensions>
          <ns3:TrackPointExtension>
            <ns3:atemp>24.0</ns3:atemp>
            <ns3:hr>107</ns3:hr>
          </ns3:TrackPointExtension>
        </extensions>
      </trkpt>
      <trkpt lat="36.80667514912784099578857421875" lon="-118.39888044632971286773681640625">
        <ele>3222</ele>
        <time>2021-06-26T14:37:38.000Z</time>
        <extensions>
          <ns3:TrackPointExtension>
            <ns3:atemp>24.0</ns3:atemp>
            <ns3:hr>109</ns3:hr>
          </ns3:TrackPointExtension>
        </extensions>
      </trkpt>
      <trkpt lat="36.80665679275989532470703125" lon="-118.39883744716644287109375">
        <ele>3222.199951171875</ele>
        <time>2021-06-26T14:37:41.000Z</time>
        <extensions>
          <ns3:TrackPointExtension>
            <ns3:atemp>24.0</ns3:atemp>
            <ns3:hr>109</ns3:hr>
          </ns3:TrackPointExtension>
        </extensions>
      </trkpt>
      <trkpt lat="36.80665452964603900909423828125" lon="-118.39880651794373989105224609375">
        <ele>3222.39990234375</ele>
        <time>2021-06-26T14:37:44.000Z</time>
        <extensions>
          <ns3:TrackPointExtension>
            <ns3:atemp>24.0</ns3:atemp>
            <ns3:hr>110</ns3:hr>
          </ns3:TrackPointExtension>
        </extensions>
      </trkpt>
      <trkpt lat="36.80666592903435230255126953125" lon="-118.39873543940484523773193359375">
        <ele>3222.800048828125</ele>
        <time>2021-06-26T14:37:50.000Z</time>
        <extensions>
          <ns3:TrackPointExtension>
            <ns3:atemp>24.0</ns3:atemp>
            <ns3:hr>110</ns3:hr>
          </ns3:TrackPointExtension>
        </extensions>
      </trkpt>
      <trkpt lat="36.80667095817625522613525390625" lon="-118.39872278273105621337890625">
        <ele>3223</ele>
        <time>2021-06-26T14:37:51.000Z</time>
        <extensions>
          <ns3:TrackPointExtension>
            <ns3:atemp>24.0</ns3:atemp>
            <ns3:hr>110</ns3:hr>
          </ns3:TrackPointExtension>
        </extensions>
      </trkpt>
      <trkpt lat="36.80668822489678859710693359375" lon="-118.398692272603511810302734375">
        <ele>3223</ele>
        <time>2021-06-26T14:37:53.000Z</time>
        <extensions>
          <ns3:TrackPointExtension>
            <ns3:atemp>24.0</ns3:atemp>
            <ns3:hr>109</ns3:hr>
          </ns3:TrackPointExtension>
        </extensions>
      </trkpt>
      <trkpt lat="36.8067245185375213623046875" lon="-118.39860585518181324005126953125">
        <ele>3224.199951171875</ele>
        <time>2021-06-26T14:38:01.000Z</time>
        <extensions>
          <ns3:TrackPointExtension>
            <ns3:atemp>24.0</ns3:atemp>
            <ns3:hr>109</ns3:hr>
          </ns3:TrackPointExtension>
        </extensions>
      </trkpt>
      <trkpt lat="36.80676005780696868896484375" lon="-118.3985388837754726409912109375">
        <ele>3225</ele>
        <time>2021-06-26T14:38:08.000Z</time>
        <extensions>
          <ns3:TrackPointExtension>
            <ns3:atemp>24.0</ns3:atemp>
            <ns3:hr>111</ns3:hr>
          </ns3:TrackPointExtension>
        </extensions>
      </trkpt>
      <trkpt lat="36.80676852352917194366455078125" lon="-118.3985211141407489776611328125">
        <ele>3225.199951171875</ele>
        <time>2021-06-26T14:38:10.000Z</time>
        <extensions>
          <ns3:TrackPointExtension>
            <ns3:atemp>23.0</ns3:atemp>
            <ns3:hr>111</ns3:hr>
          </ns3:TrackPointExtension>
        </extensions>
      </trkpt>
      <trkpt lat="36.8067753128707408905029296875" lon="-118.3984973095357418060302734375">
        <ele>3225.199951171875</ele>
        <time>2021-06-26T14:38:12.000Z</time>
        <extensions>
          <ns3:TrackPointExtension>
            <ns3:atemp>23.0</ns3:atemp>
            <ns3:hr>112</ns3:hr>
          </ns3:TrackPointExtension>
        </extensions>
      </trkpt>
      <trkpt lat="36.80677489377558231353759765625" lon="-118.39846260845661163330078125">
        <ele>3225.39990234375</ele>
        <time>2021-06-26T14:38:15.000Z</time>
        <extensions>
          <ns3:TrackPointExtension>
            <ns3:atemp>23.0</ns3:atemp>
            <ns3:hr>115</ns3:hr>
          </ns3:TrackPointExtension>
        </extensions>
      </trkpt>
      <trkpt lat="36.80679383687674999237060546875" lon="-118.39841902256011962890625">
        <ele>3226</ele>
        <time>2021-06-26T14:38:19.000Z</time>
        <extensions>
          <ns3:TrackPointExtension>
            <ns3:atemp>23.0</ns3:atemp>
            <ns3:hr>115</ns3:hr>
          </ns3:TrackPointExtension>
        </extensions>
      </trkpt>
      <trkpt lat="36.806792579591274261474609375" lon="-118.398407958447933197021484375">
        <ele>3226.39990234375</ele>
        <time>2021-06-26T14:38:20.000Z</time>
        <extensions>
          <ns3:TrackPointExtension>
            <ns3:atemp>23.0</ns3:atemp>
            <ns3:hr>116</ns3:hr>
          </ns3:TrackPointExtension>
        </extensions>
      </trkpt>
      <trkpt lat="36.8067835271358489990234375" lon="-118.3983876742422580718994140625">
        <ele>3226.39990234375</ele>
        <time>2021-06-26T14:38:22.000Z</time>
        <extensions>
          <ns3:TrackPointExtension>
            <ns3:atemp>23.0</ns3:atemp>
            <ns3:hr>117</ns3:hr>
          </ns3:TrackPointExtension>
        </extensions>
      </trkpt>
      <trkpt lat="36.80677170865237712860107421875" lon="-118.39836797676980495452880859375">
        <ele>3227</ele>
        <time>2021-06-26T14:38:24.000Z</time>
        <extensions>
          <ns3:TrackPointExtension>
            <ns3:atemp>23.0</ns3:atemp>
            <ns3:hr>120</ns3:hr>
          </ns3:TrackPointExtension>
        </extensions>
      </trkpt>
      <trkpt lat="36.8067649193108081817626953125" lon="-118.39828466065227985382080078125">
        <ele>3227.199951171875</ele>
        <time>2021-06-26T14:38:30.000Z</time>
        <extensions>
          <ns3:TrackPointExtension>
            <ns3:atemp>23.0</ns3:atemp>
            <ns3:hr>120</ns3:hr>
          </ns3:TrackPointExtension>
        </extensions>
      </trkpt>
      <trkpt lat="36.806803978979587554931640625" lon="-118.39817536063492298126220703125">
        <ele>3226.199951171875</ele>
        <time>2021-06-26T14:38:39.000Z</time>
        <extensions>
          <ns3:TrackPointExtension>
            <ns3:atemp>23.0</ns3:atemp>
            <ns3:hr>121</ns3:hr>
          </ns3:TrackPointExtension>
        </extensions>
      </trkpt>
      <trkpt lat="36.80680322460830211639404296875" lon="-118.3981637097895145416259765625">
        <ele>3226.199951171875</ele>
        <time>2021-06-26T14:38:40.000Z</time>
        <extensions>
          <ns3:TrackPointExtension>
            <ns3:atemp>23.0</ns3:atemp>
            <ns3:hr>119</ns3:hr>
          </ns3:TrackPointExtension>
        </extensions>
      </trkpt>
      <trkpt lat="36.80678830482065677642822265625" lon="-118.3980984985828399658203125">
        <ele>3226.199951171875</ele>
        <time>2021-06-26T14:38:44.000Z</time>
        <extensions>
          <ns3:TrackPointExtension>
            <ns3:atemp>23.0</ns3:atemp>
            <ns3:hr>116</ns3:hr>
          </ns3:TrackPointExtension>
        </extensions>
      </trkpt>
      <trkpt lat="36.806752346456050872802734375" lon="-118.39803253300487995147705078125">
        <ele>3226</ele>
        <time>2021-06-26T14:38:48.000Z</time>
        <extensions>
          <ns3:TrackPointExtension>
            <ns3:atemp>23.0</ns3:atemp>
            <ns3:hr>113</ns3:hr>
          </ns3:TrackPointExtension>
        </extensions>
      </trkpt>
      <trkpt lat="36.80672259069979190826416015625" lon="-118.398008309304714202880859375">
        <ele>3226</ele>
        <time>2021-06-26T14:38:51.000Z</time>
        <extensions>
          <ns3:TrackPointExtension>
            <ns3:atemp>23.0</ns3:atemp>
            <ns3:hr>112</ns3:hr>
          </ns3:TrackPointExtension>
        </extensions>
      </trkpt>
      <trkpt lat="36.8066816031932830810546875" lon="-118.39797888882458209991455078125">
        <ele>3226</ele>
        <time>2021-06-26T14:38:56.000Z</time>
        <extensions>
          <ns3:TrackPointExtension>
            <ns3:atemp>23.0</ns3:atemp>
            <ns3:hr>109</ns3:hr>
          </ns3:TrackPointExtension>
        </extensions>
      </trkpt>
      <trkpt lat="36.80665117688477039337158203125" lon="-118.397970758378505706787109375">
        <ele>3226</ele>
        <time>2021-06-26T14:38:58.000Z</time>
        <extensions>
          <ns3:TrackPointExtension>
            <ns3:atemp>23.0</ns3:atemp>
            <ns3:hr>106</ns3:hr>
          </ns3:TrackPointExtension>
        </extensions>
      </trkpt>
      <trkpt lat="36.80663357488811016082763671875" lon="-118.3979679085314273834228515625">
        <ele>3226</ele>
        <time>2021-06-26T14:38:59.000Z</time>
        <extensions>
          <ns3:TrackPointExtension>
            <ns3:atemp>23.0</ns3:atemp>
            <ns3:hr>107</ns3:hr>
          </ns3:TrackPointExtension>
        </extensions>
      </trkpt>
      <trkpt lat="36.80656425654888153076171875" lon="-118.3979897014796733856201171875">
        <ele>3225.60009765625</ele>
        <time>2021-06-26T14:39:05.000Z</time>
        <extensions>
          <ns3:TrackPointExtension>
            <ns3:atemp>23.0</ns3:atemp>
            <ns3:hr>106</ns3:hr>
          </ns3:TrackPointExtension>
        </extensions>
      </trkpt>
      <trkpt lat="36.80652377195656299591064453125" lon="-118.397975452244281768798828125">
        <ele>3225.199951171875</ele>
        <time>2021-06-26T14:39:08.000Z</time>
        <extensions>
          <ns3:TrackPointExtension>
            <ns3:atemp>23.0</ns3:atemp>
            <ns3:hr>105</ns3:hr>
          </ns3:TrackPointExtension>
        </extensions>
      </trkpt>
      <trkpt lat="36.8064920045435428619384765625" lon="-118.3979635499417781829833984375">
        <ele>3225</ele>
        <time>2021-06-26T14:39:11.000Z</time>
        <extensions>
          <ns3:TrackPointExtension>
            <ns3:atemp>23.0</ns3:atemp>
            <ns3:hr>105</ns3:hr>
          </ns3:TrackPointExtension>
        </extensions>
      </trkpt>
      <trkpt lat="36.806433498859405517578125" lon="-118.3979316987097263336181640625">
        <ele>3224.800048828125</ele>
        <time>2021-06-26T14:39:17.000Z</time>
        <extensions>
          <ns3:TrackPointExtension>
            <ns3:atemp>23.0</ns3:atemp>
            <ns3:hr>100</ns3:hr>
          </ns3:TrackPointExtension>
        </extensions>
      </trkpt>
      <trkpt lat="36.8064249493181705474853515625" lon="-118.39792457409203052520751953125">
        <ele>3224.60009765625</ele>
        <time>2021-06-26T14:39:18.000Z</time>
        <extensions>
          <ns3:TrackPointExtension>
            <ns3:atemp>23.0</ns3:atemp>
            <ns3:hr>103</ns3:hr>
          </ns3:TrackPointExtension>
        </extensions>
      </trkpt>
      <trkpt lat="36.8063991330564022064208984375" lon="-118.39790563099086284637451171875">
        <ele>3224.39990234375</ele>
        <time>2021-06-26T14:39:21.000Z</time>
        <extensions>
          <ns3:TrackPointExtension>
            <ns3:atemp>23.0</ns3:atemp>
            <ns3:hr>98</ns3:hr>
          </ns3:TrackPointExtension>
        </extensions>
      </trkpt>
      <trkpt lat="36.80638790130615234375" lon="-118.39789607562124729156494140625">
        <ele>3224.39990234375</ele>
        <time>2021-06-26T14:39:22.000Z</time>
        <extensions>
          <ns3:TrackPointExtension>
            <ns3:atemp>23.0</ns3:atemp>
            <ns3:hr>94</ns3:hr>
          </ns3:TrackPointExtension>
        </extensions>
      </trkpt>
      <trkpt lat="36.80637373588979244232177734375" lon="-118.3978790603578090667724609375">
        <ele>3224.39990234375</ele>
        <time>2021-06-26T14:39:24.000Z</time>
        <extensions>
          <ns3:TrackPointExtension>
            <ns3:atemp>23.0</ns3:atemp>
            <ns3:hr>90</ns3:hr>
          </ns3:TrackPointExtension>
        </extensions>
      </trkpt>
      <trkpt lat="36.80634624324738979339599609375" lon="-118.397850058972835540771484375">
        <ele>3224.800048828125</ele>
        <time>2021-06-26T14:39:27.000Z</time>
        <extensions>
          <ns3:TrackPointExtension>
            <ns3:atemp>23.0</ns3:atemp>
            <ns3:hr>87</ns3:hr>
          </ns3:TrackPointExtension>
        </extensions>
      </trkpt>
      <trkpt lat="36.80632109753787517547607421875" lon="-118.39782164432108402252197265625">
        <ele>3224.800048828125</ele>
        <time>2021-06-26T14:39:30.000Z</time>
        <extensions>
          <ns3:TrackPointExtension>
            <ns3:atemp>23.0</ns3:atemp>
            <ns3:hr>85</ns3:hr>
          </ns3:TrackPointExtension>
        </extensions>
      </trkpt>
      <trkpt lat="36.80618799291551113128662109375" lon="-118.3976943232119083404541015625">
        <ele>3224.60009765625</ele>
        <time>2021-06-26T14:39:45.000Z</time>
        <extensions>
          <ns3:TrackPointExtension>
            <ns3:atemp>22.0</ns3:atemp>
            <ns3:hr>84</ns3:hr>
          </ns3:TrackPointExtension>
        </extensions>
      </trkpt>
      <trkpt lat="36.8061758391559123992919921875" lon="-118.3976829238235950469970703125">
        <ele>3224.60009765625</ele>
        <time>2021-06-26T14:39:46.000Z</time>
        <extensions>
          <ns3:TrackPointExtension>
            <ns3:atemp>22.0</ns3:atemp>
            <ns3:hr>87</ns3:hr>
          </ns3:TrackPointExtension>
        </extensions>
      </trkpt>
      <trkpt lat="36.80609931237995624542236328125" lon="-118.39763204567134380340576171875">
        <ele>3224.39990234375</ele>
        <time>2021-06-26T14:39:53.000Z</time>
        <extensions>
          <ns3:TrackPointExtension>
            <ns3:atemp>22.0</ns3:atemp>
            <ns3:hr>90</ns3:hr>
          </ns3:TrackPointExtension>
        </extensions>
      </trkpt>
      <trkpt lat="36.8060568161308765411376953125" lon="-118.39759399183094501495361328125">
        <ele>3224.199951171875</ele>
        <time>2021-06-26T14:39:56.000Z</time>
        <extensions>
          <ns3:TrackPointExtension>
            <ns3:atemp>22.0</ns3:atemp>
            <ns3:hr>87</ns3:hr>
          </ns3:TrackPointExtension>
        </extensions>
      </trkpt>
      <trkpt lat="36.80601616390049457550048828125" lon="-118.39757940731942653656005859375">
        <ele>3224.199951171875</ele>
        <time>2021-06-26T14:39:59.000Z</time>
        <extensions>
          <ns3:TrackPointExtension>
            <ns3:atemp>22.0</ns3:atemp>
            <ns3:hr>88</ns3:hr>
          </ns3:TrackPointExtension>
        </extensions>
      </trkpt>
      <trkpt lat="36.80596956051886081695556640625" lon="-118.39758426882326602935791015625">
        <ele>3224.39990234375</ele>
        <time>2021-06-26T14:40:03.000Z</time>
        <extensions>
          <ns3:TrackPointExtension>
            <ns3:atemp>22.0</ns3:atemp>
            <ns3:hr>92</ns3:hr>
          </ns3:TrackPointExtension>
        </extensions>
      </trkpt>
      <trkpt lat="36.805921532213687896728515625" lon="-118.3976111747324466705322265625">
        <ele>3224.39990234375</ele>
        <time>2021-06-26T14:40:08.000Z</time>
        <extensions>
          <ns3:TrackPointExtension>
            <ns3:atemp>22.0</ns3:atemp>
            <ns3:hr>89</ns3:hr>
          </ns3:TrackPointExtension>
        </extensions>
      </trkpt>
      <trkpt lat="36.8058771081268787384033203125" lon="-118.3976235799491405487060546875">
        <ele>3224.39990234375</ele>
        <time>2021-06-26T14:40:12.000Z</time>
        <extensions>
          <ns3:TrackPointExtension>
            <ns3:atemp>22.0</ns3:atemp>
            <ns3:hr>88</ns3:hr>
          </ns3:TrackPointExtension>
        </extensions>
      </trkpt>
      <trkpt lat="36.805771328508853912353515625" lon="-118.39768451638519763946533203125">
        <ele>3224.60009765625</ele>
        <time>2021-06-26T14:40:22.000Z</time>
        <extensions>
          <ns3:TrackPointExtension>
            <ns3:atemp>22.0</ns3:atemp>
            <ns3:hr>91</ns3:hr>
          </ns3:TrackPointExtension>
        </extensions>
      </trkpt>
      <trkpt lat="36.80574794299900531768798828125" lon="-118.3977003581821918487548828125">
        <ele>3224</ele>
        <time>2021-06-26T14:40:25.000Z</time>
        <extensions>
          <ns3:TrackPointExtension>
            <ns3:atemp>22.0</ns3:atemp>
            <ns3:hr>92</ns3:hr>
          </ns3:TrackPointExtension>
        </extensions>
      </trkpt>
      <trkpt lat="36.80571843869984149932861328125" lon="-118.39771158993244171142578125">
        <ele>3223.800048828125</ele>
        <time>2021-06-26T14:40:28.000Z</time>
        <extensions>
          <ns3:TrackPointExtension>
            <ns3:atemp>22.0</ns3:atemp>
            <ns3:hr>92</ns3:hr>
          </ns3:TrackPointExtension>
        </extensions>
      </trkpt>
      <trkpt lat="36.80568725802004337310791015625" lon="-118.39772223494946956634521484375">
        <ele>3224</ele>
        <time>2021-06-26T14:40:31.000Z</time>
        <extensions>
          <ns3:TrackPointExtension>
            <ns3:atemp>22.0</ns3:atemp>
            <ns3:hr>89</ns3:hr>
          </ns3:TrackPointExtension>
        </extensions>
      </trkpt>
      <trkpt lat="36.80566865019500255584716796875" lon="-118.39772391133010387420654296875">
        <ele>3223.800048828125</ele>
        <time>2021-06-26T14:40:33.000Z</time>
        <extensions>
          <ns3:TrackPointExtension>
            <ns3:atemp>22.0</ns3:atemp>
            <ns3:hr>93</ns3:hr>
          </ns3:TrackPointExtension>
        </extensions>
      </trkpt>
      <trkpt lat="36.8056575022637844085693359375" lon="-118.39772391133010387420654296875">
        <ele>3223.60009765625</ele>
        <time>2021-06-26T14:40:34.000Z</time>
        <extensions>
          <ns3:TrackPointExtension>
            <ns3:atemp>22.0</ns3:atemp>
            <ns3:hr>93</ns3:hr>
          </ns3:TrackPointExtension>
        </extensions>
      </trkpt>
      <trkpt lat="36.805605702102184295654296875" lon="-118.397722654044628143310546875">
        <ele>3223.39990234375</ele>
        <time>2021-06-26T14:40:39.000Z</time>
        <extensions>
          <ns3:TrackPointExtension>
            <ns3:atemp>22.0</ns3:atemp>
            <ns3:hr>94</ns3:hr>
          </ns3:TrackPointExtension>
        </extensions>
      </trkpt>
      <trkpt lat="36.80558499880135059356689453125" lon="-118.397724665701389312744140625">
        <ele>3223.199951171875</ele>
        <time>2021-06-26T14:40:41.000Z</time>
        <extensions>
          <ns3:TrackPointExtension>
            <ns3:atemp>22.0</ns3:atemp>
            <ns3:hr>95</ns3:hr>
          </ns3:TrackPointExtension>
        </extensions>
      </trkpt>
      <trkpt lat="36.805566139519214630126953125" lon="-118.39773614890873432159423828125">
        <ele>3223</ele>
        <time>2021-06-26T14:40:43.000Z</time>
        <extensions>
          <ns3:TrackPointExtension>
            <ns3:atemp>22.0</ns3:atemp>
            <ns3:hr>95</ns3:hr>
          </ns3:TrackPointExtension>
        </extensions>
      </trkpt>
      <trkpt lat="36.80550704710185527801513671875" lon="-118.3977959118783473968505859375">
        <ele>3221.800048828125</ele>
        <time>2021-06-26T14:40:50.000Z</time>
        <extensions>
          <ns3:TrackPointExtension>
            <ns3:atemp>22.0</ns3:atemp>
            <ns3:hr>96</ns3:hr>
          </ns3:TrackPointExtension>
        </extensions>
      </trkpt>
      <trkpt lat="36.80548944510519504547119140625" lon="-118.39781024493277072906494140625">
        <ele>3221.60009765625</ele>
        <time>2021-06-26T14:40:52.000Z</time>
        <extensions>
          <ns3:TrackPointExtension>
            <ns3:atemp>22.0</ns3:atemp>
            <ns3:hr>96</ns3:hr>
          </ns3:TrackPointExtension>
        </extensions>
      </trkpt>
      <trkpt lat="36.805463545024394989013671875" lon="-118.39783002622425556182861328125">
        <ele>3221.199951171875</ele>
        <time>2021-06-26T14:40:55.000Z</time>
        <extensions>
          <ns3:TrackPointExtension>
            <ns3:atemp>22.0</ns3:atemp>
            <ns3:hr>98</ns3:hr>
          </ns3:TrackPointExtension>
        </extensions>
      </trkpt>
      <trkpt lat="36.805451810359954833984375" lon="-118.39782885275781154632568359375">
        <ele>3220.800048828125</ele>
        <time>2021-06-26T14:40:56.000Z</time>
        <extensions>
          <ns3:TrackPointExtension>
            <ns3:atemp>22.0</ns3:atemp>
            <ns3:hr>97</ns3:hr>
          </ns3:TrackPointExtension>
        </extensions>
      </trkpt>
      <trkpt lat="36.80542440153658390045166015625" lon="-118.39783287607133388519287109375">
        <ele>3220.39990234375</ele>
        <time>2021-06-26T14:40:59.000Z</time>
        <extensions>
          <ns3:TrackPointExtension>
            <ns3:atemp>22.0</ns3:atemp>
            <ns3:hr>95</ns3:hr>
          </ns3:TrackPointExtension>
        </extensions>
      </trkpt>
      <trkpt lat="36.80540143512189388275146484375" lon="-118.3978485502302646636962890625">
        <ele>3220</ele>
        <time>2021-06-26T14:41:02.000Z</time>
        <extensions>
          <ns3:TrackPointExtension>
            <ns3:atemp>22.0</ns3:atemp>
            <ns3:hr>92</ns3:hr>
          </ns3:TrackPointExtension>
        </extensions>
      </trkpt>
      <trkpt lat="36.80539213120937347412109375" lon="-118.3978475444018840789794921875">
        <ele>3219.800048828125</ele>
        <time>2021-06-26T14:41:03.000Z</time>
        <extensions>
          <ns3:TrackPointExtension>
            <ns3:atemp>22.0</ns3:atemp>
            <ns3:hr>92</ns3:hr>
          </ns3:TrackPointExtension>
        </extensions>
      </trkpt>
      <trkpt lat="36.80535533465445041656494140625" lon="-118.3978364802896976470947265625">
        <ele>3219.60009765625</ele>
        <time>2021-06-26T14:41:06.000Z</time>
        <extensions>
          <ns3:TrackPointExtension>
            <ns3:atemp>22.0</ns3:atemp>
            <ns3:hr>92</ns3:hr>
          </ns3:TrackPointExtension>
        </extensions>
      </trkpt>
      <trkpt lat="36.80531568825244903564453125" lon="-118.3978190459311008453369140625">
        <ele>3219.60009765625</ele>
        <time>2021-06-26T14:41:10.000Z</time>
        <extensions>
          <ns3:TrackPointExtension>
            <ns3:atemp>22.0</ns3:atemp>
            <ns3:hr>93</ns3:hr>
          </ns3:TrackPointExtension>
        </extensions>
      </trkpt>
      <trkpt lat="36.80528308264911174774169921875" lon="-118.39781091548502445220947265625">
        <ele>3219</ele>
        <time>2021-06-26T14:41:13.000Z</time>
        <extensions>
          <ns3:TrackPointExtension>
            <ns3:atemp>22.0</ns3:atemp>
            <ns3:hr>90</ns3:hr>
          </ns3:TrackPointExtension>
        </extensions>
      </trkpt>
      <trkpt lat="36.80526413954794406890869140625" lon="-118.3977992646396160125732421875">
        <ele>3218.800048828125</ele>
        <time>2021-06-26T14:41:15.000Z</time>
        <extensions>
          <ns3:TrackPointExtension>
            <ns3:atemp>22.0</ns3:atemp>
            <ns3:hr>91</ns3:hr>
          </ns3:TrackPointExtension>
        </extensions>
      </trkpt>
      <trkpt lat="36.805244944989681243896484375" lon="-118.3977868594229221343994140625">
        <ele>3218.800048828125</ele>
        <time>2021-06-26T14:41:16.000Z</time>
        <extensions>
          <ns3:TrackPointExtension>
            <ns3:atemp>22.0</ns3:atemp>
            <ns3:hr>89</ns3:hr>
          </ns3:TrackPointExtension>
        </extensions>
      </trkpt>
      <trkpt lat="36.805235557258129119873046875" lon="-118.3977845124900341033935546875">
        <ele>3218.800048828125</ele>
        <time>2021-06-26T14:41:17.000Z</time>
        <extensions>
          <ns3:TrackPointExtension>
            <ns3:atemp>22.0</ns3:atemp>
            <ns3:hr>93</ns3:hr>
          </ns3:TrackPointExtension>
        </extensions>
      </trkpt>
      <trkpt lat="36.80519943125545978546142578125" lon="-118.397776968777179718017578125">
        <ele>3218.199951171875</ele>
        <time>2021-06-26T14:41:20.000Z</time>
        <extensions>
          <ns3:TrackPointExtension>
            <ns3:atemp>22.0</ns3:atemp>
            <ns3:hr>94</ns3:hr>
          </ns3:TrackPointExtension>
        </extensions>
      </trkpt>
      <trkpt lat="36.805120892822742462158203125" lon="-118.39775542728602886199951171875">
        <ele>3218.199951171875</ele>
        <time>2021-06-26T14:41:28.000Z</time>
        <extensions>
          <ns3:TrackPointExtension>
            <ns3:atemp>22.0</ns3:atemp>
            <ns3:hr>89</ns3:hr>
          </ns3:TrackPointExtension>
        </extensions>
      </trkpt>
      <trkpt lat="36.80511192418634891510009765625" lon="-118.39775039814412593841552734375">
        <ele>3218.199951171875</ele>
        <time>2021-06-26T14:41:29.000Z</time>
        <extensions>
          <ns3:TrackPointExtension>
            <ns3:atemp>22.0</ns3:atemp>
            <ns3:hr>87</ns3:hr>
          </ns3:TrackPointExtension>
        </extensions>
      </trkpt>
      <trkpt lat="36.80510052479803562164306640625" lon="-118.3977449499070644378662109375">
        <ele>3217.60009765625</ele>
        <time>2021-06-26T14:41:30.000Z</time>
        <extensions>
          <ns3:TrackPointExtension>
            <ns3:atemp>22.0</ns3:atemp>
            <ns3:hr>86</ns3:hr>
          </ns3:TrackPointExtension>
        </extensions>
      </trkpt>
      <trkpt lat="36.8050784803926944732666015625" lon="-118.39773883111774921417236328125">
        <ele>3217.39990234375</ele>
        <time>2021-06-26T14:41:32.000Z</time>
        <extensions>
          <ns3:TrackPointExtension>
            <ns3:atemp>22.0</ns3:atemp>
            <ns3:hr>82</ns3:hr>
          </ns3:TrackPointExtension>
        </extensions>
      </trkpt>
      <trkpt lat="36.80504688061773777008056640625" lon="-118.39773782528936862945556640625">
        <ele>3217.39990234375</ele>
        <time>2021-06-26T14:41:35.000Z</time>
        <extensions>
          <ns3:TrackPointExtension>
            <ns3:atemp>22.0</ns3:atemp>
            <ns3:hr>79</ns3:hr>
          </ns3:TrackPointExtension>
        </extensions>
      </trkpt>
      <trkpt lat="36.80500413291156291961669921875" lon="-118.39774805121123790740966796875">
        <ele>3217.199951171875</ele>
        <time>2021-06-26T14:41:39.000Z</time>
        <extensions>
          <ns3:TrackPointExtension>
            <ns3:atemp>21.0</ns3:atemp>
            <ns3:hr>78</ns3:hr>
          </ns3:TrackPointExtension>
        </extensions>
      </trkpt>
      <trkpt lat="36.80492517538368701934814453125" lon="-118.397778309881687164306640625">
        <ele>3216.60009765625</ele>
        <time>2021-06-26T14:41:46.000Z</time>
        <extensions>
          <ns3:TrackPointExtension>
            <ns3:atemp>21.0</ns3:atemp>
            <ns3:hr>77</ns3:hr>
          </ns3:TrackPointExtension>
        </extensions>
      </trkpt>
      <trkpt lat="36.8049088306725025177001953125" lon="-118.397792391479015350341796875">
        <ele>3216.60009765625</ele>
        <time>2021-06-26T14:41:48.000Z</time>
        <extensions>
          <ns3:TrackPointExtension>
            <ns3:atemp>21.0</ns3:atemp>
            <ns3:hr>77</ns3:hr>
          </ns3:TrackPointExtension>
        </extensions>
      </trkpt>
      <trkpt lat="36.8049011193215847015380859375" lon="-118.3978009410202503204345703125">
        <ele>3216.60009765625</ele>
        <time>2021-06-26T14:41:49.000Z</time>
        <extensions>
          <ns3:TrackPointExtension>
            <ns3:atemp>21.0</ns3:atemp>
            <ns3:hr>77</ns3:hr>
          </ns3:TrackPointExtension>
        </extensions>
      </trkpt>
      <trkpt lat="36.80488226003944873809814453125" lon="-118.39780546724796295166015625">
        <ele>3216</ele>
        <time>2021-06-26T14:41:51.000Z</time>
        <extensions>
          <ns3:TrackPointExtension>
            <ns3:atemp>21.0</ns3:atemp>
            <ns3:hr>74</ns3:hr>
          </ns3:TrackPointExtension>
        </extensions>
      </trkpt>
      <trkpt lat="36.80487002246081829071044921875" lon="-118.39781024493277072906494140625">
        <ele>3216</ele>
        <time>2021-06-26T14:41:52.000Z</time>
        <extensions>
          <ns3:TrackPointExtension>
            <ns3:atemp>21.0</ns3:atemp>
            <ns3:hr>77</ns3:hr>
          </ns3:TrackPointExtension>
        </extensions>
      </trkpt>
      <trkpt lat="36.80481218732893466949462890625" lon="-118.3978324569761753082275390625">
        <ele>3216</ele>
        <time>2021-06-26T14:41:57.000Z</time>
        <extensions>
          <ns3:TrackPointExtension>
            <ns3:atemp>21.0</ns3:atemp>
            <ns3:hr>77</ns3:hr>
          </ns3:TrackPointExtension>
        </extensions>
      </trkpt>
      <trkpt lat="36.8047898076474666595458984375" lon="-118.39783773757517337799072265625">
        <ele>3216.199951171875</ele>
        <time>2021-06-26T14:41:59.000Z</time>
        <extensions>
          <ns3:TrackPointExtension>
            <ns3:atemp>21.0</ns3:atemp>
            <ns3:hr>73</ns3:hr>
          </ns3:TrackPointExtension>
        </extensions>
      </trkpt>
      <trkpt lat="36.804735660552978515625" lon="-118.39786581695079803466796875">
        <ele>3216.199951171875</ele>
        <time>2021-06-26T14:42:04.000Z</time>
        <extensions>
          <ns3:TrackPointExtension>
            <ns3:atemp>21.0</ns3:atemp>
            <ns3:hr>76</ns3:hr>
          </ns3:TrackPointExtension>
        </extensions>
      </trkpt>
      <trkpt lat="36.80472115986049175262451171875" lon="-118.3978817425668239593505859375">
        <ele>3216.39990234375</ele>
        <time>2021-06-26T14:42:06.000Z</time>
        <extensions>
          <ns3:TrackPointExtension>
            <ns3:atemp>21.0</ns3:atemp>
            <ns3:hr>75</ns3:hr>
          </ns3:TrackPointExtension>
        </extensions>
      </trkpt>
      <trkpt lat="36.80466231890022754669189453125" lon="-118.3979169465601444244384765625">
        <ele>3217</ele>
        <time>2021-06-26T14:42:15.000Z</time>
        <extensions>
          <ns3:TrackPointExtension>
            <ns3:atemp>21.0</ns3:atemp>
            <ns3:hr>73</ns3:hr>
          </ns3:TrackPointExtension>
        </extensions>
      </trkpt>
      <trkpt lat="36.80461839772760868072509765625" lon="-118.39794804342091083526611328125">
        <ele>3217.39990234375</ele>
        <time>2021-06-26T14:42:21.000Z</time>
        <extensions>
          <ns3:TrackPointExtension>
            <ns3:atemp>21.0</ns3:atemp>
            <ns3:hr>77</ns3:hr>
          </ns3:TrackPointExtension>
        </extensions>
      </trkpt>
      <trkpt lat="36.80461470969021320343017578125" lon="-118.3979509770870208740234375">
        <ele>3217.39990234375</ele>
        <time>2021-06-26T14:42:22.000Z</time>
        <extensions>
          <ns3:TrackPointExtension>
            <ns3:atemp>21.0</ns3:atemp>
            <ns3:hr>78</ns3:hr>
          </ns3:TrackPointExtension>
        </extensions>
      </trkpt>
      <trkpt lat="36.80461227893829345703125" lon="-118.39795240201056003570556640625">
        <ele>3217.39990234375</ele>
        <time>2021-06-26T14:42:23.000Z</time>
        <extensions>
          <ns3:TrackPointExtension>
            <ns3:atemp>21.0</ns3:atemp>
            <ns3:hr>78</ns3:hr>
          </ns3:TrackPointExtension>
        </extensions>
      </trkpt>
      <trkpt lat="36.80461160838603973388671875" lon="-118.39795458130538463592529296875">
        <ele>3217.199951171875</ele>
        <time>2021-06-26T14:42:24.000Z</time>
        <extensions>
          <ns3:TrackPointExtension>
            <ns3:atemp>21.0</ns3:atemp>
            <ns3:hr>84</ns3:hr>
          </ns3:TrackPointExtension>
        </extensions>
      </trkpt>
      <trkpt lat="36.80461001582443714141845703125" lon="-118.397953994572162628173828125">
        <ele>3217.199951171875</ele>
        <time>2021-06-26T14:42:25.000Z</time>
        <extensions>
          <ns3:TrackPointExtension>
            <ns3:atemp>21.0</ns3:atemp>
            <ns3:hr>85</ns3:hr>
          </ns3:TrackPointExtension>
        </extensions>
      </trkpt>
      <trkpt lat="36.8046121113002300262451171875" lon="-118.39794770814478397369384765625">
        <ele>3217.199951171875</ele>
        <time>2021-06-26T14:42:28.000Z</time>
        <extensions>
          <ns3:TrackPointExtension>
            <ns3:atemp>21.0</ns3:atemp>
            <ns3:hr>88</ns3:hr>
          </ns3:TrackPointExtension>
        </extensions>
      </trkpt>
      <trkpt lat="36.80460900999605655670166015625" lon="-118.3979509770870208740234375">
        <ele>3217.199951171875</ele>
        <time>2021-06-26T14:42:29.000Z</time>
        <extensions>
          <ns3:TrackPointExtension>
            <ns3:atemp>21.0</ns3:atemp>
            <ns3:hr>88</ns3:hr>
          </ns3:TrackPointExtension>
        </extensions>
      </trkpt>
      <trkpt lat="36.804610602557659149169921875" lon="-118.3979494683444499969482421875">
        <ele>3217.60009765625</ele>
        <time>2021-06-26T14:42:30.000Z</time>
        <extensions>
          <ns3:TrackPointExtension>
            <ns3:atemp>21.0</ns3:atemp>
            <ns3:hr>89</ns3:hr>
          </ns3:TrackPointExtension>
        </extensions>
      </trkpt>
      <trkpt lat="36.804605238139629364013671875" lon="-118.3979617059230804443359375">
        <ele>3217.60009765625</ele>
        <time>2021-06-26T14:42:36.000Z</time>
        <extensions>
          <ns3:TrackPointExtension>
            <ns3:atemp>21.0</ns3:atemp>
            <ns3:hr>86</ns3:hr>
          </ns3:TrackPointExtension>
        </extensions>
      </trkpt>
      <trkpt lat="36.804605238139629364013671875" lon="-118.3979617059230804443359375">
        <ele>3217.60009765625</ele>
        <time>2021-06-26T14:42:45.000Z</time>
        <extensions>
          <ns3:TrackPointExtension>
            <ns3:atemp>21.0</ns3:atemp>
            <ns3:hr>83</ns3:hr>
          </ns3:TrackPointExtension>
        </extensions>
      </trkpt>
      <trkpt lat="36.8045983649790287017822265625" lon="-118.3979558385908603668212890625">
        <ele>3217.60009765625</ele>
        <time>2021-06-26T14:42:53.000Z</time>
        <extensions>
          <ns3:TrackPointExtension>
            <ns3:atemp>21.0</ns3:atemp>
            <ns3:hr>83</ns3:hr>
          </ns3:TrackPointExtension>
        </extensions>
      </trkpt>
      <trkpt lat="36.80453591980040073394775390625" lon="-118.3979643881320953369140625">
        <ele>3217.60009765625</ele>
        <time>2021-06-26T14:43:00.000Z</time>
        <extensions>
          <ns3:TrackPointExtension>
            <ns3:atemp>21.0</ns3:atemp>
            <ns3:hr>83</ns3:hr>
          </ns3:TrackPointExtension>
        </extensions>
      </trkpt>
      <trkpt lat="36.80446098558604717254638671875" lon="-118.39797872118651866912841796875">
        <ele>3217.60009765625</ele>
        <time>2021-06-26T14:43:06.000Z</time>
        <extensions>
          <ns3:TrackPointExtension>
            <ns3:atemp>21.0</ns3:atemp>
            <ns3:hr>86</ns3:hr>
          </ns3:TrackPointExtension>
        </extensions>
      </trkpt>
      <trkpt lat="36.80443634279072284698486328125" lon="-118.397988863289356231689453125">
        <ele>3217.60009765625</ele>
        <time>2021-06-26T14:43:09.000Z</time>
        <extensions>
          <ns3:TrackPointExtension>
            <ns3:atemp>21.0</ns3:atemp>
            <ns3:hr>87</ns3:hr>
          </ns3:TrackPointExtension>
        </extensions>
      </trkpt>
      <trkpt lat="36.8043961934745311737060546875" lon="-118.398017697036266326904296875">
        <ele>3216.199951171875</ele>
        <time>2021-06-26T14:43:14.000Z</time>
        <extensions>
          <ns3:TrackPointExtension>
            <ns3:atemp>21.0</ns3:atemp>
            <ns3:hr>86</ns3:hr>
          </ns3:TrackPointExtension>
        </extensions>
      </trkpt>
      <trkpt lat="36.80434213019907474517822265625" lon="-118.39806354604661464691162109375">
        <ele>3215.199951171875</ele>
        <time>2021-06-26T14:43:20.000Z</time>
        <extensions>
          <ns3:TrackPointExtension>
            <ns3:atemp>21.0</ns3:atemp>
            <ns3:hr>86</ns3:hr>
          </ns3:TrackPointExtension>
        </extensions>
      </trkpt>
      <trkpt lat="36.80422402918338775634765625" lon="-118.3981100656092166900634765625">
        <ele>3214.39990234375</ele>
        <time>2021-06-26T14:43:31.000Z</time>
        <extensions>
          <ns3:TrackPointExtension>
            <ns3:atemp>21.0</ns3:atemp>
            <ns3:hr>86</ns3:hr>
          </ns3:TrackPointExtension>
        </extensions>
      </trkpt>
      <trkpt lat="36.8041973747313022613525390625" lon="-118.39810914359986782073974609375">
        <ele>3214.39990234375</ele>
        <time>2021-06-26T14:43:34.000Z</time>
        <extensions>
          <ns3:TrackPointExtension>
            <ns3:atemp>21.0</ns3:atemp>
            <ns3:hr>86</ns3:hr>
          </ns3:TrackPointExtension>
        </extensions>
      </trkpt>
      <trkpt lat="36.80418354459106922149658203125" lon="-118.398114927113056182861328125">
        <ele>3214.39990234375</ele>
        <time>2021-06-26T14:43:36.000Z</time>
        <extensions>
          <ns3:TrackPointExtension>
            <ns3:atemp>21.0</ns3:atemp>
            <ns3:hr>87</ns3:hr>
          </ns3:TrackPointExtension>
        </extensions>
      </trkpt>
      <trkpt lat="36.804171390831470489501953125" lon="-118.3981124125421047210693359375">
        <ele>3214.60009765625</ele>
        <time>2021-06-26T14:43:38.000Z</time>
        <extensions>
          <ns3:TrackPointExtension>
            <ns3:atemp>21.0</ns3:atemp>
            <ns3:hr>86</ns3:hr>
          </ns3:TrackPointExtension>
        </extensions>
      </trkpt>
      <trkpt lat="36.80412000976502895355224609375" lon="-118.3981065452098846435546875">
        <ele>3215.39990234375</ele>
        <time>2021-06-26T14:43:43.000Z</time>
        <extensions>
          <ns3:TrackPointExtension>
            <ns3:atemp>21.0</ns3:atemp>
            <ns3:hr>83</ns3:hr>
          </ns3:TrackPointExtension>
        </extensions>
      </trkpt>
      <trkpt lat="36.80407608859241008758544921875" lon="-118.3981020189821720123291015625">
        <ele>3216</ele>
        <time>2021-06-26T14:43:47.000Z</time>
        <extensions>
          <ns3:TrackPointExtension>
            <ns3:atemp>21.0</ns3:atemp>
            <ns3:hr>80</ns3:hr>
          </ns3:TrackPointExtension>
        </extensions>
      </trkpt>
      <trkpt lat="36.80405194871127605438232421875" lon="-118.39808634482324123382568359375">
        <ele>3216</ele>
        <time>2021-06-26T14:43:49.000Z</time>
        <extensions>
          <ns3:TrackPointExtension>
            <ns3:atemp>21.0</ns3:atemp>
            <ns3:hr>83</ns3:hr>
          </ns3:TrackPointExtension>
        </extensions>
      </trkpt>
      <trkpt lat="36.8040384538471698760986328125" lon="-118.3980869315564632415771484375">
        <ele>3216.199951171875</ele>
        <time>2021-06-26T14:43:50.000Z</time>
        <extensions>
          <ns3:TrackPointExtension>
            <ns3:atemp>21.0</ns3:atemp>
            <ns3:hr>81</ns3:hr>
          </ns3:TrackPointExtension>
        </extensions>
      </trkpt>
      <trkpt lat="36.80400433950126171112060546875" lon="-118.39808802120387554168701171875">
        <ele>3216.60009765625</ele>
        <time>2021-06-26T14:43:53.000Z</time>
        <extensions>
          <ns3:TrackPointExtension>
            <ns3:atemp>21.0</ns3:atemp>
            <ns3:hr>84</ns3:hr>
          </ns3:TrackPointExtension>
        </extensions>
      </trkpt>
      <trkpt lat="36.80399696342647075653076171875" lon="-118.39808483608067035675048828125">
        <ele>3216.800048828125</ele>
        <time>2021-06-26T14:43:54.000Z</time>
        <extensions>
          <ns3:TrackPointExtension>
            <ns3:atemp>21.0</ns3:atemp>
            <ns3:hr>82</ns3:hr>
          </ns3:TrackPointExtension>
        </extensions>
      </trkpt>
      <trkpt lat="36.80396921932697296142578125" lon="-118.398080728948116302490234375">
        <ele>3217</ele>
        <time>2021-06-26T14:43:57.000Z</time>
        <extensions>
          <ns3:TrackPointExtension>
            <ns3:atemp>21.0</ns3:atemp>
            <ns3:hr>85</ns3:hr>
          </ns3:TrackPointExtension>
        </extensions>
      </trkpt>
      <trkpt lat="36.803949773311614990234375" lon="-118.39807544834911823272705078125">
        <ele>3217.39990234375</ele>
        <time>2021-06-26T14:43:59.000Z</time>
        <extensions>
          <ns3:TrackPointExtension>
            <ns3:atemp>21.0</ns3:atemp>
            <ns3:hr>88</ns3:hr>
          </ns3:TrackPointExtension>
        </extensions>
      </trkpt>
      <trkpt lat="36.8039147369563579559326171875" lon="-118.3980674855411052703857421875">
        <ele>3217.60009765625</ele>
        <time>2021-06-26T14:44:02.000Z</time>
        <extensions>
          <ns3:TrackPointExtension>
            <ns3:atemp>21.0</ns3:atemp>
            <ns3:hr>88</ns3:hr>
          </ns3:TrackPointExtension>
        </extensions>
      </trkpt>
      <trkpt lat="36.80386050604283809661865234375" lon="-118.3980738557875156402587890625">
        <ele>3217.39990234375</ele>
        <time>2021-06-26T14:44:08.000Z</time>
        <extensions>
          <ns3:TrackPointExtension>
            <ns3:atemp>21.0</ns3:atemp>
            <ns3:hr>92</ns3:hr>
          </ns3:TrackPointExtension>
        </extensions>
      </trkpt>
      <trkpt lat="36.8038503639400005340576171875" lon="-118.39807226322591304779052734375">
        <ele>3217.39990234375</ele>
        <time>2021-06-26T14:44:09.000Z</time>
        <extensions>
          <ns3:TrackPointExtension>
            <ns3:atemp>21.0</ns3:atemp>
            <ns3:hr>91</ns3:hr>
          </ns3:TrackPointExtension>
        </extensions>
      </trkpt>
      <trkpt lat="36.803826056420803070068359375" lon="-118.39807712472975254058837890625">
        <ele>3217.60009765625</ele>
        <time>2021-06-26T14:44:11.000Z</time>
        <extensions>
          <ns3:TrackPointExtension>
            <ns3:atemp>21.0</ns3:atemp>
            <ns3:hr>94</ns3:hr>
          </ns3:TrackPointExtension>
        </extensions>
      </trkpt>
      <trkpt lat="36.80380468256771564483642578125" lon="-118.3980822376906871795654296875">
        <ele>3217.60009765625</ele>
        <time>2021-06-26T14:44:13.000Z</time>
        <extensions>
          <ns3:TrackPointExtension>
            <ns3:atemp>21.0</ns3:atemp>
            <ns3:hr>97</ns3:hr>
          </ns3:TrackPointExtension>
        </extensions>
      </trkpt>
      <trkpt lat="36.803775094449520111083984375" lon="-118.39808852411806583404541015625">
        <ele>3217.39990234375</ele>
        <time>2021-06-26T14:44:16.000Z</time>
        <extensions>
          <ns3:TrackPointExtension>
            <ns3:atemp>21.0</ns3:atemp>
            <ns3:hr>95</ns3:hr>
          </ns3:TrackPointExtension>
        </extensions>
      </trkpt>
      <trkpt lat="36.80375305004417896270751953125" lon="-118.39808852411806583404541015625">
        <ele>3217.39990234375</ele>
        <time>2021-06-26T14:44:18.000Z</time>
        <extensions>
          <ns3:TrackPointExtension>
            <ns3:atemp>21.0</ns3:atemp>
            <ns3:hr>92</ns3:hr>
          </ns3:TrackPointExtension>
        </extensions>
      </trkpt>
      <trkpt lat="36.8036971427500247955322265625" lon="-118.398088775575160980224609375">
        <ele>3217.199951171875</ele>
        <time>2021-06-26T14:44:24.000Z</time>
        <extensions>
          <ns3:TrackPointExtension>
            <ns3:atemp>21.0</ns3:atemp>
            <ns3:hr>94</ns3:hr>
          </ns3:TrackPointExtension>
        </extensions>
      </trkpt>
      <trkpt lat="36.80363955907523632049560546875" lon="-118.39808844029903411865234375">
        <ele>3217.60009765625</ele>
        <time>2021-06-26T14:44:29.000Z</time>
        <extensions>
          <ns3:TrackPointExtension>
            <ns3:atemp>21.0</ns3:atemp>
            <ns3:hr>91</ns3:hr>
          </ns3:TrackPointExtension>
        </extensions>
      </trkpt>
      <trkpt lat="36.80360401980578899383544921875" lon="-118.398105204105377197265625">
        <ele>3217.60009765625</ele>
        <time>2021-06-26T14:44:32.000Z</time>
        <extensions>
          <ns3:TrackPointExtension>
            <ns3:atemp>21.0</ns3:atemp>
            <ns3:hr>95</ns3:hr>
          </ns3:TrackPointExtension>
        </extensions>
      </trkpt>
      <trkpt lat="36.80359412916004657745361328125" lon="-118.3981087245047092437744140625">
        <ele>3217.60009765625</ele>
        <time>2021-06-26T14:44:33.000Z</time>
        <extensions>
          <ns3:TrackPointExtension>
            <ns3:atemp>21.0</ns3:atemp>
            <ns3:hr>95</ns3:hr>
          </ns3:TrackPointExtension>
        </extensions>
      </trkpt>
      <trkpt lat="36.8034906126558780670166015625" lon="-118.39814476668834686279296875">
        <ele>3218.39990234375</ele>
        <time>2021-06-26T14:44:43.000Z</time>
        <extensions>
          <ns3:TrackPointExtension>
            <ns3:atemp>22.0</ns3:atemp>
            <ns3:hr>94</ns3:hr>
          </ns3:TrackPointExtension>
        </extensions>
      </trkpt>
      <trkpt lat="36.80342330597341060638427734375" lon="-118.39819933287799358367919921875">
        <ele>3218</ele>
        <time>2021-06-26T14:44:50.000Z</time>
        <extensions>
          <ns3:TrackPointExtension>
            <ns3:atemp>22.0</ns3:atemp>
            <ns3:hr>93</ns3:hr>
          </ns3:TrackPointExtension>
        </extensions>
      </trkpt>
      <trkpt lat="36.80340888909995555877685546875" lon="-118.39821861125528812408447265625">
        <ele>3217.800048828125</ele>
        <time>2021-06-26T14:44:52.000Z</time>
        <extensions>
          <ns3:TrackPointExtension>
            <ns3:atemp>22.0</ns3:atemp>
            <ns3:hr>90</ns3:hr>
          </ns3:TrackPointExtension>
        </extensions>
      </trkpt>
      <trkpt lat="36.80339983664453029632568359375" lon="-118.398233950138092041015625">
        <ele>3217.39990234375</ele>
        <time>2021-06-26T14:44:54.000Z</time>
        <extensions>
          <ns3:TrackPointExtension>
            <ns3:atemp>22.0</ns3:atemp>
            <ns3:hr>86</ns3:hr>
          </ns3:TrackPointExtension>
        </extensions>
      </trkpt>
      <trkpt lat="36.80338642559945583343505859375" lon="-118.3982827328145503997802734375">
        <ele>3216.39990234375</ele>
        <time>2021-06-26T14:45:00.000Z</time>
        <extensions>
          <ns3:TrackPointExtension>
            <ns3:atemp>22.0</ns3:atemp>
            <ns3:hr>84</ns3:hr>
          </ns3:TrackPointExtension>
        </extensions>
      </trkpt>
      <trkpt lat="36.8033853359520435333251953125" lon="-118.39830301702022552490234375">
        <ele>3215.800048828125</ele>
        <time>2021-06-26T14:45:02.000Z</time>
        <extensions>
          <ns3:TrackPointExtension>
            <ns3:atemp>22.0</ns3:atemp>
            <ns3:hr>85</ns3:hr>
          </ns3:TrackPointExtension>
        </extensions>
      </trkpt>
      <trkpt lat="36.803369410336017608642578125" lon="-118.398379124701023101806640625">
        <ele>3214.800048828125</ele>
        <time>2021-06-26T14:45:08.000Z</time>
        <extensions>
          <ns3:TrackPointExtension>
            <ns3:atemp>22.0</ns3:atemp>
            <ns3:hr>86</ns3:hr>
          </ns3:TrackPointExtension>
        </extensions>
      </trkpt>
      <trkpt lat="36.8033508025109767913818359375" lon="-118.39847006835043430328369140625">
        <ele>3213.60009765625</ele>
        <time>2021-06-26T14:45:15.000Z</time>
        <extensions>
          <ns3:TrackPointExtension>
            <ns3:atemp>22.0</ns3:atemp>
            <ns3:hr>87</ns3:hr>
          </ns3:TrackPointExtension>
        </extensions>
      </trkpt>
      <trkpt lat="36.80334082804620265960693359375" lon="-118.398478031158447265625">
        <ele>3213.60009765625</ele>
        <time>2021-06-26T14:45:16.000Z</time>
        <extensions>
          <ns3:TrackPointExtension>
            <ns3:atemp>22.0</ns3:atemp>
            <ns3:hr>87</ns3:hr>
          </ns3:TrackPointExtension>
        </extensions>
      </trkpt>
      <trkpt lat="36.80323990993201732635498046875" lon="-118.39851893484592437744140625">
        <ele>3213.800048828125</ele>
        <time>2021-06-26T14:45:25.000Z</time>
        <extensions>
          <ns3:TrackPointExtension>
            <ns3:atemp>21.0</ns3:atemp>
            <ns3:hr>89</ns3:hr>
          </ns3:TrackPointExtension>
        </extensions>
      </trkpt>
      <trkpt lat="36.80319448001682758331298828125" lon="-118.398552797734737396240234375">
        <ele>3213.60009765625</ele>
        <time>2021-06-26T14:45:29.000Z</time>
        <extensions>
          <ns3:TrackPointExtension>
            <ns3:atemp>21.0</ns3:atemp>
            <ns3:hr>92</ns3:hr>
          </ns3:TrackPointExtension>
        </extensions>
      </trkpt>
      <trkpt lat="36.80314301513135433197021484375" lon="-118.39859428815543651580810546875">
        <ele>3214.199951171875</ele>
        <time>2021-06-26T14:45:34.000Z</time>
        <extensions>
          <ns3:TrackPointExtension>
            <ns3:atemp>22.0</ns3:atemp>
            <ns3:hr>91</ns3:hr>
          </ns3:TrackPointExtension>
        </extensions>
      </trkpt>
      <trkpt lat="36.80307160131633281707763671875" lon="-118.39865463785827159881591796875">
        <ele>3214.39990234375</ele>
        <time>2021-06-26T14:45:41.000Z</time>
        <extensions>
          <ns3:TrackPointExtension>
            <ns3:atemp>22.0</ns3:atemp>
            <ns3:hr>88</ns3:hr>
          </ns3:TrackPointExtension>
        </extensions>
      </trkpt>
      <trkpt lat="36.80304226465523242950439453125" lon="-118.39869654737412929534912109375">
        <ele>3214.60009765625</ele>
        <time>2021-06-26T14:45:45.000Z</time>
        <extensions>
          <ns3:TrackPointExtension>
            <ns3:atemp>22.0</ns3:atemp>
            <ns3:hr>91</ns3:hr>
          </ns3:TrackPointExtension>
        </extensions>
      </trkpt>
      <trkpt lat="36.80303170345723628997802734375" lon="-118.39872051961719989776611328125">
        <ele>3214.800048828125</ele>
        <time>2021-06-26T14:45:47.000Z</time>
        <extensions>
          <ns3:TrackPointExtension>
            <ns3:atemp>22.0</ns3:atemp>
            <ns3:hr>88</ns3:hr>
          </ns3:TrackPointExtension>
        </extensions>
      </trkpt>
      <trkpt lat="36.80302717722952365875244140625" lon="-118.39873309247195720672607421875">
        <ele>3214.60009765625</ele>
        <time>2021-06-26T14:45:48.000Z</time>
        <extensions>
          <ns3:TrackPointExtension>
            <ns3:atemp>22.0</ns3:atemp>
            <ns3:hr>91</ns3:hr>
          </ns3:TrackPointExtension>
        </extensions>
      </trkpt>
      <trkpt lat="36.8030098266899585723876953125" lon="-118.3987859822809696197509765625">
        <ele>3214.60009765625</ele>
        <time>2021-06-26T14:45:52.000Z</time>
        <extensions>
          <ns3:TrackPointExtension>
            <ns3:atemp>22.0</ns3:atemp>
            <ns3:hr>94</ns3:hr>
          </ns3:TrackPointExtension>
        </extensions>
      </trkpt>
      <trkpt lat="36.803000606596469879150390625" lon="-118.39883116073906421661376953125">
        <ele>3214.60009765625</ele>
        <time>2021-06-26T14:45:55.000Z</time>
        <extensions>
          <ns3:TrackPointExtension>
            <ns3:atemp>22.0</ns3:atemp>
            <ns3:hr>97</ns3:hr>
          </ns3:TrackPointExtension>
        </extensions>
      </trkpt>
      <trkpt lat="36.803002618253231048583984375" lon="-118.39889955706894397735595703125">
        <ele>3214.60009765625</ele>
        <time>2021-06-26T14:46:00.000Z</time>
        <extensions>
          <ns3:TrackPointExtension>
            <ns3:atemp>22.0</ns3:atemp>
            <ns3:hr>100</ns3:hr>
          </ns3:TrackPointExtension>
        </extensions>
      </trkpt>
      <trkpt lat="36.80299616418778896331787109375" lon="-118.39895169250667095184326171875">
        <ele>3214.39990234375</ele>
        <time>2021-06-26T14:46:04.000Z</time>
        <extensions>
          <ns3:TrackPointExtension>
            <ns3:atemp>22.0</ns3:atemp>
            <ns3:hr>99</ns3:hr>
          </ns3:TrackPointExtension>
        </extensions>
      </trkpt>
      <trkpt lat="36.80299582891166210174560546875" lon="-118.39898169972002506256103515625">
        <ele>3213.800048828125</ele>
        <time>2021-06-26T14:46:07.000Z</time>
        <extensions>
          <ns3:TrackPointExtension>
            <ns3:atemp>22.0</ns3:atemp>
            <ns3:hr>101</ns3:hr>
          </ns3:TrackPointExtension>
        </extensions>
      </trkpt>
      <trkpt lat="36.802994571626186370849609375" lon="-118.39898371137678623199462890625">
        <ele>3213.39990234375</ele>
        <time>2021-06-26T14:46:08.000Z</time>
        <extensions>
          <ns3:TrackPointExtension>
            <ns3:atemp>22.0</ns3:atemp>
            <ns3:hr>104</ns3:hr>
          </ns3:TrackPointExtension>
        </extensions>
      </trkpt>
      <trkpt lat="36.802995242178440093994140625" lon="-118.3989827893674373626708984375">
        <ele>3213.39990234375</ele>
        <time>2021-06-26T14:46:09.000Z</time>
        <extensions>
          <ns3:TrackPointExtension>
            <ns3:atemp>22.0</ns3:atemp>
            <ns3:hr>102</ns3:hr>
          </ns3:TrackPointExtension>
        </extensions>
      </trkpt>
      <trkpt lat="36.80299549363553524017333984375" lon="-118.39898161590099334716796875">
        <ele>3213.60009765625</ele>
        <time>2021-06-26T14:46:10.000Z</time>
        <extensions>
          <ns3:TrackPointExtension>
            <ns3:atemp>22.0</ns3:atemp>
            <ns3:hr>102</ns3:hr>
          </ns3:TrackPointExtension>
        </extensions>
      </trkpt>
      <trkpt lat="36.80300404317677021026611328125" lon="-118.3989821188151836395263671875">
        <ele>3213.199951171875</ele>
        <time>2021-06-26T14:46:13.000Z</time>
        <extensions>
          <ns3:TrackPointExtension>
            <ns3:atemp>22.0</ns3:atemp>
            <ns3:hr>103</ns3:hr>
          </ns3:TrackPointExtension>
        </extensions>
      </trkpt>
      <trkpt lat="36.8030058033764362335205078125" lon="-118.3989784307777881622314453125">
        <ele>3213.199951171875</ele>
        <time>2021-06-26T14:46:16.000Z</time>
        <extensions>
          <ns3:TrackPointExtension>
            <ns3:atemp>22.0</ns3:atemp>
            <ns3:hr>106</ns3:hr>
          </ns3:TrackPointExtension>
        </extensions>
      </trkpt>
      <trkpt lat="36.80300387553870677947998046875" lon="-118.3989814482629299163818359375">
        <ele>3213</ele>
        <time>2021-06-26T14:46:18.000Z</time>
        <extensions>
          <ns3:TrackPointExtension>
            <ns3:atemp>22.0</ns3:atemp>
            <ns3:hr>109</ns3:hr>
          </ns3:TrackPointExtension>
        </extensions>
      </trkpt>
      <trkpt lat="36.80300236679613590240478515625" lon="-118.39898220263421535491943359375">
        <ele>3213.199951171875</ele>
        <time>2021-06-26T14:46:20.000Z</time>
        <extensions>
          <ns3:TrackPointExtension>
            <ns3:atemp>22.0</ns3:atemp>
            <ns3:hr>105</ns3:hr>
          </ns3:TrackPointExtension>
        </extensions>
      </trkpt>
      <trkpt lat="36.80300236679613590240478515625" lon="-118.39898220263421535491943359375">
        <ele>3213.39990234375</ele>
        <time>2021-06-26T14:46:27.000Z</time>
        <extensions>
          <ns3:TrackPointExtension>
            <ns3:atemp>22.0</ns3:atemp>
            <ns3:hr>108</ns3:hr>
          </ns3:TrackPointExtension>
        </extensions>
      </trkpt>
      <trkpt lat="36.80300236679613590240478515625" lon="-118.39898220263421535491943359375">
        <ele>3213.39990234375</ele>
        <time>2021-06-26T14:46:29.000Z</time>
        <extensions>
          <ns3:TrackPointExtension>
            <ns3:atemp>22.0</ns3:atemp>
            <ns3:hr>104</ns3:hr>
          </ns3:TrackPointExtension>
        </extensions>
      </trkpt>
      <trkpt lat="36.80300236679613590240478515625" lon="-118.39898220263421535491943359375">
        <ele>3212.800048828125</ele>
        <time>2021-06-26T14:46:33.000Z</time>
        <extensions>
          <ns3:TrackPointExtension>
            <ns3:atemp>22.0</ns3:atemp>
            <ns3:hr>103</ns3:hr>
          </ns3:TrackPointExtension>
        </extensions>
      </trkpt>
      <trkpt lat="36.80300203152000904083251953125" lon="-118.39898387901484966278076171875">
        <ele>3212.800048828125</ele>
        <time>2021-06-26T14:46:38.000Z</time>
        <extensions>
          <ns3:TrackPointExtension>
            <ns3:atemp>22.0</ns3:atemp>
            <ns3:hr>100</ns3:hr>
          </ns3:TrackPointExtension>
        </extensions>
      </trkpt>
      <trkpt lat="36.803001947700977325439453125" lon="-118.39898387901484966278076171875">
        <ele>3212.60009765625</ele>
        <time>2021-06-26T14:46:41.000Z</time>
        <extensions>
          <ns3:TrackPointExtension>
            <ns3:atemp>22.0</ns3:atemp>
            <ns3:hr>97</ns3:hr>
          </ns3:TrackPointExtension>
        </extensions>
      </trkpt>
      <trkpt lat="36.80300228297710418701171875" lon="-118.39898387901484966278076171875">
        <ele>3212.800048828125</ele>
        <time>2021-06-26T14:46:44.000Z</time>
        <extensions>
          <ns3:TrackPointExtension>
            <ns3:atemp>22.0</ns3:atemp>
            <ns3:hr>94</ns3:hr>
          </ns3:TrackPointExtension>
        </extensions>
      </trkpt>
      <trkpt lat="36.8030064739286899566650390625" lon="-118.39897650294005870819091796875">
        <ele>3213</ele>
        <time>2021-06-26T14:46:59.000Z</time>
        <extensions>
          <ns3:TrackPointExtension>
            <ns3:atemp>22.0</ns3:atemp>
            <ns3:hr>91</ns3:hr>
          </ns3:TrackPointExtension>
        </extensions>
      </trkpt>
      <trkpt lat="36.80300706066191196441650390625" lon="-118.39897650294005870819091796875">
        <ele>3213</ele>
        <time>2021-06-26T14:47:00.000Z</time>
        <extensions>
          <ns3:TrackPointExtension>
            <ns3:atemp>22.0</ns3:atemp>
            <ns3:hr>88</ns3:hr>
          </ns3:TrackPointExtension>
        </extensions>
      </trkpt>
      <trkpt lat="36.8030141852796077728271484375" lon="-118.39899527840316295623779296875">
        <ele>3212.800048828125</ele>
        <time>2021-06-26T14:47:05.000Z</time>
        <extensions>
          <ns3:TrackPointExtension>
            <ns3:atemp>22.0</ns3:atemp>
            <ns3:hr>85</ns3:hr>
          </ns3:TrackPointExtension>
        </extensions>
      </trkpt>
      <trkpt lat="36.803017370402812957763671875" lon="-118.3990189991891384124755859375">
        <ele>3212.800048828125</ele>
        <time>2021-06-26T14:47:08.000Z</time>
        <extensions>
          <ns3:TrackPointExtension>
            <ns3:atemp>22.0</ns3:atemp>
            <ns3:hr>85</ns3:hr>
          </ns3:TrackPointExtension>
        </extensions>
      </trkpt>
      <trkpt lat="36.8030215613543987274169921875" lon="-118.3990189991891384124755859375">
        <ele>3212.60009765625</ele>
        <time>2021-06-26T14:47:16.000Z</time>
        <extensions>
          <ns3:TrackPointExtension>
            <ns3:atemp>22.0</ns3:atemp>
            <ns3:hr>88</ns3:hr>
          </ns3:TrackPointExtension>
        </extensions>
      </trkpt>
      <trkpt lat="36.80302013643085956573486328125" lon="-118.399098627269268035888671875">
        <ele>3213</ele>
        <time>2021-06-26T14:47:27.000Z</time>
        <extensions>
          <ns3:TrackPointExtension>
            <ns3:atemp>22.0</ns3:atemp>
            <ns3:hr>89</ns3:hr>
          </ns3:TrackPointExtension>
        </extensions>
      </trkpt>
      <trkpt lat="36.80305056273937225341796875" lon="-118.39922544546425342559814453125">
        <ele>3213</ele>
        <time>2021-06-26T14:47:35.000Z</time>
        <extensions>
          <ns3:TrackPointExtension>
            <ns3:atemp>22.0</ns3:atemp>
            <ns3:hr>88</ns3:hr>
          </ns3:TrackPointExtension>
        </extensions>
      </trkpt>
      <trkpt lat="36.80312708951532840728759765625" lon="-118.3993623219430446624755859375">
        <ele>3213.199951171875</ele>
        <time>2021-06-26T14:47:46.000Z</time>
        <extensions>
          <ns3:TrackPointExtension>
            <ns3:atemp>22.0</ns3:atemp>
            <ns3:hr>88</ns3:hr>
          </ns3:TrackPointExtension>
        </extensions>
      </trkpt>
      <trkpt lat="36.80316514335572719573974609375" lon="-118.3994920738041400909423828125">
        <ele>3212.800048828125</ele>
        <time>2021-06-26T14:47:55.000Z</time>
        <extensions>
          <ns3:TrackPointExtension>
            <ns3:atemp>22.0</ns3:atemp>
            <ns3:hr>85</ns3:hr>
          </ns3:TrackPointExtension>
        </extensions>
      </trkpt>
      <trkpt lat="36.803164221346378326416015625" lon="-118.3995229192078113555908203125">
        <ele>3212.800048828125</ele>
        <time>2021-06-26T14:47:57.000Z</time>
        <extensions>
          <ns3:TrackPointExtension>
            <ns3:atemp>22.0</ns3:atemp>
            <ns3:hr>85</ns3:hr>
          </ns3:TrackPointExtension>
        </extensions>
      </trkpt>
      <trkpt lat="36.80319213308393955230712890625" lon="-118.3996546827256679534912109375">
        <ele>3212.60009765625</ele>
        <time>2021-06-26T14:48:06.000Z</time>
        <extensions>
          <ns3:TrackPointExtension>
            <ns3:atemp>22.0</ns3:atemp>
            <ns3:hr>81</ns3:hr>
          </ns3:TrackPointExtension>
        </extensions>
      </trkpt>
      <trkpt lat="36.803197748959064483642578125" lon="-118.39966365136206150054931640625">
        <ele>3212.60009765625</ele>
        <time>2021-06-26T14:48:07.000Z</time>
        <extensions>
          <ns3:TrackPointExtension>
            <ns3:atemp>22.0</ns3:atemp>
            <ns3:hr>84</ns3:hr>
          </ns3:TrackPointExtension>
        </extensions>
      </trkpt>
      <trkpt lat="36.80320789106190204620361328125" lon="-118.3996756374835968017578125">
        <ele>3212.60009765625</ele>
        <time>2021-06-26T14:48:08.000Z</time>
        <extensions>
          <ns3:TrackPointExtension>
            <ns3:atemp>22.0</ns3:atemp>
            <ns3:hr>83</ns3:hr>
          </ns3:TrackPointExtension>
        </extensions>
      </trkpt>
      <trkpt lat="36.80327259935438632965087890625" lon="-118.39976909570395946502685546875">
        <ele>3212.800048828125</ele>
        <time>2021-06-26T14:48:17.000Z</time>
        <extensions>
          <ns3:TrackPointExtension>
            <ns3:atemp>22.0</ns3:atemp>
            <ns3:hr>81</ns3:hr>
          </ns3:TrackPointExtension>
        </extensions>
      </trkpt>
      <trkpt lat="36.8033189512789249420166015625" lon="-118.39983522891998291015625">
        <ele>3213.199951171875</ele>
        <time>2021-06-26T14:48:23.000Z</time>
        <extensions>
          <ns3:TrackPointExtension>
            <ns3:atemp>22.0</ns3:atemp>
            <ns3:hr>78</ns3:hr>
          </ns3:TrackPointExtension>
        </extensions>
      </trkpt>
      <trkpt lat="36.80335558019578456878662109375" lon="-118.39987236075103282928466796875">
        <ele>3213.199951171875</ele>
        <time>2021-06-26T14:48:27.000Z</time>
        <extensions>
          <ns3:TrackPointExtension>
            <ns3:atemp>22.0</ns3:atemp>
            <ns3:hr>75</ns3:hr>
          </ns3:TrackPointExtension>
        </extensions>
      </trkpt>
      <trkpt lat="36.8033846653997898101806640625" lon="-118.3999044634401798248291015625">
        <ele>3213</ele>
        <time>2021-06-26T14:48:30.000Z</time>
        <extensions>
          <ns3:TrackPointExtension>
            <ns3:atemp>22.0</ns3:atemp>
            <ns3:hr>75</ns3:hr>
          </ns3:TrackPointExtension>
        </extensions>
      </trkpt>
      <trkpt lat="36.80342732928693294525146484375" lon="-118.399951569736003875732421875">
        <ele>3212.800048828125</ele>
        <time>2021-06-26T14:48:35.000Z</time>
        <extensions>
          <ns3:TrackPointExtension>
            <ns3:atemp>22.0</ns3:atemp>
            <ns3:hr>71</ns3:hr>
          </ns3:TrackPointExtension>
        </extensions>
      </trkpt>
      <trkpt lat="36.80345666594803333282470703125" lon="-118.40000630356371402740478515625">
        <ele>3212.800048828125</ele>
        <time>2021-06-26T14:48:40.000Z</time>
        <extensions>
          <ns3:TrackPointExtension>
            <ns3:atemp>22.0</ns3:atemp>
            <ns3:hr>71</ns3:hr>
          </ns3:TrackPointExtension>
        </extensions>
      </trkpt>
      <trkpt lat="36.80345381610095500946044921875" lon="-118.4000184573233127593994140625">
        <ele>3212.60009765625</ele>
        <time>2021-06-26T14:48:41.000Z</time>
        <extensions>
          <ns3:TrackPointExtension>
            <ns3:atemp>22.0</ns3:atemp>
            <ns3:hr>72</ns3:hr>
          </ns3:TrackPointExtension>
        </extensions>
      </trkpt>
      <trkpt lat="36.8034423328936100006103515625" lon="-118.4000670723617076873779296875">
        <ele>3212.39990234375</ele>
        <time>2021-06-26T14:48:45.000Z</time>
        <extensions>
          <ns3:TrackPointExtension>
            <ns3:atemp>22.0</ns3:atemp>
            <ns3:hr>69</ns3:hr>
          </ns3:TrackPointExtension>
        </extensions>
      </trkpt>
      <trkpt lat="36.80343520827591419219970703125" lon="-118.40013320557773113250732421875">
        <ele>3212.199951171875</ele>
        <time>2021-06-26T14:48:50.000Z</time>
        <extensions>
          <ns3:TrackPointExtension>
            <ns3:atemp>22.0</ns3:atemp>
            <ns3:hr>73</ns3:hr>
          </ns3:TrackPointExtension>
        </extensions>
      </trkpt>
      <trkpt lat="36.8034376390278339385986328125" lon="-118.4001461975276470184326171875">
        <ele>3212.199951171875</ele>
        <time>2021-06-26T14:48:51.000Z</time>
        <extensions>
          <ns3:TrackPointExtension>
            <ns3:atemp>22.0</ns3:atemp>
            <ns3:hr>75</ns3:hr>
          </ns3:TrackPointExtension>
        </extensions>
      </trkpt>
      <trkpt lat="36.80344057269394397735595703125" lon="-118.40017444454133510589599609375">
        <ele>3212.199951171875</ele>
        <time>2021-06-26T14:48:53.000Z</time>
        <extensions>
          <ns3:TrackPointExtension>
            <ns3:atemp>22.0</ns3:atemp>
            <ns3:hr>79</ns3:hr>
          </ns3:TrackPointExtension>
        </extensions>
      </trkpt>
      <trkpt lat="36.80345348082482814788818359375" lon="-118.40021065436303615570068359375">
        <ele>3212.199951171875</ele>
        <time>2021-06-26T14:48:56.000Z</time>
        <extensions>
          <ns3:TrackPointExtension>
            <ns3:atemp>22.0</ns3:atemp>
            <ns3:hr>82</ns3:hr>
          </ns3:TrackPointExtension>
        </extensions>
      </trkpt>
      <trkpt lat="36.80346420966088771820068359375" lon="-118.40023630298674106597900390625">
        <ele>3212</ele>
        <time>2021-06-26T14:48:58.000Z</time>
        <extensions>
          <ns3:TrackPointExtension>
            <ns3:atemp>22.0</ns3:atemp>
            <ns3:hr>85</ns3:hr>
          </ns3:TrackPointExtension>
        </extensions>
      </trkpt>
      <trkpt lat="36.8034758605062961578369140625" lon="-118.4002598561346530914306640625">
        <ele>3212</ele>
        <time>2021-06-26T14:49:00.000Z</time>
        <extensions>
          <ns3:TrackPointExtension>
            <ns3:atemp>22.0</ns3:atemp>
            <ns3:hr>89</ns3:hr>
          </ns3:TrackPointExtension>
        </extensions>
      </trkpt>
      <trkpt lat="36.8034835718572139739990234375" lon="-118.40028827078640460968017578125">
        <ele>3212.199951171875</ele>
        <time>2021-06-26T14:49:02.000Z</time>
        <extensions>
          <ns3:TrackPointExtension>
            <ns3:atemp>22.0</ns3:atemp>
            <ns3:hr>92</ns3:hr>
          </ns3:TrackPointExtension>
        </extensions>
      </trkpt>
      <trkpt lat="36.80348952300846576690673828125" lon="-118.4003158472478389739990234375">
        <ele>3212.199951171875</ele>
        <time>2021-06-26T14:49:04.000Z</time>
        <extensions>
          <ns3:TrackPointExtension>
            <ns3:atemp>22.0</ns3:atemp>
            <ns3:hr>96</ns3:hr>
          </ns3:TrackPointExtension>
        </extensions>
      </trkpt>
      <trkpt lat="36.8035013414919376373291015625" lon="-118.40034476481378078460693359375">
        <ele>3212.199951171875</ele>
        <time>2021-06-26T14:49:06.000Z</time>
        <extensions>
          <ns3:TrackPointExtension>
            <ns3:atemp>22.0</ns3:atemp>
            <ns3:hr>99</ns3:hr>
          </ns3:TrackPointExtension>
        </extensions>
      </trkpt>
      <trkpt lat="36.80353780277073383331298828125" lon="-118.40043193660676479339599609375">
        <ele>3212</ele>
        <time>2021-06-26T14:49:13.000Z</time>
        <extensions>
          <ns3:TrackPointExtension>
            <ns3:atemp>22.0</ns3:atemp>
            <ns3:hr>99</ns3:hr>
          </ns3:TrackPointExtension>
        </extensions>
      </trkpt>
      <trkpt lat="36.80357233621180057525634765625" lon="-118.40050284750759601593017578125">
        <ele>3212.199951171875</ele>
        <time>2021-06-26T14:49:19.000Z</time>
        <extensions>
          <ns3:TrackPointExtension>
            <ns3:atemp>22.0</ns3:atemp>
            <ns3:hr>102</ns3:hr>
          </ns3:TrackPointExtension>
        </extensions>
      </trkpt>
      <trkpt lat="36.8036024272441864013671875" lon="-118.400544337928295135498046875">
        <ele>3212.800048828125</ele>
        <time>2021-06-26T14:49:24.000Z</time>
        <extensions>
          <ns3:TrackPointExtension>
            <ns3:atemp>22.0</ns3:atemp>
            <ns3:hr>103</ns3:hr>
          </ns3:TrackPointExtension>
        </extensions>
      </trkpt>
      <trkpt lat="36.8036488629877567291259765625" lon="-118.400647602975368499755859375">
        <ele>3212.60009765625</ele>
        <time>2021-06-26T14:49:33.000Z</time>
        <extensions>
          <ns3:TrackPointExtension>
            <ns3:atemp>22.0</ns3:atemp>
            <ns3:hr>100</ns3:hr>
          </ns3:TrackPointExtension>
        </extensions>
      </trkpt>
      <trkpt lat="36.8036545626819133758544921875" lon="-118.4006591700017452239990234375">
        <ele>3212.60009765625</ele>
        <time>2021-06-26T14:49:34.000Z</time>
        <extensions>
          <ns3:TrackPointExtension>
            <ns3:atemp>22.0</ns3:atemp>
            <ns3:hr>99</ns3:hr>
          </ns3:TrackPointExtension>
        </extensions>
      </trkpt>
      <trkpt lat="36.8036974780261516571044921875" lon="-118.40074022300541400909423828125">
        <ele>3212.800048828125</ele>
        <time>2021-06-26T14:49:41.000Z</time>
        <extensions>
          <ns3:TrackPointExtension>
            <ns3:atemp>22.0</ns3:atemp>
            <ns3:hr>96</ns3:hr>
          </ns3:TrackPointExtension>
        </extensions>
      </trkpt>
      <trkpt lat="36.8037028424441814422607421875" lon="-118.4007785283029079437255859375">
        <ele>3213.199951171875</ele>
        <time>2021-06-26T14:49:44.000Z</time>
        <extensions>
          <ns3:TrackPointExtension>
            <ns3:atemp>22.0</ns3:atemp>
            <ns3:hr>93</ns3:hr>
          </ns3:TrackPointExtension>
        </extensions>
      </trkpt>
      <trkpt lat="36.80370510555803775787353515625" lon="-118.400789760053157806396484375">
        <ele>3213.39990234375</ele>
        <time>2021-06-26T14:49:45.000Z</time>
        <extensions>
          <ns3:TrackPointExtension>
            <ns3:atemp>22.0</ns3:atemp>
            <ns3:hr>96</ns3:hr>
          </ns3:TrackPointExtension>
        </extensions>
      </trkpt>
      <trkpt lat="36.8037098832428455352783203125" lon="-118.40081968344748020172119140625">
        <ele>3213.800048828125</ele>
        <time>2021-06-26T14:49:48.000Z</time>
        <extensions>
          <ns3:TrackPointExtension>
            <ns3:atemp>22.0</ns3:atemp>
            <ns3:hr>98</ns3:hr>
          </ns3:TrackPointExtension>
        </extensions>
      </trkpt>
      <trkpt lat="36.80371114052832126617431640625" lon="-118.40086519718170166015625">
        <ele>3214.39990234375</ele>
        <time>2021-06-26T14:49:52.000Z</time>
        <extensions>
          <ns3:TrackPointExtension>
            <ns3:atemp>22.0</ns3:atemp>
            <ns3:hr>100</ns3:hr>
          </ns3:TrackPointExtension>
        </extensions>
      </trkpt>
      <trkpt lat="36.80371181108057498931884765625" lon="-118.40089126490056514739990234375">
        <ele>3214</ele>
        <time>2021-06-26T14:49:55.000Z</time>
        <extensions>
          <ns3:TrackPointExtension>
            <ns3:atemp>22.0</ns3:atemp>
            <ns3:hr>104</ns3:hr>
          </ns3:TrackPointExtension>
        </extensions>
      </trkpt>
      <trkpt lat="36.80372170172631740570068359375" lon="-118.40095144696533679962158203125">
        <ele>3213.60009765625</ele>
        <time>2021-06-26T14:50:00.000Z</time>
        <extensions>
          <ns3:TrackPointExtension>
            <ns3:atemp>22.0</ns3:atemp>
            <ns3:hr>103</ns3:hr>
          </ns3:TrackPointExtension>
        </extensions>
      </trkpt>
      <trkpt lat="36.80373125709593296051025390625" lon="-118.4010923467576503753662109375">
        <ele>3213.39990234375</ele>
        <time>2021-06-26T14:50:10.000Z</time>
        <extensions>
          <ns3:TrackPointExtension>
            <ns3:atemp>22.0</ns3:atemp>
            <ns3:hr>103</ns3:hr>
          </ns3:TrackPointExtension>
        </extensions>
      </trkpt>
      <trkpt lat="36.8037383817136287689208984375" lon="-118.401131071150302886962890625">
        <ele>3213.39990234375</ele>
        <time>2021-06-26T14:50:13.000Z</time>
        <extensions>
          <ns3:TrackPointExtension>
            <ns3:atemp>22.0</ns3:atemp>
            <ns3:hr>102</ns3:hr>
          </ns3:TrackPointExtension>
        </extensions>
      </trkpt>
      <trkpt lat="36.80374466814100742340087890625" lon="-118.40116937644779682159423828125">
        <ele>3213</ele>
        <time>2021-06-26T14:50:16.000Z</time>
        <extensions>
          <ns3:TrackPointExtension>
            <ns3:atemp>22.0</ns3:atemp>
            <ns3:hr>101</ns3:hr>
          </ns3:TrackPointExtension>
        </extensions>
      </trkpt>
      <trkpt lat="36.80375942029058933258056640625" lon="-118.4012393653392791748046875">
        <ele>3212.800048828125</ele>
        <time>2021-06-26T14:50:21.000Z</time>
        <extensions>
          <ns3:TrackPointExtension>
            <ns3:atemp>22.0</ns3:atemp>
            <ns3:hr>100</ns3:hr>
          </ns3:TrackPointExtension>
        </extensions>
      </trkpt>
      <trkpt lat="36.803777776658535003662109375" lon="-118.401344977319240570068359375">
        <ele>3213</ele>
        <time>2021-06-26T14:50:28.000Z</time>
        <extensions>
          <ns3:TrackPointExtension>
            <ns3:atemp>22.0</ns3:atemp>
            <ns3:hr>99</ns3:hr>
          </ns3:TrackPointExtension>
        </extensions>
      </trkpt>
      <trkpt lat="36.80383418686687946319580078125" lon="-118.40147338807582855224609375">
        <ele>3213.60009765625</ele>
        <time>2021-06-26T14:50:39.000Z</time>
        <extensions>
          <ns3:TrackPointExtension>
            <ns3:atemp>22.0</ns3:atemp>
            <ns3:hr>99</ns3:hr>
          </ns3:TrackPointExtension>
        </extensions>
      </trkpt>
      <trkpt lat="36.80384022183716297149658203125" lon="-118.40148353017866611480712890625">
        <ele>3213.800048828125</ele>
        <time>2021-06-26T14:50:40.000Z</time>
        <extensions>
          <ns3:TrackPointExtension>
            <ns3:atemp>22.0</ns3:atemp>
            <ns3:hr>100</ns3:hr>
          </ns3:TrackPointExtension>
        </extensions>
      </trkpt>
      <trkpt lat="36.80389101617038249969482421875" lon="-118.40157221071422100067138671875">
        <ele>3213.60009765625</ele>
        <time>2021-06-26T14:50:48.000Z</time>
        <extensions>
          <ns3:TrackPointExtension>
            <ns3:atemp>22.0</ns3:atemp>
            <ns3:hr>104</ns3:hr>
          </ns3:TrackPointExtension>
        </extensions>
      </trkpt>
      <trkpt lat="36.80389990098774433135986328125" lon="-118.4016026370227336883544921875">
        <ele>3213.60009765625</ele>
        <time>2021-06-26T14:50:50.000Z</time>
        <extensions>
          <ns3:TrackPointExtension>
            <ns3:atemp>22.0</ns3:atemp>
            <ns3:hr>102</ns3:hr>
          </ns3:TrackPointExtension>
        </extensions>
      </trkpt>
      <trkpt lat="36.80390342138707637786865234375" lon="-118.4017521701753139495849609375">
        <ele>3214</ele>
        <time>2021-06-26T14:51:01.000Z</time>
        <extensions>
          <ns3:TrackPointExtension>
            <ns3:atemp>22.0</ns3:atemp>
            <ns3:hr>104</ns3:hr>
          </ns3:TrackPointExtension>
        </extensions>
      </trkpt>
      <trkpt lat="36.80392538197338581085205078125" lon="-118.40179516933858394622802734375">
        <ele>3214.39990234375</ele>
        <time>2021-06-26T14:51:06.000Z</time>
        <extensions>
          <ns3:TrackPointExtension>
            <ns3:atemp>22.0</ns3:atemp>
            <ns3:hr>107</ns3:hr>
          </ns3:TrackPointExtension>
        </extensions>
      </trkpt>
      <trkpt lat="36.80393158458173274993896484375" lon="-118.4018141962587833404541015625">
        <ele>3214.800048828125</ele>
        <time>2021-06-26T14:51:08.000Z</time>
        <extensions>
          <ns3:TrackPointExtension>
            <ns3:atemp>22.0</ns3:atemp>
            <ns3:hr>104</ns3:hr>
          </ns3:TrackPointExtension>
        </extensions>
      </trkpt>
      <trkpt lat="36.80393409915268421173095703125" lon="-118.40182207524776458740234375">
        <ele>3214.800048828125</ele>
        <time>2021-06-26T14:51:09.000Z</time>
        <extensions>
          <ns3:TrackPointExtension>
            <ns3:atemp>22.0</ns3:atemp>
            <ns3:hr>105</ns3:hr>
          </ns3:TrackPointExtension>
        </extensions>
      </trkpt>
      <trkpt lat="36.80396947078406810760498046875" lon="-118.4019072353839874267578125">
        <ele>3215</ele>
        <time>2021-06-26T14:51:19.000Z</time>
        <extensions>
          <ns3:TrackPointExtension>
            <ns3:atemp>22.0</ns3:atemp>
            <ns3:hr>109</ns3:hr>
          </ns3:TrackPointExtension>
        </extensions>
      </trkpt>
      <trkpt lat="36.80398531258106231689453125" lon="-118.40193715877830982208251953125">
        <ele>3214.199951171875</ele>
        <time>2021-06-26T14:51:23.000Z</time>
        <extensions>
          <ns3:TrackPointExtension>
            <ns3:atemp>22.0</ns3:atemp>
            <ns3:hr>106</ns3:hr>
          </ns3:TrackPointExtension>
        </extensions>
      </trkpt>
      <trkpt lat="36.80399713106453418731689453125" lon="-118.40196364559233188629150390625">
        <ele>3213.800048828125</ele>
        <time>2021-06-26T14:51:26.000Z</time>
        <extensions>
          <ns3:TrackPointExtension>
            <ns3:atemp>22.0</ns3:atemp>
            <ns3:hr>101</ns3:hr>
          </ns3:TrackPointExtension>
        </extensions>
      </trkpt>
      <trkpt lat="36.80400081910192966461181640625" lon="-118.4019727818667888641357421875">
        <ele>3213.800048828125</ele>
        <time>2021-06-26T14:51:27.000Z</time>
        <extensions>
          <ns3:TrackPointExtension>
            <ns3:atemp>22.0</ns3:atemp>
            <ns3:hr>97</ns3:hr>
          </ns3:TrackPointExtension>
        </extensions>
      </trkpt>
      <trkpt lat="36.80400199256837368011474609375" lon="-118.4019831754267215728759765625">
        <ele>3213.39990234375</ele>
        <time>2021-06-26T14:51:28.000Z</time>
        <extensions>
          <ns3:TrackPointExtension>
            <ns3:atemp>22.0</ns3:atemp>
            <ns3:hr>94</ns3:hr>
          </ns3:TrackPointExtension>
        </extensions>
      </trkpt>
      <trkpt lat="36.80399863980710506439208984375" lon="-118.4019932337105274200439453125">
        <ele>3213.39990234375</ele>
        <time>2021-06-26T14:51:29.000Z</time>
        <extensions>
          <ns3:TrackPointExtension>
            <ns3:atemp>22.0</ns3:atemp>
            <ns3:hr>91</ns3:hr>
          </ns3:TrackPointExtension>
        </extensions>
      </trkpt>
      <trkpt lat="36.8039928562939167022705078125" lon="-118.4020053036510944366455078125">
        <ele>3213.199951171875</ele>
        <time>2021-06-26T14:51:30.000Z</time>
        <extensions>
          <ns3:TrackPointExtension>
            <ns3:atemp>22.0</ns3:atemp>
            <ns3:hr>91</ns3:hr>
          </ns3:TrackPointExtension>
        </extensions>
      </trkpt>
      <trkpt lat="36.80395991541445255279541015625" lon="-118.40204243548214435577392578125">
        <ele>3212.60009765625</ele>
        <time>2021-06-26T14:51:34.000Z</time>
        <extensions>
          <ns3:TrackPointExtension>
            <ns3:atemp>22.0</ns3:atemp>
            <ns3:hr>91</ns3:hr>
          </ns3:TrackPointExtension>
        </extensions>
      </trkpt>
      <trkpt lat="36.80392571724951267242431640625" lon="-118.40205802582204341888427734375">
        <ele>3212.60009765625</ele>
        <time>2021-06-26T14:51:37.000Z</time>
        <extensions>
          <ns3:TrackPointExtension>
            <ns3:atemp>22.0</ns3:atemp>
            <ns3:hr>90</ns3:hr>
          </ns3:TrackPointExtension>
        </extensions>
      </trkpt>
      <trkpt lat="36.80387576110661029815673828125" lon="-118.4020552597939968109130859375">
        <ele>3212.60009765625</ele>
        <time>2021-06-26T14:51:42.000Z</time>
        <extensions>
          <ns3:TrackPointExtension>
            <ns3:atemp>22.0</ns3:atemp>
            <ns3:hr>87</ns3:hr>
          </ns3:TrackPointExtension>
        </extensions>
      </trkpt>
      <trkpt lat="36.8038372881710529327392578125" lon="-118.4020505659282207489013671875">
        <ele>3213.199951171875</ele>
        <time>2021-06-26T14:51:46.000Z</time>
        <extensions>
          <ns3:TrackPointExtension>
            <ns3:atemp>22.0</ns3:atemp>
            <ns3:hr>88</ns3:hr>
          </ns3:TrackPointExtension>
        </extensions>
      </trkpt>
      <trkpt lat="36.80382647551596164703369140625" lon="-118.4020507335662841796875">
        <ele>3213.39990234375</ele>
        <time>2021-06-26T14:51:47.000Z</time>
        <extensions>
          <ns3:TrackPointExtension>
            <ns3:atemp>22.0</ns3:atemp>
            <ns3:hr>85</ns3:hr>
          </ns3:TrackPointExtension>
        </extensions>
      </trkpt>
      <trkpt lat="36.8038138188421726226806640625" lon="-118.40205400250852108001708984375">
        <ele>3213.800048828125</ele>
        <time>2021-06-26T14:51:48.000Z</time>
        <extensions>
          <ns3:TrackPointExtension>
            <ns3:atemp>22.0</ns3:atemp>
            <ns3:hr>84</ns3:hr>
          </ns3:TrackPointExtension>
        </extensions>
      </trkpt>
      <trkpt lat="36.80380560457706451416015625" lon="-118.40206087566912174224853515625">
        <ele>3213.800048828125</ele>
        <time>2021-06-26T14:51:49.000Z</time>
        <extensions>
          <ns3:TrackPointExtension>
            <ns3:atemp>22.0</ns3:atemp>
            <ns3:hr>89</ns3:hr>
          </ns3:TrackPointExtension>
        </extensions>
      </trkpt>
      <trkpt lat="36.8037916906177997589111328125" lon="-118.40206674300134181976318359375">
        <ele>3214</ele>
        <time>2021-06-26T14:51:51.000Z</time>
        <extensions>
          <ns3:TrackPointExtension>
            <ns3:atemp>22.0</ns3:atemp>
            <ns3:hr>86</ns3:hr>
          </ns3:TrackPointExtension>
        </extensions>
      </trkpt>
      <trkpt lat="36.80377081967890262603759765625" lon="-118.40206682682037353515625">
        <ele>3214</ele>
        <time>2021-06-26T14:51:53.000Z</time>
        <extensions>
          <ns3:TrackPointExtension>
            <ns3:atemp>22.0</ns3:atemp>
            <ns3:hr>88</ns3:hr>
          </ns3:TrackPointExtension>
        </extensions>
      </trkpt>
      <trkpt lat="36.80372220464050769805908203125" lon="-118.4020877815783023834228515625">
        <ele>3213.39990234375</ele>
        <time>2021-06-26T14:52:00.000Z</time>
        <extensions>
          <ns3:TrackPointExtension>
            <ns3:atemp>22.0</ns3:atemp>
            <ns3:hr>90</ns3:hr>
          </ns3:TrackPointExtension>
        </extensions>
      </trkpt>
      <trkpt lat="36.8037175945937633514404296875" lon="-118.40208702720701694488525390625">
        <ele>3213.199951171875</ele>
        <time>2021-06-26T14:52:01.000Z</time>
        <extensions>
          <ns3:TrackPointExtension>
            <ns3:atemp>22.0</ns3:atemp>
            <ns3:hr>93</ns3:hr>
          </ns3:TrackPointExtension>
        </extensions>
      </trkpt>
      <trkpt lat="36.80371315218508243560791015625" lon="-118.4020847640931606292724609375">
        <ele>3213.199951171875</ele>
        <time>2021-06-26T14:52:02.000Z</time>
        <extensions>
          <ns3:TrackPointExtension>
            <ns3:atemp>22.0</ns3:atemp>
            <ns3:hr>91</ns3:hr>
          </ns3:TrackPointExtension>
        </extensions>
      </trkpt>
      <trkpt lat="36.8037058599293231964111328125" lon="-118.40207956731319427490234375">
        <ele>3213</ele>
        <time>2021-06-26T14:52:03.000Z</time>
        <extensions>
          <ns3:TrackPointExtension>
            <ns3:atemp>22.0</ns3:atemp>
            <ns3:hr>92</ns3:hr>
          </ns3:TrackPointExtension>
        </extensions>
      </trkpt>
      <trkpt lat="36.80369303561747074127197265625" lon="-118.40207646600902080535888671875">
        <ele>3212.60009765625</ele>
        <time>2021-06-26T14:52:05.000Z</time>
        <extensions>
          <ns3:TrackPointExtension>
            <ns3:atemp>22.0</ns3:atemp>
            <ns3:hr>90</ns3:hr>
          </ns3:TrackPointExtension>
        </extensions>
      </trkpt>
      <trkpt lat="36.8036659620702266693115234375" lon="-118.4020609594881534576416015625">
        <ele>3211.60009765625</ele>
        <time>2021-06-26T14:52:10.000Z</time>
        <extensions>
          <ns3:TrackPointExtension>
            <ns3:atemp>22.0</ns3:atemp>
            <ns3:hr>90</ns3:hr>
          </ns3:TrackPointExtension>
        </extensions>
      </trkpt>
      <trkpt lat="36.80366210639476776123046875" lon="-118.4020606242120265960693359375">
        <ele>3211.60009765625</ele>
        <time>2021-06-26T14:52:11.000Z</time>
        <extensions>
          <ns3:TrackPointExtension>
            <ns3:atemp>22.0</ns3:atemp>
            <ns3:hr>91</ns3:hr>
          </ns3:TrackPointExtension>
        </extensions>
      </trkpt>
      <trkpt lat="36.803620867431163787841796875" lon="-118.40205634944140911102294921875">
        <ele>3211.60009765625</ele>
        <time>2021-06-26T14:52:18.000Z</time>
        <extensions>
          <ns3:TrackPointExtension>
            <ns3:atemp>22.0</ns3:atemp>
            <ns3:hr>89</ns3:hr>
          </ns3:TrackPointExtension>
        </extensions>
      </trkpt>
      <trkpt lat="36.80361575447022914886474609375" lon="-118.402063138782978057861328125">
        <ele>3211.60009765625</ele>
        <time>2021-06-26T14:52:20.000Z</time>
        <extensions>
          <ns3:TrackPointExtension>
            <ns3:atemp>22.0</ns3:atemp>
            <ns3:hr>92</ns3:hr>
          </ns3:TrackPointExtension>
        </extensions>
      </trkpt>
      <trkpt lat="36.80361441336572170257568359375" lon="-118.40206875465810298919677734375">
        <ele>3211.60009765625</ele>
        <time>2021-06-26T14:52:21.000Z</time>
        <extensions>
          <ns3:TrackPointExtension>
            <ns3:atemp>22.0</ns3:atemp>
            <ns3:hr>88</ns3:hr>
          </ns3:TrackPointExtension>
        </extensions>
      </trkpt>
      <trkpt lat="36.80360686965286731719970703125" lon="-118.40209138579666614532470703125">
        <ele>3211.60009765625</ele>
        <time>2021-06-26T14:52:25.000Z</time>
        <extensions>
          <ns3:TrackPointExtension>
            <ns3:atemp>22.0</ns3:atemp>
            <ns3:hr>89</ns3:hr>
          </ns3:TrackPointExtension>
        </extensions>
      </trkpt>
      <trkpt lat="36.80358926765620708465576171875" lon="-118.40211217291653156280517578125">
        <ele>3211.199951171875</ele>
        <time>2021-06-26T14:52:31.000Z</time>
        <extensions>
          <ns3:TrackPointExtension>
            <ns3:atemp>22.0</ns3:atemp>
            <ns3:hr>88</ns3:hr>
          </ns3:TrackPointExtension>
        </extensions>
      </trkpt>
      <trkpt lat="36.80359295569360256195068359375" lon="-118.402114100754261016845703125">
        <ele>3211.60009765625</ele>
        <time>2021-06-26T14:52:37.000Z</time>
        <extensions>
          <ns3:TrackPointExtension>
            <ns3:atemp>22.0</ns3:atemp>
            <ns3:hr>91</ns3:hr>
          </ns3:TrackPointExtension>
        </extensions>
      </trkpt>
      <trkpt lat="36.80359345860779285430908203125" lon="-118.40211401693522930145263671875">
        <ele>3211.60009765625</ele>
        <time>2021-06-26T14:52:38.000Z</time>
        <extensions>
          <ns3:TrackPointExtension>
            <ns3:atemp>22.0</ns3:atemp>
            <ns3:hr>88</ns3:hr>
          </ns3:TrackPointExtension>
        </extensions>
      </trkpt>
      <trkpt lat="36.8035918660461902618408203125" lon="-118.4021142683923244476318359375">
        <ele>3211.39990234375</ele>
        <time>2021-06-26T14:52:43.000Z</time>
        <extensions>
          <ns3:TrackPointExtension>
            <ns3:atemp>22.0</ns3:atemp>
            <ns3:hr>88</ns3:hr>
          </ns3:TrackPointExtension>
        </extensions>
      </trkpt>
      <trkpt lat="36.8035918660461902618408203125" lon="-118.4021142683923244476318359375">
        <ele>3211</ele>
        <time>2021-06-26T14:52:51.000Z</time>
        <extensions>
          <ns3:TrackPointExtension>
            <ns3:atemp>22.0</ns3:atemp>
            <ns3:hr>85</ns3:hr>
          </ns3:TrackPointExtension>
        </extensions>
      </trkpt>
      <trkpt lat="36.80359236896038055419921875" lon="-118.402114100754261016845703125">
        <ele>3211</ele>
        <time>2021-06-26T14:52:53.000Z</time>
        <extensions>
          <ns3:TrackPointExtension>
            <ns3:atemp>22.0</ns3:atemp>
            <ns3:hr>88</ns3:hr>
          </ns3:TrackPointExtension>
        </extensions>
      </trkpt>
      <trkpt lat="36.8035968951880931854248046875" lon="-118.40210898779332637786865234375">
        <ele>3210.60009765625</ele>
        <time>2021-06-26T14:53:08.000Z</time>
        <extensions>
          <ns3:TrackPointExtension>
            <ns3:atemp>22.0</ns3:atemp>
            <ns3:hr>91</ns3:hr>
          </ns3:TrackPointExtension>
        </extensions>
      </trkpt>
      <trkpt lat="36.80360737256705760955810546875" lon="-118.40209859423339366912841796875">
        <ele>3210.60009765625</ele>
        <time>2021-06-26T14:53:11.000Z</time>
        <extensions>
          <ns3:TrackPointExtension>
            <ns3:atemp>22.0</ns3:atemp>
            <ns3:hr>92</ns3:hr>
          </ns3:TrackPointExtension>
        </extensions>
      </trkpt>
      <trkpt lat="36.803610809147357940673828125" lon="-118.4020948223769664764404296875">
        <ele>3210.60009765625</ele>
        <time>2021-06-26T14:53:12.000Z</time>
        <extensions>
          <ns3:TrackPointExtension>
            <ns3:atemp>22.0</ns3:atemp>
            <ns3:hr>91</ns3:hr>
          </ns3:TrackPointExtension>
        </extensions>
      </trkpt>
      <trkpt lat="36.80361525155603885650634765625" lon="-118.4020891226828098297119140625">
        <ele>3210.39990234375</ele>
        <time>2021-06-26T14:53:27.000Z</time>
        <extensions>
          <ns3:TrackPointExtension>
            <ns3:atemp>22.0</ns3:atemp>
            <ns3:hr>88</ns3:hr>
          </ns3:TrackPointExtension>
        </extensions>
      </trkpt>
      <trkpt lat="36.80361458100378513336181640625" lon="-118.4020918048918247222900390625">
        <ele>3210.199951171875</ele>
        <time>2021-06-26T14:53:31.000Z</time>
        <extensions>
          <ns3:TrackPointExtension>
            <ns3:atemp>22.0</ns3:atemp>
            <ns3:hr>85</ns3:hr>
          </ns3:TrackPointExtension>
        </extensions>
      </trkpt>
      <trkpt lat="36.80359647609293460845947265625" lon="-118.40209842659533023834228515625">
        <ele>3210.199951171875</ele>
        <time>2021-06-26T14:53:37.000Z</time>
        <extensions>
          <ns3:TrackPointExtension>
            <ns3:atemp>22.0</ns3:atemp>
            <ns3:hr>89</ns3:hr>
          </ns3:TrackPointExtension>
        </extensions>
      </trkpt>
      <trkpt lat="36.80359630845487117767333984375" lon="-118.4020998515188694000244140625">
        <ele>3210.199951171875</ele>
        <time>2021-06-26T14:53:38.000Z</time>
        <extensions>
          <ns3:TrackPointExtension>
            <ns3:atemp>22.0</ns3:atemp>
            <ns3:hr>86</ns3:hr>
          </ns3:TrackPointExtension>
        </extensions>
      </trkpt>
      <trkpt lat="36.8035962246358394622802734375" lon="-118.4021008573472499847412109375">
        <ele>3210.199951171875</ele>
        <time>2021-06-26T14:53:39.000Z</time>
        <extensions>
          <ns3:TrackPointExtension>
            <ns3:atemp>22.0</ns3:atemp>
            <ns3:hr>89</ns3:hr>
          </ns3:TrackPointExtension>
        </extensions>
      </trkpt>
      <trkpt lat="36.803595721721649169921875" lon="-118.40210328809916973114013671875">
        <ele>3210.199951171875</ele>
        <time>2021-06-26T14:53:42.000Z</time>
        <extensions>
          <ns3:TrackPointExtension>
            <ns3:atemp>22.0</ns3:atemp>
            <ns3:hr>86</ns3:hr>
          </ns3:TrackPointExtension>
        </extensions>
      </trkpt>
      <trkpt lat="36.8035943806171417236328125" lon="-118.40210638940334320068359375">
        <ele>3210.199951171875</ele>
        <time>2021-06-26T14:53:49.000Z</time>
        <extensions>
          <ns3:TrackPointExtension>
            <ns3:atemp>22.0</ns3:atemp>
            <ns3:hr>90</ns3:hr>
          </ns3:TrackPointExtension>
        </extensions>
      </trkpt>
      <trkpt lat="36.8035915307700634002685546875" lon="-118.402106724679470062255859375">
        <ele>3210.39990234375</ele>
        <time>2021-06-26T14:53:58.000Z</time>
        <extensions>
          <ns3:TrackPointExtension>
            <ns3:atemp>22.0</ns3:atemp>
            <ns3:hr>93</ns3:hr>
          </ns3:TrackPointExtension>
        </extensions>
      </trkpt>
      <trkpt lat="36.80359102785587310791015625" lon="-118.402106724679470062255859375">
        <ele>3210.199951171875</ele>
        <time>2021-06-26T14:54:00.000Z</time>
        <extensions>
          <ns3:TrackPointExtension>
            <ns3:atemp>22.0</ns3:atemp>
            <ns3:hr>90</ns3:hr>
          </ns3:TrackPointExtension>
        </extensions>
      </trkpt>
      <trkpt lat="36.80359111167490482330322265625" lon="-118.40210882015526294708251953125">
        <ele>3209.800048828125</ele>
        <time>2021-06-26T14:54:05.000Z</time>
        <extensions>
          <ns3:TrackPointExtension>
            <ns3:atemp>23.0</ns3:atemp>
            <ns3:hr>87</ns3:hr>
          </ns3:TrackPointExtension>
        </extensions>
      </trkpt>
      <trkpt lat="36.8035911954939365386962890625" lon="-118.40211016125977039337158203125">
        <ele>3209.800048828125</ele>
        <time>2021-06-26T14:54:11.000Z</time>
        <extensions>
          <ns3:TrackPointExtension>
            <ns3:atemp>23.0</ns3:atemp>
            <ns3:hr>84</ns3:hr>
          </ns3:TrackPointExtension>
        </extensions>
      </trkpt>
      <trkpt lat="36.80359144695103168487548828125" lon="-118.40210915543138980865478515625">
        <ele>3209.800048828125</ele>
        <time>2021-06-26T14:54:15.000Z</time>
        <extensions>
          <ns3:TrackPointExtension>
            <ns3:atemp>23.0</ns3:atemp>
            <ns3:hr>81</ns3:hr>
          </ns3:TrackPointExtension>
        </extensions>
      </trkpt>
      <trkpt lat="36.80359295569360256195068359375" lon="-118.4021068923175334930419921875">
        <ele>3209.60009765625</ele>
        <time>2021-06-26T14:54:22.000Z</time>
        <extensions>
          <ns3:TrackPointExtension>
            <ns3:atemp>23.0</ns3:atemp>
            <ns3:hr>81</ns3:hr>
          </ns3:TrackPointExtension>
        </extensions>
      </trkpt>
      <trkpt lat="36.80359312333166599273681640625" lon="-118.402107059955596923828125">
        <ele>3209.60009765625</ele>
        <time>2021-06-26T14:54:27.000Z</time>
        <extensions>
          <ns3:TrackPointExtension>
            <ns3:atemp>23.0</ns3:atemp>
            <ns3:hr>81</ns3:hr>
          </ns3:TrackPointExtension>
        </extensions>
      </trkpt>
      <trkpt lat="36.80359463207423686981201171875" lon="-118.4021028690040111541748046875">
        <ele>3209.199951171875</ele>
        <time>2021-06-26T14:54:54.000Z</time>
        <extensions>
          <ns3:TrackPointExtension>
            <ns3:atemp>23.0</ns3:atemp>
            <ns3:hr>82</ns3:hr>
          </ns3:TrackPointExtension>
        </extensions>
      </trkpt>
      <trkpt lat="36.80359664373099803924560546875" lon="-118.4021008573472499847412109375">
        <ele>3209</ele>
        <time>2021-06-26T14:54:58.000Z</time>
        <extensions>
          <ns3:TrackPointExtension>
            <ns3:atemp>23.0</ns3:atemp>
            <ns3:hr>79</ns3:hr>
          </ns3:TrackPointExtension>
        </extensions>
      </trkpt>
      <trkpt lat="36.803597398102283477783203125" lon="-118.40209926478564739227294921875">
        <ele>3209.199951171875</ele>
        <time>2021-06-26T14:55:03.000Z</time>
        <extensions>
          <ns3:TrackPointExtension>
            <ns3:atemp>23.0</ns3:atemp>
            <ns3:hr>76</ns3:hr>
          </ns3:TrackPointExtension>
        </extensions>
      </trkpt>
      <trkpt lat="36.80359798483550548553466796875" lon="-118.40209758840501308441162109375">
        <ele>3209</ele>
        <time>2021-06-26T14:55:11.000Z</time>
        <extensions>
          <ns3:TrackPointExtension>
            <ns3:atemp>24.0</ns3:atemp>
            <ns3:hr>73</ns3:hr>
          </ns3:TrackPointExtension>
        </extensions>
      </trkpt>
      <trkpt lat="36.80360016413033008575439453125" lon="-118.4020968340337276458740234375">
        <ele>3209</ele>
        <time>2021-06-26T14:55:18.000Z</time>
        <extensions>
          <ns3:TrackPointExtension>
            <ns3:atemp>24.0</ns3:atemp>
            <ns3:hr>75</ns3:hr>
          </ns3:TrackPointExtension>
        </extensions>
      </trkpt>
      <trkpt lat="36.80360267870128154754638671875" lon="-118.40209540911018848419189453125">
        <ele>3208.60009765625</ele>
        <time>2021-06-26T14:55:24.000Z</time>
        <extensions>
          <ns3:TrackPointExtension>
            <ns3:atemp>24.0</ns3:atemp>
            <ns3:hr>78</ns3:hr>
          </ns3:TrackPointExtension>
        </extensions>
      </trkpt>
      <trkpt lat="36.8036029301583766937255859375" lon="-118.4020951576530933380126953125">
        <ele>3208.60009765625</ele>
        <time>2021-06-26T14:55:25.000Z</time>
        <extensions>
          <ns3:TrackPointExtension>
            <ns3:atemp>24.0</ns3:atemp>
            <ns3:hr>78</ns3:hr>
          </ns3:TrackPointExtension>
        </extensions>
      </trkpt>
      <trkpt lat="36.80360334925353527069091796875" lon="-118.4020944871008396148681640625">
        <ele>3208</ele>
        <time>2021-06-26T14:55:28.000Z</time>
        <extensions>
          <ns3:TrackPointExtension>
            <ns3:atemp>24.0</ns3:atemp>
            <ns3:hr>81</ns3:hr>
          </ns3:TrackPointExtension>
        </extensions>
      </trkpt>
      <trkpt lat="36.80360334925353527069091796875" lon="-118.4020924754440784454345703125">
        <ele>3207.60009765625</ele>
        <time>2021-06-26T14:55:40.000Z</time>
        <extensions>
          <ns3:TrackPointExtension>
            <ns3:atemp>24.0</ns3:atemp>
            <ns3:hr>81</ns3:hr>
          </ns3:TrackPointExtension>
        </extensions>
      </trkpt>
      <trkpt lat="36.80360318161547183990478515625" lon="-118.4020923078060150146484375">
        <ele>3207.60009765625</ele>
        <time>2021-06-26T14:55:43.000Z</time>
        <extensions>
          <ns3:TrackPointExtension>
            <ns3:atemp>24.0</ns3:atemp>
            <ns3:hr>78</ns3:hr>
          </ns3:TrackPointExtension>
        </extensions>
      </trkpt>
      <trkpt lat="36.80360301397740840911865234375" lon="-118.40209222398698329925537109375">
        <ele>3207.800048828125</ele>
        <time>2021-06-26T14:55:48.000Z</time>
        <extensions>
          <ns3:TrackPointExtension>
            <ns3:atemp>24.0</ns3:atemp>
            <ns3:hr>81</ns3:hr>
          </ns3:TrackPointExtension>
        </extensions>
      </trkpt>
      <trkpt lat="36.80360284633934497833251953125" lon="-118.4020928107202053070068359375">
        <ele>3207.800048828125</ele>
        <time>2021-06-26T14:55:52.000Z</time>
        <extensions>
          <ns3:TrackPointExtension>
            <ns3:atemp>24.0</ns3:atemp>
            <ns3:hr>78</ns3:hr>
          </ns3:TrackPointExtension>
        </extensions>
      </trkpt>
      <trkpt lat="36.80360284633934497833251953125" lon="-118.40209306217730045318603515625">
        <ele>3207.39990234375</ele>
        <time>2021-06-26T14:55:54.000Z</time>
        <extensions>
          <ns3:TrackPointExtension>
            <ns3:atemp>24.0</ns3:atemp>
            <ns3:hr>76</ns3:hr>
          </ns3:TrackPointExtension>
        </extensions>
      </trkpt>
      <trkpt lat="36.80360284633934497833251953125" lon="-118.40209356509149074554443359375">
        <ele>3207.39990234375</ele>
        <time>2021-06-26T14:56:02.000Z</time>
        <extensions>
          <ns3:TrackPointExtension>
            <ns3:atemp>25.0</ns3:atemp>
            <ns3:hr>73</ns3:hr>
          </ns3:TrackPointExtension>
        </extensions>
      </trkpt>
      <trkpt lat="36.8036029301583766937255859375" lon="-118.4020936489105224609375">
        <ele>3207.39990234375</ele>
        <time>2021-06-26T14:56:17.000Z</time>
        <extensions>
          <ns3:TrackPointExtension>
            <ns3:atemp>25.0</ns3:atemp>
            <ns3:hr>76</ns3:hr>
          </ns3:TrackPointExtension>
        </extensions>
      </trkpt>
      <trkpt lat="36.8036029301583766937255859375" lon="-118.4020936489105224609375">
        <ele>3207.60009765625</ele>
        <time>2021-06-26T14:56:21.000Z</time>
        <extensions>
          <ns3:TrackPointExtension>
            <ns3:atemp>25.0</ns3:atemp>
            <ns3:hr>73</ns3:hr>
          </ns3:TrackPointExtension>
        </extensions>
      </trkpt>
      <trkpt lat="36.8036029301583766937255859375" lon="-118.4020936489105224609375">
        <ele>3207.60009765625</ele>
        <time>2021-06-26T14:56:22.000Z</time>
        <extensions>
          <ns3:TrackPointExtension>
            <ns3:atemp>25.0</ns3:atemp>
            <ns3:hr>77</ns3:hr>
          </ns3:TrackPointExtension>
        </extensions>
      </trkpt>
      <trkpt lat="36.8036029301583766937255859375" lon="-118.40209373272955417633056640625">
        <ele>3207.39990234375</ele>
        <time>2021-06-26T14:56:30.000Z</time>
        <extensions>
          <ns3:TrackPointExtension>
            <ns3:atemp>25.0</ns3:atemp>
            <ns3:hr>81</ns3:hr>
          </ns3:TrackPointExtension>
        </extensions>
      </trkpt>
      <trkpt lat="36.8036029301583766937255859375" lon="-118.40209373272955417633056640625">
        <ele>3207.39990234375</ele>
        <time>2021-06-26T14:56:32.000Z</time>
        <extensions>
          <ns3:TrackPointExtension>
            <ns3:atemp>25.0</ns3:atemp>
            <ns3:hr>83</ns3:hr>
          </ns3:TrackPointExtension>
        </extensions>
      </trkpt>
      <trkpt lat="36.80360284633934497833251953125" lon="-118.4020938165485858917236328125">
        <ele>3207</ele>
        <time>2021-06-26T14:56:52.000Z</time>
        <extensions>
          <ns3:TrackPointExtension>
            <ns3:atemp>25.0</ns3:atemp>
            <ns3:hr>86</ns3:hr>
          </ns3:TrackPointExtension>
        </extensions>
      </trkpt>
      <trkpt lat="36.80360284633934497833251953125" lon="-118.4020938165485858917236328125">
        <ele>3206.800048828125</ele>
        <time>2021-06-26T14:56:56.000Z</time>
        <extensions>
          <ns3:TrackPointExtension>
            <ns3:atemp>25.0</ns3:atemp>
            <ns3:hr>82</ns3:hr>
          </ns3:TrackPointExtension>
        </extensions>
      </trkpt>
      <trkpt lat="36.80360284633934497833251953125" lon="-118.4020938165485858917236328125">
        <ele>3206.60009765625</ele>
        <time>2021-06-26T14:56:59.000Z</time>
        <extensions>
          <ns3:TrackPointExtension>
            <ns3:atemp>25.0</ns3:atemp>
            <ns3:hr>85</ns3:hr>
          </ns3:TrackPointExtension>
        </extensions>
      </trkpt>
      <trkpt lat="36.803602762520313262939453125" lon="-118.40209390036761760711669921875">
        <ele>3206.60009765625</ele>
        <time>2021-06-26T14:57:05.000Z</time>
        <extensions>
          <ns3:TrackPointExtension>
            <ns3:atemp>26.0</ns3:atemp>
            <ns3:hr>88</ns3:hr>
          </ns3:TrackPointExtension>
        </extensions>
      </trkpt>
      <trkpt lat="36.803602762520313262939453125" lon="-118.40209390036761760711669921875">
        <ele>3206.39990234375</ele>
        <time>2021-06-26T14:57:07.000Z</time>
        <extensions>
          <ns3:TrackPointExtension>
            <ns3:atemp>26.0</ns3:atemp>
            <ns3:hr>86</ns3:hr>
          </ns3:TrackPointExtension>
        </extensions>
      </trkpt>
      <trkpt lat="36.803602762520313262939453125" lon="-118.402093984186649322509765625">
        <ele>3206</ele>
        <time>2021-06-26T14:57:16.000Z</time>
        <extensions>
          <ns3:TrackPointExtension>
            <ns3:atemp>26.0</ns3:atemp>
            <ns3:hr>84</ns3:hr>
          </ns3:TrackPointExtension>
        </extensions>
      </trkpt>
      <trkpt lat="36.80360267870128154754638671875" lon="-118.402093984186649322509765625">
        <ele>3206</ele>
        <time>2021-06-26T14:57:20.000Z</time>
        <extensions>
          <ns3:TrackPointExtension>
            <ns3:atemp>26.0</ns3:atemp>
            <ns3:hr>79</ns3:hr>
          </ns3:TrackPointExtension>
        </extensions>
      </trkpt>
      <trkpt lat="36.80360267870128154754638671875" lon="-118.40209406800568103790283203125">
        <ele>3205.800048828125</ele>
        <time>2021-06-26T14:57:26.000Z</time>
        <extensions>
          <ns3:TrackPointExtension>
            <ns3:atemp>26.0</ns3:atemp>
            <ns3:hr>82</ns3:hr>
          </ns3:TrackPointExtension>
        </extensions>
      </trkpt>
      <trkpt lat="36.8036025948822498321533203125" lon="-118.4020941518247127532958984375">
        <ele>3205.800048828125</ele>
        <time>2021-06-26T14:57:32.000Z</time>
        <extensions>
          <ns3:TrackPointExtension>
            <ns3:atemp>26.0</ns3:atemp>
            <ns3:hr>86</ns3:hr>
          </ns3:TrackPointExtension>
        </extensions>
      </trkpt>
      <trkpt lat="36.80360251106321811676025390625" lon="-118.40209431946277618408203125">
        <ele>3205.800048828125</ele>
        <time>2021-06-26T14:57:42.000Z</time>
        <extensions>
          <ns3:TrackPointExtension>
            <ns3:atemp>26.0</ns3:atemp>
            <ns3:hr>89</ns3:hr>
          </ns3:TrackPointExtension>
        </extensions>
      </trkpt>
      <trkpt lat="36.8036024272441864013671875" lon="-118.4020944871008396148681640625">
        <ele>3205.60009765625</ele>
        <time>2021-06-26T14:57:58.000Z</time>
        <extensions>
          <ns3:TrackPointExtension>
            <ns3:atemp>27.0</ns3:atemp>
            <ns3:hr>92</ns3:hr>
          </ns3:TrackPointExtension>
        </extensions>
      </trkpt>
      <trkpt lat="36.8036024272441864013671875" lon="-118.40209457091987133026123046875">
        <ele>3205.39990234375</ele>
        <time>2021-06-26T14:58:02.000Z</time>
        <extensions>
          <ns3:TrackPointExtension>
            <ns3:atemp>27.0</ns3:atemp>
            <ns3:hr>89</ns3:hr>
          </ns3:TrackPointExtension>
        </extensions>
      </trkpt>
      <trkpt lat="36.80360217578709125518798828125" lon="-118.4020948223769664764404296875">
        <ele>3205.39990234375</ele>
        <time>2021-06-26T14:58:21.000Z</time>
        <extensions>
          <ns3:TrackPointExtension>
            <ns3:atemp>27.0</ns3:atemp>
            <ns3:hr>86</ns3:hr>
          </ns3:TrackPointExtension>
        </extensions>
      </trkpt>
      <trkpt lat="36.80360217578709125518798828125" lon="-118.4020948223769664764404296875">
        <ele>3205.39990234375</ele>
        <time>2021-06-26T14:58:23.000Z</time>
        <extensions>
          <ns3:TrackPointExtension>
            <ns3:atemp>27.0</ns3:atemp>
            <ns3:hr>89</ns3:hr>
          </ns3:TrackPointExtension>
        </extensions>
      </trkpt>
      <trkpt lat="36.80360200814902782440185546875" lon="-118.4020948223769664764404296875">
        <ele>3205.39990234375</ele>
        <time>2021-06-26T14:58:30.000Z</time>
        <extensions>
          <ns3:TrackPointExtension>
            <ns3:atemp>27.0</ns3:atemp>
            <ns3:hr>88</ns3:hr>
          </ns3:TrackPointExtension>
        </extensions>
      </trkpt>
      <trkpt lat="36.80360200814902782440185546875" lon="-118.4020948223769664764404296875">
        <ele>3205.199951171875</ele>
        <time>2021-06-26T14:58:35.000Z</time>
        <extensions>
          <ns3:TrackPointExtension>
            <ns3:atemp>27.0</ns3:atemp>
            <ns3:hr>85</ns3:hr>
          </ns3:TrackPointExtension>
        </extensions>
      </trkpt>
      <trkpt lat="36.8036019243299961090087890625" lon="-118.4020948223769664764404296875">
        <ele>3205.199951171875</ele>
        <time>2021-06-26T14:58:36.000Z</time>
        <extensions>
          <ns3:TrackPointExtension>
            <ns3:atemp>27.0</ns3:atemp>
            <ns3:hr>82</ns3:hr>
          </ns3:TrackPointExtension>
        </extensions>
      </trkpt>
      <trkpt lat="36.8036019243299961090087890625" lon="-118.4020948223769664764404296875">
        <ele>3205</ele>
        <time>2021-06-26T14:58:38.000Z</time>
        <extensions>
          <ns3:TrackPointExtension>
            <ns3:atemp>27.0</ns3:atemp>
            <ns3:hr>85</ns3:hr>
          </ns3:TrackPointExtension>
        </extensions>
      </trkpt>
      <trkpt lat="36.80360167287290096282958984375" lon="-118.40209490619599819183349609375">
        <ele>3204.39990234375</ele>
        <time>2021-06-26T14:58:54.000Z</time>
        <extensions>
          <ns3:TrackPointExtension>
            <ns3:atemp>27.0</ns3:atemp>
            <ns3:hr>85</ns3:hr>
          </ns3:TrackPointExtension>
        </extensions>
      </trkpt>
      <trkpt lat="36.80360167287290096282958984375" lon="-118.4020949900150299072265625">
        <ele>3204.39990234375</ele>
        <time>2021-06-26T14:58:59.000Z</time>
        <extensions>
          <ns3:TrackPointExtension>
            <ns3:atemp>28.0</ns3:atemp>
            <ns3:hr>82</ns3:hr>
          </ns3:TrackPointExtension>
        </extensions>
      </trkpt>
      <trkpt lat="36.80360167287290096282958984375" lon="-118.40209507383406162261962890625">
        <ele>3204</ele>
        <time>2021-06-26T14:59:03.000Z</time>
        <extensions>
          <ns3:TrackPointExtension>
            <ns3:atemp>28.0</ns3:atemp>
            <ns3:hr>80</ns3:hr>
          </ns3:TrackPointExtension>
        </extensions>
      </trkpt>
      <trkpt lat="36.8036015890538692474365234375" lon="-118.40209524147212505340576171875">
        <ele>3203.800048828125</ele>
        <time>2021-06-26T14:59:12.000Z</time>
        <extensions>
          <ns3:TrackPointExtension>
            <ns3:atemp>28.0</ns3:atemp>
            <ns3:hr>82</ns3:hr>
          </ns3:TrackPointExtension>
        </extensions>
      </trkpt>
      <trkpt lat="36.8036015890538692474365234375" lon="-118.402095325291156768798828125">
        <ele>3203.800048828125</ele>
        <time>2021-06-26T14:59:23.000Z</time>
        <extensions>
          <ns3:TrackPointExtension>
            <ns3:atemp>28.0</ns3:atemp>
            <ns3:hr>85</ns3:hr>
          </ns3:TrackPointExtension>
        </extensions>
      </trkpt>
      <trkpt lat="36.80360150523483753204345703125" lon="-118.402095325291156768798828125">
        <ele>3203.800048828125</ele>
        <time>2021-06-26T14:59:27.000Z</time>
        <extensions>
          <ns3:TrackPointExtension>
            <ns3:atemp>28.0</ns3:atemp>
            <ns3:hr>82</ns3:hr>
          </ns3:TrackPointExtension>
        </extensions>
      </trkpt>
      <trkpt lat="36.80360150523483753204345703125" lon="-118.40209524147212505340576171875">
        <ele>3203.60009765625</ele>
        <time>2021-06-26T14:59:38.000Z</time>
        <extensions>
          <ns3:TrackPointExtension>
            <ns3:atemp>28.0</ns3:atemp>
            <ns3:hr>79</ns3:hr>
          </ns3:TrackPointExtension>
        </extensions>
      </trkpt>
      <trkpt lat="36.80360150523483753204345703125" lon="-118.40209524147212505340576171875">
        <ele>3203.800048828125</ele>
        <time>2021-06-26T14:59:43.000Z</time>
        <extensions>
          <ns3:TrackPointExtension>
            <ns3:atemp>29.0</ns3:atemp>
            <ns3:hr>82</ns3:hr>
          </ns3:TrackPointExtension>
        </extensions>
      </trkpt>
      <trkpt lat="36.80360133759677410125732421875" lon="-118.40209507383406162261962890625">
        <ele>3203.39990234375</ele>
        <time>2021-06-26T15:00:14.000Z</time>
        <extensions>
          <ns3:TrackPointExtension>
            <ns3:atemp>29.0</ns3:atemp>
            <ns3:hr>84</ns3:hr>
          </ns3:TrackPointExtension>
        </extensions>
      </trkpt>
      <trkpt lat="36.80360133759677410125732421875" lon="-118.4020949900150299072265625">
        <ele>3203.199951171875</ele>
        <time>2021-06-26T15:00:17.000Z</time>
        <extensions>
          <ns3:TrackPointExtension>
            <ns3:atemp>29.0</ns3:atemp>
            <ns3:hr>80</ns3:hr>
          </ns3:TrackPointExtension>
        </extensions>
      </trkpt>
      <trkpt lat="36.80360133759677410125732421875" lon="-118.4020949900150299072265625">
        <ele>3203.199951171875</ele>
        <time>2021-06-26T15:00:22.000Z</time>
        <extensions>
          <ns3:TrackPointExtension>
            <ns3:atemp>29.0</ns3:atemp>
            <ns3:hr>85</ns3:hr>
          </ns3:TrackPointExtension>
        </extensions>
      </trkpt>
      <trkpt lat="36.80360133759677410125732421875" lon="-118.4020949900150299072265625">
        <ele>3203.199951171875</ele>
        <time>2021-06-26T15:00:23.000Z</time>
        <extensions>
          <ns3:TrackPointExtension>
            <ns3:atemp>29.0</ns3:atemp>
            <ns3:hr>82</ns3:hr>
          </ns3:TrackPointExtension>
        </extensions>
      </trkpt>
      <trkpt lat="36.80360133759677410125732421875" lon="-118.4020949900150299072265625">
        <ele>3203.39990234375</ele>
        <time>2021-06-26T15:00:36.000Z</time>
        <extensions>
          <ns3:TrackPointExtension>
            <ns3:atemp>29.0</ns3:atemp>
            <ns3:hr>78</ns3:hr>
          </ns3:TrackPointExtension>
        </extensions>
      </trkpt>
      <trkpt lat="36.8036012537777423858642578125" lon="-118.4020949900150299072265625">
        <ele>3203.39990234375</ele>
        <time>2021-06-26T15:00:38.000Z</time>
        <extensions>
          <ns3:TrackPointExtension>
            <ns3:atemp>29.0</ns3:atemp>
            <ns3:hr>75</ns3:hr>
          </ns3:TrackPointExtension>
        </extensions>
      </trkpt>
      <trkpt lat="36.803601086139678955078125" lon="-118.40209507383406162261962890625">
        <ele>3203.39990234375</ele>
        <time>2021-06-26T15:00:46.000Z</time>
        <extensions>
          <ns3:TrackPointExtension>
            <ns3:atemp>29.0</ns3:atemp>
            <ns3:hr>70</ns3:hr>
          </ns3:TrackPointExtension>
        </extensions>
      </trkpt>
      <trkpt lat="36.803601086139678955078125" lon="-118.4020951576530933380126953125">
        <ele>3203.39990234375</ele>
        <time>2021-06-26T15:00:47.000Z</time>
        <extensions>
          <ns3:TrackPointExtension>
            <ns3:atemp>29.0</ns3:atemp>
            <ns3:hr>73</ns3:hr>
          </ns3:TrackPointExtension>
        </extensions>
      </trkpt>
      <trkpt lat="36.8036009185016155242919921875" lon="-118.402095325291156768798828125">
        <ele>3204.199951171875</ele>
        <time>2021-06-26T15:00:56.000Z</time>
        <extensions>
          <ns3:TrackPointExtension>
            <ns3:atemp>29.0</ns3:atemp>
            <ns3:hr>76</ns3:hr>
          </ns3:TrackPointExtension>
        </extensions>
      </trkpt>
      <trkpt lat="36.803600750863552093505859375" lon="-118.40209540911018848419189453125">
        <ele>3204.199951171875</ele>
        <time>2021-06-26T15:01:01.000Z</time>
        <extensions>
          <ns3:TrackPointExtension>
            <ns3:atemp>29.0</ns3:atemp>
            <ns3:hr>79</ns3:hr>
          </ns3:TrackPointExtension>
        </extensions>
      </trkpt>
      <trkpt lat="36.8036005832254886627197265625" lon="-118.4020954929292201995849609375">
        <ele>3204.199951171875</ele>
        <time>2021-06-26T15:01:08.000Z</time>
        <extensions>
          <ns3:TrackPointExtension>
            <ns3:atemp>29.0</ns3:atemp>
            <ns3:hr>76</ns3:hr>
          </ns3:TrackPointExtension>
        </extensions>
      </trkpt>
      <trkpt lat="36.80360041558742523193359375" lon="-118.4020958282053470611572265625">
        <ele>3204.199951171875</ele>
        <time>2021-06-26T15:01:16.000Z</time>
        <extensions>
          <ns3:TrackPointExtension>
            <ns3:atemp>29.0</ns3:atemp>
            <ns3:hr>72</ns3:hr>
          </ns3:TrackPointExtension>
        </extensions>
      </trkpt>
      <trkpt lat="36.80360033176839351654052734375" lon="-118.40209591202437877655029296875">
        <ele>3204.199951171875</ele>
        <time>2021-06-26T15:01:21.000Z</time>
        <extensions>
          <ns3:TrackPointExtension>
            <ns3:atemp>29.0</ns3:atemp>
            <ns3:hr>75</ns3:hr>
          </ns3:TrackPointExtension>
        </extensions>
      </trkpt>
      <trkpt lat="36.8035568296909332275390625" lon="-118.40209431946277618408203125">
        <ele>3204.199951171875</ele>
        <time>2021-06-26T15:01:29.000Z</time>
        <extensions>
          <ns3:TrackPointExtension>
            <ns3:atemp>29.0</ns3:atemp>
            <ns3:hr>74</ns3:hr>
          </ns3:TrackPointExtension>
        </extensions>
      </trkpt>
      <trkpt lat="36.803518272936344146728515625" lon="-118.402089960873126983642578125">
        <ele>3204.199951171875</ele>
        <time>2021-06-26T15:01:32.000Z</time>
        <extensions>
          <ns3:TrackPointExtension>
            <ns3:atemp>29.0</ns3:atemp>
            <ns3:hr>77</ns3:hr>
          </ns3:TrackPointExtension>
        </extensions>
      </trkpt>
      <trkpt lat="36.8034943006932735443115234375" lon="-118.40208903886377811431884765625">
        <ele>3204.199951171875</ele>
        <time>2021-06-26T15:01:34.000Z</time>
        <extensions>
          <ns3:TrackPointExtension>
            <ns3:atemp>29.0</ns3:atemp>
            <ns3:hr>80</ns3:hr>
          </ns3:TrackPointExtension>
        </extensions>
      </trkpt>
      <trkpt lat="36.803479380905628204345703125" lon="-118.40209255926311016082763671875">
        <ele>3204.199951171875</ele>
        <time>2021-06-26T15:01:35.000Z</time>
        <extensions>
          <ns3:TrackPointExtension>
            <ns3:atemp>28.0</ns3:atemp>
            <ns3:hr>81</ns3:hr>
          </ns3:TrackPointExtension>
        </extensions>
      </trkpt>
      <trkpt lat="36.80346739478409290313720703125" lon="-118.40210597030818462371826171875">
        <ele>3204.199951171875</ele>
        <time>2021-06-26T15:01:37.000Z</time>
        <extensions>
          <ns3:TrackPointExtension>
            <ns3:atemp>28.0</ns3:atemp>
            <ns3:hr>84</ns3:hr>
          </ns3:TrackPointExtension>
        </extensions>
      </trkpt>
      <trkpt lat="36.80345423519611358642578125" lon="-118.40211577713489532470703125">
        <ele>3204.199951171875</ele>
        <time>2021-06-26T15:01:39.000Z</time>
        <extensions>
          <ns3:TrackPointExtension>
            <ns3:atemp>28.0</ns3:atemp>
            <ns3:hr>88</ns3:hr>
          </ns3:TrackPointExtension>
        </extensions>
      </trkpt>
      <trkpt lat="36.80341827683150768280029296875" lon="-118.40212340466678142547607421875">
        <ele>3204.199951171875</ele>
        <time>2021-06-26T15:01:43.000Z</time>
        <extensions>
          <ns3:TrackPointExtension>
            <ns3:atemp>28.0</ns3:atemp>
            <ns3:hr>91</ns3:hr>
          </ns3:TrackPointExtension>
        </extensions>
      </trkpt>
      <trkpt lat="36.8034081347286701202392578125" lon="-118.40212474577128887176513671875">
        <ele>3204.199951171875</ele>
        <time>2021-06-26T15:01:44.000Z</time>
        <extensions>
          <ns3:TrackPointExtension>
            <ns3:atemp>28.0</ns3:atemp>
            <ns3:hr>92</ns3:hr>
          </ns3:TrackPointExtension>
        </extensions>
      </trkpt>
      <trkpt lat="36.80338692851364612579345703125" lon="-118.4021846763789653778076171875">
        <ele>3204.199951171875</ele>
        <time>2021-06-26T15:01:49.000Z</time>
        <extensions>
          <ns3:TrackPointExtension>
            <ns3:atemp>28.0</ns3:atemp>
            <ns3:hr>91</ns3:hr>
          </ns3:TrackPointExtension>
        </extensions>
      </trkpt>
      <trkpt lat="36.80338776670396327972412109375" lon="-118.40221610851585865020751953125">
        <ele>3207</ele>
        <time>2021-06-26T15:01:51.000Z</time>
        <extensions>
          <ns3:TrackPointExtension>
            <ns3:atemp>28.0</ns3:atemp>
            <ns3:hr>91</ns3:hr>
          </ns3:TrackPointExtension>
        </extensions>
      </trkpt>
      <trkpt lat="36.80339463986456394195556640625" lon="-118.40226304717361927032470703125">
        <ele>3207</ele>
        <time>2021-06-26T15:01:55.000Z</time>
        <extensions>
          <ns3:TrackPointExtension>
            <ns3:atemp>28.0</ns3:atemp>
            <ns3:hr>94</ns3:hr>
          </ns3:TrackPointExtension>
        </extensions>
      </trkpt>
      <trkpt lat="36.8034027703106403350830078125" lon="-118.402284085750579833984375">
        <ele>3207</ele>
        <time>2021-06-26T15:01:57.000Z</time>
        <extensions>
          <ns3:TrackPointExtension>
            <ns3:atemp>28.0</ns3:atemp>
            <ns3:hr>97</ns3:hr>
          </ns3:TrackPointExtension>
        </extensions>
      </trkpt>
      <trkpt lat="36.80340687744319438934326171875" lon="-118.4022966586053371429443359375">
        <ele>3207.39990234375</ele>
        <time>2021-06-26T15:01:58.000Z</time>
        <extensions>
          <ns3:TrackPointExtension>
            <ns3:atemp>28.0</ns3:atemp>
            <ns3:hr>98</ns3:hr>
          </ns3:TrackPointExtension>
        </extensions>
      </trkpt>
      <trkpt lat="36.8033940531313419342041015625" lon="-118.40238869190216064453125">
        <ele>3208</ele>
        <time>2021-06-26T15:02:06.000Z</time>
        <extensions>
          <ns3:TrackPointExtension>
            <ns3:atemp>28.0</ns3:atemp>
            <ns3:hr>99</ns3:hr>
          </ns3:TrackPointExtension>
        </extensions>
      </trkpt>
      <trkpt lat="36.80335407145321369171142578125" lon="-118.40241341851651668548583984375">
        <ele>3208</ele>
        <time>2021-06-26T15:02:10.000Z</time>
        <extensions>
          <ns3:TrackPointExtension>
            <ns3:atemp>28.0</ns3:atemp>
            <ns3:hr>100</ns3:hr>
          </ns3:TrackPointExtension>
        </extensions>
      </trkpt>
      <trkpt lat="36.80334149859845638275146484375" lon="-118.4024183638393878936767578125">
        <ele>3208</ele>
        <time>2021-06-26T15:02:11.000Z</time>
        <extensions>
          <ns3:TrackPointExtension>
            <ns3:atemp>28.0</ns3:atemp>
            <ns3:hr>101</ns3:hr>
          </ns3:TrackPointExtension>
        </extensions>
      </trkpt>
      <trkpt lat="36.8033303506672382354736328125" lon="-118.4024183638393878936767578125">
        <ele>3208</ele>
        <time>2021-06-26T15:02:12.000Z</time>
        <extensions>
          <ns3:TrackPointExtension>
            <ns3:atemp>28.0</ns3:atemp>
            <ns3:hr>99</ns3:hr>
          </ns3:TrackPointExtension>
        </extensions>
      </trkpt>
      <trkpt lat="36.8033062107861042022705078125" lon="-118.40241526253521442413330078125">
        <ele>3208.199951171875</ele>
        <time>2021-06-26T15:02:15.000Z</time>
        <extensions>
          <ns3:TrackPointExtension>
            <ns3:atemp>28.0</ns3:atemp>
            <ns3:hr>96</ns3:hr>
          </ns3:TrackPointExtension>
        </extensions>
      </trkpt>
      <trkpt lat="36.80329891853034496307373046875" lon="-118.4024116583168506622314453125">
        <ele>3208.800048828125</ele>
        <time>2021-06-26T15:02:16.000Z</time>
        <extensions>
          <ns3:TrackPointExtension>
            <ns3:atemp>28.0</ns3:atemp>
            <ns3:hr>98</ns3:hr>
          </ns3:TrackPointExtension>
        </extensions>
      </trkpt>
      <trkpt lat="36.80328768678009510040283203125" lon="-118.40238458476960659027099609375">
        <ele>3209.39990234375</ele>
        <time>2021-06-26T15:02:20.000Z</time>
        <extensions>
          <ns3:TrackPointExtension>
            <ns3:atemp>28.0</ns3:atemp>
            <ns3:hr>99</ns3:hr>
          </ns3:TrackPointExtension>
        </extensions>
      </trkpt>
      <trkpt lat="36.8032689951360225677490234375" lon="-118.40237368829548358917236328125">
        <ele>3209.39990234375</ele>
        <time>2021-06-26T15:02:22.000Z</time>
        <extensions>
          <ns3:TrackPointExtension>
            <ns3:atemp>28.0</ns3:atemp>
            <ns3:hr>100</ns3:hr>
          </ns3:TrackPointExtension>
        </extensions>
      </trkpt>
      <trkpt lat="36.803251393139362335205078125" lon="-118.402374945580959320068359375">
        <ele>3209.60009765625</ele>
        <time>2021-06-26T15:02:24.000Z</time>
        <extensions>
          <ns3:TrackPointExtension>
            <ns3:atemp>28.0</ns3:atemp>
            <ns3:hr>103</ns3:hr>
          </ns3:TrackPointExtension>
        </extensions>
      </trkpt>
      <trkpt lat="36.803229935467243194580078125" lon="-118.4023739397525787353515625">
        <ele>3209.800048828125</ele>
        <time>2021-06-26T15:02:26.000Z</time>
        <extensions>
          <ns3:TrackPointExtension>
            <ns3:atemp>28.0</ns3:atemp>
            <ns3:hr>103</ns3:hr>
          </ns3:TrackPointExtension>
        </extensions>
      </trkpt>
      <trkpt lat="36.803221888840198516845703125" lon="-118.402380309998989105224609375">
        <ele>3210.199951171875</ele>
        <time>2021-06-26T15:02:27.000Z</time>
        <extensions>
          <ns3:TrackPointExtension>
            <ns3:atemp>28.0</ns3:atemp>
            <ns3:hr>106</ns3:hr>
          </ns3:TrackPointExtension>
        </extensions>
      </trkpt>
      <trkpt lat="36.8032036162912845611572265625" lon="-118.40239900164306163787841796875">
        <ele>3210.800048828125</ele>
        <time>2021-06-26T15:02:29.000Z</time>
        <extensions>
          <ns3:TrackPointExtension>
            <ns3:atemp>28.0</ns3:atemp>
            <ns3:hr>106</ns3:hr>
          </ns3:TrackPointExtension>
        </extensions>
      </trkpt>
      <trkpt lat="36.80317453108727931976318359375" lon="-118.402418531477451324462890625">
        <ele>3211</ele>
        <time>2021-06-26T15:02:32.000Z</time>
        <extensions>
          <ns3:TrackPointExtension>
            <ns3:atemp>28.0</ns3:atemp>
            <ns3:hr>109</ns3:hr>
          </ns3:TrackPointExtension>
        </extensions>
      </trkpt>
      <trkpt lat="36.8031633831560611724853515625" lon="-118.40242548845708370208740234375">
        <ele>3211</ele>
        <time>2021-06-26T15:02:33.000Z</time>
        <extensions>
          <ns3:TrackPointExtension>
            <ns3:atemp>28.0</ns3:atemp>
            <ns3:hr>110</ns3:hr>
          </ns3:TrackPointExtension>
        </extensions>
      </trkpt>
      <trkpt lat="36.80306925438344478607177734375" lon="-118.40246572159230709075927734375">
        <ele>3211.39990234375</ele>
        <time>2021-06-26T15:02:41.000Z</time>
        <extensions>
          <ns3:TrackPointExtension>
            <ns3:atemp>28.0</ns3:atemp>
            <ns3:hr>112</ns3:hr>
          </ns3:TrackPointExtension>
        </extensions>
      </trkpt>
      <trkpt lat="36.8030564300715923309326171875" lon="-118.40247108601033687591552734375">
        <ele>3211.60009765625</ele>
        <time>2021-06-26T15:02:42.000Z</time>
        <extensions>
          <ns3:TrackPointExtension>
            <ns3:atemp>28.0</ns3:atemp>
            <ns3:hr>112</ns3:hr>
          </ns3:TrackPointExtension>
        </extensions>
      </trkpt>
      <trkpt lat="36.8030326254665851593017578125" lon="-118.4024736844003200531005859375">
        <ele>3211.800048828125</ele>
        <time>2021-06-26T15:02:45.000Z</time>
        <extensions>
          <ns3:TrackPointExtension>
            <ns3:atemp>28.0</ns3:atemp>
            <ns3:hr>113</ns3:hr>
          </ns3:TrackPointExtension>
        </extensions>
      </trkpt>
      <trkpt lat="36.8030148558318614959716796875" lon="-118.40246438048779964447021484375">
        <ele>3211.800048828125</ele>
        <time>2021-06-26T15:02:47.000Z</time>
        <extensions>
          <ns3:TrackPointExtension>
            <ns3:atemp>28.0</ns3:atemp>
            <ns3:hr>112</ns3:hr>
          </ns3:TrackPointExtension>
        </extensions>
      </trkpt>
      <trkpt lat="36.80298342369496822357177734375" lon="-118.40246714651584625244140625">
        <ele>3212</ele>
        <time>2021-06-26T15:02:50.000Z</time>
        <extensions>
          <ns3:TrackPointExtension>
            <ns3:atemp>28.0</ns3:atemp>
            <ns3:hr>109</ns3:hr>
          </ns3:TrackPointExtension>
        </extensions>
      </trkpt>
      <trkpt lat="36.80296129547059535980224609375" lon="-118.402494974434375762939453125">
        <ele>3212.800048828125</ele>
        <time>2021-06-26T15:02:53.000Z</time>
        <extensions>
          <ns3:TrackPointExtension>
            <ns3:atemp>28.0</ns3:atemp>
            <ns3:hr>107</ns3:hr>
          </ns3:TrackPointExtension>
        </extensions>
      </trkpt>
      <trkpt lat="36.80295442230999469757080078125" lon="-118.40249891392886638641357421875">
        <ele>3212.800048828125</ele>
        <time>2021-06-26T15:02:54.000Z</time>
        <extensions>
          <ns3:TrackPointExtension>
            <ns3:atemp>28.0</ns3:atemp>
            <ns3:hr>107</ns3:hr>
          </ns3:TrackPointExtension>
        </extensions>
      </trkpt>
      <trkpt lat="36.8029112555086612701416015625" lon="-118.4024958126246929168701171875">
        <ele>3213</ele>
        <time>2021-06-26T15:02:58.000Z</time>
        <extensions>
          <ns3:TrackPointExtension>
            <ns3:atemp>28.0</ns3:atemp>
            <ns3:hr>104</ns3:hr>
          </ns3:TrackPointExtension>
        </extensions>
      </trkpt>
      <trkpt lat="36.80290027521550655364990234375" lon="-118.40249841101467609405517578125">
        <ele>3213</ele>
        <time>2021-06-26T15:02:59.000Z</time>
        <extensions>
          <ns3:TrackPointExtension>
            <ns3:atemp>28.0</ns3:atemp>
            <ns3:hr>105</ns3:hr>
          </ns3:TrackPointExtension>
        </extensions>
      </trkpt>
      <trkpt lat="36.8028022907674312591552734375" lon="-118.40253286063671112060546875">
        <ele>3212.39990234375</ele>
        <time>2021-06-26T15:03:09.000Z</time>
        <extensions>
          <ns3:TrackPointExtension>
            <ns3:atemp>27.0</ns3:atemp>
            <ns3:hr>105</ns3:hr>
          </ns3:TrackPointExtension>
        </extensions>
      </trkpt>
      <trkpt lat="36.80277890525758266448974609375" lon="-118.402531184256076812744140625">
        <ele>3212.199951171875</ele>
        <time>2021-06-26T15:03:11.000Z</time>
        <extensions>
          <ns3:TrackPointExtension>
            <ns3:atemp>27.0</ns3:atemp>
            <ns3:hr>105</ns3:hr>
          </ns3:TrackPointExtension>
        </extensions>
      </trkpt>
      <trkpt lat="36.8027721159160137176513671875" lon="-118.40253327973186969757080078125">
        <ele>3212.199951171875</ele>
        <time>2021-06-26T15:03:12.000Z</time>
        <extensions>
          <ns3:TrackPointExtension>
            <ns3:atemp>27.0</ns3:atemp>
            <ns3:hr>104</ns3:hr>
          </ns3:TrackPointExtension>
        </extensions>
      </trkpt>
      <trkpt lat="36.8027761392295360565185546875" lon="-118.40255054645240306854248046875">
        <ele>3212</ele>
        <time>2021-06-26T15:03:14.000Z</time>
        <extensions>
          <ns3:TrackPointExtension>
            <ns3:atemp>27.0</ns3:atemp>
            <ns3:hr>101</ns3:hr>
          </ns3:TrackPointExtension>
        </extensions>
      </trkpt>
      <trkpt lat="36.80278812535107135772705078125" lon="-118.40256731025874614715576171875">
        <ele>3211.60009765625</ele>
        <time>2021-06-26T15:03:16.000Z</time>
        <extensions>
          <ns3:TrackPointExtension>
            <ns3:atemp>27.0</ns3:atemp>
            <ns3:hr>99</ns3:hr>
          </ns3:TrackPointExtension>
        </extensions>
      </trkpt>
      <trkpt lat="36.80281796492636203765869140625" lon="-118.402580134570598602294921875">
        <ele>3211.800048828125</ele>
        <time>2021-06-26T15:03:19.000Z</time>
        <extensions>
          <ns3:TrackPointExtension>
            <ns3:atemp>27.0</ns3:atemp>
            <ns3:hr>99</ns3:hr>
          </ns3:TrackPointExtension>
        </extensions>
      </trkpt>
      <trkpt lat="36.80284009315073490142822265625" lon="-118.4025756083428859710693359375">
        <ele>3212.39990234375</ele>
        <time>2021-06-26T15:03:21.000Z</time>
        <extensions>
          <ns3:TrackPointExtension>
            <ns3:atemp>27.0</ns3:atemp>
            <ns3:hr>98</ns3:hr>
          </ns3:TrackPointExtension>
        </extensions>
      </trkpt>
      <trkpt lat="36.80286054499447345733642578125" lon="-118.40258893556892871856689453125">
        <ele>3212.800048828125</ele>
        <time>2021-06-26T15:03:24.000Z</time>
        <extensions>
          <ns3:TrackPointExtension>
            <ns3:atemp>27.0</ns3:atemp>
            <ns3:hr>98</ns3:hr>
          </ns3:TrackPointExtension>
        </extensions>
      </trkpt>
      <trkpt lat="36.8029374070465564727783203125" lon="-118.40261190198361873626708984375">
        <ele>3212</ele>
        <time>2021-06-26T15:03:32.000Z</time>
        <extensions>
          <ns3:TrackPointExtension>
            <ns3:atemp>27.0</ns3:atemp>
            <ns3:hr>97</ns3:hr>
          </ns3:TrackPointExtension>
        </extensions>
      </trkpt>
      <trkpt lat="36.80296204984188079833984375" lon="-118.40261475183069705963134765625">
        <ele>3211.39990234375</ele>
        <time>2021-06-26T15:03:34.000Z</time>
        <extensions>
          <ns3:TrackPointExtension>
            <ns3:atemp>27.0</ns3:atemp>
            <ns3:hr>97</ns3:hr>
          </ns3:TrackPointExtension>
        </extensions>
      </trkpt>
      <trkpt lat="36.8029974214732646942138671875" lon="-118.40259429998695850372314453125">
        <ele>3210.39990234375</ele>
        <time>2021-06-26T15:03:38.000Z</time>
        <extensions>
          <ns3:TrackPointExtension>
            <ns3:atemp>27.0</ns3:atemp>
            <ns3:hr>94</ns3:hr>
          </ns3:TrackPointExtension>
        </extensions>
      </trkpt>
      <trkpt lat="36.80300295352935791015625" lon="-118.40259446762502193450927734375">
        <ele>3210.39990234375</ele>
        <time>2021-06-26T15:03:39.000Z</time>
        <extensions>
          <ns3:TrackPointExtension>
            <ns3:atemp>27.0</ns3:atemp>
            <ns3:hr>95</ns3:hr>
          </ns3:TrackPointExtension>
        </extensions>
      </trkpt>
      <trkpt lat="36.8030346371233463287353515625" lon="-118.4025927074253559112548828125">
        <ele>3210.199951171875</ele>
        <time>2021-06-26T15:03:43.000Z</time>
        <extensions>
          <ns3:TrackPointExtension>
            <ns3:atemp>27.0</ns3:atemp>
            <ns3:hr>96</ns3:hr>
          </ns3:TrackPointExtension>
        </extensions>
      </trkpt>
      <trkpt lat="36.80306933820247650146484375" lon="-118.402612991631031036376953125">
        <ele>3210.39990234375</ele>
        <time>2021-06-26T15:03:47.000Z</time>
        <extensions>
          <ns3:TrackPointExtension>
            <ns3:atemp>27.0</ns3:atemp>
            <ns3:hr>93</ns3:hr>
          </ns3:TrackPointExtension>
        </extensions>
      </trkpt>
      <trkpt lat="36.8030782230198383331298828125" lon="-118.4026175178587436676025390625">
        <ele>3210.39990234375</ele>
        <time>2021-06-26T15:03:48.000Z</time>
        <extensions>
          <ns3:TrackPointExtension>
            <ns3:atemp>27.0</ns3:atemp>
            <ns3:hr>91</ns3:hr>
          </ns3:TrackPointExtension>
        </extensions>
      </trkpt>
      <trkpt lat="36.80310412310063838958740234375" lon="-118.4026346169412136077880859375">
        <ele>3210</ele>
        <time>2021-06-26T15:03:51.000Z</time>
        <extensions>
          <ns3:TrackPointExtension>
            <ns3:atemp>27.0</ns3:atemp>
            <ns3:hr>91</ns3:hr>
          </ns3:TrackPointExtension>
        </extensions>
      </trkpt>
      <trkpt lat="36.80312792770564556121826171875" lon="-118.4026684798300266265869140625">
        <ele>3209.39990234375</ele>
        <time>2021-06-26T15:03:54.000Z</time>
        <extensions>
          <ns3:TrackPointExtension>
            <ns3:atemp>27.0</ns3:atemp>
            <ns3:hr>94</ns3:hr>
          </ns3:TrackPointExtension>
        </extensions>
      </trkpt>
      <trkpt lat="36.803139410912990570068359375" lon="-118.40269253589212894439697265625">
        <ele>3209.199951171875</ele>
        <time>2021-06-26T15:03:56.000Z</time>
        <extensions>
          <ns3:TrackPointExtension>
            <ns3:atemp>27.0</ns3:atemp>
            <ns3:hr>91</ns3:hr>
          </ns3:TrackPointExtension>
        </extensions>
      </trkpt>
      <trkpt lat="36.8031456135213375091552734375" lon="-118.402704857289791107177734375">
        <ele>3209.199951171875</ele>
        <time>2021-06-26T15:03:57.000Z</time>
        <extensions>
          <ns3:TrackPointExtension>
            <ns3:atemp>27.0</ns3:atemp>
            <ns3:hr>92</ns3:hr>
          </ns3:TrackPointExtension>
        </extensions>
      </trkpt>
      <trkpt lat="36.8031804822385311126708984375" lon="-118.40273327194154262542724609375">
        <ele>3209.199951171875</ele>
        <time>2021-06-26T15:04:01.000Z</time>
        <extensions>
          <ns3:TrackPointExtension>
            <ns3:atemp>27.0</ns3:atemp>
            <ns3:hr>92</ns3:hr>
          </ns3:TrackPointExtension>
        </extensions>
      </trkpt>
      <trkpt lat="36.8031938932836055755615234375" lon="-118.40273578651249408721923828125">
        <ele>3209.199951171875</ele>
        <time>2021-06-26T15:04:03.000Z</time>
        <extensions>
          <ns3:TrackPointExtension>
            <ns3:atemp>27.0</ns3:atemp>
            <ns3:hr>91</ns3:hr>
          </ns3:TrackPointExtension>
        </extensions>
      </trkpt>
      <trkpt lat="36.80320051498711109161376953125" lon="-118.40273377485573291778564453125">
        <ele>3209.39990234375</ele>
        <time>2021-06-26T15:04:04.000Z</time>
        <extensions>
          <ns3:TrackPointExtension>
            <ns3:atemp>27.0</ns3:atemp>
            <ns3:hr>91</ns3:hr>
          </ns3:TrackPointExtension>
        </extensions>
      </trkpt>
      <trkpt lat="36.80320872925221920013427734375" lon="-118.40273327194154262542724609375">
        <ele>3209.39990234375</ele>
        <time>2021-06-26T15:04:05.000Z</time>
        <extensions>
          <ns3:TrackPointExtension>
            <ns3:atemp>27.0</ns3:atemp>
            <ns3:hr>90</ns3:hr>
          </ns3:TrackPointExtension>
        </extensions>
      </trkpt>
      <trkpt lat="36.8032324500381946563720703125" lon="-118.40273226611316204071044921875">
        <ele>3209.60009765625</ele>
        <time>2021-06-26T15:04:07.000Z</time>
        <extensions>
          <ns3:TrackPointExtension>
            <ns3:atemp>27.0</ns3:atemp>
            <ns3:hr>90</ns3:hr>
          </ns3:TrackPointExtension>
        </extensions>
      </trkpt>
      <trkpt lat="36.80326958186924457550048828125" lon="-118.40274073183536529541015625">
        <ele>3209.800048828125</ele>
        <time>2021-06-26T15:04:11.000Z</time>
        <extensions>
          <ns3:TrackPointExtension>
            <ns3:atemp>27.0</ns3:atemp>
            <ns3:hr>89</ns3:hr>
          </ns3:TrackPointExtension>
        </extensions>
      </trkpt>
      <trkpt lat="36.80329841561615467071533203125" lon="-118.4027435816824436187744140625">
        <ele>3209.60009765625</ele>
        <time>2021-06-26T15:04:15.000Z</time>
        <extensions>
          <ns3:TrackPointExtension>
            <ns3:atemp>27.0</ns3:atemp>
            <ns3:hr>89</ns3:hr>
          </ns3:TrackPointExtension>
        </extensions>
      </trkpt>
      <trkpt lat="36.803304366767406463623046875" lon="-118.40278037823736667633056640625">
        <ele>3209.60009765625</ele>
        <time>2021-06-26T15:04:18.000Z</time>
        <extensions>
          <ns3:TrackPointExtension>
            <ns3:atemp>27.0</ns3:atemp>
            <ns3:hr>88</ns3:hr>
          </ns3:TrackPointExtension>
        </extensions>
      </trkpt>
      <trkpt lat="36.8033073842525482177734375" lon="-118.4027901850640773773193359375">
        <ele>3209.60009765625</ele>
        <time>2021-06-26T15:04:19.000Z</time>
        <extensions>
          <ns3:TrackPointExtension>
            <ns3:atemp>27.0</ns3:atemp>
            <ns3:hr>87</ns3:hr>
          </ns3:TrackPointExtension>
        </extensions>
      </trkpt>
      <trkpt lat="36.8033454380929470062255859375" lon="-118.4028709866106510162353515625">
        <ele>3210.199951171875</ele>
        <time>2021-06-26T15:04:26.000Z</time>
        <extensions>
          <ns3:TrackPointExtension>
            <ns3:atemp>27.0</ns3:atemp>
            <ns3:hr>86</ns3:hr>
          </ns3:TrackPointExtension>
        </extensions>
      </trkpt>
      <trkpt lat="36.803355328738689422607421875" lon="-118.40287995524704456329345703125">
        <ele>3210.199951171875</ele>
        <time>2021-06-26T15:04:27.000Z</time>
        <extensions>
          <ns3:TrackPointExtension>
            <ns3:atemp>27.0</ns3:atemp>
            <ns3:hr>87</ns3:hr>
          </ns3:TrackPointExtension>
        </extensions>
      </trkpt>
      <trkpt lat="36.80341056548058986663818359375" lon="-118.4028867445886135101318359375">
        <ele>3211.39990234375</ele>
        <time>2021-06-26T15:04:34.000Z</time>
        <extensions>
          <ns3:TrackPointExtension>
            <ns3:atemp>27.0</ns3:atemp>
            <ns3:hr>88</ns3:hr>
          </ns3:TrackPointExtension>
        </extensions>
      </trkpt>
      <trkpt lat="36.80344375781714916229248046875" lon="-118.40290107764303684234619140625">
        <ele>3212.199951171875</ele>
        <time>2021-06-26T15:04:39.000Z</time>
        <extensions>
          <ns3:TrackPointExtension>
            <ns3:atemp>27.0</ns3:atemp>
            <ns3:hr>92</ns3:hr>
          </ns3:TrackPointExtension>
        </extensions>
      </trkpt>
      <trkpt lat="36.8034631200134754180908203125" lon="-118.40290040709078311920166015625">
        <ele>3212.800048828125</ele>
        <time>2021-06-26T15:04:41.000Z</time>
        <extensions>
          <ns3:TrackPointExtension>
            <ns3:atemp>27.0</ns3:atemp>
            <ns3:hr>91</ns3:hr>
          </ns3:TrackPointExtension>
        </extensions>
      </trkpt>
      <trkpt lat="36.80347259156405925750732421875" lon="-118.4029001556336879730224609375">
        <ele>3213</ele>
        <time>2021-06-26T15:04:42.000Z</time>
        <extensions>
          <ns3:TrackPointExtension>
            <ns3:atemp>27.0</ns3:atemp>
            <ns3:hr>92</ns3:hr>
          </ns3:TrackPointExtension>
        </extensions>
      </trkpt>
      <trkpt lat="36.80350746028125286102294921875" lon="-118.40287576429545879364013671875">
        <ele>3213.39990234375</ele>
        <time>2021-06-26T15:04:46.000Z</time>
        <extensions>
          <ns3:TrackPointExtension>
            <ns3:atemp>27.0</ns3:atemp>
            <ns3:hr>95</ns3:hr>
          </ns3:TrackPointExtension>
        </extensions>
      </trkpt>
      <trkpt lat="36.8035241402685642242431640625" lon="-118.40286687947809696197509765625">
        <ele>3213.39990234375</ele>
        <time>2021-06-26T15:04:48.000Z</time>
        <extensions>
          <ns3:TrackPointExtension>
            <ns3:atemp>27.0</ns3:atemp>
            <ns3:hr>99</ns3:hr>
          </ns3:TrackPointExtension>
        </extensions>
      </trkpt>
      <trkpt lat="36.803534366190433502197265625" lon="-118.40286034159362316131591796875">
        <ele>3213.39990234375</ele>
        <time>2021-06-26T15:04:49.000Z</time>
        <extensions>
          <ns3:TrackPointExtension>
            <ns3:atemp>27.0</ns3:atemp>
            <ns3:hr>103</ns3:hr>
          </ns3:TrackPointExtension>
        </extensions>
      </trkpt>
      <trkpt lat="36.8035452626645565032958984375" lon="-118.40285330079495906829833984375">
        <ele>3213.39990234375</ele>
        <time>2021-06-26T15:04:50.000Z</time>
        <extensions>
          <ns3:TrackPointExtension>
            <ns3:atemp>27.0</ns3:atemp>
            <ns3:hr>105</ns3:hr>
          </ns3:TrackPointExtension>
        </extensions>
      </trkpt>
      <trkpt lat="36.80357283912599086761474609375" lon="-118.40283955447375774383544921875">
        <ele>3213.199951171875</ele>
        <time>2021-06-26T15:04:53.000Z</time>
        <extensions>
          <ns3:TrackPointExtension>
            <ns3:atemp>27.0</ns3:atemp>
            <ns3:hr>108</ns3:hr>
          </ns3:TrackPointExtension>
        </extensions>
      </trkpt>
      <trkpt lat="36.803624890744686126708984375" lon="-118.40283268131315708160400390625">
        <ele>3212.60009765625</ele>
        <time>2021-06-26T15:04:59.000Z</time>
        <extensions>
          <ns3:TrackPointExtension>
            <ns3:atemp>27.0</ns3:atemp>
            <ns3:hr>108</ns3:hr>
          </ns3:TrackPointExtension>
        </extensions>
      </trkpt>
      <trkpt lat="36.8036421574652194976806640625" lon="-118.4028361178934574127197265625">
        <ele>3212.60009765625</ele>
        <time>2021-06-26T15:05:01.000Z</time>
        <extensions>
          <ns3:TrackPointExtension>
            <ns3:atemp>27.0</ns3:atemp>
            <ns3:hr>105</ns3:hr>
          </ns3:TrackPointExtension>
        </extensions>
      </trkpt>
      <trkpt lat="36.803651042282581329345703125" lon="-118.40284475125372409820556640625">
        <ele>3212.60009765625</ele>
        <time>2021-06-26T15:05:02.000Z</time>
        <extensions>
          <ns3:TrackPointExtension>
            <ns3:atemp>27.0</ns3:atemp>
            <ns3:hr>107</ns3:hr>
          </ns3:TrackPointExtension>
        </extensions>
      </trkpt>
      <trkpt lat="36.8036937899887561798095703125" lon="-118.40286034159362316131591796875">
        <ele>3213.199951171875</ele>
        <time>2021-06-26T15:05:07.000Z</time>
        <extensions>
          <ns3:TrackPointExtension>
            <ns3:atemp>27.0</ns3:atemp>
            <ns3:hr>107</ns3:hr>
          </ns3:TrackPointExtension>
        </extensions>
      </trkpt>
      <trkpt lat="36.8037132360041141510009765625" lon="-118.40289521031081676483154296875">
        <ele>3214</ele>
        <time>2021-06-26T15:05:12.000Z</time>
        <extensions>
          <ns3:TrackPointExtension>
            <ns3:atemp>27.0</ns3:atemp>
            <ns3:hr>107</ns3:hr>
          </ns3:TrackPointExtension>
        </extensions>
      </trkpt>
      <trkpt lat="36.8037481047213077545166015625" lon="-118.4029283188283443450927734375">
        <ele>3215</ele>
        <time>2021-06-26T15:05:17.000Z</time>
        <extensions>
          <ns3:TrackPointExtension>
            <ns3:atemp>26.0</ns3:atemp>
            <ns3:hr>104</ns3:hr>
          </ns3:TrackPointExtension>
        </extensions>
      </trkpt>
      <trkpt lat="36.803753636777400970458984375" lon="-118.40293779037892818450927734375">
        <ele>3215.199951171875</ele>
        <time>2021-06-26T15:05:18.000Z</time>
        <extensions>
          <ns3:TrackPointExtension>
            <ns3:atemp>26.0</ns3:atemp>
            <ns3:hr>105</ns3:hr>
          </ns3:TrackPointExtension>
        </extensions>
      </trkpt>
      <trkpt lat="36.803757660090923309326171875" lon="-118.40294801630079746246337890625">
        <ele>3215.199951171875</ele>
        <time>2021-06-26T15:05:19.000Z</time>
        <extensions>
          <ns3:TrackPointExtension>
            <ns3:atemp>26.0</ns3:atemp>
            <ns3:hr>107</ns3:hr>
          </ns3:TrackPointExtension>
        </extensions>
      </trkpt>
      <trkpt lat="36.80378423072397708892822265625" lon="-118.4030044265091419219970703125">
        <ele>3214.39990234375</ele>
        <time>2021-06-26T15:05:25.000Z</time>
        <extensions>
          <ns3:TrackPointExtension>
            <ns3:atemp>26.0</ns3:atemp>
            <ns3:hr>104</ns3:hr>
          </ns3:TrackPointExtension>
        </extensions>
      </trkpt>
      <trkpt lat="36.8037940375506877899169921875" lon="-118.4030030854046344757080078125">
        <ele>3214.199951171875</ele>
        <time>2021-06-26T15:05:26.000Z</time>
        <extensions>
          <ns3:TrackPointExtension>
            <ns3:atemp>26.0</ns3:atemp>
            <ns3:hr>103</ns3:hr>
          </ns3:TrackPointExtension>
        </extensions>
      </trkpt>
      <trkpt lat="36.80380434729158878326416015625" lon="-118.40300082229077816009521484375">
        <ele>3213.800048828125</ele>
        <time>2021-06-26T15:05:27.000Z</time>
        <extensions>
          <ns3:TrackPointExtension>
            <ns3:atemp>26.0</ns3:atemp>
            <ns3:hr>104</ns3:hr>
          </ns3:TrackPointExtension>
        </extensions>
      </trkpt>
      <trkpt lat="36.80382748134434223175048828125" lon="-118.4030171670019626617431640625">
        <ele>3213.39990234375</ele>
        <time>2021-06-26T15:05:31.000Z</time>
        <extensions>
          <ns3:TrackPointExtension>
            <ns3:atemp>26.0</ns3:atemp>
            <ns3:hr>101</ns3:hr>
          </ns3:TrackPointExtension>
        </extensions>
      </trkpt>
      <trkpt lat="36.8038362823426723480224609375" lon="-118.40302680619060993194580078125">
        <ele>3213.39990234375</ele>
        <time>2021-06-26T15:05:33.000Z</time>
        <extensions>
          <ns3:TrackPointExtension>
            <ns3:atemp>26.0</ns3:atemp>
            <ns3:hr>100</ns3:hr>
          </ns3:TrackPointExtension>
        </extensions>
      </trkpt>
      <trkpt lat="36.803852878510951995849609375" lon="-118.40304323472082614898681640625">
        <ele>3212.199951171875</ele>
        <time>2021-06-26T15:05:35.000Z</time>
        <extensions>
          <ns3:TrackPointExtension>
            <ns3:atemp>26.0</ns3:atemp>
            <ns3:hr>101</ns3:hr>
          </ns3:TrackPointExtension>
        </extensions>
      </trkpt>
      <trkpt lat="36.8038652837276458740234375" lon="-118.4030416421592235565185546875">
        <ele>3212</ele>
        <time>2021-06-26T15:05:36.000Z</time>
        <extensions>
          <ns3:TrackPointExtension>
            <ns3:atemp>26.0</ns3:atemp>
            <ns3:hr>101</ns3:hr>
          </ns3:TrackPointExtension>
        </extensions>
      </trkpt>
      <trkpt lat="36.80389185436069965362548828125" lon="-118.4030282311141490936279296875">
        <ele>3211.199951171875</ele>
        <time>2021-06-26T15:05:38.000Z</time>
        <extensions>
          <ns3:TrackPointExtension>
            <ns3:atemp>26.0</ns3:atemp>
            <ns3:hr>100</ns3:hr>
          </ns3:TrackPointExtension>
        </extensions>
      </trkpt>
      <trkpt lat="36.8039019964635372161865234375" lon="-118.403018675744533538818359375">
        <ele>3210.800048828125</ele>
        <time>2021-06-26T15:05:39.000Z</time>
        <extensions>
          <ns3:TrackPointExtension>
            <ns3:atemp>26.0</ns3:atemp>
            <ns3:hr>99</ns3:hr>
          </ns3:TrackPointExtension>
        </extensions>
      </trkpt>
      <trkpt lat="36.8039170838892459869384765625" lon="-118.4029983915388584136962890625">
        <ele>3210.800048828125</ele>
        <time>2021-06-26T15:05:41.000Z</time>
        <extensions>
          <ns3:TrackPointExtension>
            <ns3:atemp>26.0</ns3:atemp>
            <ns3:hr>98</ns3:hr>
          </ns3:TrackPointExtension>
        </extensions>
      </trkpt>
      <trkpt lat="36.803949773311614990234375" lon="-118.40297902934253215789794921875">
        <ele>3211.60009765625</ele>
        <time>2021-06-26T15:05:45.000Z</time>
        <extensions>
          <ns3:TrackPointExtension>
            <ns3:atemp>26.0</ns3:atemp>
            <ns3:hr>95</ns3:hr>
          </ns3:TrackPointExtension>
        </extensions>
      </trkpt>
      <trkpt lat="36.803989000618457794189453125" lon="-118.40294969268143177032470703125">
        <ele>3211.800048828125</ele>
        <time>2021-06-26T15:05:49.000Z</time>
        <extensions>
          <ns3:TrackPointExtension>
            <ns3:atemp>26.0</ns3:atemp>
            <ns3:hr>95</ns3:hr>
          </ns3:TrackPointExtension>
        </extensions>
      </trkpt>
      <trkpt lat="36.8040076084434986114501953125" lon="-118.40293544344604015350341796875">
        <ele>3211.800048828125</ele>
        <time>2021-06-26T15:05:51.000Z</time>
        <extensions>
          <ns3:TrackPointExtension>
            <ns3:atemp>26.0</ns3:atemp>
            <ns3:hr>98</ns3:hr>
          </ns3:TrackPointExtension>
        </extensions>
      </trkpt>
      <trkpt lat="36.8040169961750507354736328125" lon="-118.40293125249445438385009765625">
        <ele>3211.800048828125</ele>
        <time>2021-06-26T15:05:52.000Z</time>
        <extensions>
          <ns3:TrackPointExtension>
            <ns3:atemp>26.0</ns3:atemp>
            <ns3:hr>99</ns3:hr>
          </ns3:TrackPointExtension>
        </extensions>
      </trkpt>
      <trkpt lat="36.8040342628955841064453125" lon="-118.4029196016490459442138671875">
        <ele>3212.199951171875</ele>
        <time>2021-06-26T15:05:54.000Z</time>
        <extensions>
          <ns3:TrackPointExtension>
            <ns3:atemp>26.0</ns3:atemp>
            <ns3:hr>101</ns3:hr>
          </ns3:TrackPointExtension>
        </extensions>
      </trkpt>
      <trkpt lat="36.804050020873546600341796875" lon="-118.40289889834821224212646484375">
        <ele>3212.39990234375</ele>
        <time>2021-06-26T15:05:56.000Z</time>
        <extensions>
          <ns3:TrackPointExtension>
            <ns3:atemp>26.0</ns3:atemp>
            <ns3:hr>102</ns3:hr>
          </ns3:TrackPointExtension>
        </extensions>
      </trkpt>
      <trkpt lat="36.8040669523179531097412109375" lon="-118.40287224389612674713134765625">
        <ele>3212.60009765625</ele>
        <time>2021-06-26T15:05:59.000Z</time>
        <extensions>
          <ns3:TrackPointExtension>
            <ns3:atemp>26.0</ns3:atemp>
            <ns3:hr>99</ns3:hr>
          </ns3:TrackPointExtension>
        </extensions>
      </trkpt>
      <trkpt lat="36.80408178828656673431396484375" lon="-118.40285665355622768402099609375">
        <ele>3212.800048828125</ele>
        <time>2021-06-26T15:06:01.000Z</time>
        <extensions>
          <ns3:TrackPointExtension>
            <ns3:atemp>26.0</ns3:atemp>
            <ns3:hr>95</ns3:hr>
          </ns3:TrackPointExtension>
        </extensions>
      </trkpt>
      <trkpt lat="36.8040961213409900665283203125" lon="-118.40284827165305614471435546875">
        <ele>3213</ele>
        <time>2021-06-26T15:06:03.000Z</time>
        <extensions>
          <ns3:TrackPointExtension>
            <ns3:atemp>26.0</ns3:atemp>
            <ns3:hr>91</ns3:hr>
          </ns3:TrackPointExtension>
        </extensions>
      </trkpt>
      <trkpt lat="36.8041045032441616058349609375" lon="-118.40284743346273899078369140625">
        <ele>3212.800048828125</ele>
        <time>2021-06-26T15:06:04.000Z</time>
        <extensions>
          <ns3:TrackPointExtension>
            <ns3:atemp>26.0</ns3:atemp>
            <ns3:hr>89</ns3:hr>
          </ns3:TrackPointExtension>
        </extensions>
      </trkpt>
      <trkpt lat="36.8041227757930755615234375" lon="-118.40284802019596099853515625">
        <ele>3213</ele>
        <time>2021-06-26T15:06:06.000Z</time>
        <extensions>
          <ns3:TrackPointExtension>
            <ns3:atemp>26.0</ns3:atemp>
            <ns3:hr>86</ns3:hr>
          </ns3:TrackPointExtension>
        </extensions>
      </trkpt>
      <trkpt lat="36.80414398200809955596923828125" lon="-118.4028431586921215057373046875">
        <ele>3212.60009765625</ele>
        <time>2021-06-26T15:06:08.000Z</time>
        <extensions>
          <ns3:TrackPointExtension>
            <ns3:atemp>26.0</ns3:atemp>
            <ns3:hr>87</ns3:hr>
          </ns3:TrackPointExtension>
        </extensions>
      </trkpt>
      <trkpt lat="36.80418245494365692138671875" lon="-118.40282312594354152679443359375">
        <ele>3212.800048828125</ele>
        <time>2021-06-26T15:06:12.000Z</time>
        <extensions>
          <ns3:TrackPointExtension>
            <ns3:atemp>26.0</ns3:atemp>
            <ns3:hr>84</ns3:hr>
          </ns3:TrackPointExtension>
        </extensions>
      </trkpt>
      <trkpt lat="36.80420081131160259246826171875" lon="-118.40281315147876739501953125">
        <ele>3212.800048828125</ele>
        <time>2021-06-26T15:06:14.000Z</time>
        <extensions>
          <ns3:TrackPointExtension>
            <ns3:atemp>26.0</ns3:atemp>
            <ns3:hr>85</ns3:hr>
          </ns3:TrackPointExtension>
        </extensions>
      </trkpt>
      <trkpt lat="36.8042627535760402679443359375" lon="-118.402816839516162872314453125">
        <ele>3212.39990234375</ele>
        <time>2021-06-26T15:06:21.000Z</time>
        <extensions>
          <ns3:TrackPointExtension>
            <ns3:atemp>26.0</ns3:atemp>
            <ns3:hr>86</ns3:hr>
          </ns3:TrackPointExtension>
        </extensions>
      </trkpt>
      <trkpt lat="36.80426987819373607635498046875" lon="-118.40281139127910137176513671875">
        <ele>3212.39990234375</ele>
        <time>2021-06-26T15:06:22.000Z</time>
        <extensions>
          <ns3:TrackPointExtension>
            <ns3:atemp>26.0</ns3:atemp>
            <ns3:hr>89</ns3:hr>
          </ns3:TrackPointExtension>
        </extensions>
      </trkpt>
      <trkpt lat="36.8042808584868907928466796875" lon="-118.4028069488704204559326171875">
        <ele>3212.199951171875</ele>
        <time>2021-06-26T15:06:23.000Z</time>
        <extensions>
          <ns3:TrackPointExtension>
            <ns3:atemp>26.0</ns3:atemp>
            <ns3:hr>87</ns3:hr>
          </ns3:TrackPointExtension>
        </extensions>
      </trkpt>
      <trkpt lat="36.80436090566217899322509765625" lon="-118.4028133191168308258056640625">
        <ele>3211.39990234375</ele>
        <time>2021-06-26T15:06:32.000Z</time>
        <extensions>
          <ns3:TrackPointExtension>
            <ns3:atemp>26.0</ns3:atemp>
            <ns3:hr>88</ns3:hr>
          </ns3:TrackPointExtension>
        </extensions>
      </trkpt>
      <trkpt lat="36.8043695390224456787109375" lon="-118.402814157307147979736328125">
        <ele>3211.199951171875</ele>
        <time>2021-06-26T15:06:33.000Z</time>
        <extensions>
          <ns3:TrackPointExtension>
            <ns3:atemp>26.0</ns3:atemp>
            <ns3:hr>88</ns3:hr>
          </ns3:TrackPointExtension>
        </extensions>
      </trkpt>
      <trkpt lat="36.80446132086217403411865234375" lon="-118.4027896821498870849609375">
        <ele>3210.39990234375</ele>
        <time>2021-06-26T15:06:42.000Z</time>
        <extensions>
          <ns3:TrackPointExtension>
            <ns3:atemp>26.0</ns3:atemp>
            <ns3:hr>89</ns3:hr>
          </ns3:TrackPointExtension>
        </extensions>
      </trkpt>
      <trkpt lat="36.80447808466851711273193359375" lon="-118.4027945436537265777587890625">
        <ele>3210.39990234375</ele>
        <time>2021-06-26T15:06:44.000Z</time>
        <extensions>
          <ns3:TrackPointExtension>
            <ns3:atemp>26.0</ns3:atemp>
            <ns3:hr>88</ns3:hr>
          </ns3:TrackPointExtension>
        </extensions>
      </trkpt>
      <trkpt lat="36.80450968444347381591796875" lon="-118.40283687226474285125732421875">
        <ele>3210.800048828125</ele>
        <time>2021-06-26T15:06:49.000Z</time>
        <extensions>
          <ns3:TrackPointExtension>
            <ns3:atemp>26.0</ns3:atemp>
            <ns3:hr>85</ns3:hr>
          </ns3:TrackPointExtension>
        </extensions>
      </trkpt>
      <trkpt lat="36.80453055538237094879150390625" lon="-118.40287341736257076263427734375">
        <ele>3210.800048828125</ele>
        <time>2021-06-26T15:06:52.000Z</time>
        <extensions>
          <ns3:TrackPointExtension>
            <ns3:atemp>26.0</ns3:atemp>
            <ns3:hr>88</ns3:hr>
          </ns3:TrackPointExtension>
        </extensions>
      </trkpt>
      <trkpt lat="36.80454396642744541168212890625" lon="-118.40289604850113391876220703125">
        <ele>3210.800048828125</ele>
        <time>2021-06-26T15:06:54.000Z</time>
        <extensions>
          <ns3:TrackPointExtension>
            <ns3:atemp>26.0</ns3:atemp>
            <ns3:hr>85</ns3:hr>
          </ns3:TrackPointExtension>
        </extensions>
      </trkpt>
      <trkpt lat="36.8045795895159244537353515625" lon="-118.4029367007315158843994140625">
        <ele>3210.800048828125</ele>
        <time>2021-06-26T15:06:59.000Z</time>
        <extensions>
          <ns3:TrackPointExtension>
            <ns3:atemp>26.0</ns3:atemp>
            <ns3:hr>82</ns3:hr>
          </ns3:TrackPointExtension>
        </extensions>
      </trkpt>
      <trkpt lat="36.80459694005548954010009765625" lon="-118.4029693901538848876953125">
        <ele>3211.199951171875</ele>
        <time>2021-06-26T15:07:02.000Z</time>
        <extensions>
          <ns3:TrackPointExtension>
            <ns3:atemp>26.0</ns3:atemp>
            <ns3:hr>82</ns3:hr>
          </ns3:TrackPointExtension>
        </extensions>
      </trkpt>
      <trkpt lat="36.80464069359004497528076171875" lon="-118.403032757341861724853515625">
        <ele>3211</ele>
        <time>2021-06-26T15:07:08.000Z</time>
        <extensions>
          <ns3:TrackPointExtension>
            <ns3:atemp>25.0</ns3:atemp>
            <ns3:hr>80</ns3:hr>
          </ns3:TrackPointExtension>
        </extensions>
      </trkpt>
      <trkpt lat="36.804660893976688385009765625" lon="-118.40304306708276271820068359375">
        <ele>3211</ele>
        <time>2021-06-26T15:07:11.000Z</time>
        <extensions>
          <ns3:TrackPointExtension>
            <ns3:atemp>25.0</ns3:atemp>
            <ns3:hr>83</ns3:hr>
          </ns3:TrackPointExtension>
        </extensions>
      </trkpt>
      <trkpt lat="36.8046999536454677581787109375" lon="-118.4030376188457012176513671875">
        <ele>3211.60009765625</ele>
        <time>2021-06-26T15:07:15.000Z</time>
        <extensions>
          <ns3:TrackPointExtension>
            <ns3:atemp>25.0</ns3:atemp>
            <ns3:hr>81</ns3:hr>
          </ns3:TrackPointExtension>
        </extensions>
      </trkpt>
      <trkpt lat="36.8047301284968852996826171875" lon="-118.4030176699161529541015625">
        <ele>3212.60009765625</ele>
        <time>2021-06-26T15:07:18.000Z</time>
        <extensions>
          <ns3:TrackPointExtension>
            <ns3:atemp>25.0</ns3:atemp>
            <ns3:hr>84</ns3:hr>
          </ns3:TrackPointExtension>
        </extensions>
      </trkpt>
      <trkpt lat="36.8047423660755157470703125" lon="-118.40301699936389923095703125">
        <ele>3212.60009765625</ele>
        <time>2021-06-26T15:07:19.000Z</time>
        <extensions>
          <ns3:TrackPointExtension>
            <ns3:atemp>25.0</ns3:atemp>
            <ns3:hr>85</ns3:hr>
          </ns3:TrackPointExtension>
        </extensions>
      </trkpt>
      <trkpt lat="36.80478461086750030517578125" lon="-118.4030128084123134613037109375">
        <ele>3213</ele>
        <time>2021-06-26T15:07:23.000Z</time>
        <extensions>
          <ns3:TrackPointExtension>
            <ns3:atemp>25.0</ns3:atemp>
            <ns3:hr>90</ns3:hr>
          </ns3:TrackPointExtension>
        </extensions>
      </trkpt>
      <trkpt lat="36.8048126064240932464599609375" lon="-118.40299244038760662078857421875">
        <ele>3212.60009765625</ele>
        <time>2021-06-26T15:07:26.000Z</time>
        <extensions>
          <ns3:TrackPointExtension>
            <ns3:atemp>25.0</ns3:atemp>
            <ns3:hr>91</ns3:hr>
          </ns3:TrackPointExtension>
        </extensions>
      </trkpt>
      <trkpt lat="36.8048320524394512176513671875" lon="-118.40298171155154705047607421875">
        <ele>3212.60009765625</ele>
        <time>2021-06-26T15:07:28.000Z</time>
        <extensions>
          <ns3:TrackPointExtension>
            <ns3:atemp>25.0</ns3:atemp>
            <ns3:hr>94</ns3:hr>
          </ns3:TrackPointExtension>
        </extensions>
      </trkpt>
      <trkpt lat="36.80484454147517681121826171875" lon="-118.40297332964837551116943359375">
        <ele>3212.60009765625</ele>
        <time>2021-06-26T15:07:30.000Z</time>
        <extensions>
          <ns3:TrackPointExtension>
            <ns3:atemp>25.0</ns3:atemp>
            <ns3:hr>97</ns3:hr>
          </ns3:TrackPointExtension>
        </extensions>
      </trkpt>
      <trkpt lat="36.8048900552093982696533203125" lon="-118.4029732458293437957763671875">
        <ele>3211.60009765625</ele>
        <time>2021-06-26T15:07:36.000Z</time>
        <extensions>
          <ns3:TrackPointExtension>
            <ns3:atemp>25.0</ns3:atemp>
            <ns3:hr>96</ns3:hr>
          </ns3:TrackPointExtension>
        </extensions>
      </trkpt>
      <trkpt lat="36.80491126142442226409912109375" lon="-118.40297877788543701171875">
        <ele>3211.39990234375</ele>
        <time>2021-06-26T15:07:39.000Z</time>
        <extensions>
          <ns3:TrackPointExtension>
            <ns3:atemp>25.0</ns3:atemp>
            <ns3:hr>94</ns3:hr>
          </ns3:TrackPointExtension>
        </extensions>
      </trkpt>
      <trkpt lat="36.80497211404144763946533203125" lon="-118.40297768823802471160888671875">
        <ele>3210.60009765625</ele>
        <time>2021-06-26T15:07:45.000Z</time>
        <extensions>
          <ns3:TrackPointExtension>
            <ns3:atemp>25.0</ns3:atemp>
            <ns3:hr>91</ns3:hr>
          </ns3:TrackPointExtension>
        </extensions>
      </trkpt>
      <trkpt lat="36.80498368106782436370849609375" lon="-118.40296930633485317230224609375">
        <ele>3210.199951171875</ele>
        <time>2021-06-26T15:07:46.000Z</time>
        <extensions>
          <ns3:TrackPointExtension>
            <ns3:atemp>25.0</ns3:atemp>
            <ns3:hr>89</ns3:hr>
          </ns3:TrackPointExtension>
        </extensions>
      </trkpt>
      <trkpt lat="36.80499122478067874908447265625" lon="-118.40295857749879360198974609375">
        <ele>3210.199951171875</ele>
        <time>2021-06-26T15:07:47.000Z</time>
        <extensions>
          <ns3:TrackPointExtension>
            <ns3:atemp>25.0</ns3:atemp>
            <ns3:hr>92</ns3:hr>
          </ns3:TrackPointExtension>
        </extensions>
      </trkpt>
      <trkpt lat="36.8050040490925312042236328125" lon="-118.40294550172984600067138671875">
        <ele>3210.199951171875</ele>
        <time>2021-06-26T15:07:49.000Z</time>
        <extensions>
          <ns3:TrackPointExtension>
            <ns3:atemp>25.0</ns3:atemp>
            <ns3:hr>92</ns3:hr>
          </ns3:TrackPointExtension>
        </extensions>
      </trkpt>
      <trkpt lat="36.80503673851490020751953125" lon="-118.402934186160564422607421875">
        <ele>3210.199951171875</ele>
        <time>2021-06-26T15:07:52.000Z</time>
        <extensions>
          <ns3:TrackPointExtension>
            <ns3:atemp>25.0</ns3:atemp>
            <ns3:hr>93</ns3:hr>
          </ns3:TrackPointExtension>
        </extensions>
      </trkpt>
      <trkpt lat="36.805087029933929443359375" lon="-118.40293963439762592315673828125">
        <ele>3209.60009765625</ele>
        <time>2021-06-26T15:07:58.000Z</time>
        <extensions>
          <ns3:TrackPointExtension>
            <ns3:atemp>25.0</ns3:atemp>
            <ns3:hr>93</ns3:hr>
          </ns3:TrackPointExtension>
        </extensions>
      </trkpt>
      <trkpt lat="36.805116198956966400146484375" lon="-118.40299076400697231292724609375">
        <ele>3209.199951171875</ele>
        <time>2021-06-26T15:08:04.000Z</time>
        <extensions>
          <ns3:TrackPointExtension>
            <ns3:atemp>25.0</ns3:atemp>
            <ns3:hr>93</ns3:hr>
          </ns3:TrackPointExtension>
        </extensions>
      </trkpt>
      <trkpt lat="36.80512181483209133148193359375" lon="-118.4030017443001270294189453125">
        <ele>3209.199951171875</ele>
        <time>2021-06-26T15:08:05.000Z</time>
        <extensions>
          <ns3:TrackPointExtension>
            <ns3:atemp>25.0</ns3:atemp>
            <ns3:hr>95</ns3:hr>
          </ns3:TrackPointExtension>
        </extensions>
      </trkpt>
      <trkpt lat="36.80513572879135608673095703125" lon="-118.403015993535518646240234375">
        <ele>3209.199951171875</ele>
        <time>2021-06-26T15:08:07.000Z</time>
        <extensions>
          <ns3:TrackPointExtension>
            <ns3:atemp>25.0</ns3:atemp>
            <ns3:hr>91</ns3:hr>
          </ns3:TrackPointExtension>
        </extensions>
      </trkpt>
      <trkpt lat="36.8051492236554622650146484375" lon="-118.40304516255855560302734375">
        <ele>3209</ele>
        <time>2021-06-26T15:08:10.000Z</time>
        <extensions>
          <ns3:TrackPointExtension>
            <ns3:atemp>25.0</ns3:atemp>
            <ns3:hr>92</ns3:hr>
          </ns3:TrackPointExtension>
        </extensions>
      </trkpt>
      <trkpt lat="36.8051529116928577423095703125" lon="-118.40306083671748638153076171875">
        <ele>3209</ele>
        <time>2021-06-26T15:08:11.000Z</time>
        <extensions>
          <ns3:TrackPointExtension>
            <ns3:atemp>25.0</ns3:atemp>
            <ns3:hr>92</ns3:hr>
          </ns3:TrackPointExtension>
        </extensions>
      </trkpt>
      <trkpt lat="36.80515433661639690399169921875" lon="-118.40308313257992267608642578125">
        <ele>3209</ele>
        <time>2021-06-26T15:08:13.000Z</time>
        <extensions>
          <ns3:TrackPointExtension>
            <ns3:atemp>25.0</ns3:atemp>
            <ns3:hr>94</ns3:hr>
          </ns3:TrackPointExtension>
        </extensions>
      </trkpt>
      <trkpt lat="36.80514327250421047210693359375" lon="-118.40310660190880298614501953125">
        <ele>3209.199951171875</ele>
        <time>2021-06-26T15:08:15.000Z</time>
        <extensions>
          <ns3:TrackPointExtension>
            <ns3:atemp>25.0</ns3:atemp>
            <ns3:hr>92</ns3:hr>
          </ns3:TrackPointExtension>
        </extensions>
      </trkpt>
      <trkpt lat="36.8051237426698207855224609375" lon="-118.40313878841698169708251953125">
        <ele>3209.60009765625</ele>
        <time>2021-06-26T15:08:18.000Z</time>
        <extensions>
          <ns3:TrackPointExtension>
            <ns3:atemp>25.0</ns3:atemp>
            <ns3:hr>95</ns3:hr>
          </ns3:TrackPointExtension>
        </extensions>
      </trkpt>
      <trkpt lat="36.8051096610724925994873046875" lon="-118.4031754173338413238525390625">
        <ele>3209.60009765625</ele>
        <time>2021-06-26T15:08:21.000Z</time>
        <extensions>
          <ns3:TrackPointExtension>
            <ns3:atemp>25.0</ns3:atemp>
            <ns3:hr>94</ns3:hr>
          </ns3:TrackPointExtension>
        </extensions>
      </trkpt>
      <trkpt lat="36.80510723032057285308837890625" lon="-118.40318505652248859405517578125">
        <ele>3209.800048828125</ele>
        <time>2021-06-26T15:08:22.000Z</time>
        <extensions>
          <ns3:TrackPointExtension>
            <ns3:atemp>25.0</ns3:atemp>
            <ns3:hr>93</ns3:hr>
          </ns3:TrackPointExtension>
        </extensions>
      </trkpt>
      <trkpt lat="36.80510186590254306793212890625" lon="-118.4031911753118038177490234375">
        <ele>3209.800048828125</ele>
        <time>2021-06-26T15:08:23.000Z</time>
        <extensions>
          <ns3:TrackPointExtension>
            <ns3:atemp>25.0</ns3:atemp>
            <ns3:hr>93</ns3:hr>
          </ns3:TrackPointExtension>
        </extensions>
      </trkpt>
      <trkpt lat="36.80507361888885498046875" lon="-118.40320886112749576568603515625">
        <ele>3210.60009765625</ele>
        <time>2021-06-26T15:08:26.000Z</time>
        <extensions>
          <ns3:TrackPointExtension>
            <ns3:atemp>25.0</ns3:atemp>
            <ns3:hr>91</ns3:hr>
          </ns3:TrackPointExtension>
        </extensions>
      </trkpt>
      <trkpt lat="36.80506213568150997161865234375" lon="-118.4032136388123035430908203125">
        <ele>3210.800048828125</ele>
        <time>2021-06-26T15:08:28.000Z</time>
        <extensions>
          <ns3:TrackPointExtension>
            <ns3:atemp>25.0</ns3:atemp>
            <ns3:hr>94</ns3:hr>
          </ns3:TrackPointExtension>
        </extensions>
      </trkpt>
      <trkpt lat="36.805010922253131866455078125" lon="-118.403233587741851806640625">
        <ele>3211.39990234375</ele>
        <time>2021-06-26T15:08:34.000Z</time>
        <extensions>
          <ns3:TrackPointExtension>
            <ns3:atemp>25.0</ns3:atemp>
            <ns3:hr>97</ns3:hr>
          </ns3:TrackPointExtension>
        </extensions>
      </trkpt>
      <trkpt lat="36.80500346235930919647216796875" lon="-118.40323333628475666046142578125">
        <ele>3211.39990234375</ele>
        <time>2021-06-26T15:08:35.000Z</time>
        <extensions>
          <ns3:TrackPointExtension>
            <ns3:atemp>25.0</ns3:atemp>
            <ns3:hr>97</ns3:hr>
          </ns3:TrackPointExtension>
        </extensions>
      </trkpt>
      <trkpt lat="36.8049956671893596649169921875" lon="-118.40323157608509063720703125">
        <ele>3211.800048828125</ele>
        <time>2021-06-26T15:08:36.000Z</time>
        <extensions>
          <ns3:TrackPointExtension>
            <ns3:atemp>25.0</ns3:atemp>
            <ns3:hr>99</ns3:hr>
          </ns3:TrackPointExtension>
        </extensions>
      </trkpt>
      <trkpt lat="36.804955266416072845458984375" lon="-118.40323626995086669921875">
        <ele>3211.800048828125</ele>
        <time>2021-06-26T15:08:40.000Z</time>
        <extensions>
          <ns3:TrackPointExtension>
            <ns3:atemp>25.0</ns3:atemp>
            <ns3:hr>102</ns3:hr>
          </ns3:TrackPointExtension>
        </extensions>
      </trkpt>
      <trkpt lat="36.804939173161983489990234375" lon="-118.40324725024402141571044921875">
        <ele>3211.199951171875</ele>
        <time>2021-06-26T15:08:43.000Z</time>
        <extensions>
          <ns3:TrackPointExtension>
            <ns3:atemp>25.0</ns3:atemp>
            <ns3:hr>101</ns3:hr>
          </ns3:TrackPointExtension>
        </extensions>
      </trkpt>
      <trkpt lat="36.80493774823844432830810546875" lon="-118.40328915975987911224365234375">
        <ele>3211.199951171875</ele>
        <time>2021-06-26T15:08:51.000Z</time>
        <extensions>
          <ns3:TrackPointExtension>
            <ns3:atemp>25.0</ns3:atemp>
            <ns3:hr>101</ns3:hr>
          </ns3:TrackPointExtension>
        </extensions>
      </trkpt>
      <trkpt lat="36.80489801801741123199462890625" lon="-118.403376750648021697998046875">
        <ele>3211.800048828125</ele>
        <time>2021-06-26T15:09:00.000Z</time>
        <extensions>
          <ns3:TrackPointExtension>
            <ns3:atemp>25.0</ns3:atemp>
            <ns3:hr>100</ns3:hr>
          </ns3:TrackPointExtension>
        </extensions>
      </trkpt>
      <trkpt lat="36.804849989712238311767578125" lon="-118.4034050814807415008544921875">
        <ele>3212.800048828125</ele>
        <time>2021-06-26T15:09:06.000Z</time>
        <extensions>
          <ns3:TrackPointExtension>
            <ns3:atemp>25.0</ns3:atemp>
            <ns3:hr>100</ns3:hr>
          </ns3:TrackPointExtension>
        </extensions>
      </trkpt>
      <trkpt lat="36.8048152886331081390380859375" lon="-118.40341304428875446319580078125">
        <ele>3213.39990234375</ele>
        <time>2021-06-26T15:09:10.000Z</time>
        <extensions>
          <ns3:TrackPointExtension>
            <ns3:atemp>25.0</ns3:atemp>
            <ns3:hr>100</ns3:hr>
          </ns3:TrackPointExtension>
        </extensions>
      </trkpt>
      <trkpt lat="36.80474077351391315460205078125" lon="-118.40344774536788463592529296875">
        <ele>3211.800048828125</ele>
        <time>2021-06-26T15:09:18.000Z</time>
        <extensions>
          <ns3:TrackPointExtension>
            <ns3:atemp>25.0</ns3:atemp>
            <ns3:hr>99</ns3:hr>
          </ns3:TrackPointExtension>
        </extensions>
      </trkpt>
      <trkpt lat="36.804735995829105377197265625" lon="-118.403450511395931243896484375">
        <ele>3211.800048828125</ele>
        <time>2021-06-26T15:09:20.000Z</time>
        <extensions>
          <ns3:TrackPointExtension>
            <ns3:atemp>25.0</ns3:atemp>
            <ns3:hr>97</ns3:hr>
          </ns3:TrackPointExtension>
        </extensions>
      </trkpt>
      <trkpt lat="36.80473406799137592315673828125" lon="-118.4034422971308231353759765625">
        <ele>3212.60009765625</ele>
        <time>2021-06-26T15:09:25.000Z</time>
        <extensions>
          <ns3:TrackPointExtension>
            <ns3:atemp>25.0</ns3:atemp>
            <ns3:hr>95</ns3:hr>
          </ns3:TrackPointExtension>
        </extensions>
      </trkpt>
      <trkpt lat="36.8047049827873706817626953125" lon="-118.40345093049108982086181640625">
        <ele>3213.199951171875</ele>
        <time>2021-06-26T15:09:36.000Z</time>
        <extensions>
          <ns3:TrackPointExtension>
            <ns3:atemp>24.0</ns3:atemp>
            <ns3:hr>94</ns3:hr>
          </ns3:TrackPointExtension>
        </extensions>
      </trkpt>
      <trkpt lat="36.80465896613895893096923828125" lon="-118.40351614169776439666748046875">
        <ele>3213.39990234375</ele>
        <time>2021-06-26T15:09:42.000Z</time>
        <extensions>
          <ns3:TrackPointExtension>
            <ns3:atemp>24.0</ns3:atemp>
            <ns3:hr>89</ns3:hr>
          </ns3:TrackPointExtension>
        </extensions>
      </trkpt>
      <trkpt lat="36.8046483211219310760498046875" lon="-118.4035230986773967742919921875">
        <ele>3213.60009765625</ele>
        <time>2021-06-26T15:09:43.000Z</time>
        <extensions>
          <ns3:TrackPointExtension>
            <ns3:atemp>24.0</ns3:atemp>
            <ns3:hr>91</ns3:hr>
          </ns3:TrackPointExtension>
        </extensions>
      </trkpt>
      <trkpt lat="36.8046350777149200439453125" lon="-118.40353676117956638336181640625">
        <ele>3213.800048828125</ele>
        <time>2021-06-26T15:09:45.000Z</time>
        <extensions>
          <ns3:TrackPointExtension>
            <ns3:atemp>24.0</ns3:atemp>
            <ns3:hr>92</ns3:hr>
          </ns3:TrackPointExtension>
        </extensions>
      </trkpt>
      <trkpt lat="36.804630048573017120361328125" lon="-118.4035629965364933013916015625">
        <ele>3214</ele>
        <time>2021-06-26T15:09:48.000Z</time>
        <extensions>
          <ns3:TrackPointExtension>
            <ns3:atemp>24.0</ns3:atemp>
            <ns3:hr>92</ns3:hr>
          </ns3:TrackPointExtension>
        </extensions>
      </trkpt>
      <trkpt lat="36.8046439625322818756103515625" lon="-118.4035780839622020721435546875">
        <ele>3214.39990234375</ele>
        <time>2021-06-26T15:09:50.000Z</time>
        <extensions>
          <ns3:TrackPointExtension>
            <ns3:atemp>24.0</ns3:atemp>
            <ns3:hr>92</ns3:hr>
          </ns3:TrackPointExtension>
        </extensions>
      </trkpt>
      <trkpt lat="36.8046667613089084625244140625" lon="-118.40358420275151729583740234375">
        <ele>3214.800048828125</ele>
        <time>2021-06-26T15:09:52.000Z</time>
        <extensions>
          <ns3:TrackPointExtension>
            <ns3:atemp>24.0</ns3:atemp>
            <ns3:hr>93</ns3:hr>
          </ns3:TrackPointExtension>
        </extensions>
      </trkpt>
      <trkpt lat="36.8047150410711765289306640625" lon="-118.403579927980899810791015625">
        <ele>3215</ele>
        <time>2021-06-26T15:09:57.000Z</time>
        <extensions>
          <ns3:TrackPointExtension>
            <ns3:atemp>24.0</ns3:atemp>
            <ns3:hr>95</ns3:hr>
          </ns3:TrackPointExtension>
        </extensions>
      </trkpt>
      <trkpt lat="36.8047415278851985931396484375" lon="-118.40358336456120014190673828125">
        <ele>3215.60009765625</ele>
        <time>2021-06-26T15:10:00.000Z</time>
        <extensions>
          <ns3:TrackPointExtension>
            <ns3:atemp>24.0</ns3:atemp>
            <ns3:hr>96</ns3:hr>
          </ns3:TrackPointExtension>
        </extensions>
      </trkpt>
      <trkpt lat="36.80476658977568149566650390625" lon="-118.40359593741595745086669921875">
        <ele>3215.800048828125</ele>
        <time>2021-06-26T15:10:03.000Z</time>
        <extensions>
          <ns3:TrackPointExtension>
            <ns3:atemp>24.0</ns3:atemp>
            <ns3:hr>96</ns3:hr>
          </ns3:TrackPointExtension>
        </extensions>
      </trkpt>
      <trkpt lat="36.8047760613262653350830078125" lon="-118.403596021234989166259765625">
        <ele>3216</ele>
        <time>2021-06-26T15:10:04.000Z</time>
        <extensions>
          <ns3:TrackPointExtension>
            <ns3:atemp>24.0</ns3:atemp>
            <ns3:hr>95</ns3:hr>
          </ns3:TrackPointExtension>
        </extensions>
      </trkpt>
      <trkpt lat="36.80478268302977085113525390625" lon="-118.40359342284500598907470703125">
        <ele>3216.199951171875</ele>
        <time>2021-06-26T15:10:05.000Z</time>
        <extensions>
          <ns3:TrackPointExtension>
            <ns3:atemp>24.0</ns3:atemp>
            <ns3:hr>95</ns3:hr>
          </ns3:TrackPointExtension>
        </extensions>
      </trkpt>
      <trkpt lat="36.80480497889220714569091796875" lon="-118.40356810949742794036865234375">
        <ele>3216.60009765625</ele>
        <time>2021-06-26T15:10:15.000Z</time>
        <extensions>
          <ns3:TrackPointExtension>
            <ns3:atemp>25.0</ns3:atemp>
            <ns3:hr>95</ns3:hr>
          </ns3:TrackPointExtension>
        </extensions>
      </trkpt>
      <trkpt lat="36.80481101386249065399169921875" lon="-118.40355922468006610870361328125">
        <ele>3216.199951171875</ele>
        <time>2021-06-26T15:10:22.000Z</time>
        <extensions>
          <ns3:TrackPointExtension>
            <ns3:atemp>25.0</ns3:atemp>
            <ns3:hr>98</ns3:hr>
          </ns3:TrackPointExtension>
        </extensions>
      </trkpt>
      <trkpt lat="36.80481101386249065399169921875" lon="-118.40355922468006610870361328125">
        <ele>3216.199951171875</ele>
        <time>2021-06-26T15:10:30.000Z</time>
        <extensions>
          <ns3:TrackPointExtension>
            <ns3:atemp>25.0</ns3:atemp>
            <ns3:hr>98</ns3:hr>
          </ns3:TrackPointExtension>
        </extensions>
      </trkpt>
      <trkpt lat="36.80481285788118839263916015625" lon="-118.403565175831317901611328125">
        <ele>3216.199951171875</ele>
        <time>2021-06-26T15:10:40.000Z</time>
        <extensions>
          <ns3:TrackPointExtension>
            <ns3:atemp>25.0</ns3:atemp>
            <ns3:hr>95</ns3:hr>
          </ns3:TrackPointExtension>
        </extensions>
      </trkpt>
      <trkpt lat="36.8048273585736751556396484375" lon="-118.403567187488079071044921875">
        <ele>3216</ele>
        <time>2021-06-26T15:10:52.000Z</time>
        <extensions>
          <ns3:TrackPointExtension>
            <ns3:atemp>25.0</ns3:atemp>
            <ns3:hr>96</ns3:hr>
          </ns3:TrackPointExtension>
        </extensions>
      </trkpt>
      <trkpt lat="36.80488879792392253875732421875" lon="-118.40355620719492435455322265625">
        <ele>3215.39990234375</ele>
        <time>2021-06-26T15:10:57.000Z</time>
        <extensions>
          <ns3:TrackPointExtension>
            <ns3:atemp>25.0</ns3:atemp>
            <ns3:hr>99</ns3:hr>
          </ns3:TrackPointExtension>
        </extensions>
      </trkpt>
      <trkpt lat="36.80490572936832904815673828125" lon="-118.40355955995619297027587890625">
        <ele>3215.39990234375</ele>
        <time>2021-06-26T15:10:58.000Z</time>
        <extensions>
          <ns3:TrackPointExtension>
            <ns3:atemp>25.0</ns3:atemp>
            <ns3:hr>98</ns3:hr>
          </ns3:TrackPointExtension>
        </extensions>
      </trkpt>
      <trkpt lat="36.80494160391390323638916015625" lon="-118.40357548557221889495849609375">
        <ele>3215</ele>
        <time>2021-06-26T15:11:02.000Z</time>
        <extensions>
          <ns3:TrackPointExtension>
            <ns3:atemp>25.0</ns3:atemp>
            <ns3:hr>97</ns3:hr>
          </ns3:TrackPointExtension>
        </extensions>
      </trkpt>
      <trkpt lat="36.80497043766081333160400390625" lon="-118.40359509922564029693603515625">
        <ele>3215</ele>
        <time>2021-06-26T15:11:05.000Z</time>
        <extensions>
          <ns3:TrackPointExtension>
            <ns3:atemp>25.0</ns3:atemp>
            <ns3:hr>97</ns3:hr>
          </ns3:TrackPointExtension>
        </extensions>
      </trkpt>
      <trkpt lat="36.80503246374428272247314453125" lon="-118.403616808354854583740234375">
        <ele>3215.39990234375</ele>
        <time>2021-06-26T15:11:11.000Z</time>
        <extensions>
          <ns3:TrackPointExtension>
            <ns3:atemp>25.0</ns3:atemp>
            <ns3:hr>94</ns3:hr>
          </ns3:TrackPointExtension>
        </extensions>
      </trkpt>
      <trkpt lat="36.8050600402057170867919921875" lon="-118.40361638925969600677490234375">
        <ele>3215.39990234375</ele>
        <time>2021-06-26T15:11:13.000Z</time>
        <extensions>
          <ns3:TrackPointExtension>
            <ns3:atemp>25.0</ns3:atemp>
            <ns3:hr>93</ns3:hr>
          </ns3:TrackPointExtension>
        </extensions>
      </trkpt>
      <trkpt lat="36.8050964176654815673828125" lon="-118.403625525534152984619140625">
        <ele>3215</ele>
        <time>2021-06-26T15:11:16.000Z</time>
        <extensions>
          <ns3:TrackPointExtension>
            <ns3:atemp>26.0</ns3:atemp>
            <ns3:hr>90</ns3:hr>
          </ns3:TrackPointExtension>
        </extensions>
      </trkpt>
      <trkpt lat="36.8051421828567981719970703125" lon="-118.40363047085702419281005859375">
        <ele>3214.800048828125</ele>
        <time>2021-06-26T15:11:20.000Z</time>
        <extensions>
          <ns3:TrackPointExtension>
            <ns3:atemp>26.0</ns3:atemp>
            <ns3:hr>88</ns3:hr>
          </ns3:TrackPointExtension>
        </extensions>
      </trkpt>
      <trkpt lat="36.8051576055586338043212890625" lon="-118.40365310199558734893798828125">
        <ele>3214.800048828125</ele>
        <time>2021-06-26T15:11:23.000Z</time>
        <extensions>
          <ns3:TrackPointExtension>
            <ns3:atemp>26.0</ns3:atemp>
            <ns3:hr>86</ns3:hr>
          </ns3:TrackPointExtension>
        </extensions>
      </trkpt>
      <trkpt lat="36.8051710166037082672119140625" lon="-118.4036796726286411285400390625">
        <ele>3215.39990234375</ele>
        <time>2021-06-26T15:11:26.000Z</time>
        <extensions>
          <ns3:TrackPointExtension>
            <ns3:atemp>26.0</ns3:atemp>
            <ns3:hr>87</ns3:hr>
          </ns3:TrackPointExtension>
        </extensions>
      </trkpt>
      <trkpt lat="36.80518903769552707672119140625" lon="-118.4036907367408275604248046875">
        <ele>3215.60009765625</ele>
        <time>2021-06-26T15:11:28.000Z</time>
        <extensions>
          <ns3:TrackPointExtension>
            <ns3:atemp>26.0</ns3:atemp>
            <ns3:hr>85</ns3:hr>
          </ns3:TrackPointExtension>
        </extensions>
      </trkpt>
      <trkpt lat="36.80519641377031803131103515625" lon="-118.40369568206369876861572265625">
        <ele>3215.800048828125</ele>
        <time>2021-06-26T15:11:29.000Z</time>
        <extensions>
          <ns3:TrackPointExtension>
            <ns3:atemp>26.0</ns3:atemp>
            <ns3:hr>85</ns3:hr>
          </ns3:TrackPointExtension>
        </extensions>
      </trkpt>
      <trkpt lat="36.8052347190678119659423828125" lon="-118.40371462516486644744873046875">
        <ele>3216.39990234375</ele>
        <time>2021-06-26T15:11:34.000Z</time>
        <extensions>
          <ns3:TrackPointExtension>
            <ns3:atemp>26.0</ns3:atemp>
            <ns3:hr>86</ns3:hr>
          </ns3:TrackPointExtension>
        </extensions>
      </trkpt>
      <trkpt lat="36.80523161776363849639892578125" lon="-118.40375368483364582061767578125">
        <ele>3216.60009765625</ele>
        <time>2021-06-26T15:11:38.000Z</time>
        <extensions>
          <ns3:TrackPointExtension>
            <ns3:atemp>26.0</ns3:atemp>
            <ns3:hr>89</ns3:hr>
          </ns3:TrackPointExtension>
        </extensions>
      </trkpt>
      <trkpt lat="36.8052209727466106414794921875" lon="-118.40376122854650020599365234375">
        <ele>3216.60009765625</ele>
        <time>2021-06-26T15:11:40.000Z</time>
        <extensions>
          <ns3:TrackPointExtension>
            <ns3:atemp>26.0</ns3:atemp>
            <ns3:hr>90</ns3:hr>
          </ns3:TrackPointExtension>
        </extensions>
      </trkpt>
      <trkpt lat="36.80521016009151935577392578125" lon="-118.40377380140125751495361328125">
        <ele>3217</ele>
        <time>2021-06-26T15:11:42.000Z</time>
        <extensions>
          <ns3:TrackPointExtension>
            <ns3:atemp>26.0</ns3:atemp>
            <ns3:hr>91</ns3:hr>
          </ns3:TrackPointExtension>
        </extensions>
      </trkpt>
      <trkpt lat="36.8052052147686481475830078125" lon="-118.40378201566636562347412109375">
        <ele>3217.199951171875</ele>
        <time>2021-06-26T15:11:43.000Z</time>
        <extensions>
          <ns3:TrackPointExtension>
            <ns3:atemp>26.0</ns3:atemp>
            <ns3:hr>91</ns3:hr>
          </ns3:TrackPointExtension>
        </extensions>
      </trkpt>
      <trkpt lat="36.80519096553325653076171875" lon="-118.40379643253982067108154296875">
        <ele>3217.60009765625</ele>
        <time>2021-06-26T15:11:45.000Z</time>
        <extensions>
          <ns3:TrackPointExtension>
            <ns3:atemp>26.0</ns3:atemp>
            <ns3:hr>91</ns3:hr>
          </ns3:TrackPointExtension>
        </extensions>
      </trkpt>
      <trkpt lat="36.80518426001071929931640625" lon="-118.40380582027137279510498046875">
        <ele>3218.199951171875</ele>
        <time>2021-06-26T15:11:46.000Z</time>
        <extensions>
          <ns3:TrackPointExtension>
            <ns3:atemp>26.0</ns3:atemp>
            <ns3:hr>94</ns3:hr>
          </ns3:TrackPointExtension>
        </extensions>
      </trkpt>
      <trkpt lat="36.8051669932901859283447265625" lon="-118.40383708477020263671875">
        <ele>3218.60009765625</ele>
        <time>2021-06-26T15:11:50.000Z</time>
        <extensions>
          <ns3:TrackPointExtension>
            <ns3:atemp>26.0</ns3:atemp>
            <ns3:hr>95</ns3:hr>
          </ns3:TrackPointExtension>
        </extensions>
      </trkpt>
      <trkpt lat="36.805146038532257080078125" lon="-118.403864912688732147216796875">
        <ele>3218.800048828125</ele>
        <time>2021-06-26T15:11:53.000Z</time>
        <extensions>
          <ns3:TrackPointExtension>
            <ns3:atemp>26.0</ns3:atemp>
            <ns3:hr>98</ns3:hr>
          </ns3:TrackPointExtension>
        </extensions>
      </trkpt>
      <trkpt lat="36.80512399412691593170166015625" lon="-118.40387740172445774078369140625">
        <ele>3219.199951171875</ele>
        <time>2021-06-26T15:11:56.000Z</time>
        <extensions>
          <ns3:TrackPointExtension>
            <ns3:atemp>26.0</ns3:atemp>
            <ns3:hr>101</ns3:hr>
          </ns3:TrackPointExtension>
        </extensions>
      </trkpt>
      <trkpt lat="36.80511862970888614654541015625" lon="-118.4038865379989147186279296875">
        <ele>3219.199951171875</ele>
        <time>2021-06-26T15:11:57.000Z</time>
        <extensions>
          <ns3:TrackPointExtension>
            <ns3:atemp>26.0</ns3:atemp>
            <ns3:hr>101</ns3:hr>
          </ns3:TrackPointExtension>
        </extensions>
      </trkpt>
      <trkpt lat="36.80513656698167324066162109375" lon="-118.40394328348338603973388671875">
        <ele>3220</ele>
        <time>2021-06-26T15:12:03.000Z</time>
        <extensions>
          <ns3:TrackPointExtension>
            <ns3:atemp>26.0</ns3:atemp>
            <ns3:hr>100</ns3:hr>
          </ns3:TrackPointExtension>
        </extensions>
      </trkpt>
      <trkpt lat="36.8051448650658130645751953125" lon="-118.40396524406969547271728515625">
        <ele>3220.60009765625</ele>
        <time>2021-06-26T15:12:06.000Z</time>
        <extensions>
          <ns3:TrackPointExtension>
            <ns3:atemp>25.0</ns3:atemp>
            <ns3:hr>102</ns3:hr>
          </ns3:TrackPointExtension>
        </extensions>
      </trkpt>
      <trkpt lat="36.80513690225780010223388671875" lon="-118.40397530235350131988525390625">
        <ele>3220.800048828125</ele>
        <time>2021-06-26T15:12:08.000Z</time>
        <extensions>
          <ns3:TrackPointExtension>
            <ns3:atemp>25.0</ns3:atemp>
            <ns3:hr>102</ns3:hr>
          </ns3:TrackPointExtension>
        </extensions>
      </trkpt>
      <trkpt lat="36.8051257543265819549560546875" lon="-118.4039914794266223907470703125">
        <ele>3221.199951171875</ele>
        <time>2021-06-26T15:12:10.000Z</time>
        <extensions>
          <ns3:TrackPointExtension>
            <ns3:atemp>25.0</ns3:atemp>
            <ns3:hr>104</ns3:hr>
          </ns3:TrackPointExtension>
        </extensions>
      </trkpt>
      <trkpt lat="36.80511184036731719970703125" lon="-118.40399877168238162994384765625">
        <ele>3221.60009765625</ele>
        <time>2021-06-26T15:12:13.000Z</time>
        <extensions>
          <ns3:TrackPointExtension>
            <ns3:atemp>25.0</ns3:atemp>
            <ns3:hr>102</ns3:hr>
          </ns3:TrackPointExtension>
        </extensions>
      </trkpt>
      <trkpt lat="36.80508510209619998931884765625" lon="-118.40399868786334991455078125">
        <ele>3222.199951171875</ele>
        <time>2021-06-26T15:12:16.000Z</time>
        <extensions>
          <ns3:TrackPointExtension>
            <ns3:atemp>25.0</ns3:atemp>
            <ns3:hr>103</ns3:hr>
          </ns3:TrackPointExtension>
        </extensions>
      </trkpt>
      <trkpt lat="36.80504838936030864715576171875" lon="-118.40400665067136287689208984375">
        <ele>3222.800048828125</ele>
        <time>2021-06-26T15:12:21.000Z</time>
        <extensions>
          <ns3:TrackPointExtension>
            <ns3:atemp>25.0</ns3:atemp>
            <ns3:hr>103</ns3:hr>
          </ns3:TrackPointExtension>
        </extensions>
      </trkpt>
      <trkpt lat="36.805037073791027069091796875" lon="-118.40400346554815769195556640625">
        <ele>3223.39990234375</ele>
        <time>2021-06-26T15:12:22.000Z</time>
        <extensions>
          <ns3:TrackPointExtension>
            <ns3:atemp>25.0</ns3:atemp>
            <ns3:hr>103</ns3:hr>
          </ns3:TrackPointExtension>
        </extensions>
      </trkpt>
      <trkpt lat="36.805008240044116973876953125" lon="-118.4040099196135997772216796875">
        <ele>3223.60009765625</ele>
        <time>2021-06-26T15:12:25.000Z</time>
        <extensions>
          <ns3:TrackPointExtension>
            <ns3:atemp>25.0</ns3:atemp>
            <ns3:hr>103</ns3:hr>
          </ns3:TrackPointExtension>
        </extensions>
      </trkpt>
      <trkpt lat="36.8049939908087253570556640625" lon="-118.4040129370987415313720703125">
        <ele>3223.800048828125</ele>
        <time>2021-06-26T15:12:27.000Z</time>
        <extensions>
          <ns3:TrackPointExtension>
            <ns3:atemp>25.0</ns3:atemp>
            <ns3:hr>104</ns3:hr>
          </ns3:TrackPointExtension>
        </extensions>
      </trkpt>
      <trkpt lat="36.80497496388852596282958984375" lon="-118.40401737950742244720458984375">
        <ele>3223.800048828125</ele>
        <time>2021-06-26T15:12:29.000Z</time>
        <extensions>
          <ns3:TrackPointExtension>
            <ns3:atemp>25.0</ns3:atemp>
            <ns3:hr>107</ns3:hr>
          </ns3:TrackPointExtension>
        </extensions>
      </trkpt>
      <trkpt lat="36.8049574457108974456787109375" lon="-118.40401612222194671630859375">
        <ele>3224.199951171875</ele>
        <time>2021-06-26T15:12:31.000Z</time>
        <extensions>
          <ns3:TrackPointExtension>
            <ns3:atemp>25.0</ns3:atemp>
            <ns3:hr>110</ns3:hr>
          </ns3:TrackPointExtension>
        </extensions>
      </trkpt>
      <trkpt lat="36.80493959225714206695556640625" lon="-118.40401268564164638519287109375">
        <ele>3224.39990234375</ele>
        <time>2021-06-26T15:12:33.000Z</time>
        <extensions>
          <ns3:TrackPointExtension>
            <ns3:atemp>25.0</ns3:atemp>
            <ns3:hr>113</ns3:hr>
          </ns3:TrackPointExtension>
        </extensions>
      </trkpt>
      <trkpt lat="36.80491738021373748779296875" lon="-118.4040038846433162689208984375">
        <ele>3224.39990234375</ele>
        <time>2021-06-26T15:12:35.000Z</time>
        <extensions>
          <ns3:TrackPointExtension>
            <ns3:atemp>25.0</ns3:atemp>
            <ns3:hr>114</ns3:hr>
          </ns3:TrackPointExtension>
        </extensions>
      </trkpt>
      <trkpt lat="36.804858036339282989501953125" lon="-118.40399608947336673736572265625">
        <ele>3222.199951171875</ele>
        <time>2021-06-26T15:12:41.000Z</time>
        <extensions>
          <ns3:TrackPointExtension>
            <ns3:atemp>25.0</ns3:atemp>
            <ns3:hr>115</ns3:hr>
          </ns3:TrackPointExtension>
        </extensions>
      </trkpt>
      <trkpt lat="36.80482861585915088653564453125" lon="-118.4040042199194431304931640625">
        <ele>3222.199951171875</ele>
        <time>2021-06-26T15:12:44.000Z</time>
        <extensions>
          <ns3:TrackPointExtension>
            <ns3:atemp>25.0</ns3:atemp>
            <ns3:hr>115</ns3:hr>
          </ns3:TrackPointExtension>
        </extensions>
      </trkpt>
      <trkpt lat="36.80480380542576313018798828125" lon="-118.40401788242161273956298828125">
        <ele>3223.199951171875</ele>
        <time>2021-06-26T15:12:47.000Z</time>
        <extensions>
          <ns3:TrackPointExtension>
            <ns3:atemp>25.0</ns3:atemp>
            <ns3:hr>114</ns3:hr>
          </ns3:TrackPointExtension>
        </extensions>
      </trkpt>
      <trkpt lat="36.804808080196380615234375" lon="-118.40403095819056034088134765625">
        <ele>3223.800048828125</ele>
        <time>2021-06-26T15:12:49.000Z</time>
        <extensions>
          <ns3:TrackPointExtension>
            <ns3:atemp>25.0</ns3:atemp>
            <ns3:hr>112</ns3:hr>
          </ns3:TrackPointExtension>
        </extensions>
      </trkpt>
      <trkpt lat="36.804818809032440185546875" lon="-118.40403917245566844940185546875">
        <ele>3224</ele>
        <time>2021-06-26T15:12:51.000Z</time>
        <extensions>
          <ns3:TrackPointExtension>
            <ns3:atemp>25.0</ns3:atemp>
            <ns3:hr>110</ns3:hr>
          </ns3:TrackPointExtension>
        </extensions>
      </trkpt>
      <trkpt lat="36.8048300407826900482177734375" lon="-118.40404830873012542724609375">
        <ele>3224.199951171875</ele>
        <time>2021-06-26T15:12:53.000Z</time>
        <extensions>
          <ns3:TrackPointExtension>
            <ns3:atemp>25.0</ns3:atemp>
            <ns3:hr>109</ns3:hr>
          </ns3:TrackPointExtension>
        </extensions>
      </trkpt>
      <trkpt lat="36.80483347736299037933349609375" lon="-118.404055349528789520263671875">
        <ele>3224.800048828125</ele>
        <time>2021-06-26T15:12:54.000Z</time>
        <extensions>
          <ns3:TrackPointExtension>
            <ns3:atemp>25.0</ns3:atemp>
            <ns3:hr>109</ns3:hr>
          </ns3:TrackPointExtension>
        </extensions>
      </trkpt>
      <trkpt lat="36.80483515374362468719482421875" lon="-118.4040615521371364593505859375">
        <ele>3225</ele>
        <time>2021-06-26T15:12:55.000Z</time>
        <extensions>
          <ns3:TrackPointExtension>
            <ns3:atemp>25.0</ns3:atemp>
            <ns3:hr>109</ns3:hr>
          </ns3:TrackPointExtension>
        </extensions>
      </trkpt>
      <trkpt lat="36.80482484400272369384765625" lon="-118.40407236479222774505615234375">
        <ele>3225.800048828125</ele>
        <time>2021-06-26T15:12:58.000Z</time>
        <extensions>
          <ns3:TrackPointExtension>
            <ns3:atemp>25.0</ns3:atemp>
            <ns3:hr>105</ns3:hr>
          </ns3:TrackPointExtension>
        </extensions>
      </trkpt>
      <trkpt lat="36.80482140742242336273193359375" lon="-118.404080159962177276611328125">
        <ele>3226</ele>
        <time>2021-06-26T15:12:59.000Z</time>
        <extensions>
          <ns3:TrackPointExtension>
            <ns3:atemp>25.0</ns3:atemp>
            <ns3:hr>104</ns3:hr>
          </ns3:TrackPointExtension>
        </extensions>
      </trkpt>
      <trkpt lat="36.80480548180639743804931640625" lon="-118.40408309362828731536865234375">
        <ele>3226.199951171875</ele>
        <time>2021-06-26T15:13:01.000Z</time>
        <extensions>
          <ns3:TrackPointExtension>
            <ns3:atemp>25.0</ns3:atemp>
            <ns3:hr>104</ns3:hr>
          </ns3:TrackPointExtension>
        </extensions>
      </trkpt>
      <trkpt lat="36.8047609739005565643310546875" lon="-118.40410388074815273284912109375">
        <ele>3227.39990234375</ele>
        <time>2021-06-26T15:13:08.000Z</time>
        <extensions>
          <ns3:TrackPointExtension>
            <ns3:atemp>25.0</ns3:atemp>
            <ns3:hr>105</ns3:hr>
          </ns3:TrackPointExtension>
        </extensions>
      </trkpt>
      <trkpt lat="36.804742030799388885498046875" lon="-118.404102623462677001953125">
        <ele>3227.800048828125</ele>
        <time>2021-06-26T15:13:11.000Z</time>
        <extensions>
          <ns3:TrackPointExtension>
            <ns3:atemp>25.0</ns3:atemp>
            <ns3:hr>107</ns3:hr>
          </ns3:TrackPointExtension>
        </extensions>
      </trkpt>
      <trkpt lat="36.804746724665164947509765625" lon="-118.40413740836083889007568359375">
        <ele>3228.39990234375</ele>
        <time>2021-06-26T15:13:16.000Z</time>
        <extensions>
          <ns3:TrackPointExtension>
            <ns3:atemp>25.0</ns3:atemp>
            <ns3:hr>109</ns3:hr>
          </ns3:TrackPointExtension>
        </extensions>
      </trkpt>
      <trkpt lat="36.8047532625496387481689453125" lon="-118.4041423536837100982666015625">
        <ele>3228.800048828125</ele>
        <time>2021-06-26T15:13:17.000Z</time>
        <extensions>
          <ns3:TrackPointExtension>
            <ns3:atemp>25.0</ns3:atemp>
            <ns3:hr>109</ns3:hr>
          </ns3:TrackPointExtension>
        </extensions>
      </trkpt>
      <trkpt lat="36.80476994253695011138916015625" lon="-118.40418376028537750244140625">
        <ele>3229</ele>
        <time>2021-06-26T15:13:24.000Z</time>
        <extensions>
          <ns3:TrackPointExtension>
            <ns3:atemp>26.0</ns3:atemp>
            <ns3:hr>110</ns3:hr>
          </ns3:TrackPointExtension>
        </extensions>
      </trkpt>
      <trkpt lat="36.8047361634671688079833984375" lon="-118.40421921573579311370849609375">
        <ele>3229.800048828125</ele>
        <time>2021-06-26T15:13:30.000Z</time>
        <extensions>
          <ns3:TrackPointExtension>
            <ns3:atemp>26.0</ns3:atemp>
            <ns3:hr>112</ns3:hr>
          </ns3:TrackPointExtension>
        </extensions>
      </trkpt>
      <trkpt lat="36.804741360247135162353515625" lon="-118.4042345546185970306396484375">
        <ele>3230</ele>
        <time>2021-06-26T15:13:31.000Z</time>
        <extensions>
          <ns3:TrackPointExtension>
            <ns3:atemp>26.0</ns3:atemp>
            <ns3:hr>111</ns3:hr>
          </ns3:TrackPointExtension>
        </extensions>
      </trkpt>
      <trkpt lat="36.8047599680721759796142578125" lon="-118.4042469598352909088134765625">
        <ele>3231</ele>
        <time>2021-06-26T15:13:33.000Z</time>
        <extensions>
          <ns3:TrackPointExtension>
            <ns3:atemp>26.0</ns3:atemp>
            <ns3:hr>110</ns3:hr>
          </ns3:TrackPointExtension>
        </extensions>
      </trkpt>
      <trkpt lat="36.80477916263043880462646484375" lon="-118.404261879622936248779296875">
        <ele>3231.199951171875</ele>
        <time>2021-06-26T15:13:37.000Z</time>
        <extensions>
          <ns3:TrackPointExtension>
            <ns3:atemp>26.0</ns3:atemp>
            <ns3:hr>108</ns3:hr>
          </ns3:TrackPointExtension>
        </extensions>
      </trkpt>
      <trkpt lat="36.8047871254384517669677734375" lon="-118.40427252463996410369873046875">
        <ele>3231.60009765625</ele>
        <time>2021-06-26T15:13:39.000Z</time>
        <extensions>
          <ns3:TrackPointExtension>
            <ns3:atemp>26.0</ns3:atemp>
            <ns3:hr>112</ns3:hr>
          </ns3:TrackPointExtension>
        </extensions>
      </trkpt>
      <trkpt lat="36.8047924898564815521240234375" lon="-118.40427227318286895751953125">
        <ele>3232</ele>
        <time>2021-06-26T15:13:40.000Z</time>
        <extensions>
          <ns3:TrackPointExtension>
            <ns3:atemp>26.0</ns3:atemp>
            <ns3:hr>114</ns3:hr>
          </ns3:TrackPointExtension>
        </extensions>
      </trkpt>
      <trkpt lat="36.80482643656432628631591796875" lon="-118.4042737819254398345947265625">
        <ele>3232.39990234375</ele>
        <time>2021-06-26T15:13:44.000Z</time>
        <extensions>
          <ns3:TrackPointExtension>
            <ns3:atemp>26.0</ns3:atemp>
            <ns3:hr>115</ns3:hr>
          </ns3:TrackPointExtension>
        </extensions>
      </trkpt>
      <trkpt lat="36.80484856478869915008544921875" lon="-118.40428057126700878143310546875">
        <ele>3233.199951171875</ele>
        <time>2021-06-26T15:13:47.000Z</time>
        <extensions>
          <ns3:TrackPointExtension>
            <ns3:atemp>26.0</ns3:atemp>
            <ns3:hr>116</ns3:hr>
          </ns3:TrackPointExtension>
        </extensions>
      </trkpt>
      <trkpt lat="36.8048400990664958953857421875" lon="-118.40429750271141529083251953125">
        <ele>3233.60009765625</ele>
        <time>2021-06-26T15:13:51.000Z</time>
        <extensions>
          <ns3:TrackPointExtension>
            <ns3:atemp>26.0</ns3:atemp>
            <ns3:hr>116</ns3:hr>
          </ns3:TrackPointExtension>
        </extensions>
      </trkpt>
      <trkpt lat="36.80480900220572948455810546875" lon="-118.40431384742259979248046875">
        <ele>3234.60009765625</ele>
        <time>2021-06-26T15:13:56.000Z</time>
        <extensions>
          <ns3:TrackPointExtension>
            <ns3:atemp>26.0</ns3:atemp>
            <ns3:hr>117</ns3:hr>
          </ns3:TrackPointExtension>
        </extensions>
      </trkpt>
      <trkpt lat="36.8047700263559818267822265625" lon="-118.4043482132256031036376953125">
        <ele>3235.199951171875</ele>
        <time>2021-06-26T15:14:02.000Z</time>
        <extensions>
          <ns3:TrackPointExtension>
            <ns3:atemp>26.0</ns3:atemp>
            <ns3:hr>118</ns3:hr>
          </ns3:TrackPointExtension>
        </extensions>
      </trkpt>
      <trkpt lat="36.80475921370089054107666015625" lon="-118.40435667894780635833740234375">
        <ele>3235.60009765625</ele>
        <time>2021-06-26T15:14:04.000Z</time>
        <extensions>
          <ns3:TrackPointExtension>
            <ns3:atemp>26.0</ns3:atemp>
            <ns3:hr>117</ns3:hr>
          </ns3:TrackPointExtension>
        </extensions>
      </trkpt>
      <trkpt lat="36.804726608097553253173828125" lon="-118.40438215993344783782958984375">
        <ele>3235.800048828125</ele>
        <time>2021-06-26T15:14:09.000Z</time>
        <extensions>
          <ns3:TrackPointExtension>
            <ns3:atemp>26.0</ns3:atemp>
            <ns3:hr>114</ns3:hr>
          </ns3:TrackPointExtension>
        </extensions>
      </trkpt>
      <trkpt lat="36.8046979419887065887451171875" lon="-118.40439892373979091644287109375">
        <ele>3236.60009765625</ele>
        <time>2021-06-26T15:14:13.000Z</time>
        <extensions>
          <ns3:TrackPointExtension>
            <ns3:atemp>26.0</ns3:atemp>
            <ns3:hr>110</ns3:hr>
          </ns3:TrackPointExtension>
        </extensions>
      </trkpt>
      <trkpt lat="36.80468779988586902618408203125" lon="-118.404413759708404541015625">
        <ele>3237</ele>
        <time>2021-06-26T15:14:15.000Z</time>
        <extensions>
          <ns3:TrackPointExtension>
            <ns3:atemp>26.0</ns3:atemp>
            <ns3:hr>108</ns3:hr>
          </ns3:TrackPointExtension>
        </extensions>
      </trkpt>
      <trkpt lat="36.80467732250690460205078125" lon="-118.40444200672209262847900390625">
        <ele>3237.800048828125</ele>
        <time>2021-06-26T15:14:18.000Z</time>
        <extensions>
          <ns3:TrackPointExtension>
            <ns3:atemp>26.0</ns3:atemp>
            <ns3:hr>111</ns3:hr>
          </ns3:TrackPointExtension>
        </extensions>
      </trkpt>
      <trkpt lat="36.80466650985181331634521484375" lon="-118.40445457957684993743896484375">
        <ele>3237.800048828125</ele>
        <time>2021-06-26T15:14:20.000Z</time>
        <extensions>
          <ns3:TrackPointExtension>
            <ns3:atemp>26.0</ns3:atemp>
            <ns3:hr>108</ns3:hr>
          </ns3:TrackPointExtension>
        </extensions>
      </trkpt>
      <trkpt lat="36.8046573735773563385009765625" lon="-118.40447335503995418548583984375">
        <ele>3238.199951171875</ele>
        <time>2021-06-26T15:14:23.000Z</time>
        <extensions>
          <ns3:TrackPointExtension>
            <ns3:atemp>26.0</ns3:atemp>
            <ns3:hr>105</ns3:hr>
          </ns3:TrackPointExtension>
        </extensions>
      </trkpt>
      <trkpt lat="36.80464471690356731414794921875" lon="-118.40449145995080471038818359375">
        <ele>3239</ele>
        <time>2021-06-26T15:14:26.000Z</time>
        <extensions>
          <ns3:TrackPointExtension>
            <ns3:atemp>26.0</ns3:atemp>
            <ns3:hr>106</ns3:hr>
          </ns3:TrackPointExtension>
        </extensions>
      </trkpt>
      <trkpt lat="36.80462728254497051239013671875" lon="-118.40451124124228954315185546875">
        <ele>3239.60009765625</ele>
        <time>2021-06-26T15:14:30.000Z</time>
        <extensions>
          <ns3:TrackPointExtension>
            <ns3:atemp>26.0</ns3:atemp>
            <ns3:hr>109</ns3:hr>
          </ns3:TrackPointExtension>
        </extensions>
      </trkpt>
      <trkpt lat="36.80462024174630641937255859375" lon="-118.404528088867664337158203125">
        <ele>3240</ele>
        <time>2021-06-26T15:14:32.000Z</time>
        <extensions>
          <ns3:TrackPointExtension>
            <ns3:atemp>26.0</ns3:atemp>
            <ns3:hr>111</ns3:hr>
          </ns3:TrackPointExtension>
        </extensions>
      </trkpt>
      <trkpt lat="36.80462728254497051239013671875" lon="-118.40454527176916599273681640625">
        <ele>3240.199951171875</ele>
        <time>2021-06-26T15:14:34.000Z</time>
        <extensions>
          <ns3:TrackPointExtension>
            <ns3:atemp>26.0</ns3:atemp>
            <ns3:hr>114</ns3:hr>
          </ns3:TrackPointExtension>
        </extensions>
      </trkpt>
      <trkpt lat="36.8046345748007297515869140625" lon="-118.40454879216849803924560546875">
        <ele>3240.39990234375</ele>
        <time>2021-06-26T15:14:35.000Z</time>
        <extensions>
          <ns3:TrackPointExtension>
            <ns3:atemp>26.0</ns3:atemp>
            <ns3:hr>118</ns3:hr>
          </ns3:TrackPointExtension>
        </extensions>
      </trkpt>
      <trkpt lat="36.804657541215419769287109375" lon="-118.40455097146332263946533203125">
        <ele>3240.800048828125</ele>
        <time>2021-06-26T15:14:38.000Z</time>
        <extensions>
          <ns3:TrackPointExtension>
            <ns3:atemp>26.0</ns3:atemp>
            <ns3:hr>118</ns3:hr>
          </ns3:TrackPointExtension>
        </extensions>
      </trkpt>
      <trkpt lat="36.80467455647885799407958984375" lon="-118.404553234577178955078125">
        <ele>3241.199951171875</ele>
        <time>2021-06-26T15:14:40.000Z</time>
        <extensions>
          <ns3:TrackPointExtension>
            <ns3:atemp>26.0</ns3:atemp>
            <ns3:hr>120</ns3:hr>
          </ns3:TrackPointExtension>
        </extensions>
      </trkpt>
      <trkpt lat="36.80469467304646968841552734375" lon="-118.404553569853305816650390625">
        <ele>3242.199951171875</ele>
        <time>2021-06-26T15:14:43.000Z</time>
        <extensions>
          <ns3:TrackPointExtension>
            <ns3:atemp>26.0</ns3:atemp>
            <ns3:hr>123</ns3:hr>
          </ns3:TrackPointExtension>
        </extensions>
      </trkpt>
      <trkpt lat="36.8047354929149150848388671875" lon="-118.4045597724616527557373046875">
        <ele>3243.39990234375</ele>
        <time>2021-06-26T15:14:48.000Z</time>
        <extensions>
          <ns3:TrackPointExtension>
            <ns3:atemp>26.0</ns3:atemp>
            <ns3:hr>124</ns3:hr>
          </ns3:TrackPointExtension>
        </extensions>
      </trkpt>
      <trkpt lat="36.80475887842476367950439453125" lon="-118.404559604823589324951171875">
        <ele>3243.60009765625</ele>
        <time>2021-06-26T15:14:50.000Z</time>
        <extensions>
          <ns3:TrackPointExtension>
            <ns3:atemp>26.0</ns3:atemp>
            <ns3:hr>125</ns3:hr>
          </ns3:TrackPointExtension>
        </extensions>
      </trkpt>
      <trkpt lat="36.80478771217167377471923828125" lon="-118.4045505523681640625">
        <ele>3243.60009765625</ele>
        <time>2021-06-26T15:14:53.000Z</time>
        <extensions>
          <ns3:TrackPointExtension>
            <ns3:atemp>26.0</ns3:atemp>
            <ns3:hr>125</ns3:hr>
          </ns3:TrackPointExtension>
        </extensions>
      </trkpt>
      <trkpt lat="36.80479743517935276031494140625" lon="-118.4045456908643245697021484375">
        <ele>3243.39990234375</ele>
        <time>2021-06-26T15:14:54.000Z</time>
        <extensions>
          <ns3:TrackPointExtension>
            <ns3:atemp>26.0</ns3:atemp>
            <ns3:hr>126</ns3:hr>
          </ns3:TrackPointExtension>
        </extensions>
      </trkpt>
      <trkpt lat="36.8048276938498020172119140625" lon="-118.40453202836215496063232421875">
        <ele>3243.39990234375</ele>
        <time>2021-06-26T15:14:59.000Z</time>
        <extensions>
          <ns3:TrackPointExtension>
            <ns3:atemp>26.0</ns3:atemp>
            <ns3:hr>125</ns3:hr>
          </ns3:TrackPointExtension>
        </extensions>
      </trkpt>
      <trkpt lat="36.8048300407826900482177734375" lon="-118.40452280826866626739501953125">
        <ele>3243.199951171875</ele>
        <time>2021-06-26T15:15:06.000Z</time>
        <extensions>
          <ns3:TrackPointExtension>
            <ns3:atemp>26.0</ns3:atemp>
            <ns3:hr>122</ns3:hr>
          </ns3:TrackPointExtension>
        </extensions>
      </trkpt>
      <trkpt lat="36.80483582429587841033935546875" lon="-118.4045326150953769683837890625">
        <ele>3243</ele>
        <time>2021-06-26T15:15:08.000Z</time>
        <extensions>
          <ns3:TrackPointExtension>
            <ns3:atemp>26.0</ns3:atemp>
            <ns3:hr>120</ns3:hr>
          </ns3:TrackPointExtension>
        </extensions>
      </trkpt>
      <trkpt lat="36.80485837161540985107421875" lon="-118.404540158808231353759765625">
        <ele>3243</ele>
        <time>2021-06-26T15:15:10.000Z</time>
        <extensions>
          <ns3:TrackPointExtension>
            <ns3:atemp>26.0</ns3:atemp>
            <ns3:hr>117</ns3:hr>
          </ns3:TrackPointExtension>
        </extensions>
      </trkpt>
      <trkpt lat="36.80487672798335552215576171875" lon="-118.4045473672449588775634765625">
        <ele>3243.39990234375</ele>
        <time>2021-06-26T15:15:12.000Z</time>
        <extensions>
          <ns3:TrackPointExtension>
            <ns3:atemp>26.0</ns3:atemp>
            <ns3:hr>114</ns3:hr>
          </ns3:TrackPointExtension>
        </extensions>
      </trkpt>
      <trkpt lat="36.80490958504378795623779296875" lon="-118.40455834753811359405517578125">
        <ele>3243.800048828125</ele>
        <time>2021-06-26T15:15:16.000Z</time>
        <extensions>
          <ns3:TrackPointExtension>
            <ns3:atemp>26.0</ns3:atemp>
            <ns3:hr>115</ns3:hr>
          </ns3:TrackPointExtension>
        </extensions>
      </trkpt>
      <trkpt lat="36.80493414402008056640625" lon="-118.404575027525424957275390625">
        <ele>3244.39990234375</ele>
        <time>2021-06-26T15:15:20.000Z</time>
        <extensions>
          <ns3:TrackPointExtension>
            <ns3:atemp>26.0</ns3:atemp>
            <ns3:hr>114</ns3:hr>
          </ns3:TrackPointExtension>
        </extensions>
      </trkpt>
      <trkpt lat="36.80494780652225017547607421875" lon="-118.40459405444562435150146484375">
        <ele>3244.39990234375</ele>
        <time>2021-06-26T15:15:23.000Z</time>
        <extensions>
          <ns3:TrackPointExtension>
            <ns3:atemp>26.0</ns3:atemp>
            <ns3:hr>113</ns3:hr>
          </ns3:TrackPointExtension>
        </extensions>
      </trkpt>
      <trkpt lat="36.80492014624178409576416015625" lon="-118.40460889041423797607421875">
        <ele>3245</ele>
        <time>2021-06-26T15:15:28.000Z</time>
        <extensions>
          <ns3:TrackPointExtension>
            <ns3:atemp>26.0</ns3:atemp>
            <ns3:hr>115</ns3:hr>
          </ns3:TrackPointExtension>
        </extensions>
      </trkpt>
      <trkpt lat="36.80490572936832904815673828125" lon="-118.40462255291640758514404296875">
        <ele>3245.39990234375</ele>
        <time>2021-06-26T15:15:30.000Z</time>
        <extensions>
          <ns3:TrackPointExtension>
            <ns3:atemp>26.0</ns3:atemp>
            <ns3:hr>116</ns3:hr>
          </ns3:TrackPointExtension>
        </extensions>
      </trkpt>
      <trkpt lat="36.8048934079706668853759765625" lon="-118.40464216656982898712158203125">
        <ele>3246</ele>
        <time>2021-06-26T15:15:33.000Z</time>
        <extensions>
          <ns3:TrackPointExtension>
            <ns3:atemp>26.0</ns3:atemp>
            <ns3:hr>118</ns3:hr>
          </ns3:TrackPointExtension>
        </extensions>
      </trkpt>
      <trkpt lat="36.80487806908786296844482421875" lon="-118.40465390123426914215087890625">
        <ele>3247</ele>
        <time>2021-06-26T15:15:36.000Z</time>
        <extensions>
          <ns3:TrackPointExtension>
            <ns3:atemp>26.0</ns3:atemp>
            <ns3:hr>116</ns3:hr>
          </ns3:TrackPointExtension>
        </extensions>
      </trkpt>
      <trkpt lat="36.804872788488864898681640625" lon="-118.4046616964042186737060546875">
        <ele>3247.199951171875</ele>
        <time>2021-06-26T15:15:37.000Z</time>
        <extensions>
          <ns3:TrackPointExtension>
            <ns3:atemp>26.0</ns3:atemp>
            <ns3:hr>119</ns3:hr>
          </ns3:TrackPointExtension>
        </extensions>
      </trkpt>
      <trkpt lat="36.80488343350589275360107421875" lon="-118.40468307025730609893798828125">
        <ele>3248</ele>
        <time>2021-06-26T15:15:40.000Z</time>
        <extensions>
          <ns3:TrackPointExtension>
            <ns3:atemp>26.0</ns3:atemp>
            <ns3:hr>118</ns3:hr>
          </ns3:TrackPointExtension>
        </extensions>
      </trkpt>
      <trkpt lat="36.8048925697803497314453125" lon="-118.404691703617572784423828125">
        <ele>3248.199951171875</ele>
        <time>2021-06-26T15:15:41.000Z</time>
        <extensions>
          <ns3:TrackPointExtension>
            <ns3:atemp>26.0</ns3:atemp>
            <ns3:hr>117</ns3:hr>
          </ns3:TrackPointExtension>
        </extensions>
      </trkpt>
      <trkpt lat="36.80493406020104885101318359375" lon="-118.4046999178826808929443359375">
        <ele>3249</ele>
        <time>2021-06-26T15:15:47.000Z</time>
        <extensions>
          <ns3:TrackPointExtension>
            <ns3:atemp>26.0</ns3:atemp>
            <ns3:hr>116</ns3:hr>
          </ns3:TrackPointExtension>
        </extensions>
      </trkpt>
      <trkpt lat="36.80493590421974658966064453125" lon="-118.40470771305263042449951171875">
        <ele>3249.39990234375</ele>
        <time>2021-06-26T15:15:48.000Z</time>
        <extensions>
          <ns3:TrackPointExtension>
            <ns3:atemp>26.0</ns3:atemp>
            <ns3:hr>117</ns3:hr>
          </ns3:TrackPointExtension>
        </extensions>
      </trkpt>
      <trkpt lat="36.8049765564501285552978515625" lon="-118.40471240691840648651123046875">
        <ele>3250.39990234375</ele>
        <time>2021-06-26T15:15:53.000Z</time>
        <extensions>
          <ns3:TrackPointExtension>
            <ns3:atemp>26.0</ns3:atemp>
            <ns3:hr>118</ns3:hr>
          </ns3:TrackPointExtension>
        </extensions>
      </trkpt>
      <trkpt lat="36.8049859441816806793212890625" lon="-118.40471173636615276336669921875">
        <ele>3250.60009765625</ele>
        <time>2021-06-26T15:15:54.000Z</time>
        <extensions>
          <ns3:TrackPointExtension>
            <ns3:atemp>26.0</ns3:atemp>
            <ns3:hr>118</ns3:hr>
          </ns3:TrackPointExtension>
        </extensions>
      </trkpt>
      <trkpt lat="36.80500916205346584320068359375" lon="-118.4047160111367702484130859375">
        <ele>3251.39990234375</ele>
        <time>2021-06-26T15:15:57.000Z</time>
        <extensions>
          <ns3:TrackPointExtension>
            <ns3:atemp>26.0</ns3:atemp>
            <ns3:hr>119</ns3:hr>
          </ns3:TrackPointExtension>
        </extensions>
      </trkpt>
      <trkpt lat="36.805063225328922271728515625" lon="-118.40472162701189517974853515625">
        <ele>3251.60009765625</ele>
        <time>2021-06-26T15:16:03.000Z</time>
        <extensions>
          <ns3:TrackPointExtension>
            <ns3:atemp>26.0</ns3:atemp>
            <ns3:hr>122</ns3:hr>
          </ns3:TrackPointExtension>
        </extensions>
      </trkpt>
      <trkpt lat="36.80509683676064014434814453125" lon="-118.4047240577638149261474609375">
        <ele>3251.60009765625</ele>
        <time>2021-06-26T15:16:06.000Z</time>
        <extensions>
          <ns3:TrackPointExtension>
            <ns3:atemp>26.0</ns3:atemp>
            <ns3:hr>125</ns3:hr>
          </ns3:TrackPointExtension>
        </extensions>
      </trkpt>
      <trkpt lat="36.80510153062641620635986328125" lon="-118.40472581796348094940185546875">
        <ele>3251.800048828125</ele>
        <time>2021-06-26T15:16:07.000Z</time>
        <extensions>
          <ns3:TrackPointExtension>
            <ns3:atemp>26.0</ns3:atemp>
            <ns3:hr>126</ns3:hr>
          </ns3:TrackPointExtension>
        </extensions>
      </trkpt>
      <trkpt lat="36.80510111153125762939453125" lon="-118.404729254543781280517578125">
        <ele>3252.199951171875</ele>
        <time>2021-06-26T15:16:10.000Z</time>
        <extensions>
          <ns3:TrackPointExtension>
            <ns3:atemp>26.0</ns3:atemp>
            <ns3:hr>121</ns3:hr>
          </ns3:TrackPointExtension>
        </extensions>
      </trkpt>
      <trkpt lat="36.80509817786514759063720703125" lon="-118.4047277458012104034423828125">
        <ele>3252.39990234375</ele>
        <time>2021-06-26T15:16:11.000Z</time>
        <extensions>
          <ns3:TrackPointExtension>
            <ns3:atemp>26.0</ns3:atemp>
            <ns3:hr>126</ns3:hr>
          </ns3:TrackPointExtension>
        </extensions>
      </trkpt>
      <trkpt lat="36.8050915561616420745849609375" lon="-118.40472556650638580322265625">
        <ele>3252.39990234375</ele>
        <time>2021-06-26T15:16:12.000Z</time>
        <extensions>
          <ns3:TrackPointExtension>
            <ns3:atemp>26.0</ns3:atemp>
            <ns3:hr>126</ns3:hr>
          </ns3:TrackPointExtension>
        </extensions>
      </trkpt>
      <trkpt lat="36.8050838448107242584228515625" lon="-118.40472581796348094940185546875">
        <ele>3252.39990234375</ele>
        <time>2021-06-26T15:16:13.000Z</time>
        <extensions>
          <ns3:TrackPointExtension>
            <ns3:atemp>26.0</ns3:atemp>
            <ns3:hr>126</ns3:hr>
          </ns3:TrackPointExtension>
        </extensions>
      </trkpt>
      <trkpt lat="36.80504151619970798492431640625" lon="-118.4047307632863521575927734375">
        <ele>3253</ele>
        <time>2021-06-26T15:16:20.000Z</time>
        <extensions>
          <ns3:TrackPointExtension>
            <ns3:atemp>26.0</ns3:atemp>
            <ns3:hr>124</ns3:hr>
          </ns3:TrackPointExtension>
        </extensions>
      </trkpt>
      <trkpt lat="36.80504151619970798492431640625" lon="-118.4047307632863521575927734375">
        <ele>3253.60009765625</ele>
        <time>2021-06-26T15:16:27.000Z</time>
        <extensions>
          <ns3:TrackPointExtension>
            <ns3:atemp>26.0</ns3:atemp>
            <ns3:hr>125</ns3:hr>
          </ns3:TrackPointExtension>
        </extensions>
      </trkpt>
      <trkpt lat="36.80504419840872287750244140625" lon="-118.40473067946732044219970703125">
        <ele>3253.60009765625</ele>
        <time>2021-06-26T15:16:30.000Z</time>
        <extensions>
          <ns3:TrackPointExtension>
            <ns3:atemp>26.0</ns3:atemp>
            <ns3:hr>122</ns3:hr>
          </ns3:TrackPointExtension>
        </extensions>
      </trkpt>
      <trkpt lat="36.80505643598735332489013671875" lon="-118.40472556650638580322265625">
        <ele>3253.39990234375</ele>
        <time>2021-06-26T15:16:36.000Z</time>
        <extensions>
          <ns3:TrackPointExtension>
            <ns3:atemp>26.0</ns3:atemp>
            <ns3:hr>119</ns3:hr>
          </ns3:TrackPointExtension>
        </extensions>
      </trkpt>
      <trkpt lat="36.80505325086414813995361328125" lon="-118.40471810661256313323974609375">
        <ele>3255</ele>
        <time>2021-06-26T15:16:45.000Z</time>
        <extensions>
          <ns3:TrackPointExtension>
            <ns3:atemp>26.0</ns3:atemp>
            <ns3:hr>117</ns3:hr>
          </ns3:TrackPointExtension>
        </extensions>
      </trkpt>
      <trkpt lat="36.80505593307316303253173828125" lon="-118.40472699142992496490478515625">
        <ele>3255.39990234375</ele>
        <time>2021-06-26T15:16:49.000Z</time>
        <extensions>
          <ns3:TrackPointExtension>
            <ns3:atemp>26.0</ns3:atemp>
            <ns3:hr>114</ns3:hr>
          </ns3:TrackPointExtension>
        </extensions>
      </trkpt>
      <trkpt lat="36.8050811626017093658447265625" lon="-118.40474694035947322845458984375">
        <ele>3255.39990234375</ele>
        <time>2021-06-26T15:16:51.000Z</time>
        <extensions>
          <ns3:TrackPointExtension>
            <ns3:atemp>26.0</ns3:atemp>
            <ns3:hr>111</ns3:hr>
          </ns3:TrackPointExtension>
        </extensions>
      </trkpt>
      <trkpt lat="36.80509314872324466705322265625" lon="-118.40475699864327907562255859375">
        <ele>3255.60009765625</ele>
        <time>2021-06-26T15:16:52.000Z</time>
        <extensions>
          <ns3:TrackPointExtension>
            <ns3:atemp>26.0</ns3:atemp>
            <ns3:hr>110</ns3:hr>
          </ns3:TrackPointExtension>
        </extensions>
      </trkpt>
      <trkpt lat="36.80515877902507781982421875" lon="-118.40480008162558078765869140625">
        <ele>3256</ele>
        <time>2021-06-26T15:16:57.000Z</time>
        <extensions>
          <ns3:TrackPointExtension>
            <ns3:atemp>26.0</ns3:atemp>
            <ns3:hr>108</ns3:hr>
          </ns3:TrackPointExtension>
        </extensions>
      </trkpt>
      <trkpt lat="36.8051995150744915008544921875" lon="-118.40482941828668117523193359375">
        <ele>3256.199951171875</ele>
        <time>2021-06-26T15:17:01.000Z</time>
        <extensions>
          <ns3:TrackPointExtension>
            <ns3:atemp>26.0</ns3:atemp>
            <ns3:hr>107</ns3:hr>
          </ns3:TrackPointExtension>
        </extensions>
      </trkpt>
      <trkpt lat="36.80526950396597385406494140625" lon="-118.40490686707198619842529296875">
        <ele>3256.199951171875</ele>
        <time>2021-06-26T15:17:09.000Z</time>
        <extensions>
          <ns3:TrackPointExtension>
            <ns3:atemp>26.0</ns3:atemp>
            <ns3:hr>105</ns3:hr>
          </ns3:TrackPointExtension>
        </extensions>
      </trkpt>
      <trkpt lat="36.8053150177001953125" lon="-118.40493201278150081634521484375">
        <ele>3256.199951171875</ele>
        <time>2021-06-26T15:17:14.000Z</time>
        <extensions>
          <ns3:TrackPointExtension>
            <ns3:atemp>26.0</ns3:atemp>
            <ns3:hr>104</ns3:hr>
          </ns3:TrackPointExtension>
        </extensions>
      </trkpt>
      <trkpt lat="36.80533370934426784515380859375" lon="-118.40496386401355266571044921875">
        <ele>3256.39990234375</ele>
        <time>2021-06-26T15:17:17.000Z</time>
        <extensions>
          <ns3:TrackPointExtension>
            <ns3:atemp>26.0</ns3:atemp>
            <ns3:hr>105</ns3:hr>
          </ns3:TrackPointExtension>
        </extensions>
      </trkpt>
      <trkpt lat="36.805343516170978546142578125" lon="-118.40497911907732486724853515625">
        <ele>3256.60009765625</ele>
        <time>2021-06-26T15:17:18.000Z</time>
        <extensions>
          <ns3:TrackPointExtension>
            <ns3:atemp>26.0</ns3:atemp>
            <ns3:hr>105</ns3:hr>
          </ns3:TrackPointExtension>
        </extensions>
      </trkpt>
      <trkpt lat="36.8053520657122135162353515625" lon="-118.40498481877148151397705078125">
        <ele>3256.60009765625</ele>
        <time>2021-06-26T15:17:19.000Z</time>
        <extensions>
          <ns3:TrackPointExtension>
            <ns3:atemp>26.0</ns3:atemp>
            <ns3:hr>106</ns3:hr>
          </ns3:TrackPointExtension>
        </extensions>
      </trkpt>
      <trkpt lat="36.8054290115833282470703125" lon="-118.40497526340186595916748046875">
        <ele>3256.800048828125</ele>
        <time>2021-06-26T15:17:24.000Z</time>
        <extensions>
          <ns3:TrackPointExtension>
            <ns3:atemp>26.0</ns3:atemp>
            <ns3:hr>106</ns3:hr>
          </ns3:TrackPointExtension>
        </extensions>
      </trkpt>
      <trkpt lat="36.80545290000736713409423828125" lon="-118.4050087071955204010009765625">
        <ele>3257</ele>
        <time>2021-06-26T15:17:28.000Z</time>
        <extensions>
          <ns3:TrackPointExtension>
            <ns3:atemp>26.0</ns3:atemp>
            <ns3:hr>103</ns3:hr>
          </ns3:TrackPointExtension>
        </extensions>
      </trkpt>
      <trkpt lat="36.80545038543641567230224609375" lon="-118.4050294943153858184814453125">
        <ele>3257.39990234375</ele>
        <time>2021-06-26T15:17:30.000Z</time>
        <extensions>
          <ns3:TrackPointExtension>
            <ns3:atemp>26.0</ns3:atemp>
            <ns3:hr>101</ns3:hr>
          </ns3:TrackPointExtension>
        </extensions>
      </trkpt>
      <trkpt lat="36.805446110665798187255859375" lon="-118.40504114516079425811767578125">
        <ele>3257.39990234375</ele>
        <time>2021-06-26T15:17:31.000Z</time>
        <extensions>
          <ns3:TrackPointExtension>
            <ns3:atemp>26.0</ns3:atemp>
            <ns3:hr>100</ns3:hr>
          </ns3:TrackPointExtension>
        </extensions>
      </trkpt>
      <trkpt lat="36.80542431771755218505859375" lon="-118.40507584623992443084716796875">
        <ele>3258</ele>
        <time>2021-06-26T15:17:36.000Z</time>
        <extensions>
          <ns3:TrackPointExtension>
            <ns3:atemp>26.0</ns3:atemp>
            <ns3:hr>103</ns3:hr>
          </ns3:TrackPointExtension>
        </extensions>
      </trkpt>
      <trkpt lat="36.8054167740046977996826171875" lon="-118.40507953427731990814208984375">
        <ele>3258.60009765625</ele>
        <time>2021-06-26T15:17:37.000Z</time>
        <extensions>
          <ns3:TrackPointExtension>
            <ns3:atemp>26.0</ns3:atemp>
            <ns3:hr>104</ns3:hr>
          </ns3:TrackPointExtension>
        </extensions>
      </trkpt>
      <trkpt lat="36.80540847592055797576904296875" lon="-118.405082635581493377685546875">
        <ele>3258.60009765625</ele>
        <time>2021-06-26T15:17:38.000Z</time>
        <extensions>
          <ns3:TrackPointExtension>
            <ns3:atemp>26.0</ns3:atemp>
            <ns3:hr>104</ns3:hr>
          </ns3:TrackPointExtension>
        </extensions>
      </trkpt>
      <trkpt lat="36.8053753674030303955078125" lon="-118.40512253344058990478515625">
        <ele>3260</ele>
        <time>2021-06-26T15:17:44.000Z</time>
        <extensions>
          <ns3:TrackPointExtension>
            <ns3:atemp>26.0</ns3:atemp>
            <ns3:hr>103</ns3:hr>
          </ns3:TrackPointExtension>
        </extensions>
      </trkpt>
      <trkpt lat="36.8053705058991909027099609375" lon="-118.40512982569634914398193359375">
        <ele>3260.199951171875</ele>
        <time>2021-06-26T15:17:45.000Z</time>
        <extensions>
          <ns3:TrackPointExtension>
            <ns3:atemp>26.0</ns3:atemp>
            <ns3:hr>105</ns3:hr>
          </ns3:TrackPointExtension>
        </extensions>
      </trkpt>
      <trkpt lat="36.80535080842673778533935546875" lon="-118.4051607549190521240234375">
        <ele>3261.199951171875</ele>
        <time>2021-06-26T15:17:49.000Z</time>
        <extensions>
          <ns3:TrackPointExtension>
            <ns3:atemp>26.0</ns3:atemp>
            <ns3:hr>106</ns3:hr>
          </ns3:TrackPointExtension>
        </extensions>
      </trkpt>
      <trkpt lat="36.80535902269184589385986328125" lon="-118.40518967248499393463134765625">
        <ele>3262.199951171875</ele>
        <time>2021-06-26T15:17:53.000Z</time>
        <extensions>
          <ns3:TrackPointExtension>
            <ns3:atemp>26.0</ns3:atemp>
            <ns3:hr>108</ns3:hr>
          </ns3:TrackPointExtension>
        </extensions>
      </trkpt>
      <trkpt lat="36.80536354891955852508544921875" lon="-118.4051929414272308349609375">
        <ele>3262.199951171875</ele>
        <time>2021-06-26T15:17:54.000Z</time>
        <extensions>
          <ns3:TrackPointExtension>
            <ns3:atemp>26.0</ns3:atemp>
            <ns3:hr>110</ns3:hr>
          </ns3:TrackPointExtension>
        </extensions>
      </trkpt>
      <trkpt lat="36.8053741939365863800048828125" lon="-118.40520744211971759796142578125">
        <ele>3262.60009765625</ele>
        <time>2021-06-26T15:17:56.000Z</time>
        <extensions>
          <ns3:TrackPointExtension>
            <ns3:atemp>26.0</ns3:atemp>
            <ns3:hr>113</ns3:hr>
          </ns3:TrackPointExtension>
        </extensions>
      </trkpt>
      <trkpt lat="36.80538785643875598907470703125" lon="-118.40521238744258880615234375">
        <ele>3262.800048828125</ele>
        <time>2021-06-26T15:17:58.000Z</time>
        <extensions>
          <ns3:TrackPointExtension>
            <ns3:atemp>26.0</ns3:atemp>
            <ns3:hr>117</ns3:hr>
          </ns3:TrackPointExtension>
        </extensions>
      </trkpt>
      <trkpt lat="36.80539657361805438995361328125" lon="-118.40520962141454219818115234375">
        <ele>3263</ele>
        <time>2021-06-26T15:17:59.000Z</time>
        <extensions>
          <ns3:TrackPointExtension>
            <ns3:atemp>26.0</ns3:atemp>
            <ns3:hr>117</ns3:hr>
          </ns3:TrackPointExtension>
        </extensions>
      </trkpt>
      <trkpt lat="36.8054107390344142913818359375" lon="-118.405205346643924713134765625">
        <ele>3263</ele>
        <time>2021-06-26T15:18:01.000Z</time>
        <extensions>
          <ns3:TrackPointExtension>
            <ns3:atemp>26.0</ns3:atemp>
            <ns3:hr>120</ns3:hr>
          </ns3:TrackPointExtension>
        </extensions>
      </trkpt>
      <trkpt lat="36.80541182868182659149169921875" lon="-118.40520727448165416717529296875">
        <ele>3263.199951171875</ele>
        <time>2021-06-26T15:18:02.000Z</time>
        <extensions>
          <ns3:TrackPointExtension>
            <ns3:atemp>26.0</ns3:atemp>
            <ns3:hr>120</ns3:hr>
          </ns3:TrackPointExtension>
        </extensions>
      </trkpt>
      <trkpt lat="36.805427335202693939208984375" lon="-118.40521079488098621368408203125">
        <ele>3263.39990234375</ele>
        <time>2021-06-26T15:18:04.000Z</time>
        <extensions>
          <ns3:TrackPointExtension>
            <ns3:atemp>26.0</ns3:atemp>
            <ns3:hr>122</ns3:hr>
          </ns3:TrackPointExtension>
        </extensions>
      </trkpt>
      <trkpt lat="36.80546320974826812744140625" lon="-118.40521364472806453704833984375">
        <ele>3263.60009765625</ele>
        <time>2021-06-26T15:18:07.000Z</time>
        <extensions>
          <ns3:TrackPointExtension>
            <ns3:atemp>26.0</ns3:atemp>
            <ns3:hr>124</ns3:hr>
          </ns3:TrackPointExtension>
        </extensions>
      </trkpt>
      <trkpt lat="36.80550612509250640869140625" lon="-118.40521506965160369873046875">
        <ele>3263.60009765625</ele>
        <time>2021-06-26T15:18:11.000Z</time>
        <extensions>
          <ns3:TrackPointExtension>
            <ns3:atemp>26.0</ns3:atemp>
            <ns3:hr>125</ns3:hr>
          </ns3:TrackPointExtension>
        </extensions>
      </trkpt>
      <trkpt lat="36.80554174818098545074462890625" lon="-118.40520123951137065887451171875">
        <ele>3263.60009765625</ele>
        <time>2021-06-26T15:18:14.000Z</time>
        <extensions>
          <ns3:TrackPointExtension>
            <ns3:atemp>26.0</ns3:atemp>
            <ns3:hr>129</ns3:hr>
          </ns3:TrackPointExtension>
        </extensions>
      </trkpt>
      <trkpt lat="36.8055837415158748626708984375" lon="-118.40519386343657970428466796875">
        <ele>3263.39990234375</ele>
        <time>2021-06-26T15:18:18.000Z</time>
        <extensions>
          <ns3:TrackPointExtension>
            <ns3:atemp>26.0</ns3:atemp>
            <ns3:hr>127</ns3:hr>
          </ns3:TrackPointExtension>
        </extensions>
      </trkpt>
      <trkpt lat="36.805611737072467803955078125" lon="-118.40517609380185604095458984375">
        <ele>3263.800048828125</ele>
        <time>2021-06-26T15:18:22.000Z</time>
        <extensions>
          <ns3:TrackPointExtension>
            <ns3:atemp>26.0</ns3:atemp>
            <ns3:hr>128</ns3:hr>
          </ns3:TrackPointExtension>
        </extensions>
      </trkpt>
      <trkpt lat="36.80564182810485363006591796875" lon="-118.40516871772706508636474609375">
        <ele>3264.39990234375</ele>
        <time>2021-06-26T15:18:26.000Z</time>
        <extensions>
          <ns3:TrackPointExtension>
            <ns3:atemp>26.0</ns3:atemp>
            <ns3:hr>128</ns3:hr>
          </ns3:TrackPointExtension>
        </extensions>
      </trkpt>
      <trkpt lat="36.80569387972354888916015625" lon="-118.40515916235744953155517578125">
        <ele>3265</ele>
        <time>2021-06-26T15:18:32.000Z</time>
        <extensions>
          <ns3:TrackPointExtension>
            <ns3:atemp>26.0</ns3:atemp>
            <ns3:hr>126</ns3:hr>
          </ns3:TrackPointExtension>
        </extensions>
      </trkpt>
      <trkpt lat="36.805703938007354736328125" lon="-118.405173160135746002197265625">
        <ele>3265.60009765625</ele>
        <time>2021-06-26T15:18:35.000Z</time>
        <extensions>
          <ns3:TrackPointExtension>
            <ns3:atemp>26.0</ns3:atemp>
            <ns3:hr>123</ns3:hr>
          </ns3:TrackPointExtension>
        </extensions>
      </trkpt>
      <trkpt lat="36.80570418946444988250732421875" lon="-118.40519755147397518157958984375">
        <ele>3266.39990234375</ele>
        <time>2021-06-26T15:18:38.000Z</time>
        <extensions>
          <ns3:TrackPointExtension>
            <ns3:atemp>26.0</ns3:atemp>
            <ns3:hr>121</ns3:hr>
          </ns3:TrackPointExtension>
        </extensions>
      </trkpt>
      <trkpt lat="36.80570603348314762115478515625" lon="-118.4052088670432567596435546875">
        <ele>3266.800048828125</ele>
        <time>2021-06-26T15:18:39.000Z</time>
        <extensions>
          <ns3:TrackPointExtension>
            <ns3:atemp>26.0</ns3:atemp>
            <ns3:hr>120</ns3:hr>
          </ns3:TrackPointExtension>
        </extensions>
      </trkpt>
      <trkpt lat="36.80572799406945705413818359375" lon="-118.4052273072302341461181640625">
        <ele>3267</ele>
        <time>2021-06-26T15:18:42.000Z</time>
        <extensions>
          <ns3:TrackPointExtension>
            <ns3:atemp>26.0</ns3:atemp>
            <ns3:hr>117</ns3:hr>
          </ns3:TrackPointExtension>
        </extensions>
      </trkpt>
      <trkpt lat="36.80575012229382991790771484375" lon="-118.4052246250212192535400390625">
        <ele>3267.60009765625</ele>
        <time>2021-06-26T15:18:45.000Z</time>
        <extensions>
          <ns3:TrackPointExtension>
            <ns3:atemp>26.0</ns3:atemp>
            <ns3:hr>115</ns3:hr>
          </ns3:TrackPointExtension>
        </extensions>
      </trkpt>
      <trkpt lat="36.80575481615960597991943359375" lon="-118.4052276425063610076904296875">
        <ele>3267.800048828125</ele>
        <time>2021-06-26T15:18:46.000Z</time>
        <extensions>
          <ns3:TrackPointExtension>
            <ns3:atemp>26.0</ns3:atemp>
            <ns3:hr>115</ns3:hr>
          </ns3:TrackPointExtension>
        </extensions>
      </trkpt>
      <trkpt lat="36.80576621554791927337646484375" lon="-118.4052645228803157806396484375">
        <ele>3268.800048828125</ele>
        <time>2021-06-26T15:18:52.000Z</time>
        <extensions>
          <ns3:TrackPointExtension>
            <ns3:atemp>26.0</ns3:atemp>
            <ns3:hr>117</ns3:hr>
          </ns3:TrackPointExtension>
        </extensions>
      </trkpt>
      <trkpt lat="36.80576671846210956573486328125" lon="-118.40527131222188472747802734375">
        <ele>3268.800048828125</ele>
        <time>2021-06-26T15:18:53.000Z</time>
        <extensions>
          <ns3:TrackPointExtension>
            <ns3:atemp>26.0</ns3:atemp>
            <ns3:hr>116</ns3:hr>
          </ns3:TrackPointExtension>
        </extensions>
      </trkpt>
      <trkpt lat="36.80576805956661701202392578125" lon="-118.40529897250235080718994140625">
        <ele>3270</ele>
        <time>2021-06-26T15:18:57.000Z</time>
        <extensions>
          <ns3:TrackPointExtension>
            <ns3:atemp>26.0</ns3:atemp>
            <ns3:hr>116</ns3:hr>
          </ns3:TrackPointExtension>
        </extensions>
      </trkpt>
      <trkpt lat="36.80576470680534839630126953125" lon="-118.40532780624926090240478515625">
        <ele>3270.199951171875</ele>
        <time>2021-06-26T15:19:00.000Z</time>
        <extensions>
          <ns3:TrackPointExtension>
            <ns3:atemp>26.0</ns3:atemp>
            <ns3:hr>115</ns3:hr>
          </ns3:TrackPointExtension>
        </extensions>
      </trkpt>
      <trkpt lat="36.80576235987246036529541015625" lon="-118.40535915456712245941162109375">
        <ele>3271.199951171875</ele>
        <time>2021-06-26T15:19:07.000Z</time>
        <extensions>
          <ns3:TrackPointExtension>
            <ns3:atemp>26.0</ns3:atemp>
            <ns3:hr>115</ns3:hr>
          </ns3:TrackPointExtension>
        </extensions>
      </trkpt>
      <trkpt lat="36.80576051585376262664794921875" lon="-118.405371643602848052978515625">
        <ele>3271.60009765625</ele>
        <time>2021-06-26T15:19:09.000Z</time>
        <extensions>
          <ns3:TrackPointExtension>
            <ns3:atemp>26.0</ns3:atemp>
            <ns3:hr>112</ns3:hr>
          </ns3:TrackPointExtension>
        </extensions>
      </trkpt>
      <trkpt lat="36.805760599672794342041015625" lon="-118.405373990535736083984375">
        <ele>3271.60009765625</ele>
        <time>2021-06-26T15:19:10.000Z</time>
        <extensions>
          <ns3:TrackPointExtension>
            <ns3:atemp>26.0</ns3:atemp>
            <ns3:hr>111</ns3:hr>
          </ns3:TrackPointExtension>
        </extensions>
      </trkpt>
      <trkpt lat="36.80576202459633350372314453125" lon="-118.40537088923156261444091796875">
        <ele>3271.60009765625</ele>
        <time>2021-06-26T15:19:11.000Z</time>
        <extensions>
          <ns3:TrackPointExtension>
            <ns3:atemp>26.0</ns3:atemp>
            <ns3:hr>114</ns3:hr>
          </ns3:TrackPointExtension>
        </extensions>
      </trkpt>
      <trkpt lat="36.805767305195331573486328125" lon="-118.40537256561219692230224609375">
        <ele>3271.199951171875</ele>
        <time>2021-06-26T15:19:15.000Z</time>
        <extensions>
          <ns3:TrackPointExtension>
            <ns3:atemp>26.0</ns3:atemp>
            <ns3:hr>112</ns3:hr>
          </ns3:TrackPointExtension>
        </extensions>
      </trkpt>
      <trkpt lat="36.805767305195331573486328125" lon="-118.40537256561219692230224609375">
        <ele>3271</ele>
        <time>2021-06-26T15:19:24.000Z</time>
        <extensions>
          <ns3:TrackPointExtension>
            <ns3:atemp>26.0</ns3:atemp>
            <ns3:hr>115</ns3:hr>
          </ns3:TrackPointExtension>
        </extensions>
      </trkpt>
      <trkpt lat="36.8057510443031787872314453125" lon="-118.4054234437644481658935546875">
        <ele>3272.199951171875</ele>
        <time>2021-06-26T15:19:37.000Z</time>
        <extensions>
          <ns3:TrackPointExtension>
            <ns3:atemp>26.0</ns3:atemp>
            <ns3:hr>115</ns3:hr>
          </ns3:TrackPointExtension>
        </extensions>
      </trkpt>
      <trkpt lat="36.80574073456227779388427734375" lon="-118.40544917620718479156494140625">
        <ele>3272.800048828125</ele>
        <time>2021-06-26T15:19:39.000Z</time>
        <extensions>
          <ns3:TrackPointExtension>
            <ns3:atemp>26.0</ns3:atemp>
            <ns3:hr>115</ns3:hr>
          </ns3:TrackPointExtension>
        </extensions>
      </trkpt>
      <trkpt lat="36.80570184253156185150146484375" lon="-118.4055099450051784515380859375">
        <ele>3273.199951171875</ele>
        <time>2021-06-26T15:19:43.000Z</time>
        <extensions>
          <ns3:TrackPointExtension>
            <ns3:atemp>26.0</ns3:atemp>
            <ns3:hr>112</ns3:hr>
          </ns3:TrackPointExtension>
        </extensions>
      </trkpt>
      <trkpt lat="36.8056903593242168426513671875" lon="-118.40553601272404193878173828125">
        <ele>3273.199951171875</ele>
        <time>2021-06-26T15:19:45.000Z</time>
        <extensions>
          <ns3:TrackPointExtension>
            <ns3:atemp>27.0</ns3:atemp>
            <ns3:hr>109</ns3:hr>
          </ns3:TrackPointExtension>
        </extensions>
      </trkpt>
      <trkpt lat="36.805691532790660858154296875" lon="-118.4055485017597675323486328125">
        <ele>3273.39990234375</ele>
        <time>2021-06-26T15:19:46.000Z</time>
        <extensions>
          <ns3:TrackPointExtension>
            <ns3:atemp>27.0</ns3:atemp>
            <ns3:hr>108</ns3:hr>
          </ns3:TrackPointExtension>
        </extensions>
      </trkpt>
      <trkpt lat="36.80569790303707122802734375" lon="-118.405556716024875640869140625">
        <ele>3273.39990234375</ele>
        <time>2021-06-26T15:19:47.000Z</time>
        <extensions>
          <ns3:TrackPointExtension>
            <ns3:atemp>27.0</ns3:atemp>
            <ns3:hr>108</ns3:hr>
          </ns3:TrackPointExtension>
        </extensions>
      </trkpt>
      <trkpt lat="36.805757582187652587890625" lon="-118.405559062957763671875">
        <ele>3274.39990234375</ele>
        <time>2021-06-26T15:19:53.000Z</time>
        <extensions>
          <ns3:TrackPointExtension>
            <ns3:atemp>27.0</ns3:atemp>
            <ns3:hr>105</ns3:hr>
          </ns3:TrackPointExtension>
        </extensions>
      </trkpt>
      <trkpt lat="36.80577090941369533538818359375" lon="-118.40557658113539218902587890625">
        <ele>3275.199951171875</ele>
        <time>2021-06-26T15:19:56.000Z</time>
        <extensions>
          <ns3:TrackPointExtension>
            <ns3:atemp>27.0</ns3:atemp>
            <ns3:hr>104</ns3:hr>
          </ns3:TrackPointExtension>
        </extensions>
      </trkpt>
      <trkpt lat="36.80577434599399566650390625" lon="-118.40559653006494045257568359375">
        <ele>3275.39990234375</ele>
        <time>2021-06-26T15:19:58.000Z</time>
        <extensions>
          <ns3:TrackPointExtension>
            <ns3:atemp>27.0</ns3:atemp>
            <ns3:hr>105</ns3:hr>
          </ns3:TrackPointExtension>
        </extensions>
      </trkpt>
      <trkpt lat="36.80577208288013935089111328125" lon="-118.4056068398058414459228515625">
        <ele>3275.39990234375</ele>
        <time>2021-06-26T15:19:59.000Z</time>
        <extensions>
          <ns3:TrackPointExtension>
            <ns3:atemp>27.0</ns3:atemp>
            <ns3:hr>105</ns3:hr>
          </ns3:TrackPointExtension>
        </extensions>
      </trkpt>
      <trkpt lat="36.8057634495198726654052734375" lon="-118.40564011596143245697021484375">
        <ele>3276.60009765625</ele>
        <time>2021-06-26T15:20:04.000Z</time>
        <extensions>
          <ns3:TrackPointExtension>
            <ns3:atemp>27.0</ns3:atemp>
            <ns3:hr>102</ns3:hr>
          </ns3:TrackPointExtension>
        </extensions>
      </trkpt>
      <trkpt lat="36.80574727244675159454345703125" lon="-118.4056462347507476806640625">
        <ele>3276.800048828125</ele>
        <time>2021-06-26T15:20:06.000Z</time>
        <extensions>
          <ns3:TrackPointExtension>
            <ns3:atemp>27.0</ns3:atemp>
            <ns3:hr>101</ns3:hr>
          </ns3:TrackPointExtension>
        </extensions>
      </trkpt>
      <trkpt lat="36.80572061799466609954833984375" lon="-118.40567381121218204498291015625">
        <ele>3277.60009765625</ele>
        <time>2021-06-26T15:20:10.000Z</time>
        <extensions>
          <ns3:TrackPointExtension>
            <ns3:atemp>27.0</ns3:atemp>
            <ns3:hr>100</ns3:hr>
          </ns3:TrackPointExtension>
        </extensions>
      </trkpt>
      <trkpt lat="36.8057071231305599212646484375" lon="-118.4056933410465717315673828125">
        <ele>3278</ele>
        <time>2021-06-26T15:20:14.000Z</time>
        <extensions>
          <ns3:TrackPointExtension>
            <ns3:atemp>27.0</ns3:atemp>
            <ns3:hr>102</ns3:hr>
          </ns3:TrackPointExtension>
        </extensions>
      </trkpt>
      <trkpt lat="36.80570569820702075958251953125" lon="-118.4057079255580902099609375">
        <ele>3278.60009765625</ele>
        <time>2021-06-26T15:20:16.000Z</time>
        <extensions>
          <ns3:TrackPointExtension>
            <ns3:atemp>27.0</ns3:atemp>
            <ns3:hr>102</ns3:hr>
          </ns3:TrackPointExtension>
        </extensions>
      </trkpt>
      <trkpt lat="36.80570536293089389801025390625" lon="-118.40576894581317901611328125">
        <ele>3279.60009765625</ele>
        <time>2021-06-26T15:20:22.000Z</time>
        <extensions>
          <ns3:TrackPointExtension>
            <ns3:atemp>27.0</ns3:atemp>
            <ns3:hr>102</ns3:hr>
          </ns3:TrackPointExtension>
        </extensions>
      </trkpt>
      <trkpt lat="36.8057057820260524749755859375" lon="-118.405788056552410125732421875">
        <ele>3280</ele>
        <time>2021-06-26T15:20:24.000Z</time>
        <extensions>
          <ns3:TrackPointExtension>
            <ns3:atemp>27.0</ns3:atemp>
            <ns3:hr>101</ns3:hr>
          </ns3:TrackPointExtension>
        </extensions>
      </trkpt>
      <trkpt lat="36.80570192635059356689453125" lon="-118.4058284573256969451904296875">
        <ele>3280.800048828125</ele>
        <time>2021-06-26T15:20:28.000Z</time>
        <extensions>
          <ns3:TrackPointExtension>
            <ns3:atemp>27.0</ns3:atemp>
            <ns3:hr>100</ns3:hr>
          </ns3:TrackPointExtension>
        </extensions>
      </trkpt>
      <trkpt lat="36.80570938624441623687744140625" lon="-118.40585879981517791748046875">
        <ele>3281.60009765625</ele>
        <time>2021-06-26T15:20:32.000Z</time>
        <extensions>
          <ns3:TrackPointExtension>
            <ns3:atemp>27.0</ns3:atemp>
            <ns3:hr>103</ns3:hr>
          </ns3:TrackPointExtension>
        </extensions>
      </trkpt>
      <trkpt lat="36.8057134933769702911376953125" lon="-118.40586558915674686431884765625">
        <ele>3281.60009765625</ele>
        <time>2021-06-26T15:20:33.000Z</time>
        <extensions>
          <ns3:TrackPointExtension>
            <ns3:atemp>27.0</ns3:atemp>
            <ns3:hr>103</ns3:hr>
          </ns3:TrackPointExtension>
        </extensions>
      </trkpt>
      <trkpt lat="36.805725395679473876953125" lon="-118.40586508624255657196044921875">
        <ele>3282</ele>
        <time>2021-06-26T15:20:35.000Z</time>
        <extensions>
          <ns3:TrackPointExtension>
            <ns3:atemp>27.0</ns3:atemp>
            <ns3:hr>103</ns3:hr>
          </ns3:TrackPointExtension>
        </extensions>
      </trkpt>
      <trkpt lat="36.80573721416294574737548828125" lon="-118.405879922211170196533203125">
        <ele>3282.39990234375</ele>
        <time>2021-06-26T15:20:38.000Z</time>
        <extensions>
          <ns3:TrackPointExtension>
            <ns3:atemp>27.0</ns3:atemp>
            <ns3:hr>103</ns3:hr>
          </ns3:TrackPointExtension>
        </extensions>
      </trkpt>
      <trkpt lat="36.805744506418704986572265625" lon="-118.40591135434806346893310546875">
        <ele>3283</ele>
        <time>2021-06-26T15:20:42.000Z</time>
        <extensions>
          <ns3:TrackPointExtension>
            <ns3:atemp>27.0</ns3:atemp>
            <ns3:hr>102</ns3:hr>
          </ns3:TrackPointExtension>
        </extensions>
      </trkpt>
      <trkpt lat="36.80574760772287845611572265625" lon="-118.40592627413570880889892578125">
        <ele>3283.60009765625</ele>
        <time>2021-06-26T15:20:44.000Z</time>
        <extensions>
          <ns3:TrackPointExtension>
            <ns3:atemp>27.0</ns3:atemp>
            <ns3:hr>103</ns3:hr>
          </ns3:TrackPointExtension>
        </extensions>
      </trkpt>
      <trkpt lat="36.8057616055011749267578125" lon="-118.405950330197811126708984375">
        <ele>3284</ele>
        <time>2021-06-26T15:20:47.000Z</time>
        <extensions>
          <ns3:TrackPointExtension>
            <ns3:atemp>27.0</ns3:atemp>
            <ns3:hr>105</ns3:hr>
          </ns3:TrackPointExtension>
        </extensions>
      </trkpt>
      <trkpt lat="36.80578197352588176727294921875" lon="-118.405974470078945159912109375">
        <ele>3284.39990234375</ele>
        <time>2021-06-26T15:20:50.000Z</time>
        <extensions>
          <ns3:TrackPointExtension>
            <ns3:atemp>27.0</ns3:atemp>
            <ns3:hr>109</ns3:hr>
          </ns3:TrackPointExtension>
        </extensions>
      </trkpt>
      <trkpt lat="36.8058043532073497772216796875" lon="-118.4059816785156726837158203125">
        <ele>3284.60009765625</ele>
        <time>2021-06-26T15:20:52.000Z</time>
        <extensions>
          <ns3:TrackPointExtension>
            <ns3:atemp>27.0</ns3:atemp>
            <ns3:hr>111</ns3:hr>
          </ns3:TrackPointExtension>
        </extensions>
      </trkpt>
      <trkpt lat="36.8058382160961627960205078125" lon="-118.4059987775981426239013671875">
        <ele>3285</ele>
        <time>2021-06-26T15:20:57.000Z</time>
        <extensions>
          <ns3:TrackPointExtension>
            <ns3:atemp>27.0</ns3:atemp>
            <ns3:hr>115</ns3:hr>
          </ns3:TrackPointExtension>
        </extensions>
      </trkpt>
      <trkpt lat="36.8058472685515880584716796875" lon="-118.4060115180909633636474609375">
        <ele>3285.60009765625</ele>
        <time>2021-06-26T15:20:59.000Z</time>
        <extensions>
          <ns3:TrackPointExtension>
            <ns3:atemp>27.0</ns3:atemp>
            <ns3:hr>118</ns3:hr>
          </ns3:TrackPointExtension>
        </extensions>
      </trkpt>
      <trkpt lat="36.80585875175893306732177734375" lon="-118.40601646341383457183837890625">
        <ele>3286</ele>
        <time>2021-06-26T15:21:01.000Z</time>
        <extensions>
          <ns3:TrackPointExtension>
            <ns3:atemp>27.0</ns3:atemp>
            <ns3:hr>121</ns3:hr>
          </ns3:TrackPointExtension>
        </extensions>
      </trkpt>
      <trkpt lat="36.8058640323579311370849609375" lon="-118.40601914562284946441650390625">
        <ele>3286.199951171875</ele>
        <time>2021-06-26T15:21:02.000Z</time>
        <extensions>
          <ns3:TrackPointExtension>
            <ns3:atemp>27.0</ns3:atemp>
            <ns3:hr>123</ns3:hr>
          </ns3:TrackPointExtension>
        </extensions>
      </trkpt>
      <trkpt lat="36.80587719194591045379638671875" lon="-118.4060393460094928741455078125">
        <ele>3287.199951171875</ele>
        <time>2021-06-26T15:21:06.000Z</time>
        <extensions>
          <ns3:TrackPointExtension>
            <ns3:atemp>27.0</ns3:atemp>
            <ns3:hr>123</ns3:hr>
          </ns3:TrackPointExtension>
        </extensions>
      </trkpt>
      <trkpt lat="36.8058724142611026763916015625" lon="-118.40605686418712139129638671875">
        <ele>3287.199951171875</ele>
        <time>2021-06-26T15:21:08.000Z</time>
        <extensions>
          <ns3:TrackPointExtension>
            <ns3:atemp>27.0</ns3:atemp>
            <ns3:hr>124</ns3:hr>
          </ns3:TrackPointExtension>
        </extensions>
      </trkpt>
      <trkpt lat="36.80586964823305606842041015625" lon="-118.40605937875807285308837890625">
        <ele>3287.199951171875</ele>
        <time>2021-06-26T15:21:09.000Z</time>
        <extensions>
          <ns3:TrackPointExtension>
            <ns3:atemp>27.0</ns3:atemp>
            <ns3:hr>123</ns3:hr>
          </ns3:TrackPointExtension>
        </extensions>
      </trkpt>
      <trkpt lat="36.80581416003406047821044921875" lon="-118.40607413090765476226806640625">
        <ele>3288.39990234375</ele>
        <time>2021-06-26T15:21:15.000Z</time>
        <extensions>
          <ns3:TrackPointExtension>
            <ns3:atemp>27.0</ns3:atemp>
            <ns3:hr>126</ns3:hr>
          </ns3:TrackPointExtension>
        </extensions>
      </trkpt>
      <trkpt lat="36.80580996908247470855712890625" lon="-118.4060847759246826171875">
        <ele>3288.60009765625</ele>
        <time>2021-06-26T15:21:16.000Z</time>
        <extensions>
          <ns3:TrackPointExtension>
            <ns3:atemp>27.0</ns3:atemp>
            <ns3:hr>126</ns3:hr>
          </ns3:TrackPointExtension>
        </extensions>
      </trkpt>
      <trkpt lat="36.80581164546310901641845703125" lon="-118.406151495873928070068359375">
        <ele>3289.39990234375</ele>
        <time>2021-06-26T15:21:24.000Z</time>
        <extensions>
          <ns3:TrackPointExtension>
            <ns3:atemp>27.0</ns3:atemp>
            <ns3:hr>129</ns3:hr>
          </ns3:TrackPointExtension>
        </extensions>
      </trkpt>
      <trkpt lat="36.80581164546310901641845703125" lon="-118.4061593748629093170166015625">
        <ele>3289.60009765625</ele>
        <time>2021-06-26T15:21:25.000Z</time>
        <extensions>
          <ns3:TrackPointExtension>
            <ns3:atemp>27.0</ns3:atemp>
            <ns3:hr>129</ns3:hr>
          </ns3:TrackPointExtension>
        </extensions>
      </trkpt>
      <trkpt lat="36.805784404277801513671875" lon="-118.40618846006691455841064453125">
        <ele>3290.39990234375</ele>
        <time>2021-06-26T15:21:35.000Z</time>
        <extensions>
          <ns3:TrackPointExtension>
            <ns3:atemp>27.0</ns3:atemp>
            <ns3:hr>127</ns3:hr>
          </ns3:TrackPointExtension>
        </extensions>
      </trkpt>
      <trkpt lat="36.80578482337296009063720703125" lon="-118.40619851835072040557861328125">
        <ele>3290.800048828125</ele>
        <time>2021-06-26T15:21:36.000Z</time>
        <extensions>
          <ns3:TrackPointExtension>
            <ns3:atemp>27.0</ns3:atemp>
            <ns3:hr>126</ns3:hr>
          </ns3:TrackPointExtension>
        </extensions>
      </trkpt>
      <trkpt lat="36.8058010004460811614990234375" lon="-118.406257443130016326904296875">
        <ele>3291.800048828125</ele>
        <time>2021-06-26T15:21:43.000Z</time>
        <extensions>
          <ns3:TrackPointExtension>
            <ns3:atemp>27.0</ns3:atemp>
            <ns3:hr>126</ns3:hr>
          </ns3:TrackPointExtension>
        </extensions>
      </trkpt>
      <trkpt lat="36.8058056943118572235107421875" lon="-118.40627244673669338226318359375">
        <ele>3292</ele>
        <time>2021-06-26T15:21:44.000Z</time>
        <extensions>
          <ns3:TrackPointExtension>
            <ns3:atemp>27.0</ns3:atemp>
            <ns3:hr>128</ns3:hr>
          </ns3:TrackPointExtension>
        </extensions>
      </trkpt>
      <trkpt lat="36.805814243853092193603515625" lon="-118.40629331767559051513671875">
        <ele>3292.39990234375</ele>
        <time>2021-06-26T15:21:46.000Z</time>
        <extensions>
          <ns3:TrackPointExtension>
            <ns3:atemp>27.0</ns3:atemp>
            <ns3:hr>131</ns3:hr>
          </ns3:TrackPointExtension>
        </extensions>
      </trkpt>
      <trkpt lat="36.80584768764674663543701171875" lon="-118.40628200210630893707275390625">
        <ele>3292.800048828125</ele>
        <time>2021-06-26T15:21:49.000Z</time>
        <extensions>
          <ns3:TrackPointExtension>
            <ns3:atemp>27.0</ns3:atemp>
            <ns3:hr>130</ns3:hr>
          </ns3:TrackPointExtension>
        </extensions>
      </trkpt>
      <trkpt lat="36.80587098933756351470947265625" lon="-118.4062730334699153900146484375">
        <ele>3293</ele>
        <time>2021-06-26T15:21:51.000Z</time>
        <extensions>
          <ns3:TrackPointExtension>
            <ns3:atemp>27.0</ns3:atemp>
            <ns3:hr>127</ns3:hr>
          </ns3:TrackPointExtension>
        </extensions>
      </trkpt>
      <trkpt lat="36.80588431656360626220703125" lon="-118.40627253055572509765625">
        <ele>3293.199951171875</ele>
        <time>2021-06-26T15:21:53.000Z</time>
        <extensions>
          <ns3:TrackPointExtension>
            <ns3:atemp>27.0</ns3:atemp>
            <ns3:hr>123</ns3:hr>
          </ns3:TrackPointExtension>
        </extensions>
      </trkpt>
      <trkpt lat="36.8059022538363933563232421875" lon="-118.4062686748802661895751953125">
        <ele>3293.800048828125</ele>
        <time>2021-06-26T15:21:55.000Z</time>
        <extensions>
          <ns3:TrackPointExtension>
            <ns3:atemp>27.0</ns3:atemp>
            <ns3:hr>122</ns3:hr>
          </ns3:TrackPointExtension>
        </extensions>
      </trkpt>
      <trkpt lat="36.8059166707098484039306640625" lon="-118.4062685072422027587890625">
        <ele>3294</ele>
        <time>2021-06-26T15:21:58.000Z</time>
        <extensions>
          <ns3:TrackPointExtension>
            <ns3:atemp>27.0</ns3:atemp>
            <ns3:hr>121</ns3:hr>
          </ns3:TrackPointExtension>
        </extensions>
      </trkpt>
      <trkpt lat="36.80591776035726070404052734375" lon="-118.40631938539445400238037109375">
        <ele>3294.800048828125</ele>
        <time>2021-06-26T15:22:04.000Z</time>
        <extensions>
          <ns3:TrackPointExtension>
            <ns3:atemp>27.0</ns3:atemp>
            <ns3:hr>122</ns3:hr>
          </ns3:TrackPointExtension>
        </extensions>
      </trkpt>
      <trkpt lat="36.8059160001575946807861328125" lon="-118.4063275158405303955078125">
        <ele>3295</ele>
        <time>2021-06-26T15:22:05.000Z</time>
        <extensions>
          <ns3:TrackPointExtension>
            <ns3:atemp>27.0</ns3:atemp>
            <ns3:hr>123</ns3:hr>
          </ns3:TrackPointExtension>
        </extensions>
      </trkpt>
      <trkpt lat="36.80591977201402187347412109375" lon="-118.40636414475739002227783203125">
        <ele>3295.800048828125</ele>
        <time>2021-06-26T15:22:12.000Z</time>
        <extensions>
          <ns3:TrackPointExtension>
            <ns3:atemp>27.0</ns3:atemp>
            <ns3:hr>121</ns3:hr>
          </ns3:TrackPointExtension>
        </extensions>
      </trkpt>
      <trkpt lat="36.805941648781299591064453125" lon="-118.40637939982116222381591796875">
        <ele>3295.800048828125</ele>
        <time>2021-06-26T15:22:18.000Z</time>
        <extensions>
          <ns3:TrackPointExtension>
            <ns3:atemp>27.0</ns3:atemp>
            <ns3:hr>120</ns3:hr>
          </ns3:TrackPointExtension>
        </extensions>
      </trkpt>
      <trkpt lat="36.80594340898096561431884765625" lon="-118.406357355415821075439453125">
        <ele>3295.800048828125</ele>
        <time>2021-06-26T15:22:26.000Z</time>
        <extensions>
          <ns3:TrackPointExtension>
            <ns3:atemp>27.0</ns3:atemp>
            <ns3:hr>117</ns3:hr>
          </ns3:TrackPointExtension>
        </extensions>
      </trkpt>
      <trkpt lat="36.80594407953321933746337890625" lon="-118.40636045671999454498291015625">
        <ele>3296.60009765625</ele>
        <time>2021-06-26T15:22:27.000Z</time>
        <extensions>
          <ns3:TrackPointExtension>
            <ns3:atemp>27.0</ns3:atemp>
            <ns3:hr>117</ns3:hr>
          </ns3:TrackPointExtension>
        </extensions>
      </trkpt>
      <trkpt lat="36.8059439957141876220703125" lon="-118.40636867098510265350341796875">
        <ele>3296.60009765625</ele>
        <time>2021-06-26T15:22:28.000Z</time>
        <extensions>
          <ns3:TrackPointExtension>
            <ns3:atemp>27.0</ns3:atemp>
            <ns3:hr>117</ns3:hr>
          </ns3:TrackPointExtension>
        </extensions>
      </trkpt>
      <trkpt lat="36.8059391342103481292724609375" lon="-118.406446874141693115234375">
        <ele>3298.199951171875</ele>
        <time>2021-06-26T15:22:36.000Z</time>
        <extensions>
          <ns3:TrackPointExtension>
            <ns3:atemp>27.0</ns3:atemp>
            <ns3:hr>115</ns3:hr>
          </ns3:TrackPointExtension>
        </extensions>
      </trkpt>
      <trkpt lat="36.80594290606677532196044921875" lon="-118.40645265765488147735595703125">
        <ele>3298.199951171875</ele>
        <time>2021-06-26T15:22:37.000Z</time>
        <extensions>
          <ns3:TrackPointExtension>
            <ns3:atemp>27.0</ns3:atemp>
            <ns3:hr>116</ns3:hr>
          </ns3:TrackPointExtension>
        </extensions>
      </trkpt>
      <trkpt lat="36.8059465102851390838623046875" lon="-118.40651099570095539093017578125">
        <ele>3299.60009765625</ele>
        <time>2021-06-26T15:22:45.000Z</time>
        <extensions>
          <ns3:TrackPointExtension>
            <ns3:atemp>27.0</ns3:atemp>
            <ns3:hr>117</ns3:hr>
          </ns3:TrackPointExtension>
        </extensions>
      </trkpt>
      <trkpt lat="36.80595095269381999969482421875" lon="-118.40653094463050365447998046875">
        <ele>3300.199951171875</ele>
        <time>2021-06-26T15:22:49.000Z</time>
        <extensions>
          <ns3:TrackPointExtension>
            <ns3:atemp>27.0</ns3:atemp>
            <ns3:hr>118</ns3:hr>
          </ns3:TrackPointExtension>
        </extensions>
      </trkpt>
      <trkpt lat="36.80594039149582386016845703125" lon="-118.40653597377240657806396484375">
        <ele>3300.39990234375</ele>
        <time>2021-06-26T15:22:52.000Z</time>
        <extensions>
          <ns3:TrackPointExtension>
            <ns3:atemp>27.0</ns3:atemp>
            <ns3:hr>120</ns3:hr>
          </ns3:TrackPointExtension>
        </extensions>
      </trkpt>
      <trkpt lat="36.80593620054423809051513671875" lon="-118.4065405838191509246826171875">
        <ele>3300.39990234375</ele>
        <time>2021-06-26T15:22:53.000Z</time>
        <extensions>
          <ns3:TrackPointExtension>
            <ns3:atemp>27.0</ns3:atemp>
            <ns3:hr>120</ns3:hr>
          </ns3:TrackPointExtension>
        </extensions>
      </trkpt>
      <trkpt lat="36.805934272706508636474609375" lon="-118.40654586441814899444580078125">
        <ele>3300.60009765625</ele>
        <time>2021-06-26T15:22:54.000Z</time>
        <extensions>
          <ns3:TrackPointExtension>
            <ns3:atemp>27.0</ns3:atemp>
            <ns3:hr>121</ns3:hr>
          </ns3:TrackPointExtension>
        </extensions>
      </trkpt>
      <trkpt lat="36.80593301542103290557861328125" lon="-118.406567238271236419677734375">
        <ele>3301.199951171875</ele>
        <time>2021-06-26T15:22:56.000Z</time>
        <extensions>
          <ns3:TrackPointExtension>
            <ns3:atemp>27.0</ns3:atemp>
            <ns3:hr>120</ns3:hr>
          </ns3:TrackPointExtension>
        </extensions>
      </trkpt>
      <trkpt lat="36.80593083612620830535888671875" lon="-118.4065704233944416046142578125">
        <ele>3301.39990234375</ele>
        <time>2021-06-26T15:22:58.000Z</time>
        <extensions>
          <ns3:TrackPointExtension>
            <ns3:atemp>27.0</ns3:atemp>
            <ns3:hr>121</ns3:hr>
          </ns3:TrackPointExtension>
        </extensions>
      </trkpt>
      <trkpt lat="36.805914156138896942138671875" lon="-118.40659615583717823028564453125">
        <ele>3302</ele>
        <time>2021-06-26T15:23:01.000Z</time>
        <extensions>
          <ns3:TrackPointExtension>
            <ns3:atemp>27.0</ns3:atemp>
            <ns3:hr>121</ns3:hr>
          </ns3:TrackPointExtension>
        </extensions>
      </trkpt>
      <trkpt lat="36.80590032599866390228271484375" lon="-118.406610153615474700927734375">
        <ele>3302.800048828125</ele>
        <time>2021-06-26T15:23:04.000Z</time>
        <extensions>
          <ns3:TrackPointExtension>
            <ns3:atemp>27.0</ns3:atemp>
            <ns3:hr>119</ns3:hr>
          </ns3:TrackPointExtension>
        </extensions>
      </trkpt>
      <trkpt lat="36.805890686810016632080078125" lon="-118.406637646257877349853515625">
        <ele>3303.39990234375</ele>
        <time>2021-06-26T15:23:08.000Z</time>
        <extensions>
          <ns3:TrackPointExtension>
            <ns3:atemp>27.0</ns3:atemp>
            <ns3:hr>119</ns3:hr>
          </ns3:TrackPointExtension>
        </extensions>
      </trkpt>
      <trkpt lat="36.80589177645742893218994140625" lon="-118.406640999019145965576171875">
        <ele>3303.39990234375</ele>
        <time>2021-06-26T15:23:09.000Z</time>
        <extensions>
          <ns3:TrackPointExtension>
            <ns3:atemp>27.0</ns3:atemp>
            <ns3:hr>118</ns3:hr>
          </ns3:TrackPointExtension>
        </extensions>
      </trkpt>
      <trkpt lat="36.8058834783732891082763671875" lon="-118.4066612832248210906982421875">
        <ele>3304.39990234375</ele>
        <time>2021-06-26T15:23:12.000Z</time>
        <extensions>
          <ns3:TrackPointExtension>
            <ns3:atemp>27.0</ns3:atemp>
            <ns3:hr>118</ns3:hr>
          </ns3:TrackPointExtension>
        </extensions>
      </trkpt>
      <trkpt lat="36.80585137568414211273193359375" lon="-118.4066803939640522003173828125">
        <ele>3305</ele>
        <time>2021-06-26T15:23:17.000Z</time>
        <extensions>
          <ns3:TrackPointExtension>
            <ns3:atemp>27.0</ns3:atemp>
            <ns3:hr>119</ns3:hr>
          </ns3:TrackPointExtension>
        </extensions>
      </trkpt>
      <trkpt lat="36.8058395572006702423095703125" lon="-118.40670377947390079498291015625">
        <ele>3306</ele>
        <time>2021-06-26T15:23:20.000Z</time>
        <extensions>
          <ns3:TrackPointExtension>
            <ns3:atemp>27.0</ns3:atemp>
            <ns3:hr>122</ns3:hr>
          </ns3:TrackPointExtension>
        </extensions>
      </trkpt>
      <trkpt lat="36.8058227933943271636962890625" lon="-118.40673462487757205963134765625">
        <ele>3306.39990234375</ele>
        <time>2021-06-26T15:23:25.000Z</time>
        <extensions>
          <ns3:TrackPointExtension>
            <ns3:atemp>27.0</ns3:atemp>
            <ns3:hr>122</ns3:hr>
          </ns3:TrackPointExtension>
        </extensions>
      </trkpt>
      <trkpt lat="36.80584953166544437408447265625" lon="-118.40676806867122650146484375">
        <ele>3307</ele>
        <time>2021-06-26T15:23:30.000Z</time>
        <extensions>
          <ns3:TrackPointExtension>
            <ns3:atemp>27.0</ns3:atemp>
            <ns3:hr>121</ns3:hr>
          </ns3:TrackPointExtension>
        </extensions>
      </trkpt>
      <trkpt lat="36.8058586679399013519287109375" lon="-118.4067742712795734405517578125">
        <ele>3307.199951171875</ele>
        <time>2021-06-26T15:23:31.000Z</time>
        <extensions>
          <ns3:TrackPointExtension>
            <ns3:atemp>27.0</ns3:atemp>
            <ns3:hr>121</ns3:hr>
          </ns3:TrackPointExtension>
        </extensions>
      </trkpt>
      <trkpt lat="36.8058875016868114471435546875" lon="-118.4067672304809093475341796875">
        <ele>3308</ele>
        <time>2021-06-26T15:23:35.000Z</time>
        <extensions>
          <ns3:TrackPointExtension>
            <ns3:atemp>27.0</ns3:atemp>
            <ns3:hr>121</ns3:hr>
          </ns3:TrackPointExtension>
        </extensions>
      </trkpt>
      <trkpt lat="36.8059010803699493408203125" lon="-118.406793214380741119384765625">
        <ele>3308.800048828125</ele>
        <time>2021-06-26T15:23:40.000Z</time>
        <extensions>
          <ns3:TrackPointExtension>
            <ns3:atemp>27.0</ns3:atemp>
            <ns3:hr>121</ns3:hr>
          </ns3:TrackPointExtension>
        </extensions>
      </trkpt>
      <trkpt lat="36.80593066848814487457275390625" lon="-118.40678676031529903411865234375">
        <ele>3309.199951171875</ele>
        <time>2021-06-26T15:23:43.000Z</time>
        <extensions>
          <ns3:TrackPointExtension>
            <ns3:atemp>27.0</ns3:atemp>
            <ns3:hr>122</ns3:hr>
          </ns3:TrackPointExtension>
        </extensions>
      </trkpt>
      <trkpt lat="36.80595430545508861541748046875" lon="-118.40677686966955661773681640625">
        <ele>3309.39990234375</ele>
        <time>2021-06-26T15:23:46.000Z</time>
        <extensions>
          <ns3:TrackPointExtension>
            <ns3:atemp>27.0</ns3:atemp>
            <ns3:hr>125</ns3:hr>
          </ns3:TrackPointExtension>
        </extensions>
      </trkpt>
      <trkpt lat="36.805969811975955963134765625" lon="-118.4067903645336627960205078125">
        <ele>3309.800048828125</ele>
        <time>2021-06-26T15:23:49.000Z</time>
        <extensions>
          <ns3:TrackPointExtension>
            <ns3:atemp>27.0</ns3:atemp>
            <ns3:hr>128</ns3:hr>
          </ns3:TrackPointExtension>
        </extensions>
      </trkpt>
      <trkpt lat="36.80598548613488674163818359375" lon="-118.40678877197206020355224609375">
        <ele>3310.199951171875</ele>
        <time>2021-06-26T15:23:51.000Z</time>
        <extensions>
          <ns3:TrackPointExtension>
            <ns3:atemp>27.0</ns3:atemp>
            <ns3:hr>128</ns3:hr>
          </ns3:TrackPointExtension>
        </extensions>
      </trkpt>
      <trkpt lat="36.80599755607545375823974609375" lon="-118.40678843669593334197998046875">
        <ele>3310.39990234375</ele>
        <time>2021-06-26T15:23:53.000Z</time>
        <extensions>
          <ns3:TrackPointExtension>
            <ns3:atemp>27.0</ns3:atemp>
            <ns3:hr>129</ns3:hr>
          </ns3:TrackPointExtension>
        </extensions>
      </trkpt>
      <trkpt lat="36.8060018308460712432861328125" lon="-118.406791873276233673095703125">
        <ele>3311</ele>
        <time>2021-06-26T15:23:54.000Z</time>
        <extensions>
          <ns3:TrackPointExtension>
            <ns3:atemp>27.0</ns3:atemp>
            <ns3:hr>126</ns3:hr>
          </ns3:TrackPointExtension>
        </extensions>
      </trkpt>
      <trkpt lat="36.806008033454418182373046875" lon="-118.40680721215903759002685546875">
        <ele>3311.39990234375</ele>
        <time>2021-06-26T15:23:56.000Z</time>
        <extensions>
          <ns3:TrackPointExtension>
            <ns3:atemp>27.0</ns3:atemp>
            <ns3:hr>128</ns3:hr>
          </ns3:TrackPointExtension>
        </extensions>
      </trkpt>
      <trkpt lat="36.8060403876006603240966796875" lon="-118.4068185277283191680908203125">
        <ele>3311.60009765625</ele>
        <time>2021-06-26T15:23:59.000Z</time>
        <extensions>
          <ns3:TrackPointExtension>
            <ns3:atemp>27.0</ns3:atemp>
            <ns3:hr>131</ns3:hr>
          </ns3:TrackPointExtension>
        </extensions>
      </trkpt>
      <trkpt lat="36.80604801513254642486572265625" lon="-118.40681090019643306732177734375">
        <ele>3312.199951171875</ele>
        <time>2021-06-26T15:24:01.000Z</time>
        <extensions>
          <ns3:TrackPointExtension>
            <ns3:atemp>27.0</ns3:atemp>
            <ns3:hr>128</ns3:hr>
          </ns3:TrackPointExtension>
        </extensions>
      </trkpt>
      <trkpt lat="36.80608808062970638275146484375" lon="-118.40680503286421298980712890625">
        <ele>3312.60009765625</ele>
        <time>2021-06-26T15:24:06.000Z</time>
        <extensions>
          <ns3:TrackPointExtension>
            <ns3:atemp>27.0</ns3:atemp>
            <ns3:hr>127</ns3:hr>
          </ns3:TrackPointExtension>
        </extensions>
      </trkpt>
      <trkpt lat="36.80609579198062419891357421875" lon="-118.40680654160678386688232421875">
        <ele>3312.60009765625</ele>
        <time>2021-06-26T15:24:07.000Z</time>
        <extensions>
          <ns3:TrackPointExtension>
            <ns3:atemp>27.0</ns3:atemp>
            <ns3:hr>124</ns3:hr>
          </ns3:TrackPointExtension>
        </extensions>
      </trkpt>
      <trkpt lat="36.80610886774957180023193359375" lon="-118.40682565234601497650146484375">
        <ele>3313.60009765625</ele>
        <time>2021-06-26T15:24:10.000Z</time>
        <extensions>
          <ns3:TrackPointExtension>
            <ns3:atemp>27.0</ns3:atemp>
            <ns3:hr>122</ns3:hr>
          </ns3:TrackPointExtension>
        </extensions>
      </trkpt>
      <trkpt lat="36.80611230432987213134765625" lon="-118.4068289212882518768310546875">
        <ele>3313.60009765625</ele>
        <time>2021-06-26T15:24:11.000Z</time>
        <extensions>
          <ns3:TrackPointExtension>
            <ns3:atemp>27.0</ns3:atemp>
            <ns3:hr>122</ns3:hr>
          </ns3:TrackPointExtension>
        </extensions>
      </trkpt>
      <trkpt lat="36.80616804398596286773681640625" lon="-118.4068155102431774139404296875">
        <ele>3314.60009765625</ele>
        <time>2021-06-26T15:24:18.000Z</time>
        <extensions>
          <ns3:TrackPointExtension>
            <ns3:atemp>27.0</ns3:atemp>
            <ns3:hr>121</ns3:hr>
          </ns3:TrackPointExtension>
        </extensions>
      </trkpt>
      <trkpt lat="36.80618849582970142364501953125" lon="-118.40680603869259357452392578125">
        <ele>3314.800048828125</ele>
        <time>2021-06-26T15:24:21.000Z</time>
        <extensions>
          <ns3:TrackPointExtension>
            <ns3:atemp>27.0</ns3:atemp>
            <ns3:hr>122</ns3:hr>
          </ns3:TrackPointExtension>
        </extensions>
      </trkpt>
      <trkpt lat="36.8061969615519046783447265625" lon="-118.406820707023143768310546875">
        <ele>3315.199951171875</ele>
        <time>2021-06-26T15:24:24.000Z</time>
        <extensions>
          <ns3:TrackPointExtension>
            <ns3:atemp>27.0</ns3:atemp>
            <ns3:hr>123</ns3:hr>
          </ns3:TrackPointExtension>
        </extensions>
      </trkpt>
      <trkpt lat="36.80620341561734676361083984375" lon="-118.40684426017105579376220703125">
        <ele>3316</ele>
        <time>2021-06-26T15:24:28.000Z</time>
        <extensions>
          <ns3:TrackPointExtension>
            <ns3:atemp>27.0</ns3:atemp>
            <ns3:hr>124</ns3:hr>
          </ns3:TrackPointExtension>
        </extensions>
      </trkpt>
      <trkpt lat="36.806223280727863311767578125" lon="-118.4068664722144603729248046875">
        <ele>3316.39990234375</ele>
        <time>2021-06-26T15:24:32.000Z</time>
        <extensions>
          <ns3:TrackPointExtension>
            <ns3:atemp>27.0</ns3:atemp>
            <ns3:hr>121</ns3:hr>
          </ns3:TrackPointExtension>
        </extensions>
      </trkpt>
      <trkpt lat="36.806244738399982452392578125" lon="-118.40686320327222347259521484375">
        <ele>3316.60009765625</ele>
        <time>2021-06-26T15:24:35.000Z</time>
        <extensions>
          <ns3:TrackPointExtension>
            <ns3:atemp>27.0</ns3:atemp>
            <ns3:hr>122</ns3:hr>
          </ns3:TrackPointExtension>
        </extensions>
      </trkpt>
      <trkpt lat="36.8062650226056575775146484375" lon="-118.40686504729092121124267578125">
        <ele>3317.39990234375</ele>
        <time>2021-06-26T15:24:38.000Z</time>
        <extensions>
          <ns3:TrackPointExtension>
            <ns3:atemp>27.0</ns3:atemp>
            <ns3:hr>122</ns3:hr>
          </ns3:TrackPointExtension>
        </extensions>
      </trkpt>
      <trkpt lat="36.80627315305173397064208984375" lon="-118.4068570844829082489013671875">
        <ele>3317.60009765625</ele>
        <time>2021-06-26T15:24:41.000Z</time>
        <extensions>
          <ns3:TrackPointExtension>
            <ns3:atemp>27.0</ns3:atemp>
            <ns3:hr>123</ns3:hr>
          </ns3:TrackPointExtension>
        </extensions>
      </trkpt>
      <trkpt lat="36.806280948221683502197265625" lon="-118.40686521492898464202880859375">
        <ele>3317.39990234375</ele>
        <time>2021-06-26T15:24:49.000Z</time>
        <extensions>
          <ns3:TrackPointExtension>
            <ns3:atemp>27.0</ns3:atemp>
            <ns3:hr>124</ns3:hr>
          </ns3:TrackPointExtension>
        </extensions>
      </trkpt>
      <trkpt lat="36.80628639645874500274658203125" lon="-118.4068639576435089111328125">
        <ele>3318.800048828125</ele>
        <time>2021-06-26T15:24:59.000Z</time>
        <extensions>
          <ns3:TrackPointExtension>
            <ns3:atemp>27.0</ns3:atemp>
            <ns3:hr>124</ns3:hr>
          </ns3:TrackPointExtension>
        </extensions>
      </trkpt>
      <trkpt lat="36.80632897652685642242431640625" lon="-118.40686798095703125">
        <ele>3319</ele>
        <time>2021-06-26T15:25:02.000Z</time>
        <extensions>
          <ns3:TrackPointExtension>
            <ns3:atemp>27.0</ns3:atemp>
            <ns3:hr>123</ns3:hr>
          </ns3:TrackPointExtension>
        </extensions>
      </trkpt>
      <trkpt lat="36.80641748942434787750244140625" lon="-118.406831435859203338623046875">
        <ele>3319.800048828125</ele>
        <time>2021-06-26T15:25:08.000Z</time>
        <extensions>
          <ns3:TrackPointExtension>
            <ns3:atemp>27.0</ns3:atemp>
            <ns3:hr>122</ns3:hr>
          </ns3:TrackPointExtension>
        </extensions>
      </trkpt>
      <trkpt lat="36.80643022991716861724853515625" lon="-118.40682481415569782257080078125">
        <ele>3320</ele>
        <time>2021-06-26T15:25:09.000Z</time>
        <extensions>
          <ns3:TrackPointExtension>
            <ns3:atemp>27.0</ns3:atemp>
            <ns3:hr>121</ns3:hr>
          </ns3:TrackPointExtension>
        </extensions>
      </trkpt>
      <trkpt lat="36.8064581416547298431396484375" lon="-118.4068183600902557373046875">
        <ele>3320.800048828125</ele>
        <time>2021-06-26T15:25:13.000Z</time>
        <extensions>
          <ns3:TrackPointExtension>
            <ns3:atemp>27.0</ns3:atemp>
            <ns3:hr>120</ns3:hr>
          </ns3:TrackPointExtension>
        </extensions>
      </trkpt>
      <trkpt lat="36.80647415108978748321533203125" lon="-118.4068161807954311370849609375">
        <ele>3321.39990234375</ele>
        <time>2021-06-26T15:25:15.000Z</time>
        <extensions>
          <ns3:TrackPointExtension>
            <ns3:atemp>27.0</ns3:atemp>
            <ns3:hr>121</ns3:hr>
          </ns3:TrackPointExtension>
        </extensions>
      </trkpt>
      <trkpt lat="36.8065037392079830169677734375" lon="-118.40683646500110626220703125">
        <ele>3322</ele>
        <time>2021-06-26T15:25:18.000Z</time>
        <extensions>
          <ns3:TrackPointExtension>
            <ns3:atemp>27.0</ns3:atemp>
            <ns3:hr>119</ns3:hr>
          </ns3:TrackPointExtension>
        </extensions>
      </trkpt>
      <trkpt lat="36.80651086382567882537841796875" lon="-118.40683520771563053131103515625">
        <ele>3322.199951171875</ele>
        <time>2021-06-26T15:25:20.000Z</time>
        <extensions>
          <ns3:TrackPointExtension>
            <ns3:atemp>27.0</ns3:atemp>
            <ns3:hr>115</ns3:hr>
          </ns3:TrackPointExtension>
        </extensions>
      </trkpt>
      <trkpt lat="36.8065245263278484344482421875" lon="-118.4068158455193042755126953125">
        <ele>3322.39990234375</ele>
        <time>2021-06-26T15:25:21.000Z</time>
        <extensions>
          <ns3:TrackPointExtension>
            <ns3:atemp>27.0</ns3:atemp>
            <ns3:hr>115</ns3:hr>
          </ns3:TrackPointExtension>
        </extensions>
      </trkpt>
      <trkpt lat="36.80655545555055141448974609375" lon="-118.4067950583994388580322265625">
        <ele>3323.199951171875</ele>
        <time>2021-06-26T15:25:24.000Z</time>
        <extensions>
          <ns3:TrackPointExtension>
            <ns3:atemp>27.0</ns3:atemp>
            <ns3:hr>117</ns3:hr>
          </ns3:TrackPointExtension>
        </extensions>
      </trkpt>
      <trkpt lat="36.8065956048667430877685546875" lon="-118.406785838305950164794921875">
        <ele>3323.199951171875</ele>
        <time>2021-06-26T15:25:27.000Z</time>
        <extensions>
          <ns3:TrackPointExtension>
            <ns3:atemp>27.0</ns3:atemp>
            <ns3:hr>119</ns3:hr>
          </ns3:TrackPointExtension>
        </extensions>
      </trkpt>
      <trkpt lat="36.8066861294209957122802734375" lon="-118.4068131633102893829345703125">
        <ele>3322.800048828125</ele>
        <time>2021-06-26T15:25:37.000Z</time>
        <extensions>
          <ns3:TrackPointExtension>
            <ns3:atemp>27.0</ns3:atemp>
            <ns3:hr>120</ns3:hr>
          </ns3:TrackPointExtension>
        </extensions>
      </trkpt>
      <trkpt lat="36.8067163042724132537841796875" lon="-118.40681542642414569854736328125">
        <ele>3322.60009765625</ele>
        <time>2021-06-26T15:25:40.000Z</time>
        <extensions>
          <ns3:TrackPointExtension>
            <ns3:atemp>27.0</ns3:atemp>
            <ns3:hr>123</ns3:hr>
          </ns3:TrackPointExtension>
        </extensions>
      </trkpt>
      <trkpt lat="36.80675528012216091156005859375" lon="-118.40682699345052242279052734375">
        <ele>3321.800048828125</ele>
        <time>2021-06-26T15:25:44.000Z</time>
        <extensions>
          <ns3:TrackPointExtension>
            <ns3:atemp>27.0</ns3:atemp>
            <ns3:hr>119</ns3:hr>
          </ns3:TrackPointExtension>
        </extensions>
      </trkpt>
      <trkpt lat="36.80677036754786968231201171875" lon="-118.40683302842080593109130859375">
        <ele>3321.60009765625</ele>
        <time>2021-06-26T15:25:46.000Z</time>
        <extensions>
          <ns3:TrackPointExtension>
            <ns3:atemp>27.0</ns3:atemp>
            <ns3:hr>115</ns3:hr>
          </ns3:TrackPointExtension>
        </extensions>
      </trkpt>
      <trkpt lat="36.8067820183932781219482421875" lon="-118.40683889575302600860595703125">
        <ele>3321.199951171875</ele>
        <time>2021-06-26T15:25:48.000Z</time>
        <extensions>
          <ns3:TrackPointExtension>
            <ns3:atemp>27.0</ns3:atemp>
            <ns3:hr>112</ns3:hr>
          </ns3:TrackPointExtension>
        </extensions>
      </trkpt>
      <trkpt lat="36.80679081939160823822021484375" lon="-118.406833447515964508056640625">
        <ele>3321</ele>
        <time>2021-06-26T15:25:49.000Z</time>
        <extensions>
          <ns3:TrackPointExtension>
            <ns3:atemp>27.0</ns3:atemp>
            <ns3:hr>111</ns3:hr>
          </ns3:TrackPointExtension>
        </extensions>
      </trkpt>
      <trkpt lat="36.80680640973150730133056640625" lon="-118.40682950802147388458251953125">
        <ele>3320.800048828125</ele>
        <time>2021-06-26T15:25:51.000Z</time>
        <extensions>
          <ns3:TrackPointExtension>
            <ns3:atemp>27.0</ns3:atemp>
            <ns3:hr>113</ns3:hr>
          </ns3:TrackPointExtension>
        </extensions>
      </trkpt>
      <trkpt lat="36.80681847967207431793212890625" lon="-118.40684342198073863983154296875">
        <ele>3320</ele>
        <time>2021-06-26T15:25:53.000Z</time>
        <extensions>
          <ns3:TrackPointExtension>
            <ns3:atemp>27.0</ns3:atemp>
            <ns3:hr>111</ns3:hr>
          </ns3:TrackPointExtension>
        </extensions>
      </trkpt>
      <trkpt lat="36.8068396858870983123779296875" lon="-118.4068647958338260650634765625">
        <ele>3319.60009765625</ele>
        <time>2021-06-26T15:25:55.000Z</time>
        <extensions>
          <ns3:TrackPointExtension>
            <ns3:atemp>27.0</ns3:atemp>
            <ns3:hr>108</ns3:hr>
          </ns3:TrackPointExtension>
        </extensions>
      </trkpt>
      <trkpt lat="36.80689307861030101776123046875" lon="-118.40689606033265590667724609375">
        <ele>3319.39990234375</ele>
        <time>2021-06-26T15:26:00.000Z</time>
        <extensions>
          <ns3:TrackPointExtension>
            <ns3:atemp>27.0</ns3:atemp>
            <ns3:hr>109</ns3:hr>
          </ns3:TrackPointExtension>
        </extensions>
      </trkpt>
      <trkpt lat="36.8069416098296642303466796875" lon="-118.40692874975502490997314453125">
        <ele>3318.800048828125</ele>
        <time>2021-06-26T15:26:05.000Z</time>
        <extensions>
          <ns3:TrackPointExtension>
            <ns3:atemp>27.0</ns3:atemp>
            <ns3:hr>109</ns3:hr>
          </ns3:TrackPointExtension>
        </extensions>
      </trkpt>
      <trkpt lat="36.80696700699627399444580078125" lon="-118.40693143196403980255126953125">
        <ele>3318.60009765625</ele>
        <time>2021-06-26T15:26:07.000Z</time>
        <extensions>
          <ns3:TrackPointExtension>
            <ns3:atemp>27.0</ns3:atemp>
            <ns3:hr>109</ns3:hr>
          </ns3:TrackPointExtension>
        </extensions>
      </trkpt>
      <trkpt lat="36.80698729120194911956787109375" lon="-118.4069372154772281646728515625">
        <ele>3318.60009765625</ele>
        <time>2021-06-26T15:26:09.000Z</time>
        <extensions>
          <ns3:TrackPointExtension>
            <ns3:atemp>27.0</ns3:atemp>
            <ns3:hr>106</ns3:hr>
          </ns3:TrackPointExtension>
        </extensions>
      </trkpt>
      <trkpt lat="36.80702484212815761566162109375" lon="-118.4069551527500152587890625">
        <ele>3318.800048828125</ele>
        <time>2021-06-26T15:26:13.000Z</time>
        <extensions>
          <ns3:TrackPointExtension>
            <ns3:atemp>27.0</ns3:atemp>
            <ns3:hr>102</ns3:hr>
          </ns3:TrackPointExtension>
        </extensions>
      </trkpt>
      <trkpt lat="36.8070490658283233642578125" lon="-118.406952135264873504638671875">
        <ele>3319.199951171875</ele>
        <time>2021-06-26T15:26:15.000Z</time>
        <extensions>
          <ns3:TrackPointExtension>
            <ns3:atemp>27.0</ns3:atemp>
            <ns3:hr>104</ns3:hr>
          </ns3:TrackPointExtension>
        </extensions>
      </trkpt>
      <trkpt lat="36.807111091911792755126953125" lon="-118.40693813748657703399658203125">
        <ele>3319.199951171875</ele>
        <time>2021-06-26T15:26:20.000Z</time>
        <extensions>
          <ns3:TrackPointExtension>
            <ns3:atemp>27.0</ns3:atemp>
            <ns3:hr>107</ns3:hr>
          </ns3:TrackPointExtension>
        </extensions>
      </trkpt>
      <trkpt lat="36.80714227259159088134765625" lon="-118.4069283306598663330078125">
        <ele>3319</ele>
        <time>2021-06-26T15:26:23.000Z</time>
        <extensions>
          <ns3:TrackPointExtension>
            <ns3:atemp>27.0</ns3:atemp>
            <ns3:hr>110</ns3:hr>
          </ns3:TrackPointExtension>
        </extensions>
      </trkpt>
      <trkpt lat="36.80715434253215789794921875" lon="-118.40693704783916473388671875">
        <ele>3319</ele>
        <time>2021-06-26T15:26:25.000Z</time>
        <extensions>
          <ns3:TrackPointExtension>
            <ns3:atemp>27.0</ns3:atemp>
            <ns3:hr>108</ns3:hr>
          </ns3:TrackPointExtension>
        </extensions>
      </trkpt>
      <trkpt lat="36.807180829346179962158203125" lon="-118.406927324831485748291015625">
        <ele>3318.800048828125</ele>
        <time>2021-06-26T15:26:29.000Z</time>
        <extensions>
          <ns3:TrackPointExtension>
            <ns3:atemp>27.0</ns3:atemp>
            <ns3:hr>107</ns3:hr>
          </ns3:TrackPointExtension>
        </extensions>
      </trkpt>
      <trkpt lat="36.80718476884067058563232421875" lon="-118.4069248102605342864990234375">
        <ele>3318.39990234375</ele>
        <time>2021-06-26T15:26:31.000Z</time>
        <extensions>
          <ns3:TrackPointExtension>
            <ns3:atemp>27.0</ns3:atemp>
            <ns3:hr>105</ns3:hr>
          </ns3:TrackPointExtension>
        </extensions>
      </trkpt>
      <trkpt lat="36.807226426899433135986328125" lon="-118.40689354576170444488525390625">
        <ele>3317.60009765625</ele>
        <time>2021-06-26T15:26:36.000Z</time>
        <extensions>
          <ns3:TrackPointExtension>
            <ns3:atemp>27.0</ns3:atemp>
            <ns3:hr>102</ns3:hr>
          </ns3:TrackPointExtension>
        </extensions>
      </trkpt>
      <trkpt lat="36.8072299472987651824951171875" lon="-118.4068969823420047760009765625">
        <ele>3317.199951171875</ele>
        <time>2021-06-26T15:26:37.000Z</time>
        <extensions>
          <ns3:TrackPointExtension>
            <ns3:atemp>27.0</ns3:atemp>
            <ns3:hr>102</ns3:hr>
          </ns3:TrackPointExtension>
        </extensions>
      </trkpt>
      <trkpt lat="36.80724746547639369964599609375" lon="-118.406903184950351715087890625">
        <ele>3316.800048828125</ele>
        <time>2021-06-26T15:26:40.000Z</time>
        <extensions>
          <ns3:TrackPointExtension>
            <ns3:atemp>27.0</ns3:atemp>
            <ns3:hr>99</ns3:hr>
          </ns3:TrackPointExtension>
        </extensions>
      </trkpt>
      <trkpt lat="36.8072560988366603851318359375" lon="-118.406904526054859161376953125">
        <ele>3316.800048828125</ele>
        <time>2021-06-26T15:26:41.000Z</time>
        <extensions>
          <ns3:TrackPointExtension>
            <ns3:atemp>27.0</ns3:atemp>
            <ns3:hr>98</ns3:hr>
          </ns3:TrackPointExtension>
        </extensions>
      </trkpt>
      <trkpt lat="36.807271353900432586669921875" lon="-118.406906537711620330810546875">
        <ele>3316.199951171875</ele>
        <time>2021-06-26T15:26:43.000Z</time>
        <extensions>
          <ns3:TrackPointExtension>
            <ns3:atemp>27.0</ns3:atemp>
            <ns3:hr>95</ns3:hr>
          </ns3:TrackPointExtension>
        </extensions>
      </trkpt>
      <trkpt lat="36.80727730505168437957763671875" lon="-118.40690896846354007720947265625">
        <ele>3316.199951171875</ele>
        <time>2021-06-26T15:26:44.000Z</time>
        <extensions>
          <ns3:TrackPointExtension>
            <ns3:atemp>27.0</ns3:atemp>
            <ns3:hr>97</ns3:hr>
          </ns3:TrackPointExtension>
        </extensions>
      </trkpt>
      <trkpt lat="36.80731653235852718353271484375" lon="-118.4069053642451763153076171875">
        <ele>3315</ele>
        <time>2021-06-26T15:26:48.000Z</time>
        <extensions>
          <ns3:TrackPointExtension>
            <ns3:atemp>27.0</ns3:atemp>
            <ns3:hr>96</ns3:hr>
          </ns3:TrackPointExtension>
        </extensions>
      </trkpt>
      <trkpt lat="36.80733564309775829315185546875" lon="-118.406911231577396392822265625">
        <ele>3315</ele>
        <time>2021-06-26T15:26:50.000Z</time>
        <extensions>
          <ns3:TrackPointExtension>
            <ns3:atemp>27.0</ns3:atemp>
            <ns3:hr>97</ns3:hr>
          </ns3:TrackPointExtension>
        </extensions>
      </trkpt>
      <trkpt lat="36.80734486319124698638916015625" lon="-118.4069207869470119476318359375">
        <ele>3315</ele>
        <time>2021-06-26T15:26:51.000Z</time>
        <extensions>
          <ns3:TrackPointExtension>
            <ns3:atemp>27.0</ns3:atemp>
            <ns3:hr>97</ns3:hr>
          </ns3:TrackPointExtension>
        </extensions>
      </trkpt>
      <trkpt lat="36.8073912151157855987548828125" lon="-118.40693310834467411041259765625">
        <ele>3315</ele>
        <time>2021-06-26T15:26:56.000Z</time>
        <extensions>
          <ns3:TrackPointExtension>
            <ns3:atemp>27.0</ns3:atemp>
            <ns3:hr>96</ns3:hr>
          </ns3:TrackPointExtension>
        </extensions>
      </trkpt>
      <trkpt lat="36.80743974633514881134033203125" lon="-118.4069539792835712432861328125">
        <ele>3314.199951171875</ele>
        <time>2021-06-26T15:27:01.000Z</time>
        <extensions>
          <ns3:TrackPointExtension>
            <ns3:atemp>27.0</ns3:atemp>
            <ns3:hr>97</ns3:hr>
          </ns3:TrackPointExtension>
        </extensions>
      </trkpt>
      <trkpt lat="36.80745131336152553558349609375" lon="-118.4069683961570262908935546875">
        <ele>3314.199951171875</ele>
        <time>2021-06-26T15:27:03.000Z</time>
        <extensions>
          <ns3:TrackPointExtension>
            <ns3:atemp>27.0</ns3:atemp>
            <ns3:hr>98</ns3:hr>
          </ns3:TrackPointExtension>
        </extensions>
      </trkpt>
      <trkpt lat="36.80750696919858455657958984375" lon="-118.4070106409490108489990234375">
        <ele>3314.800048828125</ele>
        <time>2021-06-26T15:27:09.000Z</time>
        <extensions>
          <ns3:TrackPointExtension>
            <ns3:atemp>27.0</ns3:atemp>
            <ns3:hr>95</ns3:hr>
          </ns3:TrackPointExtension>
        </extensions>
      </trkpt>
      <trkpt lat="36.80752289481461048126220703125" lon="-118.40702019631862640380859375">
        <ele>3315</ele>
        <time>2021-06-26T15:27:11.000Z</time>
        <extensions>
          <ns3:TrackPointExtension>
            <ns3:atemp>27.0</ns3:atemp>
            <ns3:hr>98</ns3:hr>
          </ns3:TrackPointExtension>
        </extensions>
      </trkpt>
      <trkpt lat="36.80752742104232311248779296875" lon="-118.40702815912663936614990234375">
        <ele>3315</ele>
        <time>2021-06-26T15:27:12.000Z</time>
        <extensions>
          <ns3:TrackPointExtension>
            <ns3:atemp>27.0</ns3:atemp>
            <ns3:hr>99</ns3:hr>
          </ns3:TrackPointExtension>
        </extensions>
      </trkpt>
      <trkpt lat="36.80755256675183773040771484375" lon="-118.40706772170960903167724609375">
        <ele>3315.39990234375</ele>
        <time>2021-06-26T15:27:17.000Z</time>
        <extensions>
          <ns3:TrackPointExtension>
            <ns3:atemp>27.0</ns3:atemp>
            <ns3:hr>101</ns3:hr>
          </ns3:TrackPointExtension>
        </extensions>
      </trkpt>
      <trkpt lat="36.80756933055818080902099609375" lon="-118.40707694180309772491455078125">
        <ele>3315.800048828125</ele>
        <time>2021-06-26T15:27:19.000Z</time>
        <extensions>
          <ns3:TrackPointExtension>
            <ns3:atemp>27.0</ns3:atemp>
            <ns3:hr>103</ns3:hr>
          </ns3:TrackPointExtension>
        </extensions>
      </trkpt>
      <trkpt lat="36.80759020149707794189453125" lon="-118.40710736811161041259765625">
        <ele>3316</ele>
        <time>2021-06-26T15:27:22.000Z</time>
        <extensions>
          <ns3:TrackPointExtension>
            <ns3:atemp>27.0</ns3:atemp>
            <ns3:hr>104</ns3:hr>
          </ns3:TrackPointExtension>
        </extensions>
      </trkpt>
      <trkpt lat="36.80759489536285400390625" lon="-118.40711516328155994415283203125">
        <ele>3316</ele>
        <time>2021-06-26T15:27:23.000Z</time>
        <extensions>
          <ns3:TrackPointExtension>
            <ns3:atemp>27.0</ns3:atemp>
            <ns3:hr>104</ns3:hr>
          </ns3:TrackPointExtension>
        </extensions>
      </trkpt>
      <trkpt lat="36.80763848125934600830078125" lon="-118.40717484243214130401611328125">
        <ele>3316</ele>
        <time>2021-06-26T15:27:29.000Z</time>
        <extensions>
          <ns3:TrackPointExtension>
            <ns3:atemp>26.0</ns3:atemp>
            <ns3:hr>107</ns3:hr>
          </ns3:TrackPointExtension>
        </extensions>
      </trkpt>
      <trkpt lat="36.807678379118442535400390625" lon="-118.4072000719606876373291015625">
        <ele>3316.199951171875</ele>
        <time>2021-06-26T15:27:32.000Z</time>
        <extensions>
          <ns3:TrackPointExtension>
            <ns3:atemp>26.0</ns3:atemp>
            <ns3:hr>107</ns3:hr>
          </ns3:TrackPointExtension>
        </extensions>
      </trkpt>
      <trkpt lat="36.80772070772945880889892578125" lon="-118.4072647802531719207763671875">
        <ele>3316</ele>
        <time>2021-06-26T15:27:40.000Z</time>
        <extensions>
          <ns3:TrackPointExtension>
            <ns3:atemp>26.0</ns3:atemp>
            <ns3:hr>107</ns3:hr>
          </ns3:TrackPointExtension>
        </extensions>
      </trkpt>
      <trkpt lat="36.8077194504439830780029296875" lon="-118.40727140195667743682861328125">
        <ele>3316</ele>
        <time>2021-06-26T15:27:41.000Z</time>
        <extensions>
          <ns3:TrackPointExtension>
            <ns3:atemp>26.0</ns3:atemp>
            <ns3:hr>107</ns3:hr>
          </ns3:TrackPointExtension>
        </extensions>
      </trkpt>
      <trkpt lat="36.80774183012545108795166015625" lon="-118.4073459170758724212646484375">
        <ele>3317.199951171875</ele>
        <time>2021-06-26T15:27:48.000Z</time>
        <extensions>
          <ns3:TrackPointExtension>
            <ns3:atemp>26.0</ns3:atemp>
            <ns3:hr>106</ns3:hr>
          </ns3:TrackPointExtension>
        </extensions>
      </trkpt>
      <trkpt lat="36.80774417705833911895751953125" lon="-118.40735974721610546112060546875">
        <ele>3317.199951171875</ele>
        <time>2021-06-26T15:27:49.000Z</time>
        <extensions>
          <ns3:TrackPointExtension>
            <ns3:atemp>26.0</ns3:atemp>
            <ns3:hr>106</ns3:hr>
          </ns3:TrackPointExtension>
        </extensions>
      </trkpt>
      <trkpt lat="36.80774820037186145782470703125" lon="-118.4074055962264537811279296875">
        <ele>3317.60009765625</ele>
        <time>2021-06-26T15:27:52.000Z</time>
        <extensions>
          <ns3:TrackPointExtension>
            <ns3:atemp>26.0</ns3:atemp>
            <ns3:hr>109</ns3:hr>
          </ns3:TrackPointExtension>
        </extensions>
      </trkpt>
      <trkpt lat="36.80774937383830547332763671875" lon="-118.4074193425476551055908203125">
        <ele>3317.60009765625</ele>
        <time>2021-06-26T15:27:53.000Z</time>
        <extensions>
          <ns3:TrackPointExtension>
            <ns3:atemp>26.0</ns3:atemp>
            <ns3:hr>106</ns3:hr>
          </ns3:TrackPointExtension>
        </extensions>
      </trkpt>
      <trkpt lat="36.8077710829675197601318359375" lon="-118.40745865367352962493896484375">
        <ele>3317.800048828125</ele>
        <time>2021-06-26T15:27:57.000Z</time>
        <extensions>
          <ns3:TrackPointExtension>
            <ns3:atemp>26.0</ns3:atemp>
            <ns3:hr>109</ns3:hr>
          </ns3:TrackPointExtension>
        </extensions>
      </trkpt>
      <trkpt lat="36.807775609195232391357421875" lon="-118.4074659459292888641357421875">
        <ele>3318</ele>
        <time>2021-06-26T15:27:58.000Z</time>
        <extensions>
          <ns3:TrackPointExtension>
            <ns3:atemp>26.0</ns3:atemp>
            <ns3:hr>110</ns3:hr>
          </ns3:TrackPointExtension>
        </extensions>
      </trkpt>
      <trkpt lat="36.80778038688004016876220703125" lon="-118.40747441165149211883544921875">
        <ele>3318.199951171875</ele>
        <time>2021-06-26T15:27:59.000Z</time>
        <extensions>
          <ns3:TrackPointExtension>
            <ns3:atemp>26.0</ns3:atemp>
            <ns3:hr>110</ns3:hr>
          </ns3:TrackPointExtension>
        </extensions>
      </trkpt>
      <trkpt lat="36.80780871771275997161865234375" lon="-118.40753593482077121734619140625">
        <ele>3318.800048828125</ele>
        <time>2021-06-26T15:28:05.000Z</time>
        <extensions>
          <ns3:TrackPointExtension>
            <ns3:atemp>26.0</ns3:atemp>
            <ns3:hr>113</ns3:hr>
          </ns3:TrackPointExtension>
        </extensions>
      </trkpt>
      <trkpt lat="36.8078215420246124267578125" lon="-118.4075470827519893646240234375">
        <ele>3319</ele>
        <time>2021-06-26T15:28:07.000Z</time>
        <extensions>
          <ns3:TrackPointExtension>
            <ns3:atemp>26.0</ns3:atemp>
            <ns3:hr>113</ns3:hr>
          </ns3:TrackPointExtension>
        </extensions>
      </trkpt>
      <trkpt lat="36.807828582823276519775390625" lon="-118.4075534529983997344970703125">
        <ele>3319.199951171875</ele>
        <time>2021-06-26T15:28:08.000Z</time>
        <extensions>
          <ns3:TrackPointExtension>
            <ns3:atemp>26.0</ns3:atemp>
            <ns3:hr>113</ns3:hr>
          </ns3:TrackPointExtension>
        </extensions>
      </trkpt>
      <trkpt lat="36.8078458495438098907470703125" lon="-118.40760248713195323944091796875">
        <ele>3320.199951171875</ele>
        <time>2021-06-26T15:28:14.000Z</time>
        <extensions>
          <ns3:TrackPointExtension>
            <ns3:atemp>26.0</ns3:atemp>
            <ns3:hr>114</ns3:hr>
          </ns3:TrackPointExtension>
        </extensions>
      </trkpt>
      <trkpt lat="36.80784760974347591400146484375" lon="-118.40761103667318820953369140625">
        <ele>3320.39990234375</ele>
        <time>2021-06-26T15:28:15.000Z</time>
        <extensions>
          <ns3:TrackPointExtension>
            <ns3:atemp>26.0</ns3:atemp>
            <ns3:hr>114</ns3:hr>
          </ns3:TrackPointExtension>
        </extensions>
      </trkpt>
      <trkpt lat="36.807881891727447509765625" lon="-118.40766099281609058380126953125">
        <ele>3321.199951171875</ele>
        <time>2021-06-26T15:28:22.000Z</time>
        <extensions>
          <ns3:TrackPointExtension>
            <ns3:atemp>26.0</ns3:atemp>
            <ns3:hr>116</ns3:hr>
          </ns3:TrackPointExtension>
        </extensions>
      </trkpt>
      <trkpt lat="36.80789052508771419525146484375" lon="-118.40766803361475467681884765625">
        <ele>3321.39990234375</ele>
        <time>2021-06-26T15:28:23.000Z</time>
        <extensions>
          <ns3:TrackPointExtension>
            <ns3:atemp>26.0</ns3:atemp>
            <ns3:hr>114</ns3:hr>
          </ns3:TrackPointExtension>
        </extensions>
      </trkpt>
      <trkpt lat="36.80791231803596019744873046875" lon="-118.40769418515264987945556640625">
        <ele>3321.800048828125</ele>
        <time>2021-06-26T15:28:27.000Z</time>
        <extensions>
          <ns3:TrackPointExtension>
            <ns3:atemp>26.0</ns3:atemp>
            <ns3:hr>117</ns3:hr>
          </ns3:TrackPointExtension>
        </extensions>
      </trkpt>
      <trkpt lat="36.8079206161201000213623046875" lon="-118.40771581046283245086669921875">
        <ele>3322.39990234375</ele>
        <time>2021-06-26T15:28:31.000Z</time>
        <extensions>
          <ns3:TrackPointExtension>
            <ns3:atemp>26.0</ns3:atemp>
            <ns3:hr>117</ns3:hr>
          </ns3:TrackPointExtension>
        </extensions>
      </trkpt>
      <trkpt lat="36.8079259805381298065185546875" lon="-118.40772637166082859039306640625">
        <ele>3323.39990234375</ele>
        <time>2021-06-26T15:28:34.000Z</time>
        <extensions>
          <ns3:TrackPointExtension>
            <ns3:atemp>26.0</ns3:atemp>
            <ns3:hr>115</ns3:hr>
          </ns3:TrackPointExtension>
        </extensions>
      </trkpt>
      <trkpt lat="36.80792556144297122955322265625" lon="-118.40774280019104480743408203125">
        <ele>3323.800048828125</ele>
        <time>2021-06-26T15:28:36.000Z</time>
        <extensions>
          <ns3:TrackPointExtension>
            <ns3:atemp>26.0</ns3:atemp>
            <ns3:hr>114</ns3:hr>
          </ns3:TrackPointExtension>
        </extensions>
      </trkpt>
      <trkpt lat="36.80793545208871364593505859375" lon="-118.40775118209421634674072265625">
        <ele>3324</ele>
        <time>2021-06-26T15:28:38.000Z</time>
        <extensions>
          <ns3:TrackPointExtension>
            <ns3:atemp>26.0</ns3:atemp>
            <ns3:hr>114</ns3:hr>
          </ns3:TrackPointExtension>
        </extensions>
      </trkpt>
      <trkpt lat="36.80797819979488849639892578125" lon="-118.40777414850890636444091796875">
        <ele>3324.60009765625</ele>
        <time>2021-06-26T15:28:44.000Z</time>
        <extensions>
          <ns3:TrackPointExtension>
            <ns3:atemp>26.0</ns3:atemp>
            <ns3:hr>115</ns3:hr>
          </ns3:TrackPointExtension>
        </extensions>
      </trkpt>
      <trkpt lat="36.80798113346099853515625" lon="-118.40778990648686885833740234375">
        <ele>3324.800048828125</ele>
        <time>2021-06-26T15:28:46.000Z</time>
        <extensions>
          <ns3:TrackPointExtension>
            <ns3:atemp>26.0</ns3:atemp>
            <ns3:hr>117</ns3:hr>
          </ns3:TrackPointExtension>
        </extensions>
      </trkpt>
      <trkpt lat="36.80799781344830989837646484375" lon="-118.407818488776683807373046875">
        <ele>3325.199951171875</ele>
        <time>2021-06-26T15:28:51.000Z</time>
        <extensions>
          <ns3:TrackPointExtension>
            <ns3:atemp>26.0</ns3:atemp>
            <ns3:hr>118</ns3:hr>
          </ns3:TrackPointExtension>
        </extensions>
      </trkpt>
      <trkpt lat="36.80799764581024646759033203125" lon="-118.4078521840274333953857421875">
        <ele>3325.60009765625</ele>
        <time>2021-06-26T15:28:55.000Z</time>
        <extensions>
          <ns3:TrackPointExtension>
            <ns3:atemp>26.0</ns3:atemp>
            <ns3:hr>116</ns3:hr>
          </ns3:TrackPointExtension>
        </extensions>
      </trkpt>
      <trkpt lat="36.8079896830022335052490234375" lon="-118.407872803509235382080078125">
        <ele>3326</ele>
        <time>2021-06-26T15:28:56.000Z</time>
        <extensions>
          <ns3:TrackPointExtension>
            <ns3:atemp>26.0</ns3:atemp>
            <ns3:hr>115</ns3:hr>
          </ns3:TrackPointExtension>
        </extensions>
      </trkpt>
      <trkpt lat="36.80799228139221668243408203125" lon="-118.4078890644013881683349609375">
        <ele>3326</ele>
        <time>2021-06-26T15:28:57.000Z</time>
        <extensions>
          <ns3:TrackPointExtension>
            <ns3:atemp>26.0</ns3:atemp>
            <ns3:hr>114</ns3:hr>
          </ns3:TrackPointExtension>
        </extensions>
      </trkpt>
      <trkpt lat="36.8080084584653377532958984375" lon="-118.407913707196712493896484375">
        <ele>3326.199951171875</ele>
        <time>2021-06-26T15:29:00.000Z</time>
        <extensions>
          <ns3:TrackPointExtension>
            <ns3:atemp>26.0</ns3:atemp>
            <ns3:hr>112</ns3:hr>
          </ns3:TrackPointExtension>
        </extensions>
      </trkpt>
      <trkpt lat="36.808017008006572723388671875" lon="-118.40793474577367305755615234375">
        <ele>3326.800048828125</ele>
        <time>2021-06-26T15:29:03.000Z</time>
        <extensions>
          <ns3:TrackPointExtension>
            <ns3:atemp>26.0</ns3:atemp>
            <ns3:hr>109</ns3:hr>
          </ns3:TrackPointExtension>
        </extensions>
      </trkpt>
      <trkpt lat="36.80802128277719020843505859375" lon="-118.4079422056674957275390625">
        <ele>3326.800048828125</ele>
        <time>2021-06-26T15:29:04.000Z</time>
        <extensions>
          <ns3:TrackPointExtension>
            <ns3:atemp>26.0</ns3:atemp>
            <ns3:hr>108</ns3:hr>
          </ns3:TrackPointExtension>
        </extensions>
      </trkpt>
      <trkpt lat="36.80803134106099605560302734375" lon="-118.4079718776047229766845703125">
        <ele>3326.800048828125</ele>
        <time>2021-06-26T15:29:07.000Z</time>
        <extensions>
          <ns3:TrackPointExtension>
            <ns3:atemp>26.0</ns3:atemp>
            <ns3:hr>104</ns3:hr>
          </ns3:TrackPointExtension>
        </extensions>
      </trkpt>
      <trkpt lat="36.80802647955715656280517578125" lon="-118.40797414071857929229736328125">
        <ele>3327</ele>
        <time>2021-06-26T15:29:09.000Z</time>
        <extensions>
          <ns3:TrackPointExtension>
            <ns3:atemp>26.0</ns3:atemp>
            <ns3:hr>108</ns3:hr>
          </ns3:TrackPointExtension>
        </extensions>
      </trkpt>
      <trkpt lat="36.80802932940423488616943359375" lon="-118.40796575881540775299072265625">
        <ele>3327.199951171875</ele>
        <time>2021-06-26T15:29:10.000Z</time>
        <extensions>
          <ns3:TrackPointExtension>
            <ns3:atemp>26.0</ns3:atemp>
            <ns3:hr>108</ns3:hr>
          </ns3:TrackPointExtension>
        </extensions>
      </trkpt>
      <trkpt lat="36.80803251452744007110595703125" lon="-118.4079725481569766998291015625">
        <ele>3327.60009765625</ele>
        <time>2021-06-26T15:29:11.000Z</time>
        <extensions>
          <ns3:TrackPointExtension>
            <ns3:atemp>26.0</ns3:atemp>
            <ns3:hr>107</ns3:hr>
          </ns3:TrackPointExtension>
        </extensions>
      </trkpt>
      <trkpt lat="36.808038465678691864013671875" lon="-118.40799157507717609405517578125">
        <ele>3328.199951171875</ele>
        <time>2021-06-26T15:29:13.000Z</time>
        <extensions>
          <ns3:TrackPointExtension>
            <ns3:atemp>26.0</ns3:atemp>
            <ns3:hr>107</ns3:hr>
          </ns3:TrackPointExtension>
        </extensions>
      </trkpt>
      <trkpt lat="36.80803754366934299468994140625" lon="-118.40799325145781040191650390625">
        <ele>3328.39990234375</ele>
        <time>2021-06-26T15:29:14.000Z</time>
        <extensions>
          <ns3:TrackPointExtension>
            <ns3:atemp>26.0</ns3:atemp>
            <ns3:hr>107</ns3:hr>
          </ns3:TrackPointExtension>
        </extensions>
      </trkpt>
      <trkpt lat="36.80803871713578701019287109375" lon="-118.40799693949520587921142578125">
        <ele>3328.39990234375</ele>
        <time>2021-06-26T15:29:15.000Z</time>
        <extensions>
          <ns3:TrackPointExtension>
            <ns3:atemp>26.0</ns3:atemp>
            <ns3:hr>106</ns3:hr>
          </ns3:TrackPointExtension>
        </extensions>
      </trkpt>
      <trkpt lat="36.80804374627768993377685546875" lon="-118.40801621787250041961669921875">
        <ele>3328.60009765625</ele>
        <time>2021-06-26T15:29:17.000Z</time>
        <extensions>
          <ns3:TrackPointExtension>
            <ns3:atemp>26.0</ns3:atemp>
            <ns3:hr>106</ns3:hr>
          </ns3:TrackPointExtension>
        </extensions>
      </trkpt>
      <trkpt lat="36.80803821422159671783447265625" lon="-118.4080714546144008636474609375">
        <ele>3329.60009765625</ele>
        <time>2021-06-26T15:29:25.000Z</time>
        <extensions>
          <ns3:TrackPointExtension>
            <ns3:atemp>26.0</ns3:atemp>
            <ns3:hr>108</ns3:hr>
          </ns3:TrackPointExtension>
        </extensions>
      </trkpt>
      <trkpt lat="36.8080426566302776336669921875" lon="-118.4080875478684902191162109375">
        <ele>3329.800048828125</ele>
        <time>2021-06-26T15:29:26.000Z</time>
        <extensions>
          <ns3:TrackPointExtension>
            <ns3:atemp>26.0</ns3:atemp>
            <ns3:hr>108</ns3:hr>
          </ns3:TrackPointExtension>
        </extensions>
      </trkpt>
      <trkpt lat="36.8080805428326129913330078125" lon="-118.4081468917429447174072265625">
        <ele>3330.60009765625</ele>
        <time>2021-06-26T15:29:32.000Z</time>
        <extensions>
          <ns3:TrackPointExtension>
            <ns3:atemp>26.0</ns3:atemp>
            <ns3:hr>109</ns3:hr>
          </ns3:TrackPointExtension>
        </extensions>
      </trkpt>
      <trkpt lat="36.80809437297284603118896484375" lon="-118.4081559441983699798583984375">
        <ele>3330.60009765625</ele>
        <time>2021-06-26T15:29:34.000Z</time>
        <extensions>
          <ns3:TrackPointExtension>
            <ns3:atemp>26.0</ns3:atemp>
            <ns3:hr>109</ns3:hr>
          </ns3:TrackPointExtension>
        </extensions>
      </trkpt>
      <trkpt lat="36.8081465922296047210693359375" lon="-118.40819307602941989898681640625">
        <ele>3329.60009765625</ele>
        <time>2021-06-26T15:29:41.000Z</time>
        <extensions>
          <ns3:TrackPointExtension>
            <ns3:atemp>26.0</ns3:atemp>
            <ns3:hr>110</ns3:hr>
          </ns3:TrackPointExtension>
        </extensions>
      </trkpt>
      <trkpt lat="36.808155141770839691162109375" lon="-118.40819877572357654571533203125">
        <ele>3329.60009765625</ele>
        <time>2021-06-26T15:29:42.000Z</time>
        <extensions>
          <ns3:TrackPointExtension>
            <ns3:atemp>26.0</ns3:atemp>
            <ns3:hr>111</ns3:hr>
          </ns3:TrackPointExtension>
        </extensions>
      </trkpt>
      <trkpt lat="36.80820719338953495025634765625" lon="-118.4082712791860103607177734375">
        <ele>3329.199951171875</ele>
        <time>2021-06-26T15:29:50.000Z</time>
        <extensions>
          <ns3:TrackPointExtension>
            <ns3:atemp>26.0</ns3:atemp>
            <ns3:hr>111</ns3:hr>
          </ns3:TrackPointExtension>
        </extensions>
      </trkpt>
      <trkpt lat="36.8082555569708347320556640625" lon="-118.40836473740637302398681640625">
        <ele>3329.800048828125</ele>
        <time>2021-06-26T15:29:59.000Z</time>
        <extensions>
          <ns3:TrackPointExtension>
            <ns3:atemp>26.0</ns3:atemp>
            <ns3:hr>108</ns3:hr>
          </ns3:TrackPointExtension>
        </extensions>
      </trkpt>
      <trkpt lat="36.8082850612699985504150390625" lon="-118.40843682177364826202392578125">
        <ele>3330.39990234375</ele>
        <time>2021-06-26T15:30:06.000Z</time>
        <extensions>
          <ns3:TrackPointExtension>
            <ns3:atemp>26.0</ns3:atemp>
            <ns3:hr>111</ns3:hr>
          </ns3:TrackPointExtension>
        </extensions>
      </trkpt>
      <trkpt lat="36.808285228908061981201171875" lon="-118.40844771824777126312255859375">
        <ele>3330.39990234375</ele>
        <time>2021-06-26T15:30:07.000Z</time>
        <extensions>
          <ns3:TrackPointExtension>
            <ns3:atemp>26.0</ns3:atemp>
            <ns3:hr>109</ns3:hr>
          </ns3:TrackPointExtension>
        </extensions>
      </trkpt>
      <trkpt lat="36.80828489363193511962890625" lon="-118.4084553457796573638916015625">
        <ele>3330.60009765625</ele>
        <time>2021-06-26T15:30:08.000Z</time>
        <extensions>
          <ns3:TrackPointExtension>
            <ns3:atemp>26.0</ns3:atemp>
            <ns3:hr>110</ns3:hr>
          </ns3:TrackPointExtension>
        </extensions>
      </trkpt>
      <trkpt lat="36.80828866548836231231689453125" lon="-118.40846699662506580352783203125">
        <ele>3330.60009765625</ele>
        <time>2021-06-26T15:30:09.000Z</time>
        <extensions>
          <ns3:TrackPointExtension>
            <ns3:atemp>26.0</ns3:atemp>
            <ns3:hr>107</ns3:hr>
          </ns3:TrackPointExtension>
        </extensions>
      </trkpt>
      <trkpt lat="36.80832001380622386932373046875" lon="-118.4085294418036937713623046875">
        <ele>3330.60009765625</ele>
        <time>2021-06-26T15:30:15.000Z</time>
        <extensions>
          <ns3:TrackPointExtension>
            <ns3:atemp>26.0</ns3:atemp>
            <ns3:hr>106</ns3:hr>
          </ns3:TrackPointExtension>
        </extensions>
      </trkpt>
      <trkpt lat="36.80833853781223297119140625" lon="-118.40857227332890033721923828125">
        <ele>3330.800048828125</ele>
        <time>2021-06-26T15:30:19.000Z</time>
        <extensions>
          <ns3:TrackPointExtension>
            <ns3:atemp>26.0</ns3:atemp>
            <ns3:hr>103</ns3:hr>
          </ns3:TrackPointExtension>
        </extensions>
      </trkpt>
      <trkpt lat="36.808348931372165679931640625" lon="-118.40860781259834766387939453125">
        <ele>3331.39990234375</ele>
        <time>2021-06-26T15:30:22.000Z</time>
        <extensions>
          <ns3:TrackPointExtension>
            <ns3:atemp>26.0</ns3:atemp>
            <ns3:hr>100</ns3:hr>
          </ns3:TrackPointExtension>
        </extensions>
      </trkpt>
      <trkpt lat="36.8083464168012142181396484375" lon="-118.40861837379634380340576171875">
        <ele>3331.800048828125</ele>
        <time>2021-06-26T15:30:23.000Z</time>
        <extensions>
          <ns3:TrackPointExtension>
            <ns3:atemp>26.0</ns3:atemp>
            <ns3:hr>100</ns3:hr>
          </ns3:TrackPointExtension>
        </extensions>
      </trkpt>
      <trkpt lat="36.80834532715380191802978515625" lon="-118.40862725861370563507080078125">
        <ele>3332</ele>
        <time>2021-06-26T15:30:24.000Z</time>
        <extensions>
          <ns3:TrackPointExtension>
            <ns3:atemp>26.0</ns3:atemp>
            <ns3:hr>102</ns3:hr>
          </ns3:TrackPointExtension>
        </extensions>
      </trkpt>
      <trkpt lat="36.80834834463894367218017578125" lon="-118.40867646038532257080078125">
        <ele>3332.39990234375</ele>
        <time>2021-06-26T15:30:31.000Z</time>
        <extensions>
          <ns3:TrackPointExtension>
            <ns3:atemp>26.0</ns3:atemp>
            <ns3:hr>102</ns3:hr>
          </ns3:TrackPointExtension>
        </extensions>
      </trkpt>
      <trkpt lat="36.808351613581180572509765625" lon="-118.40867889113724231719970703125">
        <ele>3332.60009765625</ele>
        <time>2021-06-26T15:30:32.000Z</time>
        <extensions>
          <ns3:TrackPointExtension>
            <ns3:atemp>26.0</ns3:atemp>
            <ns3:hr>102</ns3:hr>
          </ns3:TrackPointExtension>
        </extensions>
      </trkpt>
      <trkpt lat="36.80835370905697345733642578125" lon="-118.40867922641336917877197265625">
        <ele>3333.199951171875</ele>
        <time>2021-06-26T15:30:33.000Z</time>
        <extensions>
          <ns3:TrackPointExtension>
            <ns3:atemp>26.0</ns3:atemp>
            <ns3:hr>101</ns3:hr>
          </ns3:TrackPointExtension>
        </extensions>
      </trkpt>
      <trkpt lat="36.80836477316915988922119140625" lon="-118.4087342955172061920166015625">
        <ele>3334</ele>
        <time>2021-06-26T15:30:39.000Z</time>
        <extensions>
          <ns3:TrackPointExtension>
            <ns3:atemp>26.0</ns3:atemp>
            <ns3:hr>99</ns3:hr>
          </ns3:TrackPointExtension>
        </extensions>
      </trkpt>
      <trkpt lat="36.80836812593042850494384765625" lon="-118.40874695219099521636962890625">
        <ele>3334.199951171875</ele>
        <time>2021-06-26T15:30:40.000Z</time>
        <extensions>
          <ns3:TrackPointExtension>
            <ns3:atemp>26.0</ns3:atemp>
            <ns3:hr>99</ns3:hr>
          </ns3:TrackPointExtension>
        </extensions>
      </trkpt>
      <trkpt lat="36.80839310400187969207763671875" lon="-118.40878911316394805908203125">
        <ele>3334.800048828125</ele>
        <time>2021-06-26T15:30:45.000Z</time>
        <extensions>
          <ns3:TrackPointExtension>
            <ns3:atemp>26.0</ns3:atemp>
            <ns3:hr>100</ns3:hr>
          </ns3:TrackPointExtension>
        </extensions>
      </trkpt>
      <trkpt lat="36.8084117956459522247314453125" lon="-118.40881920419633388519287109375">
        <ele>3335.199951171875</ele>
        <time>2021-06-26T15:30:49.000Z</time>
        <extensions>
          <ns3:TrackPointExtension>
            <ns3:atemp>26.0</ns3:atemp>
            <ns3:hr>100</ns3:hr>
          </ns3:TrackPointExtension>
        </extensions>
      </trkpt>
      <trkpt lat="36.80842042900621891021728515625" lon="-118.4088368900120258331298828125">
        <ele>3335.60009765625</ele>
        <time>2021-06-26T15:30:51.000Z</time>
        <extensions>
          <ns3:TrackPointExtension>
            <ns3:atemp>26.0</ns3:atemp>
            <ns3:hr>103</ns3:hr>
          </ns3:TrackPointExtension>
        </extensions>
      </trkpt>
      <trkpt lat="36.80843384005129337310791015625" lon="-118.40884669683873653411865234375">
        <ele>3335.60009765625</ele>
        <time>2021-06-26T15:30:53.000Z</time>
        <extensions>
          <ns3:TrackPointExtension>
            <ns3:atemp>26.0</ns3:atemp>
            <ns3:hr>107</ns3:hr>
          </ns3:TrackPointExtension>
        </extensions>
      </trkpt>
      <trkpt lat="36.80847122333943843841552734375" lon="-118.40886513702571392059326171875">
        <ele>3336.199951171875</ele>
        <time>2021-06-26T15:30:59.000Z</time>
        <extensions>
          <ns3:TrackPointExtension>
            <ns3:atemp>26.0</ns3:atemp>
            <ns3:hr>107</ns3:hr>
          </ns3:TrackPointExtension>
        </extensions>
      </trkpt>
      <trkpt lat="36.80848949588835239410400390625" lon="-118.4088801406323909759521484375">
        <ele>3337</ele>
        <time>2021-06-26T15:31:03.000Z</time>
        <extensions>
          <ns3:TrackPointExtension>
            <ns3:atemp>26.0</ns3:atemp>
            <ns3:hr>108</ns3:hr>
          </ns3:TrackPointExtension>
        </extensions>
      </trkpt>
      <trkpt lat="36.80849670432507991790771484375" lon="-118.4088965691626071929931640625">
        <ele>3337.199951171875</ele>
        <time>2021-06-26T15:31:06.000Z</time>
        <extensions>
          <ns3:TrackPointExtension>
            <ns3:atemp>26.0</ns3:atemp>
            <ns3:hr>110</ns3:hr>
          </ns3:TrackPointExtension>
        </extensions>
      </trkpt>
      <trkpt lat="36.80851480923593044281005859375" lon="-118.40891542844474315643310546875">
        <ele>3337.800048828125</ele>
        <time>2021-06-26T15:31:09.000Z</time>
        <extensions>
          <ns3:TrackPointExtension>
            <ns3:atemp>26.0</ns3:atemp>
            <ns3:hr>113</ns3:hr>
          </ns3:TrackPointExtension>
        </extensions>
      </trkpt>
      <trkpt lat="36.808523945510387420654296875" lon="-118.40892347507178783416748046875">
        <ele>3338</ele>
        <time>2021-06-26T15:31:11.000Z</time>
        <extensions>
          <ns3:TrackPointExtension>
            <ns3:atemp>26.0</ns3:atemp>
            <ns3:hr>113</ns3:hr>
          </ns3:TrackPointExtension>
        </extensions>
      </trkpt>
      <trkpt lat="36.80854951031506061553955078125" lon="-118.4089347906410694122314453125">
        <ele>3338.60009765625</ele>
        <time>2021-06-26T15:31:14.000Z</time>
        <extensions>
          <ns3:TrackPointExtension>
            <ns3:atemp>26.0</ns3:atemp>
            <ns3:hr>111</ns3:hr>
          </ns3:TrackPointExtension>
        </extensions>
      </trkpt>
      <trkpt lat="36.80857817642390727996826171875" lon="-118.40896069072186946868896484375">
        <ele>3338.800048828125</ele>
        <time>2021-06-26T15:31:19.000Z</time>
        <extensions>
          <ns3:TrackPointExtension>
            <ns3:atemp>26.0</ns3:atemp>
            <ns3:hr>109</ns3:hr>
          </ns3:TrackPointExtension>
        </extensions>
      </trkpt>
      <trkpt lat="36.8085811100900173187255859375" lon="-118.40896882116794586181640625">
        <ele>3339.199951171875</ele>
        <time>2021-06-26T15:31:20.000Z</time>
        <extensions>
          <ns3:TrackPointExtension>
            <ns3:atemp>26.0</ns3:atemp>
            <ns3:hr>109</ns3:hr>
          </ns3:TrackPointExtension>
        </extensions>
      </trkpt>
      <trkpt lat="36.8085913360118865966796875" lon="-118.4089909493923187255859375">
        <ele>3340</ele>
        <time>2021-06-26T15:31:23.000Z</time>
        <extensions>
          <ns3:TrackPointExtension>
            <ns3:atemp>26.0</ns3:atemp>
            <ns3:hr>112</ns3:hr>
          </ns3:TrackPointExtension>
        </extensions>
      </trkpt>
      <trkpt lat="36.808591000735759735107421875" lon="-118.40900058858096599578857421875">
        <ele>3340.199951171875</ele>
        <time>2021-06-26T15:31:24.000Z</time>
        <extensions>
          <ns3:TrackPointExtension>
            <ns3:atemp>26.0</ns3:atemp>
            <ns3:hr>109</ns3:hr>
          </ns3:TrackPointExtension>
        </extensions>
      </trkpt>
      <trkpt lat="36.80859343148767948150634765625" lon="-118.4090070426464080810546875">
        <ele>3340.199951171875</ele>
        <time>2021-06-26T15:31:25.000Z</time>
        <extensions>
          <ns3:TrackPointExtension>
            <ns3:atemp>26.0</ns3:atemp>
            <ns3:hr>110</ns3:hr>
          </ns3:TrackPointExtension>
        </extensions>
      </trkpt>
      <trkpt lat="36.80858739651739597320556640625" lon="-118.4090135805308818817138671875">
        <ele>3340.60009765625</ele>
        <time>2021-06-26T15:31:28.000Z</time>
        <extensions>
          <ns3:TrackPointExtension>
            <ns3:atemp>26.0</ns3:atemp>
            <ns3:hr>110</ns3:hr>
          </ns3:TrackPointExtension>
        </extensions>
      </trkpt>
      <trkpt lat="36.80858504958450794219970703125" lon="-118.40901752002537250518798828125">
        <ele>3341.39990234375</ele>
        <time>2021-06-26T15:31:31.000Z</time>
        <extensions>
          <ns3:TrackPointExtension>
            <ns3:atemp>26.0</ns3:atemp>
            <ns3:hr>113</ns3:hr>
          </ns3:TrackPointExtension>
        </extensions>
      </trkpt>
      <trkpt lat="36.8085811100900173187255859375" lon="-118.409021794795989990234375">
        <ele>3341.800048828125</ele>
        <time>2021-06-26T15:31:34.000Z</time>
        <extensions>
          <ns3:TrackPointExtension>
            <ns3:atemp>26.0</ns3:atemp>
            <ns3:hr>116</ns3:hr>
          </ns3:TrackPointExtension>
        </extensions>
      </trkpt>
      <trkpt lat="36.80858069099485874176025390625" lon="-118.40902246534824371337890625">
        <ele>3341.800048828125</ele>
        <time>2021-06-26T15:31:35.000Z</time>
        <extensions>
          <ns3:TrackPointExtension>
            <ns3:atemp>26.0</ns3:atemp>
            <ns3:hr>117</ns3:hr>
          </ns3:TrackPointExtension>
        </extensions>
      </trkpt>
      <trkpt lat="36.80860013701021671295166015625" lon="-118.40905289165675640106201171875">
        <ele>3342.39990234375</ele>
        <time>2021-06-26T15:31:40.000Z</time>
        <extensions>
          <ns3:TrackPointExtension>
            <ns3:atemp>26.0</ns3:atemp>
            <ns3:hr>120</ns3:hr>
          </ns3:TrackPointExtension>
        </extensions>
      </trkpt>
      <trkpt lat="36.80861212313175201416015625" lon="-118.409061692655086517333984375">
        <ele>3342.60009765625</ele>
        <time>2021-06-26T15:31:41.000Z</time>
        <extensions>
          <ns3:TrackPointExtension>
            <ns3:atemp>26.0</ns3:atemp>
            <ns3:hr>120</ns3:hr>
          </ns3:TrackPointExtension>
        </extensions>
      </trkpt>
      <trkpt lat="36.80862410925328731536865234375" lon="-118.40909614227712154388427734375">
        <ele>3343.39990234375</ele>
        <time>2021-06-26T15:31:47.000Z</time>
        <extensions>
          <ns3:TrackPointExtension>
            <ns3:atemp>26.0</ns3:atemp>
            <ns3:hr>118</ns3:hr>
          </ns3:TrackPointExtension>
        </extensions>
      </trkpt>
      <trkpt lat="36.8086371012032032012939453125" lon="-118.4090927056968212127685546875">
        <ele>3343.60009765625</ele>
        <time>2021-06-26T15:31:48.000Z</time>
        <extensions>
          <ns3:TrackPointExtension>
            <ns3:atemp>26.0</ns3:atemp>
            <ns3:hr>118</ns3:hr>
          </ns3:TrackPointExtension>
        </extensions>
      </trkpt>
      <trkpt lat="36.80867339484393596649169921875" lon="-118.40909329243004322052001953125">
        <ele>3344.60009765625</ele>
        <time>2021-06-26T15:31:53.000Z</time>
        <extensions>
          <ns3:TrackPointExtension>
            <ns3:atemp>26.0</ns3:atemp>
            <ns3:hr>117</ns3:hr>
          </ns3:TrackPointExtension>
        </extensions>
      </trkpt>
      <trkpt lat="36.80868546478450298309326171875" lon="-118.4090963937342166900634765625">
        <ele>3344.800048828125</ele>
        <time>2021-06-26T15:31:55.000Z</time>
        <extensions>
          <ns3:TrackPointExtension>
            <ns3:atemp>26.0</ns3:atemp>
            <ns3:hr>118</ns3:hr>
          </ns3:TrackPointExtension>
        </extensions>
      </trkpt>
      <trkpt lat="36.80872385390102863311767578125" lon="-118.4091379679739475250244140625">
        <ele>3345.39990234375</ele>
        <time>2021-06-26T15:32:03.000Z</time>
        <extensions>
          <ns3:TrackPointExtension>
            <ns3:atemp>26.0</ns3:atemp>
            <ns3:hr>117</ns3:hr>
          </ns3:TrackPointExtension>
        </extensions>
      </trkpt>
      <trkpt lat="36.8087081797420978546142578125" lon="-118.40916152112185955047607421875">
        <ele>3346.199951171875</ele>
        <time>2021-06-26T15:32:06.000Z</time>
        <extensions>
          <ns3:TrackPointExtension>
            <ns3:atemp>26.0</ns3:atemp>
            <ns3:hr>116</ns3:hr>
          </ns3:TrackPointExtension>
        </extensions>
      </trkpt>
      <trkpt lat="36.80869988165795803070068359375" lon="-118.40918063186109066009521484375">
        <ele>3346.199951171875</ele>
        <time>2021-06-26T15:32:09.000Z</time>
        <extensions>
          <ns3:TrackPointExtension>
            <ns3:atemp>26.0</ns3:atemp>
            <ns3:hr>116</ns3:hr>
          </ns3:TrackPointExtension>
        </extensions>
      </trkpt>
      <trkpt lat="36.808702647686004638671875" lon="-118.40920410118997097015380859375">
        <ele>3347.199951171875</ele>
        <time>2021-06-26T15:32:13.000Z</time>
        <extensions>
          <ns3:TrackPointExtension>
            <ns3:atemp>26.0</ns3:atemp>
            <ns3:hr>116</ns3:hr>
          </ns3:TrackPointExtension>
        </extensions>
      </trkpt>
      <trkpt lat="36.80871136486530303955078125" lon="-118.40921164490282535552978515625">
        <ele>3347.39990234375</ele>
        <time>2021-06-26T15:32:15.000Z</time>
        <extensions>
          <ns3:TrackPointExtension>
            <ns3:atemp>26.0</ns3:atemp>
            <ns3:hr>117</ns3:hr>
          </ns3:TrackPointExtension>
        </extensions>
      </trkpt>
      <trkpt lat="36.808734498918056488037109375" lon="-118.4092201106250286102294921875">
        <ele>3348</ele>
        <time>2021-06-26T15:32:22.000Z</time>
        <extensions>
          <ns3:TrackPointExtension>
            <ns3:atemp>26.0</ns3:atemp>
            <ns3:hr>118</ns3:hr>
          </ns3:TrackPointExtension>
        </extensions>
      </trkpt>
      <trkpt lat="36.80872804485261440277099609375" lon="-118.409223966300487518310546875">
        <ele>3348.199951171875</ele>
        <time>2021-06-26T15:32:23.000Z</time>
        <extensions>
          <ns3:TrackPointExtension>
            <ns3:atemp>26.0</ns3:atemp>
            <ns3:hr>118</ns3:hr>
          </ns3:TrackPointExtension>
        </extensions>
      </trkpt>
      <trkpt lat="36.80866970680654048919677734375" lon="-118.40922790579497814178466796875">
        <ele>3349</ele>
        <time>2021-06-26T15:32:31.000Z</time>
        <extensions>
          <ns3:TrackPointExtension>
            <ns3:atemp>26.0</ns3:atemp>
            <ns3:hr>118</ns3:hr>
          </ns3:TrackPointExtension>
        </extensions>
      </trkpt>
      <trkpt lat="36.80866241455078125" lon="-118.40922907926142215728759765625">
        <ele>3349.199951171875</ele>
        <time>2021-06-26T15:32:32.000Z</time>
        <extensions>
          <ns3:TrackPointExtension>
            <ns3:atemp>26.0</ns3:atemp>
            <ns3:hr>118</ns3:hr>
          </ns3:TrackPointExtension>
        </extensions>
      </trkpt>
      <trkpt lat="36.8086267076432704925537109375" lon="-118.4092683903872966766357421875">
        <ele>3350</ele>
        <time>2021-06-26T15:32:37.000Z</time>
        <extensions>
          <ns3:TrackPointExtension>
            <ns3:atemp>26.0</ns3:atemp>
            <ns3:hr>117</ns3:hr>
          </ns3:TrackPointExtension>
        </extensions>
      </trkpt>
      <trkpt lat="36.8086186610162258148193359375" lon="-118.40930636040866374969482421875">
        <ele>3350.39990234375</ele>
        <time>2021-06-26T15:32:40.000Z</time>
        <extensions>
          <ns3:TrackPointExtension>
            <ns3:atemp>26.0</ns3:atemp>
            <ns3:hr>118</ns3:hr>
          </ns3:TrackPointExtension>
        </extensions>
      </trkpt>
      <trkpt lat="36.80863416753709316253662109375" lon="-118.4093341045081615447998046875">
        <ele>3351</ele>
        <time>2021-06-26T15:32:44.000Z</time>
        <extensions>
          <ns3:TrackPointExtension>
            <ns3:atemp>26.0</ns3:atemp>
            <ns3:hr>119</ns3:hr>
          </ns3:TrackPointExtension>
        </extensions>
      </trkpt>
      <trkpt lat="36.808637268841266632080078125" lon="-118.409336619079113006591796875">
        <ele>3351.39990234375</ele>
        <time>2021-06-26T15:32:45.000Z</time>
        <extensions>
          <ns3:TrackPointExtension>
            <ns3:atemp>26.0</ns3:atemp>
            <ns3:hr>120</ns3:hr>
          </ns3:TrackPointExtension>
        </extensions>
      </trkpt>
      <trkpt lat="36.80864037014544010162353515625" lon="-118.409372158348560333251953125">
        <ele>3352.39990234375</ele>
        <time>2021-06-26T15:32:52.000Z</time>
        <extensions>
          <ns3:TrackPointExtension>
            <ns3:atemp>26.0</ns3:atemp>
            <ns3:hr>119</ns3:hr>
          </ns3:TrackPointExtension>
        </extensions>
      </trkpt>
      <trkpt lat="36.80864296853542327880859375" lon="-118.4093810431659221649169921875">
        <ele>3352.800048828125</ele>
        <time>2021-06-26T15:32:53.000Z</time>
        <extensions>
          <ns3:TrackPointExtension>
            <ns3:atemp>26.0</ns3:atemp>
            <ns3:hr>119</ns3:hr>
          </ns3:TrackPointExtension>
        </extensions>
      </trkpt>
      <trkpt lat="36.808652020990848541259765625" lon="-118.40943980030715465545654296875">
        <ele>3353.60009765625</ele>
        <time>2021-06-26T15:32:59.000Z</time>
        <extensions>
          <ns3:TrackPointExtension>
            <ns3:atemp>26.0</ns3:atemp>
            <ns3:hr>119</ns3:hr>
          </ns3:TrackPointExtension>
        </extensions>
      </trkpt>
      <trkpt lat="36.8086743168532848358154296875" lon="-118.40944826602935791015625">
        <ele>3353.800048828125</ele>
        <time>2021-06-26T15:33:01.000Z</time>
        <extensions>
          <ns3:TrackPointExtension>
            <ns3:atemp>26.0</ns3:atemp>
            <ns3:hr>119</ns3:hr>
          </ns3:TrackPointExtension>
        </extensions>
      </trkpt>
      <trkpt lat="36.80871538817882537841796875" lon="-118.40944365598261356353759765625">
        <ele>3354.199951171875</ele>
        <time>2021-06-26T15:33:06.000Z</time>
        <extensions>
          <ns3:TrackPointExtension>
            <ns3:atemp>26.0</ns3:atemp>
            <ns3:hr>120</ns3:hr>
          </ns3:TrackPointExtension>
        </extensions>
      </trkpt>
      <trkpt lat="36.808715052902698516845703125" lon="-118.40946544893085956573486328125">
        <ele>3354.800048828125</ele>
        <time>2021-06-26T15:33:09.000Z</time>
        <extensions>
          <ns3:TrackPointExtension>
            <ns3:atemp>26.0</ns3:atemp>
            <ns3:hr>120</ns3:hr>
          </ns3:TrackPointExtension>
        </extensions>
      </trkpt>
      <trkpt lat="36.80872050113976001739501953125" lon="-118.40948087163269519805908203125">
        <ele>3355.199951171875</ele>
        <time>2021-06-26T15:33:12.000Z</time>
        <extensions>
          <ns3:TrackPointExtension>
            <ns3:atemp>26.0</ns3:atemp>
            <ns3:hr>120</ns3:hr>
          </ns3:TrackPointExtension>
        </extensions>
      </trkpt>
      <trkpt lat="36.80872385390102863311767578125" lon="-118.40948992408812046051025390625">
        <ele>3355.199951171875</ele>
        <time>2021-06-26T15:33:13.000Z</time>
        <extensions>
          <ns3:TrackPointExtension>
            <ns3:atemp>26.0</ns3:atemp>
            <ns3:hr>120</ns3:hr>
          </ns3:TrackPointExtension>
        </extensions>
      </trkpt>
      <trkpt lat="36.80874682031571865081787109375" lon="-118.40949294157326221466064453125">
        <ele>3355.199951171875</ele>
        <time>2021-06-26T15:33:16.000Z</time>
        <extensions>
          <ns3:TrackPointExtension>
            <ns3:atemp>26.0</ns3:atemp>
            <ns3:hr>120</ns3:hr>
          </ns3:TrackPointExtension>
        </extensions>
      </trkpt>
      <trkpt lat="36.80876660160720348358154296875" lon="-118.40948707424104213714599609375">
        <ele>3355.39990234375</ele>
        <time>2021-06-26T15:33:19.000Z</time>
        <extensions>
          <ns3:TrackPointExtension>
            <ns3:atemp>26.0</ns3:atemp>
            <ns3:hr>120</ns3:hr>
          </ns3:TrackPointExtension>
        </extensions>
      </trkpt>
      <trkpt lat="36.80877431295812129974365234375" lon="-118.40948858298361301422119140625">
        <ele>3355.60009765625</ele>
        <time>2021-06-26T15:33:20.000Z</time>
        <extensions>
          <ns3:TrackPointExtension>
            <ns3:atemp>26.0</ns3:atemp>
            <ns3:hr>120</ns3:hr>
          </ns3:TrackPointExtension>
        </extensions>
      </trkpt>
      <trkpt lat="36.80878085084259510040283203125" lon="-118.40948858298361301422119140625">
        <ele>3355.60009765625</ele>
        <time>2021-06-26T15:33:21.000Z</time>
        <extensions>
          <ns3:TrackPointExtension>
            <ns3:atemp>26.0</ns3:atemp>
            <ns3:hr>119</ns3:hr>
          </ns3:TrackPointExtension>
        </extensions>
      </trkpt>
      <trkpt lat="36.80879979394376277923583984375" lon="-118.40949243865907192230224609375">
        <ele>3356.199951171875</ele>
        <time>2021-06-26T15:33:23.000Z</time>
        <extensions>
          <ns3:TrackPointExtension>
            <ns3:atemp>26.0</ns3:atemp>
            <ns3:hr>120</ns3:hr>
          </ns3:TrackPointExtension>
        </extensions>
      </trkpt>
      <trkpt lat="36.80883298628032207489013671875" lon="-118.40951188467442989349365234375">
        <ele>3356.800048828125</ele>
        <time>2021-06-26T15:33:28.000Z</time>
        <extensions>
          <ns3:TrackPointExtension>
            <ns3:atemp>27.0</ns3:atemp>
            <ns3:hr>119</ns3:hr>
          </ns3:TrackPointExtension>
        </extensions>
      </trkpt>
      <trkpt lat="36.8088380992412567138671875" lon="-118.409516327083110809326171875">
        <ele>3357</ele>
        <time>2021-06-26T15:33:29.000Z</time>
        <extensions>
          <ns3:TrackPointExtension>
            <ns3:atemp>27.0</ns3:atemp>
            <ns3:hr>119</ns3:hr>
          </ns3:TrackPointExtension>
        </extensions>
      </trkpt>
      <trkpt lat="36.80883608758449554443359375" lon="-118.4095339290797710418701171875">
        <ele>3357.199951171875</ele>
        <time>2021-06-26T15:33:32.000Z</time>
        <extensions>
          <ns3:TrackPointExtension>
            <ns3:atemp>27.0</ns3:atemp>
            <ns3:hr>116</ns3:hr>
          </ns3:TrackPointExtension>
        </extensions>
      </trkpt>
      <trkpt lat="36.80883072316646575927734375" lon="-118.40953250415623188018798828125">
        <ele>3357.199951171875</ele>
        <time>2021-06-26T15:33:33.000Z</time>
        <extensions>
          <ns3:TrackPointExtension>
            <ns3:atemp>27.0</ns3:atemp>
            <ns3:hr>116</ns3:hr>
          </ns3:TrackPointExtension>
        </extensions>
      </trkpt>
      <trkpt lat="36.8088193237781524658203125" lon="-118.40953183360397815704345703125">
        <ele>3357.39990234375</ele>
        <time>2021-06-26T15:33:34.000Z</time>
        <extensions>
          <ns3:TrackPointExtension>
            <ns3:atemp>27.0</ns3:atemp>
            <ns3:hr>111</ns3:hr>
          </ns3:TrackPointExtension>
        </extensions>
      </trkpt>
      <trkpt lat="36.80879987776279449462890625" lon="-118.40953409671783447265625">
        <ele>3357.60009765625</ele>
        <time>2021-06-26T15:33:36.000Z</time>
        <extensions>
          <ns3:TrackPointExtension>
            <ns3:atemp>27.0</ns3:atemp>
            <ns3:hr>114</ns3:hr>
          </ns3:TrackPointExtension>
        </extensions>
      </trkpt>
      <trkpt lat="36.808740198612213134765625" lon="-118.4095590747892856597900390625">
        <ele>3358.39990234375</ele>
        <time>2021-06-26T15:33:43.000Z</time>
        <extensions>
          <ns3:TrackPointExtension>
            <ns3:atemp>27.0</ns3:atemp>
            <ns3:hr>114</ns3:hr>
          </ns3:TrackPointExtension>
        </extensions>
      </trkpt>
      <trkpt lat="36.80872251279652118682861328125" lon="-118.4095647744834423065185546875">
        <ele>3358.39990234375</ele>
        <time>2021-06-26T15:33:45.000Z</time>
        <extensions>
          <ns3:TrackPointExtension>
            <ns3:atemp>27.0</ns3:atemp>
            <ns3:hr>114</ns3:hr>
          </ns3:TrackPointExtension>
        </extensions>
      </trkpt>
      <trkpt lat="36.808700300753116607666015625" lon="-118.40958044864237308502197265625">
        <ele>3358.800048828125</ele>
        <time>2021-06-26T15:33:48.000Z</time>
        <extensions>
          <ns3:TrackPointExtension>
            <ns3:atemp>27.0</ns3:atemp>
            <ns3:hr>117</ns3:hr>
          </ns3:TrackPointExtension>
        </extensions>
      </trkpt>
      <trkpt lat="36.808682195842266082763671875" lon="-118.409591428935527801513671875">
        <ele>3359.39990234375</ele>
        <time>2021-06-26T15:33:51.000Z</time>
        <extensions>
          <ns3:TrackPointExtension>
            <ns3:atemp>27.0</ns3:atemp>
            <ns3:hr>120</ns3:hr>
          </ns3:TrackPointExtension>
        </extensions>
      </trkpt>
      <trkpt lat="36.80866040289402008056640625" lon="-118.409599475562572479248046875">
        <ele>3359.60009765625</ele>
        <time>2021-06-26T15:33:54.000Z</time>
        <extensions>
          <ns3:TrackPointExtension>
            <ns3:atemp>27.0</ns3:atemp>
            <ns3:hr>120</ns3:hr>
          </ns3:TrackPointExtension>
        </extensions>
      </trkpt>
      <trkpt lat="36.808625869452953338623046875" lon="-118.40961028821766376495361328125">
        <ele>3360.60009765625</ele>
        <time>2021-06-26T15:33:59.000Z</time>
        <extensions>
          <ns3:TrackPointExtension>
            <ns3:atemp>27.0</ns3:atemp>
            <ns3:hr>122</ns3:hr>
          </ns3:TrackPointExtension>
        </extensions>
      </trkpt>
      <trkpt lat="36.8086324073374271392822265625" lon="-118.409642390906810760498046875">
        <ele>3360.800048828125</ele>
        <time>2021-06-26T15:34:02.000Z</time>
        <extensions>
          <ns3:TrackPointExtension>
            <ns3:atemp>27.0</ns3:atemp>
            <ns3:hr>122</ns3:hr>
          </ns3:TrackPointExtension>
        </extensions>
      </trkpt>
      <trkpt lat="36.80867507122457027435302734375" lon="-118.40966158546507358551025390625">
        <ele>3361.60009765625</ele>
        <time>2021-06-26T15:34:06.000Z</time>
        <extensions>
          <ns3:TrackPointExtension>
            <ns3:atemp>27.0</ns3:atemp>
            <ns3:hr>120</ns3:hr>
          </ns3:TrackPointExtension>
        </extensions>
      </trkpt>
      <trkpt lat="36.80869988165795803070068359375" lon="-118.40966485440731048583984375">
        <ele>3361.60009765625</ele>
        <time>2021-06-26T15:34:08.000Z</time>
        <extensions>
          <ns3:TrackPointExtension>
            <ns3:atemp>27.0</ns3:atemp>
            <ns3:hr>117</ns3:hr>
          </ns3:TrackPointExtension>
        </extensions>
      </trkpt>
      <trkpt lat="36.8087132088840007781982421875" lon="-118.40966560877859592437744140625">
        <ele>3361.60009765625</ele>
        <time>2021-06-26T15:34:09.000Z</time>
        <extensions>
          <ns3:TrackPointExtension>
            <ns3:atemp>27.0</ns3:atemp>
            <ns3:hr>116</ns3:hr>
          </ns3:TrackPointExtension>
        </extensions>
      </trkpt>
      <trkpt lat="36.8087282963097095489501953125" lon="-118.4096829593181610107421875">
        <ele>3361.60009765625</ele>
        <time>2021-06-26T15:34:11.000Z</time>
        <extensions>
          <ns3:TrackPointExtension>
            <ns3:atemp>27.0</ns3:atemp>
            <ns3:hr>113</ns3:hr>
          </ns3:TrackPointExtension>
        </extensions>
      </trkpt>
      <trkpt lat="36.8087375164031982421875" lon="-118.4096858091652393341064453125">
        <ele>3361.60009765625</ele>
        <time>2021-06-26T15:34:12.000Z</time>
        <extensions>
          <ns3:TrackPointExtension>
            <ns3:atemp>27.0</ns3:atemp>
            <ns3:hr>114</ns3:hr>
          </ns3:TrackPointExtension>
        </extensions>
      </trkpt>
      <trkpt lat="36.8087504245340824127197265625" lon="-118.4096948616206645965576171875">
        <ele>3361.60009765625</ele>
        <time>2021-06-26T15:34:14.000Z</time>
        <extensions>
          <ns3:TrackPointExtension>
            <ns3:atemp>27.0</ns3:atemp>
            <ns3:hr>114</ns3:hr>
          </ns3:TrackPointExtension>
        </extensions>
      </trkpt>
      <trkpt lat="36.80875335820019245147705078125" lon="-118.40971187688410282135009765625">
        <ele>3362.199951171875</ele>
        <time>2021-06-26T15:34:16.000Z</time>
        <extensions>
          <ns3:TrackPointExtension>
            <ns3:atemp>27.0</ns3:atemp>
            <ns3:hr>113</ns3:hr>
          </ns3:TrackPointExtension>
        </extensions>
      </trkpt>
      <trkpt lat="36.80876811034977436065673828125" lon="-118.40972394682466983795166015625">
        <ele>3362.39990234375</ele>
        <time>2021-06-26T15:34:18.000Z</time>
        <extensions>
          <ns3:TrackPointExtension>
            <ns3:atemp>27.0</ns3:atemp>
            <ns3:hr>114</ns3:hr>
          </ns3:TrackPointExtension>
        </extensions>
      </trkpt>
      <trkpt lat="36.80877313949167728424072265625" lon="-118.409727551043033599853515625">
        <ele>3362.800048828125</ele>
        <time>2021-06-26T15:34:19.000Z</time>
        <extensions>
          <ns3:TrackPointExtension>
            <ns3:atemp>27.0</ns3:atemp>
            <ns3:hr>114</ns3:hr>
          </ns3:TrackPointExtension>
        </extensions>
      </trkpt>
      <trkpt lat="36.80878470651805400848388671875" lon="-118.409731574356555938720703125">
        <ele>3363.39990234375</ele>
        <time>2021-06-26T15:34:22.000Z</time>
        <extensions>
          <ns3:TrackPointExtension>
            <ns3:atemp>27.0</ns3:atemp>
            <ns3:hr>114</ns3:hr>
          </ns3:TrackPointExtension>
        </extensions>
      </trkpt>
      <trkpt lat="36.80880415253341197967529296875" lon="-118.40973383747041225433349609375">
        <ele>3364</ele>
        <time>2021-06-26T15:34:25.000Z</time>
        <extensions>
          <ns3:TrackPointExtension>
            <ns3:atemp>27.0</ns3:atemp>
            <ns3:hr>113</ns3:hr>
          </ns3:TrackPointExtension>
        </extensions>
      </trkpt>
      <trkpt lat="36.8088188208639621734619140625" lon="-118.40972981415688991546630859375">
        <ele>3364.39990234375</ele>
        <time>2021-06-26T15:34:30.000Z</time>
        <extensions>
          <ns3:TrackPointExtension>
            <ns3:atemp>27.0</ns3:atemp>
            <ns3:hr>113</ns3:hr>
          </ns3:TrackPointExtension>
        </extensions>
      </trkpt>
      <trkpt lat="36.80887724272906780242919921875" lon="-118.4097231924533843994140625">
        <ele>3364.60009765625</ele>
        <time>2021-06-26T15:34:36.000Z</time>
        <extensions>
          <ns3:TrackPointExtension>
            <ns3:atemp>27.0</ns3:atemp>
            <ns3:hr>109</ns3:hr>
          </ns3:TrackPointExtension>
        </extensions>
      </trkpt>
      <trkpt lat="36.80889107286930084228515625" lon="-118.40973333455622196197509765625">
        <ele>3365</ele>
        <time>2021-06-26T15:34:38.000Z</time>
        <extensions>
          <ns3:TrackPointExtension>
            <ns3:atemp>27.0</ns3:atemp>
            <ns3:hr>109</ns3:hr>
          </ns3:TrackPointExtension>
        </extensions>
      </trkpt>
      <trkpt lat="36.8088972754776477813720703125" lon="-118.40973056852817535400390625">
        <ele>3365.199951171875</ele>
        <time>2021-06-26T15:34:39.000Z</time>
        <extensions>
          <ns3:TrackPointExtension>
            <ns3:atemp>27.0</ns3:atemp>
            <ns3:hr>112</ns3:hr>
          </ns3:TrackPointExtension>
        </extensions>
      </trkpt>
      <trkpt lat="36.80890138261020183563232421875" lon="-118.40973266400396823883056640625">
        <ele>3365.60009765625</ele>
        <time>2021-06-26T15:34:40.000Z</time>
        <extensions>
          <ns3:TrackPointExtension>
            <ns3:atemp>27.0</ns3:atemp>
            <ns3:hr>115</ns3:hr>
          </ns3:TrackPointExtension>
        </extensions>
      </trkpt>
      <trkpt lat="36.8089033104479312896728515625" lon="-118.40973752550780773162841796875">
        <ele>3365.60009765625</ele>
        <time>2021-06-26T15:34:41.000Z</time>
        <extensions>
          <ns3:TrackPointExtension>
            <ns3:atemp>27.0</ns3:atemp>
            <ns3:hr>109</ns3:hr>
          </ns3:TrackPointExtension>
        </extensions>
      </trkpt>
      <trkpt lat="36.80888931266963481903076171875" lon="-118.4097645990550518035888671875">
        <ele>3365.800048828125</ele>
        <time>2021-06-26T15:34:45.000Z</time>
        <extensions>
          <ns3:TrackPointExtension>
            <ns3:atemp>27.0</ns3:atemp>
            <ns3:hr>110</ns3:hr>
          </ns3:TrackPointExtension>
        </extensions>
      </trkpt>
      <trkpt lat="36.8088741414248943328857421875" lon="-118.40978496707975864410400390625">
        <ele>3366.199951171875</ele>
        <time>2021-06-26T15:34:48.000Z</time>
        <extensions>
          <ns3:TrackPointExtension>
            <ns3:atemp>27.0</ns3:atemp>
            <ns3:hr>111</ns3:hr>
          </ns3:TrackPointExtension>
        </extensions>
      </trkpt>
      <trkpt lat="36.80886399932205677032470703125" lon="-118.40981329791247844696044921875">
        <ele>3366.60009765625</ele>
        <time>2021-06-26T15:34:51.000Z</time>
        <extensions>
          <ns3:TrackPointExtension>
            <ns3:atemp>27.0</ns3:atemp>
            <ns3:hr>114</ns3:hr>
          </ns3:TrackPointExtension>
        </extensions>
      </trkpt>
      <trkpt lat="36.8088563717901706695556640625" lon="-118.409849591553211212158203125">
        <ele>3367</ele>
        <time>2021-06-26T15:34:55.000Z</time>
        <extensions>
          <ns3:TrackPointExtension>
            <ns3:atemp>27.0</ns3:atemp>
            <ns3:hr>117</ns3:hr>
          </ns3:TrackPointExtension>
        </extensions>
      </trkpt>
      <trkpt lat="36.80885209701955318450927734375" lon="-118.409871049225330352783203125">
        <ele>3367.39990234375</ele>
        <time>2021-06-26T15:34:57.000Z</time>
        <extensions>
          <ns3:TrackPointExtension>
            <ns3:atemp>27.0</ns3:atemp>
            <ns3:hr>120</ns3:hr>
          </ns3:TrackPointExtension>
        </extensions>
      </trkpt>
      <trkpt lat="36.80883206427097320556640625" lon="-118.4099174849689006805419921875">
        <ele>3368.39990234375</ele>
        <time>2021-06-26T15:35:03.000Z</time>
        <extensions>
          <ns3:TrackPointExtension>
            <ns3:atemp>27.0</ns3:atemp>
            <ns3:hr>120</ns3:hr>
          </ns3:TrackPointExtension>
        </extensions>
      </trkpt>
      <trkpt lat="36.8088268674910068511962890625" lon="-118.409931398928165435791015625">
        <ele>3368.60009765625</ele>
        <time>2021-06-26T15:35:05.000Z</time>
        <extensions>
          <ns3:TrackPointExtension>
            <ns3:atemp>27.0</ns3:atemp>
            <ns3:hr>119</ns3:hr>
          </ns3:TrackPointExtension>
        </extensions>
      </trkpt>
      <trkpt lat="36.80880817584693431854248046875" lon="-118.4099587239325046539306640625">
        <ele>3369.39990234375</ele>
        <time>2021-06-26T15:35:10.000Z</time>
        <extensions>
          <ns3:TrackPointExtension>
            <ns3:atemp>27.0</ns3:atemp>
            <ns3:hr>117</ns3:hr>
          </ns3:TrackPointExtension>
        </extensions>
      </trkpt>
      <trkpt lat="36.80880649946630001068115234375" lon="-118.40996031649410724639892578125">
        <ele>3369.60009765625</ele>
        <time>2021-06-26T15:35:11.000Z</time>
        <extensions>
          <ns3:TrackPointExtension>
            <ns3:atemp>27.0</ns3:atemp>
            <ns3:hr>117</ns3:hr>
          </ns3:TrackPointExtension>
        </extensions>
      </trkpt>
      <trkpt lat="36.80880180560052394866943359375" lon="-118.40996031649410724639892578125">
        <ele>3369.800048828125</ele>
        <time>2021-06-26T15:35:12.000Z</time>
        <extensions>
          <ns3:TrackPointExtension>
            <ns3:atemp>27.0</ns3:atemp>
            <ns3:hr>117</ns3:hr>
          </ns3:TrackPointExtension>
        </extensions>
      </trkpt>
      <trkpt lat="36.8087782524526119232177734375" lon="-118.4099922515451908111572265625">
        <ele>3370.39990234375</ele>
        <time>2021-06-26T15:35:17.000Z</time>
        <extensions>
          <ns3:TrackPointExtension>
            <ns3:atemp>27.0</ns3:atemp>
            <ns3:hr>117</ns3:hr>
          </ns3:TrackPointExtension>
        </extensions>
      </trkpt>
      <trkpt lat="36.80876710452139377593994140625" lon="-118.41000013053417205810546875">
        <ele>3371</ele>
        <time>2021-06-26T15:35:20.000Z</time>
        <extensions>
          <ns3:TrackPointExtension>
            <ns3:atemp>27.0</ns3:atemp>
            <ns3:hr>116</ns3:hr>
          </ns3:TrackPointExtension>
        </extensions>
      </trkpt>
      <trkpt lat="36.80875360965728759765625" lon="-118.4100026451051235198974609375">
        <ele>3371</ele>
        <time>2021-06-26T15:35:22.000Z</time>
        <extensions>
          <ns3:TrackPointExtension>
            <ns3:atemp>27.0</ns3:atemp>
            <ns3:hr>115</ns3:hr>
          </ns3:TrackPointExtension>
        </extensions>
      </trkpt>
      <trkpt lat="36.8087396956980228424072265625" lon="-118.41001278720796108245849609375">
        <ele>3371.800048828125</ele>
        <time>2021-06-26T15:35:25.000Z</time>
        <extensions>
          <ns3:TrackPointExtension>
            <ns3:atemp>27.0</ns3:atemp>
            <ns3:hr>112</ns3:hr>
          </ns3:TrackPointExtension>
        </extensions>
      </trkpt>
      <trkpt lat="36.8087160587310791015625" lon="-118.41001010499894618988037109375">
        <ele>3371.800048828125</ele>
        <time>2021-06-26T15:35:27.000Z</time>
        <extensions>
          <ns3:TrackPointExtension>
            <ns3:atemp>27.0</ns3:atemp>
            <ns3:hr>109</ns3:hr>
          </ns3:TrackPointExtension>
        </extensions>
      </trkpt>
      <trkpt lat="36.80870222859084606170654296875" lon="-118.41001546941697597503662109375">
        <ele>3372.199951171875</ele>
        <time>2021-06-26T15:35:29.000Z</time>
        <extensions>
          <ns3:TrackPointExtension>
            <ns3:atemp>27.0</ns3:atemp>
            <ns3:hr>108</ns3:hr>
          </ns3:TrackPointExtension>
        </extensions>
      </trkpt>
      <trkpt lat="36.80869116447865962982177734375" lon="-118.4100200794637203216552734375">
        <ele>3372.60009765625</ele>
        <time>2021-06-26T15:35:31.000Z</time>
        <extensions>
          <ns3:TrackPointExtension>
            <ns3:atemp>27.0</ns3:atemp>
            <ns3:hr>108</ns3:hr>
          </ns3:TrackPointExtension>
        </extensions>
      </trkpt>
      <trkpt lat="36.80867808870971202850341796875" lon="-118.410017900168895721435546875">
        <ele>3373.199951171875</ele>
        <time>2021-06-26T15:35:34.000Z</time>
        <extensions>
          <ns3:TrackPointExtension>
            <ns3:atemp>27.0</ns3:atemp>
            <ns3:hr>108</ns3:hr>
          </ns3:TrackPointExtension>
        </extensions>
      </trkpt>
      <trkpt lat="36.80868194438517093658447265625" lon="-118.41001463122665882110595703125">
        <ele>3373.39990234375</ele>
        <time>2021-06-26T15:35:39.000Z</time>
        <extensions>
          <ns3:TrackPointExtension>
            <ns3:atemp>27.0</ns3:atemp>
            <ns3:hr>108</ns3:hr>
          </ns3:TrackPointExtension>
        </extensions>
      </trkpt>
      <trkpt lat="36.80868663825094699859619140625" lon="-118.41001228429377079010009765625">
        <ele>3373</ele>
        <time>2021-06-26T15:35:46.000Z</time>
        <extensions>
          <ns3:TrackPointExtension>
            <ns3:atemp>27.0</ns3:atemp>
            <ns3:hr>106</ns3:hr>
          </ns3:TrackPointExtension>
        </extensions>
      </trkpt>
      <trkpt lat="36.8086696229875087738037109375" lon="-118.41001890599727630615234375">
        <ele>3372.800048828125</ele>
        <time>2021-06-26T15:36:05.000Z</time>
        <extensions>
          <ns3:TrackPointExtension>
            <ns3:atemp>27.0</ns3:atemp>
            <ns3:hr>103</ns3:hr>
          </ns3:TrackPointExtension>
        </extensions>
      </trkpt>
      <trkpt lat="36.80866803042590618133544921875" lon="-118.41002401895821094512939453125">
        <ele>3373</ele>
        <time>2021-06-26T15:36:12.000Z</time>
        <extensions>
          <ns3:TrackPointExtension>
            <ns3:atemp>27.0</ns3:atemp>
            <ns3:hr>100</ns3:hr>
          </ns3:TrackPointExtension>
        </extensions>
      </trkpt>
      <trkpt lat="36.80866803042590618133544921875" lon="-118.41002401895821094512939453125">
        <ele>3373</ele>
        <time>2021-06-26T15:36:14.000Z</time>
        <extensions>
          <ns3:TrackPointExtension>
            <ns3:atemp>27.0</ns3:atemp>
            <ns3:hr>96</ns3:hr>
          </ns3:TrackPointExtension>
        </extensions>
      </trkpt>
      <trkpt lat="36.80866803042590618133544921875" lon="-118.41002401895821094512939453125">
        <ele>3373</ele>
        <time>2021-06-26T15:36:16.000Z</time>
        <extensions>
          <ns3:TrackPointExtension>
            <ns3:atemp>27.0</ns3:atemp>
            <ns3:hr>93</ns3:hr>
          </ns3:TrackPointExtension>
        </extensions>
      </trkpt>
      <trkpt lat="36.80866803042590618133544921875" lon="-118.41002401895821094512939453125">
        <ele>3372.800048828125</ele>
        <time>2021-06-26T15:36:20.000Z</time>
        <extensions>
          <ns3:TrackPointExtension>
            <ns3:atemp>27.0</ns3:atemp>
            <ns3:hr>90</ns3:hr>
          </ns3:TrackPointExtension>
        </extensions>
      </trkpt>
      <trkpt lat="36.808668784797191619873046875" lon="-118.41002401895821094512939453125">
        <ele>3372.800048828125</ele>
        <time>2021-06-26T15:36:24.000Z</time>
        <extensions>
          <ns3:TrackPointExtension>
            <ns3:atemp>27.0</ns3:atemp>
            <ns3:hr>86</ns3:hr>
          </ns3:TrackPointExtension>
        </extensions>
      </trkpt>
      <trkpt lat="36.80866937153041362762451171875" lon="-118.41002292931079864501953125">
        <ele>3372.800048828125</ele>
        <time>2021-06-26T15:36:26.000Z</time>
        <extensions>
          <ns3:TrackPointExtension>
            <ns3:atemp>27.0</ns3:atemp>
            <ns3:hr>83</ns3:hr>
          </ns3:TrackPointExtension>
        </extensions>
      </trkpt>
      <trkpt lat="36.80867088027298450469970703125" lon="-118.4100180678069591522216796875">
        <ele>3373</ele>
        <time>2021-06-26T15:36:33.000Z</time>
        <extensions>
          <ns3:TrackPointExtension>
            <ns3:atemp>27.0</ns3:atemp>
            <ns3:hr>87</ns3:hr>
          </ns3:TrackPointExtension>
        </extensions>
      </trkpt>
      <trkpt lat="36.8086712993681430816650390625" lon="-118.4100163914263248443603515625">
        <ele>3372.800048828125</ele>
        <time>2021-06-26T15:36:35.000Z</time>
        <extensions>
          <ns3:TrackPointExtension>
            <ns3:atemp>27.0</ns3:atemp>
            <ns3:hr>90</ns3:hr>
          </ns3:TrackPointExtension>
        </extensions>
      </trkpt>
      <trkpt lat="36.80867289192974567413330078125" lon="-118.4100133739411830902099609375">
        <ele>3373</ele>
        <time>2021-06-26T15:36:43.000Z</time>
        <extensions>
          <ns3:TrackPointExtension>
            <ns3:atemp>27.0</ns3:atemp>
            <ns3:hr>93</ns3:hr>
          </ns3:TrackPointExtension>
        </extensions>
      </trkpt>
      <trkpt lat="36.80866668932139873504638671875" lon="-118.4099672734737396240234375">
        <ele>3373.199951171875</ele>
        <time>2021-06-26T15:36:58.000Z</time>
        <extensions>
          <ns3:TrackPointExtension>
            <ns3:atemp>27.0</ns3:atemp>
            <ns3:hr>90</ns3:hr>
          </ns3:TrackPointExtension>
        </extensions>
      </trkpt>
      <trkpt lat="36.80866635404527187347412109375" lon="-118.4099610708653926849365234375">
        <ele>3373.199951171875</ele>
        <time>2021-06-26T15:37:01.000Z</time>
        <extensions>
          <ns3:TrackPointExtension>
            <ns3:atemp>27.0</ns3:atemp>
            <ns3:hr>87</ns3:hr>
          </ns3:TrackPointExtension>
        </extensions>
      </trkpt>
      <trkpt lat="36.808666102588176727294921875" lon="-118.40996081940829753875732421875">
        <ele>3373.199951171875</ele>
        <time>2021-06-26T15:37:03.000Z</time>
        <extensions>
          <ns3:TrackPointExtension>
            <ns3:atemp>27.0</ns3:atemp>
            <ns3:hr>82</ns3:hr>
          </ns3:TrackPointExtension>
        </extensions>
      </trkpt>
      <trkpt lat="36.808666102588176727294921875" lon="-118.4099607355892658233642578125">
        <ele>3373.199951171875</ele>
        <time>2021-06-26T15:37:04.000Z</time>
        <extensions>
          <ns3:TrackPointExtension>
            <ns3:atemp>27.0</ns3:atemp>
            <ns3:hr>79</ns3:hr>
          </ns3:TrackPointExtension>
        </extensions>
      </trkpt>
      <trkpt lat="36.8086659349501132965087890625" lon="-118.4099607355892658233642578125">
        <ele>3373.199951171875</ele>
        <time>2021-06-26T15:37:06.000Z</time>
        <extensions>
          <ns3:TrackPointExtension>
            <ns3:atemp>27.0</ns3:atemp>
            <ns3:hr>75</ns3:hr>
          </ns3:TrackPointExtension>
        </extensions>
      </trkpt>
      <trkpt lat="36.80866568349301815032958984375" lon="-118.4099634177982807159423828125">
        <ele>3373.39990234375</ele>
        <time>2021-06-26T15:37:24.000Z</time>
        <extensions>
          <ns3:TrackPointExtension>
            <ns3:atemp>27.0</ns3:atemp>
            <ns3:hr>78</ns3:hr>
          </ns3:TrackPointExtension>
        </extensions>
      </trkpt>
      <trkpt lat="36.80867071263492107391357421875" lon="-118.409981690347194671630859375">
        <ele>3373.39990234375</ele>
        <time>2021-06-26T15:37:37.000Z</time>
        <extensions>
          <ns3:TrackPointExtension>
            <ns3:atemp>27.0</ns3:atemp>
            <ns3:hr>82</ns3:hr>
          </ns3:TrackPointExtension>
        </extensions>
      </trkpt>
      <trkpt lat="36.80867222137749195098876953125" lon="-118.40998697094619274139404296875">
        <ele>3373.39990234375</ele>
        <time>2021-06-26T15:37:44.000Z</time>
        <extensions>
          <ns3:TrackPointExtension>
            <ns3:atemp>27.0</ns3:atemp>
            <ns3:hr>85</ns3:hr>
          </ns3:TrackPointExtension>
        </extensions>
      </trkpt>
      <trkpt lat="36.80867540650069713592529296875" lon="-118.409991748631000518798828125">
        <ele>3373.60009765625</ele>
        <time>2021-06-26T15:37:49.000Z</time>
        <extensions>
          <ns3:TrackPointExtension>
            <ns3:atemp>26.0</ns3:atemp>
            <ns3:hr>84</ns3:hr>
          </ns3:TrackPointExtension>
        </extensions>
      </trkpt>
      <trkpt lat="36.80867641232907772064208984375" lon="-118.409997113049030303955078125">
        <ele>3373.60009765625</ele>
        <time>2021-06-26T15:37:55.000Z</time>
        <extensions>
          <ns3:TrackPointExtension>
            <ns3:atemp>26.0</ns3:atemp>
            <ns3:hr>81</ns3:hr>
          </ns3:TrackPointExtension>
        </extensions>
      </trkpt>
      <trkpt lat="36.80867649614810943603515625" lon="-118.41000415384769439697265625">
        <ele>3373.800048828125</ele>
        <time>2021-06-26T15:37:58.000Z</time>
        <extensions>
          <ns3:TrackPointExtension>
            <ns3:atemp>26.0</ns3:atemp>
            <ns3:hr>78</ns3:hr>
          </ns3:TrackPointExtension>
        </extensions>
      </trkpt>
      <trkpt lat="36.80867649614810943603515625" lon="-118.41000775806605815887451171875">
        <ele>3374.60009765625</ele>
        <time>2021-06-26T15:38:00.000Z</time>
        <extensions>
          <ns3:TrackPointExtension>
            <ns3:atemp>26.0</ns3:atemp>
            <ns3:hr>77</ns3:hr>
          </ns3:TrackPointExtension>
        </extensions>
      </trkpt>
      <trkpt lat="36.80867490358650684356689453125" lon="-118.41001379303634166717529296875">
        <ele>3374.60009765625</ele>
        <time>2021-06-26T15:38:12.000Z</time>
        <extensions>
          <ns3:TrackPointExtension>
            <ns3:atemp>26.0</ns3:atemp>
            <ns3:hr>73</ns3:hr>
          </ns3:TrackPointExtension>
        </extensions>
      </trkpt>
      <trkpt lat="36.808626540005207061767578125" lon="-118.410029970109462738037109375">
        <ele>3375.800048828125</ele>
        <time>2021-06-26T15:38:18.000Z</time>
        <extensions>
          <ns3:TrackPointExtension>
            <ns3:atemp>26.0</ns3:atemp>
            <ns3:hr>72</ns3:hr>
          </ns3:TrackPointExtension>
        </extensions>
      </trkpt>
      <trkpt lat="36.8085941858589649200439453125" lon="-118.4100428782403469085693359375">
        <ele>3376</ele>
        <time>2021-06-26T15:38:21.000Z</time>
        <extensions>
          <ns3:TrackPointExtension>
            <ns3:atemp>26.0</ns3:atemp>
            <ns3:hr>75</ns3:hr>
          </ns3:TrackPointExtension>
        </extensions>
      </trkpt>
      <trkpt lat="36.80858370848000049591064453125" lon="-118.41008269228041172027587890625">
        <ele>3376.800048828125</ele>
        <time>2021-06-26T15:38:25.000Z</time>
        <extensions>
          <ns3:TrackPointExtension>
            <ns3:atemp>26.0</ns3:atemp>
            <ns3:hr>77</ns3:hr>
          </ns3:TrackPointExtension>
        </extensions>
      </trkpt>
      <trkpt lat="36.80859175510704517364501953125" lon="-118.41010733507573604583740234375">
        <ele>3377.199951171875</ele>
        <time>2021-06-26T15:38:27.000Z</time>
        <extensions>
          <ns3:TrackPointExtension>
            <ns3:atemp>26.0</ns3:atemp>
            <ns3:hr>80</ns3:hr>
          </ns3:TrackPointExtension>
        </extensions>
      </trkpt>
      <trkpt lat="36.80859544314444065093994140625" lon="-118.41011948883533477783203125">
        <ele>3377.39990234375</ele>
        <time>2021-06-26T15:38:28.000Z</time>
        <extensions>
          <ns3:TrackPointExtension>
            <ns3:atemp>26.0</ns3:atemp>
            <ns3:hr>83</ns3:hr>
          </ns3:TrackPointExtension>
        </extensions>
      </trkpt>
      <trkpt lat="36.80860063992440700531005859375" lon="-118.41013155877590179443359375">
        <ele>3377.39990234375</ele>
        <time>2021-06-26T15:38:29.000Z</time>
        <extensions>
          <ns3:TrackPointExtension>
            <ns3:atemp>26.0</ns3:atemp>
            <ns3:hr>83</ns3:hr>
          </ns3:TrackPointExtension>
        </extensions>
      </trkpt>
      <trkpt lat="36.8086020648479461669921875" lon="-118.410151004791259765625">
        <ele>3377.800048828125</ele>
        <time>2021-06-26T15:38:32.000Z</time>
        <extensions>
          <ns3:TrackPointExtension>
            <ns3:atemp>26.0</ns3:atemp>
            <ns3:hr>87</ns3:hr>
          </ns3:TrackPointExtension>
        </extensions>
      </trkpt>
      <trkpt lat="36.80859577842056751251220703125" lon="-118.41014773584902286529541015625">
        <ele>3378</ele>
        <time>2021-06-26T15:38:33.000Z</time>
        <extensions>
          <ns3:TrackPointExtension>
            <ns3:atemp>26.0</ns3:atemp>
            <ns3:hr>90</ns3:hr>
          </ns3:TrackPointExtension>
        </extensions>
      </trkpt>
      <trkpt lat="36.80859108455479145050048828125" lon="-118.410149998962879180908203125">
        <ele>3378</ele>
        <time>2021-06-26T15:38:34.000Z</time>
        <extensions>
          <ns3:TrackPointExtension>
            <ns3:atemp>26.0</ns3:atemp>
            <ns3:hr>93</ns3:hr>
          </ns3:TrackPointExtension>
        </extensions>
      </trkpt>
      <trkpt lat="36.808586306869983673095703125" lon="-118.4101528488099575042724609375">
        <ele>3378.39990234375</ele>
        <time>2021-06-26T15:38:35.000Z</time>
        <extensions>
          <ns3:TrackPointExtension>
            <ns3:atemp>26.0</ns3:atemp>
            <ns3:hr>96</ns3:hr>
          </ns3:TrackPointExtension>
        </extensions>
      </trkpt>
      <trkpt lat="36.80858588777482509613037109375" lon="-118.4101726301014423370361328125">
        <ele>3378.60009765625</ele>
        <time>2021-06-26T15:38:37.000Z</time>
        <extensions>
          <ns3:TrackPointExtension>
            <ns3:atemp>26.0</ns3:atemp>
            <ns3:hr>99</ns3:hr>
          </ns3:TrackPointExtension>
        </extensions>
      </trkpt>
      <trkpt lat="36.80859393440186977386474609375" lon="-118.41019953601062297821044921875">
        <ele>3379</ele>
        <time>2021-06-26T15:38:39.000Z</time>
        <extensions>
          <ns3:TrackPointExtension>
            <ns3:atemp>26.0</ns3:atemp>
            <ns3:hr>102</ns3:hr>
          </ns3:TrackPointExtension>
        </extensions>
      </trkpt>
      <trkpt lat="36.8085958622395992279052734375" lon="-118.41021277941763401031494140625">
        <ele>3379.39990234375</ele>
        <time>2021-06-26T15:38:40.000Z</time>
        <extensions>
          <ns3:TrackPointExtension>
            <ns3:atemp>26.0</ns3:atemp>
            <ns3:hr>103</ns3:hr>
          </ns3:TrackPointExtension>
        </extensions>
      </trkpt>
      <trkpt lat="36.80859494023025035858154296875" lon="-118.410234153270721435546875">
        <ele>3379.60009765625</ele>
        <time>2021-06-26T15:38:42.000Z</time>
        <extensions>
          <ns3:TrackPointExtension>
            <ns3:atemp>26.0</ns3:atemp>
            <ns3:hr>106</ns3:hr>
          </ns3:TrackPointExtension>
        </extensions>
      </trkpt>
      <trkpt lat="36.808591000735759735107421875" lon="-118.41025033034384250640869140625">
        <ele>3380</ele>
        <time>2021-06-26T15:38:44.000Z</time>
        <extensions>
          <ns3:TrackPointExtension>
            <ns3:atemp>26.0</ns3:atemp>
            <ns3:hr>108</ns3:hr>
          </ns3:TrackPointExtension>
        </extensions>
      </trkpt>
      <trkpt lat="36.80857666768133640289306640625" lon="-118.41027103364467620849609375">
        <ele>3380.39990234375</ele>
        <time>2021-06-26T15:38:48.000Z</time>
        <extensions>
          <ns3:TrackPointExtension>
            <ns3:atemp>26.0</ns3:atemp>
            <ns3:hr>110</ns3:hr>
          </ns3:TrackPointExtension>
        </extensions>
      </trkpt>
      <trkpt lat="36.8085874803364276885986328125" lon="-118.41031637974083423614501953125">
        <ele>3381.199951171875</ele>
        <time>2021-06-26T15:38:53.000Z</time>
        <extensions>
          <ns3:TrackPointExtension>
            <ns3:atemp>26.0</ns3:atemp>
            <ns3:hr>110</ns3:hr>
          </ns3:TrackPointExtension>
        </extensions>
      </trkpt>
      <trkpt lat="36.8085888214409351348876953125" lon="-118.410327024757862091064453125">
        <ele>3381.39990234375</ele>
        <time>2021-06-26T15:38:54.000Z</time>
        <extensions>
          <ns3:TrackPointExtension>
            <ns3:atemp>26.0</ns3:atemp>
            <ns3:hr>108</ns3:hr>
          </ns3:TrackPointExtension>
        </extensions>
      </trkpt>
      <trkpt lat="36.80857750587165355682373046875" lon="-118.4103449620306491851806640625">
        <ele>3382</ele>
        <time>2021-06-26T15:38:57.000Z</time>
        <extensions>
          <ns3:TrackPointExtension>
            <ns3:atemp>26.0</ns3:atemp>
            <ns3:hr>105</ns3:hr>
          </ns3:TrackPointExtension>
        </extensions>
      </trkpt>
      <trkpt lat="36.80854766629636287689208984375" lon="-118.41035091318190097808837890625">
        <ele>3382.199951171875</ele>
        <time>2021-06-26T15:39:01.000Z</time>
        <extensions>
          <ns3:TrackPointExtension>
            <ns3:atemp>26.0</ns3:atemp>
            <ns3:hr>103</ns3:hr>
          </ns3:TrackPointExtension>
        </extensions>
      </trkpt>
      <trkpt lat="36.80854062549769878387451171875" lon="-118.41035493649542331695556640625">
        <ele>3382.800048828125</ele>
        <time>2021-06-26T15:39:02.000Z</time>
        <extensions>
          <ns3:TrackPointExtension>
            <ns3:atemp>26.0</ns3:atemp>
            <ns3:hr>103</ns3:hr>
          </ns3:TrackPointExtension>
        </extensions>
      </trkpt>
      <trkpt lat="36.8084912560880184173583984375" lon="-118.41040992178022861480712890625">
        <ele>3383.800048828125</ele>
        <time>2021-06-26T15:39:11.000Z</time>
        <extensions>
          <ns3:TrackPointExtension>
            <ns3:atemp>26.0</ns3:atemp>
            <ns3:hr>104</ns3:hr>
          </ns3:TrackPointExtension>
        </extensions>
      </trkpt>
      <trkpt lat="36.808461584150791168212890625" lon="-118.4104582853615283966064453125">
        <ele>3384.39990234375</ele>
        <time>2021-06-26T15:39:19.000Z</time>
        <extensions>
          <ns3:TrackPointExtension>
            <ns3:atemp>26.0</ns3:atemp>
            <ns3:hr>104</ns3:hr>
          </ns3:TrackPointExtension>
        </extensions>
      </trkpt>
      <trkpt lat="36.8084733188152313232421875" lon="-118.410485945641994476318359375">
        <ele>3385</ele>
        <time>2021-06-26T15:39:21.000Z</time>
        <extensions>
          <ns3:TrackPointExtension>
            <ns3:atemp>26.0</ns3:atemp>
            <ns3:hr>105</ns3:hr>
          </ns3:TrackPointExtension>
        </extensions>
      </trkpt>
      <trkpt lat="36.80848262272775173187255859375" lon="-118.41049860231578350067138671875">
        <ele>3385.199951171875</ele>
        <time>2021-06-26T15:39:23.000Z</time>
        <extensions>
          <ns3:TrackPointExtension>
            <ns3:atemp>26.0</ns3:atemp>
            <ns3:hr>109</ns3:hr>
          </ns3:TrackPointExtension>
        </extensions>
      </trkpt>
      <trkpt lat="36.8084936030209064483642578125" lon="-118.41051385737955570220947265625">
        <ele>3385.39990234375</ele>
        <time>2021-06-26T15:39:25.000Z</time>
        <extensions>
          <ns3:TrackPointExtension>
            <ns3:atemp>26.0</ns3:atemp>
            <ns3:hr>112</ns3:hr>
          </ns3:TrackPointExtension>
        </extensions>
      </trkpt>
      <trkpt lat="36.80851011537015438079833984375" lon="-118.41052626259624958038330078125">
        <ele>3385.800048828125</ele>
        <time>2021-06-26T15:39:27.000Z</time>
        <extensions>
          <ns3:TrackPointExtension>
            <ns3:atemp>26.0</ns3:atemp>
            <ns3:hr>115</ns3:hr>
          </ns3:TrackPointExtension>
        </extensions>
      </trkpt>
      <trkpt lat="36.80851514451205730438232421875" lon="-118.41053414158523082733154296875">
        <ele>3386</ele>
        <time>2021-06-26T15:39:28.000Z</time>
        <extensions>
          <ns3:TrackPointExtension>
            <ns3:atemp>26.0</ns3:atemp>
            <ns3:hr>115</ns3:hr>
          </ns3:TrackPointExtension>
        </extensions>
      </trkpt>
      <trkpt lat="36.8085457384586334228515625" lon="-118.41055911965668201446533203125">
        <ele>3386.800048828125</ele>
        <time>2021-06-26T15:39:34.000Z</time>
        <extensions>
          <ns3:TrackPointExtension>
            <ns3:atemp>26.0</ns3:atemp>
            <ns3:hr>116</ns3:hr>
          </ns3:TrackPointExtension>
        </extensions>
      </trkpt>
      <trkpt lat="36.80855403654277324676513671875" lon="-118.4105600416660308837890625">
        <ele>3387.199951171875</ele>
        <time>2021-06-26T15:39:37.000Z</time>
        <extensions>
          <ns3:TrackPointExtension>
            <ns3:atemp>26.0</ns3:atemp>
            <ns3:hr>117</ns3:hr>
          </ns3:TrackPointExtension>
        </extensions>
      </trkpt>
      <trkpt lat="36.80857314728200435638427734375" lon="-118.4105695970356464385986328125">
        <ele>3388</ele>
        <time>2021-06-26T15:39:40.000Z</time>
        <extensions>
          <ns3:TrackPointExtension>
            <ns3:atemp>26.0</ns3:atemp>
            <ns3:hr>120</ns3:hr>
          </ns3:TrackPointExtension>
        </extensions>
      </trkpt>
      <trkpt lat="36.80858320556581020355224609375" lon="-118.4105685912072658538818359375">
        <ele>3388</ele>
        <time>2021-06-26T15:39:41.000Z</time>
        <extensions>
          <ns3:TrackPointExtension>
            <ns3:atemp>26.0</ns3:atemp>
            <ns3:hr>116</ns3:hr>
          </ns3:TrackPointExtension>
        </extensions>
      </trkpt>
      <trkpt lat="36.808595359325408935546875" lon="-118.41056607663631439208984375">
        <ele>3388.199951171875</ele>
        <time>2021-06-26T15:39:42.000Z</time>
        <extensions>
          <ns3:TrackPointExtension>
            <ns3:atemp>26.0</ns3:atemp>
            <ns3:hr>117</ns3:hr>
          </ns3:TrackPointExtension>
        </extensions>
      </trkpt>
      <trkpt lat="36.808682195842266082763671875" lon="-118.41059692203998565673828125">
        <ele>3389.199951171875</ele>
        <time>2021-06-26T15:39:50.000Z</time>
        <extensions>
          <ns3:TrackPointExtension>
            <ns3:atemp>26.0</ns3:atemp>
            <ns3:hr>117</ns3:hr>
          </ns3:TrackPointExtension>
        </extensions>
      </trkpt>
      <trkpt lat="36.8086904101073741912841796875" lon="-118.41060706414282321929931640625">
        <ele>3389.199951171875</ele>
        <time>2021-06-26T15:39:51.000Z</time>
        <extensions>
          <ns3:TrackPointExtension>
            <ns3:atemp>26.0</ns3:atemp>
            <ns3:hr>117</ns3:hr>
          </ns3:TrackPointExtension>
        </extensions>
      </trkpt>
      <trkpt lat="36.80874480865895748138427734375" lon="-118.4106601215898990631103515625">
        <ele>3390</ele>
        <time>2021-06-26T15:39:58.000Z</time>
        <extensions>
          <ns3:TrackPointExtension>
            <ns3:atemp>27.0</ns3:atemp>
            <ns3:hr>118</ns3:hr>
          </ns3:TrackPointExtension>
        </extensions>
      </trkpt>
      <trkpt lat="36.8087537772953510284423828125" lon="-118.41067965142428874969482421875">
        <ele>3390</ele>
        <time>2021-06-26T15:40:02.000Z</time>
        <extensions>
          <ns3:TrackPointExtension>
            <ns3:atemp>27.0</ns3:atemp>
            <ns3:hr>121</ns3:hr>
          </ns3:TrackPointExtension>
        </extensions>
      </trkpt>
      <trkpt lat="36.80874799378216266632080078125" lon="-118.41071083210408687591552734375">
        <ele>3390.60009765625</ele>
        <time>2021-06-26T15:40:05.000Z</time>
        <extensions>
          <ns3:TrackPointExtension>
            <ns3:atemp>27.0</ns3:atemp>
            <ns3:hr>121</ns3:hr>
          </ns3:TrackPointExtension>
        </extensions>
      </trkpt>
      <trkpt lat="36.80874547921121120452880859375" lon="-118.41071653179824352264404296875">
        <ele>3390.60009765625</ele>
        <time>2021-06-26T15:40:06.000Z</time>
        <extensions>
          <ns3:TrackPointExtension>
            <ns3:atemp>27.0</ns3:atemp>
            <ns3:hr>121</ns3:hr>
          </ns3:TrackPointExtension>
        </extensions>
      </trkpt>
      <trkpt lat="36.80871765129268169403076171875" lon="-118.41073530726134777069091796875">
        <ele>3391.60009765625</ele>
        <time>2021-06-26T15:40:12.000Z</time>
        <extensions>
          <ns3:TrackPointExtension>
            <ns3:atemp>27.0</ns3:atemp>
            <ns3:hr>120</ns3:hr>
          </ns3:TrackPointExtension>
        </extensions>
      </trkpt>
      <trkpt lat="36.808708012104034423828125" lon="-118.41074519790709018707275390625">
        <ele>3391.800048828125</ele>
        <time>2021-06-26T15:40:14.000Z</time>
        <extensions>
          <ns3:TrackPointExtension>
            <ns3:atemp>27.0</ns3:atemp>
            <ns3:hr>119</ns3:hr>
          </ns3:TrackPointExtension>
        </extensions>
      </trkpt>
      <trkpt lat="36.80870424024760723114013671875" lon="-118.4107697568833827972412109375">
        <ele>3392.39990234375</ele>
        <time>2021-06-26T15:40:17.000Z</time>
        <extensions>
          <ns3:TrackPointExtension>
            <ns3:atemp>27.0</ns3:atemp>
            <ns3:hr>116</ns3:hr>
          </ns3:TrackPointExtension>
        </extensions>
      </trkpt>
      <trkpt lat="36.80867507122457027435302734375" lon="-118.41078467667102813720703125">
        <ele>3392.60009765625</ele>
        <time>2021-06-26T15:40:22.000Z</time>
        <extensions>
          <ns3:TrackPointExtension>
            <ns3:atemp>27.0</ns3:atemp>
            <ns3:hr>116</ns3:hr>
          </ns3:TrackPointExtension>
        </extensions>
      </trkpt>
      <trkpt lat="36.8086712993681430816650390625" lon="-118.4107888676226139068603515625">
        <ele>3393.39990234375</ele>
        <time>2021-06-26T15:40:23.000Z</time>
        <extensions>
          <ns3:TrackPointExtension>
            <ns3:atemp>26.0</ns3:atemp>
            <ns3:hr>116</ns3:hr>
          </ns3:TrackPointExtension>
        </extensions>
      </trkpt>
      <trkpt lat="36.80865629576146602630615234375" lon="-118.41081644408404827117919921875">
        <ele>3394</ele>
        <time>2021-06-26T15:40:26.000Z</time>
        <extensions>
          <ns3:TrackPointExtension>
            <ns3:atemp>26.0</ns3:atemp>
            <ns3:hr>115</ns3:hr>
          </ns3:TrackPointExtension>
        </extensions>
      </trkpt>
      <trkpt lat="36.808623857796192169189453125" lon="-118.41086975298821926116943359375">
        <ele>3394.800048828125</ele>
        <time>2021-06-26T15:40:33.000Z</time>
        <extensions>
          <ns3:TrackPointExtension>
            <ns3:atemp>26.0</ns3:atemp>
            <ns3:hr>117</ns3:hr>
          </ns3:TrackPointExtension>
        </extensions>
      </trkpt>
      <trkpt lat="36.808625198900699615478515625" lon="-118.4109122492372989654541015625">
        <ele>3395.199951171875</ele>
        <time>2021-06-26T15:40:36.000Z</time>
        <extensions>
          <ns3:TrackPointExtension>
            <ns3:atemp>26.0</ns3:atemp>
            <ns3:hr>117</ns3:hr>
          </ns3:TrackPointExtension>
        </extensions>
      </trkpt>
      <trkpt lat="36.80860248394310474395751953125" lon="-118.41098877601325511932373046875">
        <ele>3396.199951171875</ele>
        <time>2021-06-26T15:40:43.000Z</time>
        <extensions>
          <ns3:TrackPointExtension>
            <ns3:atemp>26.0</ns3:atemp>
            <ns3:hr>116</ns3:hr>
          </ns3:TrackPointExtension>
        </extensions>
      </trkpt>
      <trkpt lat="36.80859737098217010498046875" lon="-118.411023728549480438232421875">
        <ele>3396.199951171875</ele>
        <time>2021-06-26T15:40:46.000Z</time>
        <extensions>
          <ns3:TrackPointExtension>
            <ns3:atemp>26.0</ns3:atemp>
            <ns3:hr>116</ns3:hr>
          </ns3:TrackPointExtension>
        </extensions>
      </trkpt>
      <trkpt lat="36.8085871450603008270263671875" lon="-118.4110604412853717803955078125">
        <ele>3396.60009765625</ele>
        <time>2021-06-26T15:40:50.000Z</time>
        <extensions>
          <ns3:TrackPointExtension>
            <ns3:atemp>26.0</ns3:atemp>
            <ns3:hr>116</ns3:hr>
          </ns3:TrackPointExtension>
        </extensions>
      </trkpt>
      <trkpt lat="36.80853945203125476837158203125" lon="-118.411162197589874267578125">
        <ele>3397</ele>
        <time>2021-06-26T15:41:01.000Z</time>
        <extensions>
          <ns3:TrackPointExtension>
            <ns3:atemp>26.0</ns3:atemp>
            <ns3:hr>118</ns3:hr>
          </ns3:TrackPointExtension>
        </extensions>
      </trkpt>
      <trkpt lat="36.8085284717381000518798828125" lon="-118.4112093038856983184814453125">
        <ele>3397</ele>
        <time>2021-06-26T15:41:05.000Z</time>
        <extensions>
          <ns3:TrackPointExtension>
            <ns3:atemp>26.0</ns3:atemp>
            <ns3:hr>116</ns3:hr>
          </ns3:TrackPointExtension>
        </extensions>
      </trkpt>
      <trkpt lat="36.80853442288935184478759765625" lon="-118.411256410181522369384765625">
        <ele>3396.60009765625</ele>
        <time>2021-06-26T15:41:09.000Z</time>
        <extensions>
          <ns3:TrackPointExtension>
            <ns3:atemp>26.0</ns3:atemp>
            <ns3:hr>112</ns3:hr>
          </ns3:TrackPointExtension>
        </extensions>
      </trkpt>
      <trkpt lat="36.8085443973541259765625" lon="-118.4112800471484661102294921875">
        <ele>3396.60009765625</ele>
        <time>2021-06-26T15:41:11.000Z</time>
        <extensions>
          <ns3:TrackPointExtension>
            <ns3:atemp>26.0</ns3:atemp>
            <ns3:hr>109</ns3:hr>
          </ns3:TrackPointExtension>
        </extensions>
      </trkpt>
      <trkpt lat="36.8085549585521221160888671875" lon="-118.41128893196582794189453125">
        <ele>3396.60009765625</ele>
        <time>2021-06-26T15:41:12.000Z</time>
        <extensions>
          <ns3:TrackPointExtension>
            <ns3:atemp>26.0</ns3:atemp>
            <ns3:hr>108</ns3:hr>
          </ns3:TrackPointExtension>
        </extensions>
      </trkpt>
      <trkpt lat="36.80855982005596160888671875" lon="-118.41129831969738006591796875">
        <ele>3396.60009765625</ele>
        <time>2021-06-26T15:41:13.000Z</time>
        <extensions>
          <ns3:TrackPointExtension>
            <ns3:atemp>26.0</ns3:atemp>
            <ns3:hr>106</ns3:hr>
          </ns3:TrackPointExtension>
        </extensions>
      </trkpt>
      <trkpt lat="36.80856593884527683258056640625" lon="-118.41135305352509021759033203125">
        <ele>3396.39990234375</ele>
        <time>2021-06-26T15:41:17.000Z</time>
        <extensions>
          <ns3:TrackPointExtension>
            <ns3:atemp>26.0</ns3:atemp>
            <ns3:hr>103</ns3:hr>
          </ns3:TrackPointExtension>
        </extensions>
      </trkpt>
      <trkpt lat="36.8085713870823383331298828125" lon="-118.411419689655303955078125">
        <ele>3396.199951171875</ele>
        <time>2021-06-26T15:41:22.000Z</time>
        <extensions>
          <ns3:TrackPointExtension>
            <ns3:atemp>26.0</ns3:atemp>
            <ns3:hr>100</ns3:hr>
          </ns3:TrackPointExtension>
        </extensions>
      </trkpt>
      <trkpt lat="36.8085767515003681182861328125" lon="-118.41143511235713958740234375">
        <ele>3396.199951171875</ele>
        <time>2021-06-26T15:41:23.000Z</time>
        <extensions>
          <ns3:TrackPointExtension>
            <ns3:atemp>26.0</ns3:atemp>
            <ns3:hr>99</ns3:hr>
          </ns3:TrackPointExtension>
        </extensions>
      </trkpt>
      <trkpt lat="36.8085931800305843353271484375" lon="-118.41151666827499866485595703125">
        <ele>3396.39990234375</ele>
        <time>2021-06-26T15:41:31.000Z</time>
        <extensions>
          <ns3:TrackPointExtension>
            <ns3:atemp>26.0</ns3:atemp>
            <ns3:hr>98</ns3:hr>
          </ns3:TrackPointExtension>
        </extensions>
      </trkpt>
      <trkpt lat="36.80863500572741031646728515625" lon="-118.41159897856414318084716796875">
        <ele>3396.199951171875</ele>
        <time>2021-06-26T15:41:40.000Z</time>
        <extensions>
          <ns3:TrackPointExtension>
            <ns3:atemp>26.0</ns3:atemp>
            <ns3:hr>96</ns3:hr>
          </ns3:TrackPointExtension>
        </extensions>
      </trkpt>
      <trkpt lat="36.80863852612674236297607421875" lon="-118.41160132549703121185302734375">
        <ele>3396.199951171875</ele>
        <time>2021-06-26T15:41:42.000Z</time>
        <extensions>
          <ns3:TrackPointExtension>
            <ns3:atemp>26.0</ns3:atemp>
            <ns3:hr>96</ns3:hr>
          </ns3:TrackPointExtension>
        </extensions>
      </trkpt>
      <trkpt lat="36.8086454831063747406005859375" lon="-118.4115578234195709228515625">
        <ele>3396.199951171875</ele>
        <time>2021-06-26T15:41:46.000Z</time>
        <extensions>
          <ns3:TrackPointExtension>
            <ns3:atemp>26.0</ns3:atemp>
            <ns3:hr>98</ns3:hr>
          </ns3:TrackPointExtension>
        </extensions>
      </trkpt>
      <trkpt lat="36.80864690802991390228271484375" lon="-118.411542065441608428955078125">
        <ele>3396.39990234375</ele>
        <time>2021-06-26T15:41:49.000Z</time>
        <extensions>
          <ns3:TrackPointExtension>
            <ns3:atemp>26.0</ns3:atemp>
            <ns3:hr>95</ns3:hr>
          </ns3:TrackPointExtension>
        </extensions>
      </trkpt>
      <trkpt lat="36.808649338781833648681640625" lon="-118.4115361981093883514404296875">
        <ele>3396.39990234375</ele>
        <time>2021-06-26T15:41:51.000Z</time>
        <extensions>
          <ns3:TrackPointExtension>
            <ns3:atemp>26.0</ns3:atemp>
            <ns3:hr>92</ns3:hr>
          </ns3:TrackPointExtension>
        </extensions>
      </trkpt>
      <trkpt lat="36.80865126661956310272216796875" lon="-118.4115378744900226593017578125">
        <ele>3396.199951171875</ele>
        <time>2021-06-26T15:41:53.000Z</time>
        <extensions>
          <ns3:TrackPointExtension>
            <ns3:atemp>26.0</ns3:atemp>
            <ns3:hr>89</ns3:hr>
          </ns3:TrackPointExtension>
        </extensions>
      </trkpt>
      <trkpt lat="36.80864632129669189453125" lon="-118.4115351922810077667236328125">
        <ele>3396.199951171875</ele>
        <time>2021-06-26T15:41:56.000Z</time>
        <extensions>
          <ns3:TrackPointExtension>
            <ns3:atemp>26.0</ns3:atemp>
            <ns3:hr>86</ns3:hr>
          </ns3:TrackPointExtension>
        </extensions>
      </trkpt>
      <trkpt lat="36.80864305235445499420166015625" lon="-118.41153435409069061279296875">
        <ele>3396.199951171875</ele>
        <time>2021-06-26T15:41:57.000Z</time>
        <extensions>
          <ns3:TrackPointExtension>
            <ns3:atemp>26.0</ns3:atemp>
            <ns3:hr>85</ns3:hr>
          </ns3:TrackPointExtension>
        </extensions>
      </trkpt>
      <trkpt lat="36.80866048671305179595947265625" lon="-118.41156478039920330047607421875">
        <ele>3396.39990234375</ele>
        <time>2021-06-26T15:42:07.000Z</time>
        <extensions>
          <ns3:TrackPointExtension>
            <ns3:atemp>26.0</ns3:atemp>
            <ns3:hr>83</ns3:hr>
          </ns3:TrackPointExtension>
        </extensions>
      </trkpt>
      <trkpt lat="36.80867691524326801300048828125" lon="-118.411584310233592987060546875">
        <ele>3396.60009765625</ele>
        <time>2021-06-26T15:42:10.000Z</time>
        <extensions>
          <ns3:TrackPointExtension>
            <ns3:atemp>26.0</ns3:atemp>
            <ns3:hr>86</ns3:hr>
          </ns3:TrackPointExtension>
        </extensions>
      </trkpt>
      <trkpt lat="36.808690242469310760498046875" lon="-118.411603756248950958251953125">
        <ele>3396.60009765625</ele>
        <time>2021-06-26T15:42:12.000Z</time>
        <extensions>
          <ns3:TrackPointExtension>
            <ns3:atemp>26.0</ns3:atemp>
            <ns3:hr>89</ns3:hr>
          </ns3:TrackPointExtension>
        </extensions>
      </trkpt>
      <trkpt lat="36.80872100405395030975341796875" lon="-118.411655388772487640380859375">
        <ele>3396.800048828125</ele>
        <time>2021-06-26T15:42:16.000Z</time>
        <extensions>
          <ns3:TrackPointExtension>
            <ns3:atemp>26.0</ns3:atemp>
            <ns3:hr>92</ns3:hr>
          </ns3:TrackPointExtension>
        </extensions>
      </trkpt>
      <trkpt lat="36.80875838734209537506103515625" lon="-118.41167089529335498809814453125">
        <ele>3395</ele>
        <time>2021-06-26T15:42:19.000Z</time>
        <extensions>
          <ns3:TrackPointExtension>
            <ns3:atemp>26.0</ns3:atemp>
            <ns3:hr>92</ns3:hr>
          </ns3:TrackPointExtension>
        </extensions>
      </trkpt>
      <trkpt lat="36.8088124506175518035888671875" lon="-118.41175219975411891937255859375">
        <ele>3394.800048828125</ele>
        <time>2021-06-26T15:42:27.000Z</time>
        <extensions>
          <ns3:TrackPointExtension>
            <ns3:atemp>26.0</ns3:atemp>
            <ns3:hr>94</ns3:hr>
          </ns3:TrackPointExtension>
        </extensions>
      </trkpt>
      <trkpt lat="36.80883030407130718231201171875" lon="-118.41178690083324909210205078125">
        <ele>3395</ele>
        <time>2021-06-26T15:42:30.000Z</time>
        <extensions>
          <ns3:TrackPointExtension>
            <ns3:atemp>26.0</ns3:atemp>
            <ns3:hr>91</ns3:hr>
          </ns3:TrackPointExtension>
        </extensions>
      </trkpt>
      <trkpt lat="36.808869279921054840087890625" lon="-118.41185278259217739105224609375">
        <ele>3395.199951171875</ele>
        <time>2021-06-26T15:42:36.000Z</time>
        <extensions>
          <ns3:TrackPointExtension>
            <ns3:atemp>26.0</ns3:atemp>
            <ns3:hr>88</ns3:hr>
          </ns3:TrackPointExtension>
        </extensions>
      </trkpt>
      <trkpt lat="36.80887506343424320220947265625" lon="-118.41186300851404666900634765625">
        <ele>3395.199951171875</ele>
        <time>2021-06-26T15:42:37.000Z</time>
        <extensions>
          <ns3:TrackPointExtension>
            <ns3:atemp>26.0</ns3:atemp>
            <ns3:hr>91</ns3:hr>
          </ns3:TrackPointExtension>
        </extensions>
      </trkpt>
      <trkpt lat="36.80890087969601154327392578125" lon="-118.411910869181156158447265625">
        <ele>3395.39990234375</ele>
        <time>2021-06-26T15:42:41.000Z</time>
        <extensions>
          <ns3:TrackPointExtension>
            <ns3:atemp>26.0</ns3:atemp>
            <ns3:hr>91</ns3:hr>
          </ns3:TrackPointExtension>
        </extensions>
      </trkpt>
      <trkpt lat="36.8090164661407470703125" lon="-118.41203567571938037872314453125">
        <ele>3395.199951171875</ele>
        <time>2021-06-26T15:42:55.000Z</time>
        <extensions>
          <ns3:TrackPointExtension>
            <ns3:atemp>26.0</ns3:atemp>
            <ns3:hr>89</ns3:hr>
          </ns3:TrackPointExtension>
        </extensions>
      </trkpt>
      <trkpt lat="36.80909383110702037811279296875" lon="-118.41211915947496891021728515625">
        <ele>3395.39990234375</ele>
        <time>2021-06-26T15:43:05.000Z</time>
        <extensions>
          <ns3:TrackPointExtension>
            <ns3:atemp>26.0</ns3:atemp>
            <ns3:hr>90</ns3:hr>
          </ns3:TrackPointExtension>
        </extensions>
      </trkpt>
      <trkpt lat="36.8090991117060184478759765625" lon="-118.412125110626220703125">
        <ele>3395.39990234375</ele>
        <time>2021-06-26T15:43:06.000Z</time>
        <extensions>
          <ns3:TrackPointExtension>
            <ns3:atemp>26.0</ns3:atemp>
            <ns3:hr>86</ns3:hr>
          </ns3:TrackPointExtension>
        </extensions>
      </trkpt>
      <trkpt lat="36.8091064877808094024658203125" lon="-118.4121479094028472900390625">
        <ele>3395.800048828125</ele>
        <time>2021-06-26T15:43:08.000Z</time>
        <extensions>
          <ns3:TrackPointExtension>
            <ns3:atemp>26.0</ns3:atemp>
            <ns3:hr>90</ns3:hr>
          </ns3:TrackPointExtension>
        </extensions>
      </trkpt>
      <trkpt lat="36.80911076255142688751220703125" lon="-118.4121842868626117706298828125">
        <ele>3396</ele>
        <time>2021-06-26T15:43:11.000Z</time>
        <extensions>
          <ns3:TrackPointExtension>
            <ns3:atemp>26.0</ns3:atemp>
            <ns3:hr>89</ns3:hr>
          </ns3:TrackPointExtension>
        </extensions>
      </trkpt>
      <trkpt lat="36.8091152049601078033447265625" lon="-118.41220549307763576507568359375">
        <ele>3396</ele>
        <time>2021-06-26T15:43:13.000Z</time>
        <extensions>
          <ns3:TrackPointExtension>
            <ns3:atemp>26.0</ns3:atemp>
            <ns3:hr>92</ns3:hr>
          </ns3:TrackPointExtension>
        </extensions>
      </trkpt>
      <trkpt lat="36.80911947973072528839111328125" lon="-118.4122158028185367584228515625">
        <ele>3396</ele>
        <time>2021-06-26T15:43:14.000Z</time>
        <extensions>
          <ns3:TrackPointExtension>
            <ns3:atemp>26.0</ns3:atemp>
            <ns3:hr>90</ns3:hr>
          </ns3:TrackPointExtension>
        </extensions>
      </trkpt>
      <trkpt lat="36.80913154967129230499267578125" lon="-118.41225762851536273956298828125">
        <ele>3396.39990234375</ele>
        <time>2021-06-26T15:43:18.000Z</time>
        <extensions>
          <ns3:TrackPointExtension>
            <ns3:atemp>26.0</ns3:atemp>
            <ns3:hr>91</ns3:hr>
          </ns3:TrackPointExtension>
        </extensions>
      </trkpt>
      <trkpt lat="36.8091383390128612518310546875" lon="-118.41226601041853427886962890625">
        <ele>3396.39990234375</ele>
        <time>2021-06-26T15:43:19.000Z</time>
        <extensions>
          <ns3:TrackPointExtension>
            <ns3:atemp>26.0</ns3:atemp>
            <ns3:hr>92</ns3:hr>
          </ns3:TrackPointExtension>
        </extensions>
      </trkpt>
      <trkpt lat="36.80915183387696743011474609375" lon="-118.4122942574322223663330078125">
        <ele>3396.199951171875</ele>
        <time>2021-06-26T15:43:22.000Z</time>
        <extensions>
          <ns3:TrackPointExtension>
            <ns3:atemp>26.0</ns3:atemp>
            <ns3:hr>92</ns3:hr>
          </ns3:TrackPointExtension>
        </extensions>
      </trkpt>
      <trkpt lat="36.80915250442922115325927734375" lon="-118.4123321436345577239990234375">
        <ele>3396.199951171875</ele>
        <time>2021-06-26T15:43:26.000Z</time>
        <extensions>
          <ns3:TrackPointExtension>
            <ns3:atemp>26.0</ns3:atemp>
            <ns3:hr>91</ns3:hr>
          </ns3:TrackPointExtension>
        </extensions>
      </trkpt>
      <trkpt lat="36.80914395488798618316650390625" lon="-118.41242484748363494873046875">
        <ele>3397</ele>
        <time>2021-06-26T15:43:33.000Z</time>
        <extensions>
          <ns3:TrackPointExtension>
            <ns3:atemp>26.0</ns3:atemp>
            <ns3:hr>93</ns3:hr>
          </ns3:TrackPointExtension>
        </extensions>
      </trkpt>
      <trkpt lat="36.80914227850735187530517578125" lon="-118.41246650554239749908447265625">
        <ele>3397.199951171875</ele>
        <time>2021-06-26T15:43:36.000Z</time>
        <extensions>
          <ns3:TrackPointExtension>
            <ns3:atemp>26.0</ns3:atemp>
            <ns3:hr>93</ns3:hr>
          </ns3:TrackPointExtension>
        </extensions>
      </trkpt>
      <trkpt lat="36.8091447092592716217041015625" lon="-118.4125396795570850372314453125">
        <ele>3397.39990234375</ele>
        <time>2021-06-26T15:43:42.000Z</time>
        <extensions>
          <ns3:TrackPointExtension>
            <ns3:atemp>26.0</ns3:atemp>
            <ns3:hr>96</ns3:hr>
          </ns3:TrackPointExtension>
        </extensions>
      </trkpt>
      <trkpt lat="36.80915233679115772247314453125" lon="-118.4125815890729427337646484375">
        <ele>3397.800048828125</ele>
        <time>2021-06-26T15:43:46.000Z</time>
        <extensions>
          <ns3:TrackPointExtension>
            <ns3:atemp>26.0</ns3:atemp>
            <ns3:hr>99</ns3:hr>
          </ns3:TrackPointExtension>
        </extensions>
      </trkpt>
      <trkpt lat="36.80915518663823604583740234375" lon="-118.412590809166431427001953125">
        <ele>3398.199951171875</ele>
        <time>2021-06-26T15:43:47.000Z</time>
        <extensions>
          <ns3:TrackPointExtension>
            <ns3:atemp>26.0</ns3:atemp>
            <ns3:hr>100</ns3:hr>
          </ns3:TrackPointExtension>
        </extensions>
      </trkpt>
      <trkpt lat="36.8091792427003383636474609375" lon="-118.41269684024155139923095703125">
        <ele>3399.199951171875</ele>
        <time>2021-06-26T15:43:56.000Z</time>
        <extensions>
          <ns3:TrackPointExtension>
            <ns3:atemp>26.0</ns3:atemp>
            <ns3:hr>101</ns3:hr>
          </ns3:TrackPointExtension>
        </extensions>
      </trkpt>
      <trkpt lat="36.80918879806995391845703125" lon="-118.41273120604455471038818359375">
        <ele>3399.800048828125</ele>
        <time>2021-06-26T15:44:02.000Z</time>
        <extensions>
          <ns3:TrackPointExtension>
            <ns3:atemp>26.0</ns3:atemp>
            <ns3:hr>100</ns3:hr>
          </ns3:TrackPointExtension>
        </extensions>
      </trkpt>
      <trkpt lat="36.8091903068125247955322265625" lon="-118.41273388825356960296630859375">
        <ele>3399.800048828125</ele>
        <time>2021-06-26T15:44:03.000Z</time>
        <extensions>
          <ns3:TrackPointExtension>
            <ns3:atemp>26.0</ns3:atemp>
            <ns3:hr>101</ns3:hr>
          </ns3:TrackPointExtension>
        </extensions>
      </trkpt>
      <trkpt lat="36.80917044170200824737548828125" lon="-118.41273472644388675689697265625">
        <ele>3399.60009765625</ele>
        <time>2021-06-26T15:44:08.000Z</time>
        <extensions>
          <ns3:TrackPointExtension>
            <ns3:atemp>26.0</ns3:atemp>
            <ns3:hr>104</ns3:hr>
          </ns3:TrackPointExtension>
        </extensions>
      </trkpt>
      <trkpt lat="36.8091779015958309173583984375" lon="-118.41274159960448741912841796875">
        <ele>3399.60009765625</ele>
        <time>2021-06-26T15:44:11.000Z</time>
        <extensions>
          <ns3:TrackPointExtension>
            <ns3:atemp>26.0</ns3:atemp>
            <ns3:hr>107</ns3:hr>
          </ns3:TrackPointExtension>
        </extensions>
      </trkpt>
      <trkpt lat="36.8091779015958309173583984375" lon="-118.41274159960448741912841796875">
        <ele>3399.60009765625</ele>
        <time>2021-06-26T15:44:14.000Z</time>
        <extensions>
          <ns3:TrackPointExtension>
            <ns3:atemp>26.0</ns3:atemp>
            <ns3:hr>110</ns3:hr>
          </ns3:TrackPointExtension>
        </extensions>
      </trkpt>
      <trkpt lat="36.80918217636644840240478515625" lon="-118.4127348102629184722900390625">
        <ele>3399.800048828125</ele>
        <time>2021-06-26T15:44:23.000Z</time>
        <extensions>
          <ns3:TrackPointExtension>
            <ns3:atemp>26.0</ns3:atemp>
            <ns3:hr>107</ns3:hr>
          </ns3:TrackPointExtension>
        </extensions>
      </trkpt>
      <trkpt lat="36.80918519385159015655517578125" lon="-118.41272533871233463287353515625">
        <ele>3399.199951171875</ele>
        <time>2021-06-26T15:44:33.000Z</time>
        <extensions>
          <ns3:TrackPointExtension>
            <ns3:atemp>26.0</ns3:atemp>
            <ns3:hr>104</ns3:hr>
          </ns3:TrackPointExtension>
        </extensions>
      </trkpt>
      <trkpt lat="36.80918519385159015655517578125" lon="-118.41271762736141681671142578125">
        <ele>3399.39990234375</ele>
        <time>2021-06-26T15:44:36.000Z</time>
        <extensions>
          <ns3:TrackPointExtension>
            <ns3:atemp>26.0</ns3:atemp>
            <ns3:hr>101</ns3:hr>
          </ns3:TrackPointExtension>
        </extensions>
      </trkpt>
      <trkpt lat="36.80918687023222446441650390625" lon="-118.4127093292772769927978515625">
        <ele>3399.199951171875</ele>
        <time>2021-06-26T15:44:45.000Z</time>
        <extensions>
          <ns3:TrackPointExtension>
            <ns3:atemp>26.0</ns3:atemp>
            <ns3:hr>98</ns3:hr>
          </ns3:TrackPointExtension>
        </extensions>
      </trkpt>
      <trkpt lat="36.80919039063155651092529296875" lon="-118.41273740865290164947509765625">
        <ele>3399.39990234375</ele>
        <time>2021-06-26T15:44:50.000Z</time>
        <extensions>
          <ns3:TrackPointExtension>
            <ns3:atemp>26.0</ns3:atemp>
            <ns3:hr>95</ns3:hr>
          </ns3:TrackPointExtension>
        </extensions>
      </trkpt>
      <trkpt lat="36.8091859482228755950927734375" lon="-118.412765152752399444580078125">
        <ele>3399.60009765625</ele>
        <time>2021-06-26T15:44:52.000Z</time>
        <extensions>
          <ns3:TrackPointExtension>
            <ns3:atemp>26.0</ns3:atemp>
            <ns3:hr>93</ns3:hr>
          </ns3:TrackPointExtension>
        </extensions>
      </trkpt>
      <trkpt lat="36.80918117053806781768798828125" lon="-118.41282944194972515106201171875">
        <ele>3400.39990234375</ele>
        <time>2021-06-26T15:44:56.000Z</time>
        <extensions>
          <ns3:TrackPointExtension>
            <ns3:atemp>26.0</ns3:atemp>
            <ns3:hr>89</ns3:hr>
          </ns3:TrackPointExtension>
        </extensions>
      </trkpt>
      <trkpt lat="36.80917941033840179443359375" lon="-118.41284922324120998382568359375">
        <ele>3400.60009765625</ele>
        <time>2021-06-26T15:44:57.000Z</time>
        <extensions>
          <ns3:TrackPointExtension>
            <ns3:atemp>26.0</ns3:atemp>
            <ns3:hr>94</ns3:hr>
          </ns3:TrackPointExtension>
        </extensions>
      </trkpt>
      <trkpt lat="36.80917630903422832489013671875" lon="-118.4128756262362003326416015625">
        <ele>3400.60009765625</ele>
        <time>2021-06-26T15:44:59.000Z</time>
        <extensions>
          <ns3:TrackPointExtension>
            <ns3:atemp>26.0</ns3:atemp>
            <ns3:hr>91</ns3:hr>
          </ns3:TrackPointExtension>
        </extensions>
      </trkpt>
      <trkpt lat="36.80917865596711635589599609375" lon="-118.412903286516666412353515625">
        <ele>3400.800048828125</ele>
        <time>2021-06-26T15:45:01.000Z</time>
        <extensions>
          <ns3:TrackPointExtension>
            <ns3:atemp>26.0</ns3:atemp>
            <ns3:hr>94</ns3:hr>
          </ns3:TrackPointExtension>
        </extensions>
      </trkpt>
      <trkpt lat="36.80917278863489627838134765625" lon="-118.412962965667247772216796875">
        <ele>3401.199951171875</ele>
        <time>2021-06-26T15:45:06.000Z</time>
        <extensions>
          <ns3:TrackPointExtension>
            <ns3:atemp>26.0</ns3:atemp>
            <ns3:hr>97</ns3:hr>
          </ns3:TrackPointExtension>
        </extensions>
      </trkpt>
      <trkpt lat="36.8091695196926593780517578125" lon="-118.41297294013202190399169921875">
        <ele>3401.39990234375</ele>
        <time>2021-06-26T15:45:07.000Z</time>
        <extensions>
          <ns3:TrackPointExtension>
            <ns3:atemp>26.0</ns3:atemp>
            <ns3:hr>98</ns3:hr>
          </ns3:TrackPointExtension>
        </extensions>
      </trkpt>
      <trkpt lat="36.80916457436978816986083984375" lon="-118.4129928052425384521484375">
        <ele>3401.60009765625</ele>
        <time>2021-06-26T15:45:09.000Z</time>
        <extensions>
          <ns3:TrackPointExtension>
            <ns3:atemp>26.0</ns3:atemp>
            <ns3:hr>101</ns3:hr>
          </ns3:TrackPointExtension>
        </extensions>
      </trkpt>
      <trkpt lat="36.8091638199985027313232421875" lon="-118.4130231477320194244384765625">
        <ele>3401.60009765625</ele>
        <time>2021-06-26T15:45:11.000Z</time>
        <extensions>
          <ns3:TrackPointExtension>
            <ns3:atemp>26.0</ns3:atemp>
            <ns3:hr>103</ns3:hr>
          </ns3:TrackPointExtension>
        </extensions>
      </trkpt>
      <trkpt lat="36.8091577850282192230224609375" lon="-118.41305994428694248199462890625">
        <ele>3402</ele>
        <time>2021-06-26T15:45:14.000Z</time>
        <extensions>
          <ns3:TrackPointExtension>
            <ns3:atemp>26.0</ns3:atemp>
            <ns3:hr>102</ns3:hr>
          </ns3:TrackPointExtension>
        </extensions>
      </trkpt>
      <trkpt lat="36.80915250442922115325927734375" lon="-118.41307117603719234466552734375">
        <ele>3402.39990234375</ele>
        <time>2021-06-26T15:45:15.000Z</time>
        <extensions>
          <ns3:TrackPointExtension>
            <ns3:atemp>26.0</ns3:atemp>
            <ns3:hr>102</ns3:hr>
          </ns3:TrackPointExtension>
        </extensions>
      </trkpt>
      <trkpt lat="36.80912501178681850433349609375" lon="-118.41314175166189670562744140625">
        <ele>3403.39990234375</ele>
        <time>2021-06-26T15:45:23.000Z</time>
        <extensions>
          <ns3:TrackPointExtension>
            <ns3:atemp>26.0</ns3:atemp>
            <ns3:hr>103</ns3:hr>
          </ns3:TrackPointExtension>
        </extensions>
      </trkpt>
      <trkpt lat="36.80912082083523273468017578125" lon="-118.4131622873246669769287109375">
        <ele>3404</ele>
        <time>2021-06-26T15:45:25.000Z</time>
        <extensions>
          <ns3:TrackPointExtension>
            <ns3:atemp>26.0</ns3:atemp>
            <ns3:hr>102</ns3:hr>
          </ns3:TrackPointExtension>
        </extensions>
      </trkpt>
      <trkpt lat="36.8090974353253841400146484375" lon="-118.4132112376391887664794921875">
        <ele>3404.60009765625</ele>
        <time>2021-06-26T15:45:31.000Z</time>
        <extensions>
          <ns3:TrackPointExtension>
            <ns3:atemp>26.0</ns3:atemp>
            <ns3:hr>102</ns3:hr>
          </ns3:TrackPointExtension>
        </extensions>
      </trkpt>
      <trkpt lat="36.809081174433231353759765625" lon="-118.4132226370275020599365234375">
        <ele>3404.60009765625</ele>
        <time>2021-06-26T15:45:33.000Z</time>
        <extensions>
          <ns3:TrackPointExtension>
            <ns3:atemp>26.0</ns3:atemp>
            <ns3:hr>102</ns3:hr>
          </ns3:TrackPointExtension>
        </extensions>
      </trkpt>
      <trkpt lat="36.80905091576278209686279296875" lon="-118.41326496563851833343505859375">
        <ele>3405.800048828125</ele>
        <time>2021-06-26T15:45:39.000Z</time>
        <extensions>
          <ns3:TrackPointExtension>
            <ns3:atemp>26.0</ns3:atemp>
            <ns3:hr>105</ns3:hr>
          </ns3:TrackPointExtension>
        </extensions>
      </trkpt>
      <trkpt lat="36.80901621468365192413330078125" lon="-118.41328575275838375091552734375">
        <ele>3406.60009765625</ele>
        <time>2021-06-26T15:45:45.000Z</time>
        <extensions>
          <ns3:TrackPointExtension>
            <ns3:atemp>27.0</ns3:atemp>
            <ns3:hr>106</ns3:hr>
          </ns3:TrackPointExtension>
        </extensions>
      </trkpt>
      <trkpt lat="36.8090015463531017303466796875" lon="-118.41329715214669704437255859375">
        <ele>3406.800048828125</ele>
        <time>2021-06-26T15:45:47.000Z</time>
        <extensions>
          <ns3:TrackPointExtension>
            <ns3:atemp>27.0</ns3:atemp>
            <ns3:hr>107</ns3:hr>
          </ns3:TrackPointExtension>
        </extensions>
      </trkpt>
      <trkpt lat="36.8089978583157062530517578125" lon="-118.41335515491664409637451171875">
        <ele>3407.60009765625</ele>
        <time>2021-06-26T15:45:52.000Z</time>
        <extensions>
          <ns3:TrackPointExtension>
            <ns3:atemp>27.0</ns3:atemp>
            <ns3:hr>109</ns3:hr>
          </ns3:TrackPointExtension>
        </extensions>
      </trkpt>
      <trkpt lat="36.8089971877634525299072265625" lon="-118.41338105499744415283203125">
        <ele>3408</ele>
        <time>2021-06-26T15:45:54.000Z</time>
        <extensions>
          <ns3:TrackPointExtension>
            <ns3:atemp>27.0</ns3:atemp>
            <ns3:hr>108</ns3:hr>
          </ns3:TrackPointExtension>
        </extensions>
      </trkpt>
      <trkpt lat="36.8090002052485942840576171875" lon="-118.4134241379797458648681640625">
        <ele>3408.39990234375</ele>
        <time>2021-06-26T15:45:58.000Z</time>
        <extensions>
          <ns3:TrackPointExtension>
            <ns3:atemp>27.0</ns3:atemp>
            <ns3:hr>111</ns3:hr>
          </ns3:TrackPointExtension>
        </extensions>
      </trkpt>
      <trkpt lat="36.80900129489600658416748046875" lon="-118.41344601474702358245849609375">
        <ele>3408.800048828125</ele>
        <time>2021-06-26T15:46:00.000Z</time>
        <extensions>
          <ns3:TrackPointExtension>
            <ns3:atemp>27.0</ns3:atemp>
            <ns3:hr>113</ns3:hr>
          </ns3:TrackPointExtension>
        </extensions>
      </trkpt>
      <trkpt lat="36.80901017971336841583251953125" lon="-118.41347602196037769317626953125">
        <ele>3409.199951171875</ele>
        <time>2021-06-26T15:46:03.000Z</time>
        <extensions>
          <ns3:TrackPointExtension>
            <ns3:atemp>27.0</ns3:atemp>
            <ns3:hr>115</ns3:hr>
          </ns3:TrackPointExtension>
        </extensions>
      </trkpt>
      <trkpt lat="36.809040941298007965087890625" lon="-118.41354207135736942291259765625">
        <ele>3410.39990234375</ele>
        <time>2021-06-26T15:46:11.000Z</time>
        <extensions>
          <ns3:TrackPointExtension>
            <ns3:atemp>27.0</ns3:atemp>
            <ns3:hr>116</ns3:hr>
          </ns3:TrackPointExtension>
        </extensions>
      </trkpt>
      <trkpt lat="36.8090836890041828155517578125" lon="-118.4135843999683856964111328125">
        <ele>3411.60009765625</ele>
        <time>2021-06-26T15:46:18.000Z</time>
        <extensions>
          <ns3:TrackPointExtension>
            <ns3:atemp>27.0</ns3:atemp>
            <ns3:hr>117</ns3:hr>
          </ns3:TrackPointExtension>
        </extensions>
      </trkpt>
      <trkpt lat="36.8091021291911602020263671875" lon="-118.41364567168056964874267578125">
        <ele>3412.60009765625</ele>
        <time>2021-06-26T15:46:26.000Z</time>
        <extensions>
          <ns3:TrackPointExtension>
            <ns3:atemp>27.0</ns3:atemp>
            <ns3:hr>118</ns3:hr>
          </ns3:TrackPointExtension>
        </extensions>
      </trkpt>
      <trkpt lat="36.80913389660418033599853515625" lon="-118.41367802582681179046630859375">
        <ele>3413</ele>
        <time>2021-06-26T15:46:31.000Z</time>
        <extensions>
          <ns3:TrackPointExtension>
            <ns3:atemp>27.0</ns3:atemp>
            <ns3:hr>121</ns3:hr>
          </ns3:TrackPointExtension>
        </extensions>
      </trkpt>
      <trkpt lat="36.80915786884725093841552734375" lon="-118.41368892230093479156494140625">
        <ele>3413.199951171875</ele>
        <time>2021-06-26T15:46:34.000Z</time>
        <extensions>
          <ns3:TrackPointExtension>
            <ns3:atemp>27.0</ns3:atemp>
            <ns3:hr>123</ns3:hr>
          </ns3:TrackPointExtension>
        </extensions>
      </trkpt>
      <trkpt lat="36.8091755546629428863525390625" lon="-118.413707278668880462646484375">
        <ele>3413.800048828125</ele>
        <time>2021-06-26T15:46:37.000Z</time>
        <extensions>
          <ns3:TrackPointExtension>
            <ns3:atemp>27.0</ns3:atemp>
            <ns3:hr>124</ns3:hr>
          </ns3:TrackPointExtension>
        </extensions>
      </trkpt>
      <trkpt lat="36.809185445308685302734375" lon="-118.4137319214642047882080078125">
        <ele>3414</ele>
        <time>2021-06-26T15:46:40.000Z</time>
        <extensions>
          <ns3:TrackPointExtension>
            <ns3:atemp>27.0</ns3:atemp>
            <ns3:hr>127</ns3:hr>
          </ns3:TrackPointExtension>
        </extensions>
      </trkpt>
      <trkpt lat="36.80918477475643157958984375" lon="-118.41375111602246761322021484375">
        <ele>3414.39990234375</ele>
        <time>2021-06-26T15:46:42.000Z</time>
        <extensions>
          <ns3:TrackPointExtension>
            <ns3:atemp>27.0</ns3:atemp>
            <ns3:hr>127</ns3:hr>
          </ns3:TrackPointExtension>
        </extensions>
      </trkpt>
      <trkpt lat="36.80917882360517978668212890625" lon="-118.41378204524517059326171875">
        <ele>3414.800048828125</ele>
        <time>2021-06-26T15:46:45.000Z</time>
        <extensions>
          <ns3:TrackPointExtension>
            <ns3:atemp>27.0</ns3:atemp>
            <ns3:hr>124</ns3:hr>
          </ns3:TrackPointExtension>
        </extensions>
      </trkpt>
      <trkpt lat="36.80918075144290924072265625" lon="-118.4138323366641998291015625">
        <ele>3415</ele>
        <time>2021-06-26T15:46:49.000Z</time>
        <extensions>
          <ns3:TrackPointExtension>
            <ns3:atemp>27.0</ns3:atemp>
            <ns3:hr>121</ns3:hr>
          </ns3:TrackPointExtension>
        </extensions>
      </trkpt>
      <trkpt lat="36.80918770842254161834716796875" lon="-118.41386930085718631744384765625">
        <ele>3415.39990234375</ele>
        <time>2021-06-26T15:46:52.000Z</time>
        <extensions>
          <ns3:TrackPointExtension>
            <ns3:atemp>27.0</ns3:atemp>
            <ns3:hr>120</ns3:hr>
          </ns3:TrackPointExtension>
        </extensions>
      </trkpt>
      <trkpt lat="36.8091960065066814422607421875" lon="-118.41392043046653270721435546875">
        <ele>3415.800048828125</ele>
        <time>2021-06-26T15:46:56.000Z</time>
        <extensions>
          <ns3:TrackPointExtension>
            <ns3:atemp>27.0</ns3:atemp>
            <ns3:hr>123</ns3:hr>
          </ns3:TrackPointExtension>
        </extensions>
      </trkpt>
      <trkpt lat="36.809201203286647796630859375" lon="-118.4139421395957469940185546875">
        <ele>3416</ele>
        <time>2021-06-26T15:46:59.000Z</time>
        <extensions>
          <ns3:TrackPointExtension>
            <ns3:atemp>27.0</ns3:atemp>
            <ns3:hr>125</ns3:hr>
          </ns3:TrackPointExtension>
        </extensions>
      </trkpt>
      <trkpt lat="36.80922978557646274566650390625" lon="-118.41397943906486034393310546875">
        <ele>3416.199951171875</ele>
        <time>2021-06-26T15:47:04.000Z</time>
        <extensions>
          <ns3:TrackPointExtension>
            <ns3:atemp>27.0</ns3:atemp>
            <ns3:hr>122</ns3:hr>
          </ns3:TrackPointExtension>
        </extensions>
      </trkpt>
      <trkpt lat="36.80924705229699611663818359375" lon="-118.41398698277771472930908203125">
        <ele>3416</ele>
        <time>2021-06-26T15:47:06.000Z</time>
        <extensions>
          <ns3:TrackPointExtension>
            <ns3:atemp>27.0</ns3:atemp>
            <ns3:hr>120</ns3:hr>
          </ns3:TrackPointExtension>
        </extensions>
      </trkpt>
      <trkpt lat="36.80926121771335601806640625" lon="-118.414031155407428741455078125">
        <ele>3415.800048828125</ele>
        <time>2021-06-26T15:47:11.000Z</time>
        <extensions>
          <ns3:TrackPointExtension>
            <ns3:atemp>27.0</ns3:atemp>
            <ns3:hr>117</ns3:hr>
          </ns3:TrackPointExtension>
        </extensions>
      </trkpt>
      <trkpt lat="36.8092620559036731719970703125" lon="-118.4140628390014171600341796875">
        <ele>3415.199951171875</ele>
        <time>2021-06-26T15:47:14.000Z</time>
        <extensions>
          <ns3:TrackPointExtension>
            <ns3:atemp>27.0</ns3:atemp>
            <ns3:hr>115</ns3:hr>
          </ns3:TrackPointExtension>
        </extensions>
      </trkpt>
      <trkpt lat="36.80926255881786346435546875" lon="-118.41409930028021335601806640625">
        <ele>3414.800048828125</ele>
        <time>2021-06-26T15:47:17.000Z</time>
        <extensions>
          <ns3:TrackPointExtension>
            <ns3:atemp>27.0</ns3:atemp>
            <ns3:hr>115</ns3:hr>
          </ns3:TrackPointExtension>
        </extensions>
      </trkpt>
      <trkpt lat="36.80926130153238773345947265625" lon="-118.41416182927787303924560546875">
        <ele>3414</ele>
        <time>2021-06-26T15:47:23.000Z</time>
        <extensions>
          <ns3:TrackPointExtension>
            <ns3:atemp>27.0</ns3:atemp>
            <ns3:hr>114</ns3:hr>
          </ns3:TrackPointExtension>
        </extensions>
      </trkpt>
      <trkpt lat="36.80926700122654438018798828125" lon="-118.41416819952428340911865234375">
        <ele>3414</ele>
        <time>2021-06-26T15:47:24.000Z</time>
        <extensions>
          <ns3:TrackPointExtension>
            <ns3:atemp>27.0</ns3:atemp>
            <ns3:hr>113</ns3:hr>
          </ns3:TrackPointExtension>
        </extensions>
      </trkpt>
      <trkpt lat="36.809271275997161865234375" lon="-118.41417540796101093292236328125">
        <ele>3413.800048828125</ele>
        <time>2021-06-26T15:47:25.000Z</time>
        <extensions>
          <ns3:TrackPointExtension>
            <ns3:atemp>27.0</ns3:atemp>
            <ns3:hr>114</ns3:hr>
          </ns3:TrackPointExtension>
        </extensions>
      </trkpt>
      <trkpt lat="36.80928896181285381317138671875" lon="-118.41423156671226024627685546875">
        <ele>3412.60009765625</ele>
        <time>2021-06-26T15:47:31.000Z</time>
        <extensions>
          <ns3:TrackPointExtension>
            <ns3:atemp>27.0</ns3:atemp>
            <ns3:hr>109</ns3:hr>
          </ns3:TrackPointExtension>
        </extensions>
      </trkpt>
      <trkpt lat="36.80929164402186870574951171875" lon="-118.41424296610057353973388671875">
        <ele>3412.60009765625</ele>
        <time>2021-06-26T15:47:32.000Z</time>
        <extensions>
          <ns3:TrackPointExtension>
            <ns3:atemp>27.0</ns3:atemp>
            <ns3:hr>110</ns3:hr>
          </ns3:TrackPointExtension>
        </extensions>
      </trkpt>
      <trkpt lat="36.80929667316377162933349609375" lon="-118.41426526196300983428955078125">
        <ele>3412.60009765625</ele>
        <time>2021-06-26T15:47:34.000Z</time>
        <extensions>
          <ns3:TrackPointExtension>
            <ns3:atemp>27.0</ns3:atemp>
            <ns3:hr>113</ns3:hr>
          </ns3:TrackPointExtension>
        </extensions>
      </trkpt>
      <trkpt lat="36.80928862653672695159912109375" lon="-118.41435494832694530487060546875">
        <ele>3412.199951171875</ele>
        <time>2021-06-26T15:47:42.000Z</time>
        <extensions>
          <ns3:TrackPointExtension>
            <ns3:atemp>27.0</ns3:atemp>
            <ns3:hr>111</ns3:hr>
          </ns3:TrackPointExtension>
        </extensions>
      </trkpt>
      <trkpt lat="36.8092833459377288818359375" lon="-118.41436333023011684417724609375">
        <ele>3412.199951171875</ele>
        <time>2021-06-26T15:47:43.000Z</time>
        <extensions>
          <ns3:TrackPointExtension>
            <ns3:atemp>27.0</ns3:atemp>
            <ns3:hr>112</ns3:hr>
          </ns3:TrackPointExtension>
        </extensions>
      </trkpt>
      <trkpt lat="36.80927957408130168914794921875" lon="-118.41437707655131816864013671875">
        <ele>3412.199951171875</ele>
        <time>2021-06-26T15:47:45.000Z</time>
        <extensions>
          <ns3:TrackPointExtension>
            <ns3:atemp>27.0</ns3:atemp>
            <ns3:hr>109</ns3:hr>
          </ns3:TrackPointExtension>
        </extensions>
      </trkpt>
      <trkpt lat="36.80927865207195281982421875" lon="-118.4143840335309505462646484375">
        <ele>3412</ele>
        <time>2021-06-26T15:47:48.000Z</time>
        <extensions>
          <ns3:TrackPointExtension>
            <ns3:atemp>27.0</ns3:atemp>
            <ns3:hr>106</ns3:hr>
          </ns3:TrackPointExtension>
        </extensions>
      </trkpt>
      <trkpt lat="36.809271275997161865234375" lon="-118.41443206183612346649169921875">
        <ele>3411.800048828125</ele>
        <time>2021-06-26T15:47:54.000Z</time>
        <extensions>
          <ns3:TrackPointExtension>
            <ns3:atemp>27.0</ns3:atemp>
            <ns3:hr>103</ns3:hr>
          </ns3:TrackPointExtension>
        </extensions>
      </trkpt>
      <trkpt lat="36.8092704378068447113037109375" lon="-118.41444731689989566802978515625">
        <ele>3410.800048828125</ele>
        <time>2021-06-26T15:47:56.000Z</time>
        <extensions>
          <ns3:TrackPointExtension>
            <ns3:atemp>27.0</ns3:atemp>
            <ns3:hr>104</ns3:hr>
          </ns3:TrackPointExtension>
        </extensions>
      </trkpt>
      <trkpt lat="36.80927270092070102691650390625" lon="-118.4144909866154193878173828125">
        <ele>3410.800048828125</ele>
        <time>2021-06-26T15:48:00.000Z</time>
        <extensions>
          <ns3:TrackPointExtension>
            <ns3:atemp>27.0</ns3:atemp>
            <ns3:hr>100</ns3:hr>
          </ns3:TrackPointExtension>
        </extensions>
      </trkpt>
      <trkpt lat="36.80927488021552562713623046875" lon="-118.41449777595698833465576171875">
        <ele>3410.800048828125</ele>
        <time>2021-06-26T15:48:01.000Z</time>
        <extensions>
          <ns3:TrackPointExtension>
            <ns3:atemp>27.0</ns3:atemp>
            <ns3:hr>104</ns3:hr>
          </ns3:TrackPointExtension>
        </extensions>
      </trkpt>
      <trkpt lat="36.80928460322320461273193359375" lon="-118.41450892388820648193359375">
        <ele>3410.60009765625</ele>
        <time>2021-06-26T15:48:03.000Z</time>
        <extensions>
          <ns3:TrackPointExtension>
            <ns3:atemp>27.0</ns3:atemp>
            <ns3:hr>103</ns3:hr>
          </ns3:TrackPointExtension>
        </extensions>
      </trkpt>
      <trkpt lat="36.8092752993106842041015625" lon="-118.4145308844745159149169921875">
        <ele>3410</ele>
        <time>2021-06-26T15:48:07.000Z</time>
        <extensions>
          <ns3:TrackPointExtension>
            <ns3:atemp>27.0</ns3:atemp>
            <ns3:hr>100</ns3:hr>
          </ns3:TrackPointExtension>
        </extensions>
      </trkpt>
      <trkpt lat="36.80926901288330554962158203125" lon="-118.41453700326383113861083984375">
        <ele>3409.60009765625</ele>
        <time>2021-06-26T15:48:08.000Z</time>
        <extensions>
          <ns3:TrackPointExtension>
            <ns3:atemp>27.0</ns3:atemp>
            <ns3:hr>99</ns3:hr>
          </ns3:TrackPointExtension>
        </extensions>
      </trkpt>
      <trkpt lat="36.80926448665559291839599609375" lon="-118.41454320587217807769775390625">
        <ele>3409</ele>
        <time>2021-06-26T15:48:09.000Z</time>
        <extensions>
          <ns3:TrackPointExtension>
            <ns3:atemp>26.0</ns3:atemp>
            <ns3:hr>100</ns3:hr>
          </ns3:TrackPointExtension>
        </extensions>
      </trkpt>
      <trkpt lat="36.8092576973140239715576171875" lon="-118.41454421170055866241455078125">
        <ele>3409</ele>
        <time>2021-06-26T15:48:11.000Z</time>
        <extensions>
          <ns3:TrackPointExtension>
            <ns3:atemp>26.0</ns3:atemp>
            <ns3:hr>97</ns3:hr>
          </ns3:TrackPointExtension>
        </extensions>
      </trkpt>
      <trkpt lat="36.80925124324858188629150390625" lon="-118.41454437933862209320068359375">
        <ele>3408.800048828125</ele>
        <time>2021-06-26T15:48:14.000Z</time>
        <extensions>
          <ns3:TrackPointExtension>
            <ns3:atemp>26.0</ns3:atemp>
            <ns3:hr>94</ns3:hr>
          </ns3:TrackPointExtension>
        </extensions>
      </trkpt>
      <trkpt lat="36.8092536740005016326904296875" lon="-118.41454337351024150848388671875">
        <ele>3408.800048828125</ele>
        <time>2021-06-26T15:48:15.000Z</time>
        <extensions>
          <ns3:TrackPointExtension>
            <ns3:atemp>26.0</ns3:atemp>
            <ns3:hr>99</ns3:hr>
          </ns3:TrackPointExtension>
        </extensions>
      </trkpt>
      <trkpt lat="36.80925509892404079437255859375" lon="-118.4145442955195903778076171875">
        <ele>3409.199951171875</ele>
        <time>2021-06-26T15:48:25.000Z</time>
        <extensions>
          <ns3:TrackPointExtension>
            <ns3:atemp>26.0</ns3:atemp>
            <ns3:hr>100</ns3:hr>
          </ns3:TrackPointExtension>
        </extensions>
      </trkpt>
      <trkpt lat="36.80926314555108547210693359375" lon="-118.41454446315765380859375">
        <ele>3409.800048828125</ele>
        <time>2021-06-26T15:48:36.000Z</time>
        <extensions>
          <ns3:TrackPointExtension>
            <ns3:atemp>26.0</ns3:atemp>
            <ns3:hr>103</ns3:hr>
          </ns3:TrackPointExtension>
        </extensions>
      </trkpt>
      <trkpt lat="36.80926130153238773345947265625" lon="-118.41454588808119297027587890625">
        <ele>3410</ele>
        <time>2021-06-26T15:48:40.000Z</time>
        <extensions>
          <ns3:TrackPointExtension>
            <ns3:atemp>26.0</ns3:atemp>
            <ns3:hr>106</ns3:hr>
          </ns3:TrackPointExtension>
        </extensions>
      </trkpt>
      <trkpt lat="36.80926130153238773345947265625" lon="-118.4145463071763515472412109375">
        <ele>3410</ele>
        <time>2021-06-26T15:48:46.000Z</time>
        <extensions>
          <ns3:TrackPointExtension>
            <ns3:atemp>26.0</ns3:atemp>
            <ns3:hr>103</ns3:hr>
          </ns3:TrackPointExtension>
        </extensions>
      </trkpt>
      <trkpt lat="36.8092553503811359405517578125" lon="-118.41454722918570041656494140625">
        <ele>3409.39990234375</ele>
        <time>2021-06-26T15:48:54.000Z</time>
        <extensions>
          <ns3:TrackPointExtension>
            <ns3:atemp>26.0</ns3:atemp>
            <ns3:hr>100</ns3:hr>
          </ns3:TrackPointExtension>
        </extensions>
      </trkpt>
      <trkpt lat="36.8092466332018375396728515625" lon="-118.41454840265214443206787109375">
        <ele>3409.39990234375</ele>
        <time>2021-06-26T15:48:57.000Z</time>
        <extensions>
          <ns3:TrackPointExtension>
            <ns3:atemp>26.0</ns3:atemp>
            <ns3:hr>97</ns3:hr>
          </ns3:TrackPointExtension>
        </extensions>
      </trkpt>
      <trkpt lat="36.8092402629554271697998046875" lon="-118.41455041430890560150146484375">
        <ele>3409.60009765625</ele>
        <time>2021-06-26T15:49:00.000Z</time>
        <extensions>
          <ns3:TrackPointExtension>
            <ns3:atemp>26.0</ns3:atemp>
            <ns3:hr>93</ns3:hr>
          </ns3:TrackPointExtension>
        </extensions>
      </trkpt>
      <trkpt lat="36.80923665873706340789794921875" lon="-118.41455058194696903228759765625">
        <ele>3409.60009765625</ele>
        <time>2021-06-26T15:49:03.000Z</time>
        <extensions>
          <ns3:TrackPointExtension>
            <ns3:atemp>26.0</ns3:atemp>
            <ns3:hr>90</ns3:hr>
          </ns3:TrackPointExtension>
        </extensions>
      </trkpt>
      <trkpt lat="36.809228695929050445556640625" lon="-118.41455125249922275543212890625">
        <ele>3409.800048828125</ele>
        <time>2021-06-26T15:49:07.000Z</time>
        <extensions>
          <ns3:TrackPointExtension>
            <ns3:atemp>26.0</ns3:atemp>
            <ns3:hr>87</ns3:hr>
          </ns3:TrackPointExtension>
        </extensions>
      </trkpt>
      <trkpt lat="36.80925576947629451751708984375" lon="-118.4145637415349483489990234375">
        <ele>3408.60009765625</ele>
        <time>2021-06-26T15:49:19.000Z</time>
        <extensions>
          <ns3:TrackPointExtension>
            <ns3:atemp>26.0</ns3:atemp>
            <ns3:hr>87</ns3:hr>
          </ns3:TrackPointExtension>
        </extensions>
      </trkpt>
      <trkpt lat="36.80925576947629451751708984375" lon="-118.41456248424947261810302734375">
        <ele>3408.60009765625</ele>
        <time>2021-06-26T15:49:20.000Z</time>
        <extensions>
          <ns3:TrackPointExtension>
            <ns3:atemp>26.0</ns3:atemp>
            <ns3:hr>86</ns3:hr>
          </ns3:TrackPointExtension>
        </extensions>
      </trkpt>
      <trkpt lat="36.80925996042788028717041015625" lon="-118.41457061469554901123046875">
        <ele>3408</ele>
        <time>2021-06-26T15:49:24.000Z</time>
        <extensions>
          <ns3:TrackPointExtension>
            <ns3:atemp>26.0</ns3:atemp>
            <ns3:hr>87</ns3:hr>
          </ns3:TrackPointExtension>
        </extensions>
      </trkpt>
      <trkpt lat="36.80925442837178707122802734375" lon="-118.41459500603377819061279296875">
        <ele>3408</ele>
        <time>2021-06-26T15:49:30.000Z</time>
        <extensions>
          <ns3:TrackPointExtension>
            <ns3:atemp>26.0</ns3:atemp>
            <ns3:hr>86</ns3:hr>
          </ns3:TrackPointExtension>
        </extensions>
      </trkpt>
      <trkpt lat="36.809263564646244049072265625" lon="-118.414599783718585968017578125">
        <ele>3407.60009765625</ele>
        <time>2021-06-26T15:49:37.000Z</time>
        <extensions>
          <ns3:TrackPointExtension>
            <ns3:atemp>26.0</ns3:atemp>
            <ns3:hr>85</ns3:hr>
          </ns3:TrackPointExtension>
        </extensions>
      </trkpt>
      <trkpt lat="36.80926716886460781097412109375" lon="-118.414601124823093414306640625">
        <ele>3408</ele>
        <time>2021-06-26T15:49:54.000Z</time>
        <extensions>
          <ns3:TrackPointExtension>
            <ns3:atemp>26.0</ns3:atemp>
            <ns3:hr>88</ns3:hr>
          </ns3:TrackPointExtension>
        </extensions>
      </trkpt>
      <trkpt lat="36.80926968343555927276611328125" lon="-118.41460187919437885284423828125">
        <ele>3407.60009765625</ele>
        <time>2021-06-26T15:50:00.000Z</time>
        <extensions>
          <ns3:TrackPointExtension>
            <ns3:atemp>26.0</ns3:atemp>
            <ns3:hr>91</ns3:hr>
          </ns3:TrackPointExtension>
        </extensions>
      </trkpt>
      <trkpt lat="36.80926968343555927276611328125" lon="-118.414603136479854583740234375">
        <ele>3406.60009765625</ele>
        <time>2021-06-26T15:50:07.000Z</time>
        <extensions>
          <ns3:TrackPointExtension>
            <ns3:atemp>26.0</ns3:atemp>
            <ns3:hr>91</ns3:hr>
          </ns3:TrackPointExtension>
        </extensions>
      </trkpt>
      <trkpt lat="36.80925191380083560943603515625" lon="-118.414617888629436492919921875">
        <ele>3406.39990234375</ele>
        <time>2021-06-26T15:50:15.000Z</time>
        <extensions>
          <ns3:TrackPointExtension>
            <ns3:atemp>26.0</ns3:atemp>
            <ns3:hr>88</ns3:hr>
          </ns3:TrackPointExtension>
        </extensions>
      </trkpt>
      <trkpt lat="36.8092439509928226470947265625" lon="-118.41462434269487857818603515625">
        <ele>3406</ele>
        <time>2021-06-26T15:50:20.000Z</time>
        <extensions>
          <ns3:TrackPointExtension>
            <ns3:atemp>26.0</ns3:atemp>
            <ns3:hr>85</ns3:hr>
          </ns3:TrackPointExtension>
        </extensions>
      </trkpt>
      <trkpt lat="36.80924369953572750091552734375" lon="-118.41462585143744945526123046875">
        <ele>3406</ele>
        <time>2021-06-26T15:50:22.000Z</time>
        <extensions>
          <ns3:TrackPointExtension>
            <ns3:atemp>26.0</ns3:atemp>
            <ns3:hr>82</ns3:hr>
          </ns3:TrackPointExtension>
        </extensions>
      </trkpt>
      <trkpt lat="36.80924353189766407012939453125" lon="-118.41462853364646434783935546875">
        <ele>3406</ele>
        <time>2021-06-26T15:50:24.000Z</time>
        <extensions>
          <ns3:TrackPointExtension>
            <ns3:atemp>26.0</ns3:atemp>
            <ns3:hr>79</ns3:hr>
          </ns3:TrackPointExtension>
        </extensions>
      </trkpt>
      <trkpt lat="36.80924319662153720855712890625" lon="-118.41462970711290836334228515625">
        <ele>3406</ele>
        <time>2021-06-26T15:50:26.000Z</time>
        <extensions>
          <ns3:TrackPointExtension>
            <ns3:atemp>26.0</ns3:atemp>
            <ns3:hr>76</ns3:hr>
          </ns3:TrackPointExtension>
        </extensions>
      </trkpt>
      <trkpt lat="36.809235401451587677001953125" lon="-118.4146462194621562957763671875">
        <ele>3405.39990234375</ele>
        <time>2021-06-26T15:50:29.000Z</time>
        <extensions>
          <ns3:TrackPointExtension>
            <ns3:atemp>26.0</ns3:atemp>
            <ns3:hr>74</ns3:hr>
          </ns3:TrackPointExtension>
        </extensions>
      </trkpt>
      <trkpt lat="36.8092359043657779693603515625" lon="-118.414650745689868927001953125">
        <ele>3405.199951171875</ele>
        <time>2021-06-26T15:50:31.000Z</time>
        <extensions>
          <ns3:TrackPointExtension>
            <ns3:atemp>26.0</ns3:atemp>
            <ns3:hr>75</ns3:hr>
          </ns3:TrackPointExtension>
        </extensions>
      </trkpt>
      <trkpt lat="36.8091705255210399627685546875" lon="-118.41471235267817974090576171875">
        <ele>3405</ele>
        <time>2021-06-26T15:50:49.000Z</time>
        <extensions>
          <ns3:TrackPointExtension>
            <ns3:atemp>26.0</ns3:atemp>
            <ns3:hr>77</ns3:hr>
          </ns3:TrackPointExtension>
        </extensions>
      </trkpt>
      <trkpt lat="36.80911679752171039581298828125" lon="-118.4147380851209163665771484375">
        <ele>3404.800048828125</ele>
        <time>2021-06-26T15:50:53.000Z</time>
        <extensions>
          <ns3:TrackPointExtension>
            <ns3:atemp>26.0</ns3:atemp>
            <ns3:hr>80</ns3:hr>
          </ns3:TrackPointExtension>
        </extensions>
      </trkpt>
      <trkpt lat="36.8090937472879886627197265625" lon="-118.41475442983210086822509765625">
        <ele>3404.39990234375</ele>
        <time>2021-06-26T15:50:55.000Z</time>
        <extensions>
          <ns3:TrackPointExtension>
            <ns3:atemp>26.0</ns3:atemp>
            <ns3:hr>83</ns3:hr>
          </ns3:TrackPointExtension>
        </extensions>
      </trkpt>
      <trkpt lat="36.80908930487930774688720703125" lon="-118.414758704602718353271484375">
        <ele>3404.39990234375</ele>
        <time>2021-06-26T15:50:56.000Z</time>
        <extensions>
          <ns3:TrackPointExtension>
            <ns3:atemp>26.0</ns3:atemp>
            <ns3:hr>85</ns3:hr>
          </ns3:TrackPointExtension>
        </extensions>
      </trkpt>
      <trkpt lat="36.80908092297613620758056640625" lon="-118.4147618897259235382080078125">
        <ele>3404.60009765625</ele>
        <time>2021-06-26T15:50:57.000Z</time>
        <extensions>
          <ns3:TrackPointExtension>
            <ns3:atemp>26.0</ns3:atemp>
            <ns3:hr>86</ns3:hr>
          </ns3:TrackPointExtension>
        </extensions>
      </trkpt>
      <trkpt lat="36.80902711115777492523193359375" lon="-118.41475929133594036102294921875">
        <ele>3405</ele>
        <time>2021-06-26T15:51:02.000Z</time>
        <extensions>
          <ns3:TrackPointExtension>
            <ns3:atemp>26.0</ns3:atemp>
            <ns3:hr>89</ns3:hr>
          </ns3:TrackPointExtension>
        </extensions>
      </trkpt>
      <trkpt lat="36.80901587940752506256103515625" lon="-118.41476147063076496124267578125">
        <ele>3405</ele>
        <time>2021-06-26T15:51:03.000Z</time>
        <extensions>
          <ns3:TrackPointExtension>
            <ns3:atemp>26.0</ns3:atemp>
            <ns3:hr>89</ns3:hr>
          </ns3:TrackPointExtension>
        </extensions>
      </trkpt>
      <trkpt lat="36.80900900624692440032958984375" lon="-118.41479717753827571868896484375">
        <ele>3404.60009765625</ele>
        <time>2021-06-26T15:51:08.000Z</time>
        <extensions>
          <ns3:TrackPointExtension>
            <ns3:atemp>26.0</ns3:atemp>
            <ns3:hr>89</ns3:hr>
          </ns3:TrackPointExtension>
        </extensions>
      </trkpt>
      <trkpt lat="36.80903113447129726409912109375" lon="-118.414802961051464080810546875">
        <ele>3404.199951171875</ele>
        <time>2021-06-26T15:51:11.000Z</time>
        <extensions>
          <ns3:TrackPointExtension>
            <ns3:atemp>26.0</ns3:atemp>
            <ns3:hr>89</ns3:hr>
          </ns3:TrackPointExtension>
        </extensions>
      </trkpt>
      <trkpt lat="36.809070445597171783447265625" lon="-118.41480891220271587371826171875">
        <ele>3403.39990234375</ele>
        <time>2021-06-26T15:51:15.000Z</time>
        <extensions>
          <ns3:TrackPointExtension>
            <ns3:atemp>26.0</ns3:atemp>
            <ns3:hr>89</ns3:hr>
          </ns3:TrackPointExtension>
        </extensions>
      </trkpt>
      <trkpt lat="36.80908553302288055419921875" lon="-118.4148115105926990509033203125">
        <ele>3402.60009765625</ele>
        <time>2021-06-26T15:51:17.000Z</time>
        <extensions>
          <ns3:TrackPointExtension>
            <ns3:atemp>26.0</ns3:atemp>
            <ns3:hr>90</ns3:hr>
          </ns3:TrackPointExtension>
        </extensions>
      </trkpt>
      <trkpt lat="36.80909265764057636260986328125" lon="-118.41482215560972690582275390625">
        <ele>3402.60009765625</ele>
        <time>2021-06-26T15:51:19.000Z</time>
        <extensions>
          <ns3:TrackPointExtension>
            <ns3:atemp>26.0</ns3:atemp>
            <ns3:hr>87</ns3:hr>
          </ns3:TrackPointExtension>
        </extensions>
      </trkpt>
      <trkpt lat="36.8090937472879886627197265625" lon="-118.4148316271603107452392578125">
        <ele>3402.60009765625</ele>
        <time>2021-06-26T15:51:20.000Z</time>
        <extensions>
          <ns3:TrackPointExtension>
            <ns3:atemp>26.0</ns3:atemp>
            <ns3:hr>87</ns3:hr>
          </ns3:TrackPointExtension>
        </extensions>
      </trkpt>
      <trkpt lat="36.80909684859216213226318359375" lon="-118.4148502349853515625">
        <ele>3402.199951171875</ele>
        <time>2021-06-26T15:51:22.000Z</time>
        <extensions>
          <ns3:TrackPointExtension>
            <ns3:atemp>26.0</ns3:atemp>
            <ns3:hr>85</ns3:hr>
          </ns3:TrackPointExtension>
        </extensions>
      </trkpt>
      <trkpt lat="36.8091009557247161865234375" lon="-118.414863310754299163818359375">
        <ele>3401.800048828125</ele>
        <time>2021-06-26T15:51:23.000Z</time>
        <extensions>
          <ns3:TrackPointExtension>
            <ns3:atemp>26.0</ns3:atemp>
            <ns3:hr>84</ns3:hr>
          </ns3:TrackPointExtension>
        </extensions>
      </trkpt>
      <trkpt lat="36.80913020856678485870361328125" lon="-118.4148906357586383819580078125">
        <ele>3401</ele>
        <time>2021-06-26T15:51:27.000Z</time>
        <extensions>
          <ns3:TrackPointExtension>
            <ns3:atemp>26.0</ns3:atemp>
            <ns3:hr>84</ns3:hr>
          </ns3:TrackPointExtension>
        </extensions>
      </trkpt>
      <trkpt lat="36.8091369979083538055419921875" lon="-118.4148923121392726898193359375">
        <ele>3401</ele>
        <time>2021-06-26T15:51:28.000Z</time>
        <extensions>
          <ns3:TrackPointExtension>
            <ns3:atemp>26.0</ns3:atemp>
            <ns3:hr>85</ns3:hr>
          </ns3:TrackPointExtension>
        </extensions>
      </trkpt>
      <trkpt lat="36.80915384553372859954833984375" lon="-118.414892144501209259033203125">
        <ele>3400.60009765625</ele>
        <time>2021-06-26T15:51:30.000Z</time>
        <extensions>
          <ns3:TrackPointExtension>
            <ns3:atemp>26.0</ns3:atemp>
            <ns3:hr>87</ns3:hr>
          </ns3:TrackPointExtension>
        </extensions>
      </trkpt>
      <trkpt lat="36.80916960351169109344482421875" lon="-118.414886109530925750732421875">
        <ele>3400.39990234375</ele>
        <time>2021-06-26T15:51:32.000Z</time>
        <extensions>
          <ns3:TrackPointExtension>
            <ns3:atemp>26.0</ns3:atemp>
            <ns3:hr>87</ns3:hr>
          </ns3:TrackPointExtension>
        </extensions>
      </trkpt>
      <trkpt lat="36.809180416166782379150390625" lon="-118.414880074560642242431640625">
        <ele>3400.199951171875</ele>
        <time>2021-06-26T15:51:34.000Z</time>
        <extensions>
          <ns3:TrackPointExtension>
            <ns3:atemp>26.0</ns3:atemp>
            <ns3:hr>85</ns3:hr>
          </ns3:TrackPointExtension>
        </extensions>
      </trkpt>
      <trkpt lat="36.809182427823543548583984375" lon="-118.4149043820798397064208984375">
        <ele>3399.800048828125</ele>
        <time>2021-06-26T15:51:37.000Z</time>
        <extensions>
          <ns3:TrackPointExtension>
            <ns3:atemp>26.0</ns3:atemp>
            <ns3:hr>85</ns3:hr>
          </ns3:TrackPointExtension>
        </extensions>
      </trkpt>
      <trkpt lat="36.80918477475643157958984375" lon="-118.41491527855396270751953125">
        <ele>3399.800048828125</ele>
        <time>2021-06-26T15:51:38.000Z</time>
        <extensions>
          <ns3:TrackPointExtension>
            <ns3:atemp>26.0</ns3:atemp>
            <ns3:hr>84</ns3:hr>
          </ns3:TrackPointExtension>
        </extensions>
      </trkpt>
      <trkpt lat="36.80918334983289241790771484375" lon="-118.414928354322910308837890625">
        <ele>3399.39990234375</ele>
        <time>2021-06-26T15:51:39.000Z</time>
        <extensions>
          <ns3:TrackPointExtension>
            <ns3:atemp>26.0</ns3:atemp>
            <ns3:hr>81</ns3:hr>
          </ns3:TrackPointExtension>
        </extensions>
      </trkpt>
      <trkpt lat="36.80917714722454547882080078125" lon="-118.41494075953960418701171875">
        <ele>3399</ele>
        <time>2021-06-26T15:51:40.000Z</time>
        <extensions>
          <ns3:TrackPointExtension>
            <ns3:atemp>26.0</ns3:atemp>
            <ns3:hr>81</ns3:hr>
          </ns3:TrackPointExtension>
        </extensions>
      </trkpt>
      <trkpt lat="36.8091732077300548553466796875" lon="-118.41494956053793430328369140625">
        <ele>3398.800048828125</ele>
        <time>2021-06-26T15:51:41.000Z</time>
        <extensions>
          <ns3:TrackPointExtension>
            <ns3:atemp>26.0</ns3:atemp>
            <ns3:hr>83</ns3:hr>
          </ns3:TrackPointExtension>
        </extensions>
      </trkpt>
      <trkpt lat="36.80916599929332733154296875" lon="-118.41496045701205730438232421875">
        <ele>3398.199951171875</ele>
        <time>2021-06-26T15:51:44.000Z</time>
        <extensions>
          <ns3:TrackPointExtension>
            <ns3:atemp>26.0</ns3:atemp>
            <ns3:hr>80</ns3:hr>
          </ns3:TrackPointExtension>
        </extensions>
      </trkpt>
      <trkpt lat="36.80916172452270984649658203125" lon="-118.41496280394494533538818359375">
        <ele>3398.199951171875</ele>
        <time>2021-06-26T15:51:45.000Z</time>
        <extensions>
          <ns3:TrackPointExtension>
            <ns3:atemp>26.0</ns3:atemp>
            <ns3:hr>78</ns3:hr>
          </ns3:TrackPointExtension>
        </extensions>
      </trkpt>
      <trkpt lat="36.80916071869432926177978515625" lon="-118.41496624052524566650390625">
        <ele>3397.60009765625</ele>
        <time>2021-06-26T15:51:46.000Z</time>
        <extensions>
          <ns3:TrackPointExtension>
            <ns3:atemp>26.0</ns3:atemp>
            <ns3:hr>79</ns3:hr>
          </ns3:TrackPointExtension>
        </extensions>
      </trkpt>
      <trkpt lat="36.80917345918715000152587890625" lon="-118.41498426161706447601318359375">
        <ele>3397.199951171875</ele>
        <time>2021-06-26T15:51:48.000Z</time>
        <extensions>
          <ns3:TrackPointExtension>
            <ns3:atemp>26.0</ns3:atemp>
            <ns3:hr>80</ns3:hr>
          </ns3:TrackPointExtension>
        </extensions>
      </trkpt>
      <trkpt lat="36.80918745696544647216796875" lon="-118.41498593799769878387451171875">
        <ele>3396.60009765625</ele>
        <time>2021-06-26T15:51:50.000Z</time>
        <extensions>
          <ns3:TrackPointExtension>
            <ns3:atemp>26.0</ns3:atemp>
            <ns3:hr>83</ns3:hr>
          </ns3:TrackPointExtension>
        </extensions>
      </trkpt>
      <trkpt lat="36.8092033825814723968505859375" lon="-118.41500203125178813934326171875">
        <ele>3396</ele>
        <time>2021-06-26T15:51:53.000Z</time>
        <extensions>
          <ns3:TrackPointExtension>
            <ns3:atemp>26.0</ns3:atemp>
            <ns3:hr>79</ns3:hr>
          </ns3:TrackPointExtension>
        </extensions>
      </trkpt>
      <trkpt lat="36.80920916609466075897216796875" lon="-118.41500622220337390899658203125">
        <ele>3396</ele>
        <time>2021-06-26T15:51:54.000Z</time>
        <extensions>
          <ns3:TrackPointExtension>
            <ns3:atemp>26.0</ns3:atemp>
            <ns3:hr>81</ns3:hr>
          </ns3:TrackPointExtension>
        </extensions>
      </trkpt>
      <trkpt lat="36.8092136085033416748046875" lon="-118.415007479488849639892578125">
        <ele>3395.800048828125</ele>
        <time>2021-06-26T15:51:55.000Z</time>
        <extensions>
          <ns3:TrackPointExtension>
            <ns3:atemp>26.0</ns3:atemp>
            <ns3:hr>78</ns3:hr>
          </ns3:TrackPointExtension>
        </extensions>
      </trkpt>
      <trkpt lat="36.80922090075910091400146484375" lon="-118.4150093235075473785400390625">
        <ele>3395.60009765625</ele>
        <time>2021-06-26T15:51:57.000Z</time>
        <extensions>
          <ns3:TrackPointExtension>
            <ns3:atemp>26.0</ns3:atemp>
            <ns3:hr>80</ns3:hr>
          </ns3:TrackPointExtension>
        </extensions>
      </trkpt>
      <trkpt lat="36.8092302046716213226318359375" lon="-118.4150019474327564239501953125">
        <ele>3395.60009765625</ele>
        <time>2021-06-26T15:51:58.000Z</time>
        <extensions>
          <ns3:TrackPointExtension>
            <ns3:atemp>26.0</ns3:atemp>
            <ns3:hr>80</ns3:hr>
          </ns3:TrackPointExtension>
        </extensions>
      </trkpt>
      <trkpt lat="36.8092553503811359405517578125" lon="-118.41499247588217258453369140625">
        <ele>3395.39990234375</ele>
        <time>2021-06-26T15:52:00.000Z</time>
        <extensions>
          <ns3:TrackPointExtension>
            <ns3:atemp>26.0</ns3:atemp>
            <ns3:hr>82</ns3:hr>
          </ns3:TrackPointExtension>
        </extensions>
      </trkpt>
      <trkpt lat="36.8092994391918182373046875" lon="-118.41498325578868389129638671875">
        <ele>3394.800048828125</ele>
        <time>2021-06-26T15:52:04.000Z</time>
        <extensions>
          <ns3:TrackPointExtension>
            <ns3:atemp>26.0</ns3:atemp>
            <ns3:hr>79</ns3:hr>
          </ns3:TrackPointExtension>
        </extensions>
      </trkpt>
      <trkpt lat="36.8093066476285457611083984375" lon="-118.41498727910220623016357421875">
        <ele>3394.60009765625</ele>
        <time>2021-06-26T15:52:05.000Z</time>
        <extensions>
          <ns3:TrackPointExtension>
            <ns3:atemp>26.0</ns3:atemp>
            <ns3:hr>79</ns3:hr>
          </ns3:TrackPointExtension>
        </extensions>
      </trkpt>
      <trkpt lat="36.80931829847395420074462890625" lon="-118.41498761437833309173583984375">
        <ele>3394.60009765625</ele>
        <time>2021-06-26T15:52:06.000Z</time>
        <extensions>
          <ns3:TrackPointExtension>
            <ns3:atemp>26.0</ns3:atemp>
            <ns3:hr>79</ns3:hr>
          </ns3:TrackPointExtension>
        </extensions>
      </trkpt>
      <trkpt lat="36.80935149081051349639892578125" lon="-118.415007479488849639892578125">
        <ele>3394.39990234375</ele>
        <time>2021-06-26T15:52:12.000Z</time>
        <extensions>
          <ns3:TrackPointExtension>
            <ns3:atemp>26.0</ns3:atemp>
            <ns3:hr>81</ns3:hr>
          </ns3:TrackPointExtension>
        </extensions>
      </trkpt>
      <trkpt lat="36.80938736535608768463134765625" lon="-118.41503002680838108062744140625">
        <ele>3393.800048828125</ele>
        <time>2021-06-26T15:52:17.000Z</time>
        <extensions>
          <ns3:TrackPointExtension>
            <ns3:atemp>26.0</ns3:atemp>
            <ns3:hr>84</ns3:hr>
          </ns3:TrackPointExtension>
        </extensions>
      </trkpt>
      <trkpt lat="36.80940144695341587066650390625" lon="-118.41504243202507495880126953125">
        <ele>3393.60009765625</ele>
        <time>2021-06-26T15:52:19.000Z</time>
        <extensions>
          <ns3:TrackPointExtension>
            <ns3:atemp>26.0</ns3:atemp>
            <ns3:hr>82</ns3:hr>
          </ns3:TrackPointExtension>
        </extensions>
      </trkpt>
      <trkpt lat="36.8094055540859699249267578125" lon="-118.4150540828704833984375">
        <ele>3393.39990234375</ele>
        <time>2021-06-26T15:52:20.000Z</time>
        <extensions>
          <ns3:TrackPointExtension>
            <ns3:atemp>26.0</ns3:atemp>
            <ns3:hr>83</ns3:hr>
          </ns3:TrackPointExtension>
        </extensions>
      </trkpt>
      <trkpt lat="36.80941888131201267242431640625" lon="-118.41509238816797733306884765625">
        <ele>3393</ele>
        <time>2021-06-26T15:52:23.000Z</time>
        <extensions>
          <ns3:TrackPointExtension>
            <ns3:atemp>26.0</ns3:atemp>
            <ns3:hr>86</ns3:hr>
          </ns3:TrackPointExtension>
        </extensions>
      </trkpt>
      <trkpt lat="36.80943287909030914306640625" lon="-118.415110073983669281005859375">
        <ele>3393</ele>
        <time>2021-06-26T15:52:25.000Z</time>
        <extensions>
          <ns3:TrackPointExtension>
            <ns3:atemp>26.0</ns3:atemp>
            <ns3:hr>86</ns3:hr>
          </ns3:TrackPointExtension>
        </extensions>
      </trkpt>
      <trkpt lat="36.8094622157514095306396484375" lon="-118.415118120610713958740234375">
        <ele>3392.800048828125</ele>
        <time>2021-06-26T15:52:28.000Z</time>
        <extensions>
          <ns3:TrackPointExtension>
            <ns3:atemp>26.0</ns3:atemp>
            <ns3:hr>86</ns3:hr>
          </ns3:TrackPointExtension>
        </extensions>
      </trkpt>
      <trkpt lat="36.80946833454072475433349609375" lon="-118.41512122191488742828369140625">
        <ele>3392.39990234375</ele>
        <time>2021-06-26T15:52:29.000Z</time>
        <extensions>
          <ns3:TrackPointExtension>
            <ns3:atemp>26.0</ns3:atemp>
            <ns3:hr>86</ns3:hr>
          </ns3:TrackPointExtension>
        </extensions>
      </trkpt>
      <trkpt lat="36.809479482471942901611328125" lon="-118.4151370637118816375732421875">
        <ele>3392.199951171875</ele>
        <time>2021-06-26T15:52:32.000Z</time>
        <extensions>
          <ns3:TrackPointExtension>
            <ns3:atemp>26.0</ns3:atemp>
            <ns3:hr>86</ns3:hr>
          </ns3:TrackPointExtension>
        </extensions>
      </trkpt>
      <trkpt lat="36.8094736151397228240966796875" lon="-118.41516162268817424774169921875">
        <ele>3392</ele>
        <time>2021-06-26T15:52:34.000Z</time>
        <extensions>
          <ns3:TrackPointExtension>
            <ns3:atemp>26.0</ns3:atemp>
            <ns3:hr>85</ns3:hr>
          </ns3:TrackPointExtension>
        </extensions>
      </trkpt>
      <trkpt lat="36.80947713553905487060546875" lon="-118.41517411172389984130859375">
        <ele>3391.39990234375</ele>
        <time>2021-06-26T15:52:35.000Z</time>
        <extensions>
          <ns3:TrackPointExtension>
            <ns3:atemp>26.0</ns3:atemp>
            <ns3:hr>86</ns3:hr>
          </ns3:TrackPointExtension>
        </extensions>
      </trkpt>
      <trkpt lat="36.80948141030967235565185546875" lon="-118.41519615612924098968505859375">
        <ele>3391.39990234375</ele>
        <time>2021-06-26T15:52:37.000Z</time>
        <extensions>
          <ns3:TrackPointExtension>
            <ns3:atemp>26.0</ns3:atemp>
            <ns3:hr>85</ns3:hr>
          </ns3:TrackPointExtension>
        </extensions>
      </trkpt>
      <trkpt lat="36.80951074697077274322509765625" lon="-118.4152624569833278656005859375">
        <ele>3390.39990234375</ele>
        <time>2021-06-26T15:52:45.000Z</time>
        <extensions>
          <ns3:TrackPointExtension>
            <ns3:atemp>26.0</ns3:atemp>
            <ns3:hr>84</ns3:hr>
          </ns3:TrackPointExtension>
        </extensions>
      </trkpt>
      <trkpt lat="36.80951929651200771331787109375" lon="-118.415275700390338897705078125">
        <ele>3390</ele>
        <time>2021-06-26T15:52:47.000Z</time>
        <extensions>
          <ns3:TrackPointExtension>
            <ns3:atemp>26.0</ns3:atemp>
            <ns3:hr>84</ns3:hr>
          </ns3:TrackPointExtension>
        </extensions>
      </trkpt>
      <trkpt lat="36.80952533148229122161865234375" lon="-118.4153120778501033782958984375">
        <ele>3389.60009765625</ele>
        <time>2021-06-26T15:52:50.000Z</time>
        <extensions>
          <ns3:TrackPointExtension>
            <ns3:atemp>26.0</ns3:atemp>
            <ns3:hr>85</ns3:hr>
          </ns3:TrackPointExtension>
        </extensions>
      </trkpt>
      <trkpt lat="36.809530444443225860595703125" lon="-118.4153318591415882110595703125">
        <ele>3389</ele>
        <time>2021-06-26T15:52:52.000Z</time>
        <extensions>
          <ns3:TrackPointExtension>
            <ns3:atemp>26.0</ns3:atemp>
            <ns3:hr>85</ns3:hr>
          </ns3:TrackPointExtension>
        </extensions>
      </trkpt>
      <trkpt lat="36.809533126652240753173828125" lon="-118.41534183360636234283447265625">
        <ele>3389</ele>
        <time>2021-06-26T15:52:53.000Z</time>
        <extensions>
          <ns3:TrackPointExtension>
            <ns3:atemp>26.0</ns3:atemp>
            <ns3:hr>83</ns3:hr>
          </ns3:TrackPointExtension>
        </extensions>
      </trkpt>
      <trkpt lat="36.80954645387828350067138671875" lon="-118.41540486551821231842041015625">
        <ele>3387.39990234375</ele>
        <time>2021-06-26T15:53:01.000Z</time>
        <extensions>
          <ns3:TrackPointExtension>
            <ns3:atemp>26.0</ns3:atemp>
            <ns3:hr>83</ns3:hr>
          </ns3:TrackPointExtension>
        </extensions>
      </trkpt>
      <trkpt lat="36.80954745970666408538818359375" lon="-118.41541274450719356536865234375">
        <ele>3387.199951171875</ele>
        <time>2021-06-26T15:53:02.000Z</time>
        <extensions>
          <ns3:TrackPointExtension>
            <ns3:atemp>26.0</ns3:atemp>
            <ns3:hr>85</ns3:hr>
          </ns3:TrackPointExtension>
        </extensions>
      </trkpt>
      <trkpt lat="36.80954628624022006988525390625" lon="-118.41542146168649196624755859375">
        <ele>3387.199951171875</ele>
        <time>2021-06-26T15:53:03.000Z</time>
        <extensions>
          <ns3:TrackPointExtension>
            <ns3:atemp>26.0</ns3:atemp>
            <ns3:hr>85</ns3:hr>
          </ns3:TrackPointExtension>
        </extensions>
      </trkpt>
      <trkpt lat="36.80954662151634693145751953125" lon="-118.41548834927380084991455078125">
        <ele>3386.199951171875</ele>
        <time>2021-06-26T15:53:10.000Z</time>
        <extensions>
          <ns3:TrackPointExtension>
            <ns3:atemp>26.0</ns3:atemp>
            <ns3:hr>85</ns3:hr>
          </ns3:TrackPointExtension>
        </extensions>
      </trkpt>
      <trkpt lat="36.809558607637882232666015625" lon="-118.41553729958832263946533203125">
        <ele>3385</ele>
        <time>2021-06-26T15:53:16.000Z</time>
        <extensions>
          <ns3:TrackPointExtension>
            <ns3:atemp>26.0</ns3:atemp>
            <ns3:hr>85</ns3:hr>
          </ns3:TrackPointExtension>
        </extensions>
      </trkpt>
      <trkpt lat="36.8095550872385501861572265625" lon="-118.41555900871753692626953125">
        <ele>3384.199951171875</ele>
        <time>2021-06-26T15:53:19.000Z</time>
        <extensions>
          <ns3:TrackPointExtension>
            <ns3:atemp>26.0</ns3:atemp>
            <ns3:hr>84</ns3:hr>
          </ns3:TrackPointExtension>
        </extensions>
      </trkpt>
      <trkpt lat="36.80955165065824985504150390625" lon="-118.41556445695459842681884765625">
        <ele>3384</ele>
        <time>2021-06-26T15:53:20.000Z</time>
        <extensions>
          <ns3:TrackPointExtension>
            <ns3:atemp>26.0</ns3:atemp>
            <ns3:hr>84</ns3:hr>
          </ns3:TrackPointExtension>
        </extensions>
      </trkpt>
      <trkpt lat="36.80950270034372806549072265625" lon="-118.41559521853923797607421875">
        <ele>3382.800048828125</ele>
        <time>2021-06-26T15:53:29.000Z</time>
        <extensions>
          <ns3:TrackPointExtension>
            <ns3:atemp>25.0</ns3:atemp>
            <ns3:hr>81</ns3:hr>
          </ns3:TrackPointExtension>
        </extensions>
      </trkpt>
      <trkpt lat="36.8094803206622600555419921875" lon="-118.41561374254524707794189453125">
        <ele>3382.39990234375</ele>
        <time>2021-06-26T15:53:33.000Z</time>
        <extensions>
          <ns3:TrackPointExtension>
            <ns3:atemp>25.0</ns3:atemp>
            <ns3:hr>80</ns3:hr>
          </ns3:TrackPointExtension>
        </extensions>
      </trkpt>
      <trkpt lat="36.809472776949405670166015625" lon="-118.41562648303806781768798828125">
        <ele>3382.39990234375</ele>
        <time>2021-06-26T15:53:34.000Z</time>
        <extensions>
          <ns3:TrackPointExtension>
            <ns3:atemp>26.0</ns3:atemp>
            <ns3:hr>81</ns3:hr>
          </ns3:TrackPointExtension>
        </extensions>
      </trkpt>
      <trkpt lat="36.8094464577734470367431640625" lon="-118.4156543947756290435791015625">
        <ele>3381.800048828125</ele>
        <time>2021-06-26T15:53:38.000Z</time>
        <extensions>
          <ns3:TrackPointExtension>
            <ns3:atemp>26.0</ns3:atemp>
            <ns3:hr>80</ns3:hr>
          </ns3:TrackPointExtension>
        </extensions>
      </trkpt>
      <trkpt lat="36.80944285355508327484130859375" lon="-118.41566738672554492950439453125">
        <ele>3381.60009765625</ele>
        <time>2021-06-26T15:53:39.000Z</time>
        <extensions>
          <ns3:TrackPointExtension>
            <ns3:atemp>25.0</ns3:atemp>
            <ns3:hr>82</ns3:hr>
          </ns3:TrackPointExtension>
        </extensions>
      </trkpt>
      <trkpt lat="36.80944494903087615966796875" lon="-118.41567845083773136138916015625">
        <ele>3381.199951171875</ele>
        <time>2021-06-26T15:53:40.000Z</time>
        <extensions>
          <ns3:TrackPointExtension>
            <ns3:atemp>26.0</ns3:atemp>
            <ns3:hr>81</ns3:hr>
          </ns3:TrackPointExtension>
        </extensions>
      </trkpt>
      <trkpt lat="36.80946162901818752288818359375" lon="-118.415700159966945648193359375">
        <ele>3381</ele>
        <time>2021-06-26T15:53:43.000Z</time>
        <extensions>
          <ns3:TrackPointExtension>
            <ns3:atemp>26.0</ns3:atemp>
            <ns3:hr>77</ns3:hr>
          </ns3:TrackPointExtension>
        </extensions>
      </trkpt>
      <trkpt lat="36.80947654880583286285400390625" lon="-118.4157040156424045562744140625">
        <ele>3380.60009765625</ele>
        <time>2021-06-26T15:53:45.000Z</time>
        <extensions>
          <ns3:TrackPointExtension>
            <ns3:atemp>26.0</ns3:atemp>
            <ns3:hr>75</ns3:hr>
          </ns3:TrackPointExtension>
        </extensions>
      </trkpt>
      <trkpt lat="36.809485517442226409912109375" lon="-118.4157060272991657257080078125">
        <ele>3380.199951171875</ele>
        <time>2021-06-26T15:53:46.000Z</time>
        <extensions>
          <ns3:TrackPointExtension>
            <ns3:atemp>26.0</ns3:atemp>
            <ns3:hr>75</ns3:hr>
          </ns3:TrackPointExtension>
        </extensions>
      </trkpt>
      <trkpt lat="36.8095302768051624298095703125" lon="-118.41572522185742855072021484375">
        <ele>3379.60009765625</ele>
        <time>2021-06-26T15:53:51.000Z</time>
        <extensions>
          <ns3:TrackPointExtension>
            <ns3:atemp>26.0</ns3:atemp>
            <ns3:hr>74</ns3:hr>
          </ns3:TrackPointExtension>
        </extensions>
      </trkpt>
      <trkpt lat="36.80954494513571262359619140625" lon="-118.415736369788646697998046875">
        <ele>3379.39990234375</ele>
        <time>2021-06-26T15:53:54.000Z</time>
        <extensions>
          <ns3:TrackPointExtension>
            <ns3:atemp>26.0</ns3:atemp>
            <ns3:hr>75</ns3:hr>
          </ns3:TrackPointExtension>
        </extensions>
      </trkpt>
      <trkpt lat="36.8095569312572479248046875" lon="-118.41575740836560726165771484375">
        <ele>3378.60009765625</ele>
        <time>2021-06-26T15:53:57.000Z</time>
        <extensions>
          <ns3:TrackPointExtension>
            <ns3:atemp>26.0</ns3:atemp>
            <ns3:hr>76</ns3:hr>
          </ns3:TrackPointExtension>
        </extensions>
      </trkpt>
      <trkpt lat="36.80958936922252178192138671875" lon="-118.41576796956360340118408203125">
        <ele>3377.800048828125</ele>
        <time>2021-06-26T15:54:01.000Z</time>
        <extensions>
          <ns3:TrackPointExtension>
            <ns3:atemp>26.0</ns3:atemp>
            <ns3:hr>78</ns3:hr>
          </ns3:TrackPointExtension>
        </extensions>
      </trkpt>
      <trkpt lat="36.80962692014873027801513671875" lon="-118.41579026542603969573974609375">
        <ele>3377.199951171875</ele>
        <time>2021-06-26T15:54:05.000Z</time>
        <extensions>
          <ns3:TrackPointExtension>
            <ns3:atemp>26.0</ns3:atemp>
            <ns3:hr>77</ns3:hr>
          </ns3:TrackPointExtension>
        </extensions>
      </trkpt>
      <trkpt lat="36.8096593581140041351318359375" lon="-118.41580753214657306671142578125">
        <ele>3376.60009765625</ele>
        <time>2021-06-26T15:54:09.000Z</time>
        <extensions>
          <ns3:TrackPointExtension>
            <ns3:atemp>26.0</ns3:atemp>
            <ns3:hr>77</ns3:hr>
          </ns3:TrackPointExtension>
        </extensions>
      </trkpt>
      <trkpt lat="36.8096647225320339202880859375" lon="-118.41582111082971096038818359375">
        <ele>3376.39990234375</ele>
        <time>2021-06-26T15:54:11.000Z</time>
        <extensions>
          <ns3:TrackPointExtension>
            <ns3:atemp>26.0</ns3:atemp>
            <ns3:hr>78</ns3:hr>
          </ns3:TrackPointExtension>
        </extensions>
      </trkpt>
      <trkpt lat="36.809672601521015167236328125" lon="-118.4158411435782909393310546875">
        <ele>3376</ele>
        <time>2021-06-26T15:54:14.000Z</time>
        <extensions>
          <ns3:TrackPointExtension>
            <ns3:atemp>26.0</ns3:atemp>
            <ns3:hr>76</ns3:hr>
          </ns3:TrackPointExtension>
        </extensions>
      </trkpt>
      <trkpt lat="36.8096714280545711517333984375" lon="-118.41585949994623661041259765625">
        <ele>3375.60009765625</ele>
        <time>2021-06-26T15:54:16.000Z</time>
        <extensions>
          <ns3:TrackPointExtension>
            <ns3:atemp>26.0</ns3:atemp>
            <ns3:hr>76</ns3:hr>
          </ns3:TrackPointExtension>
        </extensions>
      </trkpt>
      <trkpt lat="36.80965357460081577301025390625" lon="-118.4158954583108425140380859375">
        <ele>3374.199951171875</ele>
        <time>2021-06-26T15:54:21.000Z</time>
        <extensions>
          <ns3:TrackPointExtension>
            <ns3:atemp>26.0</ns3:atemp>
            <ns3:hr>77</ns3:hr>
          </ns3:TrackPointExtension>
        </extensions>
      </trkpt>
      <trkpt lat="36.80963345803320407867431640625" lon="-118.41590627096593379974365234375">
        <ele>3373.60009765625</ele>
        <time>2021-06-26T15:54:24.000Z</time>
        <extensions>
          <ns3:TrackPointExtension>
            <ns3:atemp>26.0</ns3:atemp>
            <ns3:hr>78</ns3:hr>
          </ns3:TrackPointExtension>
        </extensions>
      </trkpt>
      <trkpt lat="36.80961535312235355377197265625" lon="-118.4159263037145137786865234375">
        <ele>3372.800048828125</ele>
        <time>2021-06-26T15:54:27.000Z</time>
        <extensions>
          <ns3:TrackPointExtension>
            <ns3:atemp>26.0</ns3:atemp>
            <ns3:hr>80</ns3:hr>
          </ns3:TrackPointExtension>
        </extensions>
      </trkpt>
      <trkpt lat="36.809614598751068115234375" lon="-118.4159876592457294464111328125">
        <ele>3372</ele>
        <time>2021-06-26T15:54:33.000Z</time>
        <extensions>
          <ns3:TrackPointExtension>
            <ns3:atemp>26.0</ns3:atemp>
            <ns3:hr>80</ns3:hr>
          </ns3:TrackPointExtension>
        </extensions>
      </trkpt>
      <trkpt lat="36.80961166508495807647705078125" lon="-118.41599218547344207763671875">
        <ele>3371.800048828125</ele>
        <time>2021-06-26T15:54:34.000Z</time>
        <extensions>
          <ns3:TrackPointExtension>
            <ns3:atemp>26.0</ns3:atemp>
            <ns3:hr>80</ns3:hr>
          </ns3:TrackPointExtension>
        </extensions>
      </trkpt>
      <trkpt lat="36.8096067197620868682861328125" lon="-118.41604524292051792144775390625">
        <ele>3370.800048828125</ele>
        <time>2021-06-26T15:54:41.000Z</time>
        <extensions>
          <ns3:TrackPointExtension>
            <ns3:atemp>26.0</ns3:atemp>
            <ns3:hr>81</ns3:hr>
          </ns3:TrackPointExtension>
        </extensions>
      </trkpt>
      <trkpt lat="36.8096100725233554840087890625" lon="-118.4160533733665943145751953125">
        <ele>3370.800048828125</ele>
        <time>2021-06-26T15:54:42.000Z</time>
        <extensions>
          <ns3:TrackPointExtension>
            <ns3:atemp>26.0</ns3:atemp>
            <ns3:hr>81</ns3:hr>
          </ns3:TrackPointExtension>
        </extensions>
      </trkpt>
      <trkpt lat="36.80961350910365581512451171875" lon="-118.41608949936926364898681640625">
        <ele>3369.60009765625</ele>
        <time>2021-06-26T15:54:49.000Z</time>
        <extensions>
          <ns3:TrackPointExtension>
            <ns3:atemp>26.0</ns3:atemp>
            <ns3:hr>79</ns3:hr>
          </ns3:TrackPointExtension>
        </extensions>
      </trkpt>
      <trkpt lat="36.80961166508495807647705078125" lon="-118.41609737835824489593505859375">
        <ele>3369.39990234375</ele>
        <time>2021-06-26T15:54:50.000Z</time>
        <extensions>
          <ns3:TrackPointExtension>
            <ns3:atemp>26.0</ns3:atemp>
            <ns3:hr>78</ns3:hr>
          </ns3:TrackPointExtension>
        </extensions>
      </trkpt>
      <trkpt lat="36.80961191654205322265625" lon="-118.41612252406775951385498046875">
        <ele>3368.60009765625</ele>
        <time>2021-06-26T15:54:53.000Z</time>
        <extensions>
          <ns3:TrackPointExtension>
            <ns3:atemp>26.0</ns3:atemp>
            <ns3:hr>81</ns3:hr>
          </ns3:TrackPointExtension>
        </extensions>
      </trkpt>
      <trkpt lat="36.8096201308071613311767578125" lon="-118.416138701140880584716796875">
        <ele>3368.39990234375</ele>
        <time>2021-06-26T15:54:55.000Z</time>
        <extensions>
          <ns3:TrackPointExtension>
            <ns3:atemp>26.0</ns3:atemp>
            <ns3:hr>80</ns3:hr>
          </ns3:TrackPointExtension>
        </extensions>
      </trkpt>
      <trkpt lat="36.809625327587127685546875" lon="-118.41615739278495311737060546875">
        <ele>3368</ele>
        <time>2021-06-26T15:54:57.000Z</time>
        <extensions>
          <ns3:TrackPointExtension>
            <ns3:atemp>26.0</ns3:atemp>
            <ns3:hr>81</ns3:hr>
          </ns3:TrackPointExtension>
        </extensions>
      </trkpt>
      <trkpt lat="36.80962658487260341644287109375" lon="-118.4161660261452198028564453125">
        <ele>3367.199951171875</ele>
        <time>2021-06-26T15:54:59.000Z</time>
        <extensions>
          <ns3:TrackPointExtension>
            <ns3:atemp>26.0</ns3:atemp>
            <ns3:hr>82</ns3:hr>
          </ns3:TrackPointExtension>
        </extensions>
      </trkpt>
      <trkpt lat="36.8096379004418849945068359375" lon="-118.416255377233028411865234375">
        <ele>3366.39990234375</ele>
        <time>2021-06-26T15:55:06.000Z</time>
        <extensions>
          <ns3:TrackPointExtension>
            <ns3:atemp>26.0</ns3:atemp>
            <ns3:hr>82</ns3:hr>
          </ns3:TrackPointExtension>
        </extensions>
      </trkpt>
      <trkpt lat="36.80964485742151737213134765625" lon="-118.41625529341399669647216796875">
        <ele>3366.199951171875</ele>
        <time>2021-06-26T15:55:07.000Z</time>
        <extensions>
          <ns3:TrackPointExtension>
            <ns3:atemp>26.0</ns3:atemp>
            <ns3:hr>82</ns3:hr>
          </ns3:TrackPointExtension>
        </extensions>
      </trkpt>
      <trkpt lat="36.8096615374088287353515625" lon="-118.4162662737071514129638671875">
        <ele>3365.800048828125</ele>
        <time>2021-06-26T15:55:10.000Z</time>
        <extensions>
          <ns3:TrackPointExtension>
            <ns3:atemp>26.0</ns3:atemp>
            <ns3:hr>79</ns3:hr>
          </ns3:TrackPointExtension>
        </extensions>
      </trkpt>
      <trkpt lat="36.8096771277487277984619140625" lon="-118.41627021320164203643798828125">
        <ele>3365.39990234375</ele>
        <time>2021-06-26T15:55:13.000Z</time>
        <extensions>
          <ns3:TrackPointExtension>
            <ns3:atemp>26.0</ns3:atemp>
            <ns3:hr>77</ns3:hr>
          </ns3:TrackPointExtension>
        </extensions>
      </trkpt>
      <trkpt lat="36.80968542583286762237548828125" lon="-118.41629527509212493896484375">
        <ele>3365.199951171875</ele>
        <time>2021-06-26T15:55:15.000Z</time>
        <extensions>
          <ns3:TrackPointExtension>
            <ns3:atemp>26.0</ns3:atemp>
            <ns3:hr>80</ns3:hr>
          </ns3:TrackPointExtension>
        </extensions>
      </trkpt>
      <trkpt lat="36.8096868507564067840576171875" lon="-118.41630759648978710174560546875">
        <ele>3364.800048828125</ele>
        <time>2021-06-26T15:55:16.000Z</time>
        <extensions>
          <ns3:TrackPointExtension>
            <ns3:atemp>26.0</ns3:atemp>
            <ns3:hr>81</ns3:hr>
          </ns3:TrackPointExtension>
        </extensions>
      </trkpt>
      <trkpt lat="36.80969598703086376190185546875" lon="-118.416348583996295928955078125">
        <ele>3363.60009765625</ele>
        <time>2021-06-26T15:55:21.000Z</time>
        <extensions>
          <ns3:TrackPointExtension>
            <ns3:atemp>26.0</ns3:atemp>
            <ns3:hr>81</ns3:hr>
          </ns3:TrackPointExtension>
        </extensions>
      </trkpt>
      <trkpt lat="36.80969774723052978515625" lon="-118.41637247242033481597900390625">
        <ele>3363.199951171875</ele>
        <time>2021-06-26T15:55:23.000Z</time>
        <extensions>
          <ns3:TrackPointExtension>
            <ns3:atemp>26.0</ns3:atemp>
            <ns3:hr>81</ns3:hr>
          </ns3:TrackPointExtension>
        </extensions>
      </trkpt>
      <trkpt lat="36.80969665758311748504638671875" lon="-118.41643617488443851470947265625">
        <ele>3362.60009765625</ele>
        <time>2021-06-26T15:55:29.000Z</time>
        <extensions>
          <ns3:TrackPointExtension>
            <ns3:atemp>26.0</ns3:atemp>
            <ns3:hr>80</ns3:hr>
          </ns3:TrackPointExtension>
        </extensions>
      </trkpt>
      <trkpt lat="36.80970772169530391693115234375" lon="-118.4164570458233356475830078125">
        <ele>3362.39990234375</ele>
        <time>2021-06-26T15:55:31.000Z</time>
        <extensions>
          <ns3:TrackPointExtension>
            <ns3:atemp>26.0</ns3:atemp>
            <ns3:hr>79</ns3:hr>
          </ns3:TrackPointExtension>
        </extensions>
      </trkpt>
      <trkpt lat="36.8097607791423797607421875" lon="-118.41651814989745616912841796875">
        <ele>3361.199951171875</ele>
        <time>2021-06-26T15:55:38.000Z</time>
        <extensions>
          <ns3:TrackPointExtension>
            <ns3:atemp>26.0</ns3:atemp>
            <ns3:hr>79</ns3:hr>
          </ns3:TrackPointExtension>
        </extensions>
      </trkpt>
      <trkpt lat="36.8097639642655849456787109375" lon="-118.416537009179592132568359375">
        <ele>3361</ele>
        <time>2021-06-26T15:55:40.000Z</time>
        <extensions>
          <ns3:TrackPointExtension>
            <ns3:atemp>26.0</ns3:atemp>
            <ns3:hr>76</ns3:hr>
          </ns3:TrackPointExtension>
        </extensions>
      </trkpt>
      <trkpt lat="36.80976656265556812286376953125" lon="-118.41654530726373195648193359375">
        <ele>3360.800048828125</ele>
        <time>2021-06-26T15:55:41.000Z</time>
        <extensions>
          <ns3:TrackPointExtension>
            <ns3:atemp>26.0</ns3:atemp>
            <ns3:hr>78</ns3:hr>
          </ns3:TrackPointExtension>
        </extensions>
      </trkpt>
      <trkpt lat="36.80977779440581798553466796875" lon="-118.41656676493585109710693359375">
        <ele>3360.199951171875</ele>
        <time>2021-06-26T15:55:43.000Z</time>
        <extensions>
          <ns3:TrackPointExtension>
            <ns3:atemp>26.0</ns3:atemp>
            <ns3:hr>78</ns3:hr>
          </ns3:TrackPointExtension>
        </extensions>
      </trkpt>
      <trkpt lat="36.809793300926685333251953125" lon="-118.41660775244235992431640625">
        <ele>3360.199951171875</ele>
        <time>2021-06-26T15:55:47.000Z</time>
        <extensions>
          <ns3:TrackPointExtension>
            <ns3:atemp>26.0</ns3:atemp>
            <ns3:hr>79</ns3:hr>
          </ns3:TrackPointExtension>
        </extensions>
      </trkpt>
      <trkpt lat="36.8097934685647487640380859375" lon="-118.41661806218326091766357421875">
        <ele>3359.800048828125</ele>
        <time>2021-06-26T15:55:48.000Z</time>
        <extensions>
          <ns3:TrackPointExtension>
            <ns3:atemp>26.0</ns3:atemp>
            <ns3:hr>79</ns3:hr>
          </ns3:TrackPointExtension>
        </extensions>
      </trkpt>
      <trkpt lat="36.80979556404054164886474609375" lon="-118.41662912629544734954833984375">
        <ele>3359.800048828125</ele>
        <time>2021-06-26T15:55:49.000Z</time>
        <extensions>
          <ns3:TrackPointExtension>
            <ns3:atemp>26.0</ns3:atemp>
            <ns3:hr>77</ns3:hr>
          </ns3:TrackPointExtension>
        </extensions>
      </trkpt>
      <trkpt lat="36.80981911718845367431640625" lon="-118.41665594838559627532958984375">
        <ele>3359.199951171875</ele>
        <time>2021-06-26T15:55:52.000Z</time>
        <extensions>
          <ns3:TrackPointExtension>
            <ns3:atemp>26.0</ns3:atemp>
            <ns3:hr>79</ns3:hr>
          </ns3:TrackPointExtension>
        </extensions>
      </trkpt>
      <trkpt lat="36.80984057486057281494140625" lon="-118.4166830219328403472900390625">
        <ele>3358.60009765625</ele>
        <time>2021-06-26T15:55:56.000Z</time>
        <extensions>
          <ns3:TrackPointExtension>
            <ns3:atemp>26.0</ns3:atemp>
            <ns3:hr>77</ns3:hr>
          </ns3:TrackPointExtension>
        </extensions>
      </trkpt>
      <trkpt lat="36.80984417907893657684326171875" lon="-118.41672535054385662078857421875">
        <ele>3358.39990234375</ele>
        <time>2021-06-26T15:56:00.000Z</time>
        <extensions>
          <ns3:TrackPointExtension>
            <ns3:atemp>26.0</ns3:atemp>
            <ns3:hr>80</ns3:hr>
          </ns3:TrackPointExtension>
        </extensions>
      </trkpt>
      <trkpt lat="36.809857003390789031982421875" lon="-118.41674848459661006927490234375">
        <ele>3358</ele>
        <time>2021-06-26T15:56:02.000Z</time>
        <extensions>
          <ns3:TrackPointExtension>
            <ns3:atemp>26.0</ns3:atemp>
            <ns3:hr>78</ns3:hr>
          </ns3:TrackPointExtension>
        </extensions>
      </trkpt>
      <trkpt lat="36.80985909886658191680908203125" lon="-118.4167551063001155853271484375">
        <ele>3358</ele>
        <time>2021-06-26T15:56:03.000Z</time>
        <extensions>
          <ns3:TrackPointExtension>
            <ns3:atemp>26.0</ns3:atemp>
            <ns3:hr>77</ns3:hr>
          </ns3:TrackPointExtension>
        </extensions>
      </trkpt>
      <trkpt lat="36.8098648823797702789306640625" lon="-118.4167641587555408477783203125">
        <ele>3357.800048828125</ele>
        <time>2021-06-26T15:56:04.000Z</time>
        <extensions>
          <ns3:TrackPointExtension>
            <ns3:atemp>26.0</ns3:atemp>
            <ns3:hr>77</ns3:hr>
          </ns3:TrackPointExtension>
        </extensions>
      </trkpt>
      <trkpt lat="36.80987142026424407958984375" lon="-118.41676088981330394744873046875">
        <ele>3357</ele>
        <time>2021-06-26T15:56:07.000Z</time>
        <extensions>
          <ns3:TrackPointExtension>
            <ns3:atemp>26.0</ns3:atemp>
            <ns3:hr>78</ns3:hr>
          </ns3:TrackPointExtension>
        </extensions>
      </trkpt>
      <trkpt lat="36.8098719231784343719482421875" lon="-118.416758291423320770263671875">
        <ele>3356.800048828125</ele>
        <time>2021-06-26T15:56:09.000Z</time>
        <extensions>
          <ns3:TrackPointExtension>
            <ns3:atemp>26.0</ns3:atemp>
            <ns3:hr>77</ns3:hr>
          </ns3:TrackPointExtension>
        </extensions>
      </trkpt>
      <trkpt lat="36.8098551593720912933349609375" lon="-118.4167611412703990936279296875">
        <ele>3356</ele>
        <time>2021-06-26T15:56:13.000Z</time>
        <extensions>
          <ns3:TrackPointExtension>
            <ns3:atemp>26.0</ns3:atemp>
            <ns3:hr>78</ns3:hr>
          </ns3:TrackPointExtension>
        </extensions>
      </trkpt>
      <trkpt lat="36.80984317325055599212646484375" lon="-118.41676558367908000946044921875">
        <ele>3355.60009765625</ele>
        <time>2021-06-26T15:56:16.000Z</time>
        <extensions>
          <ns3:TrackPointExtension>
            <ns3:atemp>26.0</ns3:atemp>
            <ns3:hr>77</ns3:hr>
          </ns3:TrackPointExtension>
        </extensions>
      </trkpt>
      <trkpt lat="36.80983521044254302978515625" lon="-118.41679123230278491973876953125">
        <ele>3354.800048828125</ele>
        <time>2021-06-26T15:56:19.000Z</time>
        <extensions>
          <ns3:TrackPointExtension>
            <ns3:atemp>26.0</ns3:atemp>
            <ns3:hr>79</ns3:hr>
          </ns3:TrackPointExtension>
        </extensions>
      </trkpt>
      <trkpt lat="36.80984434671700000762939453125" lon="-118.41681738384068012237548828125">
        <ele>3354.199951171875</ele>
        <time>2021-06-26T15:56:23.000Z</time>
        <extensions>
          <ns3:TrackPointExtension>
            <ns3:atemp>26.0</ns3:atemp>
            <ns3:hr>76</ns3:hr>
          </ns3:TrackPointExtension>
        </extensions>
      </trkpt>
      <trkpt lat="36.80985004641115665435791015625" lon="-118.4168208204209804534912109375">
        <ele>3353.800048828125</ele>
        <time>2021-06-26T15:56:24.000Z</time>
        <extensions>
          <ns3:TrackPointExtension>
            <ns3:atemp>26.0</ns3:atemp>
            <ns3:hr>74</ns3:hr>
          </ns3:TrackPointExtension>
        </extensions>
      </trkpt>
      <trkpt lat="36.80986312218010425567626953125" lon="-118.416833393275737762451171875">
        <ele>3353.39990234375</ele>
        <time>2021-06-26T15:56:26.000Z</time>
        <extensions>
          <ns3:TrackPointExtension>
            <ns3:atemp>26.0</ns3:atemp>
            <ns3:hr>71</ns3:hr>
          </ns3:TrackPointExtension>
        </extensions>
      </trkpt>
      <trkpt lat="36.80986798368394374847412109375" lon="-118.41684185899794101715087890625">
        <ele>3353.39990234375</ele>
        <time>2021-06-26T15:56:27.000Z</time>
        <extensions>
          <ns3:TrackPointExtension>
            <ns3:atemp>26.0</ns3:atemp>
            <ns3:hr>74</ns3:hr>
          </ns3:TrackPointExtension>
        </extensions>
      </trkpt>
      <trkpt lat="36.8098930455744266510009765625" lon="-118.416874967515468597412109375">
        <ele>3352.60009765625</ele>
        <time>2021-06-26T15:56:31.000Z</time>
        <extensions>
          <ns3:TrackPointExtension>
            <ns3:atemp>26.0</ns3:atemp>
            <ns3:hr>74</ns3:hr>
          </ns3:TrackPointExtension>
        </extensions>
      </trkpt>
      <trkpt lat="36.80990159511566162109375" lon="-118.41688209213316440582275390625">
        <ele>3352.60009765625</ele>
        <time>2021-06-26T15:56:32.000Z</time>
        <extensions>
          <ns3:TrackPointExtension>
            <ns3:atemp>26.0</ns3:atemp>
            <ns3:hr>74</ns3:hr>
          </ns3:TrackPointExtension>
        </extensions>
      </trkpt>
      <trkpt lat="36.80990553461015224456787109375" lon="-118.41689047403633594512939453125">
        <ele>3352.199951171875</ele>
        <time>2021-06-26T15:56:33.000Z</time>
        <extensions>
          <ns3:TrackPointExtension>
            <ns3:atemp>26.0</ns3:atemp>
            <ns3:hr>71</ns3:hr>
          </ns3:TrackPointExtension>
        </extensions>
      </trkpt>
      <trkpt lat="36.8099326081573963165283203125" lon="-118.41693456284701824188232421875">
        <ele>3351.39990234375</ele>
        <time>2021-06-26T15:56:38.000Z</time>
        <extensions>
          <ns3:TrackPointExtension>
            <ns3:atemp>26.0</ns3:atemp>
            <ns3:hr>73</ns3:hr>
          </ns3:TrackPointExtension>
        </extensions>
      </trkpt>
      <trkpt lat="36.8099644593894481658935546875" lon="-118.41698820702731609344482421875">
        <ele>3350</ele>
        <time>2021-06-26T15:56:44.000Z</time>
        <extensions>
          <ns3:TrackPointExtension>
            <ns3:atemp>26.0</ns3:atemp>
            <ns3:hr>75</ns3:hr>
          </ns3:TrackPointExtension>
        </extensions>
      </trkpt>
      <trkpt lat="36.80997258983552455902099609375" lon="-118.41700245626270771026611328125">
        <ele>3350</ele>
        <time>2021-06-26T15:56:46.000Z</time>
        <extensions>
          <ns3:TrackPointExtension>
            <ns3:atemp>26.0</ns3:atemp>
            <ns3:hr>72</ns3:hr>
          </ns3:TrackPointExtension>
        </extensions>
      </trkpt>
      <trkpt lat="36.809983737766742706298828125" lon="-118.41702877543866634368896484375">
        <ele>3349.39990234375</ele>
        <time>2021-06-26T15:56:50.000Z</time>
        <extensions>
          <ns3:TrackPointExtension>
            <ns3:atemp>26.0</ns3:atemp>
            <ns3:hr>70</ns3:hr>
          </ns3:TrackPointExtension>
        </extensions>
      </trkpt>
      <trkpt lat="36.80998675525188446044921875" lon="-118.41706045903265476226806640625">
        <ele>3348.800048828125</ele>
        <time>2021-06-26T15:56:53.000Z</time>
        <extensions>
          <ns3:TrackPointExtension>
            <ns3:atemp>26.0</ns3:atemp>
            <ns3:hr>69</ns3:hr>
          </ns3:TrackPointExtension>
        </extensions>
      </trkpt>
      <trkpt lat="36.81001014076173305511474609375" lon="-118.41712332330644130706787109375">
        <ele>3347.800048828125</ele>
        <time>2021-06-26T15:56:58.000Z</time>
        <extensions>
          <ns3:TrackPointExtension>
            <ns3:atemp>26.0</ns3:atemp>
            <ns3:hr>68</ns3:hr>
          </ns3:TrackPointExtension>
        </extensions>
      </trkpt>
      <trkpt lat="36.81001315824687480926513671875" lon="-118.41712952591478824615478515625">
        <ele>3347.60009765625</ele>
        <time>2021-06-26T15:56:59.000Z</time>
        <extensions>
          <ns3:TrackPointExtension>
            <ns3:atemp>26.0</ns3:atemp>
            <ns3:hr>70</ns3:hr>
          </ns3:TrackPointExtension>
        </extensions>
      </trkpt>
      <trkpt lat="36.8100643716752529144287109375" lon="-118.4172187931835651397705078125">
        <ele>3347</ele>
        <time>2021-06-26T15:57:08.000Z</time>
        <extensions>
          <ns3:TrackPointExtension>
            <ns3:atemp>26.0</ns3:atemp>
            <ns3:hr>67</ns3:hr>
          </ns3:TrackPointExtension>
        </extensions>
      </trkpt>
      <trkpt lat="36.81007786653935909271240234375" lon="-118.4172586910426616668701171875">
        <ele>3346.60009765625</ele>
        <time>2021-06-26T15:57:11.000Z</time>
        <extensions>
          <ns3:TrackPointExtension>
            <ns3:atemp>26.0</ns3:atemp>
            <ns3:hr>68</ns3:hr>
          </ns3:TrackPointExtension>
        </extensions>
      </trkpt>
      <trkpt lat="36.81010745465755462646484375" lon="-118.417274951934814453125">
        <ele>3346</ele>
        <time>2021-06-26T15:57:15.000Z</time>
        <extensions>
          <ns3:TrackPointExtension>
            <ns3:atemp>26.0</ns3:atemp>
            <ns3:hr>67</ns3:hr>
          </ns3:TrackPointExtension>
        </extensions>
      </trkpt>
      <trkpt lat="36.8101069517433643341064453125" lon="-118.41728040017187595367431640625">
        <ele>3346</ele>
        <time>2021-06-26T15:57:16.000Z</time>
        <extensions>
          <ns3:TrackPointExtension>
            <ns3:atemp>26.0</ns3:atemp>
            <ns3:hr>67</ns3:hr>
          </ns3:TrackPointExtension>
        </extensions>
      </trkpt>
      <trkpt lat="36.81010770611464977264404296875" lon="-118.4172804839909076690673828125">
        <ele>3345.800048828125</ele>
        <time>2021-06-26T15:57:18.000Z</time>
        <extensions>
          <ns3:TrackPointExtension>
            <ns3:atemp>26.0</ns3:atemp>
            <ns3:hr>63</ns3:hr>
          </ns3:TrackPointExtension>
        </extensions>
      </trkpt>
      <trkpt lat="36.81010938249528408050537109375" lon="-118.4172771312296390533447265625">
        <ele>3345.800048828125</ele>
        <time>2021-06-26T15:57:19.000Z</time>
        <extensions>
          <ns3:TrackPointExtension>
            <ns3:atemp>26.0</ns3:atemp>
            <ns3:hr>66</ns3:hr>
          </ns3:TrackPointExtension>
        </extensions>
      </trkpt>
      <trkpt lat="36.81011491455137729644775390625" lon="-118.41726866550743579864501953125">
        <ele>3345.800048828125</ele>
        <time>2021-06-26T15:57:22.000Z</time>
        <extensions>
          <ns3:TrackPointExtension>
            <ns3:atemp>26.0</ns3:atemp>
            <ns3:hr>70</ns3:hr>
          </ns3:TrackPointExtension>
        </extensions>
      </trkpt>
      <trkpt lat="36.8101196922361850738525390625" lon="-118.417261205613613128662109375">
        <ele>3345.800048828125</ele>
        <time>2021-06-26T15:57:24.000Z</time>
        <extensions>
          <ns3:TrackPointExtension>
            <ns3:atemp>26.0</ns3:atemp>
            <ns3:hr>74</ns3:hr>
          </ns3:TrackPointExtension>
        </extensions>
      </trkpt>
      <trkpt lat="36.81012664921581745147705078125" lon="-118.41725726611912250518798828125">
        <ele>3345.60009765625</ele>
        <time>2021-06-26T15:57:25.000Z</time>
        <extensions>
          <ns3:TrackPointExtension>
            <ns3:atemp>26.0</ns3:atemp>
            <ns3:hr>77</ns3:hr>
          </ns3:TrackPointExtension>
        </extensions>
      </trkpt>
      <trkpt lat="36.8101341091096401214599609375" lon="-118.417256511747837066650390625">
        <ele>3345.60009765625</ele>
        <time>2021-06-26T15:57:27.000Z</time>
        <extensions>
          <ns3:TrackPointExtension>
            <ns3:atemp>26.0</ns3:atemp>
            <ns3:hr>80</ns3:hr>
          </ns3:TrackPointExtension>
        </extensions>
      </trkpt>
      <trkpt lat="36.81013385765254497528076171875" lon="-118.41726078651845455169677734375">
        <ele>3345.39990234375</ele>
        <time>2021-06-26T15:57:28.000Z</time>
        <extensions>
          <ns3:TrackPointExtension>
            <ns3:atemp>26.0</ns3:atemp>
            <ns3:hr>81</ns3:hr>
          </ns3:TrackPointExtension>
        </extensions>
      </trkpt>
      <trkpt lat="36.81013972498476505279541015625" lon="-118.41726045124232769012451171875">
        <ele>3345.199951171875</ele>
        <time>2021-06-26T15:57:30.000Z</time>
        <extensions>
          <ns3:TrackPointExtension>
            <ns3:atemp>26.0</ns3:atemp>
            <ns3:hr>81</ns3:hr>
          </ns3:TrackPointExtension>
        </extensions>
      </trkpt>
      <trkpt lat="36.81012949906289577484130859375" lon="-118.4172482974827289581298828125">
        <ele>3345.39990234375</ele>
        <time>2021-06-26T15:57:43.000Z</time>
        <extensions>
          <ns3:TrackPointExtension>
            <ns3:atemp>26.0</ns3:atemp>
            <ns3:hr>78</ns3:hr>
          </ns3:TrackPointExtension>
        </extensions>
      </trkpt>
      <trkpt lat="36.810137964785099029541015625" lon="-118.41726950369775295257568359375">
        <ele>3345.39990234375</ele>
        <time>2021-06-26T15:57:50.000Z</time>
        <extensions>
          <ns3:TrackPointExtension>
            <ns3:atemp>25.0</ns3:atemp>
            <ns3:hr>78</ns3:hr>
          </ns3:TrackPointExtension>
        </extensions>
      </trkpt>
      <trkpt lat="36.8101391382515430450439453125" lon="-118.4172741137444972991943359375">
        <ele>3345.39990234375</ele>
        <time>2021-06-26T15:57:51.000Z</time>
        <extensions>
          <ns3:TrackPointExtension>
            <ns3:atemp>25.0</ns3:atemp>
            <ns3:hr>83</ns3:hr>
          </ns3:TrackPointExtension>
        </extensions>
      </trkpt>
      <trkpt lat="36.81014223955571651458740234375" lon="-118.417277969419956207275390625">
        <ele>3345.199951171875</ele>
        <time>2021-06-26T15:57:59.000Z</time>
        <extensions>
          <ns3:TrackPointExtension>
            <ns3:atemp>25.0</ns3:atemp>
            <ns3:hr>83</ns3:hr>
          </ns3:TrackPointExtension>
        </extensions>
      </trkpt>
      <trkpt lat="36.81015112437307834625244140625" lon="-118.4172709286212921142578125">
        <ele>3345.39990234375</ele>
        <time>2021-06-26T15:58:10.000Z</time>
        <extensions>
          <ns3:TrackPointExtension>
            <ns3:atemp>25.0</ns3:atemp>
            <ns3:hr>80</ns3:hr>
          </ns3:TrackPointExtension>
        </extensions>
      </trkpt>
      <trkpt lat="36.8101609311997890472412109375" lon="-118.417257852852344512939453125">
        <ele>3344.60009765625</ele>
        <time>2021-06-26T15:58:18.000Z</time>
        <extensions>
          <ns3:TrackPointExtension>
            <ns3:atemp>25.0</ns3:atemp>
            <ns3:hr>77</ns3:hr>
          </ns3:TrackPointExtension>
        </extensions>
      </trkpt>
      <trkpt lat="36.81016151793301105499267578125" lon="-118.417257852852344512939453125">
        <ele>3344.39990234375</ele>
        <time>2021-06-26T15:58:19.000Z</time>
        <extensions>
          <ns3:TrackPointExtension>
            <ns3:atemp>25.0</ns3:atemp>
            <ns3:hr>79</ns3:hr>
          </ns3:TrackPointExtension>
        </extensions>
      </trkpt>
      <trkpt lat="36.8101890943944454193115234375" lon="-118.41731183230876922607421875">
        <ele>3343.800048828125</ele>
        <time>2021-06-26T15:58:28.000Z</time>
        <extensions>
          <ns3:TrackPointExtension>
            <ns3:atemp>25.0</ns3:atemp>
            <ns3:hr>78</ns3:hr>
          </ns3:TrackPointExtension>
        </extensions>
      </trkpt>
      <trkpt lat="36.810199655592441558837890625" lon="-118.41734946705400943756103515625">
        <ele>3343.60009765625</ele>
        <time>2021-06-26T15:58:30.000Z</time>
        <extensions>
          <ns3:TrackPointExtension>
            <ns3:atemp>25.0</ns3:atemp>
            <ns3:hr>81</ns3:hr>
          </ns3:TrackPointExtension>
        </extensions>
      </trkpt>
      <trkpt lat="36.8102356977760791778564453125" lon="-118.4174434281885623931884765625">
        <ele>3343.39990234375</ele>
        <time>2021-06-26T15:58:35.000Z</time>
        <extensions>
          <ns3:TrackPointExtension>
            <ns3:atemp>25.0</ns3:atemp>
            <ns3:hr>80</ns3:hr>
          </ns3:TrackPointExtension>
        </extensions>
      </trkpt>
      <trkpt lat="36.81023930199444293975830078125" lon="-118.41745206154882907867431640625">
        <ele>3343</ele>
        <time>2021-06-26T15:58:36.000Z</time>
        <extensions>
          <ns3:TrackPointExtension>
            <ns3:atemp>25.0</ns3:atemp>
            <ns3:hr>79</ns3:hr>
          </ns3:TrackPointExtension>
        </extensions>
      </trkpt>
      <trkpt lat="36.810249947011470794677734375" lon="-118.41746295802295207977294921875">
        <ele>3342.800048828125</ele>
        <time>2021-06-26T15:58:38.000Z</time>
        <extensions>
          <ns3:TrackPointExtension>
            <ns3:atemp>25.0</ns3:atemp>
            <ns3:hr>78</ns3:hr>
          </ns3:TrackPointExtension>
        </extensions>
      </trkpt>
      <trkpt lat="36.81027534417808055877685546875" lon="-118.41751107014715671539306640625">
        <ele>3342.199951171875</ele>
        <time>2021-06-26T15:58:44.000Z</time>
        <extensions>
          <ns3:TrackPointExtension>
            <ns3:atemp>25.0</ns3:atemp>
            <ns3:hr>80</ns3:hr>
          </ns3:TrackPointExtension>
        </extensions>
      </trkpt>
      <trkpt lat="36.81028322316706180572509765625" lon="-118.417519368231296539306640625">
        <ele>3341.800048828125</ele>
        <time>2021-06-26T15:58:45.000Z</time>
        <extensions>
          <ns3:TrackPointExtension>
            <ns3:atemp>25.0</ns3:atemp>
            <ns3:hr>82</ns3:hr>
          </ns3:TrackPointExtension>
        </extensions>
      </trkpt>
      <trkpt lat="36.81029252707958221435546875" lon="-118.4175242297351360321044921875">
        <ele>3341.60009765625</ele>
        <time>2021-06-26T15:58:46.000Z</time>
        <extensions>
          <ns3:TrackPointExtension>
            <ns3:atemp>25.0</ns3:atemp>
            <ns3:hr>83</ns3:hr>
          </ns3:TrackPointExtension>
        </extensions>
      </trkpt>
      <trkpt lat="36.81031507439911365509033203125" lon="-118.41754124499857425689697265625">
        <ele>3341.199951171875</ele>
        <time>2021-06-26T15:58:50.000Z</time>
        <extensions>
          <ns3:TrackPointExtension>
            <ns3:atemp>25.0</ns3:atemp>
            <ns3:hr>85</ns3:hr>
          </ns3:TrackPointExtension>
        </extensions>
      </trkpt>
      <trkpt lat="36.81033234111964702606201171875" lon="-118.41755499131977558135986328125">
        <ele>3340.800048828125</ele>
        <time>2021-06-26T15:58:52.000Z</time>
        <extensions>
          <ns3:TrackPointExtension>
            <ns3:atemp>25.0</ns3:atemp>
            <ns3:hr>85</ns3:hr>
          </ns3:TrackPointExtension>
        </extensions>
      </trkpt>
      <trkpt lat="36.81035329587757587432861328125" lon="-118.41757812537252902984619140625">
        <ele>3340.39990234375</ele>
        <time>2021-06-26T15:58:56.000Z</time>
        <extensions>
          <ns3:TrackPointExtension>
            <ns3:atemp>25.0</ns3:atemp>
            <ns3:hr>82</ns3:hr>
          </ns3:TrackPointExtension>
        </extensions>
      </trkpt>
      <trkpt lat="36.81036033667623996734619140625" lon="-118.41758432798087596893310546875">
        <ele>3340.39990234375</ele>
        <time>2021-06-26T15:58:57.000Z</time>
        <extensions>
          <ns3:TrackPointExtension>
            <ns3:atemp>25.0</ns3:atemp>
            <ns3:hr>83</ns3:hr>
          </ns3:TrackPointExtension>
        </extensions>
      </trkpt>
      <trkpt lat="36.81037793867290019989013671875" lon="-118.417618609964847564697265625">
        <ele>3339.60009765625</ele>
        <time>2021-06-26T15:59:01.000Z</time>
        <extensions>
          <ns3:TrackPointExtension>
            <ns3:atemp>25.0</ns3:atemp>
            <ns3:hr>83</ns3:hr>
          </ns3:TrackPointExtension>
        </extensions>
      </trkpt>
      <trkpt lat="36.81039939634501934051513671875" lon="-118.41763394884765148162841796875">
        <ele>3339.199951171875</ele>
        <time>2021-06-26T15:59:04.000Z</time>
        <extensions>
          <ns3:TrackPointExtension>
            <ns3:atemp>25.0</ns3:atemp>
            <ns3:hr>86</ns3:hr>
          </ns3:TrackPointExtension>
        </extensions>
      </trkpt>
      <trkpt lat="36.8104125559329986572265625" lon="-118.4176496230065822601318359375">
        <ele>3338.800048828125</ele>
        <time>2021-06-26T15:59:06.000Z</time>
        <extensions>
          <ns3:TrackPointExtension>
            <ns3:atemp>25.0</ns3:atemp>
            <ns3:hr>88</ns3:hr>
          </ns3:TrackPointExtension>
        </extensions>
      </trkpt>
      <trkpt lat="36.8104227818548679351806640625" lon="-118.41766730882227420806884765625">
        <ele>3338.60009765625</ele>
        <time>2021-06-26T15:59:08.000Z</time>
        <extensions>
          <ns3:TrackPointExtension>
            <ns3:atemp>25.0</ns3:atemp>
            <ns3:hr>86</ns3:hr>
          </ns3:TrackPointExtension>
        </extensions>
      </trkpt>
      <trkpt lat="36.81044214405119419097900390625" lon="-118.4176918677985668182373046875">
        <ele>3337.800048828125</ele>
        <time>2021-06-26T15:59:11.000Z</time>
        <extensions>
          <ns3:TrackPointExtension>
            <ns3:atemp>25.0</ns3:atemp>
            <ns3:hr>86</ns3:hr>
          </ns3:TrackPointExtension>
        </extensions>
      </trkpt>
      <trkpt lat="36.81045706383883953094482421875" lon="-118.41772581450641155242919921875">
        <ele>3337.800048828125</ele>
        <time>2021-06-26T15:59:14.000Z</time>
        <extensions>
          <ns3:TrackPointExtension>
            <ns3:atemp>25.0</ns3:atemp>
            <ns3:hr>82</ns3:hr>
          </ns3:TrackPointExtension>
        </extensions>
      </trkpt>
      <trkpt lat="36.81046494282782077789306640625" lon="-118.4177351184189319610595703125">
        <ele>3337.800048828125</ele>
        <time>2021-06-26T15:59:15.000Z</time>
        <extensions>
          <ns3:TrackPointExtension>
            <ns3:atemp>25.0</ns3:atemp>
            <ns3:hr>87</ns3:hr>
          </ns3:TrackPointExtension>
        </extensions>
      </trkpt>
      <trkpt lat="36.8104734085500240325927734375" lon="-118.41774391941726207733154296875">
        <ele>3337.800048828125</ele>
        <time>2021-06-26T15:59:16.000Z</time>
        <extensions>
          <ns3:TrackPointExtension>
            <ns3:atemp>25.0</ns3:atemp>
            <ns3:hr>88</ns3:hr>
          </ns3:TrackPointExtension>
        </extensions>
      </trkpt>
      <trkpt lat="36.8104868195950984954833984375" lon="-118.41777375899255275726318359375">
        <ele>3337.800048828125</ele>
        <time>2021-06-26T15:59:19.000Z</time>
        <extensions>
          <ns3:TrackPointExtension>
            <ns3:atemp>25.0</ns3:atemp>
            <ns3:hr>89</ns3:hr>
          </ns3:TrackPointExtension>
        </extensions>
      </trkpt>
      <trkpt lat="36.810494363307952880859375" lon="-118.417791612446308135986328125">
        <ele>3337.60009765625</ele>
        <time>2021-06-26T15:59:21.000Z</time>
        <extensions>
          <ns3:TrackPointExtension>
            <ns3:atemp>25.0</ns3:atemp>
            <ns3:hr>86</ns3:hr>
          </ns3:TrackPointExtension>
        </extensions>
      </trkpt>
      <trkpt lat="36.8104978837072849273681640625" lon="-118.417801000177860260009765625">
        <ele>3337.800048828125</ele>
        <time>2021-06-26T15:59:22.000Z</time>
        <extensions>
          <ns3:TrackPointExtension>
            <ns3:atemp>25.0</ns3:atemp>
            <ns3:hr>89</ns3:hr>
          </ns3:TrackPointExtension>
        </extensions>
      </trkpt>
      <trkpt lat="36.8105052597820758819580078125" lon="-118.4178232960402965545654296875">
        <ele>3337.60009765625</ele>
        <time>2021-06-26T15:59:24.000Z</time>
        <extensions>
          <ns3:TrackPointExtension>
            <ns3:atemp>25.0</ns3:atemp>
            <ns3:hr>84</ns3:hr>
          </ns3:TrackPointExtension>
        </extensions>
      </trkpt>
      <trkpt lat="36.8105089478194713592529296875" lon="-118.417834527790546417236328125">
        <ele>3337.39990234375</ele>
        <time>2021-06-26T15:59:25.000Z</time>
        <extensions>
          <ns3:TrackPointExtension>
            <ns3:atemp>25.0</ns3:atemp>
            <ns3:hr>84</ns3:hr>
          </ns3:TrackPointExtension>
        </extensions>
      </trkpt>
      <trkpt lat="36.8105374462902545928955078125" lon="-118.417878113687038421630859375">
        <ele>3336.39990234375</ele>
        <time>2021-06-26T15:59:30.000Z</time>
        <extensions>
          <ns3:TrackPointExtension>
            <ns3:atemp>25.0</ns3:atemp>
            <ns3:hr>84</ns3:hr>
          </ns3:TrackPointExtension>
        </extensions>
      </trkpt>
      <trkpt lat="36.81054105050861835479736328125" lon="-118.41788875870406627655029296875">
        <ele>3336.39990234375</ele>
        <time>2021-06-26T15:59:31.000Z</time>
        <extensions>
          <ns3:TrackPointExtension>
            <ns3:atemp>25.0</ns3:atemp>
            <ns3:hr>87</ns3:hr>
          </ns3:TrackPointExtension>
        </extensions>
      </trkpt>
      <trkpt lat="36.81054457090795040130615234375" lon="-118.41789328493177890777587890625">
        <ele>3336</ele>
        <time>2021-06-26T15:59:32.000Z</time>
        <extensions>
          <ns3:TrackPointExtension>
            <ns3:atemp>25.0</ns3:atemp>
            <ns3:hr>83</ns3:hr>
          </ns3:TrackPointExtension>
        </extensions>
      </trkpt>
      <trkpt lat="36.81054809130728244781494140625" lon="-118.41791658662259578704833984375">
        <ele>3335.60009765625</ele>
        <time>2021-06-26T15:59:34.000Z</time>
        <extensions>
          <ns3:TrackPointExtension>
            <ns3:atemp>25.0</ns3:atemp>
            <ns3:hr>79</ns3:hr>
          </ns3:TrackPointExtension>
        </extensions>
      </trkpt>
      <trkpt lat="36.81055211462080478668212890625" lon="-118.417946510016918182373046875">
        <ele>3335.60009765625</ele>
        <time>2021-06-26T15:59:36.000Z</time>
        <extensions>
          <ns3:TrackPointExtension>
            <ns3:atemp>25.0</ns3:atemp>
            <ns3:hr>76</ns3:hr>
          </ns3:TrackPointExtension>
        </extensions>
      </trkpt>
      <trkpt lat="36.8105609156191349029541015625" lon="-118.41797207482159137725830078125">
        <ele>3335.800048828125</ele>
        <time>2021-06-26T15:59:38.000Z</time>
        <extensions>
          <ns3:TrackPointExtension>
            <ns3:atemp>25.0</ns3:atemp>
            <ns3:hr>79</ns3:hr>
          </ns3:TrackPointExtension>
        </extensions>
      </trkpt>
      <trkpt lat="36.8105676211416721343994140625" lon="-118.41798246838152408599853515625">
        <ele>3335.800048828125</ele>
        <time>2021-06-26T15:59:39.000Z</time>
        <extensions>
          <ns3:TrackPointExtension>
            <ns3:atemp>25.0</ns3:atemp>
            <ns3:hr>79</ns3:hr>
          </ns3:TrackPointExtension>
        </extensions>
      </trkpt>
      <trkpt lat="36.8106195889413356781005859375" lon="-118.41803736984729766845703125">
        <ele>3336.199951171875</ele>
        <time>2021-06-26T15:59:46.000Z</time>
        <extensions>
          <ns3:TrackPointExtension>
            <ns3:atemp>25.0</ns3:atemp>
            <ns3:hr>79</ns3:hr>
          </ns3:TrackPointExtension>
        </extensions>
      </trkpt>
      <trkpt lat="36.81065688841044902801513671875" lon="-118.41810182668268680572509765625">
        <ele>3337</ele>
        <time>2021-06-26T15:59:52.000Z</time>
        <extensions>
          <ns3:TrackPointExtension>
            <ns3:atemp>25.0</ns3:atemp>
            <ns3:hr>82</ns3:hr>
          </ns3:TrackPointExtension>
        </extensions>
      </trkpt>
      <trkpt lat="36.81066459976136684417724609375" lon="-118.4181116335093975067138671875">
        <ele>3337.39990234375</ele>
        <time>2021-06-26T15:59:53.000Z</time>
        <extensions>
          <ns3:TrackPointExtension>
            <ns3:atemp>25.0</ns3:atemp>
            <ns3:hr>80</ns3:hr>
          </ns3:TrackPointExtension>
        </extensions>
      </trkpt>
      <trkpt lat="36.81072830222547054290771484375" lon="-118.41815547086298465728759765625">
        <ele>3337.199951171875</ele>
        <time>2021-06-26T16:00:00.000Z</time>
        <extensions>
          <ns3:TrackPointExtension>
            <ns3:atemp>25.0</ns3:atemp>
            <ns3:hr>83</ns3:hr>
          </ns3:TrackPointExtension>
        </extensions>
      </trkpt>
      <trkpt lat="36.810754872858524322509765625" lon="-118.418188579380512237548828125">
        <ele>3337.199951171875</ele>
        <time>2021-06-26T16:00:03.000Z</time>
        <extensions>
          <ns3:TrackPointExtension>
            <ns3:atemp>25.0</ns3:atemp>
            <ns3:hr>82</ns3:hr>
          </ns3:TrackPointExtension>
        </extensions>
      </trkpt>
      <trkpt lat="36.810807175934314727783203125" lon="-118.418275080621242523193359375">
        <ele>3337.199951171875</ele>
        <time>2021-06-26T16:00:11.000Z</time>
        <extensions>
          <ns3:TrackPointExtension>
            <ns3:atemp>25.0</ns3:atemp>
            <ns3:hr>85</ns3:hr>
          </ns3:TrackPointExtension>
        </extensions>
      </trkpt>
      <trkpt lat="36.81085134856402873992919921875" lon="-118.4183379448950290679931640625">
        <ele>3337</ele>
        <time>2021-06-26T16:00:18.000Z</time>
        <extensions>
          <ns3:TrackPointExtension>
            <ns3:atemp>25.0</ns3:atemp>
            <ns3:hr>87</ns3:hr>
          </ns3:TrackPointExtension>
        </extensions>
      </trkpt>
      <trkpt lat="36.81085336022078990936279296875" lon="-118.418346159160137176513671875">
        <ele>3337</ele>
        <time>2021-06-26T16:00:19.000Z</time>
        <extensions>
          <ns3:TrackPointExtension>
            <ns3:atemp>25.0</ns3:atemp>
            <ns3:hr>86</ns3:hr>
          </ns3:TrackPointExtension>
        </extensions>
      </trkpt>
      <trkpt lat="36.81086249649524688720703125" lon="-118.41836954466998577117919921875">
        <ele>3337</ele>
        <time>2021-06-26T16:00:21.000Z</time>
        <extensions>
          <ns3:TrackPointExtension>
            <ns3:atemp>25.0</ns3:atemp>
            <ns3:hr>89</ns3:hr>
          </ns3:TrackPointExtension>
        </extensions>
      </trkpt>
      <trkpt lat="36.81086978875100612640380859375" lon="-118.41837557964026927947998046875">
        <ele>3337</ele>
        <time>2021-06-26T16:00:22.000Z</time>
        <extensions>
          <ns3:TrackPointExtension>
            <ns3:atemp>25.0</ns3:atemp>
            <ns3:hr>86</ns3:hr>
          </ns3:TrackPointExtension>
        </extensions>
      </trkpt>
      <trkpt lat="36.8108784221112728118896484375" lon="-118.418384380638599395751953125">
        <ele>3336.199951171875</ele>
        <time>2021-06-26T16:00:23.000Z</time>
        <extensions>
          <ns3:TrackPointExtension>
            <ns3:atemp>25.0</ns3:atemp>
            <ns3:hr>86</ns3:hr>
          </ns3:TrackPointExtension>
        </extensions>
      </trkpt>
      <trkpt lat="36.81095746345818042755126953125" lon="-118.41848655603826045989990234375">
        <ele>3335.800048828125</ele>
        <time>2021-06-26T16:00:35.000Z</time>
        <extensions>
          <ns3:TrackPointExtension>
            <ns3:atemp>25.0</ns3:atemp>
            <ns3:hr>90</ns3:hr>
          </ns3:TrackPointExtension>
        </extensions>
      </trkpt>
      <trkpt lat="36.8109650909900665283203125" lon="-118.41849409975111484527587890625">
        <ele>3335.60009765625</ele>
        <time>2021-06-26T16:00:36.000Z</time>
        <extensions>
          <ns3:TrackPointExtension>
            <ns3:atemp>25.0</ns3:atemp>
            <ns3:hr>87</ns3:hr>
          </ns3:TrackPointExtension>
        </extensions>
      </trkpt>
      <trkpt lat="36.81099526584148406982421875" lon="-118.41855092905461788177490234375">
        <ele>3335.60009765625</ele>
        <time>2021-06-26T16:00:41.000Z</time>
        <extensions>
          <ns3:TrackPointExtension>
            <ns3:atemp>25.0</ns3:atemp>
            <ns3:hr>84</ns3:hr>
          </ns3:TrackPointExtension>
        </extensions>
      </trkpt>
      <trkpt lat="36.81101663969457149505615234375" lon="-118.41857171617448329925537109375">
        <ele>3335.199951171875</ele>
        <time>2021-06-26T16:00:44.000Z</time>
        <extensions>
          <ns3:TrackPointExtension>
            <ns3:atemp>25.0</ns3:atemp>
            <ns3:hr>86</ns3:hr>
          </ns3:TrackPointExtension>
        </extensions>
      </trkpt>
      <trkpt lat="36.81103742681443691253662109375" lon="-118.4185873903334140777587890625">
        <ele>3335</ele>
        <time>2021-06-26T16:00:47.000Z</time>
        <extensions>
          <ns3:TrackPointExtension>
            <ns3:atemp>25.0</ns3:atemp>
            <ns3:hr>84</ns3:hr>
          </ns3:TrackPointExtension>
        </extensions>
      </trkpt>
      <trkpt lat="36.81105972267687320709228515625" lon="-118.41861865483224391937255859375">
        <ele>3334.800048828125</ele>
        <time>2021-06-26T16:00:50.000Z</time>
        <extensions>
          <ns3:TrackPointExtension>
            <ns3:atemp>25.0</ns3:atemp>
            <ns3:hr>81</ns3:hr>
          </ns3:TrackPointExtension>
        </extensions>
      </trkpt>
      <trkpt lat="36.81107975542545318603515625" lon="-118.41863893903791904449462890625">
        <ele>3334.199951171875</ele>
        <time>2021-06-26T16:00:53.000Z</time>
        <extensions>
          <ns3:TrackPointExtension>
            <ns3:atemp>25.0</ns3:atemp>
            <ns3:hr>79</ns3:hr>
          </ns3:TrackPointExtension>
        </extensions>
      </trkpt>
      <trkpt lat="36.811102218925952911376953125" lon="-118.418671377003192901611328125">
        <ele>3333.800048828125</ele>
        <time>2021-06-26T16:00:57.000Z</time>
        <extensions>
          <ns3:TrackPointExtension>
            <ns3:atemp>25.0</ns3:atemp>
            <ns3:hr>80</ns3:hr>
          </ns3:TrackPointExtension>
        </extensions>
      </trkpt>
      <trkpt lat="36.81110523641109466552734375" lon="-118.418670706450939178466796875">
        <ele>3333.39990234375</ele>
        <time>2021-06-26T16:01:00.000Z</time>
        <extensions>
          <ns3:TrackPointExtension>
            <ns3:atemp>25.0</ns3:atemp>
            <ns3:hr>78</ns3:hr>
          </ns3:TrackPointExtension>
        </extensions>
      </trkpt>
      <trkpt lat="36.8111043982207775115966796875" lon="-118.418667353689670562744140625">
        <ele>3333.60009765625</ele>
        <time>2021-06-26T16:01:03.000Z</time>
        <extensions>
          <ns3:TrackPointExtension>
            <ns3:atemp>25.0</ns3:atemp>
            <ns3:hr>79</ns3:hr>
          </ns3:TrackPointExtension>
        </extensions>
      </trkpt>
      <trkpt lat="36.8111295439302921295166015625" lon="-118.4186951816082000732421875">
        <ele>3334</ele>
        <time>2021-06-26T16:01:08.000Z</time>
        <extensions>
          <ns3:TrackPointExtension>
            <ns3:atemp>25.0</ns3:atemp>
            <ns3:hr>78</ns3:hr>
          </ns3:TrackPointExtension>
        </extensions>
      </trkpt>
      <trkpt lat="36.81118897162377834320068359375" lon="-118.41874388046562671661376953125">
        <ele>3334.60009765625</ele>
        <time>2021-06-26T16:01:15.000Z</time>
        <extensions>
          <ns3:TrackPointExtension>
            <ns3:atemp>25.0</ns3:atemp>
            <ns3:hr>77</ns3:hr>
          </ns3:TrackPointExtension>
        </extensions>
      </trkpt>
      <trkpt lat="36.81120120920240879058837890625" lon="-118.41875276528298854827880859375">
        <ele>3334</ele>
        <time>2021-06-26T16:01:18.000Z</time>
        <extensions>
          <ns3:TrackPointExtension>
            <ns3:atemp>25.0</ns3:atemp>
            <ns3:hr>78</ns3:hr>
          </ns3:TrackPointExtension>
        </extensions>
      </trkpt>
      <trkpt lat="36.81120255030691623687744140625" lon="-118.4187543578445911407470703125">
        <ele>3334</ele>
        <time>2021-06-26T16:01:19.000Z</time>
        <extensions>
          <ns3:TrackPointExtension>
            <ns3:atemp>25.0</ns3:atemp>
            <ns3:hr>78</ns3:hr>
          </ns3:TrackPointExtension>
        </extensions>
      </trkpt>
      <trkpt lat="36.81120070628821849822998046875" lon="-118.41875779442489147186279296875">
        <ele>3334.199951171875</ele>
        <time>2021-06-26T16:01:20.000Z</time>
        <extensions>
          <ns3:TrackPointExtension>
            <ns3:atemp>25.0</ns3:atemp>
            <ns3:hr>79</ns3:hr>
          </ns3:TrackPointExtension>
        </extensions>
      </trkpt>
      <trkpt lat="36.81120221503078937530517578125" lon="-118.41875645332038402557373046875">
        <ele>3334.39990234375</ele>
        <time>2021-06-26T16:01:26.000Z</time>
        <extensions>
          <ns3:TrackPointExtension>
            <ns3:atemp>25.0</ns3:atemp>
            <ns3:hr>82</ns3:hr>
          </ns3:TrackPointExtension>
        </extensions>
      </trkpt>
      <trkpt lat="36.81120540015399456024169921875" lon="-118.4187624044716358184814453125">
        <ele>3334.60009765625</ele>
        <time>2021-06-26T16:01:29.000Z</time>
        <extensions>
          <ns3:TrackPointExtension>
            <ns3:atemp>25.0</ns3:atemp>
            <ns3:hr>83</ns3:hr>
          </ns3:TrackPointExtension>
        </extensions>
      </trkpt>
      <trkpt lat="36.81120540015399456024169921875" lon="-118.4187624044716358184814453125">
        <ele>3334.800048828125</ele>
        <time>2021-06-26T16:01:39.000Z</time>
        <extensions>
          <ns3:TrackPointExtension>
            <ns3:atemp>25.0</ns3:atemp>
            <ns3:hr>80</ns3:hr>
          </ns3:TrackPointExtension>
        </extensions>
      </trkpt>
      <trkpt lat="36.81120204739272594451904296875" lon="-118.4187624044716358184814453125">
        <ele>3335</ele>
        <time>2021-06-26T16:01:43.000Z</time>
        <extensions>
          <ns3:TrackPointExtension>
            <ns3:atemp>25.0</ns3:atemp>
            <ns3:hr>77</ns3:hr>
          </ns3:TrackPointExtension>
        </extensions>
      </trkpt>
      <trkpt lat="36.81120204739272594451904296875" lon="-118.4187610633671283721923828125">
        <ele>3335</ele>
        <time>2021-06-26T16:01:49.000Z</time>
        <extensions>
          <ns3:TrackPointExtension>
            <ns3:atemp>25.0</ns3:atemp>
            <ns3:hr>80</ns3:hr>
          </ns3:TrackPointExtension>
        </extensions>
      </trkpt>
      <trkpt lat="36.811200790107250213623046875" lon="-118.41876022517681121826171875">
        <ele>3335</ele>
        <time>2021-06-26T16:01:54.000Z</time>
        <extensions>
          <ns3:TrackPointExtension>
            <ns3:atemp>25.0</ns3:atemp>
            <ns3:hr>83</ns3:hr>
          </ns3:TrackPointExtension>
        </extensions>
      </trkpt>
      <trkpt lat="36.8112214095890522003173828125" lon="-118.41879501007497310638427734375">
        <ele>3334.800048828125</ele>
        <time>2021-06-26T16:02:09.000Z</time>
        <extensions>
          <ns3:TrackPointExtension>
            <ns3:atemp>25.0</ns3:atemp>
            <ns3:hr>84</ns3:hr>
          </ns3:TrackPointExtension>
        </extensions>
      </trkpt>
      <trkpt lat="36.81130229495465755462646484375" lon="-118.4188921563327312469482421875">
        <ele>3334</ele>
        <time>2021-06-26T16:02:18.000Z</time>
        <extensions>
          <ns3:TrackPointExtension>
            <ns3:atemp>25.0</ns3:atemp>
            <ns3:hr>85</ns3:hr>
          </ns3:TrackPointExtension>
        </extensions>
      </trkpt>
      <trkpt lat="36.81128653697669506072998046875" lon="-118.41888419352471828460693359375">
        <ele>3333.800048828125</ele>
        <time>2021-06-26T16:02:25.000Z</time>
        <extensions>
          <ns3:TrackPointExtension>
            <ns3:atemp>25.0</ns3:atemp>
            <ns3:hr>89</ns3:hr>
          </ns3:TrackPointExtension>
        </extensions>
      </trkpt>
      <trkpt lat="36.811286620795726776123046875" lon="-118.41888033784925937652587890625">
        <ele>3333.800048828125</ele>
        <time>2021-06-26T16:02:28.000Z</time>
        <extensions>
          <ns3:TrackPointExtension>
            <ns3:atemp>25.0</ns3:atemp>
            <ns3:hr>88</ns3:hr>
          </ns3:TrackPointExtension>
        </extensions>
      </trkpt>
      <trkpt lat="36.81132157333195209503173828125" lon="-118.41896315105259418487548828125">
        <ele>3333.60009765625</ele>
        <time>2021-06-26T16:02:42.000Z</time>
        <extensions>
          <ns3:TrackPointExtension>
            <ns3:atemp>25.0</ns3:atemp>
            <ns3:hr>91</ns3:hr>
          </ns3:TrackPointExtension>
        </extensions>
      </trkpt>
      <trkpt lat="36.81133582256734371185302734375" lon="-118.41896935366094112396240234375">
        <ele>3333.800048828125</ele>
        <time>2021-06-26T16:02:43.000Z</time>
        <extensions>
          <ns3:TrackPointExtension>
            <ns3:atemp>25.0</ns3:atemp>
            <ns3:hr>94</ns3:hr>
          </ns3:TrackPointExtension>
        </extensions>
      </trkpt>
      <trkpt lat="36.8113501556217670440673828125" lon="-118.4189763106405735015869140625">
        <ele>3334.39990234375</ele>
        <time>2021-06-26T16:02:44.000Z</time>
        <extensions>
          <ns3:TrackPointExtension>
            <ns3:atemp>25.0</ns3:atemp>
            <ns3:hr>97</ns3:hr>
          </ns3:TrackPointExtension>
        </extensions>
      </trkpt>
      <trkpt lat="36.81136071681976318359375" lon="-118.41898460872471332550048828125">
        <ele>3334.60009765625</ele>
        <time>2021-06-26T16:02:45.000Z</time>
        <extensions>
          <ns3:TrackPointExtension>
            <ns3:atemp>25.0</ns3:atemp>
            <ns3:hr>100</ns3:hr>
          </ns3:TrackPointExtension>
        </extensions>
      </trkpt>
      <trkpt lat="36.811385862529277801513671875" lon="-118.4189997799694538116455078125">
        <ele>3334.60009765625</ele>
        <time>2021-06-26T16:02:47.000Z</time>
        <extensions>
          <ns3:TrackPointExtension>
            <ns3:atemp>25.0</ns3:atemp>
            <ns3:hr>103</ns3:hr>
          </ns3:TrackPointExtension>
        </extensions>
      </trkpt>
      <trkpt lat="36.8113987706601619720458984375" lon="-118.4190095029771327972412109375">
        <ele>3334.60009765625</ele>
        <time>2021-06-26T16:02:48.000Z</time>
        <extensions>
          <ns3:TrackPointExtension>
            <ns3:atemp>25.0</ns3:atemp>
            <ns3:hr>106</ns3:hr>
          </ns3:TrackPointExtension>
        </extensions>
      </trkpt>
      <trkpt lat="36.81141343899071216583251953125" lon="-118.4190205670893192291259765625">
        <ele>3334.800048828125</ele>
        <time>2021-06-26T16:02:50.000Z</time>
        <extensions>
          <ns3:TrackPointExtension>
            <ns3:atemp>25.0</ns3:atemp>
            <ns3:hr>107</ns3:hr>
          </ns3:TrackPointExtension>
        </extensions>
      </trkpt>
      <trkpt lat="36.8114463798701763153076171875" lon="-118.419053256511688232421875">
        <ele>3334.800048828125</ele>
        <time>2021-06-26T16:02:54.000Z</time>
        <extensions>
          <ns3:TrackPointExtension>
            <ns3:atemp>25.0</ns3:atemp>
            <ns3:hr>104</ns3:hr>
          </ns3:TrackPointExtension>
        </extensions>
      </trkpt>
      <trkpt lat="36.8114822544157505035400390625" lon="-118.4190839342772960662841796875">
        <ele>3334.800048828125</ele>
        <time>2021-06-26T16:02:58.000Z</time>
        <extensions>
          <ns3:TrackPointExtension>
            <ns3:atemp>25.0</ns3:atemp>
            <ns3:hr>101</ns3:hr>
          </ns3:TrackPointExtension>
        </extensions>
      </trkpt>
      <trkpt lat="36.8114882893860340118408203125" lon="-118.4190903045237064361572265625">
        <ele>3334.800048828125</ele>
        <time>2021-06-26T16:02:59.000Z</time>
        <extensions>
          <ns3:TrackPointExtension>
            <ns3:atemp>25.0</ns3:atemp>
            <ns3:hr>101</ns3:hr>
          </ns3:TrackPointExtension>
        </extensions>
      </trkpt>
      <trkpt lat="36.811514608561992645263671875" lon="-118.4191074036061763763427734375">
        <ele>3335</ele>
        <time>2021-06-26T16:03:02.000Z</time>
        <extensions>
          <ns3:TrackPointExtension>
            <ns3:atemp>25.0</ns3:atemp>
            <ns3:hr>99</ns3:hr>
          </ns3:TrackPointExtension>
        </extensions>
      </trkpt>
      <trkpt lat="36.811534054577350616455078125" lon="-118.41910128481686115264892578125">
        <ele>3335.39990234375</ele>
        <time>2021-06-26T16:03:04.000Z</time>
        <extensions>
          <ns3:TrackPointExtension>
            <ns3:atemp>25.0</ns3:atemp>
            <ns3:hr>97</ns3:hr>
          </ns3:TrackPointExtension>
        </extensions>
      </trkpt>
      <trkpt lat="36.811541430652141571044921875" lon="-118.419101871550083160400390625">
        <ele>3335.60009765625</ele>
        <time>2021-06-26T16:03:05.000Z</time>
        <extensions>
          <ns3:TrackPointExtension>
            <ns3:atemp>25.0</ns3:atemp>
            <ns3:hr>98</ns3:hr>
          </ns3:TrackPointExtension>
        </extensions>
      </trkpt>
      <trkpt lat="36.81157386861741542816162109375" lon="-118.41912123374640941619873046875">
        <ele>3336.39990234375</ele>
        <time>2021-06-26T16:03:09.000Z</time>
        <extensions>
          <ns3:TrackPointExtension>
            <ns3:atemp>25.0</ns3:atemp>
            <ns3:hr>101</ns3:hr>
          </ns3:TrackPointExtension>
        </extensions>
      </trkpt>
      <trkpt lat="36.811583004891872406005859375" lon="-118.4191258437931537628173828125">
        <ele>3336.60009765625</ele>
        <time>2021-06-26T16:03:10.000Z</time>
        <extensions>
          <ns3:TrackPointExtension>
            <ns3:atemp>25.0</ns3:atemp>
            <ns3:hr>102</ns3:hr>
          </ns3:TrackPointExtension>
        </extensions>
      </trkpt>
      <trkpt lat="36.8116046302020549774169921875" lon="-118.41912567615509033203125">
        <ele>3337</ele>
        <time>2021-06-26T16:03:12.000Z</time>
        <extensions>
          <ns3:TrackPointExtension>
            <ns3:atemp>25.0</ns3:atemp>
            <ns3:hr>102</ns3:hr>
          </ns3:TrackPointExtension>
        </extensions>
      </trkpt>
      <trkpt lat="36.811610497534275054931640625" lon="-118.4191218204796314239501953125">
        <ele>3337.199951171875</ele>
        <time>2021-06-26T16:03:13.000Z</time>
        <extensions>
          <ns3:TrackPointExtension>
            <ns3:atemp>25.0</ns3:atemp>
            <ns3:hr>102</ns3:hr>
          </ns3:TrackPointExtension>
        </extensions>
      </trkpt>
      <trkpt lat="36.8116327933967113494873046875" lon="-118.41911494731903076171875">
        <ele>3337.39990234375</ele>
        <time>2021-06-26T16:03:18.000Z</time>
        <extensions>
          <ns3:TrackPointExtension>
            <ns3:atemp>25.0</ns3:atemp>
            <ns3:hr>100</ns3:hr>
          </ns3:TrackPointExtension>
        </extensions>
      </trkpt>
      <trkpt lat="36.81165014393627643585205078125" lon="-118.419116623699665069580078125">
        <ele>3337.60009765625</ele>
        <time>2021-06-26T16:03:21.000Z</time>
        <extensions>
          <ns3:TrackPointExtension>
            <ns3:atemp>25.0</ns3:atemp>
            <ns3:hr>101</ns3:hr>
          </ns3:TrackPointExtension>
        </extensions>
      </trkpt>
      <trkpt lat="36.81165534071624279022216796875" lon="-118.419118635356426239013671875">
        <ele>3337.800048828125</ele>
        <time>2021-06-26T16:03:23.000Z</time>
        <extensions>
          <ns3:TrackPointExtension>
            <ns3:atemp>25.0</ns3:atemp>
            <ns3:hr>102</ns3:hr>
          </ns3:TrackPointExtension>
        </extensions>
      </trkpt>
      <trkpt lat="36.8116837553679943084716796875" lon="-118.41913095675408840179443359375">
        <ele>3339</ele>
        <time>2021-06-26T16:03:28.000Z</time>
        <extensions>
          <ns3:TrackPointExtension>
            <ns3:atemp>25.0</ns3:atemp>
            <ns3:hr>103</ns3:hr>
          </ns3:TrackPointExtension>
        </extensions>
      </trkpt>
      <trkpt lat="36.81168383918702602386474609375" lon="-118.41913766227662563323974609375">
        <ele>3339</ele>
        <time>2021-06-26T16:03:31.000Z</time>
        <extensions>
          <ns3:TrackPointExtension>
            <ns3:atemp>25.0</ns3:atemp>
            <ns3:hr>104</ns3:hr>
          </ns3:TrackPointExtension>
        </extensions>
      </trkpt>
      <trkpt lat="36.81168534792959690093994140625" lon="-118.41913841664791107177734375">
        <ele>3339.199951171875</ele>
        <time>2021-06-26T16:03:34.000Z</time>
        <extensions>
          <ns3:TrackPointExtension>
            <ns3:atemp>25.0</ns3:atemp>
            <ns3:hr>107</ns3:hr>
          </ns3:TrackPointExtension>
        </extensions>
      </trkpt>
      <trkpt lat="36.81169590912759304046630859375" lon="-118.4191533364355564117431640625">
        <ele>3339.199951171875</ele>
        <time>2021-06-26T16:03:37.000Z</time>
        <extensions>
          <ns3:TrackPointExtension>
            <ns3:atemp>25.0</ns3:atemp>
            <ns3:hr>110</ns3:hr>
          </ns3:TrackPointExtension>
        </extensions>
      </trkpt>
      <trkpt lat="36.81170345284044742584228515625" lon="-118.41916867531836032867431640625">
        <ele>3339.199951171875</ele>
        <time>2021-06-26T16:03:39.000Z</time>
        <extensions>
          <ns3:TrackPointExtension>
            <ns3:atemp>25.0</ns3:atemp>
            <ns3:hr>113</ns3:hr>
          </ns3:TrackPointExtension>
        </extensions>
      </trkpt>
      <trkpt lat="36.81174502708017826080322265625" lon="-118.4192431904375553131103515625">
        <ele>3338.60009765625</ele>
        <time>2021-06-26T16:03:47.000Z</time>
        <extensions>
          <ns3:TrackPointExtension>
            <ns3:atemp>24.0</ns3:atemp>
            <ns3:hr>115</ns3:hr>
          </ns3:TrackPointExtension>
        </extensions>
      </trkpt>
      <trkpt lat="36.81178760714828968048095703125" lon="-118.41926422901451587677001953125">
        <ele>3339</ele>
        <time>2021-06-26T16:03:51.000Z</time>
        <extensions>
          <ns3:TrackPointExtension>
            <ns3:atemp>24.0</ns3:atemp>
            <ns3:hr>115</ns3:hr>
          </ns3:TrackPointExtension>
        </extensions>
      </trkpt>
      <trkpt lat="36.81181023828685283660888671875" lon="-118.41927764005959033966064453125">
        <ele>3339</ele>
        <time>2021-06-26T16:03:54.000Z</time>
        <extensions>
          <ns3:TrackPointExtension>
            <ns3:atemp>24.0</ns3:atemp>
            <ns3:hr>115</ns3:hr>
          </ns3:TrackPointExtension>
        </extensions>
      </trkpt>
      <trkpt lat="36.8118151836097240447998046875" lon="-118.4192797355353832244873046875">
        <ele>3339.199951171875</ele>
        <time>2021-06-26T16:03:55.000Z</time>
        <extensions>
          <ns3:TrackPointExtension>
            <ns3:atemp>24.0</ns3:atemp>
            <ns3:hr>116</ns3:hr>
          </ns3:TrackPointExtension>
        </extensions>
      </trkpt>
      <trkpt lat="36.81187293492257595062255859375" lon="-118.41926305554807186126708984375">
        <ele>3339.60009765625</ele>
        <time>2021-06-26T16:04:00.000Z</time>
        <extensions>
          <ns3:TrackPointExtension>
            <ns3:atemp>24.0</ns3:atemp>
            <ns3:hr>114</ns3:hr>
          </ns3:TrackPointExtension>
        </extensions>
      </trkpt>
      <trkpt lat="36.811880730092525482177734375" lon="-118.41926322318613529205322265625">
        <ele>3339.60009765625</ele>
        <time>2021-06-26T16:04:01.000Z</time>
        <extensions>
          <ns3:TrackPointExtension>
            <ns3:atemp>24.0</ns3:atemp>
            <ns3:hr>113</ns3:hr>
          </ns3:TrackPointExtension>
        </extensions>
      </trkpt>
      <trkpt lat="36.81195071898400783538818359375" lon="-118.41926087625324726104736328125">
        <ele>3339.60009765625</ele>
        <time>2021-06-26T16:04:08.000Z</time>
        <extensions>
          <ns3:TrackPointExtension>
            <ns3:atemp>24.0</ns3:atemp>
            <ns3:hr>110</ns3:hr>
          </ns3:TrackPointExtension>
        </extensions>
      </trkpt>
      <trkpt lat="36.81196220219135284423828125" lon="-118.41926154680550098419189453125">
        <ele>3339.60009765625</ele>
        <time>2021-06-26T16:04:09.000Z</time>
        <extensions>
          <ns3:TrackPointExtension>
            <ns3:atemp>24.0</ns3:atemp>
            <ns3:hr>107</ns3:hr>
          </ns3:TrackPointExtension>
        </extensions>
      </trkpt>
      <trkpt lat="36.8119744397699832916259765625" lon="-118.41926506720483303070068359375">
        <ele>3339.60009765625</ele>
        <time>2021-06-26T16:04:11.000Z</time>
        <extensions>
          <ns3:TrackPointExtension>
            <ns3:atemp>24.0</ns3:atemp>
            <ns3:hr>102</ns3:hr>
          </ns3:TrackPointExtension>
        </extensions>
      </trkpt>
      <trkpt lat="36.8120156787335872650146484375" lon="-118.41928401030600070953369140625">
        <ele>3339</ele>
        <time>2021-06-26T16:04:16.000Z</time>
        <extensions>
          <ns3:TrackPointExtension>
            <ns3:atemp>24.0</ns3:atemp>
            <ns3:hr>99</ns3:hr>
          </ns3:TrackPointExtension>
        </extensions>
      </trkpt>
      <trkpt lat="36.8120567500591278076171875" lon="-118.41929038055241107940673828125">
        <ele>3339.199951171875</ele>
        <time>2021-06-26T16:04:20.000Z</time>
        <extensions>
          <ns3:TrackPointExtension>
            <ns3:atemp>24.0</ns3:atemp>
            <ns3:hr>96</ns3:hr>
          </ns3:TrackPointExtension>
        </extensions>
      </trkpt>
      <trkpt lat="36.81206890381872653961181640625" lon="-118.41929691843688488006591796875">
        <ele>3339.199951171875</ele>
        <time>2021-06-26T16:04:21.000Z</time>
        <extensions>
          <ns3:TrackPointExtension>
            <ns3:atemp>24.0</ns3:atemp>
            <ns3:hr>95</ns3:hr>
          </ns3:TrackPointExtension>
        </extensions>
      </trkpt>
      <trkpt lat="36.8120971508324146270751953125" lon="-118.4193456172943115234375">
        <ele>3339</ele>
        <time>2021-06-26T16:04:26.000Z</time>
        <extensions>
          <ns3:TrackPointExtension>
            <ns3:atemp>24.0</ns3:atemp>
            <ns3:hr>98</ns3:hr>
          </ns3:TrackPointExtension>
        </extensions>
      </trkpt>
      <trkpt lat="36.812141239643096923828125" lon="-118.41934570111334323883056640625">
        <ele>3339.39990234375</ele>
        <time>2021-06-26T16:04:31.000Z</time>
        <extensions>
          <ns3:TrackPointExtension>
            <ns3:atemp>24.0</ns3:atemp>
            <ns3:hr>99</ns3:hr>
          </ns3:TrackPointExtension>
        </extensions>
      </trkpt>
      <trkpt lat="36.81220502592623233795166015625" lon="-118.41935274191200733184814453125">
        <ele>3339.800048828125</ele>
        <time>2021-06-26T16:04:39.000Z</time>
        <extensions>
          <ns3:TrackPointExtension>
            <ns3:atemp>24.0</ns3:atemp>
            <ns3:hr>97</ns3:hr>
          </ns3:TrackPointExtension>
        </extensions>
      </trkpt>
      <trkpt lat="36.812219358980655670166015625" lon="-118.41936296783387660980224609375">
        <ele>3340</ele>
        <time>2021-06-26T16:04:41.000Z</time>
        <extensions>
          <ns3:TrackPointExtension>
            <ns3:atemp>24.0</ns3:atemp>
            <ns3:hr>95</ns3:hr>
          </ns3:TrackPointExtension>
        </extensions>
      </trkpt>
      <trkpt lat="36.8122258968651294708251953125" lon="-118.41936548240482807159423828125">
        <ele>3340</ele>
        <time>2021-06-26T16:04:43.000Z</time>
        <extensions>
          <ns3:TrackPointExtension>
            <ns3:atemp>24.0</ns3:atemp>
            <ns3:hr>93</ns3:hr>
          </ns3:TrackPointExtension>
        </extensions>
      </trkpt>
      <trkpt lat="36.8122265674173831939697265625" lon="-118.4193657338619232177734375">
        <ele>3340</ele>
        <time>2021-06-26T16:04:44.000Z</time>
        <extensions>
          <ns3:TrackPointExtension>
            <ns3:atemp>24.0</ns3:atemp>
            <ns3:hr>96</ns3:hr>
          </ns3:TrackPointExtension>
        </extensions>
      </trkpt>
      <trkpt lat="36.81222748942673206329345703125" lon="-118.4193659014999866485595703125">
        <ele>3340</ele>
        <time>2021-06-26T16:04:46.000Z</time>
        <extensions>
          <ns3:TrackPointExtension>
            <ns3:atemp>24.0</ns3:atemp>
            <ns3:hr>93</ns3:hr>
          </ns3:TrackPointExtension>
        </extensions>
      </trkpt>
      <trkpt lat="36.81222413666546344757080078125" lon="-118.4193675778806209564208984375">
        <ele>3340</ele>
        <time>2021-06-26T16:04:47.000Z</time>
        <extensions>
          <ns3:TrackPointExtension>
            <ns3:atemp>24.0</ns3:atemp>
            <ns3:hr>94</ns3:hr>
          </ns3:TrackPointExtension>
        </extensions>
      </trkpt>
      <trkpt lat="36.81222044862806797027587890625" lon="-118.41936414130032062530517578125">
        <ele>3340</ele>
        <time>2021-06-26T16:04:55.000Z</time>
        <extensions>
          <ns3:TrackPointExtension>
            <ns3:atemp>24.0</ns3:atemp>
            <ns3:hr>91</ns3:hr>
          </ns3:TrackPointExtension>
        </extensions>
      </trkpt>
      <trkpt lat="36.81222044862806797027587890625" lon="-118.41936414130032062530517578125">
        <ele>3339.800048828125</ele>
        <time>2021-06-26T16:04:58.000Z</time>
        <extensions>
          <ns3:TrackPointExtension>
            <ns3:atemp>25.0</ns3:atemp>
            <ns3:hr>88</ns3:hr>
          </ns3:TrackPointExtension>
        </extensions>
      </trkpt>
      <trkpt lat="36.81222178973257541656494140625" lon="-118.41936414130032062530517578125">
        <ele>3340</ele>
        <time>2021-06-26T16:05:01.000Z</time>
        <extensions>
          <ns3:TrackPointExtension>
            <ns3:atemp>25.0</ns3:atemp>
            <ns3:hr>85</ns3:hr>
          </ns3:TrackPointExtension>
        </extensions>
      </trkpt>
      <trkpt lat="36.8122525513172149658203125" lon="-118.41937570832669734954833984375">
        <ele>3339.800048828125</ele>
        <time>2021-06-26T16:05:06.000Z</time>
        <extensions>
          <ns3:TrackPointExtension>
            <ns3:atemp>25.0</ns3:atemp>
            <ns3:hr>82</ns3:hr>
          </ns3:TrackPointExtension>
        </extensions>
      </trkpt>
      <trkpt lat="36.81227794848382472991943359375" lon="-118.41939280740916728973388671875">
        <ele>3339.60009765625</ele>
        <time>2021-06-26T16:05:08.000Z</time>
        <extensions>
          <ns3:TrackPointExtension>
            <ns3:atemp>25.0</ns3:atemp>
            <ns3:hr>84</ns3:hr>
          </ns3:TrackPointExtension>
        </extensions>
      </trkpt>
      <trkpt lat="36.812323294579982757568359375" lon="-118.4194208867847919464111328125">
        <ele>3339.199951171875</ele>
        <time>2021-06-26T16:05:12.000Z</time>
        <extensions>
          <ns3:TrackPointExtension>
            <ns3:atemp>25.0</ns3:atemp>
            <ns3:hr>85</ns3:hr>
          </ns3:TrackPointExtension>
        </extensions>
      </trkpt>
      <trkpt lat="36.81236294098198413848876953125" lon="-118.4194691665470600128173828125">
        <ele>3339</ele>
        <time>2021-06-26T16:05:18.000Z</time>
        <extensions>
          <ns3:TrackPointExtension>
            <ns3:atemp>25.0</ns3:atemp>
            <ns3:hr>87</ns3:hr>
          </ns3:TrackPointExtension>
        </extensions>
      </trkpt>
      <trkpt lat="36.81237132288515567779541015625" lon="-118.41947612352669239044189453125">
        <ele>3338.800048828125</ele>
        <time>2021-06-26T16:05:19.000Z</time>
        <extensions>
          <ns3:TrackPointExtension>
            <ns3:atemp>25.0</ns3:atemp>
            <ns3:hr>87</ns3:hr>
          </ns3:TrackPointExtension>
        </extensions>
      </trkpt>
      <trkpt lat="36.81241876445710659027099609375" lon="-118.41947377659380435943603515625">
        <ele>3337.800048828125</ele>
        <time>2021-06-26T16:05:24.000Z</time>
        <extensions>
          <ns3:TrackPointExtension>
            <ns3:atemp>25.0</ns3:atemp>
            <ns3:hr>87</ns3:hr>
          </ns3:TrackPointExtension>
        </extensions>
      </trkpt>
      <trkpt lat="36.8124351091682910919189453125" lon="-118.41947243548929691314697265625">
        <ele>3337</ele>
        <time>2021-06-26T16:05:26.000Z</time>
        <extensions>
          <ns3:TrackPointExtension>
            <ns3:atemp>25.0</ns3:atemp>
            <ns3:hr>86</ns3:hr>
          </ns3:TrackPointExtension>
        </extensions>
      </trkpt>
      <trkpt lat="36.8124662898480892181396484375" lon="-118.419468663632869720458984375">
        <ele>3336.800048828125</ele>
        <time>2021-06-26T16:05:29.000Z</time>
        <extensions>
          <ns3:TrackPointExtension>
            <ns3:atemp>25.0</ns3:atemp>
            <ns3:hr>85</ns3:hr>
          </ns3:TrackPointExtension>
        </extensions>
      </trkpt>
      <trkpt lat="36.812486238777637481689453125" lon="-118.41946891508996486663818359375">
        <ele>3336.800048828125</ele>
        <time>2021-06-26T16:05:31.000Z</time>
        <extensions>
          <ns3:TrackPointExtension>
            <ns3:atemp>25.0</ns3:atemp>
            <ns3:hr>86</ns3:hr>
          </ns3:TrackPointExtension>
        </extensions>
      </trkpt>
      <trkpt lat="36.81251205503940582275390625" lon="-118.41948710381984710693359375">
        <ele>3336.39990234375</ele>
        <time>2021-06-26T16:05:34.000Z</time>
        <extensions>
          <ns3:TrackPointExtension>
            <ns3:atemp>25.0</ns3:atemp>
            <ns3:hr>87</ns3:hr>
          </ns3:TrackPointExtension>
        </extensions>
      </trkpt>
      <trkpt lat="36.81252270005643367767333984375" lon="-118.419494815170764923095703125">
        <ele>3336.199951171875</ele>
        <time>2021-06-26T16:05:37.000Z</time>
        <extensions>
          <ns3:TrackPointExtension>
            <ns3:atemp>25.0</ns3:atemp>
            <ns3:hr>88</ns3:hr>
          </ns3:TrackPointExtension>
        </extensions>
      </trkpt>
      <trkpt lat="36.812528483569622039794921875" lon="-118.419502861797809600830078125">
        <ele>3336.199951171875</ele>
        <time>2021-06-26T16:05:39.000Z</time>
        <extensions>
          <ns3:TrackPointExtension>
            <ns3:atemp>25.0</ns3:atemp>
            <ns3:hr>88</ns3:hr>
          </ns3:TrackPointExtension>
        </extensions>
      </trkpt>
      <trkpt lat="36.81253929622471332550048828125" lon="-118.41951484791934490203857421875">
        <ele>3335.60009765625</ele>
        <time>2021-06-26T16:05:41.000Z</time>
        <extensions>
          <ns3:TrackPointExtension>
            <ns3:atemp>25.0</ns3:atemp>
            <ns3:hr>88</ns3:hr>
          </ns3:TrackPointExtension>
        </extensions>
      </trkpt>
      <trkpt lat="36.8125571496784687042236328125" lon="-118.419539742171764373779296875">
        <ele>3335</ele>
        <time>2021-06-26T16:05:44.000Z</time>
        <extensions>
          <ns3:TrackPointExtension>
            <ns3:atemp>25.0</ns3:atemp>
            <ns3:hr>89</ns3:hr>
          </ns3:TrackPointExtension>
        </extensions>
      </trkpt>
      <trkpt lat="36.81256561540067195892333984375" lon="-118.41955105774104595184326171875">
        <ele>3334.60009765625</ele>
        <time>2021-06-26T16:05:46.000Z</time>
        <extensions>
          <ns3:TrackPointExtension>
            <ns3:atemp>25.0</ns3:atemp>
            <ns3:hr>87</ns3:hr>
          </ns3:TrackPointExtension>
        </extensions>
      </trkpt>
      <trkpt lat="36.8125695548951625823974609375" lon="-118.41955927200615406036376953125">
        <ele>3334.39990234375</ele>
        <time>2021-06-26T16:05:47.000Z</time>
        <extensions>
          <ns3:TrackPointExtension>
            <ns3:atemp>25.0</ns3:atemp>
            <ns3:hr>90</ns3:hr>
          </ns3:TrackPointExtension>
        </extensions>
      </trkpt>
      <trkpt lat="36.812577433884143829345703125" lon="-118.4195667318999767303466796875">
        <ele>3334.39990234375</ele>
        <time>2021-06-26T16:05:48.000Z</time>
        <extensions>
          <ns3:TrackPointExtension>
            <ns3:atemp>25.0</ns3:atemp>
            <ns3:hr>90</ns3:hr>
          </ns3:TrackPointExtension>
        </extensions>
      </trkpt>
      <trkpt lat="36.81258942000567913055419921875" lon="-118.41957184486091136932373046875">
        <ele>3334.39990234375</ele>
        <time>2021-06-26T16:05:49.000Z</time>
        <extensions>
          <ns3:TrackPointExtension>
            <ns3:atemp>25.0</ns3:atemp>
            <ns3:hr>88</ns3:hr>
          </ns3:TrackPointExtension>
        </extensions>
      </trkpt>
      <trkpt lat="36.8126091174781322479248046875" lon="-118.41956882737576961517333984375">
        <ele>3333.800048828125</ele>
        <time>2021-06-26T16:05:51.000Z</time>
        <extensions>
          <ns3:TrackPointExtension>
            <ns3:atemp>25.0</ns3:atemp>
            <ns3:hr>88</ns3:hr>
          </ns3:TrackPointExtension>
        </extensions>
      </trkpt>
      <trkpt lat="36.81262009777128696441650390625" lon="-118.419568575918674468994140625">
        <ele>3333.39990234375</ele>
        <time>2021-06-26T16:05:52.000Z</time>
        <extensions>
          <ns3:TrackPointExtension>
            <ns3:atemp>25.0</ns3:atemp>
            <ns3:hr>88</ns3:hr>
          </ns3:TrackPointExtension>
        </extensions>
      </trkpt>
      <trkpt lat="36.81262814439833164215087890625" lon="-118.4195744432508945465087890625">
        <ele>3333.39990234375</ele>
        <time>2021-06-26T16:05:54.000Z</time>
        <extensions>
          <ns3:TrackPointExtension>
            <ns3:atemp>25.0</ns3:atemp>
            <ns3:hr>90</ns3:hr>
          </ns3:TrackPointExtension>
        </extensions>
      </trkpt>
      <trkpt lat="36.8126275576651096343994140625" lon="-118.419579304754734039306640625">
        <ele>3333.199951171875</ele>
        <time>2021-06-26T16:05:55.000Z</time>
        <extensions>
          <ns3:TrackPointExtension>
            <ns3:atemp>25.0</ns3:atemp>
            <ns3:hr>91</ns3:hr>
          </ns3:TrackPointExtension>
        </extensions>
      </trkpt>
      <trkpt lat="36.81263015605509281158447265625" lon="-118.4196071326732635498046875">
        <ele>3332.800048828125</ele>
        <time>2021-06-26T16:05:58.000Z</time>
        <extensions>
          <ns3:TrackPointExtension>
            <ns3:atemp>25.0</ns3:atemp>
            <ns3:hr>93</ns3:hr>
          </ns3:TrackPointExtension>
        </extensions>
      </trkpt>
      <trkpt lat="36.812631078064441680908203125" lon="-118.4196210466325283050537109375">
        <ele>3332.39990234375</ele>
        <time>2021-06-26T16:06:00.000Z</time>
        <extensions>
          <ns3:TrackPointExtension>
            <ns3:atemp>25.0</ns3:atemp>
            <ns3:hr>94</ns3:hr>
          </ns3:TrackPointExtension>
        </extensions>
      </trkpt>
      <trkpt lat="36.81263744831085205078125" lon="-118.41963554732501506805419921875">
        <ele>3331.199951171875</ele>
        <time>2021-06-26T16:06:02.000Z</time>
        <extensions>
          <ns3:TrackPointExtension>
            <ns3:atemp>25.0</ns3:atemp>
            <ns3:hr>96</ns3:hr>
          </ns3:TrackPointExtension>
        </extensions>
      </trkpt>
      <trkpt lat="36.81263803504407405853271484375" lon="-118.41964476741850376129150390625">
        <ele>3331.199951171875</ele>
        <time>2021-06-26T16:06:03.000Z</time>
        <extensions>
          <ns3:TrackPointExtension>
            <ns3:atemp>25.0</ns3:atemp>
            <ns3:hr>96</ns3:hr>
          </ns3:TrackPointExtension>
        </extensions>
      </trkpt>
      <trkpt lat="36.81263267062604427337646484375" lon="-118.4196981601417064666748046875">
        <ele>3330.800048828125</ele>
        <time>2021-06-26T16:06:06.000Z</time>
        <extensions>
          <ns3:TrackPointExtension>
            <ns3:atemp>25.0</ns3:atemp>
            <ns3:hr>99</ns3:hr>
          </ns3:TrackPointExtension>
        </extensions>
      </trkpt>
      <trkpt lat="36.81263082660734653472900390625" lon="-118.4197383932769298553466796875">
        <ele>3330.39990234375</ele>
        <time>2021-06-26T16:06:08.000Z</time>
        <extensions>
          <ns3:TrackPointExtension>
            <ns3:atemp>25.0</ns3:atemp>
            <ns3:hr>97</ns3:hr>
          </ns3:TrackPointExtension>
        </extensions>
      </trkpt>
      <trkpt lat="36.8126433156430721282958984375" lon="-118.4197769500315189361572265625">
        <ele>3330</ele>
        <time>2021-06-26T16:06:11.000Z</time>
        <extensions>
          <ns3:TrackPointExtension>
            <ns3:atemp>25.0</ns3:atemp>
            <ns3:hr>97</ns3:hr>
          </ns3:TrackPointExtension>
        </extensions>
      </trkpt>
      <trkpt lat="36.81268095038831233978271484375" lon="-118.41977301053702831268310546875">
        <ele>3329.199951171875</ele>
        <time>2021-06-26T16:06:16.000Z</time>
        <extensions>
          <ns3:TrackPointExtension>
            <ns3:atemp>25.0</ns3:atemp>
            <ns3:hr>94</ns3:hr>
          </ns3:TrackPointExtension>
        </extensions>
      </trkpt>
      <trkpt lat="36.81269251741468906402587890625" lon="-118.4197759442031383514404296875">
        <ele>3329</ele>
        <time>2021-06-26T16:06:17.000Z</time>
        <extensions>
          <ns3:TrackPointExtension>
            <ns3:atemp>25.0</ns3:atemp>
            <ns3:hr>96</ns3:hr>
          </ns3:TrackPointExtension>
        </extensions>
      </trkpt>
      <trkpt lat="36.812702827155590057373046875" lon="-118.41977720148861408233642578125">
        <ele>3329</ele>
        <time>2021-06-26T16:06:18.000Z</time>
        <extensions>
          <ns3:TrackPointExtension>
            <ns3:atemp>25.0</ns3:atemp>
            <ns3:hr>94</ns3:hr>
          </ns3:TrackPointExtension>
        </extensions>
      </trkpt>
      <trkpt lat="36.8127110414206981658935546875" lon="-118.4197761118412017822265625">
        <ele>3328.800048828125</ele>
        <time>2021-06-26T16:06:19.000Z</time>
        <extensions>
          <ns3:TrackPointExtension>
            <ns3:atemp>25.0</ns3:atemp>
            <ns3:hr>94</ns3:hr>
          </ns3:TrackPointExtension>
        </extensions>
      </trkpt>
      <trkpt lat="36.81273174472153186798095703125" lon="-118.419770412147045135498046875">
        <ele>3328.60009765625</ele>
        <time>2021-06-26T16:06:21.000Z</time>
        <extensions>
          <ns3:TrackPointExtension>
            <ns3:atemp>25.0</ns3:atemp>
            <ns3:hr>94</ns3:hr>
          </ns3:TrackPointExtension>
        </extensions>
      </trkpt>
      <trkpt lat="36.812754459679126739501953125" lon="-118.41977535746991634368896484375">
        <ele>3327.800048828125</ele>
        <time>2021-06-26T16:06:24.000Z</time>
        <extensions>
          <ns3:TrackPointExtension>
            <ns3:atemp>25.0</ns3:atemp>
            <ns3:hr>93</ns3:hr>
          </ns3:TrackPointExtension>
        </extensions>
      </trkpt>
      <trkpt lat="36.81275890208780765533447265625" lon="-118.41977837495505809783935546875">
        <ele>3327.800048828125</ele>
        <time>2021-06-26T16:06:25.000Z</time>
        <extensions>
          <ns3:TrackPointExtension>
            <ns3:atemp>25.0</ns3:atemp>
            <ns3:hr>93</ns3:hr>
          </ns3:TrackPointExtension>
        </extensions>
      </trkpt>
      <trkpt lat="36.812800057232379913330078125" lon="-118.41978457756340503692626953125">
        <ele>3326.800048828125</ele>
        <time>2021-06-26T16:06:29.000Z</time>
        <extensions>
          <ns3:TrackPointExtension>
            <ns3:atemp>25.0</ns3:atemp>
            <ns3:hr>93</ns3:hr>
          </ns3:TrackPointExtension>
        </extensions>
      </trkpt>
      <trkpt lat="36.8128099478781223297119140625" lon="-118.41978885233402252197265625">
        <ele>3326.800048828125</ele>
        <time>2021-06-26T16:06:30.000Z</time>
        <extensions>
          <ns3:TrackPointExtension>
            <ns3:atemp>25.0</ns3:atemp>
            <ns3:hr>93</ns3:hr>
          </ns3:TrackPointExtension>
        </extensions>
      </trkpt>
      <trkpt lat="36.8128588981926441192626953125" lon="-118.419839479029178619384765625">
        <ele>3326</ele>
        <time>2021-06-26T16:06:36.000Z</time>
        <extensions>
          <ns3:TrackPointExtension>
            <ns3:atemp>25.0</ns3:atemp>
            <ns3:hr>93</ns3:hr>
          </ns3:TrackPointExtension>
        </extensions>
      </trkpt>
      <trkpt lat="36.81286719627678394317626953125" lon="-118.4198661334812641143798828125">
        <ele>3325.800048828125</ele>
        <time>2021-06-26T16:06:39.000Z</time>
        <extensions>
          <ns3:TrackPointExtension>
            <ns3:atemp>24.0</ns3:atemp>
            <ns3:hr>90</ns3:hr>
          </ns3:TrackPointExtension>
        </extensions>
      </trkpt>
      <trkpt lat="36.81287406943738460540771484375" lon="-118.41987091116607189178466796875">
        <ele>3325.60009765625</ele>
        <time>2021-06-26T16:06:40.000Z</time>
        <extensions>
          <ns3:TrackPointExtension>
            <ns3:atemp>24.0</ns3:atemp>
            <ns3:hr>90</ns3:hr>
          </ns3:TrackPointExtension>
        </extensions>
      </trkpt>
      <trkpt lat="36.81289686821401119232177734375" lon="-118.419885747134685516357421875">
        <ele>3325</ele>
        <time>2021-06-26T16:06:43.000Z</time>
        <extensions>
          <ns3:TrackPointExtension>
            <ns3:atemp>24.0</ns3:atemp>
            <ns3:hr>90</ns3:hr>
          </ns3:TrackPointExtension>
        </extensions>
      </trkpt>
      <trkpt lat="36.812933497130870819091796875" lon="-118.4199003316462039947509765625">
        <ele>3324.60009765625</ele>
        <time>2021-06-26T16:06:46.000Z</time>
        <extensions>
          <ns3:TrackPointExtension>
            <ns3:atemp>24.0</ns3:atemp>
            <ns3:hr>92</ns3:hr>
          </ns3:TrackPointExtension>
        </extensions>
      </trkpt>
      <trkpt lat="36.812960989773273468017578125" lon="-118.41992639936506748199462890625">
        <ele>3324.39990234375</ele>
        <time>2021-06-26T16:06:49.000Z</time>
        <extensions>
          <ns3:TrackPointExtension>
            <ns3:atemp>24.0</ns3:atemp>
            <ns3:hr>88</ns3:hr>
          </ns3:TrackPointExtension>
        </extensions>
      </trkpt>
      <trkpt lat="36.812965683639049530029296875" lon="-118.419931344687938690185546875">
        <ele>3324.39990234375</ele>
        <time>2021-06-26T16:06:50.000Z</time>
        <extensions>
          <ns3:TrackPointExtension>
            <ns3:atemp>24.0</ns3:atemp>
            <ns3:hr>91</ns3:hr>
          </ns3:TrackPointExtension>
        </extensions>
      </trkpt>
      <trkpt lat="36.81298202835023403167724609375" lon="-118.41994970105588436126708984375">
        <ele>3324</ele>
        <time>2021-06-26T16:06:53.000Z</time>
        <extensions>
          <ns3:TrackPointExtension>
            <ns3:atemp>24.0</ns3:atemp>
            <ns3:hr>88</ns3:hr>
          </ns3:TrackPointExtension>
        </extensions>
      </trkpt>
      <trkpt lat="36.81300767697393894195556640625" lon="-118.4199502877891063690185546875">
        <ele>3323.60009765625</ele>
        <time>2021-06-26T16:06:55.000Z</time>
        <extensions>
          <ns3:TrackPointExtension>
            <ns3:atemp>24.0</ns3:atemp>
            <ns3:hr>85</ns3:hr>
          </ns3:TrackPointExtension>
        </extensions>
      </trkpt>
      <trkpt lat="36.8130572140216827392578125" lon="-118.4199536405503749847412109375">
        <ele>3323.60009765625</ele>
        <time>2021-06-26T16:07:00.000Z</time>
        <extensions>
          <ns3:TrackPointExtension>
            <ns3:atemp>24.0</ns3:atemp>
            <ns3:hr>82</ns3:hr>
          </ns3:TrackPointExtension>
        </extensions>
      </trkpt>
      <trkpt lat="36.81306316517293453216552734375" lon="-118.4199611842632293701171875">
        <ele>3323.39990234375</ele>
        <time>2021-06-26T16:07:01.000Z</time>
        <extensions>
          <ns3:TrackPointExtension>
            <ns3:atemp>24.0</ns3:atemp>
            <ns3:hr>82</ns3:hr>
          </ns3:TrackPointExtension>
        </extensions>
      </trkpt>
      <trkpt lat="36.81306852959096431732177734375" lon="-118.41997182928025722503662109375">
        <ele>3323.39990234375</ele>
        <time>2021-06-26T16:07:02.000Z</time>
        <extensions>
          <ns3:TrackPointExtension>
            <ns3:atemp>24.0</ns3:atemp>
            <ns3:hr>80</ns3:hr>
          </ns3:TrackPointExtension>
        </extensions>
      </trkpt>
      <trkpt lat="36.813074648380279541015625" lon="-118.41998373158276081085205078125">
        <ele>3323.199951171875</ele>
        <time>2021-06-26T16:07:03.000Z</time>
        <extensions>
          <ns3:TrackPointExtension>
            <ns3:atemp>24.0</ns3:atemp>
            <ns3:hr>80</ns3:hr>
          </ns3:TrackPointExtension>
        </extensions>
      </trkpt>
      <trkpt lat="36.81309518404304981231689453125" lon="-118.41999161057174205780029296875">
        <ele>3323</ele>
        <time>2021-06-26T16:07:06.000Z</time>
        <extensions>
          <ns3:TrackPointExtension>
            <ns3:atemp>24.0</ns3:atemp>
            <ns3:hr>80</ns3:hr>
          </ns3:TrackPointExtension>
        </extensions>
      </trkpt>
      <trkpt lat="36.813099123537540435791015625" lon="-118.419993706047534942626953125">
        <ele>3322.800048828125</ele>
        <time>2021-06-26T16:07:07.000Z</time>
        <extensions>
          <ns3:TrackPointExtension>
            <ns3:atemp>24.0</ns3:atemp>
            <ns3:hr>82</ns3:hr>
          </ns3:TrackPointExtension>
        </extensions>
      </trkpt>
      <trkpt lat="36.81311161257326602935791015625" lon="-118.42001013457775115966796875">
        <ele>3322.199951171875</ele>
        <time>2021-06-26T16:07:11.000Z</time>
        <extensions>
          <ns3:TrackPointExtension>
            <ns3:atemp>24.0</ns3:atemp>
            <ns3:hr>82</ns3:hr>
          </ns3:TrackPointExtension>
        </extensions>
      </trkpt>
      <trkpt lat="36.813105158507823944091796875" lon="-118.42000368051230907440185546875">
        <ele>3321.39990234375</ele>
        <time>2021-06-26T16:07:15.000Z</time>
        <extensions>
          <ns3:TrackPointExtension>
            <ns3:atemp>24.0</ns3:atemp>
            <ns3:hr>82</ns3:hr>
          </ns3:TrackPointExtension>
        </extensions>
      </trkpt>
      <trkpt lat="36.81310222484171390533447265625" lon="-118.42000418342649936676025390625">
        <ele>3321.199951171875</ele>
        <time>2021-06-26T16:07:16.000Z</time>
        <extensions>
          <ns3:TrackPointExtension>
            <ns3:atemp>24.0</ns3:atemp>
            <ns3:hr>82</ns3:hr>
          </ns3:TrackPointExtension>
        </extensions>
      </trkpt>
      <trkpt lat="36.813101805746555328369140625" lon="-118.420020528137683868408203125">
        <ele>3320</ele>
        <time>2021-06-26T16:07:23.000Z</time>
        <extensions>
          <ns3:TrackPointExtension>
            <ns3:atemp>24.0</ns3:atemp>
            <ns3:hr>84</ns3:hr>
          </ns3:TrackPointExtension>
        </extensions>
      </trkpt>
      <trkpt lat="36.813119240105152130126953125" lon="-118.4200434945523738861083984375">
        <ele>3319.39990234375</ele>
        <time>2021-06-26T16:07:28.000Z</time>
        <extensions>
          <ns3:TrackPointExtension>
            <ns3:atemp>24.0</ns3:atemp>
            <ns3:hr>84</ns3:hr>
          </ns3:TrackPointExtension>
        </extensions>
      </trkpt>
      <trkpt lat="36.81312938220798969268798828125" lon="-118.4200532175600528717041015625">
        <ele>3319</ele>
        <time>2021-06-26T16:07:30.000Z</time>
        <extensions>
          <ns3:TrackPointExtension>
            <ns3:atemp>24.0</ns3:atemp>
            <ns3:hr>87</ns3:hr>
          </ns3:TrackPointExtension>
        </extensions>
      </trkpt>
      <trkpt lat="36.81313256733119487762451171875" lon="-118.42005908489227294921875">
        <ele>3318.800048828125</ele>
        <time>2021-06-26T16:07:31.000Z</time>
        <extensions>
          <ns3:TrackPointExtension>
            <ns3:atemp>24.0</ns3:atemp>
            <ns3:hr>89</ns3:hr>
          </ns3:TrackPointExtension>
        </extensions>
      </trkpt>
      <trkpt lat="36.8131251074373722076416015625" lon="-118.4200649522244930267333984375">
        <ele>3318.800048828125</ele>
        <time>2021-06-26T16:07:33.000Z</time>
        <extensions>
          <ns3:TrackPointExtension>
            <ns3:atemp>24.0</ns3:atemp>
            <ns3:hr>92</ns3:hr>
          </ns3:TrackPointExtension>
        </extensions>
      </trkpt>
      <trkpt lat="36.81314027868211269378662109375" lon="-118.4200683049857616424560546875">
        <ele>3318.199951171875</ele>
        <time>2021-06-26T16:07:35.000Z</time>
        <extensions>
          <ns3:TrackPointExtension>
            <ns3:atemp>24.0</ns3:atemp>
            <ns3:hr>93</ns3:hr>
          </ns3:TrackPointExtension>
        </extensions>
      </trkpt>
      <trkpt lat="36.81315268389880657196044921875" lon="-118.42007090337574481964111328125">
        <ele>3318.199951171875</ele>
        <time>2021-06-26T16:07:36.000Z</time>
        <extensions>
          <ns3:TrackPointExtension>
            <ns3:atemp>24.0</ns3:atemp>
            <ns3:hr>96</ns3:hr>
          </ns3:TrackPointExtension>
        </extensions>
      </trkpt>
      <trkpt lat="36.81320465169847011566162109375" lon="-118.42006268911063671112060546875">
        <ele>3318.199951171875</ele>
        <time>2021-06-26T16:07:42.000Z</time>
        <extensions>
          <ns3:TrackPointExtension>
            <ns3:atemp>24.0</ns3:atemp>
            <ns3:hr>94</ns3:hr>
          </ns3:TrackPointExtension>
        </extensions>
      </trkpt>
      <trkpt lat="36.8132431246340274810791015625" lon="-118.42006989754736423492431640625">
        <ele>3318.800048828125</ele>
        <time>2021-06-26T16:07:47.000Z</time>
        <extensions>
          <ns3:TrackPointExtension>
            <ns3:atemp>24.0</ns3:atemp>
            <ns3:hr>97</ns3:hr>
          </ns3:TrackPointExtension>
        </extensions>
      </trkpt>
      <trkpt lat="36.81326332502067089080810546875" lon="-118.42007325030863285064697265625">
        <ele>3318.800048828125</ele>
        <time>2021-06-26T16:07:49.000Z</time>
        <extensions>
          <ns3:TrackPointExtension>
            <ns3:atemp>24.0</ns3:atemp>
            <ns3:hr>99</ns3:hr>
          </ns3:TrackPointExtension>
        </extensions>
      </trkpt>
      <trkpt lat="36.813271455466747283935546875" lon="-118.4200729988515377044677734375">
        <ele>3318.800048828125</ele>
        <time>2021-06-26T16:07:50.000Z</time>
        <extensions>
          <ns3:TrackPointExtension>
            <ns3:atemp>24.0</ns3:atemp>
            <ns3:hr>100</ns3:hr>
          </ns3:TrackPointExtension>
        </extensions>
      </trkpt>
      <trkpt lat="36.813286207616329193115234375" lon="-118.42008096165955066680908203125">
        <ele>3318.800048828125</ele>
        <time>2021-06-26T16:07:52.000Z</time>
        <extensions>
          <ns3:TrackPointExtension>
            <ns3:atemp>24.0</ns3:atemp>
            <ns3:hr>103</ns3:hr>
          </ns3:TrackPointExtension>
        </extensions>
      </trkpt>
      <trkpt lat="36.81330238468945026397705078125" lon="-118.42010359279811382293701171875">
        <ele>3318.800048828125</ele>
        <time>2021-06-26T16:07:55.000Z</time>
        <extensions>
          <ns3:TrackPointExtension>
            <ns3:atemp>24.0</ns3:atemp>
            <ns3:hr>103</ns3:hr>
          </ns3:TrackPointExtension>
        </extensions>
      </trkpt>
      <trkpt lat="36.813297271728515625" lon="-118.42018623836338520050048828125">
        <ele>3317.39990234375</ele>
        <time>2021-06-26T16:08:01.000Z</time>
        <extensions>
          <ns3:TrackPointExtension>
            <ns3:atemp>24.0</ns3:atemp>
            <ns3:hr>102</ns3:hr>
          </ns3:TrackPointExtension>
        </extensions>
      </trkpt>
      <trkpt lat="36.81328712962567806243896484375" lon="-118.42017349787056446075439453125">
        <ele>3317.199951171875</ele>
        <time>2021-06-26T16:08:04.000Z</time>
        <extensions>
          <ns3:TrackPointExtension>
            <ns3:atemp>24.0</ns3:atemp>
            <ns3:hr>100</ns3:hr>
          </ns3:TrackPointExtension>
        </extensions>
      </trkpt>
      <trkpt lat="36.81326843798160552978515625" lon="-118.4201732464134693145751953125">
        <ele>3316.39990234375</ele>
        <time>2021-06-26T16:08:07.000Z</time>
        <extensions>
          <ns3:TrackPointExtension>
            <ns3:atemp>23.0</ns3:atemp>
            <ns3:hr>99</ns3:hr>
          </ns3:TrackPointExtension>
        </extensions>
      </trkpt>
      <trkpt lat="36.8132629059255123138427734375" lon="-118.420189507305622100830078125">
        <ele>3315.60009765625</ele>
        <time>2021-06-26T16:08:10.000Z</time>
        <extensions>
          <ns3:TrackPointExtension>
            <ns3:atemp>23.0</ns3:atemp>
            <ns3:hr>96</ns3:hr>
          </ns3:TrackPointExtension>
        </extensions>
      </trkpt>
      <trkpt lat="36.81326550431549549102783203125" lon="-118.4202020801603794097900390625">
        <ele>3315.39990234375</ele>
        <time>2021-06-26T16:08:12.000Z</time>
        <extensions>
          <ns3:TrackPointExtension>
            <ns3:atemp>23.0</ns3:atemp>
            <ns3:hr>94</ns3:hr>
          </ns3:TrackPointExtension>
        </extensions>
      </trkpt>
      <trkpt lat="36.8132665939629077911376953125" lon="-118.4202094562351703643798828125">
        <ele>3315.199951171875</ele>
        <time>2021-06-26T16:08:13.000Z</time>
        <extensions>
          <ns3:TrackPointExtension>
            <ns3:atemp>23.0</ns3:atemp>
            <ns3:hr>91</ns3:hr>
          </ns3:TrackPointExtension>
        </extensions>
      </trkpt>
      <trkpt lat="36.81327338330447673797607421875" lon="-118.42022647149860858917236328125">
        <ele>3315.39990234375</ele>
        <time>2021-06-26T16:08:15.000Z</time>
        <extensions>
          <ns3:TrackPointExtension>
            <ns3:atemp>23.0</ns3:atemp>
            <ns3:hr>88</ns3:hr>
          </ns3:TrackPointExtension>
        </extensions>
      </trkpt>
      <trkpt lat="36.81329526007175445556640625" lon="-118.42024625279009342193603515625">
        <ele>3315.199951171875</ele>
        <time>2021-06-26T16:08:18.000Z</time>
        <extensions>
          <ns3:TrackPointExtension>
            <ns3:atemp>23.0</ns3:atemp>
            <ns3:hr>85</ns3:hr>
          </ns3:TrackPointExtension>
        </extensions>
      </trkpt>
      <trkpt lat="36.81330674327909946441650390625" lon="-118.420263938605785369873046875">
        <ele>3315.199951171875</ele>
        <time>2021-06-26T16:08:20.000Z</time>
        <extensions>
          <ns3:TrackPointExtension>
            <ns3:atemp>23.0</ns3:atemp>
            <ns3:hr>83</ns3:hr>
          </ns3:TrackPointExtension>
        </extensions>
      </trkpt>
      <trkpt lat="36.81331763975322246551513671875" lon="-118.42028615064918994903564453125">
        <ele>3315.199951171875</ele>
        <time>2021-06-26T16:08:22.000Z</time>
        <extensions>
          <ns3:TrackPointExtension>
            <ns3:atemp>23.0</ns3:atemp>
            <ns3:hr>86</ns3:hr>
          </ns3:TrackPointExtension>
        </extensions>
      </trkpt>
      <trkpt lat="36.8133386783301830291748046875" lon="-118.42031230218708515167236328125">
        <ele>3314.199951171875</ele>
        <time>2021-06-26T16:08:26.000Z</time>
        <extensions>
          <ns3:TrackPointExtension>
            <ns3:atemp>23.0</ns3:atemp>
            <ns3:hr>89</ns3:hr>
          </ns3:TrackPointExtension>
        </extensions>
      </trkpt>
      <trkpt lat="36.81334060616791248321533203125" lon="-118.42032051645219326019287109375">
        <ele>3314</ele>
        <time>2021-06-26T16:08:27.000Z</time>
        <extensions>
          <ns3:TrackPointExtension>
            <ns3:atemp>23.0</ns3:atemp>
            <ns3:hr>90</ns3:hr>
          </ns3:TrackPointExtension>
        </extensions>
      </trkpt>
      <trkpt lat="36.813350580632686614990234375" lon="-118.42037198133766651153564453125">
        <ele>3313</ele>
        <time>2021-06-26T16:08:31.000Z</time>
        <extensions>
          <ns3:TrackPointExtension>
            <ns3:atemp>23.0</ns3:atemp>
            <ns3:hr>91</ns3:hr>
          </ns3:TrackPointExtension>
        </extensions>
      </trkpt>
      <trkpt lat="36.8133779056370258331298828125" lon="-118.42042344622313976287841796875">
        <ele>3312.199951171875</ele>
        <time>2021-06-26T16:08:35.000Z</time>
        <extensions>
          <ns3:TrackPointExtension>
            <ns3:atemp>23.0</ns3:atemp>
            <ns3:hr>92</ns3:hr>
          </ns3:TrackPointExtension>
        </extensions>
      </trkpt>
      <trkpt lat="36.81339056231081485748291015625" lon="-118.42044473625719547271728515625">
        <ele>3311.60009765625</ele>
        <time>2021-06-26T16:08:37.000Z</time>
        <extensions>
          <ns3:TrackPointExtension>
            <ns3:atemp>23.0</ns3:atemp>
            <ns3:hr>92</ns3:hr>
          </ns3:TrackPointExtension>
        </extensions>
      </trkpt>
      <trkpt lat="36.81341788731515407562255859375" lon="-118.42046284116804599761962890625">
        <ele>3312</ele>
        <time>2021-06-26T16:08:40.000Z</time>
        <extensions>
          <ns3:TrackPointExtension>
            <ns3:atemp>23.0</ns3:atemp>
            <ns3:hr>94</ns3:hr>
          </ns3:TrackPointExtension>
        </extensions>
      </trkpt>
      <trkpt lat="36.81343398056924343109130859375" lon="-118.42045496217906475067138671875">
        <ele>3312</ele>
        <time>2021-06-26T16:08:42.000Z</time>
        <extensions>
          <ns3:TrackPointExtension>
            <ns3:atemp>23.0</ns3:atemp>
            <ns3:hr>94</ns3:hr>
          </ns3:TrackPointExtension>
        </extensions>
      </trkpt>
      <trkpt lat="36.813456527888774871826171875" lon="-118.420453034341335296630859375">
        <ele>3312</ele>
        <time>2021-06-26T16:08:45.000Z</time>
        <extensions>
          <ns3:TrackPointExtension>
            <ns3:atemp>23.0</ns3:atemp>
            <ns3:hr>92</ns3:hr>
          </ns3:TrackPointExtension>
        </extensions>
      </trkpt>
      <trkpt lat="36.813473962247371673583984375" lon="-118.42046150006353855133056640625">
        <ele>3312.199951171875</ele>
        <time>2021-06-26T16:08:47.000Z</time>
        <extensions>
          <ns3:TrackPointExtension>
            <ns3:atemp>23.0</ns3:atemp>
            <ns3:hr>93</ns3:hr>
          </ns3:TrackPointExtension>
        </extensions>
      </trkpt>
      <trkpt lat="36.81350170634686946868896484375" lon="-118.4204646013677120208740234375">
        <ele>3312.199951171875</ele>
        <time>2021-06-26T16:08:50.000Z</time>
        <extensions>
          <ns3:TrackPointExtension>
            <ns3:atemp>23.0</ns3:atemp>
            <ns3:hr>92</ns3:hr>
          </ns3:TrackPointExtension>
        </extensions>
      </trkpt>
      <trkpt lat="36.8135418556630611419677734375" lon="-118.4204877354204654693603515625">
        <ele>3310.39990234375</ele>
        <time>2021-06-26T16:08:56.000Z</time>
        <extensions>
          <ns3:TrackPointExtension>
            <ns3:atemp>23.0</ns3:atemp>
            <ns3:hr>90</ns3:hr>
          </ns3:TrackPointExtension>
        </extensions>
      </trkpt>
      <trkpt lat="36.813566498458385467529296875" lon="-118.42050307430326938629150390625">
        <ele>3310</ele>
        <time>2021-06-26T16:09:00.000Z</time>
        <extensions>
          <ns3:TrackPointExtension>
            <ns3:atemp>24.0</ns3:atemp>
            <ns3:hr>89</ns3:hr>
          </ns3:TrackPointExtension>
        </extensions>
      </trkpt>
      <trkpt lat="36.81357420980930328369140625" lon="-118.420507349073886871337890625">
        <ele>3309.800048828125</ele>
        <time>2021-06-26T16:09:01.000Z</time>
        <extensions>
          <ns3:TrackPointExtension>
            <ns3:atemp>23.0</ns3:atemp>
            <ns3:hr>89</ns3:hr>
          </ns3:TrackPointExtension>
        </extensions>
      </trkpt>
      <trkpt lat="36.81359390728175640106201171875" lon="-118.4205169044435024261474609375">
        <ele>3309.60009765625</ele>
        <time>2021-06-26T16:09:03.000Z</time>
        <extensions>
          <ns3:TrackPointExtension>
            <ns3:atemp>23.0</ns3:atemp>
            <ns3:hr>87</ns3:hr>
          </ns3:TrackPointExtension>
        </extensions>
      </trkpt>
      <trkpt lat="36.81360396556556224822998046875" lon="-118.42051816172897815704345703125">
        <ele>3309.199951171875</ele>
        <time>2021-06-26T16:09:04.000Z</time>
        <extensions>
          <ns3:TrackPointExtension>
            <ns3:atemp>24.0</ns3:atemp>
            <ns3:hr>85</ns3:hr>
          </ns3:TrackPointExtension>
        </extensions>
      </trkpt>
      <trkpt lat="36.81362274102866649627685546875" lon="-118.420521430671215057373046875">
        <ele>3308.60009765625</ele>
        <time>2021-06-26T16:09:06.000Z</time>
        <extensions>
          <ns3:TrackPointExtension>
            <ns3:atemp>24.0</ns3:atemp>
            <ns3:hr>88</ns3:hr>
          </ns3:TrackPointExtension>
        </extensions>
      </trkpt>
      <trkpt lat="36.81363615207374095916748046875" lon="-118.42052302323281764984130859375">
        <ele>3308.199951171875</ele>
        <time>2021-06-26T16:09:07.000Z</time>
        <extensions>
          <ns3:TrackPointExtension>
            <ns3:atemp>24.0</ns3:atemp>
            <ns3:hr>87</ns3:hr>
          </ns3:TrackPointExtension>
        </extensions>
      </trkpt>
      <trkpt lat="36.81364260613918304443359375" lon="-118.4205252863466739654541015625">
        <ele>3308.199951171875</ele>
        <time>2021-06-26T16:09:08.000Z</time>
        <extensions>
          <ns3:TrackPointExtension>
            <ns3:atemp>24.0</ns3:atemp>
            <ns3:hr>89</ns3:hr>
          </ns3:TrackPointExtension>
        </extensions>
      </trkpt>
      <trkpt lat="36.813686527311801910400390625" lon="-118.42052218504250049591064453125">
        <ele>3308</ele>
        <time>2021-06-26T16:09:12.000Z</time>
        <extensions>
          <ns3:TrackPointExtension>
            <ns3:atemp>24.0</ns3:atemp>
            <ns3:hr>85</ns3:hr>
          </ns3:TrackPointExtension>
        </extensions>
      </trkpt>
      <trkpt lat="36.8137061409652233123779296875" lon="-118.42053727246820926666259765625">
        <ele>3307.800048828125</ele>
        <time>2021-06-26T16:09:15.000Z</time>
        <extensions>
          <ns3:TrackPointExtension>
            <ns3:atemp>24.0</ns3:atemp>
            <ns3:hr>87</ns3:hr>
          </ns3:TrackPointExtension>
        </extensions>
      </trkpt>
      <trkpt lat="36.81371636688709259033203125" lon="-118.420549593865871429443359375">
        <ele>3307.800048828125</ele>
        <time>2021-06-26T16:09:16.000Z</time>
        <extensions>
          <ns3:TrackPointExtension>
            <ns3:atemp>24.0</ns3:atemp>
            <ns3:hr>86</ns3:hr>
          </ns3:TrackPointExtension>
        </extensions>
      </trkpt>
      <trkpt lat="36.81374276988208293914794921875" lon="-118.4205668605864048004150390625">
        <ele>3307.39990234375</ele>
        <time>2021-06-26T16:09:19.000Z</time>
        <extensions>
          <ns3:TrackPointExtension>
            <ns3:atemp>24.0</ns3:atemp>
            <ns3:hr>89</ns3:hr>
          </ns3:TrackPointExtension>
        </extensions>
      </trkpt>
      <trkpt lat="36.81375266052782535552978515625" lon="-118.4205695427954196929931640625">
        <ele>3307</ele>
        <time>2021-06-26T16:09:20.000Z</time>
        <extensions>
          <ns3:TrackPointExtension>
            <ns3:atemp>24.0</ns3:atemp>
            <ns3:hr>90</ns3:hr>
          </ns3:TrackPointExtension>
        </extensions>
      </trkpt>
      <trkpt lat="36.8137787282466888427734375" lon="-118.420563675463199615478515625">
        <ele>3306.39990234375</ele>
        <time>2021-06-26T16:09:23.000Z</time>
        <extensions>
          <ns3:TrackPointExtension>
            <ns3:atemp>24.0</ns3:atemp>
            <ns3:hr>87</ns3:hr>
          </ns3:TrackPointExtension>
        </extensions>
      </trkpt>
      <trkpt lat="36.81378484703600406646728515625" lon="-118.42056996189057826995849609375">
        <ele>3306.39990234375</ele>
        <time>2021-06-26T16:09:24.000Z</time>
        <extensions>
          <ns3:TrackPointExtension>
            <ns3:atemp>24.0</ns3:atemp>
            <ns3:hr>87</ns3:hr>
          </ns3:TrackPointExtension>
        </extensions>
      </trkpt>
      <trkpt lat="36.81379188783466815948486328125" lon="-118.42057742178440093994140625">
        <ele>3306.199951171875</ele>
        <time>2021-06-26T16:09:25.000Z</time>
        <extensions>
          <ns3:TrackPointExtension>
            <ns3:atemp>24.0</ns3:atemp>
            <ns3:hr>87</ns3:hr>
          </ns3:TrackPointExtension>
        </extensions>
      </trkpt>
      <trkpt lat="36.81380077265202999114990234375" lon="-118.420581780374050140380859375">
        <ele>3305.800048828125</ele>
        <time>2021-06-26T16:09:26.000Z</time>
        <extensions>
          <ns3:TrackPointExtension>
            <ns3:atemp>24.0</ns3:atemp>
            <ns3:hr>88</ns3:hr>
          </ns3:TrackPointExtension>
        </extensions>
      </trkpt>
      <trkpt lat="36.81382021866738796234130859375" lon="-118.4205968677997589111328125">
        <ele>3304.60009765625</ele>
        <time>2021-06-26T16:09:30.000Z</time>
        <extensions>
          <ns3:TrackPointExtension>
            <ns3:atemp>24.0</ns3:atemp>
            <ns3:hr>85</ns3:hr>
          </ns3:TrackPointExtension>
        </extensions>
      </trkpt>
      <trkpt lat="36.8138275109231472015380859375" lon="-118.42060214839875698089599609375">
        <ele>3304.199951171875</ele>
        <time>2021-06-26T16:09:32.000Z</time>
        <extensions>
          <ns3:TrackPointExtension>
            <ns3:atemp>24.0</ns3:atemp>
            <ns3:hr>85</ns3:hr>
          </ns3:TrackPointExtension>
        </extensions>
      </trkpt>
      <trkpt lat="36.813812591135501861572265625" lon="-118.42061304487287998199462890625">
        <ele>3303.800048828125</ele>
        <time>2021-06-26T16:09:35.000Z</time>
        <extensions>
          <ns3:TrackPointExtension>
            <ns3:atemp>24.0</ns3:atemp>
            <ns3:hr>86</ns3:hr>
          </ns3:TrackPointExtension>
        </extensions>
      </trkpt>
      <trkpt lat="36.81380546651780605316162109375" lon="-118.420617990195751190185546875">
        <ele>3303.39990234375</ele>
        <time>2021-06-26T16:09:36.000Z</time>
        <extensions>
          <ns3:TrackPointExtension>
            <ns3:atemp>24.0</ns3:atemp>
            <ns3:hr>86</ns3:hr>
          </ns3:TrackPointExtension>
        </extensions>
      </trkpt>
      <trkpt lat="36.81380362249910831451416015625" lon="-118.42063232325017452239990234375">
        <ele>3303</ele>
        <time>2021-06-26T16:09:38.000Z</time>
        <extensions>
          <ns3:TrackPointExtension>
            <ns3:atemp>24.0</ns3:atemp>
            <ns3:hr>89</ns3:hr>
          </ns3:TrackPointExtension>
        </extensions>
      </trkpt>
      <trkpt lat="36.813802532851696014404296875" lon="-118.42064556665718555450439453125">
        <ele>3302.60009765625</ele>
        <time>2021-06-26T16:09:40.000Z</time>
        <extensions>
          <ns3:TrackPointExtension>
            <ns3:atemp>24.0</ns3:atemp>
            <ns3:hr>86</ns3:hr>
          </ns3:TrackPointExtension>
        </extensions>
      </trkpt>
      <trkpt lat="36.81381753645837306976318359375" lon="-118.42066350392997264862060546875">
        <ele>3302.60009765625</ele>
        <time>2021-06-26T16:09:42.000Z</time>
        <extensions>
          <ns3:TrackPointExtension>
            <ns3:atemp>24.0</ns3:atemp>
            <ns3:hr>83</ns3:hr>
          </ns3:TrackPointExtension>
        </extensions>
      </trkpt>
      <trkpt lat="36.8138214759528636932373046875" lon="-118.420667946338653564453125">
        <ele>3302.199951171875</ele>
        <time>2021-06-26T16:09:43.000Z</time>
        <extensions>
          <ns3:TrackPointExtension>
            <ns3:atemp>24.0</ns3:atemp>
            <ns3:hr>84</ns3:hr>
          </ns3:TrackPointExtension>
        </extensions>
      </trkpt>
      <trkpt lat="36.81382508017122745513916015625" lon="-118.42068471014499664306640625">
        <ele>3302</ele>
        <time>2021-06-26T16:09:45.000Z</time>
        <extensions>
          <ns3:TrackPointExtension>
            <ns3:atemp>24.0</ns3:atemp>
            <ns3:hr>81</ns3:hr>
          </ns3:TrackPointExtension>
        </extensions>
      </trkpt>
      <trkpt lat="36.81382122449576854705810546875" lon="-118.42068144120275974273681640625">
        <ele>3302</ele>
        <time>2021-06-26T16:09:46.000Z</time>
        <extensions>
          <ns3:TrackPointExtension>
            <ns3:atemp>24.0</ns3:atemp>
            <ns3:hr>79</ns3:hr>
          </ns3:TrackPointExtension>
        </extensions>
      </trkpt>
      <trkpt lat="36.8138332106173038482666015625" lon="-118.42071295715868473052978515625">
        <ele>3300.800048828125</ele>
        <time>2021-06-26T16:09:51.000Z</time>
        <extensions>
          <ns3:TrackPointExtension>
            <ns3:atemp>24.0</ns3:atemp>
            <ns3:hr>77</ns3:hr>
          </ns3:TrackPointExtension>
        </extensions>
      </trkpt>
      <trkpt lat="36.8138332106173038482666015625" lon="-118.42072217725217342376708984375">
        <ele>3300.39990234375</ele>
        <time>2021-06-26T16:09:53.000Z</time>
        <extensions>
          <ns3:TrackPointExtension>
            <ns3:atemp>24.0</ns3:atemp>
            <ns3:hr>76</ns3:hr>
          </ns3:TrackPointExtension>
        </extensions>
      </trkpt>
      <trkpt lat="36.81382977403700351715087890625" lon="-118.42072502709925174713134765625">
        <ele>3300.199951171875</ele>
        <time>2021-06-26T16:09:54.000Z</time>
        <extensions>
          <ns3:TrackPointExtension>
            <ns3:atemp>24.0</ns3:atemp>
            <ns3:hr>76</ns3:hr>
          </ns3:TrackPointExtension>
        </extensions>
      </trkpt>
      <trkpt lat="36.81382390670478343963623046875" lon="-118.42073491774499416351318359375">
        <ele>3299.800048828125</ele>
        <time>2021-06-26T16:09:56.000Z</time>
        <extensions>
          <ns3:TrackPointExtension>
            <ns3:atemp>24.0</ns3:atemp>
            <ns3:hr>75</ns3:hr>
          </ns3:TrackPointExtension>
        </extensions>
      </trkpt>
      <trkpt lat="36.81382005102932453155517578125" lon="-118.4207578003406524658203125">
        <ele>3299.39990234375</ele>
        <time>2021-06-26T16:09:59.000Z</time>
        <extensions>
          <ns3:TrackPointExtension>
            <ns3:atemp>24.0</ns3:atemp>
            <ns3:hr>78</ns3:hr>
          </ns3:TrackPointExtension>
        </extensions>
      </trkpt>
      <trkpt lat="36.81380094029009342193603515625" lon="-118.42077146284282207489013671875">
        <ele>3299.199951171875</ele>
        <time>2021-06-26T16:10:02.000Z</time>
        <extensions>
          <ns3:TrackPointExtension>
            <ns3:atemp>24.0</ns3:atemp>
            <ns3:hr>75</ns3:hr>
          </ns3:TrackPointExtension>
        </extensions>
      </trkpt>
      <trkpt lat="36.81379222311079502105712890625" lon="-118.42077431268990039825439453125">
        <ele>3299</ele>
        <time>2021-06-26T16:10:03.000Z</time>
        <extensions>
          <ns3:TrackPointExtension>
            <ns3:atemp>24.0</ns3:atemp>
            <ns3:hr>76</ns3:hr>
          </ns3:TrackPointExtension>
        </extensions>
      </trkpt>
      <trkpt lat="36.81378350593149662017822265625" lon="-118.420782275497913360595703125">
        <ele>3298.39990234375</ele>
        <time>2021-06-26T16:10:04.000Z</time>
        <extensions>
          <ns3:TrackPointExtension>
            <ns3:atemp>24.0</ns3:atemp>
            <ns3:hr>76</ns3:hr>
          </ns3:TrackPointExtension>
        </extensions>
      </trkpt>
      <trkpt lat="36.8137701787054538726806640625" lon="-118.42081136070191860198974609375">
        <ele>3298.199951171875</ele>
        <time>2021-06-26T16:10:07.000Z</time>
        <extensions>
          <ns3:TrackPointExtension>
            <ns3:atemp>24.0</ns3:atemp>
            <ns3:hr>79</ns3:hr>
          </ns3:TrackPointExtension>
        </extensions>
      </trkpt>
      <trkpt lat="36.81378954090178012847900390625" lon="-118.4208598919212818145751953125">
        <ele>3298</ele>
        <time>2021-06-26T16:10:10.000Z</time>
        <extensions>
          <ns3:TrackPointExtension>
            <ns3:atemp>24.0</ns3:atemp>
            <ns3:hr>77</ns3:hr>
          </ns3:TrackPointExtension>
        </extensions>
      </trkpt>
      <trkpt lat="36.81381200440227985382080078125" lon="-118.420889563858509063720703125">
        <ele>3297.39990234375</ele>
        <time>2021-06-26T16:10:15.000Z</time>
        <extensions>
          <ns3:TrackPointExtension>
            <ns3:atemp>24.0</ns3:atemp>
            <ns3:hr>77</ns3:hr>
          </ns3:TrackPointExtension>
        </extensions>
      </trkpt>
      <trkpt lat="36.81380446068942546844482421875" lon="-118.4209118597209453582763671875">
        <ele>3297</ele>
        <time>2021-06-26T16:10:17.000Z</time>
        <extensions>
          <ns3:TrackPointExtension>
            <ns3:atemp>24.0</ns3:atemp>
            <ns3:hr>77</ns3:hr>
          </ns3:TrackPointExtension>
        </extensions>
      </trkpt>
      <trkpt lat="36.81377193890511989593505859375" lon="-118.4209400229156017303466796875">
        <ele>3296.39990234375</ele>
        <time>2021-06-26T16:10:22.000Z</time>
        <extensions>
          <ns3:TrackPointExtension>
            <ns3:atemp>24.0</ns3:atemp>
            <ns3:hr>76</ns3:hr>
          </ns3:TrackPointExtension>
        </extensions>
      </trkpt>
      <trkpt lat="36.81375483982264995574951171875" lon="-118.4209490753710269927978515625">
        <ele>3296</ele>
        <time>2021-06-26T16:10:25.000Z</time>
        <extensions>
          <ns3:TrackPointExtension>
            <ns3:atemp>24.0</ns3:atemp>
            <ns3:hr>77</ns3:hr>
          </ns3:TrackPointExtension>
        </extensions>
      </trkpt>
      <trkpt lat="36.81373874656856060028076171875" lon="-118.42094756662845611572265625">
        <ele>3295.800048828125</ele>
        <time>2021-06-26T16:10:27.000Z</time>
        <extensions>
          <ns3:TrackPointExtension>
            <ns3:atemp>24.0</ns3:atemp>
            <ns3:hr>78</ns3:hr>
          </ns3:TrackPointExtension>
        </extensions>
      </trkpt>
      <trkpt lat="36.8137252517044544219970703125" lon="-118.42096625827252864837646484375">
        <ele>3295.60009765625</ele>
        <time>2021-06-26T16:10:29.000Z</time>
        <extensions>
          <ns3:TrackPointExtension>
            <ns3:atemp>24.0</ns3:atemp>
            <ns3:hr>77</ns3:hr>
          </ns3:TrackPointExtension>
        </extensions>
      </trkpt>
      <trkpt lat="36.81371594779193401336669921875" lon="-118.42099358327686786651611328125">
        <ele>3295.39990234375</ele>
        <time>2021-06-26T16:10:32.000Z</time>
        <extensions>
          <ns3:TrackPointExtension>
            <ns3:atemp>24.0</ns3:atemp>
            <ns3:hr>77</ns3:hr>
          </ns3:TrackPointExtension>
        </extensions>
      </trkpt>
      <trkpt lat="36.8136709369719028472900390625" lon="-118.4210513345897197723388671875">
        <ele>3295.39990234375</ele>
        <time>2021-06-26T16:10:41.000Z</time>
        <extensions>
          <ns3:TrackPointExtension>
            <ns3:atemp>24.0</ns3:atemp>
            <ns3:hr>78</ns3:hr>
          </ns3:TrackPointExtension>
        </extensions>
      </trkpt>
      <trkpt lat="36.81366515345871448516845703125" lon="-118.42106164433062076568603515625">
        <ele>3295.39990234375</ele>
        <time>2021-06-26T16:10:42.000Z</time>
        <extensions>
          <ns3:TrackPointExtension>
            <ns3:atemp>24.0</ns3:atemp>
            <ns3:hr>78</ns3:hr>
          </ns3:TrackPointExtension>
        </extensions>
      </trkpt>
      <trkpt lat="36.8136612139642238616943359375" lon="-118.42106818221509456634521484375">
        <ele>3295.199951171875</ele>
        <time>2021-06-26T16:10:43.000Z</time>
        <extensions>
          <ns3:TrackPointExtension>
            <ns3:atemp>24.0</ns3:atemp>
            <ns3:hr>79</ns3:hr>
          </ns3:TrackPointExtension>
        </extensions>
      </trkpt>
      <trkpt lat="36.81363497860729694366455078125" lon="-118.42105829156935214996337890625">
        <ele>3295</ele>
        <time>2021-06-26T16:10:49.000Z</time>
        <extensions>
          <ns3:TrackPointExtension>
            <ns3:atemp>24.0</ns3:atemp>
            <ns3:hr>77</ns3:hr>
          </ns3:TrackPointExtension>
        </extensions>
      </trkpt>
      <trkpt lat="36.81361519731581211090087890625" lon="-118.4211123548448085784912109375">
        <ele>3296</ele>
        <time>2021-06-26T16:10:54.000Z</time>
        <extensions>
          <ns3:TrackPointExtension>
            <ns3:atemp>24.0</ns3:atemp>
            <ns3:hr>74</ns3:hr>
          </ns3:TrackPointExtension>
        </extensions>
      </trkpt>
      <trkpt lat="36.8136156164109706878662109375" lon="-118.4211240895092487335205078125">
        <ele>3296.199951171875</ele>
        <time>2021-06-26T16:10:55.000Z</time>
        <extensions>
          <ns3:TrackPointExtension>
            <ns3:atemp>24.0</ns3:atemp>
            <ns3:hr>74</ns3:hr>
          </ns3:TrackPointExtension>
        </extensions>
      </trkpt>
      <trkpt lat="36.8136592023074626922607421875" lon="-118.4212028793990612030029296875">
        <ele>3295.199951171875</ele>
        <time>2021-06-26T16:11:04.000Z</time>
        <extensions>
          <ns3:TrackPointExtension>
            <ns3:atemp>24.0</ns3:atemp>
            <ns3:hr>75</ns3:hr>
          </ns3:TrackPointExtension>
        </extensions>
      </trkpt>
      <trkpt lat="36.81369222700595855712890625" lon="-118.4212176315486431121826171875">
        <ele>3294.800048828125</ele>
        <time>2021-06-26T16:11:08.000Z</time>
        <extensions>
          <ns3:TrackPointExtension>
            <ns3:atemp>24.0</ns3:atemp>
            <ns3:hr>76</ns3:hr>
          </ns3:TrackPointExtension>
        </extensions>
      </trkpt>
      <trkpt lat="36.81370790116488933563232421875" lon="-118.42123045586049556732177734375">
        <ele>3294.39990234375</ele>
        <time>2021-06-26T16:11:10.000Z</time>
        <extensions>
          <ns3:TrackPointExtension>
            <ns3:atemp>24.0</ns3:atemp>
            <ns3:hr>76</ns3:hr>
          </ns3:TrackPointExtension>
        </extensions>
      </trkpt>
      <trkpt lat="36.8137115053832530975341796875" lon="-118.421232216060161590576171875">
        <ele>3294</ele>
        <time>2021-06-26T16:11:11.000Z</time>
        <extensions>
          <ns3:TrackPointExtension>
            <ns3:atemp>24.0</ns3:atemp>
            <ns3:hr>76</ns3:hr>
          </ns3:TrackPointExtension>
        </extensions>
      </trkpt>
      <trkpt lat="36.8137205578386783599853515625" lon="-118.42124621383845806121826171875">
        <ele>3293</ele>
        <time>2021-06-26T16:11:18.000Z</time>
        <extensions>
          <ns3:TrackPointExtension>
            <ns3:atemp>24.0</ns3:atemp>
            <ns3:hr>77</ns3:hr>
          </ns3:TrackPointExtension>
        </extensions>
      </trkpt>
      <trkpt lat="36.8137188814580440521240234375" lon="-118.4212407656013965606689453125">
        <ele>3293.39990234375</ele>
        <time>2021-06-26T16:11:37.000Z</time>
        <extensions>
          <ns3:TrackPointExtension>
            <ns3:atemp>25.0</ns3:atemp>
            <ns3:hr>76</ns3:hr>
          </ns3:TrackPointExtension>
        </extensions>
      </trkpt>
      <trkpt lat="36.81372064165771007537841796875" lon="-118.42123816721141338348388671875">
        <ele>3293.39990234375</ele>
        <time>2021-06-26T16:11:49.000Z</time>
        <extensions>
          <ns3:TrackPointExtension>
            <ns3:atemp>25.0</ns3:atemp>
            <ns3:hr>73</ns3:hr>
          </ns3:TrackPointExtension>
        </extensions>
      </trkpt>
      <trkpt lat="36.81372533552348613739013671875" lon="-118.42123816721141338348388671875">
        <ele>3293</ele>
        <time>2021-06-26T16:11:56.000Z</time>
        <extensions>
          <ns3:TrackPointExtension>
            <ns3:atemp>25.0</ns3:atemp>
            <ns3:hr>76</ns3:hr>
          </ns3:TrackPointExtension>
        </extensions>
      </trkpt>
      <trkpt lat="36.81373514235019683837890625" lon="-118.42124034650623798370361328125">
        <ele>3293</ele>
        <time>2021-06-26T16:12:05.000Z</time>
        <extensions>
          <ns3:TrackPointExtension>
            <ns3:atemp>25.0</ns3:atemp>
            <ns3:hr>79</ns3:hr>
          </ns3:TrackPointExtension>
        </extensions>
      </trkpt>
      <trkpt lat="36.81373522616922855377197265625" lon="-118.4212404303252696990966796875">
        <ele>3293</ele>
        <time>2021-06-26T16:12:06.000Z</time>
        <extensions>
          <ns3:TrackPointExtension>
            <ns3:atemp>25.0</ns3:atemp>
            <ns3:hr>79</ns3:hr>
          </ns3:TrackPointExtension>
        </extensions>
      </trkpt>
      <trkpt lat="36.8137353099882602691650390625" lon="-118.4212404303252696990966796875">
        <ele>3292.800048828125</ele>
        <time>2021-06-26T16:12:07.000Z</time>
        <extensions>
          <ns3:TrackPointExtension>
            <ns3:atemp>25.0</ns3:atemp>
            <ns3:hr>76</ns3:hr>
          </ns3:TrackPointExtension>
        </extensions>
      </trkpt>
      <trkpt lat="36.81377847678959369659423828125" lon="-118.421269096434116363525390625">
        <ele>3292.800048828125</ele>
        <time>2021-06-26T16:12:15.000Z</time>
        <extensions>
          <ns3:TrackPointExtension>
            <ns3:atemp>25.0</ns3:atemp>
            <ns3:hr>79</ns3:hr>
          </ns3:TrackPointExtension>
        </extensions>
      </trkpt>
      <trkpt lat="36.8137929774820804595947265625" lon="-118.42128175310790538787841796875">
        <ele>3292.800048828125</ele>
        <time>2021-06-26T16:12:16.000Z</time>
        <extensions>
          <ns3:TrackPointExtension>
            <ns3:atemp>25.0</ns3:atemp>
            <ns3:hr>77</ns3:hr>
          </ns3:TrackPointExtension>
        </extensions>
      </trkpt>
      <trkpt lat="36.8139200471341609954833984375" lon="-118.42138417996466159820556640625">
        <ele>3293.39990234375</ele>
        <time>2021-06-26T16:12:25.000Z</time>
        <extensions>
          <ns3:TrackPointExtension>
            <ns3:atemp>25.0</ns3:atemp>
            <ns3:hr>75</ns3:hr>
          </ns3:TrackPointExtension>
        </extensions>
      </trkpt>
      <trkpt lat="36.8139837495982646942138671875" lon="-118.42142826877534389495849609375">
        <ele>3292.800048828125</ele>
        <time>2021-06-26T16:12:33.000Z</time>
        <extensions>
          <ns3:TrackPointExtension>
            <ns3:atemp>25.0</ns3:atemp>
            <ns3:hr>73</ns3:hr>
          </ns3:TrackPointExtension>
        </extensions>
      </trkpt>
      <trkpt lat="36.81401803158223628997802734375" lon="-118.4214524924755096435546875">
        <ele>3292.39990234375</ele>
        <time>2021-06-26T16:12:37.000Z</time>
        <extensions>
          <ns3:TrackPointExtension>
            <ns3:atemp>25.0</ns3:atemp>
            <ns3:hr>74</ns3:hr>
          </ns3:TrackPointExtension>
        </extensions>
      </trkpt>
      <trkpt lat="36.81407704018056392669677734375" lon="-118.42148794792592525482177734375">
        <ele>3292.39990234375</ele>
        <time>2021-06-26T16:12:42.000Z</time>
        <extensions>
          <ns3:TrackPointExtension>
            <ns3:atemp>25.0</ns3:atemp>
            <ns3:hr>75</ns3:hr>
          </ns3:TrackPointExtension>
        </extensions>
      </trkpt>
      <trkpt lat="36.81414510123431682586669921875" lon="-118.42153840698301792144775390625">
        <ele>3292.199951171875</ele>
        <time>2021-06-26T16:12:50.000Z</time>
        <extensions>
          <ns3:TrackPointExtension>
            <ns3:atemp>25.0</ns3:atemp>
            <ns3:hr>75</ns3:hr>
          </ns3:TrackPointExtension>
        </extensions>
      </trkpt>
      <trkpt lat="36.8141998350620269775390625" lon="-118.42154972255229949951171875">
        <ele>3292.60009765625</ele>
        <time>2021-06-26T16:12:55.000Z</time>
        <extensions>
          <ns3:TrackPointExtension>
            <ns3:atemp>25.0</ns3:atemp>
            <ns3:hr>72</ns3:hr>
          </ns3:TrackPointExtension>
        </extensions>
      </trkpt>
      <trkpt lat="36.81423939764499664306640625" lon="-118.42156958766281604766845703125">
        <ele>3293</ele>
        <time>2021-06-26T16:12:59.000Z</time>
        <extensions>
          <ns3:TrackPointExtension>
            <ns3:atemp>25.0</ns3:atemp>
            <ns3:hr>78</ns3:hr>
          </ns3:TrackPointExtension>
        </extensions>
      </trkpt>
      <trkpt lat="36.81424769572913646697998046875" lon="-118.42157654464244842529296875">
        <ele>3293</ele>
        <time>2021-06-26T16:13:00.000Z</time>
        <extensions>
          <ns3:TrackPointExtension>
            <ns3:atemp>25.0</ns3:atemp>
            <ns3:hr>81</ns3:hr>
          </ns3:TrackPointExtension>
        </extensions>
      </trkpt>
      <trkpt lat="36.81425590999424457550048828125" lon="-118.421582244336605072021484375">
        <ele>3293</ele>
        <time>2021-06-26T16:13:01.000Z</time>
        <extensions>
          <ns3:TrackPointExtension>
            <ns3:atemp>25.0</ns3:atemp>
            <ns3:hr>84</ns3:hr>
          </ns3:TrackPointExtension>
        </extensions>
      </trkpt>
      <trkpt lat="36.81427585892379283905029296875" lon="-118.42159104533493518829345703125">
        <ele>3293.60009765625</ele>
        <time>2021-06-26T16:13:03.000Z</time>
        <extensions>
          <ns3:TrackPointExtension>
            <ns3:atemp>25.0</ns3:atemp>
            <ns3:hr>88</ns3:hr>
          </ns3:TrackPointExtension>
        </extensions>
      </trkpt>
      <trkpt lat="36.814288012683391571044921875" lon="-118.42159221880137920379638671875">
        <ele>3293.800048828125</ele>
        <time>2021-06-26T16:13:04.000Z</time>
        <extensions>
          <ns3:TrackPointExtension>
            <ns3:atemp>25.0</ns3:atemp>
            <ns3:hr>90</ns3:hr>
          </ns3:TrackPointExtension>
        </extensions>
      </trkpt>
      <trkpt lat="36.81431056000292301177978515625" lon="-118.421593643724918365478515625">
        <ele>3294</ele>
        <time>2021-06-26T16:13:06.000Z</time>
        <extensions>
          <ns3:TrackPointExtension>
            <ns3:atemp>25.0</ns3:atemp>
            <ns3:hr>93</ns3:hr>
          </ns3:TrackPointExtension>
        </extensions>
      </trkpt>
      <trkpt lat="36.814328916370868682861328125" lon="-118.42160294763743877410888671875">
        <ele>3294</ele>
        <time>2021-06-26T16:13:08.000Z</time>
        <extensions>
          <ns3:TrackPointExtension>
            <ns3:atemp>25.0</ns3:atemp>
            <ns3:hr>95</ns3:hr>
          </ns3:TrackPointExtension>
        </extensions>
      </trkpt>
      <trkpt lat="36.81435330770909786224365234375" lon="-118.42160546220839023590087890625">
        <ele>3294</ele>
        <time>2021-06-26T16:13:11.000Z</time>
        <extensions>
          <ns3:TrackPointExtension>
            <ns3:atemp>25.0</ns3:atemp>
            <ns3:hr>98</ns3:hr>
          </ns3:TrackPointExtension>
        </extensions>
      </trkpt>
      <trkpt lat="36.8144021742045879364013671875" lon="-118.4216092340648174285888671875">
        <ele>3294.60009765625</ele>
        <time>2021-06-26T16:13:16.000Z</time>
        <extensions>
          <ns3:TrackPointExtension>
            <ns3:atemp>25.0</ns3:atemp>
            <ns3:hr>101</ns3:hr>
          </ns3:TrackPointExtension>
        </extensions>
      </trkpt>
      <trkpt lat="36.81441851891577243804931640625" lon="-118.42161501757800579071044921875">
        <ele>3294.60009765625</ele>
        <time>2021-06-26T16:13:19.000Z</time>
        <extensions>
          <ns3:TrackPointExtension>
            <ns3:atemp>25.0</ns3:atemp>
            <ns3:hr>103</ns3:hr>
          </ns3:TrackPointExtension>
        </extensions>
      </trkpt>
      <trkpt lat="36.814424805343151092529296875" lon="-118.4216192923486232757568359375">
        <ele>3294.60009765625</ele>
        <time>2021-06-26T16:13:20.000Z</time>
        <extensions>
          <ns3:TrackPointExtension>
            <ns3:atemp>25.0</ns3:atemp>
            <ns3:hr>104</ns3:hr>
          </ns3:TrackPointExtension>
        </extensions>
      </trkpt>
      <trkpt lat="36.814434528350830078125" lon="-118.42162708751857280731201171875">
        <ele>3294.60009765625</ele>
        <time>2021-06-26T16:13:21.000Z</time>
        <extensions>
          <ns3:TrackPointExtension>
            <ns3:atemp>25.0</ns3:atemp>
            <ns3:hr>104</ns3:hr>
          </ns3:TrackPointExtension>
        </extensions>
      </trkpt>
      <trkpt lat="36.81445288471877574920654296875" lon="-118.42164133675396442413330078125">
        <ele>3294.60009765625</ele>
        <time>2021-06-26T16:13:23.000Z</time>
        <extensions>
          <ns3:TrackPointExtension>
            <ns3:atemp>25.0</ns3:atemp>
            <ns3:hr>105</ns3:hr>
          </ns3:TrackPointExtension>
        </extensions>
      </trkpt>
      <trkpt lat="36.81452647782862186431884765625" lon="-118.4216223098337650299072265625">
        <ele>3293.60009765625</ele>
        <time>2021-06-26T16:13:31.000Z</time>
        <extensions>
          <ns3:TrackPointExtension>
            <ns3:atemp>25.0</ns3:atemp>
            <ns3:hr>104</ns3:hr>
          </ns3:TrackPointExtension>
        </extensions>
      </trkpt>
      <trkpt lat="36.814521364867687225341796875" lon="-118.4216214716434478759765625">
        <ele>3293.39990234375</ele>
        <time>2021-06-26T16:13:33.000Z</time>
        <extensions>
          <ns3:TrackPointExtension>
            <ns3:atemp>25.0</ns3:atemp>
            <ns3:hr>104</ns3:hr>
          </ns3:TrackPointExtension>
        </extensions>
      </trkpt>
      <trkpt lat="36.81454592384397983551025390625" lon="-118.4216316975653171539306640625">
        <ele>3293.60009765625</ele>
        <time>2021-06-26T16:13:37.000Z</time>
        <extensions>
          <ns3:TrackPointExtension>
            <ns3:atemp>25.0</ns3:atemp>
            <ns3:hr>105</ns3:hr>
          </ns3:TrackPointExtension>
        </extensions>
      </trkpt>
      <trkpt lat="36.81461800821125507354736328125" lon="-118.421688191592693328857421875">
        <ele>3293.199951171875</ele>
        <time>2021-06-26T16:13:45.000Z</time>
        <extensions>
          <ns3:TrackPointExtension>
            <ns3:atemp>25.0</ns3:atemp>
            <ns3:hr>104</ns3:hr>
          </ns3:TrackPointExtension>
        </extensions>
      </trkpt>
      <trkpt lat="36.814632676541805267333984375" lon="-118.42172130011022090911865234375">
        <ele>3293.199951171875</ele>
        <time>2021-06-26T16:13:49.000Z</time>
        <extensions>
          <ns3:TrackPointExtension>
            <ns3:atemp>25.0</ns3:atemp>
            <ns3:hr>101</ns3:hr>
          </ns3:TrackPointExtension>
        </extensions>
      </trkpt>
      <trkpt lat="36.81463158689439296722412109375" lon="-118.4217423386871814727783203125">
        <ele>3293.199951171875</ele>
        <time>2021-06-26T16:13:52.000Z</time>
        <extensions>
          <ns3:TrackPointExtension>
            <ns3:atemp>25.0</ns3:atemp>
            <ns3:hr>100</ns3:hr>
          </ns3:TrackPointExtension>
        </extensions>
      </trkpt>
      <trkpt lat="36.81466343812644481658935546875" lon="-118.421784751117229461669921875">
        <ele>3293.199951171875</ele>
        <time>2021-06-26T16:13:58.000Z</time>
        <extensions>
          <ns3:TrackPointExtension>
            <ns3:atemp>25.0</ns3:atemp>
            <ns3:hr>105</ns3:hr>
          </ns3:TrackPointExtension>
        </extensions>
      </trkpt>
      <trkpt lat="36.81466897018253803253173828125" lon="-118.42179003171622753143310546875">
        <ele>3293</ele>
        <time>2021-06-26T16:13:59.000Z</time>
        <extensions>
          <ns3:TrackPointExtension>
            <ns3:atemp>25.0</ns3:atemp>
            <ns3:hr>105</ns3:hr>
          </ns3:TrackPointExtension>
        </extensions>
      </trkpt>
      <trkpt lat="36.81467366404831409454345703125" lon="-118.42179656960070133209228515625">
        <ele>3293</ele>
        <time>2021-06-26T16:14:00.000Z</time>
        <extensions>
          <ns3:TrackPointExtension>
            <ns3:atemp>25.0</ns3:atemp>
            <ns3:hr>100</ns3:hr>
          </ns3:TrackPointExtension>
        </extensions>
      </trkpt>
      <trkpt lat="36.81468062102794647216796875" lon="-118.42180277220904827117919921875">
        <ele>3292.800048828125</ele>
        <time>2021-06-26T16:14:01.000Z</time>
        <extensions>
          <ns3:TrackPointExtension>
            <ns3:atemp>25.0</ns3:atemp>
            <ns3:hr>100</ns3:hr>
          </ns3:TrackPointExtension>
        </extensions>
      </trkpt>
      <trkpt lat="36.81471414864063262939453125" lon="-118.42182062566280364990234375">
        <ele>3292.39990234375</ele>
        <time>2021-06-26T16:14:05.000Z</time>
        <extensions>
          <ns3:TrackPointExtension>
            <ns3:atemp>25.0</ns3:atemp>
            <ns3:hr>102</ns3:hr>
          </ns3:TrackPointExtension>
        </extensions>
      </trkpt>
      <trkpt lat="36.8147148191928863525390625" lon="-118.4218553267419338226318359375">
        <ele>3291.800048828125</ele>
        <time>2021-06-26T16:14:08.000Z</time>
        <extensions>
          <ns3:TrackPointExtension>
            <ns3:atemp>25.0</ns3:atemp>
            <ns3:hr>101</ns3:hr>
          </ns3:TrackPointExtension>
        </extensions>
      </trkpt>
      <trkpt lat="36.8147119693458080291748046875" lon="-118.4218989126384258270263671875">
        <ele>3291.800048828125</ele>
        <time>2021-06-26T16:14:11.000Z</time>
        <extensions>
          <ns3:TrackPointExtension>
            <ns3:atemp>25.0</ns3:atemp>
            <ns3:hr>100</ns3:hr>
          </ns3:TrackPointExtension>
        </extensions>
      </trkpt>
      <trkpt lat="36.8147324211895465850830078125" lon="-118.42200192622840404510498046875">
        <ele>3291.60009765625</ele>
        <time>2021-06-26T16:14:19.000Z</time>
        <extensions>
          <ns3:TrackPointExtension>
            <ns3:atemp>25.0</ns3:atemp>
            <ns3:hr>98</ns3:hr>
          </ns3:TrackPointExtension>
        </extensions>
      </trkpt>
      <trkpt lat="36.81474633514881134033203125" lon="-118.4220306761562824249267578125">
        <ele>3291.60009765625</ele>
        <time>2021-06-26T16:14:22.000Z</time>
        <extensions>
          <ns3:TrackPointExtension>
            <ns3:atemp>25.0</ns3:atemp>
            <ns3:hr>95</ns3:hr>
          </ns3:TrackPointExtension>
        </extensions>
      </trkpt>
      <trkpt lat="36.8147589080035686492919921875" lon="-118.422045595943927764892578125">
        <ele>3291</ele>
        <time>2021-06-26T16:14:24.000Z</time>
        <extensions>
          <ns3:TrackPointExtension>
            <ns3:atemp>24.0</ns3:atemp>
            <ns3:hr>92</ns3:hr>
          </ns3:TrackPointExtension>
        </extensions>
      </trkpt>
      <trkpt lat="36.81478430517017841339111328125" lon="-118.42206562869250774383544921875">
        <ele>3290.800048828125</ele>
        <time>2021-06-26T16:14:27.000Z</time>
        <extensions>
          <ns3:TrackPointExtension>
            <ns3:atemp>24.0</ns3:atemp>
            <ns3:hr>90</ns3:hr>
          </ns3:TrackPointExtension>
        </extensions>
      </trkpt>
      <trkpt lat="36.81479327380657196044921875" lon="-118.4220699034631252288818359375">
        <ele>3290.800048828125</ele>
        <time>2021-06-26T16:14:28.000Z</time>
        <extensions>
          <ns3:TrackPointExtension>
            <ns3:atemp>24.0</ns3:atemp>
            <ns3:hr>89</ns3:hr>
          </ns3:TrackPointExtension>
        </extensions>
      </trkpt>
      <trkpt lat="36.814817748963832855224609375" lon="-118.4221144951879978179931640625">
        <ele>3290.39990234375</ele>
        <time>2021-06-26T16:14:34.000Z</time>
        <extensions>
          <ns3:TrackPointExtension>
            <ns3:atemp>24.0</ns3:atemp>
            <ns3:hr>89</ns3:hr>
          </ns3:TrackPointExtension>
        </extensions>
      </trkpt>
      <trkpt lat="36.81480006314814090728759765625" lon="-118.42214005999267101287841796875">
        <ele>3290.39990234375</ele>
        <time>2021-06-26T16:14:36.000Z</time>
        <extensions>
          <ns3:TrackPointExtension>
            <ns3:atemp>24.0</ns3:atemp>
            <ns3:hr>88</ns3:hr>
          </ns3:TrackPointExtension>
        </extensions>
      </trkpt>
      <trkpt lat="36.8147897534072399139404296875" lon="-118.42213922180235385894775390625">
        <ele>3290.39990234375</ele>
        <time>2021-06-26T16:14:37.000Z</time>
        <extensions>
          <ns3:TrackPointExtension>
            <ns3:atemp>24.0</ns3:atemp>
            <ns3:hr>89</ns3:hr>
          </ns3:TrackPointExtension>
        </extensions>
      </trkpt>
      <trkpt lat="36.814775504171848297119140625" lon="-118.42215263284742832183837890625">
        <ele>3290.199951171875</ele>
        <time>2021-06-26T16:14:40.000Z</time>
        <extensions>
          <ns3:TrackPointExtension>
            <ns3:atemp>24.0</ns3:atemp>
            <ns3:hr>92</ns3:hr>
          </ns3:TrackPointExtension>
        </extensions>
      </trkpt>
      <trkpt lat="36.81476988829672336578369140625" lon="-118.42217191122472286224365234375">
        <ele>3290</ele>
        <time>2021-06-26T16:14:42.000Z</time>
        <extensions>
          <ns3:TrackPointExtension>
            <ns3:atemp>24.0</ns3:atemp>
            <ns3:hr>94</ns3:hr>
          </ns3:TrackPointExtension>
        </extensions>
      </trkpt>
      <trkpt lat="36.8147646076977252960205078125" lon="-118.4221825562417507171630859375">
        <ele>3289.800048828125</ele>
        <time>2021-06-26T16:14:43.000Z</time>
        <extensions>
          <ns3:TrackPointExtension>
            <ns3:atemp>24.0</ns3:atemp>
            <ns3:hr>95</ns3:hr>
          </ns3:TrackPointExtension>
        </extensions>
      </trkpt>
      <trkpt lat="36.81475446559488773345947265625" lon="-118.42220141552388668060302734375">
        <ele>3289.800048828125</ele>
        <time>2021-06-26T16:14:45.000Z</time>
        <extensions>
          <ns3:TrackPointExtension>
            <ns3:atemp>24.0</ns3:atemp>
            <ns3:hr>99</ns3:hr>
          </ns3:TrackPointExtension>
        </extensions>
      </trkpt>
      <trkpt lat="36.81475345976650714874267578125" lon="-118.422253467142581939697265625">
        <ele>3289.60009765625</ele>
        <time>2021-06-26T16:14:52.000Z</time>
        <extensions>
          <ns3:TrackPointExtension>
            <ns3:atemp>24.0</ns3:atemp>
            <ns3:hr>98</ns3:hr>
          </ns3:TrackPointExtension>
        </extensions>
      </trkpt>
      <trkpt lat="36.81475882418453693389892578125" lon="-118.42226763255894184112548828125">
        <ele>3289.199951171875</ele>
        <time>2021-06-26T16:15:08.000Z</time>
        <extensions>
          <ns3:TrackPointExtension>
            <ns3:atemp>24.0</ns3:atemp>
            <ns3:hr>95</ns3:hr>
          </ns3:TrackPointExtension>
        </extensions>
      </trkpt>
      <trkpt lat="36.81474859826266765594482421875" lon="-118.4222717396914958953857421875">
        <ele>3289.199951171875</ele>
        <time>2021-06-26T16:15:26.000Z</time>
        <extensions>
          <ns3:TrackPointExtension>
            <ns3:atemp>24.0</ns3:atemp>
            <ns3:hr>92</ns3:hr>
          </ns3:TrackPointExtension>
        </extensions>
      </trkpt>
      <trkpt lat="36.81473317556083202362060546875" lon="-118.42230317182838916778564453125">
        <ele>3289.39990234375</ele>
        <time>2021-06-26T16:15:31.000Z</time>
        <extensions>
          <ns3:TrackPointExtension>
            <ns3:atemp>24.0</ns3:atemp>
            <ns3:hr>94</ns3:hr>
          </ns3:TrackPointExtension>
        </extensions>
      </trkpt>
      <trkpt lat="36.81471473537385463714599609375" lon="-118.422381542623043060302734375">
        <ele>3289.39990234375</ele>
        <time>2021-06-26T16:15:36.000Z</time>
        <extensions>
          <ns3:TrackPointExtension>
            <ns3:atemp>24.0</ns3:atemp>
            <ns3:hr>90</ns3:hr>
          </ns3:TrackPointExtension>
        </extensions>
      </trkpt>
      <trkpt lat="36.814705766737461090087890625" lon="-118.422413058578968048095703125">
        <ele>3289.60009765625</ele>
        <time>2021-06-26T16:15:38.000Z</time>
        <extensions>
          <ns3:TrackPointExtension>
            <ns3:atemp>24.0</ns3:atemp>
            <ns3:hr>86</ns3:hr>
          </ns3:TrackPointExtension>
        </extensions>
      </trkpt>
      <trkpt lat="36.814701743423938751220703125" lon="-118.42243744991719722747802734375">
        <ele>3289.39990234375</ele>
        <time>2021-06-26T16:15:40.000Z</time>
        <extensions>
          <ns3:TrackPointExtension>
            <ns3:atemp>24.0</ns3:atemp>
            <ns3:hr>85</ns3:hr>
          </ns3:TrackPointExtension>
        </extensions>
      </trkpt>
      <trkpt lat="36.81467793881893157958984375" lon="-118.42252462171018123626708984375">
        <ele>3288.39990234375</ele>
        <time>2021-06-26T16:15:47.000Z</time>
        <extensions>
          <ns3:TrackPointExtension>
            <ns3:atemp>24.0</ns3:atemp>
            <ns3:hr>84</ns3:hr>
          </ns3:TrackPointExtension>
        </extensions>
      </trkpt>
      <trkpt lat="36.81466729380190372467041015625" lon="-118.42254976741969585418701171875">
        <ele>3288.39990234375</ele>
        <time>2021-06-26T16:15:49.000Z</time>
        <extensions>
          <ns3:TrackPointExtension>
            <ns3:atemp>24.0</ns3:atemp>
            <ns3:hr>83</ns3:hr>
          </ns3:TrackPointExtension>
        </extensions>
      </trkpt>
      <trkpt lat="36.81463745422661304473876953125" lon="-118.42267633415758609771728515625">
        <ele>3288.199951171875</ele>
        <time>2021-06-26T16:15:58.000Z</time>
        <extensions>
          <ns3:TrackPointExtension>
            <ns3:atemp>24.0</ns3:atemp>
            <ns3:hr>85</ns3:hr>
          </ns3:TrackPointExtension>
        </extensions>
      </trkpt>
      <trkpt lat="36.8146127276122570037841796875" lon="-118.422801308333873748779296875">
        <ele>3288.199951171875</ele>
        <time>2021-06-26T16:16:08.000Z</time>
        <extensions>
          <ns3:TrackPointExtension>
            <ns3:atemp>24.0</ns3:atemp>
            <ns3:hr>84</ns3:hr>
          </ns3:TrackPointExtension>
        </extensions>
      </trkpt>
      <trkpt lat="36.8146048486232757568359375" lon="-118.422845564782619476318359375">
        <ele>3287.800048828125</ele>
        <time>2021-06-26T16:16:12.000Z</time>
        <extensions>
          <ns3:TrackPointExtension>
            <ns3:atemp>24.0</ns3:atemp>
            <ns3:hr>85</ns3:hr>
          </ns3:TrackPointExtension>
        </extensions>
      </trkpt>
      <trkpt lat="36.81458917446434497833251953125" lon="-118.42289241962134838104248046875">
        <ele>3287.60009765625</ele>
        <time>2021-06-26T16:16:16.000Z</time>
        <extensions>
          <ns3:TrackPointExtension>
            <ns3:atemp>25.0</ns3:atemp>
            <ns3:hr>87</ns3:hr>
          </ns3:TrackPointExtension>
        </extensions>
      </trkpt>
      <trkpt lat="36.81460644118487834930419921875" lon="-118.42296936549246311187744140625">
        <ele>3288</ele>
        <time>2021-06-26T16:16:23.000Z</time>
        <extensions>
          <ns3:TrackPointExtension>
            <ns3:atemp>25.0</ns3:atemp>
            <ns3:hr>87</ns3:hr>
          </ns3:TrackPointExtension>
        </extensions>
      </trkpt>
      <trkpt lat="36.814606525003910064697265625" lon="-118.422995097935199737548828125">
        <ele>3288.60009765625</ele>
        <time>2021-06-26T16:16:28.000Z</time>
        <extensions>
          <ns3:TrackPointExtension>
            <ns3:atemp>25.0</ns3:atemp>
            <ns3:hr>88</ns3:hr>
          </ns3:TrackPointExtension>
        </extensions>
      </trkpt>
      <trkpt lat="36.81460007093846797943115234375" lon="-118.42300213873386383056640625">
        <ele>3288.800048828125</ele>
        <time>2021-06-26T16:16:29.000Z</time>
        <extensions>
          <ns3:TrackPointExtension>
            <ns3:atemp>25.0</ns3:atemp>
            <ns3:hr>89</ns3:hr>
          </ns3:TrackPointExtension>
        </extensions>
      </trkpt>
      <trkpt lat="36.814600490033626556396484375" lon="-118.42301311902701854705810546875">
        <ele>3289</ele>
        <time>2021-06-26T16:16:30.000Z</time>
        <extensions>
          <ns3:TrackPointExtension>
            <ns3:atemp>25.0</ns3:atemp>
            <ns3:hr>94</ns3:hr>
          </ns3:TrackPointExtension>
        </extensions>
      </trkpt>
      <trkpt lat="36.8146023340523242950439453125" lon="-118.42302552424371242523193359375">
        <ele>3289.199951171875</ele>
        <time>2021-06-26T16:16:31.000Z</time>
        <extensions>
          <ns3:TrackPointExtension>
            <ns3:atemp>25.0</ns3:atemp>
            <ns3:hr>97</ns3:hr>
          </ns3:TrackPointExtension>
        </extensions>
      </trkpt>
      <trkpt lat="36.8146154098212718963623046875" lon="-118.42304279096424579620361328125">
        <ele>3289.39990234375</ele>
        <time>2021-06-26T16:16:33.000Z</time>
        <extensions>
          <ns3:TrackPointExtension>
            <ns3:atemp>25.0</ns3:atemp>
            <ns3:hr>96</ns3:hr>
          </ns3:TrackPointExtension>
        </extensions>
      </trkpt>
      <trkpt lat="36.81462488137185573577880859375" lon="-118.4230422042310237884521484375">
        <ele>3289.39990234375</ele>
        <time>2021-06-26T16:16:34.000Z</time>
        <extensions>
          <ns3:TrackPointExtension>
            <ns3:atemp>25.0</ns3:atemp>
            <ns3:hr>97</ns3:hr>
          </ns3:TrackPointExtension>
        </extensions>
      </trkpt>
      <trkpt lat="36.81464231573045253753662109375" lon="-118.42303700745105743408203125">
        <ele>3289.39990234375</ele>
        <time>2021-06-26T16:16:35.000Z</time>
        <extensions>
          <ns3:TrackPointExtension>
            <ns3:atemp>25.0</ns3:atemp>
            <ns3:hr>99</ns3:hr>
          </ns3:TrackPointExtension>
        </extensions>
      </trkpt>
      <trkpt lat="36.81464768014848232269287109375" lon="-118.423036672174930572509765625">
        <ele>3289.39990234375</ele>
        <time>2021-06-26T16:16:36.000Z</time>
        <extensions>
          <ns3:TrackPointExtension>
            <ns3:atemp>25.0</ns3:atemp>
            <ns3:hr>100</ns3:hr>
          </ns3:TrackPointExtension>
        </extensions>
      </trkpt>
      <trkpt lat="36.81465187110006809234619140625" lon="-118.42304748483002185821533203125">
        <ele>3289.39990234375</ele>
        <time>2021-06-26T16:16:38.000Z</time>
        <extensions>
          <ns3:TrackPointExtension>
            <ns3:atemp>25.0</ns3:atemp>
            <ns3:hr>103</ns3:hr>
          </ns3:TrackPointExtension>
        </extensions>
      </trkpt>
      <trkpt lat="36.81465539149940013885498046875" lon="-118.423086293041706085205078125">
        <ele>3289.60009765625</ele>
        <time>2021-06-26T16:16:42.000Z</time>
        <extensions>
          <ns3:TrackPointExtension>
            <ns3:atemp>25.0</ns3:atemp>
            <ns3:hr>105</ns3:hr>
          </ns3:TrackPointExtension>
        </extensions>
      </trkpt>
      <trkpt lat="36.8146546371281147003173828125" lon="-118.4231652505695819854736328125">
        <ele>3290.199951171875</ele>
        <time>2021-06-26T16:16:50.000Z</time>
        <extensions>
          <ns3:TrackPointExtension>
            <ns3:atemp>25.0</ns3:atemp>
            <ns3:hr>102</ns3:hr>
          </ns3:TrackPointExtension>
        </extensions>
      </trkpt>
      <trkpt lat="36.8146579898893833160400390625" lon="-118.4231746383011341094970703125">
        <ele>3290.199951171875</ele>
        <time>2021-06-26T16:16:51.000Z</time>
        <extensions>
          <ns3:TrackPointExtension>
            <ns3:atemp>25.0</ns3:atemp>
            <ns3:hr>102</ns3:hr>
          </ns3:TrackPointExtension>
        </extensions>
      </trkpt>
      <trkpt lat="36.81465840898454189300537109375" lon="-118.42319031246006488800048828125">
        <ele>3290.60009765625</ele>
        <time>2021-06-26T16:16:53.000Z</time>
        <extensions>
          <ns3:TrackPointExtension>
            <ns3:atemp>25.0</ns3:atemp>
            <ns3:hr>105</ns3:hr>
          </ns3:TrackPointExtension>
        </extensions>
      </trkpt>
      <trkpt lat="36.81465840898454189300537109375" lon="-118.42319735325872898101806640625">
        <ele>3290.60009765625</ele>
        <time>2021-06-26T16:16:54.000Z</time>
        <extensions>
          <ns3:TrackPointExtension>
            <ns3:atemp>25.0</ns3:atemp>
            <ns3:hr>103</ns3:hr>
          </ns3:TrackPointExtension>
        </extensions>
      </trkpt>
      <trkpt lat="36.8146529607474803924560546875" lon="-118.42320925556123256683349609375">
        <ele>3290.800048828125</ele>
        <time>2021-06-26T16:16:56.000Z</time>
        <extensions>
          <ns3:TrackPointExtension>
            <ns3:atemp>25.0</ns3:atemp>
            <ns3:hr>103</ns3:hr>
          </ns3:TrackPointExtension>
        </extensions>
      </trkpt>
      <trkpt lat="36.81463594548404216766357421875" lon="-118.42323289252817630767822265625">
        <ele>3291.199951171875</ele>
        <time>2021-06-26T16:16:59.000Z</time>
        <extensions>
          <ns3:TrackPointExtension>
            <ns3:atemp>25.0</ns3:atemp>
            <ns3:hr>104</ns3:hr>
          </ns3:TrackPointExtension>
        </extensions>
      </trkpt>
      <trkpt lat="36.81462228298187255859375" lon="-118.423360548913478851318359375">
        <ele>3291.199951171875</ele>
        <time>2021-06-26T16:17:10.000Z</time>
        <extensions>
          <ns3:TrackPointExtension>
            <ns3:atemp>25.0</ns3:atemp>
            <ns3:hr>105</ns3:hr>
          </ns3:TrackPointExtension>
        </extensions>
      </trkpt>
      <trkpt lat="36.81463946588337421417236328125" lon="-118.4234391711652278900146484375">
        <ele>3290.800048828125</ele>
        <time>2021-06-26T16:17:17.000Z</time>
        <extensions>
          <ns3:TrackPointExtension>
            <ns3:atemp>25.0</ns3:atemp>
            <ns3:hr>105</ns3:hr>
          </ns3:TrackPointExtension>
        </extensions>
      </trkpt>
      <trkpt lat="36.81464516557753086090087890625" lon="-118.4234810806810855865478515625">
        <ele>3290.39990234375</ele>
        <time>2021-06-26T16:17:20.000Z</time>
        <extensions>
          <ns3:TrackPointExtension>
            <ns3:atemp>25.0</ns3:atemp>
            <ns3:hr>105</ns3:hr>
          </ns3:TrackPointExtension>
        </extensions>
      </trkpt>
      <trkpt lat="36.81466662324965000152587890625" lon="-118.42355324886739253997802734375">
        <ele>3290.199951171875</ele>
        <time>2021-06-26T16:17:25.000Z</time>
        <extensions>
          <ns3:TrackPointExtension>
            <ns3:atemp>25.0</ns3:atemp>
            <ns3:hr>104</ns3:hr>
          </ns3:TrackPointExtension>
        </extensions>
      </trkpt>
      <trkpt lat="36.81473619304597377777099609375" lon="-118.42369557358324527740478515625">
        <ele>3289.800048828125</ele>
        <time>2021-06-26T16:17:37.000Z</time>
        <extensions>
          <ns3:TrackPointExtension>
            <ns3:atemp>25.0</ns3:atemp>
            <ns3:hr>101</ns3:hr>
          </ns3:TrackPointExtension>
        </extensions>
      </trkpt>
      <trkpt lat="36.814748682081699371337890625" lon="-118.4237057156860828399658203125">
        <ele>3290.199951171875</ele>
        <time>2021-06-26T16:17:39.000Z</time>
        <extensions>
          <ns3:TrackPointExtension>
            <ns3:atemp>25.0</ns3:atemp>
            <ns3:hr>100</ns3:hr>
          </ns3:TrackPointExtension>
        </extensions>
      </trkpt>
      <trkpt lat="36.8147585727274417877197265625" lon="-118.42370797879993915557861328125">
        <ele>3290.199951171875</ele>
        <time>2021-06-26T16:17:40.000Z</time>
        <extensions>
          <ns3:TrackPointExtension>
            <ns3:atemp>25.0</ns3:atemp>
            <ns3:hr>101</ns3:hr>
          </ns3:TrackPointExtension>
        </extensions>
      </trkpt>
      <trkpt lat="36.81477583944797515869140625" lon="-118.423717953264713287353515625">
        <ele>3290.39990234375</ele>
        <time>2021-06-26T16:17:43.000Z</time>
        <extensions>
          <ns3:TrackPointExtension>
            <ns3:atemp>25.0</ns3:atemp>
            <ns3:hr>101</ns3:hr>
          </ns3:TrackPointExtension>
        </extensions>
      </trkpt>
      <trkpt lat="36.81483392603695392608642578125" lon="-118.42373161576688289642333984375">
        <ele>3291</ele>
        <time>2021-06-26T16:17:51.000Z</time>
        <extensions>
          <ns3:TrackPointExtension>
            <ns3:atemp>25.0</ns3:atemp>
            <ns3:hr>102</ns3:hr>
          </ns3:TrackPointExtension>
        </extensions>
      </trkpt>
      <trkpt lat="36.814883463084697723388671875" lon="-118.42371853999793529510498046875">
        <ele>3291</ele>
        <time>2021-06-26T16:17:57.000Z</time>
        <extensions>
          <ns3:TrackPointExtension>
            <ns3:atemp>25.0</ns3:atemp>
            <ns3:hr>99</ns3:hr>
          </ns3:TrackPointExtension>
        </extensions>
      </trkpt>
      <trkpt lat="36.81489125825464725494384765625" lon="-118.4237181209027767181396484375">
        <ele>3291</ele>
        <time>2021-06-26T16:17:58.000Z</time>
        <extensions>
          <ns3:TrackPointExtension>
            <ns3:atemp>25.0</ns3:atemp>
            <ns3:hr>102</ns3:hr>
          </ns3:TrackPointExtension>
        </extensions>
      </trkpt>
      <trkpt lat="36.81493367068469524383544921875" lon="-118.423743434250354766845703125">
        <ele>3291.39990234375</ele>
        <time>2021-06-26T16:18:02.000Z</time>
        <extensions>
          <ns3:TrackPointExtension>
            <ns3:atemp>26.0</ns3:atemp>
            <ns3:hr>102</ns3:hr>
          </ns3:TrackPointExtension>
        </extensions>
      </trkpt>
      <trkpt lat="36.81497273035347461700439453125" lon="-118.42376514337956905364990234375">
        <ele>3291</ele>
        <time>2021-06-26T16:18:07.000Z</time>
        <extensions>
          <ns3:TrackPointExtension>
            <ns3:atemp>26.0</ns3:atemp>
            <ns3:hr>103</ns3:hr>
          </ns3:TrackPointExtension>
        </extensions>
      </trkpt>
      <trkpt lat="36.81497977115213871002197265625" lon="-118.42378090135753154754638671875">
        <ele>3291</ele>
        <time>2021-06-26T16:18:09.000Z</time>
        <extensions>
          <ns3:TrackPointExtension>
            <ns3:atemp>26.0</ns3:atemp>
            <ns3:hr>104</ns3:hr>
          </ns3:TrackPointExtension>
        </extensions>
      </trkpt>
      <trkpt lat="36.81503660045564174652099609375" lon="-118.42379917390644550323486328125">
        <ele>3291.60009765625</ele>
        <time>2021-06-26T16:18:16.000Z</time>
        <extensions>
          <ns3:TrackPointExtension>
            <ns3:atemp>26.0</ns3:atemp>
            <ns3:hr>101</ns3:hr>
          </ns3:TrackPointExtension>
        </extensions>
      </trkpt>
      <trkpt lat="36.81504674255847930908203125" lon="-118.42380152083933353424072265625">
        <ele>3291.800048828125</ele>
        <time>2021-06-26T16:18:17.000Z</time>
        <extensions>
          <ns3:TrackPointExtension>
            <ns3:atemp>26.0</ns3:atemp>
            <ns3:hr>100</ns3:hr>
          </ns3:TrackPointExtension>
        </extensions>
      </trkpt>
      <trkpt lat="36.8150581419467926025390625" lon="-118.4238052926957607269287109375">
        <ele>3291.800048828125</ele>
        <time>2021-06-26T16:18:18.000Z</time>
        <extensions>
          <ns3:TrackPointExtension>
            <ns3:atemp>26.0</ns3:atemp>
            <ns3:hr>101</ns3:hr>
          </ns3:TrackPointExtension>
        </extensions>
      </trkpt>
      <trkpt lat="36.81510508060455322265625" lon="-118.4238289296627044677734375">
        <ele>3292</ele>
        <time>2021-06-26T16:18:24.000Z</time>
        <extensions>
          <ns3:TrackPointExtension>
            <ns3:atemp>26.0</ns3:atemp>
            <ns3:hr>102</ns3:hr>
          </ns3:TrackPointExtension>
        </extensions>
      </trkpt>
      <trkpt lat="36.81510441005229949951171875" lon="-118.42383286915719509124755859375">
        <ele>3292</ele>
        <time>2021-06-26T16:18:25.000Z</time>
        <extensions>
          <ns3:TrackPointExtension>
            <ns3:atemp>26.0</ns3:atemp>
            <ns3:hr>99</ns3:hr>
          </ns3:TrackPointExtension>
        </extensions>
      </trkpt>
      <trkpt lat="36.81510097347199916839599609375" lon="-118.42384041287004947662353515625">
        <ele>3292</ele>
        <time>2021-06-26T16:18:26.000Z</time>
        <extensions>
          <ns3:TrackPointExtension>
            <ns3:atemp>26.0</ns3:atemp>
            <ns3:hr>101</ns3:hr>
          </ns3:TrackPointExtension>
        </extensions>
      </trkpt>
      <trkpt lat="36.81508538313210010528564453125" lon="-118.42384971678256988525390625">
        <ele>3292</ele>
        <time>2021-06-26T16:18:28.000Z</time>
        <extensions>
          <ns3:TrackPointExtension>
            <ns3:atemp>26.0</ns3:atemp>
            <ns3:hr>99</ns3:hr>
          </ns3:TrackPointExtension>
        </extensions>
      </trkpt>
      <trkpt lat="36.8150675296783447265625" lon="-118.42386606149375438690185546875">
        <ele>3292.60009765625</ele>
        <time>2021-06-26T16:18:31.000Z</time>
        <extensions>
          <ns3:TrackPointExtension>
            <ns3:atemp>26.0</ns3:atemp>
            <ns3:hr>103</ns3:hr>
          </ns3:TrackPointExtension>
        </extensions>
      </trkpt>
      <trkpt lat="36.81506258435547351837158203125" lon="-118.42387192882597446441650390625">
        <ele>3292.60009765625</ele>
        <time>2021-06-26T16:18:32.000Z</time>
        <extensions>
          <ns3:TrackPointExtension>
            <ns3:atemp>26.0</ns3:atemp>
            <ns3:hr>103</ns3:hr>
          </ns3:TrackPointExtension>
        </extensions>
      </trkpt>
      <trkpt lat="36.81505453772842884063720703125" lon="-118.42387863434851169586181640625">
        <ele>3292.800048828125</ele>
        <time>2021-06-26T16:18:33.000Z</time>
        <extensions>
          <ns3:TrackPointExtension>
            <ns3:atemp>26.0</ns3:atemp>
            <ns3:hr>102</ns3:hr>
          </ns3:TrackPointExtension>
        </extensions>
      </trkpt>
      <trkpt lat="36.81503492407500743865966796875" lon="-118.423907719552516937255859375">
        <ele>3293.199951171875</ele>
        <time>2021-06-26T16:18:37.000Z</time>
        <extensions>
          <ns3:TrackPointExtension>
            <ns3:atemp>26.0</ns3:atemp>
            <ns3:hr>99</ns3:hr>
          </ns3:TrackPointExtension>
        </extensions>
      </trkpt>
      <trkpt lat="36.81501128710806369781494140625" lon="-118.423924483358860015869140625">
        <ele>3293.60009765625</ele>
        <time>2021-06-26T16:18:40.000Z</time>
        <extensions>
          <ns3:TrackPointExtension>
            <ns3:atemp>26.0</ns3:atemp>
            <ns3:hr>100</ns3:hr>
          </ns3:TrackPointExtension>
        </extensions>
      </trkpt>
      <trkpt lat="36.8149979598820209503173828125" lon="-118.423942588269710540771484375">
        <ele>3293.60009765625</ele>
        <time>2021-06-26T16:18:42.000Z</time>
        <extensions>
          <ns3:TrackPointExtension>
            <ns3:atemp>26.0</ns3:atemp>
            <ns3:hr>102</ns3:hr>
          </ns3:TrackPointExtension>
        </extensions>
      </trkpt>
      <trkpt lat="36.81497834622859954833984375" lon="-118.4239628724753856658935546875">
        <ele>3293.800048828125</ele>
        <time>2021-06-26T16:18:45.000Z</time>
        <extensions>
          <ns3:TrackPointExtension>
            <ns3:atemp>26.0</ns3:atemp>
            <ns3:hr>102</ns3:hr>
          </ns3:TrackPointExtension>
        </extensions>
      </trkpt>
      <trkpt lat="36.8149671144783496856689453125" lon="-118.423982150852680206298828125">
        <ele>3294</ele>
        <time>2021-06-26T16:18:47.000Z</time>
        <extensions>
          <ns3:TrackPointExtension>
            <ns3:atemp>26.0</ns3:atemp>
            <ns3:hr>102</ns3:hr>
          </ns3:TrackPointExtension>
        </extensions>
      </trkpt>
      <trkpt lat="36.8149590678513050079345703125" lon="-118.42399748973548412322998046875">
        <ele>3294</ele>
        <time>2021-06-26T16:18:49.000Z</time>
        <extensions>
          <ns3:TrackPointExtension>
            <ns3:atemp>26.0</ns3:atemp>
            <ns3:hr>102</ns3:hr>
          </ns3:TrackPointExtension>
        </extensions>
      </trkpt>
      <trkpt lat="36.814924366772174835205078125" lon="-118.42401961795985698699951171875">
        <ele>3294</ele>
        <time>2021-06-26T16:18:53.000Z</time>
        <extensions>
          <ns3:TrackPointExtension>
            <ns3:atemp>26.0</ns3:atemp>
            <ns3:hr>105</ns3:hr>
          </ns3:TrackPointExtension>
        </extensions>
      </trkpt>
      <trkpt lat="36.8148843012750148773193359375" lon="-118.42406337149441242218017578125">
        <ele>3294</ele>
        <time>2021-06-26T16:18:58.000Z</time>
        <extensions>
          <ns3:TrackPointExtension>
            <ns3:atemp>26.0</ns3:atemp>
            <ns3:hr>104</ns3:hr>
          </ns3:TrackPointExtension>
        </extensions>
      </trkpt>
      <trkpt lat="36.8148511089384555816650390625" lon="-118.42419899068772792816162109375">
        <ele>3294.60009765625</ele>
        <time>2021-06-26T16:19:08.000Z</time>
        <extensions>
          <ns3:TrackPointExtension>
            <ns3:atemp>26.0</ns3:atemp>
            <ns3:hr>107</ns3:hr>
          </ns3:TrackPointExtension>
        </extensions>
      </trkpt>
      <trkpt lat="36.81484113447368144989013671875" lon="-118.4242388047277927398681640625">
        <ele>3295</ele>
        <time>2021-06-26T16:19:12.000Z</time>
        <extensions>
          <ns3:TrackPointExtension>
            <ns3:atemp>26.0</ns3:atemp>
            <ns3:hr>103</ns3:hr>
          </ns3:TrackPointExtension>
        </extensions>
      </trkpt>
      <trkpt lat="36.8148301541805267333984375" lon="-118.42426420189440250396728515625">
        <ele>3295.39990234375</ele>
        <time>2021-06-26T16:19:14.000Z</time>
        <extensions>
          <ns3:TrackPointExtension>
            <ns3:atemp>26.0</ns3:atemp>
            <ns3:hr>108</ns3:hr>
          </ns3:TrackPointExtension>
        </extensions>
      </trkpt>
      <trkpt lat="36.81482034735381603240966796875" lon="-118.424285911023616790771484375">
        <ele>3295.60009765625</ele>
        <time>2021-06-26T16:19:16.000Z</time>
        <extensions>
          <ns3:TrackPointExtension>
            <ns3:atemp>26.0</ns3:atemp>
            <ns3:hr>107</ns3:hr>
          </ns3:TrackPointExtension>
        </extensions>
      </trkpt>
      <trkpt lat="36.81483526714146137237548828125" lon="-118.4243591688573360443115234375">
        <ele>3296</ele>
        <time>2021-06-26T16:19:22.000Z</time>
        <extensions>
          <ns3:TrackPointExtension>
            <ns3:atemp>26.0</ns3:atemp>
            <ns3:hr>109</ns3:hr>
          </ns3:TrackPointExtension>
        </extensions>
      </trkpt>
      <trkpt lat="36.81484364904463291168212890625" lon="-118.4243719093501567840576171875">
        <ele>3296</ele>
        <time>2021-06-26T16:19:23.000Z</time>
        <extensions>
          <ns3:TrackPointExtension>
            <ns3:atemp>26.0</ns3:atemp>
            <ns3:hr>108</ns3:hr>
          </ns3:TrackPointExtension>
        </extensions>
      </trkpt>
      <trkpt lat="36.81485957466065883636474609375" lon="-118.42438942752778530120849609375">
        <ele>3296.199951171875</ele>
        <time>2021-06-26T16:19:25.000Z</time>
        <extensions>
          <ns3:TrackPointExtension>
            <ns3:atemp>26.0</ns3:atemp>
            <ns3:hr>108</ns3:hr>
          </ns3:TrackPointExtension>
        </extensions>
      </trkpt>
      <trkpt lat="36.814869381487369537353515625" lon="-118.4244114719331264495849609375">
        <ele>3296.39990234375</ele>
        <time>2021-06-26T16:19:27.000Z</time>
        <extensions>
          <ns3:TrackPointExtension>
            <ns3:atemp>26.0</ns3:atemp>
            <ns3:hr>107</ns3:hr>
          </ns3:TrackPointExtension>
        </extensions>
      </trkpt>
      <trkpt lat="36.81489653885364532470703125" lon="-118.42444307170808315277099609375">
        <ele>3296.800048828125</ele>
        <time>2021-06-26T16:19:30.000Z</time>
        <extensions>
          <ns3:TrackPointExtension>
            <ns3:atemp>26.0</ns3:atemp>
            <ns3:hr>107</ns3:hr>
          </ns3:TrackPointExtension>
        </extensions>
      </trkpt>
      <trkpt lat="36.81492612697184085845947265625" lon="-118.424441479146480560302734375">
        <ele>3297.199951171875</ele>
        <time>2021-06-26T16:19:33.000Z</time>
        <extensions>
          <ns3:TrackPointExtension>
            <ns3:atemp>26.0</ns3:atemp>
            <ns3:hr>108</ns3:hr>
          </ns3:TrackPointExtension>
        </extensions>
      </trkpt>
      <trkpt lat="36.814933083951473236083984375" lon="-118.4244443289935588836669921875">
        <ele>3297.39990234375</ele>
        <time>2021-06-26T16:19:34.000Z</time>
        <extensions>
          <ns3:TrackPointExtension>
            <ns3:atemp>26.0</ns3:atemp>
            <ns3:hr>108</ns3:hr>
          </ns3:TrackPointExtension>
        </extensions>
      </trkpt>
      <trkpt lat="36.81496166624128818511962890625" lon="-118.42443971894681453704833984375">
        <ele>3297.60009765625</ele>
        <time>2021-06-26T16:19:37.000Z</time>
        <extensions>
          <ns3:TrackPointExtension>
            <ns3:atemp>26.0</ns3:atemp>
            <ns3:hr>108</ns3:hr>
          </ns3:TrackPointExtension>
        </extensions>
      </trkpt>
      <trkpt lat="36.8149991333484649658203125" lon="-118.42443921603262424468994140625">
        <ele>3298</ele>
        <time>2021-06-26T16:19:41.000Z</time>
        <extensions>
          <ns3:TrackPointExtension>
            <ns3:atemp>26.0</ns3:atemp>
            <ns3:hr>105</ns3:hr>
          </ns3:TrackPointExtension>
        </extensions>
      </trkpt>
      <trkpt lat="36.8150267936289310455322265625" lon="-118.42444659210741519927978515625">
        <ele>3298.199951171875</ele>
        <time>2021-06-26T16:19:44.000Z</time>
        <extensions>
          <ns3:TrackPointExtension>
            <ns3:atemp>26.0</ns3:atemp>
            <ns3:hr>109</ns3:hr>
          </ns3:TrackPointExtension>
        </extensions>
      </trkpt>
      <trkpt lat="36.8150489218533039093017578125" lon="-118.42445053160190582275390625">
        <ele>3298.199951171875</ele>
        <time>2021-06-26T16:19:46.000Z</time>
        <extensions>
          <ns3:TrackPointExtension>
            <ns3:atemp>26.0</ns3:atemp>
            <ns3:hr>110</ns3:hr>
          </ns3:TrackPointExtension>
        </extensions>
      </trkpt>
      <trkpt lat="36.81506820023059844970703125" lon="-118.42445111833512783050537109375">
        <ele>3298.60009765625</ele>
        <time>2021-06-26T16:19:48.000Z</time>
        <extensions>
          <ns3:TrackPointExtension>
            <ns3:atemp>26.0</ns3:atemp>
            <ns3:hr>113</ns3:hr>
          </ns3:TrackPointExtension>
        </extensions>
      </trkpt>
      <trkpt lat="36.81510399095714092254638671875" lon="-118.42446528375148773193359375">
        <ele>3299</ele>
        <time>2021-06-26T16:19:52.000Z</time>
        <extensions>
          <ns3:TrackPointExtension>
            <ns3:atemp>25.0</ns3:atemp>
            <ns3:hr>116</ns3:hr>
          </ns3:TrackPointExtension>
        </extensions>
      </trkpt>
      <trkpt lat="36.81512854993343353271484375" lon="-118.424477688968181610107421875">
        <ele>3298.800048828125</ele>
        <time>2021-06-26T16:19:55.000Z</time>
        <extensions>
          <ns3:TrackPointExtension>
            <ns3:atemp>25.0</ns3:atemp>
            <ns3:hr>117</ns3:hr>
          </ns3:TrackPointExtension>
        </extensions>
      </trkpt>
      <trkpt lat="36.81516702286899089813232421875" lon="-118.424493111670017242431640625">
        <ele>3298.39990234375</ele>
        <time>2021-06-26T16:20:00.000Z</time>
        <extensions>
          <ns3:TrackPointExtension>
            <ns3:atemp>25.0</ns3:atemp>
            <ns3:hr>117</ns3:hr>
          </ns3:TrackPointExtension>
        </extensions>
      </trkpt>
      <trkpt lat="36.81517205201089382171630859375" lon="-118.42450995929539203643798828125">
        <ele>3297.60009765625</ele>
        <time>2021-06-26T16:20:02.000Z</time>
        <extensions>
          <ns3:TrackPointExtension>
            <ns3:atemp>25.0</ns3:atemp>
            <ns3:hr>117</ns3:hr>
          </ns3:TrackPointExtension>
        </extensions>
      </trkpt>
      <trkpt lat="36.81517188437283039093017578125" lon="-118.42452890239655971527099609375">
        <ele>3297.199951171875</ele>
        <time>2021-06-26T16:20:04.000Z</time>
        <extensions>
          <ns3:TrackPointExtension>
            <ns3:atemp>25.0</ns3:atemp>
            <ns3:hr>117</ns3:hr>
          </ns3:TrackPointExtension>
        </extensions>
      </trkpt>
      <trkpt lat="36.81517238728702068328857421875" lon="-118.42454130761325359344482421875">
        <ele>3297.199951171875</ele>
        <time>2021-06-26T16:20:05.000Z</time>
        <extensions>
          <ns3:TrackPointExtension>
            <ns3:atemp>25.0</ns3:atemp>
            <ns3:hr>116</ns3:hr>
          </ns3:TrackPointExtension>
        </extensions>
      </trkpt>
      <trkpt lat="36.8151773326098918914794921875" lon="-118.42456578277051448822021484375">
        <ele>3297</ele>
        <time>2021-06-26T16:20:08.000Z</time>
        <extensions>
          <ns3:TrackPointExtension>
            <ns3:atemp>25.0</ns3:atemp>
            <ns3:hr>113</ns3:hr>
          </ns3:TrackPointExtension>
        </extensions>
      </trkpt>
      <trkpt lat="36.8151823617517948150634765625" lon="-118.4245982207357883453369140625">
        <ele>3296.199951171875</ele>
        <time>2021-06-26T16:20:11.000Z</time>
        <extensions>
          <ns3:TrackPointExtension>
            <ns3:atemp>25.0</ns3:atemp>
            <ns3:hr>110</ns3:hr>
          </ns3:TrackPointExtension>
        </extensions>
      </trkpt>
      <trkpt lat="36.81518219411373138427734375" lon="-118.42460920102894306182861328125">
        <ele>3296</ele>
        <time>2021-06-26T16:20:12.000Z</time>
        <extensions>
          <ns3:TrackPointExtension>
            <ns3:atemp>25.0</ns3:atemp>
            <ns3:hr>110</ns3:hr>
          </ns3:TrackPointExtension>
        </extensions>
      </trkpt>
      <trkpt lat="36.81519434787333011627197265625" lon="-118.42465898953378200531005859375">
        <ele>3295.800048828125</ele>
        <time>2021-06-26T16:20:16.000Z</time>
        <extensions>
          <ns3:TrackPointExtension>
            <ns3:atemp>25.0</ns3:atemp>
            <ns3:hr>107</ns3:hr>
          </ns3:TrackPointExtension>
        </extensions>
      </trkpt>
      <trkpt lat="36.81522385217249393463134765625" lon="-118.424688912928104400634765625">
        <ele>3295.800048828125</ele>
        <time>2021-06-26T16:20:20.000Z</time>
        <extensions>
          <ns3:TrackPointExtension>
            <ns3:atemp>25.0</ns3:atemp>
            <ns3:hr>105</ns3:hr>
          </ns3:TrackPointExtension>
        </extensions>
      </trkpt>
      <trkpt lat="36.81523961015045642852783203125" lon="-118.42468111775815486907958984375">
        <ele>3296.199951171875</ele>
        <time>2021-06-26T16:20:23.000Z</time>
        <extensions>
          <ns3:TrackPointExtension>
            <ns3:atemp>25.0</ns3:atemp>
            <ns3:hr>105</ns3:hr>
          </ns3:TrackPointExtension>
        </extensions>
      </trkpt>
      <trkpt lat="36.81525754742324352264404296875" lon="-118.42466779053211212158203125">
        <ele>3296.60009765625</ele>
        <time>2021-06-26T16:20:26.000Z</time>
        <extensions>
          <ns3:TrackPointExtension>
            <ns3:atemp>25.0</ns3:atemp>
            <ns3:hr>105</ns3:hr>
          </ns3:TrackPointExtension>
        </extensions>
      </trkpt>
      <trkpt lat="36.81526274420320987701416015625" lon="-118.42466586269438266754150390625">
        <ele>3297.199951171875</ele>
        <time>2021-06-26T16:20:27.000Z</time>
        <extensions>
          <ns3:TrackPointExtension>
            <ns3:atemp>25.0</ns3:atemp>
            <ns3:hr>106</ns3:hr>
          </ns3:TrackPointExtension>
        </extensions>
      </trkpt>
      <trkpt lat="36.81527229957282543182373046875" lon="-118.4246679581701755523681640625">
        <ele>3297.39990234375</ele>
        <time>2021-06-26T16:20:29.000Z</time>
        <extensions>
          <ns3:TrackPointExtension>
            <ns3:atemp>25.0</ns3:atemp>
            <ns3:hr>106</ns3:hr>
          </ns3:TrackPointExtension>
        </extensions>
      </trkpt>
      <trkpt lat="36.815287806093692779541015625" lon="-118.4246746636927127838134765625">
        <ele>3298</ele>
        <time>2021-06-26T16:20:31.000Z</time>
        <extensions>
          <ns3:TrackPointExtension>
            <ns3:atemp>25.0</ns3:atemp>
            <ns3:hr>105</ns3:hr>
          </ns3:TrackPointExtension>
        </extensions>
      </trkpt>
      <trkpt lat="36.815311275422573089599609375" lon="-118.42468111775815486907958984375">
        <ele>3298.199951171875</ele>
        <time>2021-06-26T16:20:34.000Z</time>
        <extensions>
          <ns3:TrackPointExtension>
            <ns3:atemp>25.0</ns3:atemp>
            <ns3:hr>108</ns3:hr>
          </ns3:TrackPointExtension>
        </extensions>
      </trkpt>
      <trkpt lat="36.815321333706378936767578125" lon="-118.424682207405567169189453125">
        <ele>3298.39990234375</ele>
        <time>2021-06-26T16:20:35.000Z</time>
        <extensions>
          <ns3:TrackPointExtension>
            <ns3:atemp>25.0</ns3:atemp>
            <ns3:hr>108</ns3:hr>
          </ns3:TrackPointExtension>
        </extensions>
      </trkpt>
      <trkpt lat="36.8153486587107181549072265625" lon="-118.42467608861625194549560546875">
        <ele>3298.800048828125</ele>
        <time>2021-06-26T16:20:38.000Z</time>
        <extensions>
          <ns3:TrackPointExtension>
            <ns3:atemp>25.0</ns3:atemp>
            <ns3:hr>108</ns3:hr>
          </ns3:TrackPointExtension>
        </extensions>
      </trkpt>
      <trkpt lat="36.81536198593676090240478515625" lon="-118.424681536853313446044921875">
        <ele>3298.800048828125</ele>
        <time>2021-06-26T16:20:40.000Z</time>
        <extensions>
          <ns3:TrackPointExtension>
            <ns3:atemp>25.0</ns3:atemp>
            <ns3:hr>108</ns3:hr>
          </ns3:TrackPointExtension>
        </extensions>
      </trkpt>
      <trkpt lat="36.81537757627665996551513671875" lon="-118.4246756695210933685302734375">
        <ele>3299.39990234375</ele>
        <time>2021-06-26T16:20:42.000Z</time>
        <extensions>
          <ns3:TrackPointExtension>
            <ns3:atemp>25.0</ns3:atemp>
            <ns3:hr>107</ns3:hr>
          </ns3:TrackPointExtension>
        </extensions>
      </trkpt>
      <trkpt lat="36.81540724821388721466064453125" lon="-118.4246803633868694305419921875">
        <ele>3300.199951171875</ele>
        <time>2021-06-26T16:20:46.000Z</time>
        <extensions>
          <ns3:TrackPointExtension>
            <ns3:atemp>25.0</ns3:atemp>
            <ns3:hr>109</ns3:hr>
          </ns3:TrackPointExtension>
        </extensions>
      </trkpt>
      <trkpt lat="36.815420575439929962158203125" lon="-118.4246957860887050628662109375">
        <ele>3300.199951171875</ele>
        <time>2021-06-26T16:20:48.000Z</time>
        <extensions>
          <ns3:TrackPointExtension>
            <ns3:atemp>25.0</ns3:atemp>
            <ns3:hr>112</ns3:hr>
          </ns3:TrackPointExtension>
        </extensions>
      </trkpt>
      <trkpt lat="36.81543608196079730987548828125" lon="-118.42471112497150897979736328125">
        <ele>3300.199951171875</ele>
        <time>2021-06-26T16:20:50.000Z</time>
        <extensions>
          <ns3:TrackPointExtension>
            <ns3:atemp>25.0</ns3:atemp>
            <ns3:hr>115</ns3:hr>
          </ns3:TrackPointExtension>
        </extensions>
      </trkpt>
      <trkpt lat="36.8154683522880077362060546875" lon="-118.42471498064696788787841796875">
        <ele>3299.199951171875</ele>
        <time>2021-06-26T16:20:54.000Z</time>
        <extensions>
          <ns3:TrackPointExtension>
            <ns3:atemp>25.0</ns3:atemp>
            <ns3:hr>117</ns3:hr>
          </ns3:TrackPointExtension>
        </extensions>
      </trkpt>
      <trkpt lat="36.815505735576152801513671875" lon="-118.42474247328937053680419921875">
        <ele>3298.39990234375</ele>
        <time>2021-06-26T16:21:00.000Z</time>
        <extensions>
          <ns3:TrackPointExtension>
            <ns3:atemp>25.0</ns3:atemp>
            <ns3:hr>119</ns3:hr>
          </ns3:TrackPointExtension>
        </extensions>
      </trkpt>
      <trkpt lat="36.81550783105194568634033203125" lon="-118.42475001700222492218017578125">
        <ele>3298.39990234375</ele>
        <time>2021-06-26T16:21:01.000Z</time>
        <extensions>
          <ns3:TrackPointExtension>
            <ns3:atemp>25.0</ns3:atemp>
            <ns3:hr>119</ns3:hr>
          </ns3:TrackPointExtension>
        </extensions>
      </trkpt>
      <trkpt lat="36.8155491538345813751220703125" lon="-118.42482260428369045257568359375">
        <ele>3298.800048828125</ele>
        <time>2021-06-26T16:21:09.000Z</time>
        <extensions>
          <ns3:TrackPointExtension>
            <ns3:atemp>25.0</ns3:atemp>
            <ns3:hr>119</ns3:hr>
          </ns3:TrackPointExtension>
        </extensions>
      </trkpt>
      <trkpt lat="36.81557689793407917022705078125" lon="-118.42481757514178752899169921875">
        <ele>3298.199951171875</ele>
        <time>2021-06-26T16:21:13.000Z</time>
        <extensions>
          <ns3:TrackPointExtension>
            <ns3:atemp>25.0</ns3:atemp>
            <ns3:hr>120</ns3:hr>
          </ns3:TrackPointExtension>
        </extensions>
      </trkpt>
      <trkpt lat="36.81558880023658275604248046875" lon="-118.42483400367200374603271484375">
        <ele>3297.39990234375</ele>
        <time>2021-06-26T16:21:16.000Z</time>
        <extensions>
          <ns3:TrackPointExtension>
            <ns3:atemp>25.0</ns3:atemp>
            <ns3:hr>118</ns3:hr>
          </ns3:TrackPointExtension>
        </extensions>
      </trkpt>
      <trkpt lat="36.815585531294345855712890625" lon="-118.42484640888869762420654296875">
        <ele>3297.39990234375</ele>
        <time>2021-06-26T16:21:17.000Z</time>
        <extensions>
          <ns3:TrackPointExtension>
            <ns3:atemp>25.0</ns3:atemp>
            <ns3:hr>118</ns3:hr>
          </ns3:TrackPointExtension>
        </extensions>
      </trkpt>
      <trkpt lat="36.81558075360953807830810546875" lon="-118.4248577244579792022705078125">
        <ele>3297.199951171875</ele>
        <time>2021-06-26T16:21:18.000Z</time>
        <extensions>
          <ns3:TrackPointExtension>
            <ns3:atemp>25.0</ns3:atemp>
            <ns3:hr>118</ns3:hr>
          </ns3:TrackPointExtension>
        </extensions>
      </trkpt>
      <trkpt lat="36.8155816756188869476318359375" lon="-118.4249294735491275787353515625">
        <ele>3295.39990234375</ele>
        <time>2021-06-26T16:33:06.000Z</time>
        <extensions>
          <ns3:TrackPointExtension>
            <ns3:atemp>26.0</ns3:atemp>
            <ns3:hr>80</ns3:hr>
          </ns3:TrackPointExtension>
        </extensions>
      </trkpt>
      <trkpt lat="36.8155816756188869476318359375" lon="-118.42492938973009586334228515625">
        <ele>3295.39990234375</ele>
        <time>2021-06-26T16:33:07.000Z</time>
        <extensions>
          <ns3:TrackPointExtension>
            <ns3:atemp>26.0</ns3:atemp>
            <ns3:hr>80</ns3:hr>
          </ns3:TrackPointExtension>
        </extensions>
      </trkpt>
      <trkpt lat="36.8155816756188869476318359375" lon="-118.4249291382730007171630859375">
        <ele>3295.800048828125</ele>
        <time>2021-06-26T16:33:11.000Z</time>
        <extensions>
          <ns3:TrackPointExtension>
            <ns3:atemp>26.0</ns3:atemp>
            <ns3:hr>81</ns3:hr>
          </ns3:TrackPointExtension>
        </extensions>
      </trkpt>
      <trkpt lat="36.81558310054242610931396484375" lon="-118.4249308146536350250244140625">
        <ele>3295.39990234375</ele>
        <time>2021-06-26T16:33:16.000Z</time>
        <extensions>
          <ns3:TrackPointExtension>
            <ns3:atemp>26.0</ns3:atemp>
            <ns3:hr>84</ns3:hr>
          </ns3:TrackPointExtension>
        </extensions>
      </trkpt>
      <trkpt lat="36.815608330070972442626953125" lon="-118.42496476136147975921630859375">
        <ele>3295</ele>
        <time>2021-06-26T16:33:19.000Z</time>
        <extensions>
          <ns3:TrackPointExtension>
            <ns3:atemp>26.0</ns3:atemp>
            <ns3:hr>83</ns3:hr>
          </ns3:TrackPointExtension>
        </extensions>
      </trkpt>
      <trkpt lat="36.81563858874142169952392578125" lon="-118.42499175108969211578369140625">
        <ele>3295</ele>
        <time>2021-06-26T16:33:23.000Z</time>
        <extensions>
          <ns3:TrackPointExtension>
            <ns3:atemp>26.0</ns3:atemp>
            <ns3:hr>80</ns3:hr>
          </ns3:TrackPointExtension>
        </extensions>
      </trkpt>
      <trkpt lat="36.8156507425010204315185546875" lon="-118.42502117156982421875">
        <ele>3294.800048828125</ele>
        <time>2021-06-26T16:33:26.000Z</time>
        <extensions>
          <ns3:TrackPointExtension>
            <ns3:atemp>27.0</ns3:atemp>
            <ns3:hr>77</ns3:hr>
          </ns3:TrackPointExtension>
        </extensions>
      </trkpt>
      <trkpt lat="36.8156608007848262786865234375" lon="-118.42504304833710193634033203125">
        <ele>3294.60009765625</ele>
        <time>2021-06-26T16:33:28.000Z</time>
        <extensions>
          <ns3:TrackPointExtension>
            <ns3:atemp>27.0</ns3:atemp>
            <ns3:hr>76</ns3:hr>
          </ns3:TrackPointExtension>
        </extensions>
      </trkpt>
      <trkpt lat="36.8156886287033557891845703125" lon="-118.42508831061422824859619140625">
        <ele>3294.199951171875</ele>
        <time>2021-06-26T16:33:33.000Z</time>
        <extensions>
          <ns3:TrackPointExtension>
            <ns3:atemp>26.0</ns3:atemp>
            <ns3:hr>78</ns3:hr>
          </ns3:TrackPointExtension>
        </extensions>
      </trkpt>
      <trkpt lat="36.81568376719951629638671875" lon="-118.42510859481990337371826171875">
        <ele>3294.39990234375</ele>
        <time>2021-06-26T16:33:36.000Z</time>
        <extensions>
          <ns3:TrackPointExtension>
            <ns3:atemp>27.0</ns3:atemp>
            <ns3:hr>78</ns3:hr>
          </ns3:TrackPointExtension>
        </extensions>
      </trkpt>
      <trkpt lat="36.81569323875010013580322265625" lon="-118.4251427091658115386962890625">
        <ele>3294.39990234375</ele>
        <time>2021-06-26T16:33:40.000Z</time>
        <extensions>
          <ns3:TrackPointExtension>
            <ns3:atemp>27.0</ns3:atemp>
            <ns3:hr>81</ns3:hr>
          </ns3:TrackPointExtension>
        </extensions>
      </trkpt>
      <trkpt lat="36.8156986869871616363525390625" lon="-118.4251531027257442474365234375">
        <ele>3294.39990234375</ele>
        <time>2021-06-26T16:33:41.000Z</time>
        <extensions>
          <ns3:TrackPointExtension>
            <ns3:atemp>26.0</ns3:atemp>
            <ns3:hr>85</ns3:hr>
          </ns3:TrackPointExtension>
        </extensions>
      </trkpt>
      <trkpt lat="36.815702207386493682861328125" lon="-118.425167016685009002685546875">
        <ele>3294.39990234375</ele>
        <time>2021-06-26T16:33:42.000Z</time>
        <extensions>
          <ns3:TrackPointExtension>
            <ns3:atemp>27.0</ns3:atemp>
            <ns3:hr>89</ns3:hr>
          </ns3:TrackPointExtension>
        </extensions>
      </trkpt>
      <trkpt lat="36.815706901252269744873046875" lon="-118.42517967335879802703857421875">
        <ele>3294.60009765625</ele>
        <time>2021-06-26T16:33:43.000Z</time>
        <extensions>
          <ns3:TrackPointExtension>
            <ns3:atemp>26.0</ns3:atemp>
            <ns3:hr>93</ns3:hr>
          </ns3:TrackPointExtension>
        </extensions>
      </trkpt>
      <trkpt lat="36.8157177977263927459716796875" lon="-118.42518721707165241241455078125">
        <ele>3294.60009765625</ele>
        <time>2021-06-26T16:33:44.000Z</time>
        <extensions>
          <ns3:TrackPointExtension>
            <ns3:atemp>27.0</ns3:atemp>
            <ns3:hr>96</ns3:hr>
          </ns3:TrackPointExtension>
        </extensions>
      </trkpt>
      <trkpt lat="36.815724670886993408203125" lon="-118.4252453036606311798095703125">
        <ele>3294.800048828125</ele>
        <time>2021-06-26T16:33:50.000Z</time>
        <extensions>
          <ns3:TrackPointExtension>
            <ns3:atemp>27.0</ns3:atemp>
            <ns3:hr>97</ns3:hr>
          </ns3:TrackPointExtension>
        </extensions>
      </trkpt>
      <trkpt lat="36.815719641745090484619140625" lon="-118.42527271248400211334228515625">
        <ele>3295.199951171875</ele>
        <time>2021-06-26T16:33:53.000Z</time>
        <extensions>
          <ns3:TrackPointExtension>
            <ns3:atemp>27.0</ns3:atemp>
            <ns3:hr>98</ns3:hr>
          </ns3:TrackPointExtension>
        </extensions>
      </trkpt>
      <trkpt lat="36.81570078246295452117919921875" lon="-118.42531898058950901031494140625">
        <ele>3295.800048828125</ele>
        <time>2021-06-26T16:33:58.000Z</time>
        <extensions>
          <ns3:TrackPointExtension>
            <ns3:atemp>27.0</ns3:atemp>
            <ns3:hr>98</ns3:hr>
          </ns3:TrackPointExtension>
        </extensions>
      </trkpt>
      <trkpt lat="36.81567597202956676483154296875" lon="-118.425342030823230743408203125">
        <ele>3296.60009765625</ele>
        <time>2021-06-26T16:34:03.000Z</time>
        <extensions>
          <ns3:TrackPointExtension>
            <ns3:atemp>27.0</ns3:atemp>
            <ns3:hr>98</ns3:hr>
          </ns3:TrackPointExtension>
        </extensions>
      </trkpt>
      <trkpt lat="36.81566976942121982574462890625" lon="-118.42534345574676990509033203125">
        <ele>3296.60009765625</ele>
        <time>2021-06-26T16:34:04.000Z</time>
        <extensions>
          <ns3:TrackPointExtension>
            <ns3:atemp>27.0</ns3:atemp>
            <ns3:hr>99</ns3:hr>
          </ns3:TrackPointExtension>
        </extensions>
      </trkpt>
      <trkpt lat="36.81565962731838226318359375" lon="-118.4253552742302417755126953125">
        <ele>3296.800048828125</ele>
        <time>2021-06-26T16:34:06.000Z</time>
        <extensions>
          <ns3:TrackPointExtension>
            <ns3:atemp>27.0</ns3:atemp>
            <ns3:hr>99</ns3:hr>
          </ns3:TrackPointExtension>
        </extensions>
      </trkpt>
      <trkpt lat="36.81565954349935054779052734375" lon="-118.4253966808319091796875">
        <ele>3297.60009765625</ele>
        <time>2021-06-26T16:34:11.000Z</time>
        <extensions>
          <ns3:TrackPointExtension>
            <ns3:atemp>27.0</ns3:atemp>
            <ns3:hr>99</ns3:hr>
          </ns3:TrackPointExtension>
        </extensions>
      </trkpt>
      <trkpt lat="36.81564914993941783905029296875" lon="-118.425398357212543487548828125">
        <ele>3297.800048828125</ele>
        <time>2021-06-26T16:34:13.000Z</time>
        <extensions>
          <ns3:TrackPointExtension>
            <ns3:atemp>27.0</ns3:atemp>
            <ns3:hr>99</ns3:hr>
          </ns3:TrackPointExtension>
        </extensions>
      </trkpt>
      <trkpt lat="36.81563054211437702178955078125" lon="-118.42542174272239208221435546875">
        <ele>3297.60009765625</ele>
        <time>2021-06-26T16:34:16.000Z</time>
        <extensions>
          <ns3:TrackPointExtension>
            <ns3:atemp>27.0</ns3:atemp>
            <ns3:hr>102</ns3:hr>
          </ns3:TrackPointExtension>
        </extensions>
      </trkpt>
      <trkpt lat="36.81562584824860095977783203125" lon="-118.42546817846596240997314453125">
        <ele>3297.39990234375</ele>
        <time>2021-06-26T16:34:20.000Z</time>
        <extensions>
          <ns3:TrackPointExtension>
            <ns3:atemp>27.0</ns3:atemp>
            <ns3:hr>98</ns3:hr>
          </ns3:TrackPointExtension>
        </extensions>
      </trkpt>
      <trkpt lat="36.815622411668300628662109375" lon="-118.42548058368265628814697265625">
        <ele>3297.199951171875</ele>
        <time>2021-06-26T16:34:21.000Z</time>
        <extensions>
          <ns3:TrackPointExtension>
            <ns3:atemp>27.0</ns3:atemp>
            <ns3:hr>98</ns3:hr>
          </ns3:TrackPointExtension>
        </extensions>
      </trkpt>
      <trkpt lat="36.815593577921390533447265625" lon="-118.42550338245928287506103515625">
        <ele>3296.60009765625</ele>
        <time>2021-06-26T16:34:25.000Z</time>
        <extensions>
          <ns3:TrackPointExtension>
            <ns3:atemp>27.0</ns3:atemp>
            <ns3:hr>98</ns3:hr>
          </ns3:TrackPointExtension>
        </extensions>
      </trkpt>
      <trkpt lat="36.8155732937157154083251953125" lon="-118.42551629059016704559326171875">
        <ele>3296.60009765625</ele>
        <time>2021-06-26T16:34:28.000Z</time>
        <extensions>
          <ns3:TrackPointExtension>
            <ns3:atemp>27.0</ns3:atemp>
            <ns3:hr>99</ns3:hr>
          </ns3:TrackPointExtension>
        </extensions>
      </trkpt>
      <trkpt lat="36.81556499563157558441162109375" lon="-118.4255239181220531463623046875">
        <ele>3296.39990234375</ele>
        <time>2021-06-26T16:34:29.000Z</time>
        <extensions>
          <ns3:TrackPointExtension>
            <ns3:atemp>27.0</ns3:atemp>
            <ns3:hr>98</ns3:hr>
          </ns3:TrackPointExtension>
        </extensions>
      </trkpt>
      <trkpt lat="36.8155570328235626220703125" lon="-118.42553305439651012420654296875">
        <ele>3296.39990234375</ele>
        <time>2021-06-26T16:34:30.000Z</time>
        <extensions>
          <ns3:TrackPointExtension>
            <ns3:atemp>27.0</ns3:atemp>
            <ns3:hr>97</ns3:hr>
          </ns3:TrackPointExtension>
        </extensions>
      </trkpt>
      <trkpt lat="36.8155545182526111602783203125" lon="-118.42556591145694255828857421875">
        <ele>3295.800048828125</ele>
        <time>2021-06-26T16:34:33.000Z</time>
        <extensions>
          <ns3:TrackPointExtension>
            <ns3:atemp>27.0</ns3:atemp>
            <ns3:hr>98</ns3:hr>
          </ns3:TrackPointExtension>
        </extensions>
      </trkpt>
      <trkpt lat="36.81555912829935550689697265625" lon="-118.42559658922255039215087890625">
        <ele>3295.800048828125</ele>
        <time>2021-06-26T16:34:35.000Z</time>
        <extensions>
          <ns3:TrackPointExtension>
            <ns3:atemp>27.0</ns3:atemp>
            <ns3:hr>97</ns3:hr>
          </ns3:TrackPointExtension>
        </extensions>
      </trkpt>
      <trkpt lat="36.815553344786167144775390625" lon="-118.42562802135944366455078125">
        <ele>3295</ele>
        <time>2021-06-26T16:34:38.000Z</time>
        <extensions>
          <ns3:TrackPointExtension>
            <ns3:atemp>27.0</ns3:atemp>
            <ns3:hr>94</ns3:hr>
          </ns3:TrackPointExtension>
        </extensions>
      </trkpt>
      <trkpt lat="36.8155471421778202056884765625" lon="-118.42563849873840808868408203125">
        <ele>3295.199951171875</ele>
        <time>2021-06-26T16:34:39.000Z</time>
        <extensions>
          <ns3:TrackPointExtension>
            <ns3:atemp>27.0</ns3:atemp>
            <ns3:hr>93</ns3:hr>
          </ns3:TrackPointExtension>
        </extensions>
      </trkpt>
      <trkpt lat="36.8155302107334136962890625" lon="-118.42567093670368194580078125">
        <ele>3295</ele>
        <time>2021-06-26T16:34:43.000Z</time>
        <extensions>
          <ns3:TrackPointExtension>
            <ns3:atemp>27.0</ns3:atemp>
            <ns3:hr>93</ns3:hr>
          </ns3:TrackPointExtension>
        </extensions>
      </trkpt>
      <trkpt lat="36.81553666479885578155517578125" lon="-118.42570991255342960357666015625">
        <ele>3294.800048828125</ele>
        <time>2021-06-26T16:34:46.000Z</time>
        <extensions>
          <ns3:TrackPointExtension>
            <ns3:atemp>27.0</ns3:atemp>
            <ns3:hr>90</ns3:hr>
          </ns3:TrackPointExtension>
        </extensions>
      </trkpt>
      <trkpt lat="36.815552674233913421630859375" lon="-118.42574193142354488372802734375">
        <ele>3294.800048828125</ele>
        <time>2021-06-26T16:34:49.000Z</time>
        <extensions>
          <ns3:TrackPointExtension>
            <ns3:atemp>27.0</ns3:atemp>
            <ns3:hr>93</ns3:hr>
          </ns3:TrackPointExtension>
        </extensions>
      </trkpt>
      <trkpt lat="36.8155572004616260528564453125" lon="-118.4257502295076847076416015625">
        <ele>3295</ele>
        <time>2021-06-26T16:34:50.000Z</time>
        <extensions>
          <ns3:TrackPointExtension>
            <ns3:atemp>27.0</ns3:atemp>
            <ns3:hr>93</ns3:hr>
          </ns3:TrackPointExtension>
        </extensions>
      </trkpt>
      <trkpt lat="36.81557203643023967742919921875" lon="-118.4257716871798038482666015625">
        <ele>3295.199951171875</ele>
        <time>2021-06-26T16:34:52.000Z</time>
        <extensions>
          <ns3:TrackPointExtension>
            <ns3:atemp>27.0</ns3:atemp>
            <ns3:hr>94</ns3:hr>
          </ns3:TrackPointExtension>
        </extensions>
      </trkpt>
      <trkpt lat="36.81562341749668121337890625" lon="-118.4258172847330570220947265625">
        <ele>3295.60009765625</ele>
        <time>2021-06-26T16:34:58.000Z</time>
        <extensions>
          <ns3:TrackPointExtension>
            <ns3:atemp>27.0</ns3:atemp>
            <ns3:hr>90</ns3:hr>
          </ns3:TrackPointExtension>
        </extensions>
      </trkpt>
      <trkpt lat="36.81564227677881717681884765625" lon="-118.42582105658948421478271484375">
        <ele>3295.800048828125</ele>
        <time>2021-06-26T16:35:00.000Z</time>
        <extensions>
          <ns3:TrackPointExtension>
            <ns3:atemp>27.0</ns3:atemp>
            <ns3:hr>91</ns3:hr>
          </ns3:TrackPointExtension>
        </extensions>
      </trkpt>
      <trkpt lat="36.81566641665995121002197265625" lon="-118.42582046985626220703125">
        <ele>3296</ele>
        <time>2021-06-26T16:35:03.000Z</time>
        <extensions>
          <ns3:TrackPointExtension>
            <ns3:atemp>27.0</ns3:atemp>
            <ns3:hr>88</ns3:hr>
          </ns3:TrackPointExtension>
        </extensions>
      </trkpt>
      <trkpt lat="36.815761215984821319580078125" lon="-118.4258447773754596710205078125">
        <ele>3295.800048828125</ele>
        <time>2021-06-26T16:35:12.000Z</time>
        <extensions>
          <ns3:TrackPointExtension>
            <ns3:atemp>27.0</ns3:atemp>
            <ns3:hr>88</ns3:hr>
          </ns3:TrackPointExtension>
        </extensions>
      </trkpt>
      <trkpt lat="36.81582181714475154876708984375" lon="-118.42588157393038272857666015625">
        <ele>3295.60009765625</ele>
        <time>2021-06-26T16:35:19.000Z</time>
        <extensions>
          <ns3:TrackPointExtension>
            <ns3:atemp>27.0</ns3:atemp>
            <ns3:hr>85</ns3:hr>
          </ns3:TrackPointExtension>
        </extensions>
      </trkpt>
      <trkpt lat="36.81584981270134449005126953125" lon="-118.4258923865854740142822265625">
        <ele>3295.60009765625</ele>
        <time>2021-06-26T16:35:22.000Z</time>
        <extensions>
          <ns3:TrackPointExtension>
            <ns3:atemp>27.0</ns3:atemp>
            <ns3:hr>86</ns3:hr>
          </ns3:TrackPointExtension>
        </extensions>
      </trkpt>
      <trkpt lat="36.81587797589600086212158203125" lon="-118.425898253917694091796875">
        <ele>3295.60009765625</ele>
        <time>2021-06-26T16:35:25.000Z</time>
        <extensions>
          <ns3:TrackPointExtension>
            <ns3:atemp>27.0</ns3:atemp>
            <ns3:hr>89</ns3:hr>
          </ns3:TrackPointExtension>
        </extensions>
      </trkpt>
      <trkpt lat="36.81589675135910511016845703125" lon="-118.4258974157273769378662109375">
        <ele>3295.39990234375</ele>
        <time>2021-06-26T16:35:27.000Z</time>
        <extensions>
          <ns3:TrackPointExtension>
            <ns3:atemp>27.0</ns3:atemp>
            <ns3:hr>94</ns3:hr>
          </ns3:TrackPointExtension>
        </extensions>
      </trkpt>
      <trkpt lat="36.815916784107685089111328125" lon="-118.42590336687862873077392578125">
        <ele>3295.39990234375</ele>
        <time>2021-06-26T16:35:29.000Z</time>
        <extensions>
          <ns3:TrackPointExtension>
            <ns3:atemp>27.0</ns3:atemp>
            <ns3:hr>98</ns3:hr>
          </ns3:TrackPointExtension>
        </extensions>
      </trkpt>
      <trkpt lat="36.8159404210746288299560546875" lon="-118.4259064681828022003173828125">
        <ele>3295.60009765625</ele>
        <time>2021-06-26T16:35:31.000Z</time>
        <extensions>
          <ns3:TrackPointExtension>
            <ns3:atemp>27.0</ns3:atemp>
            <ns3:hr>102</ns3:hr>
          </ns3:TrackPointExtension>
        </extensions>
      </trkpt>
      <trkpt lat="36.81594922207295894622802734375" lon="-118.4259076416492462158203125">
        <ele>3295.39990234375</ele>
        <time>2021-06-26T16:35:32.000Z</time>
        <extensions>
          <ns3:TrackPointExtension>
            <ns3:atemp>27.0</ns3:atemp>
            <ns3:hr>103</ns3:hr>
          </ns3:TrackPointExtension>
        </extensions>
      </trkpt>
      <trkpt lat="36.8160275928676128387451171875" lon="-118.42587210237979888916015625">
        <ele>3295.60009765625</ele>
        <time>2021-06-26T16:35:41.000Z</time>
        <extensions>
          <ns3:TrackPointExtension>
            <ns3:atemp>27.0</ns3:atemp>
            <ns3:hr>100</ns3:hr>
          </ns3:TrackPointExtension>
        </extensions>
      </trkpt>
      <trkpt lat="36.81605768389999866485595703125" lon="-118.4258913807570934295654296875">
        <ele>3295.800048828125</ele>
        <time>2021-06-26T16:35:45.000Z</time>
        <extensions>
          <ns3:TrackPointExtension>
            <ns3:atemp>27.0</ns3:atemp>
            <ns3:hr>101</ns3:hr>
          </ns3:TrackPointExtension>
        </extensions>
      </trkpt>
      <trkpt lat="36.81606824509799480438232421875" lon="-118.42589565552771091461181640625">
        <ele>3295.800048828125</ele>
        <time>2021-06-26T16:35:46.000Z</time>
        <extensions>
          <ns3:TrackPointExtension>
            <ns3:atemp>27.0</ns3:atemp>
            <ns3:hr>97</ns3:hr>
          </ns3:TrackPointExtension>
        </extensions>
      </trkpt>
      <trkpt lat="36.81608031503856182098388671875" lon="-118.4258930571377277374267578125">
        <ele>3295.800048828125</ele>
        <time>2021-06-26T16:35:47.000Z</time>
        <extensions>
          <ns3:TrackPointExtension>
            <ns3:atemp>27.0</ns3:atemp>
            <ns3:hr>100</ns3:hr>
          </ns3:TrackPointExtension>
        </extensions>
      </trkpt>
      <trkpt lat="36.81608953513205051422119140625" lon="-118.42588375322520732879638671875">
        <ele>3295.39990234375</ele>
        <time>2021-06-26T16:35:50.000Z</time>
        <extensions>
          <ns3:TrackPointExtension>
            <ns3:atemp>27.0</ns3:atemp>
            <ns3:hr>100</ns3:hr>
          </ns3:TrackPointExtension>
        </extensions>
      </trkpt>
      <trkpt lat="36.8161077238619327545166015625" lon="-118.42587352730333805084228515625">
        <ele>3294.800048828125</ele>
        <time>2021-06-26T16:35:53.000Z</time>
        <extensions>
          <ns3:TrackPointExtension>
            <ns3:atemp>27.0</ns3:atemp>
            <ns3:hr>99</ns3:hr>
          </ns3:TrackPointExtension>
        </extensions>
      </trkpt>
      <trkpt lat="36.816125325858592987060546875" lon="-118.42585961334407329559326171875">
        <ele>3294.199951171875</ele>
        <time>2021-06-26T16:35:56.000Z</time>
        <extensions>
          <ns3:TrackPointExtension>
            <ns3:atemp>27.0</ns3:atemp>
            <ns3:hr>94</ns3:hr>
          </ns3:TrackPointExtension>
        </extensions>
      </trkpt>
      <trkpt lat="36.816144101321697235107421875" lon="-118.4258581884205341339111328125">
        <ele>3293.800048828125</ele>
        <time>2021-06-26T16:35:58.000Z</time>
        <extensions>
          <ns3:TrackPointExtension>
            <ns3:atemp>27.0</ns3:atemp>
            <ns3:hr>93</ns3:hr>
          </ns3:TrackPointExtension>
        </extensions>
      </trkpt>
      <trkpt lat="36.8161697499454021453857421875" lon="-118.4258581884205341339111328125">
        <ele>3293.60009765625</ele>
        <time>2021-06-26T16:36:01.000Z</time>
        <extensions>
          <ns3:TrackPointExtension>
            <ns3:atemp>27.0</ns3:atemp>
            <ns3:hr>94</ns3:hr>
          </ns3:TrackPointExtension>
        </extensions>
      </trkpt>
      <trkpt lat="36.8161861784756183624267578125" lon="-118.425867743790149688720703125">
        <ele>3293.60009765625</ele>
        <time>2021-06-26T16:36:03.000Z</time>
        <extensions>
          <ns3:TrackPointExtension>
            <ns3:atemp>27.0</ns3:atemp>
            <ns3:hr>98</ns3:hr>
          </ns3:TrackPointExtension>
        </extensions>
      </trkpt>
      <trkpt lat="36.8162140063941478729248046875" lon="-118.42587344348430633544921875">
        <ele>3293</ele>
        <time>2021-06-26T16:36:06.000Z</time>
        <extensions>
          <ns3:TrackPointExtension>
            <ns3:atemp>27.0</ns3:atemp>
            <ns3:hr>96</ns3:hr>
          </ns3:TrackPointExtension>
        </extensions>
      </trkpt>
      <trkpt lat="36.8162233941256999969482421875" lon="-118.42588341794908046722412109375">
        <ele>3292.800048828125</ele>
        <time>2021-06-26T16:36:08.000Z</time>
        <extensions>
          <ns3:TrackPointExtension>
            <ns3:atemp>27.0</ns3:atemp>
            <ns3:hr>94</ns3:hr>
          </ns3:TrackPointExtension>
        </extensions>
      </trkpt>
      <trkpt lat="36.81623068638145923614501953125" lon="-118.42588861472904682159423828125">
        <ele>3292.800048828125</ele>
        <time>2021-06-26T16:36:09.000Z</time>
        <extensions>
          <ns3:TrackPointExtension>
            <ns3:atemp>27.0</ns3:atemp>
            <ns3:hr>96</ns3:hr>
          </ns3:TrackPointExtension>
        </extensions>
      </trkpt>
      <trkpt lat="36.8162525631487369537353515625" lon="-118.4259054623544216156005859375">
        <ele>3291.800048828125</ele>
        <time>2021-06-26T16:36:13.000Z</time>
        <extensions>
          <ns3:TrackPointExtension>
            <ns3:atemp>27.0</ns3:atemp>
            <ns3:hr>96</ns3:hr>
          </ns3:TrackPointExtension>
        </extensions>
      </trkpt>
      <trkpt lat="36.81625667028129100799560546875" lon="-118.4259171970188617706298828125">
        <ele>3291.39990234375</ele>
        <time>2021-06-26T16:36:15.000Z</time>
        <extensions>
          <ns3:TrackPointExtension>
            <ns3:atemp>27.0</ns3:atemp>
            <ns3:hr>96</ns3:hr>
          </ns3:TrackPointExtension>
        </extensions>
      </trkpt>
      <trkpt lat="36.81625449098646640777587890625" lon="-118.42592281289398670196533203125">
        <ele>3291.39990234375</ele>
        <time>2021-06-26T16:36:16.000Z</time>
        <extensions>
          <ns3:TrackPointExtension>
            <ns3:atemp>27.0</ns3:atemp>
            <ns3:hr>96</ns3:hr>
          </ns3:TrackPointExtension>
        </extensions>
      </trkpt>
      <trkpt lat="36.81624862365424633026123046875" lon="-118.4259393252432346343994140625">
        <ele>3291</ele>
        <time>2021-06-26T16:36:18.000Z</time>
        <extensions>
          <ns3:TrackPointExtension>
            <ns3:atemp>27.0</ns3:atemp>
            <ns3:hr>93</ns3:hr>
          </ns3:TrackPointExtension>
        </extensions>
      </trkpt>
      <trkpt lat="36.816224567592144012451171875" lon="-118.4259822405874729156494140625">
        <ele>3290.800048828125</ele>
        <time>2021-06-26T16:36:22.000Z</time>
        <extensions>
          <ns3:TrackPointExtension>
            <ns3:atemp>27.0</ns3:atemp>
            <ns3:hr>94</ns3:hr>
          </ns3:TrackPointExtension>
        </extensions>
      </trkpt>
      <trkpt lat="36.81621006689965724945068359375" lon="-118.4260211326181888580322265625">
        <ele>3290.60009765625</ele>
        <time>2021-06-26T16:36:26.000Z</time>
        <extensions>
          <ns3:TrackPointExtension>
            <ns3:atemp>27.0</ns3:atemp>
            <ns3:hr>95</ns3:hr>
          </ns3:TrackPointExtension>
        </extensions>
      </trkpt>
      <trkpt lat="36.81621241383254528045654296875" lon="-118.42604099772870540618896484375">
        <ele>3290.60009765625</ele>
        <time>2021-06-26T16:36:28.000Z</time>
        <extensions>
          <ns3:TrackPointExtension>
            <ns3:atemp>27.0</ns3:atemp>
            <ns3:hr>94</ns3:hr>
          </ns3:TrackPointExtension>
        </extensions>
      </trkpt>
      <trkpt lat="36.81621325202286243438720703125" lon="-118.4260469488799571990966796875">
        <ele>3290.60009765625</ele>
        <time>2021-06-26T16:36:30.000Z</time>
        <extensions>
          <ns3:TrackPointExtension>
            <ns3:atemp>27.0</ns3:atemp>
            <ns3:hr>95</ns3:hr>
          </ns3:TrackPointExtension>
        </extensions>
      </trkpt>
      <trkpt lat="36.8162168562412261962890625" lon="-118.4260680712759494781494140625">
        <ele>3290.60009765625</ele>
        <time>2021-06-26T16:36:32.000Z</time>
        <extensions>
          <ns3:TrackPointExtension>
            <ns3:atemp>27.0</ns3:atemp>
            <ns3:hr>95</ns3:hr>
          </ns3:TrackPointExtension>
        </extensions>
      </trkpt>
      <trkpt lat="36.816218532621860504150390625" lon="-118.42609413899481296539306640625">
        <ele>3290.60009765625</ele>
        <time>2021-06-26T16:36:34.000Z</time>
        <extensions>
          <ns3:TrackPointExtension>
            <ns3:atemp>27.0</ns3:atemp>
            <ns3:hr>96</ns3:hr>
          </ns3:TrackPointExtension>
        </extensions>
      </trkpt>
      <trkpt lat="36.816211827099323272705078125" lon="-118.42611039988696575164794921875">
        <ele>3290.199951171875</ele>
        <time>2021-06-26T16:36:36.000Z</time>
        <extensions>
          <ns3:TrackPointExtension>
            <ns3:atemp>27.0</ns3:atemp>
            <ns3:hr>95</ns3:hr>
          </ns3:TrackPointExtension>
        </extensions>
      </trkpt>
      <trkpt lat="36.81620453484356403350830078125" lon="-118.4261168539524078369140625">
        <ele>3290.199951171875</ele>
        <time>2021-06-26T16:36:37.000Z</time>
        <extensions>
          <ns3:TrackPointExtension>
            <ns3:atemp>27.0</ns3:atemp>
            <ns3:hr>98</ns3:hr>
          </ns3:TrackPointExtension>
        </extensions>
      </trkpt>
      <trkpt lat="36.81619045324623584747314453125" lon="-118.4261274151504039764404296875">
        <ele>3290.60009765625</ele>
        <time>2021-06-26T16:36:40.000Z</time>
        <extensions>
          <ns3:TrackPointExtension>
            <ns3:atemp>27.0</ns3:atemp>
            <ns3:hr>94</ns3:hr>
          </ns3:TrackPointExtension>
        </extensions>
      </trkpt>
      <trkpt lat="36.8161834962666034698486328125" lon="-118.42612816952168941497802734375">
        <ele>3290.60009765625</ele>
        <time>2021-06-26T16:36:41.000Z</time>
        <extensions>
          <ns3:TrackPointExtension>
            <ns3:atemp>27.0</ns3:atemp>
            <ns3:hr>94</ns3:hr>
          </ns3:TrackPointExtension>
        </extensions>
      </trkpt>
      <trkpt lat="36.8161617033183574676513671875" lon="-118.42615331523120403289794921875">
        <ele>3290.60009765625</ele>
        <time>2021-06-26T16:36:44.000Z</time>
        <extensions>
          <ns3:TrackPointExtension>
            <ns3:atemp>27.0</ns3:atemp>
            <ns3:hr>93</ns3:hr>
          </ns3:TrackPointExtension>
        </extensions>
      </trkpt>
      <trkpt lat="36.8161596916615962982177734375" lon="-118.4261857531964778900146484375">
        <ele>3290.60009765625</ele>
        <time>2021-06-26T16:36:46.000Z</time>
        <extensions>
          <ns3:TrackPointExtension>
            <ns3:atemp>27.0</ns3:atemp>
            <ns3:hr>93</ns3:hr>
          </ns3:TrackPointExtension>
        </extensions>
      </trkpt>
      <trkpt lat="36.81615441106259822845458984375" lon="-118.4262058697640895843505859375">
        <ele>3290.800048828125</ele>
        <time>2021-06-26T16:36:48.000Z</time>
        <extensions>
          <ns3:TrackPointExtension>
            <ns3:atemp>27.0</ns3:atemp>
            <ns3:hr>93</ns3:hr>
          </ns3:TrackPointExtension>
        </extensions>
      </trkpt>
      <trkpt lat="36.81615491397678852081298828125" lon="-118.426233194768428802490234375">
        <ele>3290.800048828125</ele>
        <time>2021-06-26T16:36:51.000Z</time>
        <extensions>
          <ns3:TrackPointExtension>
            <ns3:atemp>27.0</ns3:atemp>
            <ns3:hr>92</ns3:hr>
          </ns3:TrackPointExtension>
        </extensions>
      </trkpt>
      <trkpt lat="36.816139407455921173095703125" lon="-118.426273427903652191162109375">
        <ele>3290.60009765625</ele>
        <time>2021-06-26T16:36:55.000Z</time>
        <extensions>
          <ns3:TrackPointExtension>
            <ns3:atemp>27.0</ns3:atemp>
            <ns3:hr>92</ns3:hr>
          </ns3:TrackPointExtension>
        </extensions>
      </trkpt>
      <trkpt lat="36.81613077409565448760986328125" lon="-118.42628407292068004608154296875">
        <ele>3290.60009765625</ele>
        <time>2021-06-26T16:36:56.000Z</time>
        <extensions>
          <ns3:TrackPointExtension>
            <ns3:atemp>27.0</ns3:atemp>
            <ns3:hr>92</ns3:hr>
          </ns3:TrackPointExtension>
        </extensions>
      </trkpt>
      <trkpt lat="36.81611769832670688629150390625" lon="-118.42630553059279918670654296875">
        <ele>3290.60009765625</ele>
        <time>2021-06-26T16:36:58.000Z</time>
        <extensions>
          <ns3:TrackPointExtension>
            <ns3:atemp>27.0</ns3:atemp>
            <ns3:hr>92</ns3:hr>
          </ns3:TrackPointExtension>
        </extensions>
      </trkpt>
      <trkpt lat="36.81610562838613986968994140625" lon="-118.42634676955640316009521484375">
        <ele>3291</ele>
        <time>2021-06-26T16:37:03.000Z</time>
        <extensions>
          <ns3:TrackPointExtension>
            <ns3:atemp>27.0</ns3:atemp>
            <ns3:hr>95</ns3:hr>
          </ns3:TrackPointExtension>
        </extensions>
      </trkpt>
      <trkpt lat="36.8161040358245372772216796875" lon="-118.42635624110698699951171875">
        <ele>3291.199951171875</ele>
        <time>2021-06-26T16:37:04.000Z</time>
        <extensions>
          <ns3:TrackPointExtension>
            <ns3:atemp>27.0</ns3:atemp>
            <ns3:hr>93</ns3:hr>
          </ns3:TrackPointExtension>
        </extensions>
      </trkpt>
      <trkpt lat="36.816091127693653106689453125" lon="-118.42641432769596576690673828125">
        <ele>3291.800048828125</ele>
        <time>2021-06-26T16:37:10.000Z</time>
        <extensions>
          <ns3:TrackPointExtension>
            <ns3:atemp>27.0</ns3:atemp>
            <ns3:hr>96</ns3:hr>
          </ns3:TrackPointExtension>
        </extensions>
      </trkpt>
      <trkpt lat="36.816084422171115875244140625" lon="-118.42642405070364475250244140625">
        <ele>3292.199951171875</ele>
        <time>2021-06-26T16:37:12.000Z</time>
        <extensions>
          <ns3:TrackPointExtension>
            <ns3:atemp>27.0</ns3:atemp>
            <ns3:hr>99</ns3:hr>
          </ns3:TrackPointExtension>
        </extensions>
      </trkpt>
      <trkpt lat="36.81608266197144985198974609375" lon="-118.4264298342168331146240234375">
        <ele>3292.199951171875</ele>
        <time>2021-06-26T16:37:13.000Z</time>
        <extensions>
          <ns3:TrackPointExtension>
            <ns3:atemp>27.0</ns3:atemp>
            <ns3:hr>98</ns3:hr>
          </ns3:TrackPointExtension>
        </extensions>
      </trkpt>
      <trkpt lat="36.816083081066608428955078125" lon="-118.4264325164258480072021484375">
        <ele>3292.199951171875</ele>
        <time>2021-06-26T16:37:14.000Z</time>
        <extensions>
          <ns3:TrackPointExtension>
            <ns3:atemp>27.0</ns3:atemp>
            <ns3:hr>99</ns3:hr>
          </ns3:TrackPointExtension>
        </extensions>
      </trkpt>
      <trkpt lat="36.81607327423989772796630859375" lon="-118.42644265852868556976318359375">
        <ele>3292.39990234375</ele>
        <time>2021-06-26T16:37:16.000Z</time>
        <extensions>
          <ns3:TrackPointExtension>
            <ns3:atemp>27.0</ns3:atemp>
            <ns3:hr>102</ns3:hr>
          </ns3:TrackPointExtension>
        </extensions>
      </trkpt>
      <trkpt lat="36.81606623344123363494873046875" lon="-118.42644735239446163177490234375">
        <ele>3292.39990234375</ele>
        <time>2021-06-26T16:37:17.000Z</time>
        <extensions>
          <ns3:TrackPointExtension>
            <ns3:atemp>27.0</ns3:atemp>
            <ns3:hr>102</ns3:hr>
          </ns3:TrackPointExtension>
        </extensions>
      </trkpt>
      <trkpt lat="36.816058941185474395751953125" lon="-118.42644852586090564727783203125">
        <ele>3292.60009765625</ele>
        <time>2021-06-26T16:37:18.000Z</time>
        <extensions>
          <ns3:TrackPointExtension>
            <ns3:atemp>27.0</ns3:atemp>
            <ns3:hr>103</ns3:hr>
          </ns3:TrackPointExtension>
        </extensions>
      </trkpt>
      <trkpt lat="36.81602247990667819976806640625" lon="-118.42647149227559566497802734375">
        <ele>3292.800048828125</ele>
        <time>2021-06-26T16:37:22.000Z</time>
        <extensions>
          <ns3:TrackPointExtension>
            <ns3:atemp>27.0</ns3:atemp>
            <ns3:hr>104</ns3:hr>
          </ns3:TrackPointExtension>
        </extensions>
      </trkpt>
      <trkpt lat="36.81600965559482574462890625" lon="-118.4264921955764293670654296875">
        <ele>3292.800048828125</ele>
        <time>2021-06-26T16:37:24.000Z</time>
        <extensions>
          <ns3:TrackPointExtension>
            <ns3:atemp>27.0</ns3:atemp>
            <ns3:hr>104</ns3:hr>
          </ns3:TrackPointExtension>
        </extensions>
      </trkpt>
      <trkpt lat="36.81598342023789882659912109375" lon="-118.4265434928238391876220703125">
        <ele>3292.800048828125</ele>
        <time>2021-06-26T16:37:29.000Z</time>
        <extensions>
          <ns3:TrackPointExtension>
            <ns3:atemp>27.0</ns3:atemp>
            <ns3:hr>108</ns3:hr>
          </ns3:TrackPointExtension>
        </extensions>
      </trkpt>
      <trkpt lat="36.81596263311803340911865234375" lon="-118.4265683032572269439697265625">
        <ele>3292.800048828125</ele>
        <time>2021-06-26T16:37:32.000Z</time>
        <extensions>
          <ns3:TrackPointExtension>
            <ns3:atemp>27.0</ns3:atemp>
            <ns3:hr>111</ns3:hr>
          </ns3:TrackPointExtension>
        </extensions>
      </trkpt>
      <trkpt lat="36.81591686792671680450439453125" lon="-118.42664055526256561279296875">
        <ele>3293.60009765625</ele>
        <time>2021-06-26T16:37:39.000Z</time>
        <extensions>
          <ns3:TrackPointExtension>
            <ns3:atemp>27.0</ns3:atemp>
            <ns3:hr>115</ns3:hr>
          </ns3:TrackPointExtension>
        </extensions>
      </trkpt>
      <trkpt lat="36.8158991821110248565673828125" lon="-118.4266732446849346160888671875">
        <ele>3293.800048828125</ele>
        <time>2021-06-26T16:37:42.000Z</time>
        <extensions>
          <ns3:TrackPointExtension>
            <ns3:atemp>27.0</ns3:atemp>
            <ns3:hr>119</ns3:hr>
          </ns3:TrackPointExtension>
        </extensions>
      </trkpt>
      <trkpt lat="36.81589155457913875579833984375" lon="-118.426683805882930755615234375">
        <ele>3293.800048828125</ele>
        <time>2021-06-26T16:37:43.000Z</time>
        <extensions>
          <ns3:TrackPointExtension>
            <ns3:atemp>27.0</ns3:atemp>
            <ns3:hr>121</ns3:hr>
          </ns3:TrackPointExtension>
        </extensions>
      </trkpt>
      <trkpt lat="36.8158840946853160858154296875" lon="-118.4266881644725799560546875">
        <ele>3294</ele>
        <time>2021-06-26T16:37:44.000Z</time>
        <extensions>
          <ns3:TrackPointExtension>
            <ns3:atemp>27.0</ns3:atemp>
            <ns3:hr>123</ns3:hr>
          </ns3:TrackPointExtension>
        </extensions>
      </trkpt>
      <trkpt lat="36.8158359825611114501953125" lon="-118.4267069399356842041015625">
        <ele>3294.39990234375</ele>
        <time>2021-06-26T16:37:49.000Z</time>
        <extensions>
          <ns3:TrackPointExtension>
            <ns3:atemp>27.0</ns3:atemp>
            <ns3:hr>126</ns3:hr>
          </ns3:TrackPointExtension>
        </extensions>
      </trkpt>
      <trkpt lat="36.8158140219748020172119140625" lon="-118.42671607621014118194580078125">
        <ele>3294.60009765625</ele>
        <time>2021-06-26T16:37:51.000Z</time>
        <extensions>
          <ns3:TrackPointExtension>
            <ns3:atemp>27.0</ns3:atemp>
            <ns3:hr>127</ns3:hr>
          </ns3:TrackPointExtension>
        </extensions>
      </trkpt>
      <trkpt lat="36.81578057818114757537841796875" lon="-118.42674088664352893829345703125">
        <ele>3295</ele>
        <time>2021-06-26T16:37:55.000Z</time>
        <extensions>
          <ns3:TrackPointExtension>
            <ns3:atemp>27.0</ns3:atemp>
            <ns3:hr>130</ns3:hr>
          </ns3:TrackPointExtension>
        </extensions>
      </trkpt>
      <trkpt lat="36.81573498062789440155029296875" lon="-118.42678732238709926605224609375">
        <ele>3295.60009765625</ele>
        <time>2021-06-26T16:38:01.000Z</time>
        <extensions>
          <ns3:TrackPointExtension>
            <ns3:atemp>27.0</ns3:atemp>
            <ns3:hr>126</ns3:hr>
          </ns3:TrackPointExtension>
        </extensions>
      </trkpt>
      <trkpt lat="36.815717630088329315185546875" lon="-118.42679788358509540557861328125">
        <ele>3295.800048828125</ele>
        <time>2021-06-26T16:38:03.000Z</time>
        <extensions>
          <ns3:TrackPointExtension>
            <ns3:atemp>27.0</ns3:atemp>
            <ns3:hr>123</ns3:hr>
          </ns3:TrackPointExtension>
        </extensions>
      </trkpt>
      <trkpt lat="36.81570849381387233734130859375" lon="-118.426801152527332305908203125">
        <ele>3295.800048828125</ele>
        <time>2021-06-26T16:38:04.000Z</time>
        <extensions>
          <ns3:TrackPointExtension>
            <ns3:atemp>27.0</ns3:atemp>
            <ns3:hr>120</ns3:hr>
          </ns3:TrackPointExtension>
        </extensions>
      </trkpt>
      <trkpt lat="36.8156911432743072509765625" lon="-118.42681934125721454620361328125">
        <ele>3295.800048828125</ele>
        <time>2021-06-26T16:38:06.000Z</time>
        <extensions>
          <ns3:TrackPointExtension>
            <ns3:atemp>27.0</ns3:atemp>
            <ns3:hr>124</ns3:hr>
          </ns3:TrackPointExtension>
        </extensions>
      </trkpt>
      <trkpt lat="36.815671361982822418212890625" lon="-118.426842726767063140869140625">
        <ele>3295.800048828125</ele>
        <time>2021-06-26T16:38:09.000Z</time>
        <extensions>
          <ns3:TrackPointExtension>
            <ns3:atemp>27.0</ns3:atemp>
            <ns3:hr>121</ns3:hr>
          </ns3:TrackPointExtension>
        </extensions>
      </trkpt>
      <trkpt lat="36.81566591374576091766357421875" lon="-118.426849432289600372314453125">
        <ele>3295.39990234375</ele>
        <time>2021-06-26T16:38:10.000Z</time>
        <extensions>
          <ns3:TrackPointExtension>
            <ns3:atemp>27.0</ns3:atemp>
            <ns3:hr>124</ns3:hr>
          </ns3:TrackPointExtension>
        </extensions>
      </trkpt>
      <trkpt lat="36.81565669365227222442626953125" lon="-118.4268571436405181884765625">
        <ele>3295.39990234375</ele>
        <time>2021-06-26T16:38:11.000Z</time>
        <extensions>
          <ns3:TrackPointExtension>
            <ns3:atemp>27.0</ns3:atemp>
            <ns3:hr>124</ns3:hr>
          </ns3:TrackPointExtension>
        </extensions>
      </trkpt>
      <trkpt lat="36.81563238613307476043701171875" lon="-118.42690684832632541656494140625">
        <ele>3295</ele>
        <time>2021-06-26T16:38:15.000Z</time>
        <extensions>
          <ns3:TrackPointExtension>
            <ns3:atemp>27.0</ns3:atemp>
            <ns3:hr>125</ns3:hr>
          </ns3:TrackPointExtension>
        </extensions>
      </trkpt>
      <trkpt lat="36.81561964564025402069091796875" lon="-118.4269511885941028594970703125">
        <ele>3294.39990234375</ele>
        <time>2021-06-26T16:38:19.000Z</time>
        <extensions>
          <ns3:TrackPointExtension>
            <ns3:atemp>27.0</ns3:atemp>
            <ns3:hr>124</ns3:hr>
          </ns3:TrackPointExtension>
        </extensions>
      </trkpt>
      <trkpt lat="36.81560724042356014251708984375" lon="-118.42698027379810810089111328125">
        <ele>3294.39990234375</ele>
        <time>2021-06-26T16:38:22.000Z</time>
        <extensions>
          <ns3:TrackPointExtension>
            <ns3:atemp>27.0</ns3:atemp>
            <ns3:hr>124</ns3:hr>
          </ns3:TrackPointExtension>
        </extensions>
      </trkpt>
      <trkpt lat="36.8155867047607898712158203125" lon="-118.42700391076505184173583984375">
        <ele>3293.800048828125</ele>
        <time>2021-06-26T16:38:25.000Z</time>
        <extensions>
          <ns3:TrackPointExtension>
            <ns3:atemp>27.0</ns3:atemp>
            <ns3:hr>123</ns3:hr>
          </ns3:TrackPointExtension>
        </extensions>
      </trkpt>
      <trkpt lat="36.81557723321020603179931640625" lon="-118.42702385969460010528564453125">
        <ele>3293.800048828125</ele>
        <time>2021-06-26T16:38:27.000Z</time>
        <extensions>
          <ns3:TrackPointExtension>
            <ns3:atemp>27.0</ns3:atemp>
            <ns3:hr>117</ns3:hr>
          </ns3:TrackPointExtension>
        </extensions>
      </trkpt>
      <trkpt lat="36.8155719526112079620361328125" lon="-118.42703106813132762908935546875">
        <ele>3293.60009765625</ele>
        <time>2021-06-26T16:38:28.000Z</time>
        <extensions>
          <ns3:TrackPointExtension>
            <ns3:atemp>27.0</ns3:atemp>
            <ns3:hr>118</ns3:hr>
          </ns3:TrackPointExtension>
        </extensions>
      </trkpt>
      <trkpt lat="36.81550498120486736297607421875" lon="-118.4270960278809070587158203125">
        <ele>3293.39990234375</ele>
        <time>2021-06-26T16:38:36.000Z</time>
        <extensions>
          <ns3:TrackPointExtension>
            <ns3:atemp>27.0</ns3:atemp>
            <ns3:hr>115</ns3:hr>
          </ns3:TrackPointExtension>
        </extensions>
      </trkpt>
      <trkpt lat="36.81544907391071319580078125" lon="-118.427155874669551849365234375">
        <ele>3293</ele>
        <time>2021-06-26T16:38:43.000Z</time>
        <extensions>
          <ns3:TrackPointExtension>
            <ns3:atemp>27.0</ns3:atemp>
            <ns3:hr>115</ns3:hr>
          </ns3:TrackPointExtension>
        </extensions>
      </trkpt>
      <trkpt lat="36.8154267780482769012451171875" lon="-118.42716031707823276519775390625">
        <ele>3292.60009765625</ele>
        <time>2021-06-26T16:38:45.000Z</time>
        <extensions>
          <ns3:TrackPointExtension>
            <ns3:atemp>27.0</ns3:atemp>
            <ns3:hr>115</ns3:hr>
          </ns3:TrackPointExtension>
        </extensions>
      </trkpt>
      <trkpt lat="36.81541822850704193115234375" lon="-118.42716199345886707305908203125">
        <ele>3292.60009765625</ele>
        <time>2021-06-26T16:38:46.000Z</time>
        <extensions>
          <ns3:TrackPointExtension>
            <ns3:atemp>27.0</ns3:atemp>
            <ns3:hr>115</ns3:hr>
          </ns3:TrackPointExtension>
        </extensions>
      </trkpt>
      <trkpt lat="36.8153878860175609588623046875" lon="-118.4271617420017719268798828125">
        <ele>3292.60009765625</ele>
        <time>2021-06-26T16:38:49.000Z</time>
        <extensions>
          <ns3:TrackPointExtension>
            <ns3:atemp>27.0</ns3:atemp>
            <ns3:hr>112</ns3:hr>
          </ns3:TrackPointExtension>
        </extensions>
      </trkpt>
      <trkpt lat="36.8153184838593006134033203125" lon="-118.427210189402103424072265625">
        <ele>3292.60009765625</ele>
        <time>2021-06-26T16:38:56.000Z</time>
        <extensions>
          <ns3:TrackPointExtension>
            <ns3:atemp>27.0</ns3:atemp>
            <ns3:hr>109</ns3:hr>
          </ns3:TrackPointExtension>
        </extensions>
      </trkpt>
      <trkpt lat="36.81527950800955295562744140625" lon="-118.427273891866207122802734375">
        <ele>3292.60009765625</ele>
        <time>2021-06-26T16:39:02.000Z</time>
        <extensions>
          <ns3:TrackPointExtension>
            <ns3:atemp>27.0</ns3:atemp>
            <ns3:hr>106</ns3:hr>
          </ns3:TrackPointExtension>
        </extensions>
      </trkpt>
      <trkpt lat="36.81524061597883701324462890625" lon="-118.42731437645852565765380859375">
        <ele>3293</ele>
        <time>2021-06-26T16:39:07.000Z</time>
        <extensions>
          <ns3:TrackPointExtension>
            <ns3:atemp>27.0</ns3:atemp>
            <ns3:hr>103</ns3:hr>
          </ns3:TrackPointExtension>
        </extensions>
      </trkpt>
      <trkpt lat="36.81522066704928874969482421875" lon="-118.42732694931328296661376953125">
        <ele>3293.39990234375</ele>
        <time>2021-06-26T16:39:09.000Z</time>
        <extensions>
          <ns3:TrackPointExtension>
            <ns3:atemp>27.0</ns3:atemp>
            <ns3:hr>104</ns3:hr>
          </ns3:TrackPointExtension>
        </extensions>
      </trkpt>
      <trkpt lat="36.81518143974244594573974609375" lon="-118.4273453056812286376953125">
        <ele>3293.800048828125</ele>
        <time>2021-06-26T16:39:13.000Z</time>
        <extensions>
          <ns3:TrackPointExtension>
            <ns3:atemp>27.0</ns3:atemp>
            <ns3:hr>105</ns3:hr>
          </ns3:TrackPointExtension>
        </extensions>
      </trkpt>
      <trkpt lat="36.81512762792408466339111328125" lon="-118.42736332677304744720458984375">
        <ele>3294.60009765625</ele>
        <time>2021-06-26T16:39:19.000Z</time>
        <extensions>
          <ns3:TrackPointExtension>
            <ns3:atemp>27.0</ns3:atemp>
            <ns3:hr>107</ns3:hr>
          </ns3:TrackPointExtension>
        </extensions>
      </trkpt>
      <trkpt lat="36.81511153466999530792236328125" lon="-118.42736802063882350921630859375">
        <ele>3295</ele>
        <time>2021-06-26T16:39:21.000Z</time>
        <extensions>
          <ns3:TrackPointExtension>
            <ns3:atemp>27.0</ns3:atemp>
            <ns3:hr>107</ns3:hr>
          </ns3:TrackPointExtension>
        </extensions>
      </trkpt>
      <trkpt lat="36.81506543420255184173583984375" lon="-118.4273806773126125335693359375">
        <ele>3296.199951171875</ele>
        <time>2021-06-26T16:39:27.000Z</time>
        <extensions>
          <ns3:TrackPointExtension>
            <ns3:atemp>27.0</ns3:atemp>
            <ns3:hr>109</ns3:hr>
          </ns3:TrackPointExtension>
        </extensions>
      </trkpt>
      <trkpt lat="36.81505470536649227142333984375" lon="-118.42737824656069278717041015625">
        <ele>3296.199951171875</ele>
        <time>2021-06-26T16:39:29.000Z</time>
        <extensions>
          <ns3:TrackPointExtension>
            <ns3:atemp>27.0</ns3:atemp>
            <ns3:hr>106</ns3:hr>
          </ns3:TrackPointExtension>
        </extensions>
      </trkpt>
      <trkpt lat="36.81501581333577632904052734375" lon="-118.42739383690059185028076171875">
        <ele>3296.60009765625</ele>
        <time>2021-06-26T16:39:34.000Z</time>
        <extensions>
          <ns3:TrackPointExtension>
            <ns3:atemp>27.0</ns3:atemp>
            <ns3:hr>109</ns3:hr>
          </ns3:TrackPointExtension>
        </extensions>
      </trkpt>
      <trkpt lat="36.8150006420910358428955078125" lon="-118.42739987187087535858154296875">
        <ele>3296.800048828125</ele>
        <time>2021-06-26T16:39:36.000Z</time>
        <extensions>
          <ns3:TrackPointExtension>
            <ns3:atemp>27.0</ns3:atemp>
            <ns3:hr>115</ns3:hr>
          </ns3:TrackPointExtension>
        </extensions>
      </trkpt>
      <trkpt lat="36.81499536149203777313232421875" lon="-118.4274054877460002899169921875">
        <ele>3296.800048828125</ele>
        <time>2021-06-26T16:39:37.000Z</time>
        <extensions>
          <ns3:TrackPointExtension>
            <ns3:atemp>27.0</ns3:atemp>
            <ns3:hr>114</ns3:hr>
          </ns3:TrackPointExtension>
        </extensions>
      </trkpt>
      <trkpt lat="36.8149895779788494110107421875" lon="-118.42741009779274463653564453125">
        <ele>3297</ele>
        <time>2021-06-26T16:39:38.000Z</time>
        <extensions>
          <ns3:TrackPointExtension>
            <ns3:atemp>28.0</ns3:atemp>
            <ns3:hr>114</ns3:hr>
          </ns3:TrackPointExtension>
        </extensions>
      </trkpt>
      <trkpt lat="36.81498463265597820281982421875" lon="-118.42741169035434722900390625">
        <ele>3297.199951171875</ele>
        <time>2021-06-26T16:39:39.000Z</time>
        <extensions>
          <ns3:TrackPointExtension>
            <ns3:atemp>28.0</ns3:atemp>
            <ns3:hr>116</ns3:hr>
          </ns3:TrackPointExtension>
        </extensions>
      </trkpt>
      <trkpt lat="36.81495512835681438446044921875" lon="-118.42740993015468120574951171875">
        <ele>3297.60009765625</ele>
        <time>2021-06-26T16:39:44.000Z</time>
        <extensions>
          <ns3:TrackPointExtension>
            <ns3:atemp>28.0</ns3:atemp>
            <ns3:hr>117</ns3:hr>
          </ns3:TrackPointExtension>
        </extensions>
      </trkpt>
      <trkpt lat="36.81490190327167510986328125" lon="-118.42738411389291286468505859375">
        <ele>3298.39990234375</ele>
        <time>2021-06-26T16:39:50.000Z</time>
        <extensions>
          <ns3:TrackPointExtension>
            <ns3:atemp>28.0</ns3:atemp>
            <ns3:hr>115</ns3:hr>
          </ns3:TrackPointExtension>
        </extensions>
      </trkpt>
      <trkpt lat="36.8148920126259326934814453125" lon="-118.42738176696002483367919921875">
        <ele>3298.60009765625</ele>
        <time>2021-06-26T16:39:52.000Z</time>
        <extensions>
          <ns3:TrackPointExtension>
            <ns3:atemp>28.0</ns3:atemp>
            <ns3:hr>116</ns3:hr>
          </ns3:TrackPointExtension>
        </extensions>
      </trkpt>
      <trkpt lat="36.81486896239221096038818359375" lon="-118.4273719601333141326904296875">
        <ele>3299</ele>
        <time>2021-06-26T16:39:54.000Z</time>
        <extensions>
          <ns3:TrackPointExtension>
            <ns3:atemp>28.0</ns3:atemp>
            <ns3:hr>115</ns3:hr>
          </ns3:TrackPointExtension>
        </extensions>
      </trkpt>
      <trkpt lat="36.81481883861124515533447265625" lon="-118.4273692779242992401123046875">
        <ele>3299.60009765625</ele>
        <time>2021-06-26T16:39:59.000Z</time>
        <extensions>
          <ns3:TrackPointExtension>
            <ns3:atemp>28.0</ns3:atemp>
            <ns3:hr>118</ns3:hr>
          </ns3:TrackPointExtension>
        </extensions>
      </trkpt>
      <trkpt lat="36.81481213308870792388916015625" lon="-118.4273749776184558868408203125">
        <ele>3299.800048828125</ele>
        <time>2021-06-26T16:40:00.000Z</time>
        <extensions>
          <ns3:TrackPointExtension>
            <ns3:atemp>28.0</ns3:atemp>
            <ns3:hr>115</ns3:hr>
          </ns3:TrackPointExtension>
        </extensions>
      </trkpt>
      <trkpt lat="36.8147984705865383148193359375" lon="-118.4273776598274707794189453125">
        <ele>3300</ele>
        <time>2021-06-26T16:40:02.000Z</time>
        <extensions>
          <ns3:TrackPointExtension>
            <ns3:atemp>28.0</ns3:atemp>
            <ns3:hr>116</ns3:hr>
          </ns3:TrackPointExtension>
        </extensions>
      </trkpt>
      <trkpt lat="36.81477558799088001251220703125" lon="-118.42738746665418148040771484375">
        <ele>3300.60009765625</ele>
        <time>2021-06-26T16:40:06.000Z</time>
        <extensions>
          <ns3:TrackPointExtension>
            <ns3:atemp>28.0</ns3:atemp>
            <ns3:hr>118</ns3:hr>
          </ns3:TrackPointExtension>
        </extensions>
      </trkpt>
      <trkpt lat="36.8147589080035686492919921875" lon="-118.427398614585399627685546875">
        <ele>3301</ele>
        <time>2021-06-26T16:40:09.000Z</time>
        <extensions>
          <ns3:TrackPointExtension>
            <ns3:atemp>28.0</ns3:atemp>
            <ns3:hr>120</ns3:hr>
          </ns3:TrackPointExtension>
        </extensions>
      </trkpt>
      <trkpt lat="36.81471792049705982208251953125" lon="-118.4274205751717090606689453125">
        <ele>3301.60009765625</ele>
        <time>2021-06-26T16:40:15.000Z</time>
        <extensions>
          <ns3:TrackPointExtension>
            <ns3:atemp>28.0</ns3:atemp>
            <ns3:hr>123</ns3:hr>
          </ns3:TrackPointExtension>
        </extensions>
      </trkpt>
      <trkpt lat="36.814713142812252044677734375" lon="-118.42742334119975566864013671875">
        <ele>3301.800048828125</ele>
        <time>2021-06-26T16:40:16.000Z</time>
        <extensions>
          <ns3:TrackPointExtension>
            <ns3:atemp>28.0</ns3:atemp>
            <ns3:hr>123</ns3:hr>
          </ns3:TrackPointExtension>
        </extensions>
      </trkpt>
      <trkpt lat="36.81466595269739627838134765625" lon="-118.42745888046920299530029296875">
        <ele>3302.39990234375</ele>
        <time>2021-06-26T16:40:23.000Z</time>
        <extensions>
          <ns3:TrackPointExtension>
            <ns3:atemp>28.0</ns3:atemp>
            <ns3:hr>124</ns3:hr>
          </ns3:TrackPointExtension>
        </extensions>
      </trkpt>
      <trkpt lat="36.81464969180524349212646484375" lon="-118.42747111804783344268798828125">
        <ele>3302.60009765625</ele>
        <time>2021-06-26T16:40:25.000Z</time>
        <extensions>
          <ns3:TrackPointExtension>
            <ns3:atemp>28.0</ns3:atemp>
            <ns3:hr>124</ns3:hr>
          </ns3:TrackPointExtension>
        </extensions>
      </trkpt>
      <trkpt lat="36.81460644118487834930419921875" lon="-118.427507244050502777099609375">
        <ele>3302.800048828125</ele>
        <time>2021-06-26T16:40:31.000Z</time>
        <extensions>
          <ns3:TrackPointExtension>
            <ns3:atemp>28.0</ns3:atemp>
            <ns3:hr>127</ns3:hr>
          </ns3:TrackPointExtension>
        </extensions>
      </trkpt>
      <trkpt lat="36.814594455063343048095703125" lon="-118.427505232393741607666015625">
        <ele>3302.800048828125</ele>
        <time>2021-06-26T16:40:32.000Z</time>
        <extensions>
          <ns3:TrackPointExtension>
            <ns3:atemp>28.0</ns3:atemp>
            <ns3:hr>126</ns3:hr>
          </ns3:TrackPointExtension>
        </extensions>
      </trkpt>
      <trkpt lat="36.81452496908605098724365234375" lon="-118.42752928845584392547607421875">
        <ele>3302.800048828125</ele>
        <time>2021-06-26T16:40:39.000Z</time>
        <extensions>
          <ns3:TrackPointExtension>
            <ns3:atemp>28.0</ns3:atemp>
            <ns3:hr>124</ns3:hr>
          </ns3:TrackPointExtension>
        </extensions>
      </trkpt>
      <trkpt lat="36.81451809592545032501220703125" lon="-118.4275357425212860107421875">
        <ele>3303</ele>
        <time>2021-06-26T16:40:40.000Z</time>
        <extensions>
          <ns3:TrackPointExtension>
            <ns3:atemp>28.0</ns3:atemp>
            <ns3:hr>123</ns3:hr>
          </ns3:TrackPointExtension>
        </extensions>
      </trkpt>
      <trkpt lat="36.814501918852329254150390625" lon="-118.42755191959440708160400390625">
        <ele>3303.199951171875</ele>
        <time>2021-06-26T16:40:42.000Z</time>
        <extensions>
          <ns3:TrackPointExtension>
            <ns3:atemp>28.0</ns3:atemp>
            <ns3:hr>123</ns3:hr>
          </ns3:TrackPointExtension>
        </extensions>
      </trkpt>
      <trkpt lat="36.81446227245032787322998046875" lon="-118.4275674261152744293212890625">
        <ele>3303.199951171875</ele>
        <time>2021-06-26T16:40:46.000Z</time>
        <extensions>
          <ns3:TrackPointExtension>
            <ns3:atemp>28.0</ns3:atemp>
            <ns3:hr>122</ns3:hr>
          </ns3:TrackPointExtension>
        </extensions>
      </trkpt>
      <trkpt lat="36.8144202791154384613037109375" lon="-118.427614867687225341796875">
        <ele>3303.39990234375</ele>
        <time>2021-06-26T16:40:52.000Z</time>
        <extensions>
          <ns3:TrackPointExtension>
            <ns3:atemp>28.0</ns3:atemp>
            <ns3:hr>122</ns3:hr>
          </ns3:TrackPointExtension>
        </extensions>
      </trkpt>
      <trkpt lat="36.8143974803388118743896484375" lon="-118.427647054195404052734375">
        <ele>3302.39990234375</ele>
        <time>2021-06-26T16:40:56.000Z</time>
        <extensions>
          <ns3:TrackPointExtension>
            <ns3:atemp>28.0</ns3:atemp>
            <ns3:hr>119</ns3:hr>
          </ns3:TrackPointExtension>
        </extensions>
      </trkpt>
      <trkpt lat="36.814387924969196319580078125" lon="-118.42766247689723968505859375">
        <ele>3302.39990234375</ele>
        <time>2021-06-26T16:40:58.000Z</time>
        <extensions>
          <ns3:TrackPointExtension>
            <ns3:atemp>28.0</ns3:atemp>
            <ns3:hr>116</ns3:hr>
          </ns3:TrackPointExtension>
        </extensions>
      </trkpt>
      <trkpt lat="36.8143827281892299652099609375" lon="-118.427679240703582763671875">
        <ele>3302.39990234375</ele>
        <time>2021-06-26T16:41:01.000Z</time>
        <extensions>
          <ns3:TrackPointExtension>
            <ns3:atemp>28.0</ns3:atemp>
            <ns3:hr>116</ns3:hr>
          </ns3:TrackPointExtension>
        </extensions>
      </trkpt>
      <trkpt lat="36.8143833987414836883544921875" lon="-118.4276827611029148101806640625">
        <ele>3302.199951171875</ele>
        <time>2021-06-26T16:41:03.000Z</time>
        <extensions>
          <ns3:TrackPointExtension>
            <ns3:atemp>28.0</ns3:atemp>
            <ns3:hr>113</ns3:hr>
          </ns3:TrackPointExtension>
        </extensions>
      </trkpt>
      <trkpt lat="36.81437090970575809478759765625" lon="-118.427714444696903228759765625">
        <ele>3302</ele>
        <time>2021-06-26T16:41:12.000Z</time>
        <extensions>
          <ns3:TrackPointExtension>
            <ns3:atemp>28.0</ns3:atemp>
            <ns3:hr>110</ns3:hr>
          </ns3:TrackPointExtension>
        </extensions>
      </trkpt>
      <trkpt lat="36.81436688639223575592041015625" lon="-118.42772341333329677581787109375">
        <ele>3301.800048828125</ele>
        <time>2021-06-26T16:41:13.000Z</time>
        <extensions>
          <ns3:TrackPointExtension>
            <ns3:atemp>28.0</ns3:atemp>
            <ns3:hr>109</ns3:hr>
          </ns3:TrackPointExtension>
        </extensions>
      </trkpt>
      <trkpt lat="36.8143649585545063018798828125" lon="-118.427741937339305877685546875">
        <ele>3301.800048828125</ele>
        <time>2021-06-26T16:41:15.000Z</time>
        <extensions>
          <ns3:TrackPointExtension>
            <ns3:atemp>28.0</ns3:atemp>
            <ns3:hr>109</ns3:hr>
          </ns3:TrackPointExtension>
        </extensions>
      </trkpt>
      <trkpt lat="36.8143595941364765167236328125" lon="-118.42780941165983676910400390625">
        <ele>3300.800048828125</ele>
        <time>2021-06-26T16:41:20.000Z</time>
        <extensions>
          <ns3:TrackPointExtension>
            <ns3:atemp>28.0</ns3:atemp>
            <ns3:hr>107</ns3:hr>
          </ns3:TrackPointExtension>
        </extensions>
      </trkpt>
      <trkpt lat="36.81433905847370624542236328125" lon="-118.42786003835499286651611328125">
        <ele>3300.199951171875</ele>
        <time>2021-06-26T16:41:25.000Z</time>
        <extensions>
          <ns3:TrackPointExtension>
            <ns3:atemp>28.0</ns3:atemp>
            <ns3:hr>105</ns3:hr>
          </ns3:TrackPointExtension>
        </extensions>
      </trkpt>
      <trkpt lat="36.81431290693581104278564453125" lon="-118.42791602946817874908447265625">
        <ele>3300.199951171875</ele>
        <time>2021-06-26T16:41:31.000Z</time>
        <extensions>
          <ns3:TrackPointExtension>
            <ns3:atemp>29.0</ns3:atemp>
            <ns3:hr>108</ns3:hr>
          </ns3:TrackPointExtension>
        </extensions>
      </trkpt>
      <trkpt lat="36.8143146671354770660400390625" lon="-118.4279482997953891754150390625">
        <ele>3300.199951171875</ele>
        <time>2021-06-26T16:41:34.000Z</time>
        <extensions>
          <ns3:TrackPointExtension>
            <ns3:atemp>29.0</ns3:atemp>
            <ns3:hr>106</ns3:hr>
          </ns3:TrackPointExtension>
        </extensions>
      </trkpt>
      <trkpt lat="36.81431340985000133514404296875" lon="-118.42797537334263324737548828125">
        <ele>3300</ele>
        <time>2021-06-26T16:41:36.000Z</time>
        <extensions>
          <ns3:TrackPointExtension>
            <ns3:atemp>29.0</ns3:atemp>
            <ns3:hr>103</ns3:hr>
          </ns3:TrackPointExtension>
        </extensions>
      </trkpt>
      <trkpt lat="36.8143049441277980804443359375" lon="-118.42799599282443523406982421875">
        <ele>3299.60009765625</ele>
        <time>2021-06-26T16:41:38.000Z</time>
        <extensions>
          <ns3:TrackPointExtension>
            <ns3:atemp>29.0</ns3:atemp>
            <ns3:hr>104</ns3:hr>
          </ns3:TrackPointExtension>
        </extensions>
      </trkpt>
      <trkpt lat="36.81426999159157276153564453125" lon="-118.42801610939204692840576171875">
        <ele>3299.39990234375</ele>
        <time>2021-06-26T16:41:42.000Z</time>
        <extensions>
          <ns3:TrackPointExtension>
            <ns3:atemp>29.0</ns3:atemp>
            <ns3:hr>106</ns3:hr>
          </ns3:TrackPointExtension>
        </extensions>
      </trkpt>
      <trkpt lat="36.81424652226269245147705078125" lon="-118.42802600003778934478759765625">
        <ele>3299.39990234375</ele>
        <time>2021-06-26T16:41:44.000Z</time>
        <extensions>
          <ns3:TrackPointExtension>
            <ns3:atemp>29.0</ns3:atemp>
            <ns3:hr>106</ns3:hr>
          </ns3:TrackPointExtension>
        </extensions>
      </trkpt>
      <trkpt lat="36.8142174370586872100830078125" lon="-118.42805852182209491729736328125">
        <ele>3299.39990234375</ele>
        <time>2021-06-26T16:41:48.000Z</time>
        <extensions>
          <ns3:TrackPointExtension>
            <ns3:atemp>29.0</ns3:atemp>
            <ns3:hr>104</ns3:hr>
          </ns3:TrackPointExtension>
        </extensions>
      </trkpt>
      <trkpt lat="36.8141862563788890838623046875" lon="-118.428120128810405731201171875">
        <ele>3299.60009765625</ele>
        <time>2021-06-26T16:41:54.000Z</time>
        <extensions>
          <ns3:TrackPointExtension>
            <ns3:atemp>29.0</ns3:atemp>
            <ns3:hr>107</ns3:hr>
          </ns3:TrackPointExtension>
        </extensions>
      </trkpt>
      <trkpt lat="36.81415583007037639617919921875" lon="-118.42815457843244075775146484375">
        <ele>3299.60009765625</ele>
        <time>2021-06-26T16:41:58.000Z</time>
        <extensions>
          <ns3:TrackPointExtension>
            <ns3:atemp>29.0</ns3:atemp>
            <ns3:hr>110</ns3:hr>
          </ns3:TrackPointExtension>
        </extensions>
      </trkpt>
      <trkpt lat="36.8141175247728824615478515625" lon="-118.428230769932270050048828125">
        <ele>3299.60009765625</ele>
        <time>2021-06-26T16:42:06.000Z</time>
        <extensions>
          <ns3:TrackPointExtension>
            <ns3:atemp>29.0</ns3:atemp>
            <ns3:hr>111</ns3:hr>
          </ns3:TrackPointExtension>
        </extensions>
      </trkpt>
      <trkpt lat="36.8141349591314792633056640625" lon="-118.42828483320772647857666015625">
        <ele>3300</ele>
        <time>2021-06-26T16:42:12.000Z</time>
        <extensions>
          <ns3:TrackPointExtension>
            <ns3:atemp>29.0</ns3:atemp>
            <ns3:hr>109</ns3:hr>
          </ns3:TrackPointExtension>
        </extensions>
      </trkpt>
      <trkpt lat="36.8141322769224643707275390625" lon="-118.4283030219376087188720703125">
        <ele>3300</ele>
        <time>2021-06-26T16:42:14.000Z</time>
        <extensions>
          <ns3:TrackPointExtension>
            <ns3:atemp>29.0</ns3:atemp>
            <ns3:hr>108</ns3:hr>
          </ns3:TrackPointExtension>
        </extensions>
      </trkpt>
      <trkpt lat="36.81413202546536922454833984375" lon="-118.42832406051456928253173828125">
        <ele>3300.199951171875</ele>
        <time>2021-06-26T16:42:16.000Z</time>
        <extensions>
          <ns3:TrackPointExtension>
            <ns3:atemp>29.0</ns3:atemp>
            <ns3:hr>104</ns3:hr>
          </ns3:TrackPointExtension>
        </extensions>
      </trkpt>
      <trkpt lat="36.81413613259792327880859375" lon="-118.42834166251122951507568359375">
        <ele>3300.800048828125</ele>
        <time>2021-06-26T16:42:19.000Z</time>
        <extensions>
          <ns3:TrackPointExtension>
            <ns3:atemp>29.0</ns3:atemp>
            <ns3:hr>108</ns3:hr>
          </ns3:TrackPointExtension>
        </extensions>
      </trkpt>
      <trkpt lat="36.81413537822663784027099609375" lon="-118.428359515964984893798828125">
        <ele>3301</ele>
        <time>2021-06-26T16:42:21.000Z</time>
        <extensions>
          <ns3:TrackPointExtension>
            <ns3:atemp>29.0</ns3:atemp>
            <ns3:hr>109</ns3:hr>
          </ns3:TrackPointExtension>
        </extensions>
      </trkpt>
      <trkpt lat="36.81413286365568637847900390625" lon="-118.4283637069165706634521484375">
        <ele>3301</ele>
        <time>2021-06-26T16:42:22.000Z</time>
        <extensions>
          <ns3:TrackPointExtension>
            <ns3:atemp>29.0</ns3:atemp>
            <ns3:hr>109</ns3:hr>
          </ns3:TrackPointExtension>
        </extensions>
      </trkpt>
      <trkpt lat="36.81413948535919189453125" lon="-118.42838399112224578857421875">
        <ele>3301.800048828125</ele>
        <time>2021-06-26T16:42:27.000Z</time>
        <extensions>
          <ns3:TrackPointExtension>
            <ns3:atemp>29.0</ns3:atemp>
            <ns3:hr>112</ns3:hr>
          </ns3:TrackPointExtension>
        </extensions>
      </trkpt>
      <trkpt lat="36.81414208374917507171630859375" lon="-118.42838935554027557373046875">
        <ele>3301.800048828125</ele>
        <time>2021-06-26T16:42:28.000Z</time>
        <extensions>
          <ns3:TrackPointExtension>
            <ns3:atemp>29.0</ns3:atemp>
            <ns3:hr>113</ns3:hr>
          </ns3:TrackPointExtension>
        </extensions>
      </trkpt>
      <trkpt lat="36.81415700353682041168212890625" lon="-118.4284183569252490997314453125">
        <ele>3302.199951171875</ele>
        <time>2021-06-26T16:42:31.000Z</time>
        <extensions>
          <ns3:TrackPointExtension>
            <ns3:atemp>29.0</ns3:atemp>
            <ns3:hr>116</ns3:hr>
          </ns3:TrackPointExtension>
        </extensions>
      </trkpt>
      <trkpt lat="36.814177371561527252197265625" lon="-118.42846638523042201995849609375">
        <ele>3302.199951171875</ele>
        <time>2021-06-26T16:42:36.000Z</time>
        <extensions>
          <ns3:TrackPointExtension>
            <ns3:atemp>29.0</ns3:atemp>
            <ns3:hr>119</ns3:hr>
          </ns3:TrackPointExtension>
        </extensions>
      </trkpt>
      <trkpt lat="36.81418550200760364532470703125" lon="-118.4285373799502849578857421875">
        <ele>3301.39990234375</ele>
        <time>2021-06-26T16:42:44.000Z</time>
        <extensions>
          <ns3:TrackPointExtension>
            <ns3:atemp>29.0</ns3:atemp>
            <ns3:hr>119</ns3:hr>
          </ns3:TrackPointExtension>
        </extensions>
      </trkpt>
      <trkpt lat="36.81417276151478290557861328125" lon="-118.428588844835758209228515625">
        <ele>3301.199951171875</ele>
        <time>2021-06-26T16:42:50.000Z</time>
        <extensions>
          <ns3:TrackPointExtension>
            <ns3:atemp>29.0</ns3:atemp>
            <ns3:hr>118</ns3:hr>
          </ns3:TrackPointExtension>
        </extensions>
      </trkpt>
      <trkpt lat="36.8141611106693744659423828125" lon="-118.42861860059201717376708984375">
        <ele>3300.60009765625</ele>
        <time>2021-06-26T16:42:53.000Z</time>
        <extensions>
          <ns3:TrackPointExtension>
            <ns3:atemp>29.0</ns3:atemp>
            <ns3:hr>118</ns3:hr>
          </ns3:TrackPointExtension>
        </extensions>
      </trkpt>
      <trkpt lat="36.814156584441661834716796875" lon="-118.42863603495061397552490234375">
        <ele>3300.60009765625</ele>
        <time>2021-06-26T16:42:55.000Z</time>
        <extensions>
          <ns3:TrackPointExtension>
            <ns3:atemp>29.0</ns3:atemp>
            <ns3:hr>115</ns3:hr>
          </ns3:TrackPointExtension>
        </extensions>
      </trkpt>
      <trkpt lat="36.81415214203298091888427734375" lon="-118.42864709906280040740966796875">
        <ele>3300.800048828125</ele>
        <time>2021-06-26T16:42:56.000Z</time>
        <extensions>
          <ns3:TrackPointExtension>
            <ns3:atemp>29.0</ns3:atemp>
            <ns3:hr>115</ns3:hr>
          </ns3:TrackPointExtension>
        </extensions>
      </trkpt>
      <trkpt lat="36.8141289241611957550048828125" lon="-118.428663946688175201416015625">
        <ele>3300.800048828125</ele>
        <time>2021-06-26T16:42:59.000Z</time>
        <extensions>
          <ns3:TrackPointExtension>
            <ns3:atemp>29.0</ns3:atemp>
            <ns3:hr>112</ns3:hr>
          </ns3:TrackPointExtension>
        </extensions>
      </trkpt>
      <trkpt lat="36.8141032755374908447265625" lon="-118.428684063255786895751953125">
        <ele>3301</ele>
        <time>2021-06-26T16:43:03.000Z</time>
        <extensions>
          <ns3:TrackPointExtension>
            <ns3:atemp>29.0</ns3:atemp>
            <ns3:hr>110</ns3:hr>
          </ns3:TrackPointExtension>
        </extensions>
      </trkpt>
      <trkpt lat="36.81408357806503772735595703125" lon="-118.42872555367648601531982421875">
        <ele>3301.800048828125</ele>
        <time>2021-06-26T16:43:08.000Z</time>
        <extensions>
          <ns3:TrackPointExtension>
            <ns3:atemp>29.0</ns3:atemp>
            <ns3:hr>108</ns3:hr>
          </ns3:TrackPointExtension>
        </extensions>
      </trkpt>
      <trkpt lat="36.81407603435218334197998046875" lon="-118.4287427365779876708984375">
        <ele>3301.800048828125</ele>
        <time>2021-06-26T16:43:10.000Z</time>
        <extensions>
          <ns3:TrackPointExtension>
            <ns3:atemp>29.0</ns3:atemp>
            <ns3:hr>108</ns3:hr>
          </ns3:TrackPointExtension>
        </extensions>
      </trkpt>
      <trkpt lat="36.81404627859592437744140625" lon="-118.4288253821432590484619140625">
        <ele>3302.60009765625</ele>
        <time>2021-06-26T16:43:19.000Z</time>
        <extensions>
          <ns3:TrackPointExtension>
            <ns3:atemp>29.0</ns3:atemp>
            <ns3:hr>109</ns3:hr>
          </ns3:TrackPointExtension>
        </extensions>
      </trkpt>
      <trkpt lat="36.81404133327305316925048828125" lon="-118.4288339316844940185546875">
        <ele>3302.39990234375</ele>
        <time>2021-06-26T16:43:20.000Z</time>
        <extensions>
          <ns3:TrackPointExtension>
            <ns3:atemp>29.0</ns3:atemp>
            <ns3:hr>112</ns3:hr>
          </ns3:TrackPointExtension>
        </extensions>
      </trkpt>
      <trkpt lat="36.8140387348830699920654296875" lon="-118.4288515336811542510986328125">
        <ele>3302.39990234375</ele>
        <time>2021-06-26T16:43:22.000Z</time>
        <extensions>
          <ns3:TrackPointExtension>
            <ns3:atemp>29.0</ns3:atemp>
            <ns3:hr>115</ns3:hr>
          </ns3:TrackPointExtension>
        </extensions>
      </trkpt>
      <trkpt lat="36.81403328664600849151611328125" lon="-118.4288448281586170196533203125">
        <ele>3302.60009765625</ele>
        <time>2021-06-26T16:43:27.000Z</time>
        <extensions>
          <ns3:TrackPointExtension>
            <ns3:atemp>29.0</ns3:atemp>
            <ns3:hr>118</ns3:hr>
          </ns3:TrackPointExtension>
        </extensions>
      </trkpt>
      <trkpt lat="36.8140343762934207916259765625" lon="-118.42883988283574581146240234375">
        <ele>3302.800048828125</ele>
        <time>2021-06-26T16:43:30.000Z</time>
        <extensions>
          <ns3:TrackPointExtension>
            <ns3:atemp>29.0</ns3:atemp>
            <ns3:hr>120</ns3:hr>
          </ns3:TrackPointExtension>
        </extensions>
      </trkpt>
      <trkpt lat="36.8140333704650402069091796875" lon="-118.42883602716028690338134765625">
        <ele>3302.60009765625</ele>
        <time>2021-06-26T16:43:33.000Z</time>
        <extensions>
          <ns3:TrackPointExtension>
            <ns3:atemp>29.0</ns3:atemp>
            <ns3:hr>123</ns3:hr>
          </ns3:TrackPointExtension>
        </extensions>
      </trkpt>
      <trkpt lat="36.8140333704650402069091796875" lon="-118.42883602716028690338134765625">
        <ele>3302.60009765625</ele>
        <time>2021-06-26T16:43:34.000Z</time>
        <extensions>
          <ns3:TrackPointExtension>
            <ns3:atemp>29.0</ns3:atemp>
            <ns3:hr>122</ns3:hr>
          </ns3:TrackPointExtension>
        </extensions>
      </trkpt>
      <trkpt lat="36.8140333704650402069091796875" lon="-118.42883602716028690338134765625">
        <ele>3302.60009765625</ele>
        <time>2021-06-26T16:43:36.000Z</time>
        <extensions>
          <ns3:TrackPointExtension>
            <ns3:atemp>29.0</ns3:atemp>
            <ns3:hr>119</ns3:hr>
          </ns3:TrackPointExtension>
        </extensions>
      </trkpt>
      <trkpt lat="36.8140333704650402069091796875" lon="-118.42883602716028690338134765625">
        <ele>3302.60009765625</ele>
        <time>2021-06-26T16:43:38.000Z</time>
        <extensions>
          <ns3:TrackPointExtension>
            <ns3:atemp>29.0</ns3:atemp>
            <ns3:hr>115</ns3:hr>
          </ns3:TrackPointExtension>
        </extensions>
      </trkpt>
      <trkpt lat="36.8140333704650402069091796875" lon="-118.42883602716028690338134765625">
        <ele>3302.60009765625</ele>
        <time>2021-06-26T16:43:43.000Z</time>
        <extensions>
          <ns3:TrackPointExtension>
            <ns3:atemp>29.0</ns3:atemp>
            <ns3:hr>112</ns3:hr>
          </ns3:TrackPointExtension>
        </extensions>
      </trkpt>
      <trkpt lat="36.81402792222797870635986328125" lon="-118.42883602716028690338134765625">
        <ele>3302.60009765625</ele>
        <time>2021-06-26T16:43:51.000Z</time>
        <extensions>
          <ns3:TrackPointExtension>
            <ns3:atemp>28.0</ns3:atemp>
            <ns3:hr>109</ns3:hr>
          </ns3:TrackPointExtension>
        </extensions>
      </trkpt>
      <trkpt lat="36.81401836685836315155029296875" lon="-118.4288555569946765899658203125">
        <ele>3302.60009765625</ele>
        <time>2021-06-26T16:43:58.000Z</time>
        <extensions>
          <ns3:TrackPointExtension>
            <ns3:atemp>28.0</ns3:atemp>
            <ns3:hr>106</ns3:hr>
          </ns3:TrackPointExtension>
        </extensions>
      </trkpt>
      <trkpt lat="36.8140176124870777130126953125" lon="-118.42889151535928249359130859375">
        <ele>3302.60009765625</ele>
        <time>2021-06-26T16:44:00.000Z</time>
        <extensions>
          <ns3:TrackPointExtension>
            <ns3:atemp>28.0</ns3:atemp>
            <ns3:hr>107</ns3:hr>
          </ns3:TrackPointExtension>
        </extensions>
      </trkpt>
      <trkpt lat="36.81402289308607578277587890625" lon="-118.42894834466278553009033203125">
        <ele>3302.60009765625</ele>
        <time>2021-06-26T16:44:03.000Z</time>
        <extensions>
          <ns3:TrackPointExtension>
            <ns3:atemp>28.0</ns3:atemp>
            <ns3:hr>107</ns3:hr>
          </ns3:TrackPointExtension>
        </extensions>
      </trkpt>
      <trkpt lat="36.814029179513454437255859375" lon="-118.4289900027215480804443359375">
        <ele>3302.60009765625</ele>
        <time>2021-06-26T16:44:05.000Z</time>
        <extensions>
          <ns3:TrackPointExtension>
            <ns3:atemp>28.0</ns3:atemp>
            <ns3:hr>110</ns3:hr>
          </ns3:TrackPointExtension>
        </extensions>
      </trkpt>
      <trkpt lat="36.81403127498924732208251953125" lon="-118.42902512289583683013916015625">
        <ele>3302.60009765625</ele>
        <time>2021-06-26T16:44:07.000Z</time>
        <extensions>
          <ns3:TrackPointExtension>
            <ns3:atemp>28.0</ns3:atemp>
            <ns3:hr>114</ns3:hr>
          </ns3:TrackPointExtension>
        </extensions>
      </trkpt>
      <trkpt lat="36.814031191170215606689453125" lon="-118.4290458261966705322265625">
        <ele>3302.60009765625</ele>
        <time>2021-06-26T16:44:09.000Z</time>
        <extensions>
          <ns3:TrackPointExtension>
            <ns3:atemp>28.0</ns3:atemp>
            <ns3:hr>118</ns3:hr>
          </ns3:TrackPointExtension>
        </extensions>
      </trkpt>
      <trkpt lat="36.81403513066470623016357421875" lon="-118.4290718100965023040771484375">
        <ele>3302.60009765625</ele>
        <time>2021-06-26T16:44:11.000Z</time>
        <extensions>
          <ns3:TrackPointExtension>
            <ns3:atemp>28.0</ns3:atemp>
            <ns3:hr>121</ns3:hr>
          </ns3:TrackPointExtension>
        </extensions>
      </trkpt>
      <trkpt lat="36.814047954976558685302734375" lon="-118.4291048347949981689453125">
        <ele>3302.800048828125</ele>
        <time>2021-06-26T16:44:14.000Z</time>
        <extensions>
          <ns3:TrackPointExtension>
            <ns3:atemp>28.0</ns3:atemp>
            <ns3:hr>124</ns3:hr>
          </ns3:TrackPointExtension>
        </extensions>
      </trkpt>
      <trkpt lat="36.81405507959425449371337890625" lon="-118.42913660220801830291748046875">
        <ele>3302.800048828125</ele>
        <time>2021-06-26T16:44:16.000Z</time>
        <extensions>
          <ns3:TrackPointExtension>
            <ns3:atemp>28.0</ns3:atemp>
            <ns3:hr>124</ns3:hr>
          </ns3:TrackPointExtension>
        </extensions>
      </trkpt>
      <trkpt lat="36.81404468603432178497314453125" lon="-118.42921949923038482666015625">
        <ele>3303.60009765625</ele>
        <time>2021-06-26T16:44:25.000Z</time>
        <extensions>
          <ns3:TrackPointExtension>
            <ns3:atemp>28.0</ns3:atemp>
            <ns3:hr>123</ns3:hr>
          </ns3:TrackPointExtension>
        </extensions>
      </trkpt>
      <trkpt lat="36.81400847621262073516845703125" lon="-118.42920499853789806365966796875">
        <ele>3303</ele>
        <time>2021-06-26T16:44:30.000Z</time>
        <extensions>
          <ns3:TrackPointExtension>
            <ns3:atemp>28.0</ns3:atemp>
            <ns3:hr>123</ns3:hr>
          </ns3:TrackPointExtension>
        </extensions>
      </trkpt>
      <trkpt lat="36.81405742652714252471923828125" lon="-118.4292290546000003814697265625">
        <ele>3302.800048828125</ele>
        <time>2021-06-26T16:44:37.000Z</time>
        <extensions>
          <ns3:TrackPointExtension>
            <ns3:atemp>28.0</ns3:atemp>
            <ns3:hr>120</ns3:hr>
          </ns3:TrackPointExtension>
        </extensions>
      </trkpt>
      <trkpt lat="36.81406077928841114044189453125" lon="-118.4292381070554256439208984375">
        <ele>3302.60009765625</ele>
        <time>2021-06-26T16:44:39.000Z</time>
        <extensions>
          <ns3:TrackPointExtension>
            <ns3:atemp>28.0</ns3:atemp>
            <ns3:hr>117</ns3:hr>
          </ns3:TrackPointExtension>
        </extensions>
      </trkpt>
      <trkpt lat="36.814060695469379425048828125" lon="-118.42923835851252079010009765625">
        <ele>3302.39990234375</ele>
        <time>2021-06-26T16:44:41.000Z</time>
        <extensions>
          <ns3:TrackPointExtension>
            <ns3:atemp>28.0</ns3:atemp>
            <ns3:hr>119</ns3:hr>
          </ns3:TrackPointExtension>
        </extensions>
      </trkpt>
      <trkpt lat="36.814060695469379425048828125" lon="-118.42923835851252079010009765625">
        <ele>3302.39990234375</ele>
        <time>2021-06-26T16:44:45.000Z</time>
        <extensions>
          <ns3:TrackPointExtension>
            <ns3:atemp>28.0</ns3:atemp>
            <ns3:hr>116</ns3:hr>
          </ns3:TrackPointExtension>
        </extensions>
      </trkpt>
      <trkpt lat="36.8140601925551891326904296875" lon="-118.42923399992287158966064453125">
        <ele>3303</ele>
        <time>2021-06-26T16:44:58.000Z</time>
        <extensions>
          <ns3:TrackPointExtension>
            <ns3:atemp>28.0</ns3:atemp>
            <ns3:hr>113</ns3:hr>
          </ns3:TrackPointExtension>
        </extensions>
      </trkpt>
      <trkpt lat="36.8140601925551891326904296875" lon="-118.4292263723909854888916015625">
        <ele>3303.199951171875</ele>
        <time>2021-06-26T16:45:07.000Z</time>
        <extensions>
          <ns3:TrackPointExtension>
            <ns3:atemp>28.0</ns3:atemp>
            <ns3:hr>110</ns3:hr>
          </ns3:TrackPointExtension>
        </extensions>
      </trkpt>
      <trkpt lat="36.81405834853649139404296875" lon="-118.429207764565944671630859375">
        <ele>3303</ele>
        <time>2021-06-26T16:45:13.000Z</time>
        <extensions>
          <ns3:TrackPointExtension>
            <ns3:atemp>28.0</ns3:atemp>
            <ns3:hr>106</ns3:hr>
          </ns3:TrackPointExtension>
        </extensions>
      </trkpt>
      <trkpt lat="36.81405809707939624786376953125" lon="-118.429206423461437225341796875">
        <ele>3302.800048828125</ele>
        <time>2021-06-26T16:45:15.000Z</time>
        <extensions>
          <ns3:TrackPointExtension>
            <ns3:atemp>28.0</ns3:atemp>
            <ns3:hr>101</ns3:hr>
          </ns3:TrackPointExtension>
        </extensions>
      </trkpt>
      <trkpt lat="36.81405809707939624786376953125" lon="-118.429205082356929779052734375">
        <ele>3302.800048828125</ele>
        <time>2021-06-26T16:45:16.000Z</time>
        <extensions>
          <ns3:TrackPointExtension>
            <ns3:atemp>28.0</ns3:atemp>
            <ns3:hr>98</ns3:hr>
          </ns3:TrackPointExtension>
        </extensions>
      </trkpt>
      <trkpt lat="36.8140575103461742401123046875" lon="-118.42920298688113689422607421875">
        <ele>3302.800048828125</ele>
        <time>2021-06-26T16:45:18.000Z</time>
        <extensions>
          <ns3:TrackPointExtension>
            <ns3:atemp>28.0</ns3:atemp>
            <ns3:hr>93</ns3:hr>
          </ns3:TrackPointExtension>
        </extensions>
      </trkpt>
      <trkpt lat="36.81405725888907909393310546875" lon="-118.4292015619575977325439453125">
        <ele>3302.800048828125</ele>
        <time>2021-06-26T16:45:20.000Z</time>
        <extensions>
          <ns3:TrackPointExtension>
            <ns3:atemp>28.0</ns3:atemp>
            <ns3:hr>90</ns3:hr>
          </ns3:TrackPointExtension>
        </extensions>
      </trkpt>
      <trkpt lat="36.81405725888907909393310546875" lon="-118.42920147813856601715087890625">
        <ele>3302.800048828125</ele>
        <time>2021-06-26T16:45:24.000Z</time>
        <extensions>
          <ns3:TrackPointExtension>
            <ns3:atemp>28.0</ns3:atemp>
            <ns3:hr>87</ns3:hr>
          </ns3:TrackPointExtension>
        </extensions>
      </trkpt>
      <trkpt lat="36.81405206210911273956298828125" lon="-118.42920902185142040252685546875">
        <ele>3303</ele>
        <time>2021-06-26T16:45:43.000Z</time>
        <extensions>
          <ns3:TrackPointExtension>
            <ns3:atemp>28.0</ns3:atemp>
            <ns3:hr>91</ns3:hr>
          </ns3:TrackPointExtension>
        </extensions>
      </trkpt>
      <trkpt lat="36.81404896080493927001953125" lon="-118.429212458431720733642578125">
        <ele>3303</ele>
        <time>2021-06-26T16:45:47.000Z</time>
        <extensions>
          <ns3:TrackPointExtension>
            <ns3:atemp>28.0</ns3:atemp>
            <ns3:hr>94</ns3:hr>
          </ns3:TrackPointExtension>
        </extensions>
      </trkpt>
      <trkpt lat="36.814035885035991668701171875" lon="-118.42922125943005084991455078125">
        <ele>3303</ele>
        <time>2021-06-26T16:45:59.000Z</time>
        <extensions>
          <ns3:TrackPointExtension>
            <ns3:atemp>29.0</ns3:atemp>
            <ns3:hr>91</ns3:hr>
          </ns3:TrackPointExtension>
        </extensions>
      </trkpt>
      <trkpt lat="36.814032532274723052978515625" lon="-118.42923215590417385101318359375">
        <ele>3303</ele>
        <time>2021-06-26T16:46:12.000Z</time>
        <extensions>
          <ns3:TrackPointExtension>
            <ns3:atemp>29.0</ns3:atemp>
            <ns3:hr>90</ns3:hr>
          </ns3:TrackPointExtension>
        </extensions>
      </trkpt>
      <trkpt lat="36.81403228081762790679931640625" lon="-118.42923332937061786651611328125">
        <ele>3303</ele>
        <time>2021-06-26T16:46:16.000Z</time>
        <extensions>
          <ns3:TrackPointExtension>
            <ns3:atemp>29.0</ns3:atemp>
            <ns3:hr>87</ns3:hr>
          </ns3:TrackPointExtension>
        </extensions>
      </trkpt>
      <trkpt lat="36.81403228081762790679931640625" lon="-118.4292337484657764434814453125">
        <ele>3303</ele>
        <time>2021-06-26T16:46:19.000Z</time>
        <extensions>
          <ns3:TrackPointExtension>
            <ns3:atemp>29.0</ns3:atemp>
            <ns3:hr>84</ns3:hr>
          </ns3:TrackPointExtension>
        </extensions>
      </trkpt>
      <trkpt lat="36.814018785953521728515625" lon="-118.42929728329181671142578125">
        <ele>3303</ele>
        <time>2021-06-26T16:46:28.000Z</time>
        <extensions>
          <ns3:TrackPointExtension>
            <ns3:atemp>29.0</ns3:atemp>
            <ns3:hr>83</ns3:hr>
          </ns3:TrackPointExtension>
        </extensions>
      </trkpt>
      <trkpt lat="36.81398550979793071746826171875" lon="-118.4293554536998271942138671875">
        <ele>3303</ele>
        <time>2021-06-26T16:46:33.000Z</time>
        <extensions>
          <ns3:TrackPointExtension>
            <ns3:atemp>29.0</ns3:atemp>
            <ns3:hr>86</ns3:hr>
          </ns3:TrackPointExtension>
        </extensions>
      </trkpt>
      <trkpt lat="36.81397746317088603973388671875" lon="-118.42936299741268157958984375">
        <ele>3303</ele>
        <time>2021-06-26T16:46:34.000Z</time>
        <extensions>
          <ns3:TrackPointExtension>
            <ns3:atemp>29.0</ns3:atemp>
            <ns3:hr>86</ns3:hr>
          </ns3:TrackPointExtension>
        </extensions>
      </trkpt>
      <trkpt lat="36.81392566300928592681884765625" lon="-118.4293909929692745208740234375">
        <ele>3302.60009765625</ele>
        <time>2021-06-26T16:46:41.000Z</time>
        <extensions>
          <ns3:TrackPointExtension>
            <ns3:atemp>29.0</ns3:atemp>
            <ns3:hr>83</ns3:hr>
          </ns3:TrackPointExtension>
        </extensions>
      </trkpt>
      <trkpt lat="36.8139182031154632568359375" lon="-118.429396860301494598388671875">
        <ele>3302.60009765625</ele>
        <time>2021-06-26T16:46:42.000Z</time>
        <extensions>
          <ns3:TrackPointExtension>
            <ns3:atemp>29.0</ns3:atemp>
            <ns3:hr>86</ns3:hr>
          </ns3:TrackPointExtension>
        </extensions>
      </trkpt>
      <trkpt lat="36.81391275487840175628662109375" lon="-118.4294020570814609527587890625">
        <ele>3302.800048828125</ele>
        <time>2021-06-26T16:46:43.000Z</time>
        <extensions>
          <ns3:TrackPointExtension>
            <ns3:atemp>29.0</ns3:atemp>
            <ns3:hr>84</ns3:hr>
          </ns3:TrackPointExtension>
        </extensions>
      </trkpt>
      <trkpt lat="36.81389071047306060791015625" lon="-118.42941823415458202362060546875">
        <ele>3302.800048828125</ele>
        <time>2021-06-26T16:46:46.000Z</time>
        <extensions>
          <ns3:TrackPointExtension>
            <ns3:atemp>29.0</ns3:atemp>
            <ns3:hr>81</ns3:hr>
          </ns3:TrackPointExtension>
        </extensions>
      </trkpt>
      <trkpt lat="36.81388534605503082275390625" lon="-118.42942091636359691619873046875">
        <ele>3302.800048828125</ele>
        <time>2021-06-26T16:46:47.000Z</time>
        <extensions>
          <ns3:TrackPointExtension>
            <ns3:atemp>29.0</ns3:atemp>
            <ns3:hr>84</ns3:hr>
          </ns3:TrackPointExtension>
        </extensions>
      </trkpt>
      <trkpt lat="36.81388375349342823028564453125" lon="-118.4294674359261989593505859375">
        <ele>3303.39990234375</ele>
        <time>2021-06-26T16:46:51.000Z</time>
        <extensions>
          <ns3:TrackPointExtension>
            <ns3:atemp>29.0</ns3:atemp>
            <ns3:hr>84</ns3:hr>
          </ns3:TrackPointExtension>
        </extensions>
      </trkpt>
      <trkpt lat="36.81389012373983860015869140625" lon="-118.4294821880757808685302734375">
        <ele>3304</ele>
        <time>2021-06-26T16:46:52.000Z</time>
        <extensions>
          <ns3:TrackPointExtension>
            <ns3:atemp>29.0</ns3:atemp>
            <ns3:hr>85</ns3:hr>
          </ns3:TrackPointExtension>
        </extensions>
      </trkpt>
      <trkpt lat="36.81390252895653247833251953125" lon="-118.429544381797313690185546875">
        <ele>3305.60009765625</ele>
        <time>2021-06-26T16:46:58.000Z</time>
        <extensions>
          <ns3:TrackPointExtension>
            <ns3:atemp>29.0</ns3:atemp>
            <ns3:hr>86</ns3:hr>
          </ns3:TrackPointExtension>
        </extensions>
      </trkpt>
      <trkpt lat="36.81390588171780109405517578125" lon="-118.429555110633373260498046875">
        <ele>3306</ele>
        <time>2021-06-26T16:46:59.000Z</time>
        <extensions>
          <ns3:TrackPointExtension>
            <ns3:atemp>29.0</ns3:atemp>
            <ns3:hr>88</ns3:hr>
          </ns3:TrackPointExtension>
        </extensions>
      </trkpt>
      <trkpt lat="36.8139244057238101959228515625" lon="-118.42957598157227039337158203125">
        <ele>3306.60009765625</ele>
        <time>2021-06-26T16:47:02.000Z</time>
        <extensions>
          <ns3:TrackPointExtension>
            <ns3:atemp>29.0</ns3:atemp>
            <ns3:hr>91</ns3:hr>
          </ns3:TrackPointExtension>
        </extensions>
      </trkpt>
      <trkpt lat="36.8139394931495189666748046875" lon="-118.42959106899797916412353515625">
        <ele>3306.60009765625</ele>
        <time>2021-06-26T16:47:05.000Z</time>
        <extensions>
          <ns3:TrackPointExtension>
            <ns3:atemp>29.0</ns3:atemp>
            <ns3:hr>95</ns3:hr>
          </ns3:TrackPointExtension>
        </extensions>
      </trkpt>
      <trkpt lat="36.81394795887172222137451171875" lon="-118.42960632406175136566162109375">
        <ele>3307.199951171875</ele>
        <time>2021-06-26T16:47:08.000Z</time>
        <extensions>
          <ns3:TrackPointExtension>
            <ns3:atemp>29.0</ns3:atemp>
            <ns3:hr>95</ns3:hr>
          </ns3:TrackPointExtension>
        </extensions>
      </trkpt>
      <trkpt lat="36.813950054347515106201171875" lon="-118.42961244285106658935546875">
        <ele>3307.39990234375</ele>
        <time>2021-06-26T16:47:09.000Z</time>
        <extensions>
          <ns3:TrackPointExtension>
            <ns3:atemp>29.0</ns3:atemp>
            <ns3:hr>95</ns3:hr>
          </ns3:TrackPointExtension>
        </extensions>
      </trkpt>
      <trkpt lat="36.81395533494651317596435546875" lon="-118.429623506963253021240234375">
        <ele>3308.39990234375</ele>
        <time>2021-06-26T16:47:11.000Z</time>
        <extensions>
          <ns3:TrackPointExtension>
            <ns3:atemp>29.0</ns3:atemp>
            <ns3:hr>97</ns3:hr>
          </ns3:TrackPointExtension>
        </extensions>
      </trkpt>
      <trkpt lat="36.81396639905869960784912109375" lon="-118.4296498261392116546630859375">
        <ele>3308.60009765625</ele>
        <time>2021-06-26T16:47:14.000Z</time>
        <extensions>
          <ns3:TrackPointExtension>
            <ns3:atemp>29.0</ns3:atemp>
            <ns3:hr>101</ns3:hr>
          </ns3:TrackPointExtension>
        </extensions>
      </trkpt>
      <trkpt lat="36.81398986838757991790771484375" lon="-118.4296667575836181640625">
        <ele>3308.800048828125</ele>
        <time>2021-06-26T16:47:18.000Z</time>
        <extensions>
          <ns3:TrackPointExtension>
            <ns3:atemp>29.0</ns3:atemp>
            <ns3:hr>104</ns3:hr>
          </ns3:TrackPointExtension>
        </extensions>
      </trkpt>
      <trkpt lat="36.81399724446237087249755859375" lon="-118.42967656441032886505126953125">
        <ele>3309.199951171875</ele>
        <time>2021-06-26T16:47:21.000Z</time>
        <extensions>
          <ns3:TrackPointExtension>
            <ns3:atemp>29.0</ns3:atemp>
            <ns3:hr>106</ns3:hr>
          </ns3:TrackPointExtension>
        </extensions>
      </trkpt>
      <trkpt lat="36.81399238295853137969970703125" lon="-118.42968477867543697357177734375">
        <ele>3309.39990234375</ele>
        <time>2021-06-26T16:47:23.000Z</time>
        <extensions>
          <ns3:TrackPointExtension>
            <ns3:atemp>29.0</ns3:atemp>
            <ns3:hr>108</ns3:hr>
          </ns3:TrackPointExtension>
        </extensions>
      </trkpt>
      <trkpt lat="36.81398215703666210174560546875" lon="-118.429697267711162567138671875">
        <ele>3309.800048828125</ele>
        <time>2021-06-26T16:47:26.000Z</time>
        <extensions>
          <ns3:TrackPointExtension>
            <ns3:atemp>29.0</ns3:atemp>
            <ns3:hr>111</ns3:hr>
          </ns3:TrackPointExtension>
        </extensions>
      </trkpt>
      <trkpt lat="36.81398081593215465545654296875" lon="-118.4297152049839496612548828125">
        <ele>3310.199951171875</ele>
        <time>2021-06-26T16:47:29.000Z</time>
        <extensions>
          <ns3:TrackPointExtension>
            <ns3:atemp>29.0</ns3:atemp>
            <ns3:hr>115</ns3:hr>
          </ns3:TrackPointExtension>
        </extensions>
      </trkpt>
      <trkpt lat="36.81397913955152034759521484375" lon="-118.4297202341258525848388671875">
        <ele>3310.39990234375</ele>
        <time>2021-06-26T16:47:30.000Z</time>
        <extensions>
          <ns3:TrackPointExtension>
            <ns3:atemp>29.0</ns3:atemp>
            <ns3:hr>116</ns3:hr>
          </ns3:TrackPointExtension>
        </extensions>
      </trkpt>
      <trkpt lat="36.8139733560383319854736328125" lon="-118.4297366626560688018798828125">
        <ele>3311</ele>
        <time>2021-06-26T16:47:32.000Z</time>
        <extensions>
          <ns3:TrackPointExtension>
            <ns3:atemp>29.0</ns3:atemp>
            <ns3:hr>120</ns3:hr>
          </ns3:TrackPointExtension>
        </extensions>
      </trkpt>
      <trkpt lat="36.8139730207622051239013671875" lon="-118.4297485649585723876953125">
        <ele>3311.60009765625</ele>
        <time>2021-06-26T16:47:34.000Z</time>
        <extensions>
          <ns3:TrackPointExtension>
            <ns3:atemp>29.0</ns3:atemp>
            <ns3:hr>122</ns3:hr>
          </ns3:TrackPointExtension>
        </extensions>
      </trkpt>
      <trkpt lat="36.81396405212581157684326171875" lon="-118.429763317108154296875">
        <ele>3311.60009765625</ele>
        <time>2021-06-26T16:47:36.000Z</time>
        <extensions>
          <ns3:TrackPointExtension>
            <ns3:atemp>29.0</ns3:atemp>
            <ns3:hr>126</ns3:hr>
          </ns3:TrackPointExtension>
        </extensions>
      </trkpt>
      <trkpt lat="36.81396053172647953033447265625" lon="-118.42977161519229412078857421875">
        <ele>3311.60009765625</ele>
        <time>2021-06-26T16:47:37.000Z</time>
        <extensions>
          <ns3:TrackPointExtension>
            <ns3:atemp>29.0</ns3:atemp>
            <ns3:hr>127</ns3:hr>
          </ns3:TrackPointExtension>
        </extensions>
      </trkpt>
      <trkpt lat="36.813929267227649688720703125" lon="-118.429809249937534332275390625">
        <ele>3312.39990234375</ele>
        <time>2021-06-26T16:47:44.000Z</time>
        <extensions>
          <ns3:TrackPointExtension>
            <ns3:atemp>29.0</ns3:atemp>
            <ns3:hr>129</ns3:hr>
          </ns3:TrackPointExtension>
        </extensions>
      </trkpt>
      <trkpt lat="36.81392013095319271087646484375" lon="-118.42983565293252468109130859375">
        <ele>3312.800048828125</ele>
        <time>2021-06-26T16:47:47.000Z</time>
        <extensions>
          <ns3:TrackPointExtension>
            <ns3:atemp>29.0</ns3:atemp>
            <ns3:hr>130</ns3:hr>
          </ns3:TrackPointExtension>
        </extensions>
      </trkpt>
      <trkpt lat="36.81391426362097263336181640625" lon="-118.4298680908977985382080078125">
        <ele>3313.199951171875</ele>
        <time>2021-06-26T16:47:51.000Z</time>
        <extensions>
          <ns3:TrackPointExtension>
            <ns3:atemp>29.0</ns3:atemp>
            <ns3:hr>131</ns3:hr>
          </ns3:TrackPointExtension>
        </extensions>
      </trkpt>
      <trkpt lat="36.81386564858257770538330078125" lon="-118.42987253330647945404052734375">
        <ele>3313.199951171875</ele>
        <time>2021-06-26T16:47:57.000Z</time>
        <extensions>
          <ns3:TrackPointExtension>
            <ns3:atemp>29.0</ns3:atemp>
            <ns3:hr>131</ns3:hr>
          </ns3:TrackPointExtension>
        </extensions>
      </trkpt>
      <trkpt lat="36.81385852396488189697265625" lon="-118.42987689189612865447998046875">
        <ele>3313.199951171875</ele>
        <time>2021-06-26T16:47:58.000Z</time>
        <extensions>
          <ns3:TrackPointExtension>
            <ns3:atemp>29.0</ns3:atemp>
            <ns3:hr>131</ns3:hr>
          </ns3:TrackPointExtension>
        </extensions>
      </trkpt>
      <trkpt lat="36.81378250010311603546142578125" lon="-118.42991628684103488922119140625">
        <ele>3313.199951171875</ele>
        <time>2021-06-26T16:48:07.000Z</time>
        <extensions>
          <ns3:TrackPointExtension>
            <ns3:atemp>29.0</ns3:atemp>
            <ns3:hr>130</ns3:hr>
          </ns3:TrackPointExtension>
        </extensions>
      </trkpt>
      <trkpt lat="36.8137389980256557464599609375" lon="-118.42994813807308673858642578125">
        <ele>3313.60009765625</ele>
        <time>2021-06-26T16:48:13.000Z</time>
        <extensions>
          <ns3:TrackPointExtension>
            <ns3:atemp>29.0</ns3:atemp>
            <ns3:hr>127</ns3:hr>
          </ns3:TrackPointExtension>
        </extensions>
      </trkpt>
      <trkpt lat="36.81373472325503826141357421875" lon="-118.42995668761432170867919921875">
        <ele>3313.800048828125</ele>
        <time>2021-06-26T16:48:14.000Z</time>
        <extensions>
          <ns3:TrackPointExtension>
            <ns3:atemp>29.0</ns3:atemp>
            <ns3:hr>126</ns3:hr>
          </ns3:TrackPointExtension>
        </extensions>
      </trkpt>
      <trkpt lat="36.81372935883700847625732421875" lon="-118.4299711883068084716796875">
        <ele>3314</ele>
        <time>2021-06-26T16:48:16.000Z</time>
        <extensions>
          <ns3:TrackPointExtension>
            <ns3:atemp>29.0</ns3:atemp>
            <ns3:hr>123</ns3:hr>
          </ns3:TrackPointExtension>
        </extensions>
      </trkpt>
      <trkpt lat="36.813723407685756683349609375" lon="-118.4299845993518829345703125">
        <ele>3314</ele>
        <time>2021-06-26T16:48:18.000Z</time>
        <extensions>
          <ns3:TrackPointExtension>
            <ns3:atemp>29.0</ns3:atemp>
            <ns3:hr>125</ns3:hr>
          </ns3:TrackPointExtension>
        </extensions>
      </trkpt>
      <trkpt lat="36.81371661834418773651123046875" lon="-118.42999197542667388916015625">
        <ele>3315</ele>
        <time>2021-06-26T16:48:21.000Z</time>
        <extensions>
          <ns3:TrackPointExtension>
            <ns3:atemp>29.0</ns3:atemp>
            <ns3:hr>124</ns3:hr>
          </ns3:TrackPointExtension>
        </extensions>
      </trkpt>
      <trkpt lat="36.81370454840362071990966796875" lon="-118.42999205924570560455322265625">
        <ele>3315.199951171875</ele>
        <time>2021-06-26T16:48:23.000Z</time>
        <extensions>
          <ns3:TrackPointExtension>
            <ns3:atemp>29.0</ns3:atemp>
            <ns3:hr>124</ns3:hr>
          </ns3:TrackPointExtension>
        </extensions>
      </trkpt>
      <trkpt lat="36.8136997707188129425048828125" lon="-118.4300085715949535369873046875">
        <ele>3315.800048828125</ele>
        <time>2021-06-26T16:48:25.000Z</time>
        <extensions>
          <ns3:TrackPointExtension>
            <ns3:atemp>29.0</ns3:atemp>
            <ns3:hr>121</ns3:hr>
          </ns3:TrackPointExtension>
        </extensions>
      </trkpt>
      <trkpt lat="36.813701950013637542724609375" lon="-118.4300203062593936920166015625">
        <ele>3316.199951171875</ele>
        <time>2021-06-26T16:48:27.000Z</time>
        <extensions>
          <ns3:TrackPointExtension>
            <ns3:atemp>29.0</ns3:atemp>
            <ns3:hr>122</ns3:hr>
          </ns3:TrackPointExtension>
        </extensions>
      </trkpt>
      <trkpt lat="36.8136960826814174652099609375" lon="-118.43004134483635425567626953125">
        <ele>3317</ele>
        <time>2021-06-26T16:48:31.000Z</time>
        <extensions>
          <ns3:TrackPointExtension>
            <ns3:atemp>29.0</ns3:atemp>
            <ns3:hr>122</ns3:hr>
          </ns3:TrackPointExtension>
        </extensions>
      </trkpt>
      <trkpt lat="36.81368418037891387939453125" lon="-118.43006112612783908843994140625">
        <ele>3318</ele>
        <time>2021-06-26T16:48:34.000Z</time>
        <extensions>
          <ns3:TrackPointExtension>
            <ns3:atemp>29.0</ns3:atemp>
            <ns3:hr>124</ns3:hr>
          </ns3:TrackPointExtension>
        </extensions>
      </trkpt>
      <trkpt lat="36.81367990560829639434814453125" lon="-118.4300722740590572357177734375">
        <ele>3318</ele>
        <time>2021-06-26T16:48:36.000Z</time>
        <extensions>
          <ns3:TrackPointExtension>
            <ns3:atemp>29.0</ns3:atemp>
            <ns3:hr>127</ns3:hr>
          </ns3:TrackPointExtension>
        </extensions>
      </trkpt>
      <trkpt lat="36.81367286480963230133056640625" lon="-118.43011711724102497100830078125">
        <ele>3318.39990234375</ele>
        <time>2021-06-26T16:48:44.000Z</time>
        <extensions>
          <ns3:TrackPointExtension>
            <ns3:atemp>29.0</ns3:atemp>
            <ns3:hr>126</ns3:hr>
          </ns3:TrackPointExtension>
        </extensions>
      </trkpt>
      <trkpt lat="36.81366850621998310089111328125" lon="-118.43012583442032337188720703125">
        <ele>3319.199951171875</ele>
        <time>2021-06-26T16:48:46.000Z</time>
        <extensions>
          <ns3:TrackPointExtension>
            <ns3:atemp>29.0</ns3:atemp>
            <ns3:hr>126</ns3:hr>
          </ns3:TrackPointExtension>
        </extensions>
      </trkpt>
      <trkpt lat="36.8136499822139739990234375" lon="-118.4301413409411907196044921875">
        <ele>3319.800048828125</ele>
        <time>2021-06-26T16:48:52.000Z</time>
        <extensions>
          <ns3:TrackPointExtension>
            <ns3:atemp>29.0</ns3:atemp>
            <ns3:hr>127</ns3:hr>
          </ns3:TrackPointExtension>
        </extensions>
      </trkpt>
      <trkpt lat="36.8136419355869293212890625" lon="-118.4301562607288360595703125">
        <ele>3320.199951171875</ele>
        <time>2021-06-26T16:48:55.000Z</time>
        <extensions>
          <ns3:TrackPointExtension>
            <ns3:atemp>29.0</ns3:atemp>
            <ns3:hr>125</ns3:hr>
          </ns3:TrackPointExtension>
        </extensions>
      </trkpt>
      <trkpt lat="36.81363548152148723602294921875" lon="-118.43017595820128917694091796875">
        <ele>3321.39990234375</ele>
        <time>2021-06-26T16:48:58.000Z</time>
        <extensions>
          <ns3:TrackPointExtension>
            <ns3:atemp>29.0</ns3:atemp>
            <ns3:hr>125</ns3:hr>
          </ns3:TrackPointExtension>
        </extensions>
      </trkpt>
      <trkpt lat="36.81363590061664581298828125" lon="-118.43019775114953517913818359375">
        <ele>3321.800048828125</ele>
        <time>2021-06-26T16:49:01.000Z</time>
        <extensions>
          <ns3:TrackPointExtension>
            <ns3:atemp>29.0</ns3:atemp>
            <ns3:hr>126</ns3:hr>
          </ns3:TrackPointExtension>
        </extensions>
      </trkpt>
      <trkpt lat="36.8136353977024555206298828125" lon="-118.430209569633007049560546875">
        <ele>3322.39990234375</ele>
        <time>2021-06-26T16:49:04.000Z</time>
        <extensions>
          <ns3:TrackPointExtension>
            <ns3:atemp>29.0</ns3:atemp>
            <ns3:hr>127</ns3:hr>
          </ns3:TrackPointExtension>
        </extensions>
      </trkpt>
      <trkpt lat="36.81361855007708072662353515625" lon="-118.43022189103066921234130859375">
        <ele>3323.199951171875</ele>
        <time>2021-06-26T16:49:07.000Z</time>
        <extensions>
          <ns3:TrackPointExtension>
            <ns3:atemp>29.0</ns3:atemp>
            <ns3:hr>127</ns3:hr>
          </ns3:TrackPointExtension>
        </extensions>
      </trkpt>
      <trkpt lat="36.81360480375587940216064453125" lon="-118.43023010529577732086181640625">
        <ele>3323.60009765625</ele>
        <time>2021-06-26T16:49:10.000Z</time>
        <extensions>
          <ns3:TrackPointExtension>
            <ns3:atemp>29.0</ns3:atemp>
            <ns3:hr>128</ns3:hr>
          </ns3:TrackPointExtension>
        </extensions>
      </trkpt>
      <trkpt lat="36.8135867826640605926513671875" lon="-118.4302560053765773773193359375">
        <ele>3323.60009765625</ele>
        <time>2021-06-26T16:49:14.000Z</time>
        <extensions>
          <ns3:TrackPointExtension>
            <ns3:atemp>29.0</ns3:atemp>
            <ns3:hr>128</ns3:hr>
          </ns3:TrackPointExtension>
        </extensions>
      </trkpt>
      <trkpt lat="36.81353037245571613311767578125" lon="-118.43027654103934764862060546875">
        <ele>3324.199951171875</ele>
        <time>2021-06-26T16:49:22.000Z</time>
        <extensions>
          <ns3:TrackPointExtension>
            <ns3:atemp>29.0</ns3:atemp>
            <ns3:hr>129</ns3:hr>
          </ns3:TrackPointExtension>
        </extensions>
      </trkpt>
      <trkpt lat="36.81351779960095882415771484375" lon="-118.430294059216976165771484375">
        <ele>3324.800048828125</ele>
        <time>2021-06-26T16:49:28.000Z</time>
        <extensions>
          <ns3:TrackPointExtension>
            <ns3:atemp>29.0</ns3:atemp>
            <ns3:hr>129</ns3:hr>
          </ns3:TrackPointExtension>
        </extensions>
      </trkpt>
      <trkpt lat="36.8135100044310092926025390625" lon="-118.430298753082752227783203125">
        <ele>3324.800048828125</ele>
        <time>2021-06-26T16:49:29.000Z</time>
        <extensions>
          <ns3:TrackPointExtension>
            <ns3:atemp>29.0</ns3:atemp>
            <ns3:hr>129</ns3:hr>
          </ns3:TrackPointExtension>
        </extensions>
      </trkpt>
      <trkpt lat="36.81349785067141056060791015625" lon="-118.43033588491380214691162109375">
        <ele>3326</ele>
        <time>2021-06-26T16:49:35.000Z</time>
        <extensions>
          <ns3:TrackPointExtension>
            <ns3:atemp>29.0</ns3:atemp>
            <ns3:hr>128</ns3:hr>
          </ns3:TrackPointExtension>
        </extensions>
      </trkpt>
      <trkpt lat="36.81349642574787139892578125" lon="-118.430344350636005401611328125">
        <ele>3326.199951171875</ele>
        <time>2021-06-26T16:49:37.000Z</time>
        <extensions>
          <ns3:TrackPointExtension>
            <ns3:atemp>29.0</ns3:atemp>
            <ns3:hr>128</ns3:hr>
          </ns3:TrackPointExtension>
        </extensions>
      </trkpt>
      <trkpt lat="36.81347656063735485076904296875" lon="-118.430345691740512847900390625">
        <ele>3327.39990234375</ele>
        <time>2021-06-26T16:49:44.000Z</time>
        <extensions>
          <ns3:TrackPointExtension>
            <ns3:atemp>29.0</ns3:atemp>
            <ns3:hr>127</ns3:hr>
          </ns3:TrackPointExtension>
        </extensions>
      </trkpt>
      <trkpt lat="36.8134754709899425506591796875" lon="-118.4303763695061206817626953125">
        <ele>3328.39990234375</ele>
        <time>2021-06-26T16:49:49.000Z</time>
        <extensions>
          <ns3:TrackPointExtension>
            <ns3:atemp>29.0</ns3:atemp>
            <ns3:hr>126</ns3:hr>
          </ns3:TrackPointExtension>
        </extensions>
      </trkpt>
      <trkpt lat="36.8134805001318454742431640625" lon="-118.430382572114467620849609375">
        <ele>3328.39990234375</ele>
        <time>2021-06-26T16:49:50.000Z</time>
        <extensions>
          <ns3:TrackPointExtension>
            <ns3:atemp>29.0</ns3:atemp>
            <ns3:hr>124</ns3:hr>
          </ns3:TrackPointExtension>
        </extensions>
      </trkpt>
      <trkpt lat="36.81347639299929141998291015625" lon="-118.4303968213498592376708984375">
        <ele>3328.60009765625</ele>
        <time>2021-06-26T16:49:54.000Z</time>
        <extensions>
          <ns3:TrackPointExtension>
            <ns3:atemp>29.0</ns3:atemp>
            <ns3:hr>127</ns3:hr>
          </ns3:TrackPointExtension>
        </extensions>
      </trkpt>
      <trkpt lat="36.813457868993282318115234375" lon="-118.4304005093872547149658203125">
        <ele>3329.60009765625</ele>
        <time>2021-06-26T16:49:58.000Z</time>
        <extensions>
          <ns3:TrackPointExtension>
            <ns3:atemp>29.0</ns3:atemp>
            <ns3:hr>127</ns3:hr>
          </ns3:TrackPointExtension>
        </extensions>
      </trkpt>
      <trkpt lat="36.8134568631649017333984375" lon="-118.430411405861377716064453125">
        <ele>3330</ele>
        <time>2021-06-26T16:50:00.000Z</time>
        <extensions>
          <ns3:TrackPointExtension>
            <ns3:atemp>29.0</ns3:atemp>
            <ns3:hr>128</ns3:hr>
          </ns3:TrackPointExtension>
        </extensions>
      </trkpt>
      <trkpt lat="36.813451834022998809814453125" lon="-118.43043864704668521881103515625">
        <ele>3330.60009765625</ele>
        <time>2021-06-26T16:50:03.000Z</time>
        <extensions>
          <ns3:TrackPointExtension>
            <ns3:atemp>29.0</ns3:atemp>
            <ns3:hr>128</ns3:hr>
          </ns3:TrackPointExtension>
        </extensions>
      </trkpt>
      <trkpt lat="36.81344873271882534027099609375" lon="-118.43046404421329498291015625">
        <ele>3330.800048828125</ele>
        <time>2021-06-26T16:50:07.000Z</time>
        <extensions>
          <ns3:TrackPointExtension>
            <ns3:atemp>29.0</ns3:atemp>
            <ns3:hr>127</ns3:hr>
          </ns3:TrackPointExtension>
        </extensions>
      </trkpt>
      <trkpt lat="36.81344303302466869354248046875" lon="-118.43046178109943866729736328125">
        <ele>3331.60009765625</ele>
        <time>2021-06-26T16:50:12.000Z</time>
        <extensions>
          <ns3:TrackPointExtension>
            <ns3:atemp>29.0</ns3:atemp>
            <ns3:hr>128</ns3:hr>
          </ns3:TrackPointExtension>
        </extensions>
      </trkpt>
      <trkpt lat="36.8134406022727489471435546875" lon="-118.4304642118513584136962890625">
        <ele>3331.800048828125</ele>
        <time>2021-06-26T16:50:13.000Z</time>
        <extensions>
          <ns3:TrackPointExtension>
            <ns3:atemp>29.0</ns3:atemp>
            <ns3:hr>128</ns3:hr>
          </ns3:TrackPointExtension>
        </extensions>
      </trkpt>
      <trkpt lat="36.813414953649044036865234375" lon="-118.430467061698436737060546875">
        <ele>3332.800048828125</ele>
        <time>2021-06-26T16:50:20.000Z</time>
        <extensions>
          <ns3:TrackPointExtension>
            <ns3:atemp>29.0</ns3:atemp>
            <ns3:hr>129</ns3:hr>
          </ns3:TrackPointExtension>
        </extensions>
      </trkpt>
      <trkpt lat="36.8134059011936187744140625" lon="-118.430473767220973968505859375">
        <ele>3332.800048828125</ele>
        <time>2021-06-26T16:50:23.000Z</time>
        <extensions>
          <ns3:TrackPointExtension>
            <ns3:atemp>29.0</ns3:atemp>
            <ns3:hr>129</ns3:hr>
          </ns3:TrackPointExtension>
        </extensions>
      </trkpt>
      <trkpt lat="36.813378743827342987060546875" lon="-118.430481143295764923095703125">
        <ele>3334.199951171875</ele>
        <time>2021-06-26T16:50:28.000Z</time>
        <extensions>
          <ns3:TrackPointExtension>
            <ns3:atemp>29.0</ns3:atemp>
            <ns3:hr>129</ns3:hr>
          </ns3:TrackPointExtension>
        </extensions>
      </trkpt>
      <trkpt lat="36.813369691371917724609375" lon="-118.43047745525836944580078125">
        <ele>3334.199951171875</ele>
        <time>2021-06-26T16:50:29.000Z</time>
        <extensions>
          <ns3:TrackPointExtension>
            <ns3:atemp>29.0</ns3:atemp>
            <ns3:hr>129</ns3:hr>
          </ns3:TrackPointExtension>
        </extensions>
      </trkpt>
      <trkpt lat="36.81334756314754486083984375" lon="-118.4305212087929248809814453125">
        <ele>3335</ele>
        <time>2021-06-26T16:50:35.000Z</time>
        <extensions>
          <ns3:TrackPointExtension>
            <ns3:atemp>29.0</ns3:atemp>
            <ns3:hr>128</ns3:hr>
          </ns3:TrackPointExtension>
        </extensions>
      </trkpt>
      <trkpt lat="36.81333817541599273681640625" lon="-118.43052833341062068939208984375">
        <ele>3335.199951171875</ele>
        <time>2021-06-26T16:50:37.000Z</time>
        <extensions>
          <ns3:TrackPointExtension>
            <ns3:atemp>29.0</ns3:atemp>
            <ns3:hr>127</ns3:hr>
          </ns3:TrackPointExtension>
        </extensions>
      </trkpt>
      <trkpt lat="36.81333339773118495941162109375" lon="-118.430551551282405853271484375">
        <ele>3336</ele>
        <time>2021-06-26T16:50:42.000Z</time>
        <extensions>
          <ns3:TrackPointExtension>
            <ns3:atemp>29.0</ns3:atemp>
            <ns3:hr>127</ns3:hr>
          </ns3:TrackPointExtension>
        </extensions>
      </trkpt>
      <trkpt lat="36.81331663392484188079833984375" lon="-118.4305446781218051910400390625">
        <ele>3336.39990234375</ele>
        <time>2021-06-26T16:50:45.000Z</time>
        <extensions>
          <ns3:TrackPointExtension>
            <ns3:atemp>28.0</ns3:atemp>
            <ns3:hr>127</ns3:hr>
          </ns3:TrackPointExtension>
        </extensions>
      </trkpt>
      <trkpt lat="36.81329517625272274017333984375" lon="-118.430556245148181915283203125">
        <ele>3336.800048828125</ele>
        <time>2021-06-26T16:50:49.000Z</time>
        <extensions>
          <ns3:TrackPointExtension>
            <ns3:atemp>28.0</ns3:atemp>
            <ns3:hr>127</ns3:hr>
          </ns3:TrackPointExtension>
        </extensions>
      </trkpt>
      <trkpt lat="36.8132964335381984710693359375" lon="-118.43058566562831401824951171875">
        <ele>3337.39990234375</ele>
        <time>2021-06-26T16:50:53.000Z</time>
        <extensions>
          <ns3:TrackPointExtension>
            <ns3:atemp>28.0</ns3:atemp>
            <ns3:hr>126</ns3:hr>
          </ns3:TrackPointExtension>
        </extensions>
      </trkpt>
      <trkpt lat="36.81329567916691303253173828125" lon="-118.4306117333471775054931640625">
        <ele>3338</ele>
        <time>2021-06-26T16:50:56.000Z</time>
        <extensions>
          <ns3:TrackPointExtension>
            <ns3:atemp>28.0</ns3:atemp>
            <ns3:hr>124</ns3:hr>
          </ns3:TrackPointExtension>
        </extensions>
      </trkpt>
      <trkpt lat="36.81328696198761463165283203125" lon="-118.430607877671718597412109375">
        <ele>3338.60009765625</ele>
        <time>2021-06-26T16:50:58.000Z</time>
        <extensions>
          <ns3:TrackPointExtension>
            <ns3:atemp>28.0</ns3:atemp>
            <ns3:hr>123</ns3:hr>
          </ns3:TrackPointExtension>
        </extensions>
      </trkpt>
      <trkpt lat="36.81328008882701396942138671875" lon="-118.430621288716793060302734375">
        <ele>3339</ele>
        <time>2021-06-26T16:51:01.000Z</time>
        <extensions>
          <ns3:TrackPointExtension>
            <ns3:atemp>28.0</ns3:atemp>
            <ns3:hr>122</ns3:hr>
          </ns3:TrackPointExtension>
        </extensions>
      </trkpt>
      <trkpt lat="36.81326533667743206024169921875" lon="-118.43063947744667530059814453125">
        <ele>3339.60009765625</ele>
        <time>2021-06-26T16:51:04.000Z</time>
        <extensions>
          <ns3:TrackPointExtension>
            <ns3:atemp>28.0</ns3:atemp>
            <ns3:hr>123</ns3:hr>
          </ns3:TrackPointExtension>
        </extensions>
      </trkpt>
      <trkpt lat="36.813259385526180267333984375" lon="-118.43066529370844364166259765625">
        <ele>3340.60009765625</ele>
        <time>2021-06-26T16:51:10.000Z</time>
        <extensions>
          <ns3:TrackPointExtension>
            <ns3:atemp>28.0</ns3:atemp>
            <ns3:hr>123</ns3:hr>
          </ns3:TrackPointExtension>
        </extensions>
      </trkpt>
      <trkpt lat="36.81325561366975307464599609375" lon="-118.43066252768039703369140625">
        <ele>3341.39990234375</ele>
        <time>2021-06-26T16:51:11.000Z</time>
        <extensions>
          <ns3:TrackPointExtension>
            <ns3:atemp>28.0</ns3:atemp>
            <ns3:hr>123</ns3:hr>
          </ns3:TrackPointExtension>
        </extensions>
      </trkpt>
      <trkpt lat="36.8132380954921245574951171875" lon="-118.4306694008409976959228515625">
        <ele>3341.60009765625</ele>
        <time>2021-06-26T16:51:19.000Z</time>
        <extensions>
          <ns3:TrackPointExtension>
            <ns3:atemp>28.0</ns3:atemp>
            <ns3:hr>120</ns3:hr>
          </ns3:TrackPointExtension>
        </extensions>
      </trkpt>
      <trkpt lat="36.81323750875890254974365234375" lon="-118.43067468143999576568603515625">
        <ele>3341.800048828125</ele>
        <time>2021-06-26T16:51:20.000Z</time>
        <extensions>
          <ns3:TrackPointExtension>
            <ns3:atemp>28.0</ns3:atemp>
            <ns3:hr>120</ns3:hr>
          </ns3:TrackPointExtension>
        </extensions>
      </trkpt>
      <trkpt lat="36.81323759257793426513671875" lon="-118.430681638419628143310546875">
        <ele>3342.800048828125</ele>
        <time>2021-06-26T16:51:22.000Z</time>
        <extensions>
          <ns3:TrackPointExtension>
            <ns3:atemp>28.0</ns3:atemp>
            <ns3:hr>119</ns3:hr>
          </ns3:TrackPointExtension>
        </extensions>
      </trkpt>
      <trkpt lat="36.81322208605706691741943359375" lon="-118.4306927025318145751953125">
        <ele>3343.60009765625</ele>
        <time>2021-06-26T16:51:27.000Z</time>
        <extensions>
          <ns3:TrackPointExtension>
            <ns3:atemp>28.0</ns3:atemp>
            <ns3:hr>118</ns3:hr>
          </ns3:TrackPointExtension>
        </extensions>
      </trkpt>
      <trkpt lat="36.8132139556109905242919921875" lon="-118.43070167116820812225341796875">
        <ele>3344.199951171875</ele>
        <time>2021-06-26T16:51:29.000Z</time>
        <extensions>
          <ns3:TrackPointExtension>
            <ns3:atemp>28.0</ns3:atemp>
            <ns3:hr>117</ns3:hr>
          </ns3:TrackPointExtension>
        </extensions>
      </trkpt>
      <trkpt lat="36.8132132850587368011474609375" lon="-118.43075280077755451202392578125">
        <ele>3345</ele>
        <time>2021-06-26T16:51:36.000Z</time>
        <extensions>
          <ns3:TrackPointExtension>
            <ns3:atemp>28.0</ns3:atemp>
            <ns3:hr>120</ns3:hr>
          </ns3:TrackPointExtension>
        </extensions>
      </trkpt>
      <trkpt lat="36.81321269832551479339599609375" lon="-118.430760763585567474365234375">
        <ele>3345.199951171875</ele>
        <time>2021-06-26T16:51:37.000Z</time>
        <extensions>
          <ns3:TrackPointExtension>
            <ns3:atemp>28.0</ns3:atemp>
            <ns3:hr>121</ns3:hr>
          </ns3:TrackPointExtension>
        </extensions>
      </trkpt>
      <trkpt lat="36.8131975270807743072509765625" lon="-118.43076336197555065155029296875">
        <ele>3345.60009765625</ele>
        <time>2021-06-26T16:51:42.000Z</time>
        <extensions>
          <ns3:TrackPointExtension>
            <ns3:atemp>28.0</ns3:atemp>
            <ns3:hr>123</ns3:hr>
          </ns3:TrackPointExtension>
        </extensions>
      </trkpt>
      <trkpt lat="36.81315754540264606475830078125" lon="-118.430750370025634765625">
        <ele>3346.39990234375</ele>
        <time>2021-06-26T16:51:48.000Z</time>
        <extensions>
          <ns3:TrackPointExtension>
            <ns3:atemp>28.0</ns3:atemp>
            <ns3:hr>125</ns3:hr>
          </ns3:TrackPointExtension>
        </extensions>
      </trkpt>
      <trkpt lat="36.81314815767109394073486328125" lon="-118.4307491965591907501220703125">
        <ele>3346.39990234375</ele>
        <time>2021-06-26T16:51:49.000Z</time>
        <extensions>
          <ns3:TrackPointExtension>
            <ns3:atemp>28.0</ns3:atemp>
            <ns3:hr>125</ns3:hr>
          </ns3:TrackPointExtension>
        </extensions>
      </trkpt>
      <trkpt lat="36.81313407607376575469970703125" lon="-118.43076646327972412109375">
        <ele>3346.800048828125</ele>
        <time>2021-06-26T16:51:52.000Z</time>
        <extensions>
          <ns3:TrackPointExtension>
            <ns3:atemp>28.0</ns3:atemp>
            <ns3:hr>128</ns3:hr>
          </ns3:TrackPointExtension>
        </extensions>
      </trkpt>
      <trkpt lat="36.813116557896137237548828125" lon="-118.4307901002466678619384765625">
        <ele>3347.199951171875</ele>
        <time>2021-06-26T16:51:56.000Z</time>
        <extensions>
          <ns3:TrackPointExtension>
            <ns3:atemp>28.0</ns3:atemp>
            <ns3:hr>129</ns3:hr>
          </ns3:TrackPointExtension>
        </extensions>
      </trkpt>
      <trkpt lat="36.81310490705072879791259765625" lon="-118.43079068697988986968994140625">
        <ele>3347.39990234375</ele>
        <time>2021-06-26T16:51:58.000Z</time>
        <extensions>
          <ns3:TrackPointExtension>
            <ns3:atemp>28.0</ns3:atemp>
            <ns3:hr>130</ns3:hr>
          </ns3:TrackPointExtension>
        </extensions>
      </trkpt>
      <trkpt lat="36.8130912445485591888427734375" lon="-118.4308035112917423248291015625">
        <ele>3347.800048828125</ele>
        <time>2021-06-26T16:52:01.000Z</time>
        <extensions>
          <ns3:TrackPointExtension>
            <ns3:atemp>28.0</ns3:atemp>
            <ns3:hr>126</ns3:hr>
          </ns3:TrackPointExtension>
        </extensions>
      </trkpt>
      <trkpt lat="36.8130885623395442962646484375" lon="-118.43080745078623294830322265625">
        <ele>3348</ele>
        <time>2021-06-26T16:52:02.000Z</time>
        <extensions>
          <ns3:TrackPointExtension>
            <ns3:atemp>28.0</ns3:atemp>
            <ns3:hr>123</ns3:hr>
          </ns3:TrackPointExtension>
        </extensions>
      </trkpt>
      <trkpt lat="36.81308361701667308807373046875" lon="-118.43082211911678314208984375">
        <ele>3348.39990234375</ele>
        <time>2021-06-26T16:52:04.000Z</time>
        <extensions>
          <ns3:TrackPointExtension>
            <ns3:atemp>28.0</ns3:atemp>
            <ns3:hr>120</ns3:hr>
          </ns3:TrackPointExtension>
        </extensions>
      </trkpt>
      <trkpt lat="36.81308110244572162628173828125" lon="-118.430826477706432342529296875">
        <ele>3349</ele>
        <time>2021-06-26T16:52:05.000Z</time>
        <extensions>
          <ns3:TrackPointExtension>
            <ns3:atemp>28.0</ns3:atemp>
            <ns3:hr>118</ns3:hr>
          </ns3:TrackPointExtension>
        </extensions>
      </trkpt>
      <trkpt lat="36.813073642551898956298828125" lon="-118.43083661980926990509033203125">
        <ele>3349</ele>
        <time>2021-06-26T16:52:07.000Z</time>
        <extensions>
          <ns3:TrackPointExtension>
            <ns3:atemp>28.0</ns3:atemp>
            <ns3:hr>115</ns3:hr>
          </ns3:TrackPointExtension>
        </extensions>
      </trkpt>
      <trkpt lat="36.813055537641048431396484375" lon="-118.43089210800826549530029296875">
        <ele>3350.199951171875</ele>
        <time>2021-06-26T16:52:14.000Z</time>
        <extensions>
          <ns3:TrackPointExtension>
            <ns3:atemp>28.0</ns3:atemp>
            <ns3:hr>113</ns3:hr>
          </ns3:TrackPointExtension>
        </extensions>
      </trkpt>
      <trkpt lat="36.813054867088794708251953125" lon="-118.4308983944356441497802734375">
        <ele>3350.60009765625</ele>
        <time>2021-06-26T16:52:15.000Z</time>
        <extensions>
          <ns3:TrackPointExtension>
            <ns3:atemp>28.0</ns3:atemp>
            <ns3:hr>112</ns3:hr>
          </ns3:TrackPointExtension>
        </extensions>
      </trkpt>
      <trkpt lat="36.81304581463336944580078125" lon="-118.430919013917446136474609375">
        <ele>3351.199951171875</ele>
        <time>2021-06-26T16:52:18.000Z</time>
        <extensions>
          <ns3:TrackPointExtension>
            <ns3:atemp>28.0</ns3:atemp>
            <ns3:hr>112</ns3:hr>
          </ns3:TrackPointExtension>
        </extensions>
      </trkpt>
      <trkpt lat="36.81302377022802829742431640625" lon="-118.43095312826335430145263671875">
        <ele>3352.199951171875</ele>
        <time>2021-06-26T16:52:24.000Z</time>
        <extensions>
          <ns3:TrackPointExtension>
            <ns3:atemp>28.0</ns3:atemp>
            <ns3:hr>112</ns3:hr>
          </ns3:TrackPointExtension>
        </extensions>
      </trkpt>
      <trkpt lat="36.8129940144717693328857421875" lon="-118.4310036711394786834716796875">
        <ele>3352.800048828125</ele>
        <time>2021-06-26T16:52:33.000Z</time>
        <extensions>
          <ns3:TrackPointExtension>
            <ns3:atemp>28.0</ns3:atemp>
            <ns3:hr>113</ns3:hr>
          </ns3:TrackPointExtension>
        </extensions>
      </trkpt>
      <trkpt lat="36.812973730266094207763671875" lon="-118.431005179882049560546875">
        <ele>3353.199951171875</ele>
        <time>2021-06-26T16:52:37.000Z</time>
        <extensions>
          <ns3:TrackPointExtension>
            <ns3:atemp>28.0</ns3:atemp>
            <ns3:hr>116</ns3:hr>
          </ns3:TrackPointExtension>
        </extensions>
      </trkpt>
      <trkpt lat="36.8129651807248592376708984375" lon="-118.43101750127971172332763671875">
        <ele>3353.800048828125</ele>
        <time>2021-06-26T16:52:39.000Z</time>
        <extensions>
          <ns3:TrackPointExtension>
            <ns3:atemp>28.0</ns3:atemp>
            <ns3:hr>116</ns3:hr>
          </ns3:TrackPointExtension>
        </extensions>
      </trkpt>
      <trkpt lat="36.81296207942068576812744140625" lon="-118.4310348518192768096923828125">
        <ele>3354.199951171875</ele>
        <time>2021-06-26T16:52:41.000Z</time>
        <extensions>
          <ns3:TrackPointExtension>
            <ns3:atemp>28.0</ns3:atemp>
            <ns3:hr>117</ns3:hr>
          </ns3:TrackPointExtension>
        </extensions>
      </trkpt>
      <trkpt lat="36.8129393644630908966064453125" lon="-118.431066535413265228271484375">
        <ele>3354.60009765625</ele>
        <time>2021-06-26T16:52:47.000Z</time>
        <extensions>
          <ns3:TrackPointExtension>
            <ns3:atemp>28.0</ns3:atemp>
            <ns3:hr>120</ns3:hr>
          </ns3:TrackPointExtension>
        </extensions>
      </trkpt>
      <trkpt lat="36.81293358094990253448486328125" lon="-118.431075923144817352294921875">
        <ele>3355</ele>
        <time>2021-06-26T16:52:49.000Z</time>
        <extensions>
          <ns3:TrackPointExtension>
            <ns3:atemp>28.0</ns3:atemp>
            <ns3:hr>120</ns3:hr>
          </ns3:TrackPointExtension>
        </extensions>
      </trkpt>
      <trkpt lat="36.81292469613254070281982421875" lon="-118.4310848079621791839599609375">
        <ele>3355.60009765625</ele>
        <time>2021-06-26T16:52:51.000Z</time>
        <extensions>
          <ns3:TrackPointExtension>
            <ns3:atemp>28.0</ns3:atemp>
            <ns3:hr>122</ns3:hr>
          </ns3:TrackPointExtension>
        </extensions>
      </trkpt>
      <trkpt lat="36.8129155598580837249755859375" lon="-118.43109427951276302337646484375">
        <ele>3355.800048828125</ele>
        <time>2021-06-26T16:52:53.000Z</time>
        <extensions>
          <ns3:TrackPointExtension>
            <ns3:atemp>28.0</ns3:atemp>
            <ns3:hr>123</ns3:hr>
          </ns3:TrackPointExtension>
        </extensions>
      </trkpt>
      <trkpt lat="36.81290407665073871612548828125" lon="-118.4311307407915592193603515625">
        <ele>3355.60009765625</ele>
        <time>2021-06-26T16:53:01.000Z</time>
        <extensions>
          <ns3:TrackPointExtension>
            <ns3:atemp>28.0</ns3:atemp>
            <ns3:hr>126</ns3:hr>
          </ns3:TrackPointExtension>
        </extensions>
      </trkpt>
      <trkpt lat="36.81287440471351146697998046875" lon="-118.43118011020123958587646484375">
        <ele>3355.800048828125</ele>
        <time>2021-06-26T16:53:09.000Z</time>
        <extensions>
          <ns3:TrackPointExtension>
            <ns3:atemp>28.0</ns3:atemp>
            <ns3:hr>124</ns3:hr>
          </ns3:TrackPointExtension>
        </extensions>
      </trkpt>
      <trkpt lat="36.81287071667611598968505859375" lon="-118.43119905330240726470947265625">
        <ele>3356</ele>
        <time>2021-06-26T16:53:12.000Z</time>
        <extensions>
          <ns3:TrackPointExtension>
            <ns3:atemp>28.0</ns3:atemp>
            <ns3:hr>122</ns3:hr>
          </ns3:TrackPointExtension>
        </extensions>
      </trkpt>
      <trkpt lat="36.81286954320967197418212890625" lon="-118.43120835721492767333984375">
        <ele>3356.199951171875</ele>
        <time>2021-06-26T16:53:13.000Z</time>
        <extensions>
          <ns3:TrackPointExtension>
            <ns3:atemp>28.0</ns3:atemp>
            <ns3:hr>125</ns3:hr>
          </ns3:TrackPointExtension>
        </extensions>
      </trkpt>
      <trkpt lat="36.81283392012119293212890625" lon="-118.431238867342472076416015625">
        <ele>3356.39990234375</ele>
        <time>2021-06-26T16:53:18.000Z</time>
        <extensions>
          <ns3:TrackPointExtension>
            <ns3:atemp>28.0</ns3:atemp>
            <ns3:hr>124</ns3:hr>
          </ns3:TrackPointExtension>
        </extensions>
      </trkpt>
      <trkpt lat="36.81278429925441741943359375" lon="-118.4312586486339569091796875">
        <ele>3356.199951171875</ele>
        <time>2021-06-26T16:53:25.000Z</time>
        <extensions>
          <ns3:TrackPointExtension>
            <ns3:atemp>28.0</ns3:atemp>
            <ns3:hr>124</ns3:hr>
          </ns3:TrackPointExtension>
        </extensions>
      </trkpt>
      <trkpt lat="36.81272621266543865203857421875" lon="-118.43127004802227020263671875">
        <ele>3356.800048828125</ele>
        <time>2021-06-26T16:53:32.000Z</time>
        <extensions>
          <ns3:TrackPointExtension>
            <ns3:atemp>28.0</ns3:atemp>
            <ns3:hr>121</ns3:hr>
          </ns3:TrackPointExtension>
        </extensions>
      </trkpt>
      <trkpt lat="36.81273358874022960662841796875" lon="-118.4312829561531543731689453125">
        <ele>3356.800048828125</ele>
        <time>2021-06-26T16:53:41.000Z</time>
        <extensions>
          <ns3:TrackPointExtension>
            <ns3:atemp>28.0</ns3:atemp>
            <ns3:hr>120</ns3:hr>
          </ns3:TrackPointExtension>
        </extensions>
      </trkpt>
      <trkpt lat="36.81273660622537136077880859375" lon="-118.43128739856183528900146484375">
        <ele>3356.800048828125</ele>
        <time>2021-06-26T16:53:51.000Z</time>
        <extensions>
          <ns3:TrackPointExtension>
            <ns3:atemp>28.0</ns3:atemp>
            <ns3:hr>117</ns3:hr>
          </ns3:TrackPointExtension>
        </extensions>
      </trkpt>
      <trkpt lat="36.81273660622537136077880859375" lon="-118.43128739856183528900146484375">
        <ele>3356.800048828125</ele>
        <time>2021-06-26T16:53:54.000Z</time>
        <extensions>
          <ns3:TrackPointExtension>
            <ns3:atemp>28.0</ns3:atemp>
            <ns3:hr>114</ns3:hr>
          </ns3:TrackPointExtension>
        </extensions>
      </trkpt>
      <trkpt lat="36.81273660622537136077880859375" lon="-118.43128739856183528900146484375">
        <ele>3357</ele>
        <time>2021-06-26T16:53:56.000Z</time>
        <extensions>
          <ns3:TrackPointExtension>
            <ns3:atemp>28.0</ns3:atemp>
            <ns3:hr>111</ns3:hr>
          </ns3:TrackPointExtension>
        </extensions>
      </trkpt>
      <trkpt lat="36.81273660622537136077880859375" lon="-118.43128739856183528900146484375">
        <ele>3357</ele>
        <time>2021-06-26T16:53:59.000Z</time>
        <extensions>
          <ns3:TrackPointExtension>
            <ns3:atemp>28.0</ns3:atemp>
            <ns3:hr>108</ns3:hr>
          </ns3:TrackPointExtension>
        </extensions>
      </trkpt>
      <trkpt lat="36.81273660622537136077880859375" lon="-118.4312893263995647430419921875">
        <ele>3357.39990234375</ele>
        <time>2021-06-26T16:54:02.000Z</time>
        <extensions>
          <ns3:TrackPointExtension>
            <ns3:atemp>28.0</ns3:atemp>
            <ns3:hr>105</ns3:hr>
          </ns3:TrackPointExtension>
        </extensions>
      </trkpt>
      <trkpt lat="36.81273979134857654571533203125" lon="-118.43138278461992740631103515625">
        <ele>3358.39990234375</ele>
        <time>2021-06-26T16:54:13.000Z</time>
        <extensions>
          <ns3:TrackPointExtension>
            <ns3:atemp>28.0</ns3:atemp>
            <ns3:hr>109</ns3:hr>
          </ns3:TrackPointExtension>
        </extensions>
      </trkpt>
      <trkpt lat="36.81274197064340114593505859375" lon="-118.43140977434813976287841796875">
        <ele>3358.800048828125</ele>
        <time>2021-06-26T16:54:15.000Z</time>
        <extensions>
          <ns3:TrackPointExtension>
            <ns3:atemp>28.0</ns3:atemp>
            <ns3:hr>113</ns3:hr>
          </ns3:TrackPointExtension>
        </extensions>
      </trkpt>
      <trkpt lat="36.8127556331455707550048828125" lon="-118.43147213570773601531982421875">
        <ele>3359.800048828125</ele>
        <time>2021-06-26T16:54:22.000Z</time>
        <extensions>
          <ns3:TrackPointExtension>
            <ns3:atemp>28.0</ns3:atemp>
            <ns3:hr>113</ns3:hr>
          </ns3:TrackPointExtension>
        </extensions>
      </trkpt>
      <trkpt lat="36.812757812440395355224609375" lon="-118.4314844571053981781005859375">
        <ele>3360.800048828125</ele>
        <time>2021-06-26T16:54:27.000Z</time>
        <extensions>
          <ns3:TrackPointExtension>
            <ns3:atemp>28.0</ns3:atemp>
            <ns3:hr>113</ns3:hr>
          </ns3:TrackPointExtension>
        </extensions>
      </trkpt>
      <trkpt lat="36.8127603270113468170166015625" lon="-118.4314988739788532257080078125">
        <ele>3361.800048828125</ele>
        <time>2021-06-26T16:54:31.000Z</time>
        <extensions>
          <ns3:TrackPointExtension>
            <ns3:atemp>28.0</ns3:atemp>
            <ns3:hr>112</ns3:hr>
          </ns3:TrackPointExtension>
        </extensions>
      </trkpt>
      <trkpt lat="36.81275722570717334747314453125" lon="-118.43149862252175807952880859375">
        <ele>3362.199951171875</ele>
        <time>2021-06-26T16:54:32.000Z</time>
        <extensions>
          <ns3:TrackPointExtension>
            <ns3:atemp>28.0</ns3:atemp>
            <ns3:hr>112</ns3:hr>
          </ns3:TrackPointExtension>
        </extensions>
      </trkpt>
      <trkpt lat="36.81275613605976104736328125" lon="-118.43153315596282482147216796875">
        <ele>3362.800048828125</ele>
        <time>2021-06-26T16:54:38.000Z</time>
        <extensions>
          <ns3:TrackPointExtension>
            <ns3:atemp>28.0</ns3:atemp>
            <ns3:hr>108</ns3:hr>
          </ns3:TrackPointExtension>
        </extensions>
      </trkpt>
      <trkpt lat="36.812753789126873016357421875" lon="-118.431537263095378875732421875">
        <ele>3363</ele>
        <time>2021-06-26T16:54:39.000Z</time>
        <extensions>
          <ns3:TrackPointExtension>
            <ns3:atemp>28.0</ns3:atemp>
            <ns3:hr>107</ns3:hr>
          </ns3:TrackPointExtension>
        </extensions>
      </trkpt>
      <trkpt lat="36.81275370530784130096435546875" lon="-118.43155142851173877716064453125">
        <ele>3363.39990234375</ele>
        <time>2021-06-26T16:54:41.000Z</time>
        <extensions>
          <ns3:TrackPointExtension>
            <ns3:atemp>28.0</ns3:atemp>
            <ns3:hr>111</ns3:hr>
          </ns3:TrackPointExtension>
        </extensions>
      </trkpt>
      <trkpt lat="36.8127392046153545379638671875" lon="-118.43155696056783199310302734375">
        <ele>3363.60009765625</ele>
        <time>2021-06-26T16:54:43.000Z</time>
        <extensions>
          <ns3:TrackPointExtension>
            <ns3:atemp>28.0</ns3:atemp>
            <ns3:hr>114</ns3:hr>
          </ns3:TrackPointExtension>
        </extensions>
      </trkpt>
      <trkpt lat="36.81273694150149822235107421875" lon="-118.4315806813538074493408203125">
        <ele>3364.199951171875</ele>
        <time>2021-06-26T16:54:47.000Z</time>
        <extensions>
          <ns3:TrackPointExtension>
            <ns3:atemp>28.0</ns3:atemp>
            <ns3:hr>116</ns3:hr>
          </ns3:TrackPointExtension>
        </extensions>
      </trkpt>
      <trkpt lat="36.812740378081798553466796875" lon="-118.43159400857985019683837890625">
        <ele>3364.60009765625</ele>
        <time>2021-06-26T16:54:51.000Z</time>
        <extensions>
          <ns3:TrackPointExtension>
            <ns3:atemp>28.0</ns3:atemp>
            <ns3:hr>118</ns3:hr>
          </ns3:TrackPointExtension>
        </extensions>
      </trkpt>
      <trkpt lat="36.81273174472153186798095703125" lon="-118.4316202439367771148681640625">
        <ele>3365.39990234375</ele>
        <time>2021-06-26T16:54:55.000Z</time>
        <extensions>
          <ns3:TrackPointExtension>
            <ns3:atemp>28.0</ns3:atemp>
            <ns3:hr>113</ns3:hr>
          </ns3:TrackPointExtension>
        </extensions>
      </trkpt>
      <trkpt lat="36.81272218935191631317138671875" lon="-118.43165033496916294097900390625">
        <ele>3365.39990234375</ele>
        <time>2021-06-26T16:55:01.000Z</time>
        <extensions>
          <ns3:TrackPointExtension>
            <ns3:atemp>28.0</ns3:atemp>
            <ns3:hr>117</ns3:hr>
          </ns3:TrackPointExtension>
        </extensions>
      </trkpt>
      <trkpt lat="36.8127210997045040130615234375" lon="-118.431654609739780426025390625">
        <ele>3365.800048828125</ele>
        <time>2021-06-26T16:55:02.000Z</time>
        <extensions>
          <ns3:TrackPointExtension>
            <ns3:atemp>28.0</ns3:atemp>
            <ns3:hr>119</ns3:hr>
          </ns3:TrackPointExtension>
        </extensions>
      </trkpt>
      <trkpt lat="36.812722273170948028564453125" lon="-118.4316621534526348114013671875">
        <ele>3366</ele>
        <time>2021-06-26T16:55:04.000Z</time>
        <extensions>
          <ns3:TrackPointExtension>
            <ns3:atemp>28.0</ns3:atemp>
            <ns3:hr>122</ns3:hr>
          </ns3:TrackPointExtension>
        </extensions>
      </trkpt>
      <trkpt lat="36.8127231113612651824951171875" lon="-118.431667350232601165771484375">
        <ele>3366.39990234375</ele>
        <time>2021-06-26T16:55:06.000Z</time>
        <extensions>
          <ns3:TrackPointExtension>
            <ns3:atemp>28.0</ns3:atemp>
            <ns3:hr>117</ns3:hr>
          </ns3:TrackPointExtension>
        </extensions>
      </trkpt>
      <trkpt lat="36.8127246201038360595703125" lon="-118.43166927807033061981201171875">
        <ele>3366.60009765625</ele>
        <time>2021-06-26T16:55:07.000Z</time>
        <extensions>
          <ns3:TrackPointExtension>
            <ns3:atemp>28.0</ns3:atemp>
            <ns3:hr>117</ns3:hr>
          </ns3:TrackPointExtension>
        </extensions>
      </trkpt>
      <trkpt lat="36.81272788904607295989990234375" lon="-118.43168101273477077484130859375">
        <ele>3366.800048828125</ele>
        <time>2021-06-26T16:55:09.000Z</time>
        <extensions>
          <ns3:TrackPointExtension>
            <ns3:atemp>28.0</ns3:atemp>
            <ns3:hr>118</ns3:hr>
          </ns3:TrackPointExtension>
        </extensions>
      </trkpt>
      <trkpt lat="36.812719590961933135986328125" lon="-118.43169308267533779144287109375">
        <ele>3367.60009765625</ele>
        <time>2021-06-26T16:55:13.000Z</time>
        <extensions>
          <ns3:TrackPointExtension>
            <ns3:atemp>28.0</ns3:atemp>
            <ns3:hr>116</ns3:hr>
          </ns3:TrackPointExtension>
        </extensions>
      </trkpt>
      <trkpt lat="36.81272671557962894439697265625" lon="-118.43169945292174816131591796875">
        <ele>3368</ele>
        <time>2021-06-26T16:55:16.000Z</time>
        <extensions>
          <ns3:TrackPointExtension>
            <ns3:atemp>28.0</ns3:atemp>
            <ns3:hr>116</ns3:hr>
          </ns3:TrackPointExtension>
        </extensions>
      </trkpt>
      <trkpt lat="36.8127314932644367218017578125" lon="-118.431711606681346893310546875">
        <ele>3368.39990234375</ele>
        <time>2021-06-26T16:55:20.000Z</time>
        <extensions>
          <ns3:TrackPointExtension>
            <ns3:atemp>28.0</ns3:atemp>
            <ns3:hr>115</ns3:hr>
          </ns3:TrackPointExtension>
        </extensions>
      </trkpt>
      <trkpt lat="36.81273895315825939178466796875" lon="-118.431718312203884124755859375">
        <ele>3369.199951171875</ele>
        <time>2021-06-26T16:55:22.000Z</time>
        <extensions>
          <ns3:TrackPointExtension>
            <ns3:atemp>28.0</ns3:atemp>
            <ns3:hr>116</ns3:hr>
          </ns3:TrackPointExtension>
        </extensions>
      </trkpt>
      <trkpt lat="36.812756471335887908935546875" lon="-118.43172694556415081024169921875">
        <ele>3369.800048828125</ele>
        <time>2021-06-26T16:55:26.000Z</time>
        <extensions>
          <ns3:TrackPointExtension>
            <ns3:atemp>28.0</ns3:atemp>
            <ns3:hr>120</ns3:hr>
          </ns3:TrackPointExtension>
        </extensions>
      </trkpt>
      <trkpt lat="36.81277935393154621124267578125" lon="-118.43172610737383365631103515625">
        <ele>3370.199951171875</ele>
        <time>2021-06-26T16:55:29.000Z</time>
        <extensions>
          <ns3:TrackPointExtension>
            <ns3:atemp>28.0</ns3:atemp>
            <ns3:hr>123</ns3:hr>
          </ns3:TrackPointExtension>
        </extensions>
      </trkpt>
      <trkpt lat="36.8127878196537494659423828125" lon="-118.431721664965152740478515625">
        <ele>3370.60009765625</ele>
        <time>2021-06-26T16:55:31.000Z</time>
        <extensions>
          <ns3:TrackPointExtension>
            <ns3:atemp>28.0</ns3:atemp>
            <ns3:hr>123</ns3:hr>
          </ns3:TrackPointExtension>
        </extensions>
      </trkpt>
      <trkpt lat="36.81279410608112812042236328125" lon="-118.4317144565284252166748046875">
        <ele>3370.800048828125</ele>
        <time>2021-06-26T16:55:33.000Z</time>
        <extensions>
          <ns3:TrackPointExtension>
            <ns3:atemp>28.0</ns3:atemp>
            <ns3:hr>126</ns3:hr>
          </ns3:TrackPointExtension>
        </extensions>
      </trkpt>
      <trkpt lat="36.812801063060760498046875" lon="-118.43171034939587116241455078125">
        <ele>3370.800048828125</ele>
        <time>2021-06-26T16:55:35.000Z</time>
        <extensions>
          <ns3:TrackPointExtension>
            <ns3:atemp>28.0</ns3:atemp>
            <ns3:hr>129</ns3:hr>
          </ns3:TrackPointExtension>
        </extensions>
      </trkpt>
      <trkpt lat="36.8128079362213611602783203125" lon="-118.4317114390432834625244140625">
        <ele>3371.199951171875</ele>
        <time>2021-06-26T16:55:37.000Z</time>
        <extensions>
          <ns3:TrackPointExtension>
            <ns3:atemp>28.0</ns3:atemp>
            <ns3:hr>125</ns3:hr>
          </ns3:TrackPointExtension>
        </extensions>
      </trkpt>
      <trkpt lat="36.812811456620693206787109375" lon="-118.4317131154239177703857421875">
        <ele>3371.39990234375</ele>
        <time>2021-06-26T16:55:38.000Z</time>
        <extensions>
          <ns3:TrackPointExtension>
            <ns3:atemp>28.0</ns3:atemp>
            <ns3:hr>125</ns3:hr>
          </ns3:TrackPointExtension>
        </extensions>
      </trkpt>
      <trkpt lat="36.81281673721969127655029296875" lon="-118.431712277233600616455078125">
        <ele>3371.39990234375</ele>
        <time>2021-06-26T16:55:39.000Z</time>
        <extensions>
          <ns3:TrackPointExtension>
            <ns3:atemp>28.0</ns3:atemp>
            <ns3:hr>128</ns3:hr>
          </ns3:TrackPointExtension>
        </extensions>
      </trkpt>
      <trkpt lat="36.81283199228346347808837890625" lon="-118.431718312203884124755859375">
        <ele>3372.60009765625</ele>
        <time>2021-06-26T16:55:44.000Z</time>
        <extensions>
          <ns3:TrackPointExtension>
            <ns3:atemp>28.0</ns3:atemp>
            <ns3:hr>128</ns3:hr>
          </ns3:TrackPointExtension>
        </extensions>
      </trkpt>
      <trkpt lat="36.81282931007444858551025390625" lon="-118.43172560445964336395263671875">
        <ele>3372.60009765625</ele>
        <time>2021-06-26T16:55:46.000Z</time>
        <extensions>
          <ns3:TrackPointExtension>
            <ns3:atemp>28.0</ns3:atemp>
            <ns3:hr>129</ns3:hr>
          </ns3:TrackPointExtension>
        </extensions>
      </trkpt>
      <trkpt lat="36.81284372694790363311767578125" lon="-118.4317328967154026031494140625">
        <ele>3373.60009765625</ele>
        <time>2021-06-26T16:55:50.000Z</time>
        <extensions>
          <ns3:TrackPointExtension>
            <ns3:atemp>28.0</ns3:atemp>
            <ns3:hr>127</ns3:hr>
          </ns3:TrackPointExtension>
        </extensions>
      </trkpt>
      <trkpt lat="36.81285277940332889556884765625" lon="-118.431729376316070556640625">
        <ele>3373.60009765625</ele>
        <time>2021-06-26T16:55:52.000Z</time>
        <extensions>
          <ns3:TrackPointExtension>
            <ns3:atemp>28.0</ns3:atemp>
            <ns3:hr>129</ns3:hr>
          </ns3:TrackPointExtension>
        </extensions>
      </trkpt>
      <trkpt lat="36.8128599040210247039794921875" lon="-118.43174136243760585784912109375">
        <ele>3374.39990234375</ele>
        <time>2021-06-26T16:55:58.000Z</time>
        <extensions>
          <ns3:TrackPointExtension>
            <ns3:atemp>28.0</ns3:atemp>
            <ns3:hr>129</ns3:hr>
          </ns3:TrackPointExtension>
        </extensions>
      </trkpt>
      <trkpt lat="36.8128609098494052886962890625" lon="-118.4317473135888576507568359375">
        <ele>3374.800048828125</ele>
        <time>2021-06-26T16:56:01.000Z</time>
        <extensions>
          <ns3:TrackPointExtension>
            <ns3:atemp>28.0</ns3:atemp>
            <ns3:hr>129</ns3:hr>
          </ns3:TrackPointExtension>
        </extensions>
      </trkpt>
      <trkpt lat="36.8128689564764499664306640625" lon="-118.43175477348268032073974609375">
        <ele>3375.39990234375</ele>
        <time>2021-06-26T16:56:05.000Z</time>
        <extensions>
          <ns3:TrackPointExtension>
            <ns3:atemp>28.0</ns3:atemp>
            <ns3:hr>130</ns3:hr>
          </ns3:TrackPointExtension>
        </extensions>
      </trkpt>
      <trkpt lat="36.812877170741558074951171875" lon="-118.43175779096782207489013671875">
        <ele>3375.800048828125</ele>
        <time>2021-06-26T16:56:07.000Z</time>
        <extensions>
          <ns3:TrackPointExtension>
            <ns3:atemp>28.0</ns3:atemp>
            <ns3:hr>129</ns3:hr>
          </ns3:TrackPointExtension>
        </extensions>
      </trkpt>
      <trkpt lat="36.812877841293811798095703125" lon="-118.43176030553877353668212890625">
        <ele>3376</ele>
        <time>2021-06-26T16:56:13.000Z</time>
        <extensions>
          <ns3:TrackPointExtension>
            <ns3:atemp>28.0</ns3:atemp>
            <ns3:hr>126</ns3:hr>
          </ns3:TrackPointExtension>
        </extensions>
      </trkpt>
      <trkpt lat="36.8128873966634273529052734375" lon="-118.43176147900521755218505859375">
        <ele>3376.39990234375</ele>
        <time>2021-06-26T16:56:16.000Z</time>
        <extensions>
          <ns3:TrackPointExtension>
            <ns3:atemp>28.0</ns3:atemp>
            <ns3:hr>123</ns3:hr>
          </ns3:TrackPointExtension>
        </extensions>
      </trkpt>
      <trkpt lat="36.81288898922502994537353515625" lon="-118.43176449649035930633544921875">
        <ele>3376.800048828125</ele>
        <time>2021-06-26T16:56:19.000Z</time>
        <extensions>
          <ns3:TrackPointExtension>
            <ns3:atemp>28.0</ns3:atemp>
            <ns3:hr>123</ns3:hr>
          </ns3:TrackPointExtension>
        </extensions>
      </trkpt>
      <trkpt lat="36.8128880672156810760498046875" lon="-118.431766927242279052734375">
        <ele>3377</ele>
        <time>2021-06-26T16:56:20.000Z</time>
        <extensions>
          <ns3:TrackPointExtension>
            <ns3:atemp>28.0</ns3:atemp>
            <ns3:hr>121</ns3:hr>
          </ns3:TrackPointExtension>
        </extensions>
      </trkpt>
      <trkpt lat="36.81288781575858592987060546875" lon="-118.43178276903927326202392578125">
        <ele>3377.199951171875</ele>
        <time>2021-06-26T16:56:27.000Z</time>
        <extensions>
          <ns3:TrackPointExtension>
            <ns3:atemp>28.0</ns3:atemp>
            <ns3:hr>118</ns3:hr>
          </ns3:TrackPointExtension>
        </extensions>
      </trkpt>
      <trkpt lat="36.8128882348537445068359375" lon="-118.43178343959152698516845703125">
        <ele>3377.199951171875</ele>
        <time>2021-06-26T16:56:29.000Z</time>
        <extensions>
          <ns3:TrackPointExtension>
            <ns3:atemp>28.0</ns3:atemp>
            <ns3:hr>117</ns3:hr>
          </ns3:TrackPointExtension>
        </extensions>
      </trkpt>
      <trkpt lat="36.8128882348537445068359375" lon="-118.4317818470299243927001953125">
        <ele>3377.800048828125</ele>
        <time>2021-06-26T16:56:37.000Z</time>
        <extensions>
          <ns3:TrackPointExtension>
            <ns3:atemp>28.0</ns3:atemp>
            <ns3:hr>113</ns3:hr>
          </ns3:TrackPointExtension>
        </extensions>
      </trkpt>
      <trkpt lat="36.8128882348537445068359375" lon="-118.43178025446832180023193359375">
        <ele>3378</ele>
        <time>2021-06-26T16:56:38.000Z</time>
        <extensions>
          <ns3:TrackPointExtension>
            <ns3:atemp>28.0</ns3:atemp>
            <ns3:hr>111</ns3:hr>
          </ns3:TrackPointExtension>
        </extensions>
      </trkpt>
      <trkpt lat="36.812892593443393707275390625" lon="-118.43177287839353084564208984375">
        <ele>3377.800048828125</ele>
        <time>2021-06-26T16:56:45.000Z</time>
        <extensions>
          <ns3:TrackPointExtension>
            <ns3:atemp>28.0</ns3:atemp>
            <ns3:hr>108</ns3:hr>
          </ns3:TrackPointExtension>
        </extensions>
      </trkpt>
      <trkpt lat="36.8128935992717742919921875" lon="-118.4317640773952007293701171875">
        <ele>3377.800048828125</ele>
        <time>2021-06-26T16:56:50.000Z</time>
        <extensions>
          <ns3:TrackPointExtension>
            <ns3:atemp>28.0</ns3:atemp>
            <ns3:hr>105</ns3:hr>
          </ns3:TrackPointExtension>
        </extensions>
      </trkpt>
      <trkpt lat="36.81290877051651477813720703125" lon="-118.431757874786853790283203125">
        <ele>3377.39990234375</ele>
        <time>2021-06-26T16:56:59.000Z</time>
        <extensions>
          <ns3:TrackPointExtension>
            <ns3:atemp>28.0</ns3:atemp>
            <ns3:hr>108</ns3:hr>
          </ns3:TrackPointExtension>
        </extensions>
      </trkpt>
      <trkpt lat="36.8129118718206882476806640625" lon="-118.43175611458718776702880859375">
        <ele>3377.199951171875</ele>
        <time>2021-06-26T16:57:01.000Z</time>
        <extensions>
          <ns3:TrackPointExtension>
            <ns3:atemp>28.0</ns3:atemp>
            <ns3:hr>112</ns3:hr>
          </ns3:TrackPointExtension>
        </extensions>
      </trkpt>
      <trkpt lat="36.81291396729648113250732421875" lon="-118.4317553602159023284912109375">
        <ele>3377.199951171875</ele>
        <time>2021-06-26T16:57:04.000Z</time>
        <extensions>
          <ns3:TrackPointExtension>
            <ns3:atemp>28.0</ns3:atemp>
            <ns3:hr>116</ns3:hr>
          </ns3:TrackPointExtension>
        </extensions>
      </trkpt>
      <trkpt lat="36.81291447021067142486572265625" lon="-118.4317516721785068511962890625">
        <ele>3377.800048828125</ele>
        <time>2021-06-26T16:57:17.000Z</time>
        <extensions>
          <ns3:TrackPointExtension>
            <ns3:atemp>28.0</ns3:atemp>
            <ns3:hr>112</ns3:hr>
          </ns3:TrackPointExtension>
        </extensions>
      </trkpt>
      <trkpt lat="36.81291413493454456329345703125" lon="-118.43174857087433338165283203125">
        <ele>3377.800048828125</ele>
        <time>2021-06-26T16:57:19.000Z</time>
        <extensions>
          <ns3:TrackPointExtension>
            <ns3:atemp>28.0</ns3:atemp>
            <ns3:hr>109</ns3:hr>
          </ns3:TrackPointExtension>
        </extensions>
      </trkpt>
      <trkpt lat="36.8129132129251956939697265625" lon="-118.43174488283693790435791015625">
        <ele>3377.800048828125</ele>
        <time>2021-06-26T16:57:22.000Z</time>
        <extensions>
          <ns3:TrackPointExtension>
            <ns3:atemp>28.0</ns3:atemp>
            <ns3:hr>106</ns3:hr>
          </ns3:TrackPointExtension>
        </extensions>
      </trkpt>
      <trkpt lat="36.81290005333721637725830078125" lon="-118.4317255206406116485595703125">
        <ele>3377.39990234375</ele>
        <time>2021-06-26T16:57:34.000Z</time>
        <extensions>
          <ns3:TrackPointExtension>
            <ns3:atemp>28.0</ns3:atemp>
            <ns3:hr>103</ns3:hr>
          </ns3:TrackPointExtension>
        </extensions>
      </trkpt>
      <trkpt lat="36.8128964491188526153564453125" lon="-118.4317218326032161712646484375">
        <ele>3377.39990234375</ele>
        <time>2021-06-26T16:57:43.000Z</time>
        <extensions>
          <ns3:TrackPointExtension>
            <ns3:atemp>28.0</ns3:atemp>
            <ns3:hr>100</ns3:hr>
          </ns3:TrackPointExtension>
        </extensions>
      </trkpt>
      <trkpt lat="36.81291229091584682464599609375" lon="-118.431706912815570831298828125">
        <ele>3377.199951171875</ele>
        <time>2021-06-26T16:57:50.000Z</time>
        <extensions>
          <ns3:TrackPointExtension>
            <ns3:atemp>28.0</ns3:atemp>
            <ns3:hr>103</ns3:hr>
          </ns3:TrackPointExtension>
        </extensions>
      </trkpt>
      <trkpt lat="36.81293274275958538055419921875" lon="-118.43168587423861026763916015625">
        <ele>3376.60009765625</ele>
        <time>2021-06-26T16:57:52.000Z</time>
        <extensions>
          <ns3:TrackPointExtension>
            <ns3:atemp>28.0</ns3:atemp>
            <ns3:hr>105</ns3:hr>
          </ns3:TrackPointExtension>
        </extensions>
      </trkpt>
      <trkpt lat="36.8129635043442249298095703125" lon="-118.43166274018585681915283203125">
        <ele>3376.199951171875</ele>
        <time>2021-06-26T16:57:55.000Z</time>
        <extensions>
          <ns3:TrackPointExtension>
            <ns3:atemp>28.0</ns3:atemp>
            <ns3:hr>107</ns3:hr>
          </ns3:TrackPointExtension>
        </extensions>
      </trkpt>
      <trkpt lat="36.81301270611584186553955078125" lon="-118.43164287507534027099609375">
        <ele>3376</ele>
        <time>2021-06-26T16:57:58.000Z</time>
        <extensions>
          <ns3:TrackPointExtension>
            <ns3:atemp>28.0</ns3:atemp>
            <ns3:hr>107</ns3:hr>
          </ns3:TrackPointExtension>
        </extensions>
      </trkpt>
      <trkpt lat="36.81304874829947948455810546875" lon="-118.43163021840155124664306640625">
        <ele>3376</ele>
        <time>2021-06-26T16:58:02.000Z</time>
        <extensions>
          <ns3:TrackPointExtension>
            <ns3:atemp>28.0</ns3:atemp>
            <ns3:hr>104</ns3:hr>
          </ns3:TrackPointExtension>
        </extensions>
      </trkpt>
      <trkpt lat="36.81312636472284793853759765625" lon="-118.4315907396376132965087890625">
        <ele>3377</ele>
        <time>2021-06-26T16:58:12.000Z</time>
        <extensions>
          <ns3:TrackPointExtension>
            <ns3:atemp>28.0</ns3:atemp>
            <ns3:hr>105</ns3:hr>
          </ns3:TrackPointExtension>
        </extensions>
      </trkpt>
      <trkpt lat="36.81316173635423183441162109375" lon="-118.43156903050839900970458984375">
        <ele>3377</ele>
        <time>2021-06-26T16:58:18.000Z</time>
        <extensions>
          <ns3:TrackPointExtension>
            <ns3:atemp>28.0</ns3:atemp>
            <ns3:hr>102</ns3:hr>
          </ns3:TrackPointExtension>
        </extensions>
      </trkpt>
      <trkpt lat="36.81316391564905643463134765625" lon="-118.4315676055848598480224609375">
        <ele>3376.800048828125</ele>
        <time>2021-06-26T16:58:19.000Z</time>
        <extensions>
          <ns3:TrackPointExtension>
            <ns3:atemp>28.0</ns3:atemp>
            <ns3:hr>102</ns3:hr>
          </ns3:TrackPointExtension>
        </extensions>
      </trkpt>
      <trkpt lat="36.81317112408578395843505859375" lon="-118.43156802468001842498779296875">
        <ele>3376.800048828125</ele>
        <time>2021-06-26T16:58:21.000Z</time>
        <extensions>
          <ns3:TrackPointExtension>
            <ns3:atemp>28.0</ns3:atemp>
            <ns3:hr>100</ns3:hr>
          </ns3:TrackPointExtension>
        </extensions>
      </trkpt>
      <trkpt lat="36.8131940066814422607421875" lon="-118.4315334074199199676513671875">
        <ele>3377.39990234375</ele>
        <time>2021-06-26T16:58:26.000Z</time>
        <extensions>
          <ns3:TrackPointExtension>
            <ns3:atemp>28.0</ns3:atemp>
            <ns3:hr>103</ns3:hr>
          </ns3:TrackPointExtension>
        </extensions>
      </trkpt>
      <trkpt lat="36.81320029310882091522216796875" lon="-118.43152343295514583587646484375">
        <ele>3377.39990234375</ele>
        <time>2021-06-26T16:58:27.000Z</time>
        <extensions>
          <ns3:TrackPointExtension>
            <ns3:atemp>28.0</ns3:atemp>
            <ns3:hr>104</ns3:hr>
          </ns3:TrackPointExtension>
        </extensions>
      </trkpt>
      <trkpt lat="36.8132364191114902496337890625" lon="-118.43147297389805316925048828125">
        <ele>3377.39990234375</ele>
        <time>2021-06-26T16:58:33.000Z</time>
        <extensions>
          <ns3:TrackPointExtension>
            <ns3:atemp>28.0</ns3:atemp>
            <ns3:hr>101</ns3:hr>
          </ns3:TrackPointExtension>
        </extensions>
      </trkpt>
      <trkpt lat="36.81324270553886890411376953125" lon="-118.43146375380456447601318359375">
        <ele>3377.39990234375</ele>
        <time>2021-06-26T16:58:35.000Z</time>
        <extensions>
          <ns3:TrackPointExtension>
            <ns3:atemp>28.0</ns3:atemp>
            <ns3:hr>98</ns3:hr>
          </ns3:TrackPointExtension>
        </extensions>
      </trkpt>
      <trkpt lat="36.81327036581933498382568359375" lon="-118.43144162558019161224365234375">
        <ele>3377.39990234375</ele>
        <time>2021-06-26T16:58:39.000Z</time>
        <extensions>
          <ns3:TrackPointExtension>
            <ns3:atemp>28.0</ns3:atemp>
            <ns3:hr>96</ns3:hr>
          </ns3:TrackPointExtension>
        </extensions>
      </trkpt>
      <trkpt lat="36.8132756464183330535888671875" lon="-118.431436009705066680908203125">
        <ele>3377.39990234375</ele>
        <time>2021-06-26T16:58:40.000Z</time>
        <extensions>
          <ns3:TrackPointExtension>
            <ns3:atemp>28.0</ns3:atemp>
            <ns3:hr>97</ns3:hr>
          </ns3:TrackPointExtension>
        </extensions>
      </trkpt>
      <trkpt lat="36.81330054067075252532958984375" lon="-118.43141614459455013275146484375">
        <ele>3377</ele>
        <time>2021-06-26T16:58:44.000Z</time>
        <extensions>
          <ns3:TrackPointExtension>
            <ns3:atemp>28.0</ns3:atemp>
            <ns3:hr>94</ns3:hr>
          </ns3:TrackPointExtension>
        </extensions>
      </trkpt>
      <trkpt lat="36.81333817541599273681640625" lon="-118.431423269212245941162109375">
        <ele>3376.39990234375</ele>
        <time>2021-06-26T16:58:49.000Z</time>
        <extensions>
          <ns3:TrackPointExtension>
            <ns3:atemp>28.0</ns3:atemp>
            <ns3:hr>92</ns3:hr>
          </ns3:TrackPointExtension>
        </extensions>
      </trkpt>
      <trkpt lat="36.8133547715842723846435546875" lon="-118.43143039382994174957275390625">
        <ele>3376.39990234375</ele>
        <time>2021-06-26T16:58:51.000Z</time>
        <extensions>
          <ns3:TrackPointExtension>
            <ns3:atemp>27.0</ns3:atemp>
            <ns3:hr>95</ns3:hr>
          </ns3:TrackPointExtension>
        </extensions>
      </trkpt>
      <trkpt lat="36.8133748881518840789794921875" lon="-118.4314388595521450042724609375">
        <ele>3376.39990234375</ele>
        <time>2021-06-26T16:58:54.000Z</time>
        <extensions>
          <ns3:TrackPointExtension>
            <ns3:atemp>27.0</ns3:atemp>
            <ns3:hr>98</ns3:hr>
          </ns3:TrackPointExtension>
        </extensions>
      </trkpt>
      <trkpt lat="36.81338067166507244110107421875" lon="-118.43144212849438190460205078125">
        <ele>3376.60009765625</ele>
        <time>2021-06-26T16:58:55.000Z</time>
        <extensions>
          <ns3:TrackPointExtension>
            <ns3:atemp>27.0</ns3:atemp>
            <ns3:hr>101</ns3:hr>
          </ns3:TrackPointExtension>
        </extensions>
      </trkpt>
      <trkpt lat="36.813384108245372772216796875" lon="-118.43144581653177738189697265625">
        <ele>3376.60009765625</ele>
        <time>2021-06-26T16:58:56.000Z</time>
        <extensions>
          <ns3:TrackPointExtension>
            <ns3:atemp>27.0</ns3:atemp>
            <ns3:hr>98</ns3:hr>
          </ns3:TrackPointExtension>
        </extensions>
      </trkpt>
      <trkpt lat="36.8133893050253391265869140625" lon="-118.43145034275949001312255859375">
        <ele>3376.800048828125</ele>
        <time>2021-06-26T16:58:57.000Z</time>
        <extensions>
          <ns3:TrackPointExtension>
            <ns3:atemp>27.0</ns3:atemp>
            <ns3:hr>98</ns3:hr>
          </ns3:TrackPointExtension>
        </extensions>
      </trkpt>
      <trkpt lat="36.8133970163762569427490234375" lon="-118.43146258033812046051025390625">
        <ele>3377.199951171875</ele>
        <time>2021-06-26T16:58:59.000Z</time>
        <extensions>
          <ns3:TrackPointExtension>
            <ns3:atemp>27.0</ns3:atemp>
            <ns3:hr>96</ns3:hr>
          </ns3:TrackPointExtension>
        </extensions>
      </trkpt>
      <trkpt lat="36.81341151706874370574951171875" lon="-118.43147783540189266204833984375">
        <ele>3378.39990234375</ele>
        <time>2021-06-26T16:59:03.000Z</time>
        <extensions>
          <ns3:TrackPointExtension>
            <ns3:atemp>27.0</ns3:atemp>
            <ns3:hr>98</ns3:hr>
          </ns3:TrackPointExtension>
        </extensions>
      </trkpt>
      <trkpt lat="36.81342802941799163818359375" lon="-118.43147582374513149261474609375">
        <ele>3378.800048828125</ele>
        <time>2021-06-26T16:59:05.000Z</time>
        <extensions>
          <ns3:TrackPointExtension>
            <ns3:atemp>27.0</ns3:atemp>
            <ns3:hr>98</ns3:hr>
          </ns3:TrackPointExtension>
        </extensions>
      </trkpt>
      <trkpt lat="36.8134354054927825927734375" lon="-118.4314737282693386077880859375">
        <ele>3379.39990234375</ele>
        <time>2021-06-26T16:59:07.000Z</time>
        <extensions>
          <ns3:TrackPointExtension>
            <ns3:atemp>27.0</ns3:atemp>
            <ns3:hr>100</ns3:hr>
          </ns3:TrackPointExtension>
        </extensions>
      </trkpt>
      <trkpt lat="36.813430376350879669189453125" lon="-118.43146584928035736083984375">
        <ele>3379.60009765625</ele>
        <time>2021-06-26T16:59:08.000Z</time>
        <extensions>
          <ns3:TrackPointExtension>
            <ns3:atemp>27.0</ns3:atemp>
            <ns3:hr>100</ns3:hr>
          </ns3:TrackPointExtension>
        </extensions>
      </trkpt>
      <trkpt lat="36.81343473494052886962890625" lon="-118.43146610073745250701904296875">
        <ele>3380</ele>
        <time>2021-06-26T16:59:10.000Z</time>
        <extensions>
          <ns3:TrackPointExtension>
            <ns3:atemp>27.0</ns3:atemp>
            <ns3:hr>101</ns3:hr>
          </ns3:TrackPointExtension>
        </extensions>
      </trkpt>
      <trkpt lat="36.81344403885304927825927734375" lon="-118.43146459199488162994384765625">
        <ele>3380.60009765625</ele>
        <time>2021-06-26T16:59:12.000Z</time>
        <extensions>
          <ns3:TrackPointExtension>
            <ns3:atemp>27.0</ns3:atemp>
            <ns3:hr>103</ns3:hr>
          </ns3:TrackPointExtension>
        </extensions>
      </trkpt>
      <trkpt lat="36.81345879100263118743896484375" lon="-118.4314569644629955291748046875">
        <ele>3380.800048828125</ele>
        <time>2021-06-26T16:59:14.000Z</time>
        <extensions>
          <ns3:TrackPointExtension>
            <ns3:atemp>27.0</ns3:atemp>
            <ns3:hr>103</ns3:hr>
          </ns3:TrackPointExtension>
        </extensions>
      </trkpt>
      <trkpt lat="36.81348226033151149749755859375" lon="-118.43145268969237804412841796875">
        <ele>3381.199951171875</ele>
        <time>2021-06-26T16:59:18.000Z</time>
        <extensions>
          <ns3:TrackPointExtension>
            <ns3:atemp>27.0</ns3:atemp>
            <ns3:hr>105</ns3:hr>
          </ns3:TrackPointExtension>
        </extensions>
      </trkpt>
      <trkpt lat="36.81348946876823902130126953125" lon="-118.43144833110272884368896484375">
        <ele>3381.60009765625</ele>
        <time>2021-06-26T16:59:19.000Z</time>
        <extensions>
          <ns3:TrackPointExtension>
            <ns3:atemp>27.0</ns3:atemp>
            <ns3:hr>105</ns3:hr>
          </ns3:TrackPointExtension>
        </extensions>
      </trkpt>
      <trkpt lat="36.813503466546535491943359375" lon="-118.43143860809504985809326171875">
        <ele>3382.199951171875</ele>
        <time>2021-06-26T16:59:24.000Z</time>
        <extensions>
          <ns3:TrackPointExtension>
            <ns3:atemp>28.0</ns3:atemp>
            <ns3:hr>105</ns3:hr>
          </ns3:TrackPointExtension>
        </extensions>
      </trkpt>
      <trkpt lat="36.81350958533585071563720703125" lon="-118.4314405359327793121337890625">
        <ele>3382.39990234375</ele>
        <time>2021-06-26T16:59:26.000Z</time>
        <extensions>
          <ns3:TrackPointExtension>
            <ns3:atemp>28.0</ns3:atemp>
            <ns3:hr>105</ns3:hr>
          </ns3:TrackPointExtension>
        </extensions>
      </trkpt>
      <trkpt lat="36.8135093338787555694580078125" lon="-118.4314495883882045745849609375">
        <ele>3382.39990234375</ele>
        <time>2021-06-26T16:59:29.000Z</time>
        <extensions>
          <ns3:TrackPointExtension>
            <ns3:atemp>28.0</ns3:atemp>
            <ns3:hr>102</ns3:hr>
          </ns3:TrackPointExtension>
        </extensions>
      </trkpt>
      <trkpt lat="36.81350572966039180755615234375" lon="-118.43146207742393016815185546875">
        <ele>3382.39990234375</ele>
        <time>2021-06-26T16:59:34.000Z</time>
        <extensions>
          <ns3:TrackPointExtension>
            <ns3:atemp>28.0</ns3:atemp>
            <ns3:hr>102</ns3:hr>
          </ns3:TrackPointExtension>
        </extensions>
      </trkpt>
      <trkpt lat="36.81350572966039180755615234375" lon="-118.43146207742393016815185546875">
        <ele>3382.800048828125</ele>
        <time>2021-06-26T16:59:39.000Z</time>
        <extensions>
          <ns3:TrackPointExtension>
            <ns3:atemp>28.0</ns3:atemp>
            <ns3:hr>105</ns3:hr>
          </ns3:TrackPointExtension>
        </extensions>
      </trkpt>
      <trkpt lat="36.81350572966039180755615234375" lon="-118.43146207742393016815185546875">
        <ele>3383</ele>
        <time>2021-06-26T16:59:41.000Z</time>
        <extensions>
          <ns3:TrackPointExtension>
            <ns3:atemp>28.0</ns3:atemp>
            <ns3:hr>108</ns3:hr>
          </ns3:TrackPointExtension>
        </extensions>
      </trkpt>
      <trkpt lat="36.81350572966039180755615234375" lon="-118.43146207742393016815185546875">
        <ele>3383.199951171875</ele>
        <time>2021-06-26T16:59:44.000Z</time>
        <extensions>
          <ns3:TrackPointExtension>
            <ns3:atemp>28.0</ns3:atemp>
            <ns3:hr>112</ns3:hr>
          </ns3:TrackPointExtension>
        </extensions>
      </trkpt>
      <trkpt lat="36.8135059811174869537353515625" lon="-118.43146207742393016815185546875">
        <ele>3383.800048828125</ele>
        <time>2021-06-26T16:59:46.000Z</time>
        <extensions>
          <ns3:TrackPointExtension>
            <ns3:atemp>28.0</ns3:atemp>
            <ns3:hr>115</ns3:hr>
          </ns3:TrackPointExtension>
        </extensions>
      </trkpt>
      <trkpt lat="36.81350958533585071563720703125" lon="-118.43146207742393016815185546875">
        <ele>3384</ele>
        <time>2021-06-26T16:59:50.000Z</time>
        <extensions>
          <ns3:TrackPointExtension>
            <ns3:atemp>28.0</ns3:atemp>
            <ns3:hr>118</ns3:hr>
          </ns3:TrackPointExtension>
        </extensions>
      </trkpt>
      <trkpt lat="36.813563816249370574951171875" lon="-118.43145537190139293670654296875">
        <ele>3384.800048828125</ele>
        <time>2021-06-26T16:59:55.000Z</time>
        <extensions>
          <ns3:TrackPointExtension>
            <ns3:atemp>28.0</ns3:atemp>
            <ns3:hr>120</ns3:hr>
          </ns3:TrackPointExtension>
        </extensions>
      </trkpt>
      <trkpt lat="36.8135804124176502227783203125" lon="-118.43145847320556640625">
        <ele>3384.800048828125</ele>
        <time>2021-06-26T16:59:57.000Z</time>
        <extensions>
          <ns3:TrackPointExtension>
            <ns3:atemp>28.0</ns3:atemp>
            <ns3:hr>121</ns3:hr>
          </ns3:TrackPointExtension>
        </extensions>
      </trkpt>
      <trkpt lat="36.81359700858592987060546875" lon="-118.4314623288810253143310546875">
        <ele>3384.800048828125</ele>
        <time>2021-06-26T17:00:01.000Z</time>
        <extensions>
          <ns3:TrackPointExtension>
            <ns3:atemp>28.0</ns3:atemp>
            <ns3:hr>124</ns3:hr>
          </ns3:TrackPointExtension>
        </extensions>
      </trkpt>
      <trkpt lat="36.81359105743467807769775390625" lon="-118.43146023340523242950439453125">
        <ele>3384.800048828125</ele>
        <time>2021-06-26T17:00:04.000Z</time>
        <extensions>
          <ns3:TrackPointExtension>
            <ns3:atemp>28.0</ns3:atemp>
            <ns3:hr>124</ns3:hr>
          </ns3:TrackPointExtension>
        </extensions>
      </trkpt>
      <trkpt lat="36.813648976385593414306640625" lon="-118.43145788647234439849853515625">
        <ele>3385</ele>
        <time>2021-06-26T17:00:11.000Z</time>
        <extensions>
          <ns3:TrackPointExtension>
            <ns3:atemp>27.0</ns3:atemp>
            <ns3:hr>122</ns3:hr>
          </ns3:TrackPointExtension>
        </extensions>
      </trkpt>
      <trkpt lat="36.8137078173458576202392578125" lon="-118.43144707381725311279296875">
        <ele>3385.60009765625</ele>
        <time>2021-06-26T17:00:20.000Z</time>
        <extensions>
          <ns3:TrackPointExtension>
            <ns3:atemp>27.0</ns3:atemp>
            <ns3:hr>119</ns3:hr>
          </ns3:TrackPointExtension>
        </extensions>
      </trkpt>
      <trkpt lat="36.81372365914285182952880859375" lon="-118.431448750197887420654296875">
        <ele>3385.60009765625</ele>
        <time>2021-06-26T17:00:22.000Z</time>
        <extensions>
          <ns3:TrackPointExtension>
            <ns3:atemp>27.0</ns3:atemp>
            <ns3:hr>117</ns3:hr>
          </ns3:TrackPointExtension>
        </extensions>
      </trkpt>
      <trkpt lat="36.8137312866747379302978515625" lon="-118.43145017512142658233642578125">
        <ele>3385.60009765625</ele>
        <time>2021-06-26T17:00:23.000Z</time>
        <extensions>
          <ns3:TrackPointExtension>
            <ns3:atemp>27.0</ns3:atemp>
            <ns3:hr>116</ns3:hr>
          </ns3:TrackPointExtension>
        </extensions>
      </trkpt>
      <trkpt lat="36.81373958475887775421142578125" lon="-118.43144916929304599761962890625">
        <ele>3385.60009765625</ele>
        <time>2021-06-26T17:00:24.000Z</time>
        <extensions>
          <ns3:TrackPointExtension>
            <ns3:atemp>27.0</ns3:atemp>
            <ns3:hr>114</ns3:hr>
          </ns3:TrackPointExtension>
        </extensions>
      </trkpt>
      <trkpt lat="36.81375634856522083282470703125" lon="-118.431450761854648590087890625">
        <ele>3386</ele>
        <time>2021-06-26T17:00:26.000Z</time>
        <extensions>
          <ns3:TrackPointExtension>
            <ns3:atemp>27.0</ns3:atemp>
            <ns3:hr>112</ns3:hr>
          </ns3:TrackPointExtension>
        </extensions>
      </trkpt>
      <trkpt lat="36.81376892141997814178466796875" lon="-118.43145486898720264434814453125">
        <ele>3386.60009765625</ele>
        <time>2021-06-26T17:00:28.000Z</time>
        <extensions>
          <ns3:TrackPointExtension>
            <ns3:atemp>27.0</ns3:atemp>
            <ns3:hr>112</ns3:hr>
          </ns3:TrackPointExtension>
        </extensions>
      </trkpt>
      <trkpt lat="36.81377395056188106536865234375" lon="-118.43145587481558322906494140625">
        <ele>3386.800048828125</ele>
        <time>2021-06-26T17:00:29.000Z</time>
        <extensions>
          <ns3:TrackPointExtension>
            <ns3:atemp>27.0</ns3:atemp>
            <ns3:hr>111</ns3:hr>
          </ns3:TrackPointExtension>
        </extensions>
      </trkpt>
      <trkpt lat="36.8137899599969387054443359375" lon="-118.43145369552075862884521484375">
        <ele>3387</ele>
        <time>2021-06-26T17:00:31.000Z</time>
        <extensions>
          <ns3:TrackPointExtension>
            <ns3:atemp>27.0</ns3:atemp>
            <ns3:hr>112</ns3:hr>
          </ns3:TrackPointExtension>
        </extensions>
      </trkpt>
      <trkpt lat="36.813795156776905059814453125" lon="-118.43145310878753662109375">
        <ele>3387.199951171875</ele>
        <time>2021-06-26T17:00:32.000Z</time>
        <extensions>
          <ns3:TrackPointExtension>
            <ns3:atemp>27.0</ns3:atemp>
            <ns3:hr>112</ns3:hr>
          </ns3:TrackPointExtension>
        </extensions>
      </trkpt>
      <trkpt lat="36.81381753645837306976318359375" lon="-118.43144866637885570526123046875">
        <ele>3388.60009765625</ele>
        <time>2021-06-26T17:00:36.000Z</time>
        <extensions>
          <ns3:TrackPointExtension>
            <ns3:atemp>27.0</ns3:atemp>
            <ns3:hr>112</ns3:hr>
          </ns3:TrackPointExtension>
        </extensions>
      </trkpt>
      <trkpt lat="36.813832707703113555908203125" lon="-118.43144497834146022796630859375">
        <ele>3389.39990234375</ele>
        <time>2021-06-26T17:00:38.000Z</time>
        <extensions>
          <ns3:TrackPointExtension>
            <ns3:atemp>27.0</ns3:atemp>
            <ns3:hr>114</ns3:hr>
          </ns3:TrackPointExtension>
        </extensions>
      </trkpt>
      <trkpt lat="36.81384653784334659576416015625" lon="-118.431444726884365081787109375">
        <ele>3389.39990234375</ele>
        <time>2021-06-26T17:00:40.000Z</time>
        <extensions>
          <ns3:TrackPointExtension>
            <ns3:atemp>27.0</ns3:atemp>
            <ns3:hr>114</ns3:hr>
          </ns3:TrackPointExtension>
        </extensions>
      </trkpt>
      <trkpt lat="36.8138546682894229888916015625" lon="-118.4314438886940479278564453125">
        <ele>3389.60009765625</ele>
        <time>2021-06-26T17:00:41.000Z</time>
        <extensions>
          <ns3:TrackPointExtension>
            <ns3:atemp>27.0</ns3:atemp>
            <ns3:hr>114</ns3:hr>
          </ns3:TrackPointExtension>
        </extensions>
      </trkpt>
      <trkpt lat="36.81386246345937252044677734375" lon="-118.431442044675350189208984375">
        <ele>3389.800048828125</ele>
        <time>2021-06-26T17:00:42.000Z</time>
        <extensions>
          <ns3:TrackPointExtension>
            <ns3:atemp>27.0</ns3:atemp>
            <ns3:hr>114</ns3:hr>
          </ns3:TrackPointExtension>
        </extensions>
      </trkpt>
      <trkpt lat="36.81389381177723407745361328125" lon="-118.4314262866973876953125">
        <ele>3390.60009765625</ele>
        <time>2021-06-26T17:00:46.000Z</time>
        <extensions>
          <ns3:TrackPointExtension>
            <ns3:atemp>27.0</ns3:atemp>
            <ns3:hr>113</ns3:hr>
          </ns3:TrackPointExtension>
        </extensions>
      </trkpt>
      <trkpt lat="36.81390655227005481719970703125" lon="-118.431420587003231048583984375">
        <ele>3390.60009765625</ele>
        <time>2021-06-26T17:00:48.000Z</time>
        <extensions>
          <ns3:TrackPointExtension>
            <ns3:atemp>27.0</ns3:atemp>
            <ns3:hr>112</ns3:hr>
          </ns3:TrackPointExtension>
        </extensions>
      </trkpt>
      <trkpt lat="36.81391644291579723358154296875" lon="-118.4314220957458019256591796875">
        <ele>3391</ele>
        <time>2021-06-26T17:00:49.000Z</time>
        <extensions>
          <ns3:TrackPointExtension>
            <ns3:atemp>27.0</ns3:atemp>
            <ns3:hr>112</ns3:hr>
          </ns3:TrackPointExtension>
        </extensions>
      </trkpt>
      <trkpt lat="36.8139565922319889068603515625" lon="-118.43142821453511714935302734375">
        <ele>3391.60009765625</ele>
        <time>2021-06-26T17:00:55.000Z</time>
        <extensions>
          <ns3:TrackPointExtension>
            <ns3:atemp>27.0</ns3:atemp>
            <ns3:hr>111</ns3:hr>
          </ns3:TrackPointExtension>
        </extensions>
      </trkpt>
      <trkpt lat="36.8139693327248096466064453125" lon="-118.43142905272543430328369140625">
        <ele>3391.60009765625</ele>
        <time>2021-06-26T17:00:57.000Z</time>
        <extensions>
          <ns3:TrackPointExtension>
            <ns3:atemp>27.0</ns3:atemp>
            <ns3:hr>109</ns3:hr>
          </ns3:TrackPointExtension>
        </extensions>
      </trkpt>
      <trkpt lat="36.81398383341729640960693359375" lon="-118.4314291365444660186767578125">
        <ele>3392</ele>
        <time>2021-06-26T17:00:59.000Z</time>
        <extensions>
          <ns3:TrackPointExtension>
            <ns3:atemp>27.0</ns3:atemp>
            <ns3:hr>110</ns3:hr>
          </ns3:TrackPointExtension>
        </extensions>
      </trkpt>
      <trkpt lat="36.8139954842627048492431640625" lon="-118.431429974734783172607421875">
        <ele>3392.39990234375</ele>
        <time>2021-06-26T17:01:01.000Z</time>
        <extensions>
          <ns3:TrackPointExtension>
            <ns3:atemp>27.0</ns3:atemp>
            <ns3:hr>112</ns3:hr>
          </ns3:TrackPointExtension>
        </extensions>
      </trkpt>
      <trkpt lat="36.81401886977255344390869140625" lon="-118.43142653815448284149169921875">
        <ele>3392.800048828125</ele>
        <time>2021-06-26T17:01:04.000Z</time>
        <extensions>
          <ns3:TrackPointExtension>
            <ns3:atemp>27.0</ns3:atemp>
            <ns3:hr>110</ns3:hr>
          </ns3:TrackPointExtension>
        </extensions>
      </trkpt>
      <trkpt lat="36.81403496302664279937744140625" lon="-118.43143022619187831878662109375">
        <ele>3393</ele>
        <time>2021-06-26T17:01:07.000Z</time>
        <extensions>
          <ns3:TrackPointExtension>
            <ns3:atemp>27.0</ns3:atemp>
            <ns3:hr>110</ns3:hr>
          </ns3:TrackPointExtension>
        </extensions>
      </trkpt>
      <trkpt lat="36.81404015980660915374755859375" lon="-118.43143098056316375732421875">
        <ele>3393.199951171875</ele>
        <time>2021-06-26T17:01:08.000Z</time>
        <extensions>
          <ns3:TrackPointExtension>
            <ns3:atemp>27.0</ns3:atemp>
            <ns3:hr>111</ns3:hr>
          </ns3:TrackPointExtension>
        </extensions>
      </trkpt>
      <trkpt lat="36.81404736824333667755126953125" lon="-118.4314381889998912811279296875">
        <ele>3394</ele>
        <time>2021-06-26T17:01:12.000Z</time>
        <extensions>
          <ns3:TrackPointExtension>
            <ns3:atemp>27.0</ns3:atemp>
            <ns3:hr>115</ns3:hr>
          </ns3:TrackPointExtension>
        </extensions>
      </trkpt>
      <trkpt lat="36.8140514753758907318115234375" lon="-118.43144447542726993560791015625">
        <ele>3394.199951171875</ele>
        <time>2021-06-26T17:01:14.000Z</time>
        <extensions>
          <ns3:TrackPointExtension>
            <ns3:atemp>27.0</ns3:atemp>
            <ns3:hr>111</ns3:hr>
          </ns3:TrackPointExtension>
        </extensions>
      </trkpt>
      <trkpt lat="36.81405206210911273956298828125" lon="-118.43145889230072498321533203125">
        <ele>3395.199951171875</ele>
        <time>2021-06-26T17:01:18.000Z</time>
        <extensions>
          <ns3:TrackPointExtension>
            <ns3:atemp>27.0</ns3:atemp>
            <ns3:hr>113</ns3:hr>
          </ns3:TrackPointExtension>
        </extensions>
      </trkpt>
      <trkpt lat="36.81404854170978069305419921875" lon="-118.43146760948002338409423828125">
        <ele>3395.39990234375</ele>
        <time>2021-06-26T17:01:20.000Z</time>
        <extensions>
          <ns3:TrackPointExtension>
            <ns3:atemp>27.0</ns3:atemp>
            <ns3:hr>114</ns3:hr>
          </ns3:TrackPointExtension>
        </extensions>
      </trkpt>
      <trkpt lat="36.81404854170978069305419921875" lon="-118.4314759075641632080078125">
        <ele>3395.60009765625</ele>
        <time>2021-06-26T17:01:22.000Z</time>
        <extensions>
          <ns3:TrackPointExtension>
            <ns3:atemp>27.0</ns3:atemp>
            <ns3:hr>111</ns3:hr>
          </ns3:TrackPointExtension>
        </extensions>
      </trkpt>
      <trkpt lat="36.81404837407171726226806640625" lon="-118.4314811043441295623779296875">
        <ele>3396.39990234375</ele>
        <time>2021-06-26T17:01:23.000Z</time>
        <extensions>
          <ns3:TrackPointExtension>
            <ns3:atemp>27.0</ns3:atemp>
            <ns3:hr>110</ns3:hr>
          </ns3:TrackPointExtension>
        </extensions>
      </trkpt>
      <trkpt lat="36.8140290118753910064697265625" lon="-118.43149292282760143280029296875">
        <ele>3397</ele>
        <time>2021-06-26T17:01:27.000Z</time>
        <extensions>
          <ns3:TrackPointExtension>
            <ns3:atemp>27.0</ns3:atemp>
            <ns3:hr>114</ns3:hr>
          </ns3:TrackPointExtension>
        </extensions>
      </trkpt>
      <trkpt lat="36.81402347981929779052734375" lon="-118.431498371064662933349609375">
        <ele>3397.199951171875</ele>
        <time>2021-06-26T17:01:28.000Z</time>
        <extensions>
          <ns3:TrackPointExtension>
            <ns3:atemp>27.0</ns3:atemp>
            <ns3:hr>111</ns3:hr>
          </ns3:TrackPointExtension>
        </extensions>
      </trkpt>
      <trkpt lat="36.81400948204100131988525390625" lon="-118.43150147236883640289306640625">
        <ele>3397.60009765625</ele>
        <time>2021-06-26T17:01:30.000Z</time>
        <extensions>
          <ns3:TrackPointExtension>
            <ns3:atemp>27.0</ns3:atemp>
            <ns3:hr>112</ns3:hr>
          </ns3:TrackPointExtension>
        </extensions>
      </trkpt>
      <trkpt lat="36.81398819200694561004638671875" lon="-118.4315357543528079986572265625">
        <ele>3398.39990234375</ele>
        <time>2021-06-26T17:01:37.000Z</time>
        <extensions>
          <ns3:TrackPointExtension>
            <ns3:atemp>27.0</ns3:atemp>
            <ns3:hr>113</ns3:hr>
          </ns3:TrackPointExtension>
        </extensions>
      </trkpt>
      <trkpt lat="36.81398458778858184814453125" lon="-118.4315387718379497528076171875">
        <ele>3398.60009765625</ele>
        <time>2021-06-26T17:01:38.000Z</time>
        <extensions>
          <ns3:TrackPointExtension>
            <ns3:atemp>27.0</ns3:atemp>
            <ns3:hr>113</ns3:hr>
          </ns3:TrackPointExtension>
        </extensions>
      </trkpt>
      <trkpt lat="36.81396975181996822357177734375" lon="-118.43154966831207275390625">
        <ele>3399</ele>
        <time>2021-06-26T17:01:43.000Z</time>
        <extensions>
          <ns3:TrackPointExtension>
            <ns3:atemp>27.0</ns3:atemp>
            <ns3:hr>110</ns3:hr>
          </ns3:TrackPointExtension>
        </extensions>
      </trkpt>
      <trkpt lat="36.81396757252514362335205078125" lon="-118.43155696056783199310302734375">
        <ele>3399.60009765625</ele>
        <time>2021-06-26T17:01:46.000Z</time>
        <extensions>
          <ns3:TrackPointExtension>
            <ns3:atemp>27.0</ns3:atemp>
            <ns3:hr>110</ns3:hr>
          </ns3:TrackPointExtension>
        </extensions>
      </trkpt>
      <trkpt lat="36.8139733560383319854736328125" lon="-118.4315702877938747406005859375">
        <ele>3399.60009765625</ele>
        <time>2021-06-26T17:01:47.000Z</time>
        <extensions>
          <ns3:TrackPointExtension>
            <ns3:atemp>27.0</ns3:atemp>
            <ns3:hr>110</ns3:hr>
          </ns3:TrackPointExtension>
        </extensions>
      </trkpt>
      <trkpt lat="36.8139840848743915557861328125" lon="-118.43159400857985019683837890625">
        <ele>3400.800048828125</ele>
        <time>2021-06-26T17:01:52.000Z</time>
        <extensions>
          <ns3:TrackPointExtension>
            <ns3:atemp>27.0</ns3:atemp>
            <ns3:hr>110</ns3:hr>
          </ns3:TrackPointExtension>
        </extensions>
      </trkpt>
      <trkpt lat="36.81398483924567699432373046875" lon="-118.43159518204629421234130859375">
        <ele>3400.800048828125</ele>
        <time>2021-06-26T17:01:53.000Z</time>
        <extensions>
          <ns3:TrackPointExtension>
            <ns3:atemp>27.0</ns3:atemp>
            <ns3:hr>110</ns3:hr>
          </ns3:TrackPointExtension>
        </extensions>
      </trkpt>
      <trkpt lat="36.813988946378231048583984375" lon="-118.43159954063594341278076171875">
        <ele>3401.39990234375</ele>
        <time>2021-06-26T17:01:58.000Z</time>
        <extensions>
          <ns3:TrackPointExtension>
            <ns3:atemp>27.0</ns3:atemp>
            <ns3:hr>113</ns3:hr>
          </ns3:TrackPointExtension>
        </extensions>
      </trkpt>
      <trkpt lat="36.813988946378231048583984375" lon="-118.43159954063594341278076171875">
        <ele>3401.800048828125</ele>
        <time>2021-06-26T17:02:00.000Z</time>
        <extensions>
          <ns3:TrackPointExtension>
            <ns3:atemp>27.0</ns3:atemp>
            <ns3:hr>115</ns3:hr>
          </ns3:TrackPointExtension>
        </extensions>
      </trkpt>
      <trkpt lat="36.813988946378231048583984375" lon="-118.43159954063594341278076171875">
        <ele>3402.199951171875</ele>
        <time>2021-06-26T17:02:03.000Z</time>
        <extensions>
          <ns3:TrackPointExtension>
            <ns3:atemp>27.0</ns3:atemp>
            <ns3:hr>115</ns3:hr>
          </ns3:TrackPointExtension>
        </extensions>
      </trkpt>
      <trkpt lat="36.813988946378231048583984375" lon="-118.43159954063594341278076171875">
        <ele>3402.39990234375</ele>
        <time>2021-06-26T17:02:06.000Z</time>
        <extensions>
          <ns3:TrackPointExtension>
            <ns3:atemp>27.0</ns3:atemp>
            <ns3:hr>118</ns3:hr>
          </ns3:TrackPointExtension>
        </extensions>
      </trkpt>
      <trkpt lat="36.813988946378231048583984375" lon="-118.43159954063594341278076171875">
        <ele>3402.800048828125</ele>
        <time>2021-06-26T17:02:08.000Z</time>
        <extensions>
          <ns3:TrackPointExtension>
            <ns3:atemp>27.0</ns3:atemp>
            <ns3:hr>121</ns3:hr>
          </ns3:TrackPointExtension>
        </extensions>
      </trkpt>
      <trkpt lat="36.813984923064708709716796875" lon="-118.43160624615848064422607421875">
        <ele>3403.800048828125</ele>
        <time>2021-06-26T17:02:14.000Z</time>
        <extensions>
          <ns3:TrackPointExtension>
            <ns3:atemp>27.0</ns3:atemp>
            <ns3:hr>121</ns3:hr>
          </ns3:TrackPointExtension>
        </extensions>
      </trkpt>
      <trkpt lat="36.813970170915126800537109375" lon="-118.43164279125630855560302734375">
        <ele>3405</ele>
        <time>2021-06-26T17:02:41.000Z</time>
        <extensions>
          <ns3:TrackPointExtension>
            <ns3:atemp>27.0</ns3:atemp>
            <ns3:hr>121</ns3:hr>
          </ns3:TrackPointExtension>
        </extensions>
      </trkpt>
      <trkpt lat="36.81396958418190479278564453125" lon="-118.43164329417049884796142578125">
        <ele>3405.60009765625</ele>
        <time>2021-06-26T17:02:43.000Z</time>
        <extensions>
          <ns3:TrackPointExtension>
            <ns3:atemp>28.0</ns3:atemp>
            <ns3:hr>118</ns3:hr>
          </ns3:TrackPointExtension>
        </extensions>
      </trkpt>
      <trkpt lat="36.81396941654384136199951171875" lon="-118.4316443838179111480712890625">
        <ele>3405.800048828125</ele>
        <time>2021-06-26T17:02:45.000Z</time>
        <extensions>
          <ns3:TrackPointExtension>
            <ns3:atemp>28.0</ns3:atemp>
            <ns3:hr>115</ns3:hr>
          </ns3:TrackPointExtension>
        </extensions>
      </trkpt>
      <trkpt lat="36.81396908126771450042724609375" lon="-118.43164446763694286346435546875">
        <ele>3405.800048828125</ele>
        <time>2021-06-26T17:02:47.000Z</time>
        <extensions>
          <ns3:TrackPointExtension>
            <ns3:atemp>28.0</ns3:atemp>
            <ns3:hr>112</ns3:hr>
          </ns3:TrackPointExtension>
        </extensions>
      </trkpt>
      <trkpt lat="36.813968829810619354248046875" lon="-118.43164446763694286346435546875">
        <ele>3406.39990234375</ele>
        <time>2021-06-26T17:02:49.000Z</time>
        <extensions>
          <ns3:TrackPointExtension>
            <ns3:atemp>27.0</ns3:atemp>
            <ns3:hr>112</ns3:hr>
          </ns3:TrackPointExtension>
        </extensions>
      </trkpt>
      <trkpt lat="36.81396237574517726898193359375" lon="-118.43164580874145030975341796875">
        <ele>3407.60009765625</ele>
        <time>2021-06-26T17:02:56.000Z</time>
        <extensions>
          <ns3:TrackPointExtension>
            <ns3:atemp>28.0</ns3:atemp>
            <ns3:hr>111</ns3:hr>
          </ns3:TrackPointExtension>
        </extensions>
      </trkpt>
      <trkpt lat="36.81396103464066982269287109375" lon="-118.43166559003293514251708984375">
        <ele>3408.39990234375</ele>
        <time>2021-06-26T17:03:01.000Z</time>
        <extensions>
          <ns3:TrackPointExtension>
            <ns3:atemp>28.0</ns3:atemp>
            <ns3:hr>115</ns3:hr>
          </ns3:TrackPointExtension>
        </extensions>
      </trkpt>
      <trkpt lat="36.81396103464066982269287109375" lon="-118.43167799524962902069091796875">
        <ele>3408.60009765625</ele>
        <time>2021-06-26T17:03:03.000Z</time>
        <extensions>
          <ns3:TrackPointExtension>
            <ns3:atemp>28.0</ns3:atemp>
            <ns3:hr>113</ns3:hr>
          </ns3:TrackPointExtension>
        </extensions>
      </trkpt>
      <trkpt lat="36.81397729553282260894775390625" lon="-118.43171604909002780914306640625">
        <ele>3409.39990234375</ele>
        <time>2021-06-26T17:03:18.000Z</time>
        <extensions>
          <ns3:TrackPointExtension>
            <ns3:atemp>28.0</ns3:atemp>
            <ns3:hr>113</ns3:hr>
          </ns3:TrackPointExtension>
        </extensions>
      </trkpt>
      <trkpt lat="36.81397746317088603973388671875" lon="-118.43171755783259868621826171875">
        <ele>3409.39990234375</ele>
        <time>2021-06-26T17:03:19.000Z</time>
        <extensions>
          <ns3:TrackPointExtension>
            <ns3:atemp>28.0</ns3:atemp>
            <ns3:hr>110</ns3:hr>
          </ns3:TrackPointExtension>
        </extensions>
      </trkpt>
      <trkpt lat="36.8139777146279811859130859375" lon="-118.431728370487689971923828125">
        <ele>3410</ele>
        <time>2021-06-26T17:03:23.000Z</time>
        <extensions>
          <ns3:TrackPointExtension>
            <ns3:atemp>28.0</ns3:atemp>
            <ns3:hr>112</ns3:hr>
          </ns3:TrackPointExtension>
        </extensions>
      </trkpt>
      <trkpt lat="36.81397779844701290130615234375" lon="-118.43173298053443431854248046875">
        <ele>3410.60009765625</ele>
        <time>2021-06-26T17:03:28.000Z</time>
        <extensions>
          <ns3:TrackPointExtension>
            <ns3:atemp>28.0</ns3:atemp>
            <ns3:hr>115</ns3:hr>
          </ns3:TrackPointExtension>
        </extensions>
      </trkpt>
      <trkpt lat="36.81397796608507633209228515625" lon="-118.4317345730960369110107421875">
        <ele>3411</ele>
        <time>2021-06-26T17:03:33.000Z</time>
        <extensions>
          <ns3:TrackPointExtension>
            <ns3:atemp>28.0</ns3:atemp>
            <ns3:hr>117</ns3:hr>
          </ns3:TrackPointExtension>
        </extensions>
      </trkpt>
      <trkpt lat="36.813977546989917755126953125" lon="-118.43175309710204601287841796875">
        <ele>3411.800048828125</ele>
        <time>2021-06-26T17:03:42.000Z</time>
        <extensions>
          <ns3:TrackPointExtension>
            <ns3:atemp>28.0</ns3:atemp>
            <ns3:hr>120</ns3:hr>
          </ns3:TrackPointExtension>
        </extensions>
      </trkpt>
      <trkpt lat="36.8139720149338245391845703125" lon="-118.43177790753543376922607421875">
        <ele>3412.199951171875</ele>
        <time>2021-06-26T17:03:54.000Z</time>
        <extensions>
          <ns3:TrackPointExtension>
            <ns3:atemp>28.0</ns3:atemp>
            <ns3:hr>119</ns3:hr>
          </ns3:TrackPointExtension>
        </extensions>
      </trkpt>
      <trkpt lat="36.81396991945803165435791015625" lon="-118.431777991354465484619140625">
        <ele>3412.39990234375</ele>
        <time>2021-06-26T17:04:11.000Z</time>
        <extensions>
          <ns3:TrackPointExtension>
            <ns3:atemp>28.0</ns3:atemp>
            <ns3:hr>116</ns3:hr>
          </ns3:TrackPointExtension>
        </extensions>
      </trkpt>
      <trkpt lat="36.8139790557324886322021484375" lon="-118.43175997026264667510986328125">
        <ele>3413.39990234375</ele>
        <time>2021-06-26T17:04:38.000Z</time>
        <extensions>
          <ns3:TrackPointExtension>
            <ns3:atemp>28.0</ns3:atemp>
            <ns3:hr>117</ns3:hr>
          </ns3:TrackPointExtension>
        </extensions>
      </trkpt>
      <trkpt lat="36.81397662498056888580322265625" lon="-118.43175041489303112030029296875">
        <ele>3413</ele>
        <time>2021-06-26T17:04:49.000Z</time>
        <extensions>
          <ns3:TrackPointExtension>
            <ns3:atemp>28.0</ns3:atemp>
            <ns3:hr>113</ns3:hr>
          </ns3:TrackPointExtension>
        </extensions>
      </trkpt>
      <trkpt lat="36.8139763735234737396240234375" lon="-118.4317496605217456817626953125">
        <ele>3413</ele>
        <time>2021-06-26T17:04:51.000Z</time>
        <extensions>
          <ns3:TrackPointExtension>
            <ns3:atemp>28.0</ns3:atemp>
            <ns3:hr>108</ns3:hr>
          </ns3:TrackPointExtension>
        </extensions>
      </trkpt>
      <trkpt lat="36.8139760382473468780517578125" lon="-118.43174907378852367401123046875">
        <ele>3413</ele>
        <time>2021-06-26T17:04:53.000Z</time>
        <extensions>
          <ns3:TrackPointExtension>
            <ns3:atemp>28.0</ns3:atemp>
            <ns3:hr>105</ns3:hr>
          </ns3:TrackPointExtension>
        </extensions>
      </trkpt>
      <trkpt lat="36.81397293694317340850830078125" lon="-118.43174773268401622772216796875">
        <ele>3413.199951171875</ele>
        <time>2021-06-26T17:05:02.000Z</time>
        <extensions>
          <ns3:TrackPointExtension>
            <ns3:atemp>28.0</ns3:atemp>
            <ns3:hr>102</ns3:hr>
          </ns3:TrackPointExtension>
        </extensions>
      </trkpt>
      <trkpt lat="36.813972853124141693115234375" lon="-118.43174873851239681243896484375">
        <ele>3414.39990234375</ele>
        <time>2021-06-26T17:05:45.000Z</time>
        <extensions>
          <ns3:TrackPointExtension>
            <ns3:atemp>28.0</ns3:atemp>
            <ns3:hr>99</ns3:hr>
          </ns3:TrackPointExtension>
        </extensions>
      </trkpt>
      <trkpt lat="36.8139731884002685546875" lon="-118.43174924142658710479736328125">
        <ele>3415.39990234375</ele>
        <time>2021-06-26T17:05:55.000Z</time>
        <extensions>
          <ns3:TrackPointExtension>
            <ns3:atemp>28.0</ns3:atemp>
            <ns3:hr>99</ns3:hr>
          </ns3:TrackPointExtension>
        </extensions>
      </trkpt>
      <trkpt lat="36.81397327221930027008056640625" lon="-118.43174940906465053558349609375">
        <ele>3415.60009765625</ele>
        <time>2021-06-26T17:05:57.000Z</time>
        <extensions>
          <ns3:TrackPointExtension>
            <ns3:atemp>28.0</ns3:atemp>
            <ns3:hr>96</ns3:hr>
          </ns3:TrackPointExtension>
        </extensions>
      </trkpt>
      <trkpt lat="36.81397343985736370086669921875" lon="-118.43174957670271396636962890625">
        <ele>3416.199951171875</ele>
        <time>2021-06-26T17:06:00.000Z</time>
        <extensions>
          <ns3:TrackPointExtension>
            <ns3:atemp>28.0</ns3:atemp>
            <ns3:hr>92</ns3:hr>
          </ns3:TrackPointExtension>
        </extensions>
      </trkpt>
      <trkpt lat="36.813973523676395416259765625" lon="-118.43174974434077739715576171875">
        <ele>3416.199951171875</ele>
        <time>2021-06-26T17:06:02.000Z</time>
        <extensions>
          <ns3:TrackPointExtension>
            <ns3:atemp>28.0</ns3:atemp>
            <ns3:hr>89</ns3:hr>
          </ns3:TrackPointExtension>
        </extensions>
      </trkpt>
      <trkpt lat="36.81397360749542713165283203125" lon="-118.43174991197884082794189453125">
        <ele>3416.39990234375</ele>
        <time>2021-06-26T17:06:03.000Z</time>
        <extensions>
          <ns3:TrackPointExtension>
            <ns3:atemp>28.0</ns3:atemp>
            <ns3:hr>92</ns3:hr>
          </ns3:TrackPointExtension>
        </extensions>
      </trkpt>
      <trkpt lat="36.81397360749542713165283203125" lon="-118.4317499957978725433349609375">
        <ele>3416.800048828125</ele>
        <time>2021-06-26T17:06:04.000Z</time>
        <extensions>
          <ns3:TrackPointExtension>
            <ns3:atemp>28.0</ns3:atemp>
            <ns3:hr>93</ns3:hr>
          </ns3:TrackPointExtension>
        </extensions>
      </trkpt>
      <trkpt lat="36.81397377513349056243896484375" lon="-118.4317503310739994049072265625">
        <ele>3417</ele>
        <time>2021-06-26T17:06:07.000Z</time>
        <extensions>
          <ns3:TrackPointExtension>
            <ns3:atemp>28.0</ns3:atemp>
            <ns3:hr>96</ns3:hr>
          </ns3:TrackPointExtension>
        </extensions>
      </trkpt>
      <trkpt lat="36.81397394277155399322509765625" lon="-118.43175058253109455108642578125">
        <ele>3417.199951171875</ele>
        <time>2021-06-26T17:06:09.000Z</time>
        <extensions>
          <ns3:TrackPointExtension>
            <ns3:atemp>28.0</ns3:atemp>
            <ns3:hr>100</ns3:hr>
          </ns3:TrackPointExtension>
        </extensions>
      </trkpt>
      <trkpt lat="36.813974194228649139404296875" lon="-118.4317510016262531280517578125">
        <ele>3417.39990234375</ele>
        <time>2021-06-26T17:06:13.000Z</time>
        <extensions>
          <ns3:TrackPointExtension>
            <ns3:atemp>28.0</ns3:atemp>
            <ns3:hr>103</ns3:hr>
          </ns3:TrackPointExtension>
        </extensions>
      </trkpt>
      <trkpt lat="36.81397444568574428558349609375" lon="-118.43175158835947513580322265625">
        <ele>3417.39990234375</ele>
        <time>2021-06-26T17:06:17.000Z</time>
        <extensions>
          <ns3:TrackPointExtension>
            <ns3:atemp>28.0</ns3:atemp>
            <ns3:hr>106</ns3:hr>
          </ns3:TrackPointExtension>
        </extensions>
      </trkpt>
      <trkpt lat="36.813974864780902862548828125" lon="-118.4317523427307605743408203125">
        <ele>3417.800048828125</ele>
        <time>2021-06-26T17:06:23.000Z</time>
        <extensions>
          <ns3:TrackPointExtension>
            <ns3:atemp>28.0</ns3:atemp>
            <ns3:hr>104</ns3:hr>
          </ns3:TrackPointExtension>
        </extensions>
      </trkpt>
      <trkpt lat="36.8139753676950931549072265625" lon="-118.43175343237817287445068359375">
        <ele>3419.60009765625</ele>
        <time>2021-06-26T17:06:31.000Z</time>
        <extensions>
          <ns3:TrackPointExtension>
            <ns3:atemp>28.0</ns3:atemp>
            <ns3:hr>106</ns3:hr>
          </ns3:TrackPointExtension>
        </extensions>
      </trkpt>
      <trkpt lat="36.81397561915218830108642578125" lon="-118.431753851473331451416015625">
        <ele>3419.60009765625</ele>
        <time>2021-06-26T17:06:34.000Z</time>
        <extensions>
          <ns3:TrackPointExtension>
            <ns3:atemp>28.0</ns3:atemp>
            <ns3:hr>109</ns3:hr>
          </ns3:TrackPointExtension>
        </extensions>
      </trkpt>
      <trkpt lat="36.813975870609283447265625" lon="-118.4317543543875217437744140625">
        <ele>3419.800048828125</ele>
        <time>2021-06-26T17:06:37.000Z</time>
        <extensions>
          <ns3:TrackPointExtension>
            <ns3:atemp>28.0</ns3:atemp>
            <ns3:hr>112</ns3:hr>
          </ns3:TrackPointExtension>
        </extensions>
      </trkpt>
      <trkpt lat="36.81397612206637859344482421875" lon="-118.43175477348268032073974609375">
        <ele>3420.199951171875</ele>
        <time>2021-06-26T17:06:40.000Z</time>
        <extensions>
          <ns3:TrackPointExtension>
            <ns3:atemp>28.0</ns3:atemp>
            <ns3:hr>115</ns3:hr>
          </ns3:TrackPointExtension>
        </extensions>
      </trkpt>
      <trkpt lat="36.8139763735234737396240234375" lon="-118.43175527639687061309814453125">
        <ele>3420.199951171875</ele>
        <time>2021-06-26T17:06:43.000Z</time>
        <extensions>
          <ns3:TrackPointExtension>
            <ns3:atemp>28.0</ns3:atemp>
            <ns3:hr>118</ns3:hr>
          </ns3:TrackPointExtension>
        </extensions>
      </trkpt>
      <trkpt lat="36.81397746317088603973388671875" lon="-118.43175779096782207489013671875">
        <ele>3419.39990234375</ele>
        <time>2021-06-26T17:06:58.000Z</time>
        <extensions>
          <ns3:TrackPointExtension>
            <ns3:atemp>28.0</ns3:atemp>
            <ns3:hr>116</ns3:hr>
          </ns3:TrackPointExtension>
        </extensions>
      </trkpt>
      <trkpt lat="36.8139783851802349090576171875" lon="-118.4317613951861858367919921875">
        <ele>3418.39990234375</ele>
        <time>2021-06-26T17:07:19.000Z</time>
        <extensions>
          <ns3:TrackPointExtension>
            <ns3:atemp>28.0</ns3:atemp>
            <ns3:hr>118</ns3:hr>
          </ns3:TrackPointExtension>
        </extensions>
      </trkpt>
      <trkpt lat="36.81397855281829833984375" lon="-118.43176282010972499847412109375">
        <ele>3418.39990234375</ele>
        <time>2021-06-26T17:07:27.000Z</time>
        <extensions>
          <ns3:TrackPointExtension>
            <ns3:atemp>28.0</ns3:atemp>
            <ns3:hr>115</ns3:hr>
          </ns3:TrackPointExtension>
        </extensions>
      </trkpt>
      <trkpt lat="36.81397863663733005523681640625" lon="-118.43176349066197872161865234375">
        <ele>3418.800048828125</ele>
        <time>2021-06-26T17:07:32.000Z</time>
        <extensions>
          <ns3:TrackPointExtension>
            <ns3:atemp>28.0</ns3:atemp>
            <ns3:hr>112</ns3:hr>
          </ns3:TrackPointExtension>
        </extensions>
      </trkpt>
      <trkpt lat="36.81397863663733005523681640625" lon="-118.4317637421190738677978515625">
        <ele>3418.800048828125</ele>
        <time>2021-06-26T17:07:34.000Z</time>
        <extensions>
          <ns3:TrackPointExtension>
            <ns3:atemp>28.0</ns3:atemp>
            <ns3:hr>109</ns3:hr>
          </ns3:TrackPointExtension>
        </extensions>
      </trkpt>
      <trkpt lat="36.8139787204563617706298828125" lon="-118.43176424503326416015625">
        <ele>3418.199951171875</ele>
        <time>2021-06-26T17:07:39.000Z</time>
        <extensions>
          <ns3:TrackPointExtension>
            <ns3:atemp>28.0</ns3:atemp>
            <ns3:hr>106</ns3:hr>
          </ns3:TrackPointExtension>
        </extensions>
      </trkpt>
      <trkpt lat="36.8139787204563617706298828125" lon="-118.43176499940454959869384765625">
        <ele>3418.39990234375</ele>
        <time>2021-06-26T17:07:45.000Z</time>
        <extensions>
          <ns3:TrackPointExtension>
            <ns3:atemp>28.0</ns3:atemp>
            <ns3:hr>103</ns3:hr>
          </ns3:TrackPointExtension>
        </extensions>
      </trkpt>
      <trkpt lat="36.81397880427539348602294921875" lon="-118.43176600523293018341064453125">
        <ele>3419.199951171875</ele>
        <time>2021-06-26T17:07:53.000Z</time>
        <extensions>
          <ns3:TrackPointExtension>
            <ns3:atemp>28.0</ns3:atemp>
            <ns3:hr>106</ns3:hr>
          </ns3:TrackPointExtension>
        </extensions>
      </trkpt>
      <trkpt lat="36.81397880427539348602294921875" lon="-118.43176650814712047576904296875">
        <ele>3419.39990234375</ele>
        <time>2021-06-26T17:07:57.000Z</time>
        <extensions>
          <ns3:TrackPointExtension>
            <ns3:atemp>28.0</ns3:atemp>
            <ns3:hr>109</ns3:hr>
          </ns3:TrackPointExtension>
        </extensions>
      </trkpt>
      <trkpt lat="36.81397880427539348602294921875" lon="-118.431766591966152191162109375">
        <ele>3420.60009765625</ele>
        <time>2021-06-26T17:07:58.000Z</time>
        <extensions>
          <ns3:TrackPointExtension>
            <ns3:atemp>28.0</ns3:atemp>
            <ns3:hr>109</ns3:hr>
          </ns3:TrackPointExtension>
        </extensions>
      </trkpt>
      <trkpt lat="36.81397880427539348602294921875" lon="-118.43176751397550106048583984375">
        <ele>3421.60009765625</ele>
        <time>2021-06-26T17:08:04.000Z</time>
        <extensions>
          <ns3:TrackPointExtension>
            <ns3:atemp>28.0</ns3:atemp>
            <ns3:hr>109</ns3:hr>
          </ns3:TrackPointExtension>
        </extensions>
      </trkpt>
      <trkpt lat="36.8139787204563617706298828125" lon="-118.43176851980388164520263671875">
        <ele>3422.800048828125</ele>
        <time>2021-06-26T17:08:10.000Z</time>
        <extensions>
          <ns3:TrackPointExtension>
            <ns3:atemp>28.0</ns3:atemp>
            <ns3:hr>108</ns3:hr>
          </ns3:TrackPointExtension>
        </extensions>
      </trkpt>
      <trkpt lat="36.81397863663733005523681640625" lon="-118.4317696094512939453125">
        <ele>3422.800048828125</ele>
        <time>2021-06-26T17:08:16.000Z</time>
        <extensions>
          <ns3:TrackPointExtension>
            <ns3:atemp>28.0</ns3:atemp>
            <ns3:hr>113</ns3:hr>
          </ns3:TrackPointExtension>
        </extensions>
      </trkpt>
      <trkpt lat="36.81397863663733005523681640625" lon="-118.4317701123654842376708984375">
        <ele>3423.199951171875</ele>
        <time>2021-06-26T17:08:18.000Z</time>
        <extensions>
          <ns3:TrackPointExtension>
            <ns3:atemp>28.0</ns3:atemp>
            <ns3:hr>117</ns3:hr>
          </ns3:TrackPointExtension>
        </extensions>
      </trkpt>
      <trkpt lat="36.81397863663733005523681640625" lon="-118.43177053146064281463623046875">
        <ele>3423.800048828125</ele>
        <time>2021-06-26T17:08:20.000Z</time>
        <extensions>
          <ns3:TrackPointExtension>
            <ns3:atemp>28.0</ns3:atemp>
            <ns3:hr>117</ns3:hr>
          </ns3:TrackPointExtension>
        </extensions>
      </trkpt>
      <trkpt lat="36.81397855281829833984375" lon="-118.431771285831928253173828125">
        <ele>3425.199951171875</ele>
        <time>2021-06-26T17:08:23.000Z</time>
        <extensions>
          <ns3:TrackPointExtension>
            <ns3:atemp>28.0</ns3:atemp>
            <ns3:hr>116</ns3:hr>
          </ns3:TrackPointExtension>
        </extensions>
      </trkpt>
      <trkpt lat="36.81397855281829833984375" lon="-118.43177153728902339935302734375">
        <ele>3425.800048828125</ele>
        <time>2021-06-26T17:08:24.000Z</time>
        <extensions>
          <ns3:TrackPointExtension>
            <ns3:atemp>28.0</ns3:atemp>
            <ns3:hr>119</ns3:hr>
          </ns3:TrackPointExtension>
        </extensions>
      </trkpt>
      <trkpt lat="36.81397763080894947052001953125" lon="-118.4317929111421108245849609375">
        <ele>3426.199951171875</ele>
        <time>2021-06-26T17:08:27.000Z</time>
        <extensions>
          <ns3:TrackPointExtension>
            <ns3:atemp>28.0</ns3:atemp>
            <ns3:hr>122</ns3:hr>
          </ns3:TrackPointExtension>
        </extensions>
      </trkpt>
      <trkpt lat="36.81398349814116954803466796875" lon="-118.4318217448890209197998046875">
        <ele>3426.39990234375</ele>
        <time>2021-06-26T17:08:28.000Z</time>
        <extensions>
          <ns3:TrackPointExtension>
            <ns3:atemp>28.0</ns3:atemp>
            <ns3:hr>125</ns3:hr>
          </ns3:TrackPointExtension>
        </extensions>
      </trkpt>
      <trkpt lat="36.81397628970444202423095703125" lon="-118.43189424835145473480224609375">
        <ele>3426.60009765625</ele>
        <time>2021-06-26T17:08:31.000Z</time>
        <extensions>
          <ns3:TrackPointExtension>
            <ns3:atemp>28.0</ns3:atemp>
            <ns3:hr>124</ns3:hr>
          </ns3:TrackPointExtension>
        </extensions>
      </trkpt>
      <trkpt lat="36.8139797262847423553466796875" lon="-118.4320155344903469085693359375">
        <ele>3427</ele>
        <time>2021-06-26T17:08:41.000Z</time>
        <extensions>
          <ns3:TrackPointExtension>
            <ns3:atemp>28.0</ns3:atemp>
            <ns3:hr>123</ns3:hr>
          </ns3:TrackPointExtension>
        </extensions>
      </trkpt>
      <trkpt lat="36.8139797262847423553466796875" lon="-118.43201478011906147003173828125">
        <ele>3425.199951171875</ele>
        <time>2021-06-26T17:08:47.000Z</time>
        <extensions>
          <ns3:TrackPointExtension>
            <ns3:atemp>28.0</ns3:atemp>
            <ns3:hr>121</ns3:hr>
          </ns3:TrackPointExtension>
        </extensions>
      </trkpt>
      <trkpt lat="36.81399690918624401092529296875" lon="-118.43200455419719219207763671875">
        <ele>3425.800048828125</ele>
        <time>2021-06-26T17:08:58.000Z</time>
        <extensions>
          <ns3:TrackPointExtension>
            <ns3:atemp>28.0</ns3:atemp>
            <ns3:hr>118</ns3:hr>
          </ns3:TrackPointExtension>
        </extensions>
      </trkpt>
      <trkpt lat="36.8140042014420032501220703125" lon="-118.43200371600687503814697265625">
        <ele>3425.800048828125</ele>
        <time>2021-06-26T17:09:04.000Z</time>
        <extensions>
          <ns3:TrackPointExtension>
            <ns3:atemp>28.0</ns3:atemp>
            <ns3:hr>121</ns3:hr>
          </ns3:TrackPointExtension>
        </extensions>
      </trkpt>
      <trkpt lat="36.8140045367181301116943359375" lon="-118.43200237490236759185791015625">
        <ele>3425.800048828125</ele>
        <time>2021-06-26T17:09:07.000Z</time>
        <extensions>
          <ns3:TrackPointExtension>
            <ns3:atemp>28.0</ns3:atemp>
            <ns3:hr>124</ns3:hr>
          </ns3:TrackPointExtension>
        </extensions>
      </trkpt>
      <trkpt lat="36.814009062945842742919921875" lon="-118.43200019560754299163818359375">
        <ele>3425</ele>
        <time>2021-06-26T17:09:15.000Z</time>
        <extensions>
          <ns3:TrackPointExtension>
            <ns3:atemp>28.0</ns3:atemp>
            <ns3:hr>121</ns3:hr>
          </ns3:TrackPointExtension>
        </extensions>
      </trkpt>
      <trkpt lat="36.81400981731712818145751953125" lon="-118.43200019560754299163818359375">
        <ele>3425</ele>
        <time>2021-06-26T17:09:17.000Z</time>
        <extensions>
          <ns3:TrackPointExtension>
            <ns3:atemp>28.0</ns3:atemp>
            <ns3:hr>118</ns3:hr>
          </ns3:TrackPointExtension>
        </extensions>
      </trkpt>
      <trkpt lat="36.81401048786938190460205078125" lon="-118.431999944150447845458984375">
        <ele>3425</ele>
        <time>2021-06-26T17:09:20.000Z</time>
        <extensions>
          <ns3:TrackPointExtension>
            <ns3:atemp>28.0</ns3:atemp>
            <ns3:hr>115</ns3:hr>
          </ns3:TrackPointExtension>
        </extensions>
      </trkpt>
      <trkpt lat="36.814011074602603912353515625" lon="-118.43199902214109897613525390625">
        <ele>3425</ele>
        <time>2021-06-26T17:09:22.000Z</time>
        <extensions>
          <ns3:TrackPointExtension>
            <ns3:atemp>28.0</ns3:atemp>
            <ns3:hr>112</ns3:hr>
          </ns3:TrackPointExtension>
        </extensions>
      </trkpt>
      <trkpt lat="36.8140120804309844970703125" lon="-118.43199902214109897613525390625">
        <ele>3426</ele>
        <time>2021-06-26T17:09:23.000Z</time>
        <extensions>
          <ns3:TrackPointExtension>
            <ns3:atemp>28.0</ns3:atemp>
            <ns3:hr>109</ns3:hr>
          </ns3:TrackPointExtension>
        </extensions>
      </trkpt>
      <trkpt lat="36.8140139244496822357177734375" lon="-118.43199835158884525299072265625">
        <ele>3426.199951171875</ele>
        <time>2021-06-26T17:09:25.000Z</time>
        <extensions>
          <ns3:TrackPointExtension>
            <ns3:atemp>28.0</ns3:atemp>
            <ns3:hr>106</ns3:hr>
          </ns3:TrackPointExtension>
        </extensions>
      </trkpt>
      <trkpt lat="36.81401702575385570526123046875" lon="-118.4319977648556232452392578125">
        <ele>3426.39990234375</ele>
        <time>2021-06-26T17:09:27.000Z</time>
        <extensions>
          <ns3:TrackPointExtension>
            <ns3:atemp>28.0</ns3:atemp>
            <ns3:hr>103</ns3:hr>
          </ns3:TrackPointExtension>
        </extensions>
      </trkpt>
      <trkpt lat="36.8140219710767269134521484375" lon="-118.43199701048433780670166015625">
        <ele>3426.39990234375</ele>
        <time>2021-06-26T17:09:29.000Z</time>
        <extensions>
          <ns3:TrackPointExtension>
            <ns3:atemp>28.0</ns3:atemp>
            <ns3:hr>100</ns3:hr>
          </ns3:TrackPointExtension>
        </extensions>
      </trkpt>
      <trkpt lat="36.81402272544801235198974609375" lon="-118.431994915008544921875">
        <ele>3426.199951171875</ele>
        <time>2021-06-26T17:09:34.000Z</time>
        <extensions>
          <ns3:TrackPointExtension>
            <ns3:atemp>28.0</ns3:atemp>
            <ns3:hr>97</ns3:hr>
          </ns3:TrackPointExtension>
        </extensions>
      </trkpt>
      <trkpt lat="36.81402272544801235198974609375" lon="-118.43199064023792743682861328125">
        <ele>3427.199951171875</ele>
        <time>2021-06-26T17:09:41.000Z</time>
        <extensions>
          <ns3:TrackPointExtension>
            <ns3:atemp>28.0</ns3:atemp>
            <ns3:hr>94</ns3:hr>
          </ns3:TrackPointExtension>
        </extensions>
      </trkpt>
      <trkpt lat="36.81402272544801235198974609375" lon="-118.43198913149535655975341796875">
        <ele>3427.199951171875</ele>
        <time>2021-06-26T17:09:43.000Z</time>
        <extensions>
          <ns3:TrackPointExtension>
            <ns3:atemp>28.0</ns3:atemp>
            <ns3:hr>91</ns3:hr>
          </ns3:TrackPointExtension>
        </extensions>
      </trkpt>
      <trkpt lat="36.81395801715552806854248046875" lon="-118.4319853596389293670654296875">
        <ele>3427.199951171875</ele>
        <time>2021-06-26T17:09:53.000Z</time>
        <extensions>
          <ns3:TrackPointExtension>
            <ns3:atemp>27.0</ns3:atemp>
            <ns3:hr>88</ns3:hr>
          </ns3:TrackPointExtension>
        </extensions>
      </trkpt>
      <trkpt lat="36.81395416148006916046142578125" lon="-118.43198510818183422088623046875">
        <ele>3427.199951171875</ele>
        <time>2021-06-26T17:09:58.000Z</time>
        <extensions>
          <ns3:TrackPointExtension>
            <ns3:atemp>27.0</ns3:atemp>
            <ns3:hr>85</ns3:hr>
          </ns3:TrackPointExtension>
        </extensions>
      </trkpt>
      <trkpt lat="36.81395667605102062225341796875" lon="-118.4320056438446044921875">
        <ele>3427.199951171875</ele>
        <time>2021-06-26T17:10:14.000Z</time>
        <extensions>
          <ns3:TrackPointExtension>
            <ns3:atemp>27.0</ns3:atemp>
            <ns3:hr>88</ns3:hr>
          </ns3:TrackPointExtension>
        </extensions>
      </trkpt>
      <trkpt lat="36.81397411040961742401123046875" lon="-118.4320175461471080780029296875">
        <ele>3427.199951171875</ele>
        <time>2021-06-26T17:10:17.000Z</time>
        <extensions>
          <ns3:TrackPointExtension>
            <ns3:atemp>27.0</ns3:atemp>
            <ns3:hr>91</ns3:hr>
          </ns3:TrackPointExtension>
        </extensions>
      </trkpt>
      <trkpt lat="36.81402943097054958343505859375" lon="-118.43210279010236263275146484375">
        <ele>3427.199951171875</ele>
        <time>2021-06-26T17:10:21.000Z</time>
        <extensions>
          <ns3:TrackPointExtension>
            <ns3:atemp>27.0</ns3:atemp>
            <ns3:hr>96</ns3:hr>
          </ns3:TrackPointExtension>
        </extensions>
      </trkpt>
      <trkpt lat="36.81406932882964611053466796875" lon="-118.4321384131908416748046875">
        <ele>3427.199951171875</ele>
        <time>2021-06-26T17:10:23.000Z</time>
        <extensions>
          <ns3:TrackPointExtension>
            <ns3:atemp>27.0</ns3:atemp>
            <ns3:hr>99</ns3:hr>
          </ns3:TrackPointExtension>
        </extensions>
      </trkpt>
      <trkpt lat="36.81408022530376911163330078125" lon="-118.4321625530719757080078125">
        <ele>3427.199951171875</ele>
        <time>2021-06-26T17:10:24.000Z</time>
        <extensions>
          <ns3:TrackPointExtension>
            <ns3:atemp>27.0</ns3:atemp>
            <ns3:hr>100</ns3:hr>
          </ns3:TrackPointExtension>
        </extensions>
      </trkpt>
      <trkpt lat="36.814119033515453338623046875" lon="-118.43224905431270599365234375">
        <ele>3427.60009765625</ele>
        <time>2021-06-26T17:10:28.000Z</time>
        <extensions>
          <ns3:TrackPointExtension>
            <ns3:atemp>27.0</ns3:atemp>
            <ns3:hr>102</ns3:hr>
          </ns3:TrackPointExtension>
        </extensions>
      </trkpt>
      <trkpt lat="36.8141228891909122467041015625" lon="-118.4322659857571125030517578125">
        <ele>3427.60009765625</ele>
        <time>2021-06-26T17:10:29.000Z</time>
        <extensions>
          <ns3:TrackPointExtension>
            <ns3:atemp>27.0</ns3:atemp>
            <ns3:hr>102</ns3:hr>
          </ns3:TrackPointExtension>
        </extensions>
      </trkpt>
      <trkpt lat="36.814122386276721954345703125" lon="-118.43235542066395282745361328125">
        <ele>3427.60009765625</ele>
        <time>2021-06-26T17:10:37.000Z</time>
        <extensions>
          <ns3:TrackPointExtension>
            <ns3:atemp>27.0</ns3:atemp>
            <ns3:hr>99</ns3:hr>
          </ns3:TrackPointExtension>
        </extensions>
      </trkpt>
      <trkpt lat="36.8141208775341510772705078125" lon="-118.4323786385357379913330078125">
        <ele>3427.60009765625</ele>
        <time>2021-06-26T17:10:39.000Z</time>
        <extensions>
          <ns3:TrackPointExtension>
            <ns3:atemp>27.0</ns3:atemp>
            <ns3:hr>98</ns3:hr>
          </ns3:TrackPointExtension>
        </extensions>
      </trkpt>
      <trkpt lat="36.8141302652657032012939453125" lon="-118.43241895548999309539794921875">
        <ele>3427.800048828125</ele>
        <time>2021-06-26T17:10:42.000Z</time>
        <extensions>
          <ns3:TrackPointExtension>
            <ns3:atemp>27.0</ns3:atemp>
            <ns3:hr>94</ns3:hr>
          </ns3:TrackPointExtension>
        </extensions>
      </trkpt>
      <trkpt lat="36.81413236074149608612060546875" lon="-118.432454578578472137451171875">
        <ele>3427.800048828125</ele>
        <time>2021-06-26T17:10:45.000Z</time>
        <extensions>
          <ns3:TrackPointExtension>
            <ns3:atemp>27.0</ns3:atemp>
            <ns3:hr>97</ns3:hr>
          </ns3:TrackPointExtension>
        </extensions>
      </trkpt>
      <trkpt lat="36.814144514501094818115234375" lon="-118.4325171075761318206787109375">
        <ele>3428.199951171875</ele>
        <time>2021-06-26T17:10:50.000Z</time>
        <extensions>
          <ns3:TrackPointExtension>
            <ns3:atemp>27.0</ns3:atemp>
            <ns3:hr>95</ns3:hr>
          </ns3:TrackPointExtension>
        </extensions>
      </trkpt>
      <trkpt lat="36.81413973681628704071044921875" lon="-118.432641662657260894775390625">
        <ele>3428</ele>
        <time>2021-06-26T17:11:01.000Z</time>
        <extensions>
          <ns3:TrackPointExtension>
            <ns3:atemp>27.0</ns3:atemp>
            <ns3:hr>93</ns3:hr>
          </ns3:TrackPointExtension>
        </extensions>
      </trkpt>
      <trkpt lat="36.8141319416463375091552734375" lon="-118.43267418444156646728515625">
        <ele>3428.199951171875</ele>
        <time>2021-06-26T17:11:04.000Z</time>
        <extensions>
          <ns3:TrackPointExtension>
            <ns3:atemp>27.0</ns3:atemp>
            <ns3:hr>94</ns3:hr>
          </ns3:TrackPointExtension>
        </extensions>
      </trkpt>
      <trkpt lat="36.81414091028273105621337890625" lon="-118.43271014280617237091064453125">
        <ele>3429</ele>
        <time>2021-06-26T17:11:07.000Z</time>
        <extensions>
          <ns3:TrackPointExtension>
            <ns3:atemp>27.0</ns3:atemp>
            <ns3:hr>92</ns3:hr>
          </ns3:TrackPointExtension>
        </extensions>
      </trkpt>
      <trkpt lat="36.8141396529972553253173828125" lon="-118.43272246420383453369140625">
        <ele>3429.199951171875</ele>
        <time>2021-06-26T17:11:09.000Z</time>
        <extensions>
          <ns3:TrackPointExtension>
            <ns3:atemp>27.0</ns3:atemp>
            <ns3:hr>91</ns3:hr>
          </ns3:TrackPointExtension>
        </extensions>
      </trkpt>
      <trkpt lat="36.81413470767438411712646484375" lon="-118.4327263198792934417724609375">
        <ele>3429.199951171875</ele>
        <time>2021-06-26T17:11:10.000Z</time>
        <extensions>
          <ns3:TrackPointExtension>
            <ns3:atemp>27.0</ns3:atemp>
            <ns3:hr>90</ns3:hr>
          </ns3:TrackPointExtension>
        </extensions>
      </trkpt>
      <trkpt lat="36.814122386276721954345703125" lon="-118.4327350370585918426513671875">
        <ele>3429.199951171875</ele>
        <time>2021-06-26T17:11:12.000Z</time>
        <extensions>
          <ns3:TrackPointExtension>
            <ns3:atemp>27.0</ns3:atemp>
            <ns3:hr>89</ns3:hr>
          </ns3:TrackPointExtension>
        </extensions>
      </trkpt>
      <trkpt lat="36.8141004256904125213623046875" lon="-118.43272942118346691131591796875">
        <ele>3429.39990234375</ele>
        <time>2021-06-26T17:11:15.000Z</time>
        <extensions>
          <ns3:TrackPointExtension>
            <ns3:atemp>27.0</ns3:atemp>
            <ns3:hr>87</ns3:hr>
          </ns3:TrackPointExtension>
        </extensions>
      </trkpt>
      <trkpt lat="36.81408592499792575836181640625" lon="-118.4327437542378902435302734375">
        <ele>3429.800048828125</ele>
        <time>2021-06-26T17:11:18.000Z</time>
        <extensions>
          <ns3:TrackPointExtension>
            <ns3:atemp>27.0</ns3:atemp>
            <ns3:hr>87</ns3:hr>
          </ns3:TrackPointExtension>
        </extensions>
      </trkpt>
      <trkpt lat="36.8140759505331516265869140625" lon="-118.43275121413171291351318359375">
        <ele>3430.39990234375</ele>
        <time>2021-06-26T17:11:20.000Z</time>
        <extensions>
          <ns3:TrackPointExtension>
            <ns3:atemp>27.0</ns3:atemp>
            <ns3:hr>87</ns3:hr>
          </ns3:TrackPointExtension>
        </extensions>
      </trkpt>
      <trkpt lat="36.8140715919435024261474609375" lon="-118.43275272287428379058837890625">
        <ele>3430.39990234375</ele>
        <time>2021-06-26T17:11:21.000Z</time>
        <extensions>
          <ns3:TrackPointExtension>
            <ns3:atemp>27.0</ns3:atemp>
            <ns3:hr>90</ns3:hr>
          </ns3:TrackPointExtension>
        </extensions>
      </trkpt>
      <trkpt lat="36.8140662275254726409912109375" lon="-118.432750292122364044189453125">
        <ele>3430.60009765625</ele>
        <time>2021-06-26T17:11:22.000Z</time>
        <extensions>
          <ns3:TrackPointExtension>
            <ns3:atemp>27.0</ns3:atemp>
            <ns3:hr>87</ns3:hr>
          </ns3:TrackPointExtension>
        </extensions>
      </trkpt>
      <trkpt lat="36.81406103074550628662109375" lon="-118.43275842256844043731689453125">
        <ele>3431</ele>
        <time>2021-06-26T17:11:24.000Z</time>
        <extensions>
          <ns3:TrackPointExtension>
            <ns3:atemp>27.0</ns3:atemp>
            <ns3:hr>86</ns3:hr>
          </ns3:TrackPointExtension>
        </extensions>
      </trkpt>
      <trkpt lat="36.81405876763164997100830078125" lon="-118.43276864849030971527099609375">
        <ele>3432</ele>
        <time>2021-06-26T17:11:26.000Z</time>
        <extensions>
          <ns3:TrackPointExtension>
            <ns3:atemp>27.0</ns3:atemp>
            <ns3:hr>86</ns3:hr>
          </ns3:TrackPointExtension>
        </extensions>
      </trkpt>
      <trkpt lat="36.814062707126140594482421875" lon="-118.43278809450566768646240234375">
        <ele>3432.39990234375</ele>
        <time>2021-06-26T17:11:28.000Z</time>
        <extensions>
          <ns3:TrackPointExtension>
            <ns3:atemp>27.0</ns3:atemp>
            <ns3:hr>89</ns3:hr>
          </ns3:TrackPointExtension>
        </extensions>
      </trkpt>
      <trkpt lat="36.81406279094517230987548828125" lon="-118.432796895503997802734375">
        <ele>3432.60009765625</ele>
        <time>2021-06-26T17:11:29.000Z</time>
        <extensions>
          <ns3:TrackPointExtension>
            <ns3:atemp>27.0</ns3:atemp>
            <ns3:hr>91</ns3:hr>
          </ns3:TrackPointExtension>
        </extensions>
      </trkpt>
      <trkpt lat="36.81406949646770954132080078125" lon="-118.43282296322286128997802734375">
        <ele>3432.60009765625</ele>
        <time>2021-06-26T17:11:32.000Z</time>
        <extensions>
          <ns3:TrackPointExtension>
            <ns3:atemp>27.0</ns3:atemp>
            <ns3:hr>94</ns3:hr>
          </ns3:TrackPointExtension>
        </extensions>
      </trkpt>
      <trkpt lat="36.814070753753185272216796875" lon="-118.432829417288303375244140625">
        <ele>3432.60009765625</ele>
        <time>2021-06-26T17:11:33.000Z</time>
        <extensions>
          <ns3:TrackPointExtension>
            <ns3:atemp>27.0</ns3:atemp>
            <ns3:hr>97</ns3:hr>
          </ns3:TrackPointExtension>
        </extensions>
      </trkpt>
      <trkpt lat="36.81406748481094837188720703125" lon="-118.43285766430199146270751953125">
        <ele>3433.199951171875</ele>
        <time>2021-06-26T17:11:36.000Z</time>
        <extensions>
          <ns3:TrackPointExtension>
            <ns3:atemp>27.0</ns3:atemp>
            <ns3:hr>97</ns3:hr>
          </ns3:TrackPointExtension>
        </extensions>
      </trkpt>
      <trkpt lat="36.814063377678394317626953125" lon="-118.43286059796810150146484375">
        <ele>3433.199951171875</ele>
        <time>2021-06-26T17:11:37.000Z</time>
        <extensions>
          <ns3:TrackPointExtension>
            <ns3:atemp>27.0</ns3:atemp>
            <ns3:hr>97</ns3:hr>
          </ns3:TrackPointExtension>
        </extensions>
      </trkpt>
      <trkpt lat="36.8140856735408306121826171875" lon="-118.4329147450625896453857421875">
        <ele>3434.199951171875</ele>
        <time>2021-06-26T17:11:43.000Z</time>
        <extensions>
          <ns3:TrackPointExtension>
            <ns3:atemp>27.0</ns3:atemp>
            <ns3:hr>99</ns3:hr>
          </ns3:TrackPointExtension>
        </extensions>
      </trkpt>
      <trkpt lat="36.81408382952213287353515625" lon="-118.4329231269657611846923828125">
        <ele>3434.39990234375</ele>
        <time>2021-06-26T17:11:44.000Z</time>
        <extensions>
          <ns3:TrackPointExtension>
            <ns3:atemp>27.0</ns3:atemp>
            <ns3:hr>99</ns3:hr>
          </ns3:TrackPointExtension>
        </extensions>
      </trkpt>
      <trkpt lat="36.814083494246006011962890625" lon="-118.43299579806625843048095703125">
        <ele>3434.39990234375</ele>
        <time>2021-06-26T17:11:53.000Z</time>
        <extensions>
          <ns3:TrackPointExtension>
            <ns3:atemp>27.0</ns3:atemp>
            <ns3:hr>100</ns3:hr>
          </ns3:TrackPointExtension>
        </extensions>
      </trkpt>
      <trkpt lat="36.81411023251712322235107421875" lon="-118.4330334328114986419677734375">
        <ele>3435.800048828125</ele>
        <time>2021-06-26T17:11:58.000Z</time>
        <extensions>
          <ns3:TrackPointExtension>
            <ns3:atemp>27.0</ns3:atemp>
            <ns3:hr>100</ns3:hr>
          </ns3:TrackPointExtension>
        </extensions>
      </trkpt>
      <trkpt lat="36.81412347592413425445556640625" lon="-118.43304977752268314361572265625">
        <ele>3436</ele>
        <time>2021-06-26T17:12:00.000Z</time>
        <extensions>
          <ns3:TrackPointExtension>
            <ns3:atemp>27.0</ns3:atemp>
            <ns3:hr>102</ns3:hr>
          </ns3:TrackPointExtension>
        </extensions>
      </trkpt>
      <trkpt lat="36.81412800215184688568115234375" lon="-118.43307492323219776153564453125">
        <ele>3436.800048828125</ele>
        <time>2021-06-26T17:12:04.000Z</time>
        <extensions>
          <ns3:TrackPointExtension>
            <ns3:atemp>27.0</ns3:atemp>
            <ns3:hr>102</ns3:hr>
          </ns3:TrackPointExtension>
        </extensions>
      </trkpt>
      <trkpt lat="36.81413118727505207061767578125" lon="-118.4331021644175052642822265625">
        <ele>3437.39990234375</ele>
        <time>2021-06-26T17:12:09.000Z</time>
        <extensions>
          <ns3:TrackPointExtension>
            <ns3:atemp>27.0</ns3:atemp>
            <ns3:hr>100</ns3:hr>
          </ns3:TrackPointExtension>
        </extensions>
      </trkpt>
      <trkpt lat="36.81412163190543651580810546875" lon="-118.4331001527607440948486328125">
        <ele>3438</ele>
        <time>2021-06-26T17:12:10.000Z</time>
        <extensions>
          <ns3:TrackPointExtension>
            <ns3:atemp>27.0</ns3:atemp>
            <ns3:hr>99</ns3:hr>
          </ns3:TrackPointExtension>
        </extensions>
      </trkpt>
      <trkpt lat="36.8141322769224643707275390625" lon="-118.43312479555606842041015625">
        <ele>3439.199951171875</ele>
        <time>2021-06-26T17:12:16.000Z</time>
        <extensions>
          <ns3:TrackPointExtension>
            <ns3:atemp>27.0</ns3:atemp>
            <ns3:hr>98</ns3:hr>
          </ns3:TrackPointExtension>
        </extensions>
      </trkpt>
      <trkpt lat="36.814140491187572479248046875" lon="-118.43313510529696941375732421875">
        <ele>3439.39990234375</ele>
        <time>2021-06-26T17:12:18.000Z</time>
        <extensions>
          <ns3:TrackPointExtension>
            <ns3:atemp>27.0</ns3:atemp>
            <ns3:hr>99</ns3:hr>
          </ns3:TrackPointExtension>
        </extensions>
      </trkpt>
      <trkpt lat="36.81414962746202945709228515625" lon="-118.43314885161817073822021484375">
        <ele>3440.199951171875</ele>
        <time>2021-06-26T17:12:22.000Z</time>
        <extensions>
          <ns3:TrackPointExtension>
            <ns3:atemp>27.0</ns3:atemp>
            <ns3:hr>100</ns3:hr>
          </ns3:TrackPointExtension>
        </extensions>
      </trkpt>
      <trkpt lat="36.81416823528707027435302734375" lon="-118.43315270729362964630126953125">
        <ele>3440.800048828125</ele>
        <time>2021-06-26T17:12:25.000Z</time>
        <extensions>
          <ns3:TrackPointExtension>
            <ns3:atemp>27.0</ns3:atemp>
            <ns3:hr>100</ns3:hr>
          </ns3:TrackPointExtension>
        </extensions>
      </trkpt>
      <trkpt lat="36.81418240070343017578125" lon="-118.43316243030130863189697265625">
        <ele>3441.199951171875</ele>
        <time>2021-06-26T17:12:27.000Z</time>
        <extensions>
          <ns3:TrackPointExtension>
            <ns3:atemp>28.0</ns3:atemp>
            <ns3:hr>100</ns3:hr>
          </ns3:TrackPointExtension>
        </extensions>
      </trkpt>
      <trkpt lat="36.81419572792947292327880859375" lon="-118.43318673782050609588623046875">
        <ele>3442</ele>
        <time>2021-06-26T17:12:33.000Z</time>
        <extensions>
          <ns3:TrackPointExtension>
            <ns3:atemp>28.0</ns3:atemp>
            <ns3:hr>103</ns3:hr>
          </ns3:TrackPointExtension>
        </extensions>
      </trkpt>
      <trkpt lat="36.81419891305267810821533203125" lon="-118.433188833296298980712890625">
        <ele>3442.39990234375</ele>
        <time>2021-06-26T17:12:34.000Z</time>
        <extensions>
          <ns3:TrackPointExtension>
            <ns3:atemp>28.0</ns3:atemp>
            <ns3:hr>103</ns3:hr>
          </ns3:TrackPointExtension>
        </extensions>
      </trkpt>
      <trkpt lat="36.81420385837554931640625" lon="-118.43320517800748348236083984375">
        <ele>3443</ele>
        <time>2021-06-26T17:12:37.000Z</time>
        <extensions>
          <ns3:TrackPointExtension>
            <ns3:atemp>28.0</ns3:atemp>
            <ns3:hr>100</ns3:hr>
          </ns3:TrackPointExtension>
        </extensions>
      </trkpt>
      <trkpt lat="36.81419991888105869293212890625" lon="-118.43321263790130615234375">
        <ele>3443.199951171875</ele>
        <time>2021-06-26T17:12:39.000Z</time>
        <extensions>
          <ns3:TrackPointExtension>
            <ns3:atemp>28.0</ns3:atemp>
            <ns3:hr>97</ns3:hr>
          </ns3:TrackPointExtension>
        </extensions>
      </trkpt>
      <trkpt lat="36.81420025415718555450439453125" lon="-118.43322194181382656097412109375">
        <ele>3443.39990234375</ele>
        <time>2021-06-26T17:12:41.000Z</time>
        <extensions>
          <ns3:TrackPointExtension>
            <ns3:atemp>28.0</ns3:atemp>
            <ns3:hr>96</ns3:hr>
          </ns3:TrackPointExtension>
        </extensions>
      </trkpt>
      <trkpt lat="36.81421366520226001739501953125" lon="-118.43322328291833400726318359375">
        <ele>3443.800048828125</ele>
        <time>2021-06-26T17:12:44.000Z</time>
        <extensions>
          <ns3:TrackPointExtension>
            <ns3:atemp>28.0</ns3:atemp>
            <ns3:hr>96</ns3:hr>
          </ns3:TrackPointExtension>
        </extensions>
      </trkpt>
      <trkpt lat="36.81422791443765163421630859375" lon="-118.43323535285890102386474609375">
        <ele>3444.39990234375</ele>
        <time>2021-06-26T17:12:49.000Z</time>
        <extensions>
          <ns3:TrackPointExtension>
            <ns3:atemp>28.0</ns3:atemp>
            <ns3:hr>99</ns3:hr>
          </ns3:TrackPointExtension>
        </extensions>
      </trkpt>
      <trkpt lat="36.8142291717231273651123046875" lon="-118.43323610723018646240234375">
        <ele>3444.60009765625</ele>
        <time>2021-06-26T17:12:50.000Z</time>
        <extensions>
          <ns3:TrackPointExtension>
            <ns3:atemp>28.0</ns3:atemp>
            <ns3:hr>99</ns3:hr>
          </ns3:TrackPointExtension>
        </extensions>
      </trkpt>
      <trkpt lat="36.81423579342663288116455078125" lon="-118.43324490822851657867431640625">
        <ele>3445</ele>
        <time>2021-06-26T17:12:52.000Z</time>
        <extensions>
          <ns3:TrackPointExtension>
            <ns3:atemp>28.0</ns3:atemp>
            <ns3:hr>100</ns3:hr>
          </ns3:TrackPointExtension>
        </extensions>
      </trkpt>
      <trkpt lat="36.8142382241785526275634765625" lon="-118.4332550503313541412353515625">
        <ele>3445.800048828125</ele>
        <time>2021-06-26T17:12:55.000Z</time>
        <extensions>
          <ns3:TrackPointExtension>
            <ns3:atemp>28.0</ns3:atemp>
            <ns3:hr>101</ns3:hr>
          </ns3:TrackPointExtension>
        </extensions>
      </trkpt>
      <trkpt lat="36.8142486177384853363037109375" lon="-118.4332724846899509429931640625">
        <ele>3446.60009765625</ele>
        <time>2021-06-26T17:12:59.000Z</time>
        <extensions>
          <ns3:TrackPointExtension>
            <ns3:atemp>28.0</ns3:atemp>
            <ns3:hr>102</ns3:hr>
          </ns3:TrackPointExtension>
        </extensions>
      </trkpt>
      <trkpt lat="36.8142580054700374603271484375" lon="-118.43327592127025127410888671875">
        <ele>3447</ele>
        <time>2021-06-26T17:13:02.000Z</time>
        <extensions>
          <ns3:TrackPointExtension>
            <ns3:atemp>28.0</ns3:atemp>
            <ns3:hr>102</ns3:hr>
          </ns3:TrackPointExtension>
        </extensions>
      </trkpt>
      <trkpt lat="36.814254485070705413818359375" lon="-118.43327743001282215118408203125">
        <ele>3447.60009765625</ele>
        <time>2021-06-26T17:13:05.000Z</time>
        <extensions>
          <ns3:TrackPointExtension>
            <ns3:atemp>28.0</ns3:atemp>
            <ns3:hr>100</ns3:hr>
          </ns3:TrackPointExtension>
        </extensions>
      </trkpt>
      <trkpt lat="36.81426496244966983795166015625" lon="-118.43328581191599369049072265625">
        <ele>3447.800048828125</ele>
        <time>2021-06-26T17:13:09.000Z</time>
        <extensions>
          <ns3:TrackPointExtension>
            <ns3:atemp>28.0</ns3:atemp>
            <ns3:hr>97</ns3:hr>
          </ns3:TrackPointExtension>
        </extensions>
      </trkpt>
      <trkpt lat="36.81426680646836757659912109375" lon="-118.4332845546305179595947265625">
        <ele>3448.39990234375</ele>
        <time>2021-06-26T17:13:14.000Z</time>
        <extensions>
          <ns3:TrackPointExtension>
            <ns3:atemp>28.0</ns3:atemp>
            <ns3:hr>94</ns3:hr>
          </ns3:TrackPointExtension>
        </extensions>
      </trkpt>
      <trkpt lat="36.81426680646836757659912109375" lon="-118.4332845546305179595947265625">
        <ele>3448.39990234375</ele>
        <time>2021-06-26T17:13:15.000Z</time>
        <extensions>
          <ns3:TrackPointExtension>
            <ns3:atemp>28.0</ns3:atemp>
            <ns3:hr>94</ns3:hr>
          </ns3:TrackPointExtension>
        </extensions>
      </trkpt>
      <trkpt lat="36.81426680646836757659912109375" lon="-118.4332845546305179595947265625">
        <ele>3449.60009765625</ele>
        <time>2021-06-26T17:13:18.000Z</time>
        <extensions>
          <ns3:TrackPointExtension>
            <ns3:atemp>28.0</ns3:atemp>
            <ns3:hr>96</ns3:hr>
          </ns3:TrackPointExtension>
        </extensions>
      </trkpt>
      <trkpt lat="36.81426680646836757659912109375" lon="-118.4332845546305179595947265625">
        <ele>3450.60009765625</ele>
        <time>2021-06-26T17:13:21.000Z</time>
        <extensions>
          <ns3:TrackPointExtension>
            <ns3:atemp>28.0</ns3:atemp>
            <ns3:hr>100</ns3:hr>
          </ns3:TrackPointExtension>
        </extensions>
      </trkpt>
      <trkpt lat="36.81426663883030414581298828125" lon="-118.4332852251827716827392578125">
        <ele>3450.800048828125</ele>
        <time>2021-06-26T17:13:25.000Z</time>
        <extensions>
          <ns3:TrackPointExtension>
            <ns3:atemp>27.0</ns3:atemp>
            <ns3:hr>97</ns3:hr>
          </ns3:TrackPointExtension>
        </extensions>
      </trkpt>
      <trkpt lat="36.814264543354511260986328125" lon="-118.43329335562884807586669921875">
        <ele>3451.39990234375</ele>
        <time>2021-06-26T17:13:31.000Z</time>
        <extensions>
          <ns3:TrackPointExtension>
            <ns3:atemp>27.0</ns3:atemp>
            <ns3:hr>100</ns3:hr>
          </ns3:TrackPointExtension>
        </extensions>
      </trkpt>
      <trkpt lat="36.81426487863063812255859375" lon="-118.43329637311398983001708984375">
        <ele>3452.60009765625</ele>
        <time>2021-06-26T17:13:32.000Z</time>
        <extensions>
          <ns3:TrackPointExtension>
            <ns3:atemp>27.0</ns3:atemp>
            <ns3:hr>100</ns3:hr>
          </ns3:TrackPointExtension>
        </extensions>
      </trkpt>
      <trkpt lat="36.81426580063998699188232421875" lon="-118.43330643139779567718505859375">
        <ele>3453.60009765625</ele>
        <time>2021-06-26T17:13:37.000Z</time>
        <extensions>
          <ns3:TrackPointExtension>
            <ns3:atemp>27.0</ns3:atemp>
            <ns3:hr>99</ns3:hr>
          </ns3:TrackPointExtension>
        </extensions>
      </trkpt>
      <trkpt lat="36.81426546536386013031005859375" lon="-118.43333794735372066497802734375">
        <ele>3454.60009765625</ele>
        <time>2021-06-26T17:13:46.000Z</time>
        <extensions>
          <ns3:TrackPointExtension>
            <ns3:atemp>27.0</ns3:atemp>
            <ns3:hr>100</ns3:hr>
          </ns3:TrackPointExtension>
        </extensions>
      </trkpt>
      <trkpt lat="36.81426378898322582244873046875" lon="-118.43334264121949672698974609375">
        <ele>3455.199951171875</ele>
        <time>2021-06-26T17:13:49.000Z</time>
        <extensions>
          <ns3:TrackPointExtension>
            <ns3:atemp>27.0</ns3:atemp>
            <ns3:hr>103</ns3:hr>
          </ns3:TrackPointExtension>
        </extensions>
      </trkpt>
      <trkpt lat="36.8142623640596866607666015625" lon="-118.43335236422717571258544921875">
        <ele>3455.199951171875</ele>
        <time>2021-06-26T17:13:51.000Z</time>
        <extensions>
          <ns3:TrackPointExtension>
            <ns3:atemp>27.0</ns3:atemp>
            <ns3:hr>106</ns3:hr>
          </ns3:TrackPointExtension>
        </extensions>
      </trkpt>
      <trkpt lat="36.81426194496452808380126953125" lon="-118.4333539567887783050537109375">
        <ele>3455.39990234375</ele>
        <time>2021-06-26T17:13:52.000Z</time>
        <extensions>
          <ns3:TrackPointExtension>
            <ns3:atemp>27.0</ns3:atemp>
            <ns3:hr>109</ns3:hr>
          </ns3:TrackPointExtension>
        </extensions>
      </trkpt>
      <trkpt lat="36.81426093913614749908447265625" lon="-118.43335940502583980560302734375">
        <ele>3456</ele>
        <time>2021-06-26T17:13:54.000Z</time>
        <extensions>
          <ns3:TrackPointExtension>
            <ns3:atemp>27.0</ns3:atemp>
            <ns3:hr>111</ns3:hr>
          </ns3:TrackPointExtension>
        </extensions>
      </trkpt>
      <trkpt lat="36.81425725109875202178955078125" lon="-118.43336745165288448333740234375">
        <ele>3456.39990234375</ele>
        <time>2021-06-26T17:13:58.000Z</time>
        <extensions>
          <ns3:TrackPointExtension>
            <ns3:atemp>27.0</ns3:atemp>
            <ns3:hr>115</ns3:hr>
          </ns3:TrackPointExtension>
        </extensions>
      </trkpt>
      <trkpt lat="36.81425523944199085235595703125" lon="-118.43338019214570522308349609375">
        <ele>3456.800048828125</ele>
        <time>2021-06-26T17:14:02.000Z</time>
        <extensions>
          <ns3:TrackPointExtension>
            <ns3:atemp>27.0</ns3:atemp>
            <ns3:hr>118</ns3:hr>
          </ns3:TrackPointExtension>
        </extensions>
      </trkpt>
      <trkpt lat="36.814254485070705413818359375" lon="-118.43339092098176479339599609375">
        <ele>3457</ele>
        <time>2021-06-26T17:14:04.000Z</time>
        <extensions>
          <ns3:TrackPointExtension>
            <ns3:atemp>27.0</ns3:atemp>
            <ns3:hr>121</ns3:hr>
          </ns3:TrackPointExtension>
        </extensions>
      </trkpt>
      <trkpt lat="36.814251132309436798095703125" lon="-118.43340081162750720977783203125">
        <ele>3457.800048828125</ele>
        <time>2021-06-26T17:14:07.000Z</time>
        <extensions>
          <ns3:TrackPointExtension>
            <ns3:atemp>27.0</ns3:atemp>
            <ns3:hr>124</ns3:hr>
          </ns3:TrackPointExtension>
        </extensions>
      </trkpt>
      <trkpt lat="36.8142476119101047515869140625" lon="-118.433408439159393310546875">
        <ele>3458</ele>
        <time>2021-06-26T17:14:09.000Z</time>
        <extensions>
          <ns3:TrackPointExtension>
            <ns3:atemp>27.0</ns3:atemp>
            <ns3:hr>125</ns3:hr>
          </ns3:TrackPointExtension>
        </extensions>
      </trkpt>
      <trkpt lat="36.81424677371978759765625" lon="-118.433423526585102081298828125">
        <ele>3459</ele>
        <time>2021-06-26T17:14:14.000Z</time>
        <extensions>
          <ns3:TrackPointExtension>
            <ns3:atemp>27.0</ns3:atemp>
            <ns3:hr>128</ns3:hr>
          </ns3:TrackPointExtension>
        </extensions>
      </trkpt>
      <trkpt lat="36.8142435885965824127197265625" lon="-118.43348697759211063385009765625">
        <ele>3460</ele>
        <time>2021-06-26T17:14:21.000Z</time>
        <extensions>
          <ns3:TrackPointExtension>
            <ns3:atemp>27.0</ns3:atemp>
            <ns3:hr>127</ns3:hr>
          </ns3:TrackPointExtension>
        </extensions>
      </trkpt>
      <trkpt lat="36.81424300186336040496826171875" lon="-118.43349921517074108123779296875">
        <ele>3460.199951171875</ele>
        <time>2021-06-26T17:14:22.000Z</time>
        <extensions>
          <ns3:TrackPointExtension>
            <ns3:atemp>27.0</ns3:atemp>
            <ns3:hr>127</ns3:hr>
          </ns3:TrackPointExtension>
        </extensions>
      </trkpt>
      <trkpt lat="36.81425892747938632965087890625" lon="-118.43354187905788421630859375">
        <ele>3461.199951171875</ele>
        <time>2021-06-26T17:14:26.000Z</time>
        <extensions>
          <ns3:TrackPointExtension>
            <ns3:atemp>27.0</ns3:atemp>
            <ns3:hr>126</ns3:hr>
          </ns3:TrackPointExtension>
        </extensions>
      </trkpt>
      <trkpt lat="36.81425624527037143707275390625" lon="-118.433540873229503631591796875">
        <ele>3461.199951171875</ele>
        <time>2021-06-26T17:14:27.000Z</time>
        <extensions>
          <ns3:TrackPointExtension>
            <ns3:atemp>27.0</ns3:atemp>
            <ns3:hr>127</ns3:hr>
          </ns3:TrackPointExtension>
        </extensions>
      </trkpt>
      <trkpt lat="36.81425892747938632965087890625" lon="-118.4335752390325069427490234375">
        <ele>3462.39990234375</ele>
        <time>2021-06-26T17:14:33.000Z</time>
        <extensions>
          <ns3:TrackPointExtension>
            <ns3:atemp>27.0</ns3:atemp>
            <ns3:hr>130</ns3:hr>
          </ns3:TrackPointExtension>
        </extensions>
      </trkpt>
      <trkpt lat="36.81425758637487888336181640625" lon="-118.433575071394443511962890625">
        <ele>3463</ele>
        <time>2021-06-26T17:14:34.000Z</time>
        <extensions>
          <ns3:TrackPointExtension>
            <ns3:atemp>27.0</ns3:atemp>
            <ns3:hr>130</ns3:hr>
          </ns3:TrackPointExtension>
        </extensions>
      </trkpt>
      <trkpt lat="36.81426513008773326873779296875" lon="-118.43359057791531085968017578125">
        <ele>3463.60009765625</ele>
        <time>2021-06-26T17:14:39.000Z</time>
        <extensions>
          <ns3:TrackPointExtension>
            <ns3:atemp>27.0</ns3:atemp>
            <ns3:hr>131</ns3:hr>
          </ns3:TrackPointExtension>
        </extensions>
      </trkpt>
      <trkpt lat="36.81427954696118831634521484375" lon="-118.43360650353133678436279296875">
        <ele>3464.199951171875</ele>
        <time>2021-06-26T17:14:44.000Z</time>
        <extensions>
          <ns3:TrackPointExtension>
            <ns3:atemp>27.0</ns3:atemp>
            <ns3:hr>130</ns3:hr>
          </ns3:TrackPointExtension>
        </extensions>
      </trkpt>
      <trkpt lat="36.814289353787899017333984375" lon="-118.433609940111637115478515625">
        <ele>3464.800048828125</ele>
        <time>2021-06-26T17:14:46.000Z</time>
        <extensions>
          <ns3:TrackPointExtension>
            <ns3:atemp>27.0</ns3:atemp>
            <ns3:hr>130</ns3:hr>
          </ns3:TrackPointExtension>
        </extensions>
      </trkpt>
      <trkpt lat="36.81428994052112102508544921875" lon="-118.4336248598992824554443359375">
        <ele>3465.800048828125</ele>
        <time>2021-06-26T17:14:51.000Z</time>
        <extensions>
          <ns3:TrackPointExtension>
            <ns3:atemp>27.0</ns3:atemp>
            <ns3:hr>129</ns3:hr>
          </ns3:TrackPointExtension>
        </extensions>
      </trkpt>
      <trkpt lat="36.8142937123775482177734375" lon="-118.4336297214031219482421875">
        <ele>3466</ele>
        <time>2021-06-26T17:14:52.000Z</time>
        <extensions>
          <ns3:TrackPointExtension>
            <ns3:atemp>27.0</ns3:atemp>
            <ns3:hr>128</ns3:hr>
          </ns3:TrackPointExtension>
        </extensions>
      </trkpt>
      <trkpt lat="36.814284659922122955322265625" lon="-118.43362930230796337127685546875">
        <ele>3466.60009765625</ele>
        <time>2021-06-26T17:14:58.000Z</time>
        <extensions>
          <ns3:TrackPointExtension>
            <ns3:atemp>27.0</ns3:atemp>
            <ns3:hr>126</ns3:hr>
          </ns3:TrackPointExtension>
        </extensions>
      </trkpt>
      <trkpt lat="36.81426781229674816131591796875" lon="-118.43364958651363849639892578125">
        <ele>3467</ele>
        <time>2021-06-26T17:15:03.000Z</time>
        <extensions>
          <ns3:TrackPointExtension>
            <ns3:atemp>27.0</ns3:atemp>
            <ns3:hr>125</ns3:hr>
          </ns3:TrackPointExtension>
        </extensions>
      </trkpt>
      <trkpt lat="36.814276613295078277587890625" lon="-118.43366500921547412872314453125">
        <ele>3467.60009765625</ele>
        <time>2021-06-26T17:15:06.000Z</time>
        <extensions>
          <ns3:TrackPointExtension>
            <ns3:atemp>27.0</ns3:atemp>
            <ns3:hr>122</ns3:hr>
          </ns3:TrackPointExtension>
        </extensions>
      </trkpt>
      <trkpt lat="36.81427468545734882354736328125" lon="-118.4336785040795803070068359375">
        <ele>3468</ele>
        <time>2021-06-26T17:15:09.000Z</time>
        <extensions>
          <ns3:TrackPointExtension>
            <ns3:atemp>27.0</ns3:atemp>
            <ns3:hr>124</ns3:hr>
          </ns3:TrackPointExtension>
        </extensions>
      </trkpt>
      <trkpt lat="36.81427267380058765411376953125" lon="-118.433698117733001708984375">
        <ele>3469.199951171875</ele>
        <time>2021-06-26T17:15:13.000Z</time>
        <extensions>
          <ns3:TrackPointExtension>
            <ns3:atemp>27.0</ns3:atemp>
            <ns3:hr>124</ns3:hr>
          </ns3:TrackPointExtension>
        </extensions>
      </trkpt>
      <trkpt lat="36.8142663873732089996337890625" lon="-118.43371781520545482635498046875">
        <ele>3470</ele>
        <time>2021-06-26T17:15:18.000Z</time>
        <extensions>
          <ns3:TrackPointExtension>
            <ns3:atemp>27.0</ns3:atemp>
            <ns3:hr>124</ns3:hr>
          </ns3:TrackPointExtension>
        </extensions>
      </trkpt>
      <trkpt lat="36.81426345370709896087646484375" lon="-118.43371882103383541107177734375">
        <ele>3470.199951171875</ele>
        <time>2021-06-26T17:15:19.000Z</time>
        <extensions>
          <ns3:TrackPointExtension>
            <ns3:atemp>27.0</ns3:atemp>
            <ns3:hr>123</ns3:hr>
          </ns3:TrackPointExtension>
        </extensions>
      </trkpt>
      <trkpt lat="36.8142626993358135223388671875" lon="-118.4337396919727325439453125">
        <ele>3471</ele>
        <time>2021-06-26T17:15:25.000Z</time>
        <extensions>
          <ns3:TrackPointExtension>
            <ns3:atemp>27.0</ns3:atemp>
            <ns3:hr>124</ns3:hr>
          </ns3:TrackPointExtension>
        </extensions>
      </trkpt>
      <trkpt lat="36.81426412425935268402099609375" lon="-118.4337396919727325439453125">
        <ele>3471.39990234375</ele>
        <time>2021-06-26T17:15:26.000Z</time>
        <extensions>
          <ns3:TrackPointExtension>
            <ns3:atemp>27.0</ns3:atemp>
            <ns3:hr>124</ns3:hr>
          </ns3:TrackPointExtension>
        </extensions>
      </trkpt>
      <trkpt lat="36.81426747702062129974365234375" lon="-118.43374614603817462921142578125">
        <ele>3472.39990234375</ele>
        <time>2021-06-26T17:15:30.000Z</time>
        <extensions>
          <ns3:TrackPointExtension>
            <ns3:atemp>27.0</ns3:atemp>
            <ns3:hr>125</ns3:hr>
          </ns3:TrackPointExtension>
        </extensions>
      </trkpt>
      <trkpt lat="36.81424283422529697418212890625" lon="-118.4337552823126316070556640625">
        <ele>3473.199951171875</ele>
        <time>2021-06-26T17:15:35.000Z</time>
        <extensions>
          <ns3:TrackPointExtension>
            <ns3:atemp>27.0</ns3:atemp>
            <ns3:hr>125</ns3:hr>
          </ns3:TrackPointExtension>
        </extensions>
      </trkpt>
      <trkpt lat="36.81425892747938632965087890625" lon="-118.43378369696438312530517578125">
        <ele>3473.60009765625</ele>
        <time>2021-06-26T17:15:38.000Z</time>
        <extensions>
          <ns3:TrackPointExtension>
            <ns3:atemp>27.0</ns3:atemp>
            <ns3:hr>125</ns3:hr>
          </ns3:TrackPointExtension>
        </extensions>
      </trkpt>
      <trkpt lat="36.8142519704997539520263671875" lon="-118.43379979021847248077392578125">
        <ele>3473.60009765625</ele>
        <time>2021-06-26T17:15:42.000Z</time>
        <extensions>
          <ns3:TrackPointExtension>
            <ns3:atemp>27.0</ns3:atemp>
            <ns3:hr>125</ns3:hr>
          </ns3:TrackPointExtension>
        </extensions>
      </trkpt>
      <trkpt lat="36.8142630346119403839111328125" lon="-118.4338357485830783843994140625">
        <ele>3474.60009765625</ele>
        <time>2021-06-26T17:15:49.000Z</time>
        <extensions>
          <ns3:TrackPointExtension>
            <ns3:atemp>27.0</ns3:atemp>
            <ns3:hr>125</ns3:hr>
          </ns3:TrackPointExtension>
        </extensions>
      </trkpt>
      <trkpt lat="36.814274601638317108154296875" lon="-118.4338431246578693389892578125">
        <ele>3474.800048828125</ele>
        <time>2021-06-26T17:15:51.000Z</time>
        <extensions>
          <ns3:TrackPointExtension>
            <ns3:atemp>27.0</ns3:atemp>
            <ns3:hr>126</ns3:hr>
          </ns3:TrackPointExtension>
        </extensions>
      </trkpt>
      <trkpt lat="36.81428273208439350128173828125" lon="-118.43384119682013988494873046875">
        <ele>3475.199951171875</ele>
        <time>2021-06-26T17:15:53.000Z</time>
        <extensions>
          <ns3:TrackPointExtension>
            <ns3:atemp>27.0</ns3:atemp>
            <ns3:hr>129</ns3:hr>
          </ns3:TrackPointExtension>
        </extensions>
      </trkpt>
      <trkpt lat="36.8142851628363132476806640625" lon="-118.4338437952101230621337890625">
        <ele>3475</ele>
        <time>2021-06-26T17:15:59.000Z</time>
        <extensions>
          <ns3:TrackPointExtension>
            <ns3:atemp>27.0</ns3:atemp>
            <ns3:hr>126</ns3:hr>
          </ns3:TrackPointExtension>
        </extensions>
      </trkpt>
      <trkpt lat="36.8142851628363132476806640625" lon="-118.4338437952101230621337890625">
        <ele>3475</ele>
        <time>2021-06-26T17:16:04.000Z</time>
        <extensions>
          <ns3:TrackPointExtension>
            <ns3:atemp>27.0</ns3:atemp>
            <ns3:hr>129</ns3:hr>
          </ns3:TrackPointExtension>
        </extensions>
      </trkpt>
      <trkpt lat="36.8142851628363132476806640625" lon="-118.4338437952101230621337890625">
        <ele>3475.800048828125</ele>
        <time>2021-06-26T17:16:13.000Z</time>
        <extensions>
          <ns3:TrackPointExtension>
            <ns3:atemp>28.0</ns3:atemp>
            <ns3:hr>128</ns3:hr>
          </ns3:TrackPointExtension>
        </extensions>
      </trkpt>
      <trkpt lat="36.81429706513881683349609375" lon="-118.43386349268257617950439453125">
        <ele>3476.800048828125</ele>
        <time>2021-06-26T17:16:22.000Z</time>
        <extensions>
          <ns3:TrackPointExtension>
            <ns3:atemp>28.0</ns3:atemp>
            <ns3:hr>125</ns3:hr>
          </ns3:TrackPointExtension>
        </extensions>
      </trkpt>
      <trkpt lat="36.81431072764098644256591796875" lon="-118.43388612382113933563232421875">
        <ele>3477.199951171875</ele>
        <time>2021-06-26T17:16:26.000Z</time>
        <extensions>
          <ns3:TrackPointExtension>
            <ns3:atemp>28.0</ns3:atemp>
            <ns3:hr>122</ns3:hr>
          </ns3:TrackPointExtension>
        </extensions>
      </trkpt>
      <trkpt lat="36.81432045064866542816162109375" lon="-118.43388780020177364349365234375">
        <ele>3478.199951171875</ele>
        <time>2021-06-26T17:16:30.000Z</time>
        <extensions>
          <ns3:TrackPointExtension>
            <ns3:atemp>28.0</ns3:atemp>
            <ns3:hr>119</ns3:hr>
          </ns3:TrackPointExtension>
        </extensions>
      </trkpt>
      <trkpt lat="36.81435263715684413909912109375" lon="-118.4339368343353271484375">
        <ele>3479.199951171875</ele>
        <time>2021-06-26T17:16:39.000Z</time>
        <extensions>
          <ns3:TrackPointExtension>
            <ns3:atemp>28.0</ns3:atemp>
            <ns3:hr>120</ns3:hr>
          </ns3:TrackPointExtension>
        </extensions>
      </trkpt>
      <trkpt lat="36.81435598991811275482177734375" lon="-118.4339574538171291351318359375">
        <ele>3480.199951171875</ele>
        <time>2021-06-26T17:16:44.000Z</time>
        <extensions>
          <ns3:TrackPointExtension>
            <ns3:atemp>28.0</ns3:atemp>
            <ns3:hr>124</ns3:hr>
          </ns3:TrackPointExtension>
        </extensions>
      </trkpt>
      <trkpt lat="36.81435649283230304718017578125" lon="-118.43396239914000034332275390625">
        <ele>3480.199951171875</ele>
        <time>2021-06-26T17:16:45.000Z</time>
        <extensions>
          <ns3:TrackPointExtension>
            <ns3:atemp>28.0</ns3:atemp>
            <ns3:hr>121</ns3:hr>
          </ns3:TrackPointExtension>
        </extensions>
      </trkpt>
      <trkpt lat="36.81435850448906421661376953125" lon="-118.433967344462871551513671875">
        <ele>3480.39990234375</ele>
        <time>2021-06-26T17:16:46.000Z</time>
        <extensions>
          <ns3:TrackPointExtension>
            <ns3:atemp>28.0</ns3:atemp>
            <ns3:hr>122</ns3:hr>
          </ns3:TrackPointExtension>
        </extensions>
      </trkpt>
      <trkpt lat="36.8143822252750396728515625" lon="-118.4339802525937557220458984375">
        <ele>3480.800048828125</ele>
        <time>2021-06-26T17:16:51.000Z</time>
        <extensions>
          <ns3:TrackPointExtension>
            <ns3:atemp>28.0</ns3:atemp>
            <ns3:hr>125</ns3:hr>
          </ns3:TrackPointExtension>
        </extensions>
      </trkpt>
      <trkpt lat="36.8144025094807147979736328125" lon="-118.43398620374500751495361328125">
        <ele>3481.800048828125</ele>
        <time>2021-06-26T17:16:57.000Z</time>
        <extensions>
          <ns3:TrackPointExtension>
            <ns3:atemp>28.0</ns3:atemp>
            <ns3:hr>126</ns3:hr>
          </ns3:TrackPointExtension>
        </extensions>
      </trkpt>
      <trkpt lat="36.814402677118778228759765625" lon="-118.434014283120632171630859375">
        <ele>3482.39990234375</ele>
        <time>2021-06-26T17:17:03.000Z</time>
        <extensions>
          <ns3:TrackPointExtension>
            <ns3:atemp>28.0</ns3:atemp>
            <ns3:hr>130</ns3:hr>
          </ns3:TrackPointExtension>
        </extensions>
      </trkpt>
      <trkpt lat="36.814412064850330352783203125" lon="-118.43408611603081226348876953125">
        <ele>3481.800048828125</ele>
        <time>2021-06-26T17:17:10.000Z</time>
        <extensions>
          <ns3:TrackPointExtension>
            <ns3:atemp>28.0</ns3:atemp>
            <ns3:hr>128</ns3:hr>
          </ns3:TrackPointExtension>
        </extensions>
      </trkpt>
      <trkpt lat="36.81442136876285076141357421875" lon="-118.43411344103515148162841796875">
        <ele>3482.199951171875</ele>
        <time>2021-06-26T17:17:19.000Z</time>
        <extensions>
          <ns3:TrackPointExtension>
            <ns3:atemp>28.0</ns3:atemp>
            <ns3:hr>125</ns3:hr>
          </ns3:TrackPointExtension>
        </extensions>
      </trkpt>
      <trkpt lat="36.81442136876285076141357421875" lon="-118.43411344103515148162841796875">
        <ele>3482.199951171875</ele>
        <time>2021-06-26T17:17:21.000Z</time>
        <extensions>
          <ns3:TrackPointExtension>
            <ns3:atemp>28.0</ns3:atemp>
            <ns3:hr>125</ns3:hr>
          </ns3:TrackPointExtension>
        </extensions>
      </trkpt>
      <trkpt lat="36.81442136876285076141357421875" lon="-118.43411344103515148162841796875">
        <ele>3482.39990234375</ele>
        <time>2021-06-26T17:17:24.000Z</time>
        <extensions>
          <ns3:TrackPointExtension>
            <ns3:atemp>28.0</ns3:atemp>
            <ns3:hr>121</ns3:hr>
          </ns3:TrackPointExtension>
        </extensions>
      </trkpt>
      <trkpt lat="36.81442136876285076141357421875" lon="-118.43411344103515148162841796875">
        <ele>3482.199951171875</ele>
        <time>2021-06-26T17:17:26.000Z</time>
        <extensions>
          <ns3:TrackPointExtension>
            <ns3:atemp>28.0</ns3:atemp>
            <ns3:hr>118</ns3:hr>
          </ns3:TrackPointExtension>
        </extensions>
      </trkpt>
      <trkpt lat="36.81442136876285076141357421875" lon="-118.43411545269191265106201171875">
        <ele>3482.199951171875</ele>
        <time>2021-06-26T17:17:29.000Z</time>
        <extensions>
          <ns3:TrackPointExtension>
            <ns3:atemp>28.0</ns3:atemp>
            <ns3:hr>113</ns3:hr>
          </ns3:TrackPointExtension>
        </extensions>
      </trkpt>
      <trkpt lat="36.8144246377050876617431640625" lon="-118.43411914072930812835693359375">
        <ele>3482.199951171875</ele>
        <time>2021-06-26T17:17:32.000Z</time>
        <extensions>
          <ns3:TrackPointExtension>
            <ns3:atemp>28.0</ns3:atemp>
            <ns3:hr>117</ns3:hr>
          </ns3:TrackPointExtension>
        </extensions>
      </trkpt>
      <trkpt lat="36.8144256435334682464599609375" lon="-118.43412551097571849822998046875">
        <ele>3482</ele>
        <time>2021-06-26T17:17:34.000Z</time>
        <extensions>
          <ns3:TrackPointExtension>
            <ns3:atemp>28.0</ns3:atemp>
            <ns3:hr>114</ns3:hr>
          </ns3:TrackPointExtension>
        </extensions>
      </trkpt>
      <trkpt lat="36.8144330196082592010498046875" lon="-118.43415342271327972412109375">
        <ele>3481.800048828125</ele>
        <time>2021-06-26T17:17:36.000Z</time>
        <extensions>
          <ns3:TrackPointExtension>
            <ns3:atemp>28.0</ns3:atemp>
            <ns3:hr>109</ns3:hr>
          </ns3:TrackPointExtension>
        </extensions>
      </trkpt>
      <trkpt lat="36.8144340254366397857666015625" lon="-118.43416071496903896331787109375">
        <ele>3481.800048828125</ele>
        <time>2021-06-26T17:17:38.000Z</time>
        <extensions>
          <ns3:TrackPointExtension>
            <ns3:atemp>28.0</ns3:atemp>
            <ns3:hr>106</ns3:hr>
          </ns3:TrackPointExtension>
        </extensions>
      </trkpt>
      <trkpt lat="36.81443494744598865509033203125" lon="-118.43416281044483184814453125">
        <ele>3482.199951171875</ele>
        <time>2021-06-26T17:17:42.000Z</time>
        <extensions>
          <ns3:TrackPointExtension>
            <ns3:atemp>28.0</ns3:atemp>
            <ns3:hr>103</ns3:hr>
          </ns3:TrackPointExtension>
        </extensions>
      </trkpt>
      <trkpt lat="36.81443561799824237823486328125" lon="-118.4341676719486713409423828125">
        <ele>3482</ele>
        <time>2021-06-26T17:17:45.000Z</time>
        <extensions>
          <ns3:TrackPointExtension>
            <ns3:atemp>28.0</ns3:atemp>
            <ns3:hr>100</ns3:hr>
          </ns3:TrackPointExtension>
        </extensions>
      </trkpt>
      <trkpt lat="36.8144357018172740936279296875" lon="-118.4341690130531787872314453125">
        <ele>3482</ele>
        <time>2021-06-26T17:17:50.000Z</time>
        <extensions>
          <ns3:TrackPointExtension>
            <ns3:atemp>28.0</ns3:atemp>
            <ns3:hr>97</ns3:hr>
          </ns3:TrackPointExtension>
        </extensions>
      </trkpt>
      <trkpt lat="36.81443519890308380126953125" lon="-118.4341690130531787872314453125">
        <ele>3481.800048828125</ele>
        <time>2021-06-26T17:17:52.000Z</time>
        <extensions>
          <ns3:TrackPointExtension>
            <ns3:atemp>28.0</ns3:atemp>
            <ns3:hr>93</ns3:hr>
          </ns3:TrackPointExtension>
        </extensions>
      </trkpt>
      <trkpt lat="36.81443343870341777801513671875" lon="-118.434168510138988494873046875">
        <ele>3481.800048828125</ele>
        <time>2021-06-26T17:18:01.000Z</time>
        <extensions>
          <ns3:TrackPointExtension>
            <ns3:atemp>28.0</ns3:atemp>
            <ns3:hr>90</ns3:hr>
          </ns3:TrackPointExtension>
        </extensions>
      </trkpt>
      <trkpt lat="36.8144333548843860626220703125" lon="-118.4341683425009250640869140625">
        <ele>3481.800048828125</ele>
        <time>2021-06-26T17:18:02.000Z</time>
        <extensions>
          <ns3:TrackPointExtension>
            <ns3:atemp>28.0</ns3:atemp>
            <ns3:hr>90</ns3:hr>
          </ns3:TrackPointExtension>
        </extensions>
      </trkpt>
      <trkpt lat="36.814431846141815185546875" lon="-118.43416373245418071746826171875">
        <ele>3481</ele>
        <time>2021-06-26T17:18:17.000Z</time>
        <extensions>
          <ns3:TrackPointExtension>
            <ns3:atemp>29.0</ns3:atemp>
            <ns3:hr>87</ns3:hr>
          </ns3:TrackPointExtension>
        </extensions>
      </trkpt>
      <trkpt lat="36.8144303373992443084716796875" lon="-118.43415199778974056243896484375">
        <ele>3481</ele>
        <time>2021-06-26T17:18:25.000Z</time>
        <extensions>
          <ns3:TrackPointExtension>
            <ns3:atemp>29.0</ns3:atemp>
            <ns3:hr>87</ns3:hr>
          </ns3:TrackPointExtension>
        </extensions>
      </trkpt>
      <trkpt lat="36.8144303373992443084716796875" lon="-118.43414814211428165435791015625">
        <ele>3481</ele>
        <time>2021-06-26T17:18:28.000Z</time>
        <extensions>
          <ns3:TrackPointExtension>
            <ns3:atemp>29.0</ns3:atemp>
            <ns3:hr>90</ns3:hr>
          </ns3:TrackPointExtension>
        </extensions>
      </trkpt>
      <trkpt lat="36.81443125940859317779541015625" lon="-118.434147723019123077392578125">
        <ele>3480.60009765625</ele>
        <time>2021-06-26T17:18:31.000Z</time>
        <extensions>
          <ns3:TrackPointExtension>
            <ns3:atemp>29.0</ns3:atemp>
            <ns3:hr>91</ns3:hr>
          </ns3:TrackPointExtension>
        </extensions>
      </trkpt>
      <trkpt lat="36.8144278228282928466796875" lon="-118.43413959257304668426513671875">
        <ele>3480.800048828125</ele>
        <time>2021-06-26T17:18:54.000Z</time>
        <extensions>
          <ns3:TrackPointExtension>
            <ns3:atemp>29.0</ns3:atemp>
            <ns3:hr>88</ns3:hr>
          </ns3:TrackPointExtension>
        </extensions>
      </trkpt>
      <trkpt lat="36.8144276551902294158935546875" lon="-118.43413573689758777618408203125">
        <ele>3480.800048828125</ele>
        <time>2021-06-26T17:19:00.000Z</time>
        <extensions>
          <ns3:TrackPointExtension>
            <ns3:atemp>29.0</ns3:atemp>
            <ns3:hr>88</ns3:hr>
          </ns3:TrackPointExtension>
        </extensions>
      </trkpt>
      <trkpt lat="36.814428158104419708251953125" lon="-118.4341354854404926300048828125">
        <ele>3480.800048828125</ele>
        <time>2021-06-26T17:19:04.000Z</time>
        <extensions>
          <ns3:TrackPointExtension>
            <ns3:atemp>29.0</ns3:atemp>
            <ns3:hr>92</ns3:hr>
          </ns3:TrackPointExtension>
        </extensions>
      </trkpt>
      <trkpt lat="36.81443125940859317779541015625" lon="-118.434135653078556060791015625">
        <ele>3480.60009765625</ele>
        <time>2021-06-26T17:19:10.000Z</time>
        <extensions>
          <ns3:TrackPointExtension>
            <ns3:atemp>29.0</ns3:atemp>
            <ns3:hr>89</ns3:hr>
          </ns3:TrackPointExtension>
        </extensions>
      </trkpt>
      <trkpt lat="36.8144343607127666473388671875" lon="-118.43413640744984149932861328125">
        <ele>3480.39990234375</ele>
        <time>2021-06-26T17:19:17.000Z</time>
        <extensions>
          <ns3:TrackPointExtension>
            <ns3:atemp>29.0</ns3:atemp>
            <ns3:hr>92</ns3:hr>
          </ns3:TrackPointExtension>
        </extensions>
      </trkpt>
      <trkpt lat="36.81443654000759124755859375" lon="-118.434140682220458984375">
        <ele>3480.39990234375</ele>
        <time>2021-06-26T17:19:28.000Z</time>
        <extensions>
          <ns3:TrackPointExtension>
            <ns3:atemp>30.0</ns3:atemp>
            <ns3:hr>89</ns3:hr>
          </ns3:TrackPointExtension>
        </extensions>
      </trkpt>
      <trkpt lat="36.8144367076456546783447265625" lon="-118.434141688048839569091796875">
        <ele>3480.39990234375</ele>
        <time>2021-06-26T17:19:29.000Z</time>
        <extensions>
          <ns3:TrackPointExtension>
            <ns3:atemp>30.0</ns3:atemp>
            <ns3:hr>85</ns3:hr>
          </ns3:TrackPointExtension>
        </extensions>
      </trkpt>
      <trkpt lat="36.8144390545785427093505859375" lon="-118.4341438673436641693115234375">
        <ele>3480.39990234375</ele>
        <time>2021-06-26T17:19:32.000Z</time>
        <extensions>
          <ns3:TrackPointExtension>
            <ns3:atemp>30.0</ns3:atemp>
            <ns3:hr>82</ns3:hr>
          </ns3:TrackPointExtension>
        </extensions>
      </trkpt>
      <trkpt lat="36.8144400604069232940673828125" lon="-118.4341447055339813232421875">
        <ele>3480.199951171875</ele>
        <time>2021-06-26T17:19:40.000Z</time>
        <extensions>
          <ns3:TrackPointExtension>
            <ns3:atemp>30.0</ns3:atemp>
            <ns3:hr>79</ns3:hr>
          </ns3:TrackPointExtension>
        </extensions>
      </trkpt>
      <trkpt lat="36.8144397251307964324951171875" lon="-118.43414344824850559234619140625">
        <ele>3480</ele>
        <time>2021-06-26T17:19:46.000Z</time>
        <extensions>
          <ns3:TrackPointExtension>
            <ns3:atemp>30.0</ns3:atemp>
            <ns3:hr>82</ns3:hr>
          </ns3:TrackPointExtension>
        </extensions>
      </trkpt>
      <trkpt lat="36.81443880312144756317138671875" lon="-118.43414244242012500762939453125">
        <ele>3480.199951171875</ele>
        <time>2021-06-26T17:19:52.000Z</time>
        <extensions>
          <ns3:TrackPointExtension>
            <ns3:atemp>30.0</ns3:atemp>
            <ns3:hr>86</ns3:hr>
          </ns3:TrackPointExtension>
        </extensions>
      </trkpt>
      <trkpt lat="36.81443830020725727081298828125" lon="-118.4341421909630298614501953125">
        <ele>3480.199951171875</ele>
        <time>2021-06-26T17:19:53.000Z</time>
        <extensions>
          <ns3:TrackPointExtension>
            <ns3:atemp>30.0</ns3:atemp>
            <ns3:hr>83</ns3:hr>
          </ns3:TrackPointExtension>
        </extensions>
      </trkpt>
      <trkpt lat="36.81443494744598865509033203125" lon="-118.4341405145823955535888671875">
        <ele>3480.199951171875</ele>
        <time>2021-06-26T17:19:58.000Z</time>
        <extensions>
          <ns3:TrackPointExtension>
            <ns3:atemp>30.0</ns3:atemp>
            <ns3:hr>79</ns3:hr>
          </ns3:TrackPointExtension>
        </extensions>
      </trkpt>
      <trkpt lat="36.81443310342729091644287109375" lon="-118.4341371618211269378662109375">
        <ele>3480.199951171875</ele>
        <time>2021-06-26T17:20:04.000Z</time>
        <extensions>
          <ns3:TrackPointExtension>
            <ns3:atemp>30.0</ns3:atemp>
            <ns3:hr>79</ns3:hr>
          </ns3:TrackPointExtension>
        </extensions>
      </trkpt>
      <trkpt lat="36.814432181417942047119140625" lon="-118.4341338090598583221435546875">
        <ele>3480.60009765625</ele>
        <time>2021-06-26T17:20:16.000Z</time>
        <extensions>
          <ns3:TrackPointExtension>
            <ns3:atemp>30.0</ns3:atemp>
            <ns3:hr>82</ns3:hr>
          </ns3:TrackPointExtension>
        </extensions>
      </trkpt>
      <trkpt lat="36.81443377397954463958740234375" lon="-118.434135653078556060791015625">
        <ele>3480</ele>
        <time>2021-06-26T17:20:33.000Z</time>
        <extensions>
          <ns3:TrackPointExtension>
            <ns3:atemp>30.0</ns3:atemp>
            <ns3:hr>79</ns3:hr>
          </ns3:TrackPointExtension>
        </extensions>
      </trkpt>
      <trkpt lat="36.81443385779857635498046875" lon="-118.4341358207166194915771484375">
        <ele>3479.800048828125</ele>
        <time>2021-06-26T17:20:40.000Z</time>
        <extensions>
          <ns3:TrackPointExtension>
            <ns3:atemp>30.0</ns3:atemp>
            <ns3:hr>81</ns3:hr>
          </ns3:TrackPointExtension>
        </extensions>
      </trkpt>
      <trkpt lat="36.81443385779857635498046875" lon="-118.4341361559927463531494140625">
        <ele>3480.199951171875</ele>
        <time>2021-06-26T17:20:51.000Z</time>
        <extensions>
          <ns3:TrackPointExtension>
            <ns3:atemp>31.0</ns3:atemp>
            <ns3:hr>84</ns3:hr>
          </ns3:TrackPointExtension>
        </extensions>
      </trkpt>
      <trkpt lat="36.81443385779857635498046875" lon="-118.43413640744984149932861328125">
        <ele>3480.199951171875</ele>
        <time>2021-06-26T17:20:59.000Z</time>
        <extensions>
          <ns3:TrackPointExtension>
            <ns3:atemp>31.0</ns3:atemp>
            <ns3:hr>87</ns3:hr>
          </ns3:TrackPointExtension>
        </extensions>
      </trkpt>
      <trkpt lat="36.81443377397954463958740234375" lon="-118.4341368265450000762939453125">
        <ele>3480.199951171875</ele>
        <time>2021-06-26T17:21:12.000Z</time>
        <extensions>
          <ns3:TrackPointExtension>
            <ns3:atemp>31.0</ns3:atemp>
            <ns3:hr>84</ns3:hr>
          </ns3:TrackPointExtension>
        </extensions>
      </trkpt>
      <trkpt lat="36.8144336901605129241943359375" lon="-118.43413691036403179168701171875">
        <ele>3480.199951171875</ele>
        <time>2021-06-26T17:21:15.000Z</time>
        <extensions>
          <ns3:TrackPointExtension>
            <ns3:atemp>31.0</ns3:atemp>
            <ns3:hr>80</ns3:hr>
          </ns3:TrackPointExtension>
        </extensions>
      </trkpt>
      <trkpt lat="36.81443360634148120880126953125" lon="-118.434136994183063507080078125">
        <ele>3480.199951171875</ele>
        <time>2021-06-26T17:21:18.000Z</time>
        <extensions>
          <ns3:TrackPointExtension>
            <ns3:atemp>31.0</ns3:atemp>
            <ns3:hr>77</ns3:hr>
          </ns3:TrackPointExtension>
        </extensions>
      </trkpt>
      <trkpt lat="36.814432181417942047119140625" lon="-118.43413607217371463775634765625">
        <ele>3480.199951171875</ele>
        <time>2021-06-26T17:21:40.000Z</time>
        <extensions>
          <ns3:TrackPointExtension>
            <ns3:atemp>31.0</ns3:atemp>
            <ns3:hr>80</ns3:hr>
          </ns3:TrackPointExtension>
        </extensions>
      </trkpt>
      <trkpt lat="36.814431510865688323974609375" lon="-118.43413540162146091461181640625">
        <ele>3480.199951171875</ele>
        <time>2021-06-26T17:21:50.000Z</time>
        <extensions>
          <ns3:TrackPointExtension>
            <ns3:atemp>31.0</ns3:atemp>
            <ns3:hr>77</ns3:hr>
          </ns3:TrackPointExtension>
        </extensions>
      </trkpt>
      <trkpt lat="36.81443125940859317779541015625" lon="-118.43413523398339748382568359375">
        <ele>3480.199951171875</ele>
        <time>2021-06-26T17:21:53.000Z</time>
        <extensions>
          <ns3:TrackPointExtension>
            <ns3:atemp>31.0</ns3:atemp>
            <ns3:hr>74</ns3:hr>
          </ns3:TrackPointExtension>
        </extensions>
      </trkpt>
      <trkpt lat="36.81443109177052974700927734375" lon="-118.43413506634533405303955078125">
        <ele>3480.199951171875</ele>
        <time>2021-06-26T17:21:56.000Z</time>
        <extensions>
          <ns3:TrackPointExtension>
            <ns3:atemp>31.0</ns3:atemp>
            <ns3:hr>71</ns3:hr>
          </ns3:TrackPointExtension>
        </extensions>
      </trkpt>
      <trkpt lat="36.8144303373992443084716796875" lon="-118.434134311974048614501953125">
        <ele>3480.199951171875</ele>
        <time>2021-06-26T17:22:11.000Z</time>
        <extensions>
          <ns3:TrackPointExtension>
            <ns3:atemp>31.0</ns3:atemp>
            <ns3:hr>74</ns3:hr>
          </ns3:TrackPointExtension>
        </extensions>
      </trkpt>
      <trkpt lat="36.81443025358021259307861328125" lon="-118.43413422815501689910888671875">
        <ele>3480.199951171875</ele>
        <time>2021-06-26T17:22:13.000Z</time>
        <extensions>
          <ns3:TrackPointExtension>
            <ns3:atemp>31.0</ns3:atemp>
            <ns3:hr>77</ns3:hr>
          </ns3:TrackPointExtension>
        </extensions>
      </trkpt>
      <trkpt lat="36.81443008594214916229248046875" lon="-118.4341341443359851837158203125">
        <ele>3480.199951171875</ele>
        <time>2021-06-26T17:22:15.000Z</time>
        <extensions>
          <ns3:TrackPointExtension>
            <ns3:atemp>31.0</ns3:atemp>
            <ns3:hr>80</ns3:hr>
          </ns3:TrackPointExtension>
        </extensions>
      </trkpt>
      <trkpt lat="36.81442849338054656982421875" lon="-118.43414001166820526123046875">
        <ele>3480.199951171875</ele>
        <time>2021-06-26T17:22:25.000Z</time>
        <extensions>
          <ns3:TrackPointExtension>
            <ns3:atemp>31.0</ns3:atemp>
            <ns3:hr>77</ns3:hr>
          </ns3:TrackPointExtension>
        </extensions>
      </trkpt>
      <trkpt lat="36.8144283257424831390380859375" lon="-118.43417127616703510284423828125">
        <ele>3480.199951171875</ele>
        <time>2021-06-26T17:22:27.000Z</time>
        <extensions>
          <ns3:TrackPointExtension>
            <ns3:atemp>31.0</ns3:atemp>
            <ns3:hr>80</ns3:hr>
          </ns3:TrackPointExtension>
        </extensions>
      </trkpt>
      <trkpt lat="36.8144246377050876617431640625" lon="-118.4342010319232940673828125">
        <ele>3480.199951171875</ele>
        <time>2021-06-26T17:22:29.000Z</time>
        <extensions>
          <ns3:TrackPointExtension>
            <ns3:atemp>31.0</ns3:atemp>
            <ns3:hr>79</ns3:hr>
          </ns3:TrackPointExtension>
        </extensions>
      </trkpt>
      <trkpt lat="36.814434863626956939697265625" lon="-118.43425543047487735748291015625">
        <ele>3480.199951171875</ele>
        <time>2021-06-26T17:22:33.000Z</time>
        <extensions>
          <ns3:TrackPointExtension>
            <ns3:atemp>31.0</ns3:atemp>
            <ns3:hr>82</ns3:hr>
          </ns3:TrackPointExtension>
        </extensions>
      </trkpt>
      <trkpt lat="36.8144249729812145233154296875" lon="-118.43426180072128772735595703125">
        <ele>3480.199951171875</ele>
        <time>2021-06-26T17:22:35.000Z</time>
        <extensions>
          <ns3:TrackPointExtension>
            <ns3:atemp>31.0</ns3:atemp>
            <ns3:hr>79</ns3:hr>
          </ns3:TrackPointExtension>
        </extensions>
      </trkpt>
      <trkpt lat="36.81441516615450382232666015625" lon="-118.434271775186061859130859375">
        <ele>3480.199951171875</ele>
        <time>2021-06-26T17:22:37.000Z</time>
        <extensions>
          <ns3:TrackPointExtension>
            <ns3:atemp>31.0</ns3:atemp>
            <ns3:hr>79</ns3:hr>
          </ns3:TrackPointExtension>
        </extensions>
      </trkpt>
      <trkpt lat="36.8144585005939006805419921875" lon="-118.4343571029603481292724609375">
        <ele>3481.39990234375</ele>
        <time>2021-06-26T17:22:47.000Z</time>
        <extensions>
          <ns3:TrackPointExtension>
            <ns3:atemp>31.0</ns3:atemp>
            <ns3:hr>79</ns3:hr>
          </ns3:TrackPointExtension>
        </extensions>
      </trkpt>
      <trkpt lat="36.814461685717105865478515625" lon="-118.43436741270124912261962890625">
        <ele>3481.800048828125</ele>
        <time>2021-06-26T17:22:48.000Z</time>
        <extensions>
          <ns3:TrackPointExtension>
            <ns3:atemp>31.0</ns3:atemp>
            <ns3:hr>79</ns3:hr>
          </ns3:TrackPointExtension>
        </extensions>
      </trkpt>
      <trkpt lat="36.81448481976985931396484375" lon="-118.43440345488488674163818359375">
        <ele>3482.800048828125</ele>
        <time>2021-06-26T17:22:52.000Z</time>
        <extensions>
          <ns3:TrackPointExtension>
            <ns3:atemp>31.0</ns3:atemp>
            <ns3:hr>82</ns3:hr>
          </ns3:TrackPointExtension>
        </extensions>
      </trkpt>
      <trkpt lat="36.81449286639690399169921875" lon="-118.43441451899707317352294921875">
        <ele>3482.800048828125</ele>
        <time>2021-06-26T17:22:53.000Z</time>
        <extensions>
          <ns3:TrackPointExtension>
            <ns3:atemp>31.0</ns3:atemp>
            <ns3:hr>83</ns3:hr>
          </ns3:TrackPointExtension>
        </extensions>
      </trkpt>
      <trkpt lat="36.8144930340349674224853515625" lon="-118.434434719383716583251953125">
        <ele>3482.800048828125</ele>
        <time>2021-06-26T17:22:56.000Z</time>
        <extensions>
          <ns3:TrackPointExtension>
            <ns3:atemp>31.0</ns3:atemp>
            <ns3:hr>86</ns3:hr>
          </ns3:TrackPointExtension>
        </extensions>
      </trkpt>
      <trkpt lat="36.814491860568523406982421875" lon="-118.43444100581109523773193359375">
        <ele>3482.800048828125</ele>
        <time>2021-06-26T17:22:57.000Z</time>
        <extensions>
          <ns3:TrackPointExtension>
            <ns3:atemp>31.0</ns3:atemp>
            <ns3:hr>88</ns3:hr>
          </ns3:TrackPointExtension>
        </extensions>
      </trkpt>
      <trkpt lat="36.81449227966368198394775390625" lon="-118.43446648679673671722412109375">
        <ele>3483</ele>
        <time>2021-06-26T17:23:00.000Z</time>
        <extensions>
          <ns3:TrackPointExtension>
            <ns3:atemp>31.0</ns3:atemp>
            <ns3:hr>91</ns3:hr>
          </ns3:TrackPointExtension>
        </extensions>
      </trkpt>
      <trkpt lat="36.81452664546668529510498046875" lon="-118.4345029480755329132080078125">
        <ele>3483.39990234375</ele>
        <time>2021-06-26T17:23:03.000Z</time>
        <extensions>
          <ns3:TrackPointExtension>
            <ns3:atemp>31.0</ns3:atemp>
            <ns3:hr>94</ns3:hr>
          </ns3:TrackPointExtension>
        </extensions>
      </trkpt>
      <trkpt lat="36.81453578174114227294921875" lon="-118.43450839631259441375732421875">
        <ele>3483.60009765625</ele>
        <time>2021-06-26T17:23:04.000Z</time>
        <extensions>
          <ns3:TrackPointExtension>
            <ns3:atemp>31.0</ns3:atemp>
            <ns3:hr>95</ns3:hr>
          </ns3:TrackPointExtension>
        </extensions>
      </trkpt>
      <trkpt lat="36.81454382836818695068359375" lon="-118.4345202147960662841796875">
        <ele>3484.199951171875</ele>
        <time>2021-06-26T17:23:06.000Z</time>
        <extensions>
          <ns3:TrackPointExtension>
            <ns3:atemp>31.0</ns3:atemp>
            <ns3:hr>97</ns3:hr>
          </ns3:TrackPointExtension>
        </extensions>
      </trkpt>
      <trkpt lat="36.81457241065800189971923828125" lon="-118.43457075767219066619873046875">
        <ele>3483.60009765625</ele>
        <time>2021-06-26T17:23:12.000Z</time>
        <extensions>
          <ns3:TrackPointExtension>
            <ns3:atemp>31.0</ns3:atemp>
            <ns3:hr>98</ns3:hr>
          </ns3:TrackPointExtension>
        </extensions>
      </trkpt>
      <trkpt lat="36.8145788647234439849853515625" lon="-118.4345820732414722442626953125">
        <ele>3483.199951171875</ele>
        <time>2021-06-26T17:23:14.000Z</time>
        <extensions>
          <ns3:TrackPointExtension>
            <ns3:atemp>31.0</ns3:atemp>
            <ns3:hr>101</ns3:hr>
          </ns3:TrackPointExtension>
        </extensions>
      </trkpt>
      <trkpt lat="36.81458464823663234710693359375" lon="-118.434594981372356414794921875">
        <ele>3483</ele>
        <time>2021-06-26T17:23:15.000Z</time>
        <extensions>
          <ns3:TrackPointExtension>
            <ns3:atemp>31.0</ns3:atemp>
            <ns3:hr>101</ns3:hr>
          </ns3:TrackPointExtension>
        </extensions>
      </trkpt>
      <trkpt lat="36.8145791999995708465576171875" lon="-118.43465709127485752105712890625">
        <ele>3483.199951171875</ele>
        <time>2021-06-26T17:23:23.000Z</time>
        <extensions>
          <ns3:TrackPointExtension>
            <ns3:atemp>31.0</ns3:atemp>
            <ns3:hr>101</ns3:hr>
          </ns3:TrackPointExtension>
        </extensions>
      </trkpt>
      <trkpt lat="36.814597137272357940673828125" lon="-118.43470335938036441802978515625">
        <ele>3483.39990234375</ele>
        <time>2021-06-26T17:23:29.000Z</time>
        <extensions>
          <ns3:TrackPointExtension>
            <ns3:atemp>31.0</ns3:atemp>
            <ns3:hr>96</ns3:hr>
          </ns3:TrackPointExtension>
        </extensions>
      </trkpt>
      <trkpt lat="36.8146107159554958343505859375" lon="-118.43471593223512172698974609375">
        <ele>3483.199951171875</ele>
        <time>2021-06-26T17:23:30.000Z</time>
        <extensions>
          <ns3:TrackPointExtension>
            <ns3:atemp>31.0</ns3:atemp>
            <ns3:hr>97</ns3:hr>
          </ns3:TrackPointExtension>
        </extensions>
      </trkpt>
      <trkpt lat="36.8146211095154285430908203125" lon="-118.43472364358603954315185546875">
        <ele>3483.39990234375</ele>
        <time>2021-06-26T17:23:33.000Z</time>
        <extensions>
          <ns3:TrackPointExtension>
            <ns3:atemp>31.0</ns3:atemp>
            <ns3:hr>96</ns3:hr>
          </ns3:TrackPointExtension>
        </extensions>
      </trkpt>
      <trkpt lat="36.81461834348738193511962890625" lon="-118.43472800217568874359130859375">
        <ele>3483.199951171875</ele>
        <time>2021-06-26T17:23:36.000Z</time>
        <extensions>
          <ns3:TrackPointExtension>
            <ns3:atemp>31.0</ns3:atemp>
            <ns3:hr>96</ns3:hr>
          </ns3:TrackPointExtension>
        </extensions>
      </trkpt>
      <trkpt lat="36.81463091634213924407958984375" lon="-118.43476320616900920867919921875">
        <ele>3483.60009765625</ele>
        <time>2021-06-26T17:23:40.000Z</time>
        <extensions>
          <ns3:TrackPointExtension>
            <ns3:atemp>31.0</ns3:atemp>
            <ns3:hr>93</ns3:hr>
          </ns3:TrackPointExtension>
        </extensions>
      </trkpt>
      <trkpt lat="36.81463276036083698272705078125" lon="-118.43477292917668819427490234375">
        <ele>3483.800048828125</ele>
        <time>2021-06-26T17:23:41.000Z</time>
        <extensions>
          <ns3:TrackPointExtension>
            <ns3:atemp>31.0</ns3:atemp>
            <ns3:hr>91</ns3:hr>
          </ns3:TrackPointExtension>
        </extensions>
      </trkpt>
      <trkpt lat="36.814650781452655792236328125" lon="-118.4348154254257678985595703125">
        <ele>3484</ele>
        <time>2021-06-26T17:23:45.000Z</time>
        <extensions>
          <ns3:TrackPointExtension>
            <ns3:atemp>31.0</ns3:atemp>
            <ns3:hr>90</ns3:hr>
          </ns3:TrackPointExtension>
        </extensions>
      </trkpt>
      <trkpt lat="36.8146643601357936859130859375" lon="-118.43483009375631809234619140625">
        <ele>3484.199951171875</ele>
        <time>2021-06-26T17:23:47.000Z</time>
        <extensions>
          <ns3:TrackPointExtension>
            <ns3:atemp>31.0</ns3:atemp>
            <ns3:hr>91</ns3:hr>
          </ns3:TrackPointExtension>
        </extensions>
      </trkpt>
      <trkpt lat="36.8146987259387969970703125" lon="-118.43488030135631561279296875">
        <ele>3485</ele>
        <time>2021-06-26T17:23:52.000Z</time>
        <extensions>
          <ns3:TrackPointExtension>
            <ns3:atemp>31.0</ns3:atemp>
            <ns3:hr>92</ns3:hr>
          </ns3:TrackPointExtension>
        </extensions>
      </trkpt>
      <trkpt lat="36.81471641175448894500732421875" lon="-118.43490988947451114654541015625">
        <ele>3485.39990234375</ele>
        <time>2021-06-26T17:23:56.000Z</time>
        <extensions>
          <ns3:TrackPointExtension>
            <ns3:atemp>31.0</ns3:atemp>
            <ns3:hr>93</ns3:hr>
          </ns3:TrackPointExtension>
        </extensions>
      </trkpt>
      <trkpt lat="36.81474792771041393280029296875" lon="-118.43495146371424198150634765625">
        <ele>3485.800048828125</ele>
        <time>2021-06-26T17:24:02.000Z</time>
        <extensions>
          <ns3:TrackPointExtension>
            <ns3:atemp>30.0</ns3:atemp>
            <ns3:hr>91</ns3:hr>
          </ns3:TrackPointExtension>
        </extensions>
      </trkpt>
      <trkpt lat="36.814754046499729156494140625" lon="-118.4349746815860271453857421875">
        <ele>3485.800048828125</ele>
        <time>2021-06-26T17:24:04.000Z</time>
        <extensions>
          <ns3:TrackPointExtension>
            <ns3:atemp>30.0</ns3:atemp>
            <ns3:hr>91</ns3:hr>
          </ns3:TrackPointExtension>
        </extensions>
      </trkpt>
      <trkpt lat="36.81475128047168254852294921875" lon="-118.4349746815860271453857421875">
        <ele>3486.199951171875</ele>
        <time>2021-06-26T17:24:05.000Z</time>
        <extensions>
          <ns3:TrackPointExtension>
            <ns3:atemp>30.0</ns3:atemp>
            <ns3:hr>92</ns3:hr>
          </ns3:TrackPointExtension>
        </extensions>
      </trkpt>
      <trkpt lat="36.81475530378520488739013671875" lon="-118.43501013703644275665283203125">
        <ele>3487.199951171875</ele>
        <time>2021-06-26T17:24:11.000Z</time>
        <extensions>
          <ns3:TrackPointExtension>
            <ns3:atemp>30.0</ns3:atemp>
            <ns3:hr>90</ns3:hr>
          </ns3:TrackPointExtension>
        </extensions>
      </trkpt>
      <trkpt lat="36.81475329212844371795654296875" lon="-118.43501617200672626495361328125">
        <ele>3487.39990234375</ele>
        <time>2021-06-26T17:24:12.000Z</time>
        <extensions>
          <ns3:TrackPointExtension>
            <ns3:atemp>30.0</ns3:atemp>
            <ns3:hr>90</ns3:hr>
          </ns3:TrackPointExtension>
        </extensions>
      </trkpt>
      <trkpt lat="36.8147377856075763702392578125" lon="-118.4350631944835186004638671875">
        <ele>3488.39990234375</ele>
        <time>2021-06-26T17:24:19.000Z</time>
        <extensions>
          <ns3:TrackPointExtension>
            <ns3:atemp>30.0</ns3:atemp>
            <ns3:hr>92</ns3:hr>
          </ns3:TrackPointExtension>
        </extensions>
      </trkpt>
      <trkpt lat="36.81473870761692523956298828125" lon="-118.43508406542241573333740234375">
        <ele>3488.800048828125</ele>
        <time>2021-06-26T17:24:22.000Z</time>
        <extensions>
          <ns3:TrackPointExtension>
            <ns3:atemp>30.0</ns3:atemp>
            <ns3:hr>92</ns3:hr>
          </ns3:TrackPointExtension>
        </extensions>
      </trkpt>
      <trkpt lat="36.8147384561598300933837890625" lon="-118.43511692248284816741943359375">
        <ele>3489.60009765625</ele>
        <time>2021-06-26T17:24:27.000Z</time>
        <extensions>
          <ns3:TrackPointExtension>
            <ns3:atemp>30.0</ns3:atemp>
            <ns3:hr>93</ns3:hr>
          </ns3:TrackPointExtension>
        </extensions>
      </trkpt>
      <trkpt lat="36.8147408030927181243896484375" lon="-118.43513988889753818511962890625">
        <ele>3489.60009765625</ele>
        <time>2021-06-26T17:24:29.000Z</time>
        <extensions>
          <ns3:TrackPointExtension>
            <ns3:atemp>30.0</ns3:atemp>
            <ns3:hr>92</ns3:hr>
          </ns3:TrackPointExtension>
        </extensions>
      </trkpt>
      <trkpt lat="36.81474306620657444000244140625" lon="-118.43516687862575054168701171875">
        <ele>3489.60009765625</ele>
        <time>2021-06-26T17:24:31.000Z</time>
        <extensions>
          <ns3:TrackPointExtension>
            <ns3:atemp>30.0</ns3:atemp>
            <ns3:hr>92</ns3:hr>
          </ns3:TrackPointExtension>
        </extensions>
      </trkpt>
      <trkpt lat="36.81474038399755954742431640625" lon="-118.4351813793182373046875">
        <ele>3489.60009765625</ele>
        <time>2021-06-26T17:24:33.000Z</time>
        <extensions>
          <ns3:TrackPointExtension>
            <ns3:atemp>30.0</ns3:atemp>
            <ns3:hr>89</ns3:hr>
          </ns3:TrackPointExtension>
        </extensions>
      </trkpt>
      <trkpt lat="36.8147470057010650634765625" lon="-118.435197137296199798583984375">
        <ele>3489.60009765625</ele>
        <time>2021-06-26T17:24:34.000Z</time>
        <extensions>
          <ns3:TrackPointExtension>
            <ns3:atemp>30.0</ns3:atemp>
            <ns3:hr>94</ns3:hr>
          </ns3:TrackPointExtension>
        </extensions>
      </trkpt>
      <trkpt lat="36.8147550523281097412109375" lon="-118.43522991053760051727294921875">
        <ele>3490.60009765625</ele>
        <time>2021-06-26T17:24:38.000Z</time>
        <extensions>
          <ns3:TrackPointExtension>
            <ns3:atemp>30.0</ns3:atemp>
            <ns3:hr>92</ns3:hr>
          </ns3:TrackPointExtension>
        </extensions>
      </trkpt>
      <trkpt lat="36.81474876590073108673095703125" lon="-118.4352425672113895416259765625">
        <ele>3490.60009765625</ele>
        <time>2021-06-26T17:24:40.000Z</time>
        <extensions>
          <ns3:TrackPointExtension>
            <ns3:atemp>30.0</ns3:atemp>
            <ns3:hr>94</ns3:hr>
          </ns3:TrackPointExtension>
        </extensions>
      </trkpt>
      <trkpt lat="36.8147532083094120025634765625" lon="-118.435287661850452423095703125">
        <ele>3490.800048828125</ele>
        <time>2021-06-26T17:24:45.000Z</time>
        <extensions>
          <ns3:TrackPointExtension>
            <ns3:atemp>30.0</ns3:atemp>
            <ns3:hr>93</ns3:hr>
          </ns3:TrackPointExtension>
        </extensions>
      </trkpt>
      <trkpt lat="36.81476200930774211883544921875" lon="-118.43534625135362148284912109375">
        <ele>3491.800048828125</ele>
        <time>2021-06-26T17:24:52.000Z</time>
        <extensions>
          <ns3:TrackPointExtension>
            <ns3:atemp>30.0</ns3:atemp>
            <ns3:hr>92</ns3:hr>
          </ns3:TrackPointExtension>
        </extensions>
      </trkpt>
      <trkpt lat="36.8147699721157550811767578125" lon="-118.43535698018968105316162109375">
        <ele>3492.199951171875</ele>
        <time>2021-06-26T17:24:54.000Z</time>
        <extensions>
          <ns3:TrackPointExtension>
            <ns3:atemp>30.0</ns3:atemp>
            <ns3:hr>92</ns3:hr>
          </ns3:TrackPointExtension>
        </extensions>
      </trkpt>
      <trkpt lat="36.81478120386600494384765625" lon="-118.43537961132824420928955078125">
        <ele>3493</ele>
        <time>2021-06-26T17:24:59.000Z</time>
        <extensions>
          <ns3:TrackPointExtension>
            <ns3:atemp>30.0</ns3:atemp>
            <ns3:hr>94</ns3:hr>
          </ns3:TrackPointExtension>
        </extensions>
      </trkpt>
      <trkpt lat="36.81478262878954410552978515625" lon="-118.43538547866046428680419921875">
        <ele>3493.199951171875</ele>
        <time>2021-06-26T17:25:00.000Z</time>
        <extensions>
          <ns3:TrackPointExtension>
            <ns3:atemp>30.0</ns3:atemp>
            <ns3:hr>92</ns3:hr>
          </ns3:TrackPointExtension>
        </extensions>
      </trkpt>
      <trkpt lat="36.814795620739459991455078125" lon="-118.4354145638644695281982421875">
        <ele>3494.39990234375</ele>
        <time>2021-06-26T17:25:06.000Z</time>
        <extensions>
          <ns3:TrackPointExtension>
            <ns3:atemp>30.0</ns3:atemp>
            <ns3:hr>92</ns3:hr>
          </ns3:TrackPointExtension>
        </extensions>
      </trkpt>
      <trkpt lat="36.81480132043361663818359375" lon="-118.43542638234794139862060546875">
        <ele>3495.199951171875</ele>
        <time>2021-06-26T17:25:09.000Z</time>
        <extensions>
          <ns3:TrackPointExtension>
            <ns3:atemp>30.0</ns3:atemp>
            <ns3:hr>94</ns3:hr>
          </ns3:TrackPointExtension>
        </extensions>
      </trkpt>
      <trkpt lat="36.81480106897652149200439453125" lon="-118.43543174676597118377685546875">
        <ele>3495.60009765625</ele>
        <time>2021-06-26T17:25:11.000Z</time>
        <extensions>
          <ns3:TrackPointExtension>
            <ns3:atemp>30.0</ns3:atemp>
            <ns3:hr>94</ns3:hr>
          </ns3:TrackPointExtension>
        </extensions>
      </trkpt>
      <trkpt lat="36.8147978000342845916748046875" lon="-118.43543417751789093017578125">
        <ele>3495.60009765625</ele>
        <time>2021-06-26T17:25:12.000Z</time>
        <extensions>
          <ns3:TrackPointExtension>
            <ns3:atemp>30.0</ns3:atemp>
            <ns3:hr>98</ns3:hr>
          </ns3:TrackPointExtension>
        </extensions>
      </trkpt>
      <trkpt lat="36.8147926032543182373046875" lon="-118.43544381670653820037841796875">
        <ele>3496</ele>
        <time>2021-06-26T17:25:14.000Z</time>
        <extensions>
          <ns3:TrackPointExtension>
            <ns3:atemp>30.0</ns3:atemp>
            <ns3:hr>101</ns3:hr>
          </ns3:TrackPointExtension>
        </extensions>
      </trkpt>
      <trkpt lat="36.81480978615581989288330078125" lon="-118.43548002652823925018310546875">
        <ele>3496.60009765625</ele>
        <time>2021-06-26T17:25:16.000Z</time>
        <extensions>
          <ns3:TrackPointExtension>
            <ns3:atemp>29.0</ns3:atemp>
            <ns3:hr>104</ns3:hr>
          </ns3:TrackPointExtension>
        </extensions>
      </trkpt>
      <trkpt lat="36.81483694352209568023681640625" lon="-118.435507602989673614501953125">
        <ele>3497</ele>
        <time>2021-06-26T17:25:20.000Z</time>
        <extensions>
          <ns3:TrackPointExtension>
            <ns3:atemp>29.0</ns3:atemp>
            <ns3:hr>109</ns3:hr>
          </ns3:TrackPointExtension>
        </extensions>
      </trkpt>
      <trkpt lat="36.81484348140656948089599609375" lon="-118.43551330268383026123046875">
        <ele>3497</ele>
        <time>2021-06-26T17:25:21.000Z</time>
        <extensions>
          <ns3:TrackPointExtension>
            <ns3:atemp>29.0</ns3:atemp>
            <ns3:hr>106</ns3:hr>
          </ns3:TrackPointExtension>
        </extensions>
      </trkpt>
      <trkpt lat="36.8148454092442989349365234375" lon="-118.4355245344340801239013671875">
        <ele>3497.39990234375</ele>
        <time>2021-06-26T17:25:23.000Z</time>
        <extensions>
          <ns3:TrackPointExtension>
            <ns3:atemp>29.0</ns3:atemp>
            <ns3:hr>105</ns3:hr>
          </ns3:TrackPointExtension>
        </extensions>
      </trkpt>
      <trkpt lat="36.81485353969037532806396484375" lon="-118.43553015030920505523681640625">
        <ele>3497.60009765625</ele>
        <time>2021-06-26T17:25:26.000Z</time>
        <extensions>
          <ns3:TrackPointExtension>
            <ns3:atemp>29.0</ns3:atemp>
            <ns3:hr>106</ns3:hr>
          </ns3:TrackPointExtension>
        </extensions>
      </trkpt>
      <trkpt lat="36.81487097404897212982177734375" lon="-118.4355367720127105712890625">
        <ele>3498.39990234375</ele>
        <time>2021-06-26T17:25:30.000Z</time>
        <extensions>
          <ns3:TrackPointExtension>
            <ns3:atemp>29.0</ns3:atemp>
            <ns3:hr>102</ns3:hr>
          </ns3:TrackPointExtension>
        </extensions>
      </trkpt>
      <trkpt lat="36.81487374007701873779296875" lon="-118.435534425079822540283203125">
        <ele>3498.800048828125</ele>
        <time>2021-06-26T17:25:32.000Z</time>
        <extensions>
          <ns3:TrackPointExtension>
            <ns3:atemp>29.0</ns3:atemp>
            <ns3:hr>101</ns3:hr>
          </ns3:TrackPointExtension>
        </extensions>
      </trkpt>
      <trkpt lat="36.81485236622393131256103515625" lon="-118.435527384281158447265625">
        <ele>3499.800048828125</ele>
        <time>2021-06-26T17:25:39.000Z</time>
        <extensions>
          <ns3:TrackPointExtension>
            <ns3:atemp>29.0</ns3:atemp>
            <ns3:hr>102</ns3:hr>
          </ns3:TrackPointExtension>
        </extensions>
      </trkpt>
      <trkpt lat="36.81485035456717014312744140625" lon="-118.43553341925144195556640625">
        <ele>3500.39990234375</ele>
        <time>2021-06-26T17:25:40.000Z</time>
        <extensions>
          <ns3:TrackPointExtension>
            <ns3:atemp>29.0</ns3:atemp>
            <ns3:hr>102</ns3:hr>
          </ns3:TrackPointExtension>
        </extensions>
      </trkpt>
      <trkpt lat="36.81483694352209568023681640625" lon="-118.4355459921061992645263671875">
        <ele>3500.800048828125</ele>
        <time>2021-06-26T17:25:43.000Z</time>
        <extensions>
          <ns3:TrackPointExtension>
            <ns3:atemp>29.0</ns3:atemp>
            <ns3:hr>105</ns3:hr>
          </ns3:TrackPointExtension>
        </extensions>
      </trkpt>
      <trkpt lat="36.81482219137251377105712890625" lon="-118.43555127270519733428955078125">
        <ele>3501.39990234375</ele>
        <time>2021-06-26T17:25:48.000Z</time>
        <extensions>
          <ns3:TrackPointExtension>
            <ns3:atemp>29.0</ns3:atemp>
            <ns3:hr>106</ns3:hr>
          </ns3:TrackPointExtension>
        </extensions>
      </trkpt>
      <trkpt lat="36.81481741368770599365234375" lon="-118.43555429019033908843994140625">
        <ele>3501.60009765625</ele>
        <time>2021-06-26T17:25:49.000Z</time>
        <extensions>
          <ns3:TrackPointExtension>
            <ns3:atemp>29.0</ns3:atemp>
            <ns3:hr>110</ns3:hr>
          </ns3:TrackPointExtension>
        </extensions>
      </trkpt>
      <trkpt lat="36.81479520164430141448974609375" lon="-118.4355448186397552490234375">
        <ele>3502</ele>
        <time>2021-06-26T17:25:52.000Z</time>
        <extensions>
          <ns3:TrackPointExtension>
            <ns3:atemp>29.0</ns3:atemp>
            <ns3:hr>106</ns3:hr>
          </ns3:TrackPointExtension>
        </extensions>
      </trkpt>
      <trkpt lat="36.81476083584129810333251953125" lon="-118.43553568236529827117919921875">
        <ele>3502.800048828125</ele>
        <time>2021-06-26T17:25:55.000Z</time>
        <extensions>
          <ns3:TrackPointExtension>
            <ns3:atemp>29.0</ns3:atemp>
            <ns3:hr>106</ns3:hr>
          </ns3:TrackPointExtension>
        </extensions>
      </trkpt>
      <trkpt lat="36.81476469151675701141357421875" lon="-118.435552529990673065185546875">
        <ele>3503.39990234375</ele>
        <time>2021-06-26T17:25:59.000Z</time>
        <extensions>
          <ns3:TrackPointExtension>
            <ns3:atemp>29.0</ns3:atemp>
            <ns3:hr>106</ns3:hr>
          </ns3:TrackPointExtension>
        </extensions>
      </trkpt>
      <trkpt lat="36.81478380225598812103271484375" lon="-118.43556133098900318145751953125">
        <ele>3503.39990234375</ele>
        <time>2021-06-26T17:26:02.000Z</time>
        <extensions>
          <ns3:TrackPointExtension>
            <ns3:atemp>29.0</ns3:atemp>
            <ns3:hr>110</ns3:hr>
          </ns3:TrackPointExtension>
        </extensions>
      </trkpt>
      <trkpt lat="36.81480408646166324615478515625" lon="-118.4355791844427585601806640625">
        <ele>3503.800048828125</ele>
        <time>2021-06-26T17:26:05.000Z</time>
        <extensions>
          <ns3:TrackPointExtension>
            <ns3:atemp>29.0</ns3:atemp>
            <ns3:hr>112</ns3:hr>
          </ns3:TrackPointExtension>
        </extensions>
      </trkpt>
      <trkpt lat="36.81481095962226390838623046875" lon="-118.435583375394344329833984375">
        <ele>3504</ele>
        <time>2021-06-26T17:26:06.000Z</time>
        <extensions>
          <ns3:TrackPointExtension>
            <ns3:atemp>29.0</ns3:atemp>
            <ns3:hr>112</ns3:hr>
          </ns3:TrackPointExtension>
        </extensions>
      </trkpt>
      <trkpt lat="36.814860664308071136474609375" lon="-118.4356093592941761016845703125">
        <ele>3505.199951171875</ele>
        <time>2021-06-26T17:26:13.000Z</time>
        <extensions>
          <ns3:TrackPointExtension>
            <ns3:atemp>29.0</ns3:atemp>
            <ns3:hr>111</ns3:hr>
          </ns3:TrackPointExtension>
        </extensions>
      </trkpt>
      <trkpt lat="36.81488446891307830810546875" lon="-118.435639701783657073974609375">
        <ele>3506.199951171875</ele>
        <time>2021-06-26T17:26:21.000Z</time>
        <extensions>
          <ns3:TrackPointExtension>
            <ns3:atemp>29.0</ns3:atemp>
            <ns3:hr>111</ns3:hr>
          </ns3:TrackPointExtension>
        </extensions>
      </trkpt>
      <trkpt lat="36.8148826248943805694580078125" lon="-118.43564699403941631317138671875">
        <ele>3506.199951171875</ele>
        <time>2021-06-26T17:26:22.000Z</time>
        <extensions>
          <ns3:TrackPointExtension>
            <ns3:atemp>29.0</ns3:atemp>
            <ns3:hr>110</ns3:hr>
          </ns3:TrackPointExtension>
        </extensions>
      </trkpt>
      <trkpt lat="36.81490458548069000244140625" lon="-118.43568035401403903961181640625">
        <ele>3507.39990234375</ele>
        <time>2021-06-26T17:26:27.000Z</time>
        <extensions>
          <ns3:TrackPointExtension>
            <ns3:atemp>29.0</ns3:atemp>
            <ns3:hr>108</ns3:hr>
          </ns3:TrackPointExtension>
        </extensions>
      </trkpt>
      <trkpt lat="36.8149074353277683258056640625" lon="-118.43569175340235233306884765625">
        <ele>3507.60009765625</ele>
        <time>2021-06-26T17:26:29.000Z</time>
        <extensions>
          <ns3:TrackPointExtension>
            <ns3:atemp>29.0</ns3:atemp>
            <ns3:hr>105</ns3:hr>
          </ns3:TrackPointExtension>
        </extensions>
      </trkpt>
      <trkpt lat="36.8149077706038951873779296875" lon="-118.4356945194303989410400390625">
        <ele>3507.60009765625</ele>
        <time>2021-06-26T17:26:30.000Z</time>
        <extensions>
          <ns3:TrackPointExtension>
            <ns3:atemp>29.0</ns3:atemp>
            <ns3:hr>105</ns3:hr>
          </ns3:TrackPointExtension>
        </extensions>
      </trkpt>
      <trkpt lat="36.81492126546800136566162109375" lon="-118.43570164404809474945068359375">
        <ele>3508.39990234375</ele>
        <time>2021-06-26T17:26:34.000Z</time>
        <extensions>
          <ns3:TrackPointExtension>
            <ns3:atemp>29.0</ns3:atemp>
            <ns3:hr>101</ns3:hr>
          </ns3:TrackPointExtension>
        </extensions>
      </trkpt>
      <trkpt lat="36.81492629460990428924560546875" lon="-118.43570508062839508056640625">
        <ele>3508.60009765625</ele>
        <time>2021-06-26T17:26:35.000Z</time>
        <extensions>
          <ns3:TrackPointExtension>
            <ns3:atemp>29.0</ns3:atemp>
            <ns3:hr>100</ns3:hr>
          </ns3:TrackPointExtension>
        </extensions>
      </trkpt>
      <trkpt lat="36.814931072294712066650390625" lon="-118.435709439218044281005859375">
        <ele>3509</ele>
        <time>2021-06-26T17:26:38.000Z</time>
        <extensions>
          <ns3:TrackPointExtension>
            <ns3:atemp>29.0</ns3:atemp>
            <ns3:hr>99</ns3:hr>
          </ns3:TrackPointExtension>
        </extensions>
      </trkpt>
      <trkpt lat="36.81492528878152370452880859375" lon="-118.43571824021637439727783203125">
        <ele>3509.60009765625</ele>
        <time>2021-06-26T17:26:40.000Z</time>
        <extensions>
          <ns3:TrackPointExtension>
            <ns3:atemp>29.0</ns3:atemp>
            <ns3:hr>99</ns3:hr>
          </ns3:TrackPointExtension>
        </extensions>
      </trkpt>
      <trkpt lat="36.81492336094379425048828125" lon="-118.43572461046278476715087890625">
        <ele>3510.60009765625</ele>
        <time>2021-06-26T17:26:44.000Z</time>
        <extensions>
          <ns3:TrackPointExtension>
            <ns3:atemp>29.0</ns3:atemp>
            <ns3:hr>100</ns3:hr>
          </ns3:TrackPointExtension>
        </extensions>
      </trkpt>
      <trkpt lat="36.8149258755147457122802734375" lon="-118.43572787940502166748046875">
        <ele>3510.800048828125</ele>
        <time>2021-06-26T17:26:45.000Z</time>
        <extensions>
          <ns3:TrackPointExtension>
            <ns3:atemp>29.0</ns3:atemp>
            <ns3:hr>98</ns3:hr>
          </ns3:TrackPointExtension>
        </extensions>
      </trkpt>
      <trkpt lat="36.81492604315280914306640625" lon="-118.43572787940502166748046875">
        <ele>3511.199951171875</ele>
        <time>2021-06-26T17:26:51.000Z</time>
        <extensions>
          <ns3:TrackPointExtension>
            <ns3:atemp>29.0</ns3:atemp>
            <ns3:hr>101</ns3:hr>
          </ns3:TrackPointExtension>
        </extensions>
      </trkpt>
      <trkpt lat="36.81492604315280914306640625" lon="-118.43572787940502166748046875">
        <ele>3511.199951171875</ele>
        <time>2021-06-26T17:26:53.000Z</time>
        <extensions>
          <ns3:TrackPointExtension>
            <ns3:atemp>29.0</ns3:atemp>
            <ns3:hr>104</ns3:hr>
          </ns3:TrackPointExtension>
        </extensions>
      </trkpt>
      <trkpt lat="36.81492604315280914306640625" lon="-118.43572787940502166748046875">
        <ele>3511.199951171875</ele>
        <time>2021-06-26T17:26:54.000Z</time>
        <extensions>
          <ns3:TrackPointExtension>
            <ns3:atemp>29.0</ns3:atemp>
            <ns3:hr>101</ns3:hr>
          </ns3:TrackPointExtension>
        </extensions>
      </trkpt>
      <trkpt lat="36.81492604315280914306640625" lon="-118.43572787940502166748046875">
        <ele>3511.800048828125</ele>
        <time>2021-06-26T17:26:56.000Z</time>
        <extensions>
          <ns3:TrackPointExtension>
            <ns3:atemp>29.0</ns3:atemp>
            <ns3:hr>102</ns3:hr>
          </ns3:TrackPointExtension>
        </extensions>
      </trkpt>
      <trkpt lat="36.8149267137050628662109375" lon="-118.43572787940502166748046875">
        <ele>3512.199951171875</ele>
        <time>2021-06-26T17:27:01.000Z</time>
        <extensions>
          <ns3:TrackPointExtension>
            <ns3:atemp>29.0</ns3:atemp>
            <ns3:hr>105</ns3:hr>
          </ns3:TrackPointExtension>
        </extensions>
      </trkpt>
      <trkpt lat="36.814938448369503021240234375" lon="-118.435730896890163421630859375">
        <ele>3513</ele>
        <time>2021-06-26T17:27:07.000Z</time>
        <extensions>
          <ns3:TrackPointExtension>
            <ns3:atemp>29.0</ns3:atemp>
            <ns3:hr>107</ns3:hr>
          </ns3:TrackPointExtension>
        </extensions>
      </trkpt>
      <trkpt lat="36.81495848111808300018310546875" lon="-118.4357320703566074371337890625">
        <ele>3513.800048828125</ele>
        <time>2021-06-26T17:27:12.000Z</time>
        <extensions>
          <ns3:TrackPointExtension>
            <ns3:atemp>29.0</ns3:atemp>
            <ns3:hr>104</ns3:hr>
          </ns3:TrackPointExtension>
        </extensions>
      </trkpt>
      <trkpt lat="36.81497566401958465576171875" lon="-118.43573349528014659881591796875">
        <ele>3514.199951171875</ele>
        <time>2021-06-26T17:27:16.000Z</time>
        <extensions>
          <ns3:TrackPointExtension>
            <ns3:atemp>29.0</ns3:atemp>
            <ns3:hr>103</ns3:hr>
          </ns3:TrackPointExtension>
        </extensions>
      </trkpt>
      <trkpt lat="36.8149902485311031341552734375" lon="-118.43573600985109806060791015625">
        <ele>3514.39990234375</ele>
        <time>2021-06-26T17:27:19.000Z</time>
        <extensions>
          <ns3:TrackPointExtension>
            <ns3:atemp>29.0</ns3:atemp>
            <ns3:hr>107</ns3:hr>
          </ns3:TrackPointExtension>
        </extensions>
      </trkpt>
      <trkpt lat="36.815012209117412567138671875" lon="-118.43573718331754207611083984375">
        <ele>3515.199951171875</ele>
        <time>2021-06-26T17:27:27.000Z</time>
        <extensions>
          <ns3:TrackPointExtension>
            <ns3:atemp>29.0</ns3:atemp>
            <ns3:hr>106</ns3:hr>
          </ns3:TrackPointExtension>
        </extensions>
      </trkpt>
      <trkpt lat="36.815017573535442352294921875" lon="-118.43575528822839260101318359375">
        <ele>3516.39990234375</ele>
        <time>2021-06-26T17:27:33.000Z</time>
        <extensions>
          <ns3:TrackPointExtension>
            <ns3:atemp>29.0</ns3:atemp>
            <ns3:hr>107</ns3:hr>
          </ns3:TrackPointExtension>
        </extensions>
      </trkpt>
      <trkpt lat="36.815020255744457244873046875" lon="-118.43578688800334930419921875">
        <ele>3517</ele>
        <time>2021-06-26T17:27:37.000Z</time>
        <extensions>
          <ns3:TrackPointExtension>
            <ns3:atemp>29.0</ns3:atemp>
            <ns3:hr>106</ns3:hr>
          </ns3:TrackPointExtension>
        </extensions>
      </trkpt>
      <trkpt lat="36.81502151302993297576904296875" lon="-118.435798622667789459228515625">
        <ele>3517.199951171875</ele>
        <time>2021-06-26T17:27:39.000Z</time>
        <extensions>
          <ns3:TrackPointExtension>
            <ns3:atemp>29.0</ns3:atemp>
            <ns3:hr>102</ns3:hr>
          </ns3:TrackPointExtension>
        </extensions>
      </trkpt>
      <trkpt lat="36.81503274478018283843994140625" lon="-118.43581505119800567626953125">
        <ele>3517.39990234375</ele>
        <time>2021-06-26T17:27:42.000Z</time>
        <extensions>
          <ns3:TrackPointExtension>
            <ns3:atemp>29.0</ns3:atemp>
            <ns3:hr>101</ns3:hr>
          </ns3:TrackPointExtension>
        </extensions>
      </trkpt>
      <trkpt lat="36.8150405399501323699951171875" lon="-118.43582284636795520782470703125">
        <ele>3518</ele>
        <time>2021-06-26T17:27:47.000Z</time>
        <extensions>
          <ns3:TrackPointExtension>
            <ns3:atemp>29.0</ns3:atemp>
            <ns3:hr>104</ns3:hr>
          </ns3:TrackPointExtension>
        </extensions>
      </trkpt>
      <trkpt lat="36.81504481472074985504150390625" lon="-118.43584053218364715576171875">
        <ele>3518.199951171875</ele>
        <time>2021-06-26T17:27:50.000Z</time>
        <extensions>
          <ns3:TrackPointExtension>
            <ns3:atemp>29.0</ns3:atemp>
            <ns3:hr>107</ns3:hr>
          </ns3:TrackPointExtension>
        </extensions>
      </trkpt>
      <trkpt lat="36.8150539509952068328857421875" lon="-118.4358534403145313262939453125">
        <ele>3518.60009765625</ele>
        <time>2021-06-26T17:27:53.000Z</time>
        <extensions>
          <ns3:TrackPointExtension>
            <ns3:atemp>29.0</ns3:atemp>
            <ns3:hr>108</ns3:hr>
          </ns3:TrackPointExtension>
        </extensions>
      </trkpt>
      <trkpt lat="36.81507356464862823486328125" lon="-118.43589794822037220001220703125">
        <ele>3519.800048828125</ele>
        <time>2021-06-26T17:28:01.000Z</time>
        <extensions>
          <ns3:TrackPointExtension>
            <ns3:atemp>29.0</ns3:atemp>
            <ns3:hr>109</ns3:hr>
          </ns3:TrackPointExtension>
        </extensions>
      </trkpt>
      <trkpt lat="36.81508027017116546630859375" lon="-118.435944803059101104736328125">
        <ele>3521</ele>
        <time>2021-06-26T17:28:09.000Z</time>
        <extensions>
          <ns3:TrackPointExtension>
            <ns3:atemp>29.0</ns3:atemp>
            <ns3:hr>109</ns3:hr>
          </ns3:TrackPointExtension>
        </extensions>
      </trkpt>
      <trkpt lat="36.815094687044620513916015625" lon="-118.43598629347980022430419921875">
        <ele>3522.199951171875</ele>
        <time>2021-06-26T17:28:17.000Z</time>
        <extensions>
          <ns3:TrackPointExtension>
            <ns3:atemp>29.0</ns3:atemp>
            <ns3:hr>107</ns3:hr>
          </ns3:TrackPointExtension>
        </extensions>
      </trkpt>
      <trkpt lat="36.81510306894779205322265625" lon="-118.4360039792954921722412109375">
        <ele>3522.60009765625</ele>
        <time>2021-06-26T17:28:22.000Z</time>
        <extensions>
          <ns3:TrackPointExtension>
            <ns3:atemp>29.0</ns3:atemp>
            <ns3:hr>104</ns3:hr>
          </ns3:TrackPointExtension>
        </extensions>
      </trkpt>
      <trkpt lat="36.8151045776903629302978515625" lon="-118.4360086731612682342529296875">
        <ele>3522.60009765625</ele>
        <time>2021-06-26T17:28:23.000Z</time>
        <extensions>
          <ns3:TrackPointExtension>
            <ns3:atemp>29.0</ns3:atemp>
            <ns3:hr>109</ns3:hr>
          </ns3:TrackPointExtension>
        </extensions>
      </trkpt>
      <trkpt lat="36.815105415880680084228515625" lon="-118.436011187732219696044921875">
        <ele>3522.60009765625</ele>
        <time>2021-06-26T17:28:24.000Z</time>
        <extensions>
          <ns3:TrackPointExtension>
            <ns3:atemp>29.0</ns3:atemp>
            <ns3:hr>106</ns3:hr>
          </ns3:TrackPointExtension>
        </extensions>
      </trkpt>
      <trkpt lat="36.8151193298399448394775390625" lon="-118.4360167197883129119873046875">
        <ele>3523.199951171875</ele>
        <time>2021-06-26T17:28:27.000Z</time>
        <extensions>
          <ns3:TrackPointExtension>
            <ns3:atemp>29.0</ns3:atemp>
            <ns3:hr>107</ns3:hr>
          </ns3:TrackPointExtension>
        </extensions>
      </trkpt>
      <trkpt lat="36.81512226350605487823486328125" lon="-118.436017893254756927490234375">
        <ele>3523.39990234375</ele>
        <time>2021-06-26T17:28:28.000Z</time>
        <extensions>
          <ns3:TrackPointExtension>
            <ns3:atemp>29.0</ns3:atemp>
            <ns3:hr>104</ns3:hr>
          </ns3:TrackPointExtension>
        </extensions>
      </trkpt>
      <trkpt lat="36.8151246942579746246337890625" lon="-118.43601881526410579681396484375">
        <ele>3523.60009765625</ele>
        <time>2021-06-26T17:28:29.000Z</time>
        <extensions>
          <ns3:TrackPointExtension>
            <ns3:atemp>29.0</ns3:atemp>
            <ns3:hr>110</ns3:hr>
          </ns3:TrackPointExtension>
        </extensions>
      </trkpt>
      <trkpt lat="36.81513383053243160247802734375" lon="-118.4360227547585964202880859375">
        <ele>3524.39990234375</ele>
        <time>2021-06-26T17:28:32.000Z</time>
        <extensions>
          <ns3:TrackPointExtension>
            <ns3:atemp>29.0</ns3:atemp>
            <ns3:hr>111</ns3:hr>
          </ns3:TrackPointExtension>
        </extensions>
      </trkpt>
      <trkpt lat="36.81514439173042774200439453125" lon="-118.43603708781301975250244140625">
        <ele>3525.39990234375</ele>
        <time>2021-06-26T17:28:39.000Z</time>
        <extensions>
          <ns3:TrackPointExtension>
            <ns3:atemp>29.0</ns3:atemp>
            <ns3:hr>111</ns3:hr>
          </ns3:TrackPointExtension>
        </extensions>
      </trkpt>
      <trkpt lat="36.81515403091907501220703125" lon="-118.43604714609682559967041015625">
        <ele>3526.39990234375</ele>
        <time>2021-06-26T17:28:48.000Z</time>
        <extensions>
          <ns3:TrackPointExtension>
            <ns3:atemp>29.0</ns3:atemp>
            <ns3:hr>109</ns3:hr>
          </ns3:TrackPointExtension>
        </extensions>
      </trkpt>
      <trkpt lat="36.8151568807661533355712890625" lon="-118.436092995107173919677734375">
        <ele>3527.60009765625</ele>
        <time>2021-06-26T17:28:59.000Z</time>
        <extensions>
          <ns3:TrackPointExtension>
            <ns3:atemp>29.0</ns3:atemp>
            <ns3:hr>110</ns3:hr>
          </ns3:TrackPointExtension>
        </extensions>
      </trkpt>
      <trkpt lat="36.815157048404216766357421875" lon="-118.43611009418964385986328125">
        <ele>3528.60009765625</ele>
        <time>2021-06-26T17:29:04.000Z</time>
        <extensions>
          <ns3:TrackPointExtension>
            <ns3:atemp>29.0</ns3:atemp>
            <ns3:hr>111</ns3:hr>
          </ns3:TrackPointExtension>
        </extensions>
      </trkpt>
      <trkpt lat="36.8151689507067203521728515625" lon="-118.43613917939364910125732421875">
        <ele>3529.199951171875</ele>
        <time>2021-06-26T17:29:14.000Z</time>
        <extensions>
          <ns3:TrackPointExtension>
            <ns3:atemp>29.0</ns3:atemp>
            <ns3:hr>106</ns3:hr>
          </ns3:TrackPointExtension>
        </extensions>
      </trkpt>
      <trkpt lat="36.8151716329157352447509765625" lon="-118.43614554964005947113037109375">
        <ele>3529.60009765625</ele>
        <time>2021-06-26T17:29:17.000Z</time>
        <extensions>
          <ns3:TrackPointExtension>
            <ns3:atemp>29.0</ns3:atemp>
            <ns3:hr>102</ns3:hr>
          </ns3:TrackPointExtension>
        </extensions>
      </trkpt>
      <trkpt lat="36.81517272256314754486083984375" lon="-118.43615091405808925628662109375">
        <ele>3529.39990234375</ele>
        <time>2021-06-26T17:29:20.000Z</time>
        <extensions>
          <ns3:TrackPointExtension>
            <ns3:atemp>29.0</ns3:atemp>
            <ns3:hr>99</ns3:hr>
          </ns3:TrackPointExtension>
        </extensions>
      </trkpt>
      <trkpt lat="36.81517540477216243743896484375" lon="-118.43617287464439868927001953125">
        <ele>3529.199951171875</ele>
        <time>2021-06-26T17:29:32.000Z</time>
        <extensions>
          <ns3:TrackPointExtension>
            <ns3:atemp>29.0</ns3:atemp>
            <ns3:hr>102</ns3:hr>
          </ns3:TrackPointExtension>
        </extensions>
      </trkpt>
      <trkpt lat="36.81517574004828929901123046875" lon="-118.43617714941501617431640625">
        <ele>3529.800048828125</ele>
        <time>2021-06-26T17:29:36.000Z</time>
        <extensions>
          <ns3:TrackPointExtension>
            <ns3:atemp>29.0</ns3:atemp>
            <ns3:hr>104</ns3:hr>
          </ns3:TrackPointExtension>
        </extensions>
      </trkpt>
      <trkpt lat="36.8151746504008769989013671875" lon="-118.43618243001401424407958984375">
        <ele>3530.800048828125</ele>
        <time>2021-06-26T17:29:46.000Z</time>
        <extensions>
          <ns3:TrackPointExtension>
            <ns3:atemp>29.0</ns3:atemp>
            <ns3:hr>103</ns3:hr>
          </ns3:TrackPointExtension>
        </extensions>
      </trkpt>
      <trkpt lat="36.81517506949603557586669921875" lon="-118.4361846931278705596923828125">
        <ele>3531.800048828125</ele>
        <time>2021-06-26T17:29:51.000Z</time>
        <extensions>
          <ns3:TrackPointExtension>
            <ns3:atemp>28.0</ns3:atemp>
            <ns3:hr>103</ns3:hr>
          </ns3:TrackPointExtension>
        </extensions>
      </trkpt>
      <trkpt lat="36.8151756562292575836181640625" lon="-118.43618829734623432159423828125">
        <ele>3532.199951171875</ele>
        <time>2021-06-26T17:29:55.000Z</time>
        <extensions>
          <ns3:TrackPointExtension>
            <ns3:atemp>28.0</ns3:atemp>
            <ns3:hr>100</ns3:hr>
          </ns3:TrackPointExtension>
        </extensions>
      </trkpt>
      <trkpt lat="36.81517590768635272979736328125" lon="-118.43619232065975666046142578125">
        <ele>3532.800048828125</ele>
        <time>2021-06-26T17:29:58.000Z</time>
        <extensions>
          <ns3:TrackPointExtension>
            <ns3:atemp>28.0</ns3:atemp>
            <ns3:hr>97</ns3:hr>
          </ns3:TrackPointExtension>
        </extensions>
      </trkpt>
      <trkpt lat="36.8151759915053844451904296875" lon="-118.436193577945232391357421875">
        <ele>3533</ele>
        <time>2021-06-26T17:29:59.000Z</time>
        <extensions>
          <ns3:TrackPointExtension>
            <ns3:atemp>28.0</ns3:atemp>
            <ns3:hr>98</ns3:hr>
          </ns3:TrackPointExtension>
        </extensions>
      </trkpt>
      <trkpt lat="36.81517641060054302215576171875" lon="-118.4361984394490718841552734375">
        <ele>3534.60009765625</ele>
        <time>2021-06-26T17:30:06.000Z</time>
        <extensions>
          <ns3:TrackPointExtension>
            <ns3:atemp>28.0</ns3:atemp>
            <ns3:hr>97</ns3:hr>
          </ns3:TrackPointExtension>
        </extensions>
      </trkpt>
      <trkpt lat="36.81517657823860645294189453125" lon="-118.43619869090616703033447265625">
        <ele>3535.39990234375</ele>
        <time>2021-06-26T17:30:10.000Z</time>
        <extensions>
          <ns3:TrackPointExtension>
            <ns3:atemp>28.0</ns3:atemp>
            <ns3:hr>101</ns3:hr>
          </ns3:TrackPointExtension>
        </extensions>
      </trkpt>
      <trkpt lat="36.81517674587666988372802734375" lon="-118.43619885854423046112060546875">
        <ele>3535.39990234375</ele>
        <time>2021-06-26T17:30:12.000Z</time>
        <extensions>
          <ns3:TrackPointExtension>
            <ns3:atemp>28.0</ns3:atemp>
            <ns3:hr>97</ns3:hr>
          </ns3:TrackPointExtension>
        </extensions>
      </trkpt>
      <trkpt lat="36.81517682969570159912109375" lon="-118.436198942363262176513671875">
        <ele>3535.800048828125</ele>
        <time>2021-06-26T17:30:13.000Z</time>
        <extensions>
          <ns3:TrackPointExtension>
            <ns3:atemp>28.0</ns3:atemp>
            <ns3:hr>101</ns3:hr>
          </ns3:TrackPointExtension>
        </extensions>
      </trkpt>
      <trkpt lat="36.8151773326098918914794921875" lon="-118.4361994452774524688720703125">
        <ele>3537</ele>
        <time>2021-06-26T17:30:20.000Z</time>
        <extensions>
          <ns3:TrackPointExtension>
            <ns3:atemp>28.0</ns3:atemp>
            <ns3:hr>101</ns3:hr>
          </ns3:TrackPointExtension>
        </extensions>
      </trkpt>
      <trkpt lat="36.81517775170505046844482421875" lon="-118.43620003201067447662353515625">
        <ele>3537.800048828125</ele>
        <time>2021-06-26T17:30:25.000Z</time>
        <extensions>
          <ns3:TrackPointExtension>
            <ns3:atemp>28.0</ns3:atemp>
            <ns3:hr>98</ns3:hr>
          </ns3:TrackPointExtension>
        </extensions>
      </trkpt>
      <trkpt lat="36.81517808698117733001708984375" lon="-118.436200618743896484375">
        <ele>3538</ele>
        <time>2021-06-26T17:30:29.000Z</time>
        <extensions>
          <ns3:TrackPointExtension>
            <ns3:atemp>28.0</ns3:atemp>
            <ns3:hr>95</ns3:hr>
          </ns3:TrackPointExtension>
        </extensions>
      </trkpt>
      <trkpt lat="36.81517817080020904541015625" lon="-118.4362007863819599151611328125">
        <ele>3538.199951171875</ele>
        <time>2021-06-26T17:30:30.000Z</time>
        <extensions>
          <ns3:TrackPointExtension>
            <ns3:atemp>28.0</ns3:atemp>
            <ns3:hr>95</ns3:hr>
          </ns3:TrackPointExtension>
        </extensions>
      </trkpt>
      <trkpt lat="36.81517875753343105316162109375" lon="-118.43620187602937221527099609375">
        <ele>3539.199951171875</ele>
        <time>2021-06-26T17:30:37.000Z</time>
        <extensions>
          <ns3:TrackPointExtension>
            <ns3:atemp>28.0</ns3:atemp>
            <ns3:hr>96</ns3:hr>
          </ns3:TrackPointExtension>
        </extensions>
      </trkpt>
      <trkpt lat="36.8151788413524627685546875" lon="-118.4362021274864673614501953125">
        <ele>3540.199951171875</ele>
        <time>2021-06-26T17:30:38.000Z</time>
        <extensions>
          <ns3:TrackPointExtension>
            <ns3:atemp>28.0</ns3:atemp>
            <ns3:hr>95</ns3:hr>
          </ns3:TrackPointExtension>
        </extensions>
      </trkpt>
      <trkpt lat="36.815179847180843353271484375" lon="-118.436204306781291961669921875">
        <ele>3541.39990234375</ele>
        <time>2021-06-26T17:30:47.000Z</time>
        <extensions>
          <ns3:TrackPointExtension>
            <ns3:atemp>28.0</ns3:atemp>
            <ns3:hr>92</ns3:hr>
          </ns3:TrackPointExtension>
        </extensions>
      </trkpt>
      <trkpt lat="36.81518043391406536102294921875" lon="-118.43620573170483112335205078125">
        <ele>3541.800048828125</ele>
        <time>2021-06-26T17:30:52.000Z</time>
        <extensions>
          <ns3:TrackPointExtension>
            <ns3:atemp>28.0</ns3:atemp>
            <ns3:hr>89</ns3:hr>
          </ns3:TrackPointExtension>
        </extensions>
      </trkpt>
      <trkpt lat="36.81518076919019222259521484375" lon="-118.43620656989514827728271484375">
        <ele>3542.39990234375</ele>
        <time>2021-06-26T17:30:55.000Z</time>
        <extensions>
          <ns3:TrackPointExtension>
            <ns3:atemp>28.0</ns3:atemp>
            <ns3:hr>88</ns3:hr>
          </ns3:TrackPointExtension>
        </extensions>
      </trkpt>
      <trkpt lat="36.8151810206472873687744140625" lon="-118.43620707280933856964111328125">
        <ele>3542.60009765625</ele>
        <time>2021-06-26T17:30:57.000Z</time>
        <extensions>
          <ns3:TrackPointExtension>
            <ns3:atemp>28.0</ns3:atemp>
            <ns3:hr>91</ns3:hr>
          </ns3:TrackPointExtension>
        </extensions>
      </trkpt>
      <trkpt lat="36.8151820264756679534912109375" lon="-118.43620992265641689300537109375">
        <ele>3543.60009765625</ele>
        <time>2021-06-26T17:31:06.000Z</time>
        <extensions>
          <ns3:TrackPointExtension>
            <ns3:atemp>28.0</ns3:atemp>
            <ns3:hr>91</ns3:hr>
          </ns3:TrackPointExtension>
        </extensions>
      </trkpt>
      <trkpt lat="36.81518261320888996124267578125" lon="-118.4362118504941463470458984375">
        <ele>3544.60009765625</ele>
        <time>2021-06-26T17:31:12.000Z</time>
        <extensions>
          <ns3:TrackPointExtension>
            <ns3:atemp>28.0</ns3:atemp>
            <ns3:hr>92</ns3:hr>
          </ns3:TrackPointExtension>
        </extensions>
      </trkpt>
      <trkpt lat="36.81518294848501682281494140625" lon="-118.43621294014155864715576171875">
        <ele>3544.60009765625</ele>
        <time>2021-06-26T17:31:15.000Z</time>
        <extensions>
          <ns3:TrackPointExtension>
            <ns3:atemp>28.0</ns3:atemp>
            <ns3:hr>89</ns3:hr>
          </ns3:TrackPointExtension>
        </extensions>
      </trkpt>
      <trkpt lat="36.815183199942111968994140625" lon="-118.436214029788970947265625">
        <ele>3545.199951171875</ele>
        <time>2021-06-26T17:31:18.000Z</time>
        <extensions>
          <ns3:TrackPointExtension>
            <ns3:atemp>28.0</ns3:atemp>
            <ns3:hr>92</ns3:hr>
          </ns3:TrackPointExtension>
        </extensions>
      </trkpt>
      <trkpt lat="36.81518361903727054595947265625" lon="-118.436216376721858978271484375">
        <ele>3545.60009765625</ele>
        <time>2021-06-26T17:31:24.000Z</time>
        <extensions>
          <ns3:TrackPointExtension>
            <ns3:atemp>28.0</ns3:atemp>
            <ns3:hr>94</ns3:hr>
          </ns3:TrackPointExtension>
        </extensions>
      </trkpt>
      <trkpt lat="36.8151840381324291229248046875" lon="-118.43621847219765186309814453125">
        <ele>3546.800048828125</ele>
        <time>2021-06-26T17:31:29.000Z</time>
        <extensions>
          <ns3:TrackPointExtension>
            <ns3:atemp>28.0</ns3:atemp>
            <ns3:hr>95</ns3:hr>
          </ns3:TrackPointExtension>
        </extensions>
      </trkpt>
      <trkpt lat="36.81518428958952426910400390625" lon="-118.4362202323973178863525390625">
        <ele>3547.199951171875</ele>
        <time>2021-06-26T17:31:33.000Z</time>
        <extensions>
          <ns3:TrackPointExtension>
            <ns3:atemp>28.0</ns3:atemp>
            <ns3:hr>99</ns3:hr>
          </ns3:TrackPointExtension>
        </extensions>
      </trkpt>
      <trkpt lat="36.8151843734085559844970703125" lon="-118.43622065149247646331787109375">
        <ele>3547.39990234375</ele>
        <time>2021-06-26T17:31:34.000Z</time>
        <extensions>
          <ns3:TrackPointExtension>
            <ns3:atemp>28.0</ns3:atemp>
            <ns3:hr>102</ns3:hr>
          </ns3:TrackPointExtension>
        </extensions>
      </trkpt>
      <trkpt lat="36.81518462486565113067626953125" lon="-118.43622199259698390960693359375">
        <ele>3547.800048828125</ele>
        <time>2021-06-26T17:31:37.000Z</time>
        <extensions>
          <ns3:TrackPointExtension>
            <ns3:atemp>28.0</ns3:atemp>
            <ns3:hr>106</ns3:hr>
          </ns3:TrackPointExtension>
        </extensions>
      </trkpt>
      <trkpt lat="36.81518479250371456146240234375" lon="-118.4362225793302059173583984375">
        <ele>3547.800048828125</ele>
        <time>2021-06-26T17:31:38.000Z</time>
        <extensions>
          <ns3:TrackPointExtension>
            <ns3:atemp>28.0</ns3:atemp>
            <ns3:hr>110</ns3:hr>
          </ns3:TrackPointExtension>
        </extensions>
      </trkpt>
      <trkpt lat="36.81518487632274627685546875" lon="-118.436223082244396209716796875">
        <ele>3548.199951171875</ele>
        <time>2021-06-26T17:31:39.000Z</time>
        <extensions>
          <ns3:TrackPointExtension>
            <ns3:atemp>28.0</ns3:atemp>
            <ns3:hr>109</ns3:hr>
          </ns3:TrackPointExtension>
        </extensions>
      </trkpt>
      <trkpt lat="36.81518563069403171539306640625" lon="-118.43622685410082340240478515625">
        <ele>3549.60009765625</ele>
        <time>2021-06-26T17:31:46.000Z</time>
        <extensions>
          <ns3:TrackPointExtension>
            <ns3:atemp>28.0</ns3:atemp>
            <ns3:hr>109</ns3:hr>
          </ns3:TrackPointExtension>
        </extensions>
      </trkpt>
      <trkpt lat="36.81518613360822200775146484375" lon="-118.4362286143004894256591796875">
        <ele>3549.60009765625</ele>
        <time>2021-06-26T17:31:49.000Z</time>
        <extensions>
          <ns3:TrackPointExtension>
            <ns3:atemp>28.0</ns3:atemp>
            <ns3:hr>112</ns3:hr>
          </ns3:TrackPointExtension>
        </extensions>
      </trkpt>
      <trkpt lat="36.81518663652241230010986328125" lon="-118.43623037450015544891357421875">
        <ele>3549.800048828125</ele>
        <time>2021-06-26T17:31:52.000Z</time>
        <extensions>
          <ns3:TrackPointExtension>
            <ns3:atemp>28.0</ns3:atemp>
            <ns3:hr>115</ns3:hr>
          </ns3:TrackPointExtension>
        </extensions>
      </trkpt>
      <trkpt lat="36.8151873908936977386474609375" lon="-118.4362328052520751953125">
        <ele>3550</ele>
        <time>2021-06-26T17:31:56.000Z</time>
        <extensions>
          <ns3:TrackPointExtension>
            <ns3:atemp>28.0</ns3:atemp>
            <ns3:hr>112</ns3:hr>
          </ns3:TrackPointExtension>
        </extensions>
      </trkpt>
      <trkpt lat="36.8151883967220783233642578125" lon="-118.43623590655624866485595703125">
        <ele>3550.60009765625</ele>
        <time>2021-06-26T17:32:01.000Z</time>
        <extensions>
          <ns3:TrackPointExtension>
            <ns3:atemp>28.0</ns3:atemp>
            <ns3:hr>113</ns3:hr>
          </ns3:TrackPointExtension>
        </extensions>
      </trkpt>
      <trkpt lat="36.8151895701885223388671875" lon="-118.43623892404139041900634765625">
        <ele>3551.39990234375</ele>
        <time>2021-06-26T17:32:06.000Z</time>
        <extensions>
          <ns3:TrackPointExtension>
            <ns3:atemp>28.0</ns3:atemp>
            <ns3:hr>110</ns3:hr>
          </ns3:TrackPointExtension>
        </extensions>
      </trkpt>
      <trkpt lat="36.81519032455980777740478515625" lon="-118.43624076806008815765380859375">
        <ele>3552</ele>
        <time>2021-06-26T17:32:09.000Z</time>
        <extensions>
          <ns3:TrackPointExtension>
            <ns3:atemp>28.0</ns3:atemp>
            <ns3:hr>110</ns3:hr>
          </ns3:TrackPointExtension>
        </extensions>
      </trkpt>
      <trkpt lat="36.8151922523975372314453125" lon="-118.43624495901167392730712890625">
        <ele>3553</ele>
        <time>2021-06-26T17:32:16.000Z</time>
        <extensions>
          <ns3:TrackPointExtension>
            <ns3:atemp>28.0</ns3:atemp>
            <ns3:hr>114</ns3:hr>
          </ns3:TrackPointExtension>
        </extensions>
      </trkpt>
      <trkpt lat="36.81519317440688610076904296875" lon="-118.43624680303037166595458984375">
        <ele>3553.39990234375</ele>
        <time>2021-06-26T17:32:19.000Z</time>
        <extensions>
          <ns3:TrackPointExtension>
            <ns3:atemp>28.0</ns3:atemp>
            <ns3:hr>111</ns3:hr>
          </ns3:TrackPointExtension>
        </extensions>
      </trkpt>
      <trkpt lat="36.81519468314945697784423828125" lon="-118.43624982051551342010498046875">
        <ele>3554.199951171875</ele>
        <time>2021-06-26T17:32:24.000Z</time>
        <extensions>
          <ns3:TrackPointExtension>
            <ns3:atemp>28.0</ns3:atemp>
            <ns3:hr>111</ns3:hr>
          </ns3:TrackPointExtension>
        </extensions>
      </trkpt>
      <trkpt lat="36.8151976168155670166015625" lon="-118.43625535257160663604736328125">
        <ele>3555</ele>
        <time>2021-06-26T17:32:33.000Z</time>
        <extensions>
          <ns3:TrackPointExtension>
            <ns3:atemp>28.0</ns3:atemp>
            <ns3:hr>116</ns3:hr>
          </ns3:TrackPointExtension>
        </extensions>
      </trkpt>
      <trkpt lat="36.815197952091693878173828125" lon="-118.436255939304828643798828125">
        <ele>3555.199951171875</ele>
        <time>2021-06-26T17:32:34.000Z</time>
        <extensions>
          <ns3:TrackPointExtension>
            <ns3:atemp>28.0</ns3:atemp>
            <ns3:hr>116</ns3:hr>
          </ns3:TrackPointExtension>
        </extensions>
      </trkpt>
      <trkpt lat="36.81519828736782073974609375" lon="-118.436256609857082366943359375">
        <ele>3556</ele>
        <time>2021-06-26T17:32:35.000Z</time>
        <extensions>
          <ns3:TrackPointExtension>
            <ns3:atemp>28.0</ns3:atemp>
            <ns3:hr>112</ns3:hr>
          </ns3:TrackPointExtension>
        </extensions>
      </trkpt>
      <trkpt lat="36.81519954465329647064208984375" lon="-118.4362591244280338287353515625">
        <ele>3556.39990234375</ele>
        <time>2021-06-26T17:32:39.000Z</time>
        <extensions>
          <ns3:TrackPointExtension>
            <ns3:atemp>28.0</ns3:atemp>
            <ns3:hr>112</ns3:hr>
          </ns3:TrackPointExtension>
        </extensions>
      </trkpt>
      <trkpt lat="36.81520055048167705535888671875" lon="-118.4362611360847949981689453125">
        <ele>3556.39990234375</ele>
        <time>2021-06-26T17:32:42.000Z</time>
        <extensions>
          <ns3:TrackPointExtension>
            <ns3:atemp>28.0</ns3:atemp>
            <ns3:hr>109</ns3:hr>
          </ns3:TrackPointExtension>
        </extensions>
      </trkpt>
      <trkpt lat="36.815203316509723663330078125" lon="-118.4362668357789516448974609375">
        <ele>3556.60009765625</ele>
        <time>2021-06-26T17:32:50.000Z</time>
        <extensions>
          <ns3:TrackPointExtension>
            <ns3:atemp>28.0</ns3:atemp>
            <ns3:hr>106</ns3:hr>
          </ns3:TrackPointExtension>
        </extensions>
      </trkpt>
      <trkpt lat="36.81520457379519939422607421875" lon="-118.43626960180699825286865234375">
        <ele>3556.39990234375</ele>
        <time>2021-06-26T17:32:54.000Z</time>
        <extensions>
          <ns3:TrackPointExtension>
            <ns3:atemp>28.0</ns3:atemp>
            <ns3:hr>109</ns3:hr>
          </ns3:TrackPointExtension>
        </extensions>
      </trkpt>
      <trkpt lat="36.81520557962357997894287109375" lon="-118.4362716972827911376953125">
        <ele>3556.199951171875</ele>
        <time>2021-06-26T17:32:57.000Z</time>
        <extensions>
          <ns3:TrackPointExtension>
            <ns3:atemp>28.0</ns3:atemp>
            <ns3:hr>112</ns3:hr>
          </ns3:TrackPointExtension>
        </extensions>
      </trkpt>
      <trkpt lat="36.81521194986999034881591796875" lon="-118.43628820963203907012939453125">
        <ele>3557.39990234375</ele>
        <time>2021-06-26T17:33:22.000Z</time>
        <extensions>
          <ns3:TrackPointExtension>
            <ns3:atemp>28.0</ns3:atemp>
            <ns3:hr>111</ns3:hr>
          </ns3:TrackPointExtension>
        </extensions>
      </trkpt>
      <trkpt lat="36.8152137100696563720703125" lon="-118.43629323877394199371337890625">
        <ele>3558.39990234375</ele>
        <time>2021-06-26T17:33:30.000Z</time>
        <extensions>
          <ns3:TrackPointExtension>
            <ns3:atemp>28.0</ns3:atemp>
            <ns3:hr>109</ns3:hr>
          </ns3:TrackPointExtension>
        </extensions>
      </trkpt>
      <trkpt lat="36.81521479971706867218017578125" lon="-118.43629642389714717864990234375">
        <ele>3559</ele>
        <time>2021-06-26T17:33:35.000Z</time>
        <extensions>
          <ns3:TrackPointExtension>
            <ns3:atemp>28.0</ns3:atemp>
            <ns3:hr>106</ns3:hr>
          </ns3:TrackPointExtension>
        </extensions>
      </trkpt>
      <trkpt lat="36.815215051174163818359375" lon="-118.43629709444940090179443359375">
        <ele>3559.39990234375</ele>
        <time>2021-06-26T17:33:36.000Z</time>
        <extensions>
          <ns3:TrackPointExtension>
            <ns3:atemp>28.0</ns3:atemp>
            <ns3:hr>107</ns3:hr>
          </ns3:TrackPointExtension>
        </extensions>
      </trkpt>
      <trkpt lat="36.81521664373576641082763671875" lon="-118.4363013692200183868408203125">
        <ele>3560.39990234375</ele>
        <time>2021-06-26T17:33:42.000Z</time>
        <extensions>
          <ns3:TrackPointExtension>
            <ns3:atemp>28.0</ns3:atemp>
            <ns3:hr>109</ns3:hr>
          </ns3:TrackPointExtension>
        </extensions>
      </trkpt>
      <trkpt lat="36.8152172304689884185791015625" lon="-118.436302877962589263916015625">
        <ele>3560.60009765625</ele>
        <time>2021-06-26T17:33:44.000Z</time>
        <extensions>
          <ns3:TrackPointExtension>
            <ns3:atemp>28.0</ns3:atemp>
            <ns3:hr>112</ns3:hr>
          </ns3:TrackPointExtension>
        </extensions>
      </trkpt>
      <trkpt lat="36.81521832011640071868896484375" lon="-118.43630589544773101806640625">
        <ele>3561.199951171875</ele>
        <time>2021-06-26T17:33:48.000Z</time>
        <extensions>
          <ns3:TrackPointExtension>
            <ns3:atemp>28.0</ns3:atemp>
            <ns3:hr>115</ns3:hr>
          </ns3:TrackPointExtension>
        </extensions>
      </trkpt>
      <trkpt lat="36.81521915830671787261962890625" lon="-118.436308242380619049072265625">
        <ele>3561.60009765625</ele>
        <time>2021-06-26T17:33:51.000Z</time>
        <extensions>
          <ns3:TrackPointExtension>
            <ns3:atemp>28.0</ns3:atemp>
            <ns3:hr>116</ns3:hr>
          </ns3:TrackPointExtension>
        </extensions>
      </trkpt>
      <trkpt lat="36.81522083468735218048095703125" lon="-118.4363131038844585418701171875">
        <ele>3562.60009765625</ele>
        <time>2021-06-26T17:33:57.000Z</time>
        <extensions>
          <ns3:TrackPointExtension>
            <ns3:atemp>28.0</ns3:atemp>
            <ns3:hr>116</ns3:hr>
          </ns3:TrackPointExtension>
        </extensions>
      </trkpt>
      <trkpt lat="36.81522309780120849609375" lon="-118.4363199770450592041015625">
        <ele>3563.800048828125</ele>
        <time>2021-06-26T17:34:05.000Z</time>
        <extensions>
          <ns3:TrackPointExtension>
            <ns3:atemp>28.0</ns3:atemp>
            <ns3:hr>117</ns3:hr>
          </ns3:TrackPointExtension>
        </extensions>
      </trkpt>
      <trkpt lat="36.81522485800087451934814453125" lon="-118.43632542528212070465087890625">
        <ele>3564.60009765625</ele>
        <time>2021-06-26T17:34:11.000Z</time>
        <extensions>
          <ns3:TrackPointExtension>
            <ns3:atemp>28.0</ns3:atemp>
            <ns3:hr>114</ns3:hr>
          </ns3:TrackPointExtension>
        </extensions>
      </trkpt>
      <trkpt lat="36.81522720493376255035400390625" lon="-118.43633213080465793609619140625">
        <ele>3564.800048828125</ele>
        <time>2021-06-26T17:34:18.000Z</time>
        <extensions>
          <ns3:TrackPointExtension>
            <ns3:atemp>28.0</ns3:atemp>
            <ns3:hr>113</ns3:hr>
          </ns3:TrackPointExtension>
        </extensions>
      </trkpt>
      <trkpt lat="36.8152282945811748504638671875" lon="-118.43633498065173625946044921875">
        <ele>3565.199951171875</ele>
        <time>2021-06-26T17:34:21.000Z</time>
        <extensions>
          <ns3:TrackPointExtension>
            <ns3:atemp>28.0</ns3:atemp>
            <ns3:hr>116</ns3:hr>
          </ns3:TrackPointExtension>
        </extensions>
      </trkpt>
      <trkpt lat="36.8152289651334285736083984375" lon="-118.43633699230849742889404296875">
        <ele>3565.800048828125</ele>
        <time>2021-06-26T17:34:23.000Z</time>
        <extensions>
          <ns3:TrackPointExtension>
            <ns3:atemp>28.0</ns3:atemp>
            <ns3:hr>115</ns3:hr>
          </ns3:TrackPointExtension>
        </extensions>
      </trkpt>
      <trkpt lat="36.81523181498050689697265625" lon="-118.4363449551165103912353515625">
        <ele>3566.800048828125</ele>
        <time>2021-06-26T17:34:31.000Z</time>
        <extensions>
          <ns3:TrackPointExtension>
            <ns3:atemp>28.0</ns3:atemp>
            <ns3:hr>116</ns3:hr>
          </ns3:TrackPointExtension>
        </extensions>
      </trkpt>
      <trkpt lat="36.8152333237230777740478515625" lon="-118.43634906224906444549560546875">
        <ele>3567.39990234375</ele>
        <time>2021-06-26T17:34:35.000Z</time>
        <extensions>
          <ns3:TrackPointExtension>
            <ns3:atemp>28.0</ns3:atemp>
            <ns3:hr>119</ns3:hr>
          </ns3:TrackPointExtension>
        </extensions>
      </trkpt>
      <trkpt lat="36.81523407809436321258544921875" lon="-118.436351157724857330322265625">
        <ele>3568</ele>
        <time>2021-06-26T17:34:37.000Z</time>
        <extensions>
          <ns3:TrackPointExtension>
            <ns3:atemp>28.0</ns3:atemp>
            <ns3:hr>122</ns3:hr>
          </ns3:TrackPointExtension>
        </extensions>
      </trkpt>
      <trkpt lat="36.81523743085563182830810546875" lon="-118.43635979108512401580810546875">
        <ele>3569.199951171875</ele>
        <time>2021-06-26T17:34:45.000Z</time>
        <extensions>
          <ns3:TrackPointExtension>
            <ns3:atemp>28.0</ns3:atemp>
            <ns3:hr>123</ns3:hr>
          </ns3:TrackPointExtension>
        </extensions>
      </trkpt>
      <trkpt lat="36.81524145416915416717529296875" lon="-118.4363701008260250091552734375">
        <ele>3570.199951171875</ele>
        <time>2021-06-26T17:34:54.000Z</time>
        <extensions>
          <ns3:TrackPointExtension>
            <ns3:atemp>28.0</ns3:atemp>
            <ns3:hr>124</ns3:hr>
          </ns3:TrackPointExtension>
        </extensions>
      </trkpt>
      <trkpt lat="36.815244890749454498291015625" lon="-118.43637940473854541778564453125">
        <ele>3571.199951171875</ele>
        <time>2021-06-26T17:35:02.000Z</time>
        <extensions>
          <ns3:TrackPointExtension>
            <ns3:atemp>28.0</ns3:atemp>
            <ns3:hr>124</ns3:hr>
          </ns3:TrackPointExtension>
        </extensions>
      </trkpt>
      <trkpt lat="36.81525017134845256805419921875" lon="-118.43639365397393703460693359375">
        <ele>3572.800048828125</ele>
        <time>2021-06-26T17:35:14.000Z</time>
        <extensions>
          <ns3:TrackPointExtension>
            <ns3:atemp>28.0</ns3:atemp>
            <ns3:hr>120</ns3:hr>
          </ns3:TrackPointExtension>
        </extensions>
      </trkpt>
      <trkpt lat="36.815252937376499176025390625" lon="-118.43640103004872798919677734375">
        <ele>3573.800048828125</ele>
        <time>2021-06-26T17:35:20.000Z</time>
        <extensions>
          <ns3:TrackPointExtension>
            <ns3:atemp>28.0</ns3:atemp>
            <ns3:hr>120</ns3:hr>
          </ns3:TrackPointExtension>
        </extensions>
      </trkpt>
      <trkpt lat="36.81525595486164093017578125" lon="-118.4364084899425506591796875">
        <ele>3575</ele>
        <time>2021-06-26T17:35:26.000Z</time>
        <extensions>
          <ns3:TrackPointExtension>
            <ns3:atemp>28.0</ns3:atemp>
            <ns3:hr>118</ns3:hr>
          </ns3:TrackPointExtension>
        </extensions>
      </trkpt>
      <trkpt lat="36.81525805033743381500244140625" lon="-118.436413519084453582763671875">
        <ele>3576.199951171875</ele>
        <time>2021-06-26T17:35:30.000Z</time>
        <extensions>
          <ns3:TrackPointExtension>
            <ns3:atemp>28.0</ns3:atemp>
            <ns3:hr>116</ns3:hr>
          </ns3:TrackPointExtension>
        </extensions>
      </trkpt>
      <trkpt lat="36.8152591399848461151123046875" lon="-118.43641611747443675994873046875">
        <ele>3577.199951171875</ele>
        <time>2021-06-26T17:35:32.000Z</time>
        <extensions>
          <ns3:TrackPointExtension>
            <ns3:atemp>28.0</ns3:atemp>
            <ns3:hr>117</ns3:hr>
          </ns3:TrackPointExtension>
        </extensions>
      </trkpt>
      <trkpt lat="36.815259642899036407470703125" lon="-118.4364173747599124908447265625">
        <ele>3577.199951171875</ele>
        <time>2021-06-26T17:35:33.000Z</time>
        <extensions>
          <ns3:TrackPointExtension>
            <ns3:atemp>28.0</ns3:atemp>
            <ns3:hr>114</ns3:hr>
          </ns3:TrackPointExtension>
        </extensions>
      </trkpt>
      <trkpt lat="36.8152611516416072845458984375" lon="-118.43642114661633968353271484375">
        <ele>3577.39990234375</ele>
        <time>2021-06-26T17:35:36.000Z</time>
        <extensions>
          <ns3:TrackPointExtension>
            <ns3:atemp>28.0</ns3:atemp>
            <ns3:hr>118</ns3:hr>
          </ns3:TrackPointExtension>
        </extensions>
      </trkpt>
      <trkpt lat="36.81526173837482929229736328125" lon="-118.43642248772084712982177734375">
        <ele>3577.39990234375</ele>
        <time>2021-06-26T17:35:37.000Z</time>
        <extensions>
          <ns3:TrackPointExtension>
            <ns3:atemp>28.0</ns3:atemp>
            <ns3:hr>118</ns3:hr>
          </ns3:TrackPointExtension>
        </extensions>
      </trkpt>
      <trkpt lat="36.81526676751673221588134765625" lon="-118.4364353120326995849609375">
        <ele>3578.39990234375</ele>
        <time>2021-06-26T17:35:47.000Z</time>
        <extensions>
          <ns3:TrackPointExtension>
            <ns3:atemp>28.0</ns3:atemp>
            <ns3:hr>117</ns3:hr>
          </ns3:TrackPointExtension>
        </extensions>
      </trkpt>
      <trkpt lat="36.815268695354461669921875" lon="-118.4364405088126659393310546875">
        <ele>3579.60009765625</ele>
        <time>2021-06-26T17:35:51.000Z</time>
        <extensions>
          <ns3:TrackPointExtension>
            <ns3:atemp>28.0</ns3:atemp>
            <ns3:hr>115</ns3:hr>
          </ns3:TrackPointExtension>
        </extensions>
      </trkpt>
      <trkpt lat="36.815271042287349700927734375" lon="-118.436447046697139739990234375">
        <ele>3579.60009765625</ele>
        <time>2021-06-26T17:35:56.000Z</time>
        <extensions>
          <ns3:TrackPointExtension>
            <ns3:atemp>28.0</ns3:atemp>
            <ns3:hr>118</ns3:hr>
          </ns3:TrackPointExtension>
        </extensions>
      </trkpt>
      <trkpt lat="36.815272383391857147216796875" lon="-118.43645098619163036346435546875">
        <ele>3580</ele>
        <time>2021-06-26T17:35:59.000Z</time>
        <extensions>
          <ns3:TrackPointExtension>
            <ns3:atemp>28.0</ns3:atemp>
            <ns3:hr>121</ns3:hr>
          </ns3:TrackPointExtension>
        </extensions>
      </trkpt>
      <trkpt lat="36.81527280248701572418212890625" lon="-118.43645232729613780975341796875">
        <ele>3580.60009765625</ele>
        <time>2021-06-26T17:36:00.000Z</time>
        <extensions>
          <ns3:TrackPointExtension>
            <ns3:atemp>28.0</ns3:atemp>
            <ns3:hr>121</ns3:hr>
          </ns3:TrackPointExtension>
        </extensions>
      </trkpt>
      <trkpt lat="36.8152748979628086090087890625" lon="-118.4364589489996433258056640625">
        <ele>3580.800048828125</ele>
        <time>2021-06-26T17:36:05.000Z</time>
        <extensions>
          <ns3:TrackPointExtension>
            <ns3:atemp>28.0</ns3:atemp>
            <ns3:hr>124</ns3:hr>
          </ns3:TrackPointExtension>
        </extensions>
      </trkpt>
      <trkpt lat="36.81527607142925262451171875" lon="-118.4364629723131656646728515625">
        <ele>3581.800048828125</ele>
        <time>2021-06-26T17:36:08.000Z</time>
        <extensions>
          <ns3:TrackPointExtension>
            <ns3:atemp>28.0</ns3:atemp>
            <ns3:hr>125</ns3:hr>
          </ns3:TrackPointExtension>
        </extensions>
      </trkpt>
      <trkpt lat="36.81527875363826751708984375" lon="-118.436472527682781219482421875">
        <ele>3583.39990234375</ele>
        <time>2021-06-26T17:36:15.000Z</time>
        <extensions>
          <ns3:TrackPointExtension>
            <ns3:atemp>28.0</ns3:atemp>
            <ns3:hr>130</ns3:hr>
          </ns3:TrackPointExtension>
        </extensions>
      </trkpt>
      <trkpt lat="36.8152809329330921173095703125" lon="-118.43648082576692104339599609375">
        <ele>3584.199951171875</ele>
        <time>2021-06-26T17:36:21.000Z</time>
        <extensions>
          <ns3:TrackPointExtension>
            <ns3:atemp>27.0</ns3:atemp>
            <ns3:hr>127</ns3:hr>
          </ns3:TrackPointExtension>
        </extensions>
      </trkpt>
      <trkpt lat="36.8152812682092189788818359375" lon="-118.43648216687142848968505859375">
        <ele>3585</ele>
        <time>2021-06-26T17:36:22.000Z</time>
        <extensions>
          <ns3:TrackPointExtension>
            <ns3:atemp>27.0</ns3:atemp>
            <ns3:hr>126</ns3:hr>
          </ns3:TrackPointExtension>
        </extensions>
      </trkpt>
      <trkpt lat="36.81528202258050441741943359375" lon="-118.43648501671850681304931640625">
        <ele>3585.39990234375</ele>
        <time>2021-06-26T17:36:24.000Z</time>
        <extensions>
          <ns3:TrackPointExtension>
            <ns3:atemp>27.0</ns3:atemp>
            <ns3:hr>130</ns3:hr>
          </ns3:TrackPointExtension>
        </extensions>
      </trkpt>
      <trkpt lat="36.81528386659920215606689453125" lon="-118.43649205751717090606689453125">
        <ele>3585.800048828125</ele>
        <time>2021-06-26T17:36:29.000Z</time>
        <extensions>
          <ns3:TrackPointExtension>
            <ns3:atemp>27.0</ns3:atemp>
            <ns3:hr>127</ns3:hr>
          </ns3:TrackPointExtension>
        </extensions>
      </trkpt>
      <trkpt lat="36.8152846209704875946044921875" lon="-118.43649490736424922943115234375">
        <ele>3586.199951171875</ele>
        <time>2021-06-26T17:36:31.000Z</time>
        <extensions>
          <ns3:TrackPointExtension>
            <ns3:atemp>27.0</ns3:atemp>
            <ns3:hr>127</ns3:hr>
          </ns3:TrackPointExtension>
        </extensions>
      </trkpt>
      <trkpt lat="36.81528654880821704864501953125" lon="-118.436502031981945037841796875">
        <ele>3586.800048828125</ele>
        <time>2021-06-26T17:36:36.000Z</time>
        <extensions>
          <ns3:TrackPointExtension>
            <ns3:atemp>27.0</ns3:atemp>
            <ns3:hr>124</ns3:hr>
          </ns3:TrackPointExtension>
        </extensions>
      </trkpt>
      <trkpt lat="36.815288476645946502685546875" lon="-118.43650932423770427703857421875">
        <ele>3587.800048828125</ele>
        <time>2021-06-26T17:36:41.000Z</time>
        <extensions>
          <ns3:TrackPointExtension>
            <ns3:atemp>27.0</ns3:atemp>
            <ns3:hr>122</ns3:hr>
          </ns3:TrackPointExtension>
        </extensions>
      </trkpt>
      <trkpt lat="36.81528923101723194122314453125" lon="-118.43651217408478260040283203125">
        <ele>3587.800048828125</ele>
        <time>2021-06-26T17:36:43.000Z</time>
        <extensions>
          <ns3:TrackPointExtension>
            <ns3:atemp>27.0</ns3:atemp>
            <ns3:hr>120</ns3:hr>
          </ns3:TrackPointExtension>
        </extensions>
      </trkpt>
      <trkpt lat="36.8152899853885173797607421875" lon="-118.43651510775089263916015625">
        <ele>3587.800048828125</ele>
        <time>2021-06-26T17:36:45.000Z</time>
        <extensions>
          <ns3:TrackPointExtension>
            <ns3:atemp>27.0</ns3:atemp>
            <ns3:hr>124</ns3:hr>
          </ns3:TrackPointExtension>
        </extensions>
      </trkpt>
      <trkpt lat="36.815291158854961395263671875" lon="-118.436519466340541839599609375">
        <ele>3586.60009765625</ele>
        <time>2021-06-26T17:36:48.000Z</time>
        <extensions>
          <ns3:TrackPointExtension>
            <ns3:atemp>27.0</ns3:atemp>
            <ns3:hr>124</ns3:hr>
          </ns3:TrackPointExtension>
        </extensions>
      </trkpt>
      <trkpt lat="36.81529392488300800323486328125" lon="-118.43652985990047454833984375">
        <ele>3587.800048828125</ele>
        <time>2021-06-26T17:36:55.000Z</time>
        <extensions>
          <ns3:TrackPointExtension>
            <ns3:atemp>27.0</ns3:atemp>
            <ns3:hr>123</ns3:hr>
          </ns3:TrackPointExtension>
        </extensions>
      </trkpt>
      <trkpt lat="36.8152946792542934417724609375" lon="-118.436532877385616302490234375">
        <ele>3587.800048828125</ele>
        <time>2021-06-26T17:36:57.000Z</time>
        <extensions>
          <ns3:TrackPointExtension>
            <ns3:atemp>27.0</ns3:atemp>
            <ns3:hr>123</ns3:hr>
          </ns3:TrackPointExtension>
        </extensions>
      </trkpt>
      <trkpt lat="36.81529727764427661895751953125" lon="-118.4365434385836124420166015625">
        <ele>3587.39990234375</ele>
        <time>2021-06-26T17:37:04.000Z</time>
        <extensions>
          <ns3:TrackPointExtension>
            <ns3:atemp>26.0</ns3:atemp>
            <ns3:hr>120</ns3:hr>
          </ns3:TrackPointExtension>
        </extensions>
      </trkpt>
      <trkpt lat="36.8152987025678157806396484375" lon="-118.43654938973486423492431640625">
        <ele>3586.60009765625</ele>
        <time>2021-06-26T17:37:08.000Z</time>
        <extensions>
          <ns3:TrackPointExtension>
            <ns3:atemp>26.0</ns3:atemp>
            <ns3:hr>119</ns3:hr>
          </ns3:TrackPointExtension>
        </extensions>
      </trkpt>
      <trkpt lat="36.8152993731200695037841796875" lon="-118.436552323400974273681640625">
        <ele>3586.60009765625</ele>
        <time>2021-06-26T17:37:10.000Z</time>
        <extensions>
          <ns3:TrackPointExtension>
            <ns3:atemp>26.0</ns3:atemp>
            <ns3:hr>115</ns3:hr>
          </ns3:TrackPointExtension>
        </extensions>
      </trkpt>
      <trkpt lat="36.8153007142245769500732421875" lon="-118.43655827455222606658935546875">
        <ele>3586.60009765625</ele>
        <time>2021-06-26T17:37:14.000Z</time>
        <extensions>
          <ns3:TrackPointExtension>
            <ns3:atemp>26.0</ns3:atemp>
            <ns3:hr>120</ns3:hr>
          </ns3:TrackPointExtension>
        </extensions>
      </trkpt>
      <trkpt lat="36.8153027258813381195068359375" lon="-118.436567075550556182861328125">
        <ele>3587.800048828125</ele>
        <time>2021-06-26T17:37:20.000Z</time>
        <extensions>
          <ns3:TrackPointExtension>
            <ns3:atemp>26.0</ns3:atemp>
            <ns3:hr>119</ns3:hr>
          </ns3:TrackPointExtension>
        </extensions>
      </trkpt>
      <trkpt lat="36.8153030611574649810791015625" lon="-118.4365685842931270599365234375">
        <ele>3587.60009765625</ele>
        <time>2021-06-26T17:37:21.000Z</time>
        <extensions>
          <ns3:TrackPointExtension>
            <ns3:atemp>26.0</ns3:atemp>
            <ns3:hr>121</ns3:hr>
          </ns3:TrackPointExtension>
        </extensions>
      </trkpt>
      <trkpt lat="36.815305911004543304443359375" lon="-118.43658174388110637664794921875">
        <ele>3586.60009765625</ele>
        <time>2021-06-26T17:37:30.000Z</time>
        <extensions>
          <ns3:TrackPointExtension>
            <ns3:atemp>25.0</ns3:atemp>
            <ns3:hr>120</ns3:hr>
          </ns3:TrackPointExtension>
        </extensions>
      </trkpt>
      <trkpt lat="36.815306581556797027587890625" lon="-118.43658459372818470001220703125">
        <ele>3586.60009765625</ele>
        <time>2021-06-26T17:37:32.000Z</time>
        <extensions>
          <ns3:TrackPointExtension>
            <ns3:atemp>25.0</ns3:atemp>
            <ns3:hr>117</ns3:hr>
          </ns3:TrackPointExtension>
        </extensions>
      </trkpt>
      <trkpt lat="36.8153114430606365203857421875" lon="-118.43660756014287471771240234375">
        <ele>3588</ele>
        <time>2021-06-26T17:37:48.000Z</time>
        <extensions>
          <ns3:TrackPointExtension>
            <ns3:atemp>25.0</ns3:atemp>
            <ns3:hr>116</ns3:hr>
          </ns3:TrackPointExtension>
        </extensions>
      </trkpt>
      <trkpt lat="36.81531236506998538970947265625" lon="-118.43661175109446048736572265625">
        <ele>3589</ele>
        <time>2021-06-26T17:37:51.000Z</time>
        <extensions>
          <ns3:TrackPointExtension>
            <ns3:atemp>25.0</ns3:atemp>
            <ns3:hr>112</ns3:hr>
          </ns3:TrackPointExtension>
        </extensions>
      </trkpt>
      <trkpt lat="36.815312616527080535888671875" lon="-118.4366131760179996490478515625">
        <ele>3589</ele>
        <time>2021-06-26T17:37:52.000Z</time>
        <extensions>
          <ns3:TrackPointExtension>
            <ns3:atemp>25.0</ns3:atemp>
            <ns3:hr>110</ns3:hr>
          </ns3:TrackPointExtension>
        </extensions>
      </trkpt>
      <trkpt lat="36.815313287079334259033203125" lon="-118.436616025865077972412109375">
        <ele>3589</ele>
        <time>2021-06-26T17:37:54.000Z</time>
        <extensions>
          <ns3:TrackPointExtension>
            <ns3:atemp>25.0</ns3:atemp>
            <ns3:hr>107</ns3:hr>
          </ns3:TrackPointExtension>
        </extensions>
      </trkpt>
      <trkpt lat="36.81531487964093685150146484375" lon="-118.4366230666637420654296875">
        <ele>3589.39990234375</ele>
        <time>2021-06-26T17:37:59.000Z</time>
        <extensions>
          <ns3:TrackPointExtension>
            <ns3:atemp>25.0</ns3:atemp>
            <ns3:hr>110</ns3:hr>
          </ns3:TrackPointExtension>
        </extensions>
      </trkpt>
      <trkpt lat="36.81531555019319057464599609375" lon="-118.4366259165108203887939453125">
        <ele>3590.199951171875</ele>
        <time>2021-06-26T17:38:01.000Z</time>
        <extensions>
          <ns3:TrackPointExtension>
            <ns3:atemp>25.0</ns3:atemp>
            <ns3:hr>107</ns3:hr>
          </ns3:TrackPointExtension>
        </extensions>
      </trkpt>
      <trkpt lat="36.81531588546931743621826171875" lon="-118.4366272576153278350830078125">
        <ele>3591</ele>
        <time>2021-06-26T17:38:02.000Z</time>
        <extensions>
          <ns3:TrackPointExtension>
            <ns3:atemp>25.0</ns3:atemp>
            <ns3:hr>110</ns3:hr>
          </ns3:TrackPointExtension>
        </extensions>
      </trkpt>
      <trkpt lat="36.81531965732574462890625" lon="-118.4366443566977977752685546875">
        <ele>3591.60009765625</ele>
        <time>2021-06-26T17:38:14.000Z</time>
        <extensions>
          <ns3:TrackPointExtension>
            <ns3:atemp>25.0</ns3:atemp>
            <ns3:hr>107</ns3:hr>
          </ns3:TrackPointExtension>
        </extensions>
      </trkpt>
      <trkpt lat="36.81532074697315692901611328125" lon="-118.43665014021098613739013671875">
        <ele>3593.39990234375</ele>
        <time>2021-06-26T17:38:18.000Z</time>
        <extensions>
          <ns3:TrackPointExtension>
            <ns3:atemp>25.0</ns3:atemp>
            <ns3:hr>105</ns3:hr>
          </ns3:TrackPointExtension>
        </extensions>
      </trkpt>
      <trkpt lat="36.81532376445829868316650390625" lon="-118.4366721846163272857666015625">
        <ele>3594.39990234375</ele>
        <time>2021-06-26T17:38:33.000Z</time>
        <extensions>
          <ns3:TrackPointExtension>
            <ns3:atemp>25.0</ns3:atemp>
            <ns3:hr>108</ns3:hr>
          </ns3:TrackPointExtension>
        </extensions>
      </trkpt>
      <trkpt lat="36.81532426737248897552490234375" lon="-118.4366767108440399169921875">
        <ele>3595.800048828125</ele>
        <time>2021-06-26T17:38:36.000Z</time>
        <extensions>
          <ns3:TrackPointExtension>
            <ns3:atemp>25.0</ns3:atemp>
            <ns3:hr>110</ns3:hr>
          </ns3:TrackPointExtension>
        </extensions>
      </trkpt>
      <trkpt lat="36.81532460264861583709716796875" lon="-118.436679728329181671142578125">
        <ele>3595.800048828125</ele>
        <time>2021-06-26T17:38:38.000Z</time>
        <extensions>
          <ns3:TrackPointExtension>
            <ns3:atemp>25.0</ns3:atemp>
            <ns3:hr>113</ns3:hr>
          </ns3:TrackPointExtension>
        </extensions>
      </trkpt>
      <trkpt lat="36.815326027572154998779296875" lon="-118.4366949833929538726806640625">
        <ele>3596.39990234375</ele>
        <time>2021-06-26T17:38:48.000Z</time>
        <extensions>
          <ns3:TrackPointExtension>
            <ns3:atemp>25.0</ns3:atemp>
            <ns3:hr>110</ns3:hr>
          </ns3:TrackPointExtension>
        </extensions>
      </trkpt>
      <trkpt lat="36.81532703340053558349609375" lon="-118.43670764006674289703369140625">
        <ele>3596.800048828125</ele>
        <time>2021-06-26T17:38:56.000Z</time>
        <extensions>
          <ns3:TrackPointExtension>
            <ns3:atemp>25.0</ns3:atemp>
            <ns3:hr>110</ns3:hr>
          </ns3:TrackPointExtension>
        </extensions>
      </trkpt>
      <trkpt lat="36.81532845832407474517822265625" lon="-118.4367238171398639678955078125">
        <ele>3597.800048828125</ele>
        <time>2021-06-26T17:39:06.000Z</time>
        <extensions>
          <ns3:TrackPointExtension>
            <ns3:atemp>25.0</ns3:atemp>
            <ns3:hr>110</ns3:hr>
          </ns3:TrackPointExtension>
        </extensions>
      </trkpt>
      <trkpt lat="36.81533038616180419921875" lon="-118.436740748584270477294921875">
        <ele>3599</ele>
        <time>2021-06-26T17:39:16.000Z</time>
        <extensions>
          <ns3:TrackPointExtension>
            <ns3:atemp>26.0</ns3:atemp>
            <ns3:hr>115</ns3:hr>
          </ns3:TrackPointExtension>
        </extensions>
      </trkpt>
      <trkpt lat="36.81533080525696277618408203125" lon="-118.43674418516457080841064453125">
        <ele>3599.60009765625</ele>
        <time>2021-06-26T17:39:18.000Z</time>
        <extensions>
          <ns3:TrackPointExtension>
            <ns3:atemp>26.0</ns3:atemp>
            <ns3:hr>118</ns3:hr>
          </ns3:TrackPointExtension>
        </extensions>
      </trkpt>
      <trkpt lat="36.81533097289502620697021484375" lon="-118.4367459453642368316650390625">
        <ele>3599.800048828125</ele>
        <time>2021-06-26T17:39:19.000Z</time>
        <extensions>
          <ns3:TrackPointExtension>
            <ns3:atemp>26.0</ns3:atemp>
            <ns3:hr>114</ns3:hr>
          </ns3:TrackPointExtension>
        </extensions>
      </trkpt>
      <trkpt lat="36.815331391990184783935546875" lon="-118.436749465763568878173828125">
        <ele>3599.800048828125</ele>
        <time>2021-06-26T17:39:21.000Z</time>
        <extensions>
          <ns3:TrackPointExtension>
            <ns3:atemp>26.0</ns3:atemp>
            <ns3:hr>117</ns3:hr>
          </ns3:TrackPointExtension>
        </extensions>
      </trkpt>
      <trkpt lat="36.81533164344727993011474609375" lon="-118.43675114214420318603515625">
        <ele>3600</ele>
        <time>2021-06-26T17:39:22.000Z</time>
        <extensions>
          <ns3:TrackPointExtension>
            <ns3:atemp>26.0</ns3:atemp>
            <ns3:hr>117</ns3:hr>
          </ns3:TrackPointExtension>
        </extensions>
      </trkpt>
      <trkpt lat="36.8153318949043750762939453125" lon="-118.43675290234386920928955078125">
        <ele>3600.199951171875</ele>
        <time>2021-06-26T17:39:23.000Z</time>
        <extensions>
          <ns3:TrackPointExtension>
            <ns3:atemp>26.0</ns3:atemp>
            <ns3:hr>112</ns3:hr>
          </ns3:TrackPointExtension>
        </extensions>
      </trkpt>
      <trkpt lat="36.81533264927566051483154296875" lon="-118.43675826676189899444580078125">
        <ele>3600.199951171875</ele>
        <time>2021-06-26T17:39:26.000Z</time>
        <extensions>
          <ns3:TrackPointExtension>
            <ns3:atemp>26.0</ns3:atemp>
            <ns3:hr>118</ns3:hr>
          </ns3:TrackPointExtension>
        </extensions>
      </trkpt>
      <trkpt lat="36.81533382274210453033447265625" lon="-118.43676547519862651824951171875">
        <ele>3600.800048828125</ele>
        <time>2021-06-26T17:39:30.000Z</time>
        <extensions>
          <ns3:TrackPointExtension>
            <ns3:atemp>26.0</ns3:atemp>
            <ns3:hr>121</ns3:hr>
          </ns3:TrackPointExtension>
        </extensions>
      </trkpt>
      <trkpt lat="36.81533449329435825347900390625" lon="-118.4367690794169902801513671875">
        <ele>3601.199951171875</ele>
        <time>2021-06-26T17:39:32.000Z</time>
        <extensions>
          <ns3:TrackPointExtension>
            <ns3:atemp>26.0</ns3:atemp>
            <ns3:hr>120</ns3:hr>
          </ns3:TrackPointExtension>
        </extensions>
      </trkpt>
      <trkpt lat="36.81533834896981716156005859375" lon="-118.4367893636226654052734375">
        <ele>3602.60009765625</ele>
        <time>2021-06-26T17:39:43.000Z</time>
        <extensions>
          <ns3:TrackPointExtension>
            <ns3:atemp>26.0</ns3:atemp>
            <ns3:hr>119</ns3:hr>
          </ns3:TrackPointExtension>
        </extensions>
      </trkpt>
      <trkpt lat="36.81534052826464176177978515625" lon="-118.43680051155388355255126953125">
        <ele>3603.199951171875</ele>
        <time>2021-06-26T17:39:49.000Z</time>
        <extensions>
          <ns3:TrackPointExtension>
            <ns3:atemp>26.0</ns3:atemp>
            <ns3:hr>122</ns3:hr>
          </ns3:TrackPointExtension>
        </extensions>
      </trkpt>
      <trkpt lat="36.81534455157816410064697265625" lon="-118.43682096339762210845947265625">
        <ele>3604</ele>
        <time>2021-06-26T17:40:00.000Z</time>
        <extensions>
          <ns3:TrackPointExtension>
            <ns3:atemp>26.0</ns3:atemp>
            <ns3:hr>122</ns3:hr>
          </ns3:TrackPointExtension>
        </extensions>
      </trkpt>
      <trkpt lat="36.8153456412255764007568359375" lon="-118.43682649545371532440185546875">
        <ele>3604</ele>
        <time>2021-06-26T17:40:03.000Z</time>
        <extensions>
          <ns3:TrackPointExtension>
            <ns3:atemp>26.0</ns3:atemp>
            <ns3:hr>119</ns3:hr>
          </ns3:TrackPointExtension>
        </extensions>
      </trkpt>
      <trkpt lat="36.8153466470539569854736328125" lon="-118.43683202750980854034423828125">
        <ele>3604</ele>
        <time>2021-06-26T17:40:06.000Z</time>
        <extensions>
          <ns3:TrackPointExtension>
            <ns3:atemp>26.0</ns3:atemp>
            <ns3:hr>116</ns3:hr>
          </ns3:TrackPointExtension>
        </extensions>
      </trkpt>
      <trkpt lat="36.815349161624908447265625" lon="-118.4368448518216609954833984375">
        <ele>3605</ele>
        <time>2021-06-26T17:40:13.000Z</time>
        <extensions>
          <ns3:TrackPointExtension>
            <ns3:atemp>26.0</ns3:atemp>
            <ns3:hr>114</ns3:hr>
          </ns3:TrackPointExtension>
        </extensions>
      </trkpt>
      <trkpt lat="36.81535092182457447052001953125" lon="-118.4368539042770862579345703125">
        <ele>3605.60009765625</ele>
        <time>2021-06-26T17:40:18.000Z</time>
        <extensions>
          <ns3:TrackPointExtension>
            <ns3:atemp>26.0</ns3:atemp>
            <ns3:hr>117</ns3:hr>
          </ns3:TrackPointExtension>
        </extensions>
      </trkpt>
      <trkpt lat="36.81535125710070133209228515625" lon="-118.43685574829578399658203125">
        <ele>3606.199951171875</ele>
        <time>2021-06-26T17:40:19.000Z</time>
        <extensions>
          <ns3:TrackPointExtension>
            <ns3:atemp>26.0</ns3:atemp>
            <ns3:hr>117</ns3:hr>
          </ns3:TrackPointExtension>
        </extensions>
      </trkpt>
      <trkpt lat="36.81535259820520877838134765625" lon="-118.43686304055154323577880859375">
        <ele>3606.800048828125</ele>
        <time>2021-06-26T17:40:23.000Z</time>
        <extensions>
          <ns3:TrackPointExtension>
            <ns3:atemp>26.0</ns3:atemp>
            <ns3:hr>120</ns3:hr>
          </ns3:TrackPointExtension>
        </extensions>
      </trkpt>
      <trkpt lat="36.81535326875746250152587890625" lon="-118.4368666447699069976806640625">
        <ele>3607.39990234375</ele>
        <time>2021-06-26T17:40:25.000Z</time>
        <extensions>
          <ns3:TrackPointExtension>
            <ns3:atemp>26.0</ns3:atemp>
            <ns3:hr>120</ns3:hr>
          </ns3:TrackPointExtension>
        </extensions>
      </trkpt>
      <trkpt lat="36.8153546936810016632080078125" lon="-118.43687393702566623687744140625">
        <ele>3608.39990234375</ele>
        <time>2021-06-26T17:40:29.000Z</time>
        <extensions>
          <ns3:TrackPointExtension>
            <ns3:atemp>26.0</ns3:atemp>
            <ns3:hr>119</ns3:hr>
          </ns3:TrackPointExtension>
        </extensions>
      </trkpt>
      <trkpt lat="36.815358214080333709716796875" lon="-118.43689019791781902313232421875">
        <ele>3609.199951171875</ele>
        <time>2021-06-26T17:40:38.000Z</time>
        <extensions>
          <ns3:TrackPointExtension>
            <ns3:atemp>26.0</ns3:atemp>
            <ns3:hr>116</ns3:hr>
          </ns3:TrackPointExtension>
        </extensions>
      </trkpt>
      <trkpt lat="36.81536215357482433319091796875" lon="-118.43690830282866954803466796875">
        <ele>3609.60009765625</ele>
        <time>2021-06-26T17:40:48.000Z</time>
        <extensions>
          <ns3:TrackPointExtension>
            <ns3:atemp>26.0</ns3:atemp>
            <ns3:hr>116</ns3:hr>
          </ns3:TrackPointExtension>
        </extensions>
      </trkpt>
      <trkpt lat="36.81536768563091754913330078125" lon="-118.43693311326205730438232421875">
        <ele>3610.60009765625</ele>
        <time>2021-06-26T17:41:02.000Z</time>
        <extensions>
          <ns3:TrackPointExtension>
            <ns3:atemp>26.0</ns3:atemp>
            <ns3:hr>117</ns3:hr>
          </ns3:TrackPointExtension>
        </extensions>
      </trkpt>
      <trkpt lat="36.815369613468647003173828125" lon="-118.436941914260387420654296875">
        <ele>3611</ele>
        <time>2021-06-26T17:41:07.000Z</time>
        <extensions>
          <ns3:TrackPointExtension>
            <ns3:atemp>26.0</ns3:atemp>
            <ns3:hr>114</ns3:hr>
          </ns3:TrackPointExtension>
        </extensions>
      </trkpt>
      <trkpt lat="36.81537036783993244171142578125" lon="-118.43694535084068775177001953125">
        <ele>3611.199951171875</ele>
        <time>2021-06-26T17:41:09.000Z</time>
        <extensions>
          <ns3:TrackPointExtension>
            <ns3:atemp>26.0</ns3:atemp>
            <ns3:hr>111</ns3:hr>
          </ns3:TrackPointExtension>
        </extensions>
      </trkpt>
      <trkpt lat="36.8153707869350910186767578125" lon="-118.4369471110403537750244140625">
        <ele>3611.60009765625</ele>
        <time>2021-06-26T17:41:10.000Z</time>
        <extensions>
          <ns3:TrackPointExtension>
            <ns3:atemp>26.0</ns3:atemp>
            <ns3:hr>109</ns3:hr>
          </ns3:TrackPointExtension>
        </extensions>
      </trkpt>
      <trkpt lat="36.81537154130637645721435546875" lon="-118.43695054762065410614013671875">
        <ele>3611.800048828125</ele>
        <time>2021-06-26T17:41:12.000Z</time>
        <extensions>
          <ns3:TrackPointExtension>
            <ns3:atemp>26.0</ns3:atemp>
            <ns3:hr>106</ns3:hr>
          </ns3:TrackPointExtension>
        </extensions>
      </trkpt>
      <trkpt lat="36.815374307334423065185546875" lon="-118.43696303665637969970703125">
        <ele>3612.199951171875</ele>
        <time>2021-06-26T17:41:19.000Z</time>
        <extensions>
          <ns3:TrackPointExtension>
            <ns3:atemp>26.0</ns3:atemp>
            <ns3:hr>102</ns3:hr>
          </ns3:TrackPointExtension>
        </extensions>
      </trkpt>
      <trkpt lat="36.815375648438930511474609375" lon="-118.43696848489344120025634765625">
        <ele>3612.39990234375</ele>
        <time>2021-06-26T17:41:22.000Z</time>
        <extensions>
          <ns3:TrackPointExtension>
            <ns3:atemp>26.0</ns3:atemp>
            <ns3:hr>106</ns3:hr>
          </ns3:TrackPointExtension>
        </extensions>
      </trkpt>
      <trkpt lat="36.81537657044827938079833984375" lon="-118.43697217293083667755126953125">
        <ele>3612.800048828125</ele>
        <time>2021-06-26T17:41:24.000Z</time>
        <extensions>
          <ns3:TrackPointExtension>
            <ns3:atemp>26.0</ns3:atemp>
            <ns3:hr>109</ns3:hr>
          </ns3:TrackPointExtension>
        </extensions>
      </trkpt>
      <trkpt lat="36.81537791155278682708740234375" lon="-118.43697778880596160888671875">
        <ele>3613.199951171875</ele>
        <time>2021-06-26T17:41:27.000Z</time>
        <extensions>
          <ns3:TrackPointExtension>
            <ns3:atemp>26.0</ns3:atemp>
            <ns3:hr>112</ns3:hr>
          </ns3:TrackPointExtension>
        </extensions>
      </trkpt>
      <trkpt lat="36.81537933647632598876953125" lon="-118.4369833208620548248291015625">
        <ele>3613.60009765625</ele>
        <time>2021-06-26T17:41:30.000Z</time>
        <extensions>
          <ns3:TrackPointExtension>
            <ns3:atemp>26.0</ns3:atemp>
            <ns3:hr>115</ns3:hr>
          </ns3:TrackPointExtension>
        </extensions>
      </trkpt>
      <trkpt lat="36.8153798393905162811279296875" lon="-118.43698524869978427886962890625">
        <ele>3613.800048828125</ele>
        <time>2021-06-26T17:41:31.000Z</time>
        <extensions>
          <ns3:TrackPointExtension>
            <ns3:atemp>26.0</ns3:atemp>
            <ns3:hr>115</ns3:hr>
          </ns3:TrackPointExtension>
        </extensions>
      </trkpt>
      <trkpt lat="36.8153845332562923431396484375" lon="-118.43700218014419078826904296875">
        <ele>3613.60009765625</ele>
        <time>2021-06-26T17:41:40.000Z</time>
        <extensions>
          <ns3:TrackPointExtension>
            <ns3:atemp>26.0</ns3:atemp>
            <ns3:hr>118</ns3:hr>
          </ns3:TrackPointExtension>
        </extensions>
      </trkpt>
      <trkpt lat="36.81538612581789493560791015625" lon="-118.43700787983834743499755859375">
        <ele>3614.39990234375</ele>
        <time>2021-06-26T17:41:43.000Z</time>
        <extensions>
          <ns3:TrackPointExtension>
            <ns3:atemp>26.0</ns3:atemp>
            <ns3:hr>121</ns3:hr>
          </ns3:TrackPointExtension>
        </extensions>
      </trkpt>
      <trkpt lat="36.8153872154653072357177734375" lon="-118.43701173551380634307861328125">
        <ele>3615</ele>
        <time>2021-06-26T17:41:45.000Z</time>
        <extensions>
          <ns3:TrackPointExtension>
            <ns3:atemp>26.0</ns3:atemp>
            <ns3:hr>122</ns3:hr>
          </ns3:TrackPointExtension>
        </extensions>
      </trkpt>
      <trkpt lat="36.8153935857117176055908203125" lon="-118.4370329417288303375244140625">
        <ele>3616</ele>
        <time>2021-06-26T17:41:56.000Z</time>
        <extensions>
          <ns3:TrackPointExtension>
            <ns3:atemp>26.0</ns3:atemp>
            <ns3:hr>122</ns3:hr>
          </ns3:TrackPointExtension>
        </extensions>
      </trkpt>
      <trkpt lat="36.81539819575846195220947265625" lon="-118.43704828061163425445556640625">
        <ele>3617</ele>
        <time>2021-06-26T17:42:04.000Z</time>
        <extensions>
          <ns3:TrackPointExtension>
            <ns3:atemp>26.0</ns3:atemp>
            <ns3:hr>122</ns3:hr>
          </ns3:TrackPointExtension>
        </extensions>
      </trkpt>
      <trkpt lat="36.81540749967098236083984375" lon="-118.437079377472400665283203125">
        <ele>3618.199951171875</ele>
        <time>2021-06-26T17:42:20.000Z</time>
        <extensions>
          <ns3:TrackPointExtension>
            <ns3:atemp>26.0</ns3:atemp>
            <ns3:hr>122</ns3:hr>
          </ns3:TrackPointExtension>
        </extensions>
      </trkpt>
      <trkpt lat="36.8154103495180606842041015625" lon="-118.43708910048007965087890625">
        <ele>3619</ele>
        <time>2021-06-26T17:42:25.000Z</time>
        <extensions>
          <ns3:TrackPointExtension>
            <ns3:atemp>26.0</ns3:atemp>
            <ns3:hr>119</ns3:hr>
          </ns3:TrackPointExtension>
        </extensions>
      </trkpt>
      <trkpt lat="36.8154120258986949920654296875" lon="-118.4370949678122997283935546875">
        <ele>3619.199951171875</ele>
        <time>2021-06-26T17:42:28.000Z</time>
        <extensions>
          <ns3:TrackPointExtension>
            <ns3:atemp>26.0</ns3:atemp>
            <ns3:hr>123</ns3:hr>
          </ns3:TrackPointExtension>
        </extensions>
      </trkpt>
      <trkpt lat="36.81541261263191699981689453125" lon="-118.437096811830997467041015625">
        <ele>3619.60009765625</ele>
        <time>2021-06-26T17:42:29.000Z</time>
        <extensions>
          <ns3:TrackPointExtension>
            <ns3:atemp>26.0</ns3:atemp>
            <ns3:hr>119</ns3:hr>
          </ns3:TrackPointExtension>
        </extensions>
      </trkpt>
      <trkpt lat="36.81541378609836101531982421875" lon="-118.43710075132548809051513671875">
        <ele>3619.800048828125</ele>
        <time>2021-06-26T17:42:31.000Z</time>
        <extensions>
          <ns3:TrackPointExtension>
            <ns3:atemp>26.0</ns3:atemp>
            <ns3:hr>122</ns3:hr>
          </ns3:TrackPointExtension>
        </extensions>
      </trkpt>
      <trkpt lat="36.81541546247899532318115234375" lon="-118.43710653483867645263671875">
        <ele>3620.39990234375</ele>
        <time>2021-06-26T17:42:34.000Z</time>
        <extensions>
          <ns3:TrackPointExtension>
            <ns3:atemp>26.0</ns3:atemp>
            <ns3:hr>119</ns3:hr>
          </ns3:TrackPointExtension>
        </extensions>
      </trkpt>
      <trkpt lat="36.8154200725257396697998046875" lon="-118.43712204135954380035400390625">
        <ele>3620.800048828125</ele>
        <time>2021-06-26T17:42:42.000Z</time>
        <extensions>
          <ns3:TrackPointExtension>
            <ns3:atemp>26.0</ns3:atemp>
            <ns3:hr>118</ns3:hr>
          </ns3:TrackPointExtension>
        </extensions>
      </trkpt>
      <trkpt lat="36.8154224194586277008056640625" lon="-118.4371298365294933319091796875">
        <ele>3621.199951171875</ele>
        <time>2021-06-26T17:42:46.000Z</time>
        <extensions>
          <ns3:TrackPointExtension>
            <ns3:atemp>26.0</ns3:atemp>
            <ns3:hr>121</ns3:hr>
          </ns3:TrackPointExtension>
        </extensions>
      </trkpt>
      <trkpt lat="36.8154254369437694549560546875" lon="-118.43713947571814060211181640625">
        <ele>3622.199951171875</ele>
        <time>2021-06-26T17:42:51.000Z</time>
        <extensions>
          <ns3:TrackPointExtension>
            <ns3:atemp>26.0</ns3:atemp>
            <ns3:hr>122</ns3:hr>
          </ns3:TrackPointExtension>
        </extensions>
      </trkpt>
      <trkpt lat="36.81542719714343547821044921875" lon="-118.43714517541229724884033203125">
        <ele>3622.60009765625</ele>
        <time>2021-06-26T17:42:54.000Z</time>
        <extensions>
          <ns3:TrackPointExtension>
            <ns3:atemp>26.0</ns3:atemp>
            <ns3:hr>119</ns3:hr>
          </ns3:TrackPointExtension>
        </extensions>
      </trkpt>
      <trkpt lat="36.81543088518083095550537109375" lon="-118.4371566586196422576904296875">
        <ele>3622</ele>
        <time>2021-06-26T17:43:00.000Z</time>
        <extensions>
          <ns3:TrackPointExtension>
            <ns3:atemp>26.0</ns3:atemp>
            <ns3:hr>116</ns3:hr>
          </ns3:TrackPointExtension>
        </extensions>
      </trkpt>
      <trkpt lat="36.815433986485004425048828125" lon="-118.4371662139892578125">
        <ele>3621.800048828125</ele>
        <time>2021-06-26T17:43:05.000Z</time>
        <extensions>
          <ns3:TrackPointExtension>
            <ns3:atemp>26.0</ns3:atemp>
            <ns3:hr>113</ns3:hr>
          </ns3:TrackPointExtension>
        </extensions>
      </trkpt>
      <trkpt lat="36.81543893180787563323974609375" lon="-118.4371814690530300140380859375">
        <ele>3622</ele>
        <time>2021-06-26T17:43:13.000Z</time>
        <extensions>
          <ns3:TrackPointExtension>
            <ns3:atemp>26.0</ns3:atemp>
            <ns3:hr>116</ns3:hr>
          </ns3:TrackPointExtension>
        </extensions>
      </trkpt>
      <trkpt lat="36.81544245220720767974853515625" lon="-118.43719295226037502288818359375">
        <ele>3621.800048828125</ele>
        <time>2021-06-26T17:43:19.000Z</time>
        <extensions>
          <ns3:TrackPointExtension>
            <ns3:atemp>26.0</ns3:atemp>
            <ns3:hr>113</ns3:hr>
          </ns3:TrackPointExtension>
        </extensions>
      </trkpt>
      <trkpt lat="36.81544580496847629547119140625" lon="-118.4372042678296566009521484375">
        <ele>3621.39990234375</ele>
        <time>2021-06-26T17:43:25.000Z</time>
        <extensions>
          <ns3:TrackPointExtension>
            <ns3:atemp>26.0</ns3:atemp>
            <ns3:hr>110</ns3:hr>
          </ns3:TrackPointExtension>
        </extensions>
      </trkpt>
      <trkpt lat="36.8154495768249034881591796875" lon="-118.437217511236667633056640625">
        <ele>3621.800048828125</ele>
        <time>2021-06-26T17:43:32.000Z</time>
        <extensions>
          <ns3:TrackPointExtension>
            <ns3:atemp>26.0</ns3:atemp>
            <ns3:hr>107</ns3:hr>
          </ns3:TrackPointExtension>
        </extensions>
      </trkpt>
      <trkpt lat="36.81545318104326725006103515625" lon="-118.43723067082464694976806640625">
        <ele>3621.39990234375</ele>
        <time>2021-06-26T17:43:39.000Z</time>
        <extensions>
          <ns3:TrackPointExtension>
            <ns3:atemp>26.0</ns3:atemp>
            <ns3:hr>104</ns3:hr>
          </ns3:TrackPointExtension>
        </extensions>
      </trkpt>
      <trkpt lat="36.81545418687164783477783203125" lon="-118.4372344426810741424560546875">
        <ele>3621.199951171875</ele>
        <time>2021-06-26T17:43:41.000Z</time>
        <extensions>
          <ns3:TrackPointExtension>
            <ns3:atemp>26.0</ns3:atemp>
            <ns3:hr>104</ns3:hr>
          </ns3:TrackPointExtension>
        </extensions>
      </trkpt>
      <trkpt lat="36.815459467470645904541015625" lon="-118.4372548945248126983642578125">
        <ele>3620.60009765625</ele>
        <time>2021-06-26T17:43:52.000Z</time>
        <extensions>
          <ns3:TrackPointExtension>
            <ns3:atemp>26.0</ns3:atemp>
            <ns3:hr>101</ns3:hr>
          </ns3:TrackPointExtension>
        </extensions>
      </trkpt>
      <trkpt lat="36.81546038947999477386474609375" lon="-118.43725849874317646026611328125">
        <ele>3620.60009765625</ele>
        <time>2021-06-26T17:43:54.000Z</time>
        <extensions>
          <ns3:TrackPointExtension>
            <ns3:atemp>26.0</ns3:atemp>
            <ns3:hr>98</ns3:hr>
          </ns3:TrackPointExtension>
        </extensions>
      </trkpt>
      <trkpt lat="36.8154623173177242279052734375" lon="-118.43726587481796741485595703125">
        <ele>3620.60009765625</ele>
        <time>2021-06-26T17:43:58.000Z</time>
        <extensions>
          <ns3:TrackPointExtension>
            <ns3:atemp>26.0</ns3:atemp>
            <ns3:hr>95</ns3:hr>
          </ns3:TrackPointExtension>
        </extensions>
      </trkpt>
      <trkpt lat="36.81546458043158054351806640625" lon="-118.43727492727339267730712890625">
        <ele>3620.199951171875</ele>
        <time>2021-06-26T17:44:03.000Z</time>
        <extensions>
          <ns3:TrackPointExtension>
            <ns3:atemp>26.0</ns3:atemp>
            <ns3:hr>92</ns3:hr>
          </ns3:TrackPointExtension>
        </extensions>
      </trkpt>
      <trkpt lat="36.815470196306705474853515625" lon="-118.437296636402606964111328125">
        <ele>3620.199951171875</ele>
        <time>2021-06-26T17:44:15.000Z</time>
        <extensions>
          <ns3:TrackPointExtension>
            <ns3:atemp>26.0</ns3:atemp>
            <ns3:hr>88</ns3:hr>
          </ns3:TrackPointExtension>
        </extensions>
      </trkpt>
      <trkpt lat="36.815471537411212921142578125" lon="-118.437302000820636749267578125">
        <ele>3620.199951171875</ele>
        <time>2021-06-26T17:44:18.000Z</time>
        <extensions>
          <ns3:TrackPointExtension>
            <ns3:atemp>26.0</ns3:atemp>
            <ns3:hr>85</ns3:hr>
          </ns3:TrackPointExtension>
        </extensions>
      </trkpt>
      <trkpt lat="36.815472878515720367431640625" lon="-118.43730728141963481903076171875">
        <ele>3620.199951171875</ele>
        <time>2021-06-26T17:44:21.000Z</time>
        <extensions>
          <ns3:TrackPointExtension>
            <ns3:atemp>26.0</ns3:atemp>
            <ns3:hr>82</ns3:hr>
          </ns3:TrackPointExtension>
        </extensions>
      </trkpt>
      <trkpt lat="36.815476901829242706298828125" lon="-118.4373232908546924591064453125">
        <ele>3620.199951171875</ele>
        <time>2021-06-26T17:44:30.000Z</time>
        <extensions>
          <ns3:TrackPointExtension>
            <ns3:atemp>26.0</ns3:atemp>
            <ns3:hr>79</ns3:hr>
          </ns3:TrackPointExtension>
        </extensions>
      </trkpt>
      <trkpt lat="36.81548352353274822235107421875" lon="-118.43735120259225368499755859375">
        <ele>3620.199951171875</ele>
        <time>2021-06-26T17:44:46.000Z</time>
        <extensions>
          <ns3:TrackPointExtension>
            <ns3:atemp>26.0</ns3:atemp>
            <ns3:hr>76</ns3:hr>
          </ns3:TrackPointExtension>
        </extensions>
      </trkpt>
      <trkpt lat="36.815486960113048553466796875" lon="-118.43736679293215274810791015625">
        <ele>3620.199951171875</ele>
        <time>2021-06-26T17:44:55.000Z</time>
        <extensions>
          <ns3:TrackPointExtension>
            <ns3:atemp>26.0</ns3:atemp>
            <ns3:hr>73</ns3:hr>
          </ns3:TrackPointExtension>
        </extensions>
      </trkpt>
      <trkpt lat="36.8154899775981903076171875" lon="-118.4373806230723857879638671875">
        <ele>3620.199951171875</ele>
        <time>2021-06-26T17:45:03.000Z</time>
        <extensions>
          <ns3:TrackPointExtension>
            <ns3:atemp>26.0</ns3:atemp>
            <ns3:hr>70</ns3:hr>
          </ns3:TrackPointExtension>
        </extensions>
      </trkpt>
      <trkpt lat="36.815494336187839508056640625" lon="-118.437401242554187774658203125">
        <ele>3620.199951171875</ele>
        <time>2021-06-26T17:45:15.000Z</time>
        <extensions>
          <ns3:TrackPointExtension>
            <ns3:atemp>26.0</ns3:atemp>
            <ns3:hr>73</ns3:hr>
          </ns3:TrackPointExtension>
        </extensions>
      </trkpt>
      <trkpt lat="36.815500371158123016357421875" lon="-118.43743049539625644683837890625">
        <ele>3620.199951171875</ele>
        <time>2021-06-26T17:45:33.000Z</time>
        <extensions>
          <ns3:TrackPointExtension>
            <ns3:atemp>26.0</ns3:atemp>
            <ns3:hr>76</ns3:hr>
          </ns3:TrackPointExtension>
        </extensions>
      </trkpt>
      <trkpt lat="36.81551034562289714813232421875" lon="-118.437479026615619659423828125">
        <ele>3620.199951171875</ele>
        <time>2021-06-26T17:46:04.000Z</time>
        <extensions>
          <ns3:TrackPointExtension>
            <ns3:atemp>26.0</ns3:atemp>
            <ns3:hr>73</ns3:hr>
          </ns3:TrackPointExtension>
        </extensions>
      </trkpt>
      <trkpt lat="36.81551076471805572509765625" lon="-118.43748070299625396728515625">
        <ele>3620.199951171875</ele>
        <time>2021-06-26T17:46:05.000Z</time>
        <extensions>
          <ns3:TrackPointExtension>
            <ns3:atemp>26.0</ns3:atemp>
            <ns3:hr>70</ns3:hr>
          </ns3:TrackPointExtension>
        </extensions>
      </trkpt>
      <trkpt lat="36.8155156262218952178955078125" lon="-118.4375016577541828155517578125">
        <ele>3620.199951171875</ele>
        <time>2021-06-26T17:46:18.000Z</time>
        <extensions>
          <ns3:TrackPointExtension>
            <ns3:atemp>26.0</ns3:atemp>
            <ns3:hr>73</ns3:hr>
          </ns3:TrackPointExtension>
        </extensions>
      </trkpt>
      <trkpt lat="36.8155167996883392333984375" lon="-118.43750643543899059295654296875">
        <ele>3620.199951171875</ele>
        <time>2021-06-26T17:46:21.000Z</time>
        <extensions>
          <ns3:TrackPointExtension>
            <ns3:atemp>26.0</ns3:atemp>
            <ns3:hr>72</ns3:hr>
          </ns3:TrackPointExtension>
        </extensions>
      </trkpt>
      <trkpt lat="36.8155226670205593109130859375" lon="-118.43753300607204437255859375">
        <ele>3620.199951171875</ele>
        <time>2021-06-26T17:46:38.000Z</time>
        <extensions>
          <ns3:TrackPointExtension>
            <ns3:atemp>25.0</ns3:atemp>
            <ns3:hr>73</ns3:hr>
          </ns3:TrackPointExtension>
        </extensions>
      </trkpt>
      <trkpt lat="36.81553096510469913482666015625" lon="-118.437572233378887176513671875">
        <ele>3622.800048828125</ele>
        <time>2021-06-26T17:47:04.000Z</time>
        <extensions>
          <ns3:TrackPointExtension>
            <ns3:atemp>25.0</ns3:atemp>
            <ns3:hr>73</ns3:hr>
          </ns3:TrackPointExtension>
        </extensions>
      </trkpt>
      <trkpt lat="36.81553482078015804290771484375" lon="-118.437591008841991424560546875">
        <ele>3622.39990234375</ele>
        <time>2021-06-26T17:47:17.000Z</time>
        <extensions>
          <ns3:TrackPointExtension>
            <ns3:atemp>25.0</ns3:atemp>
            <ns3:hr>70</ns3:hr>
          </ns3:TrackPointExtension>
        </extensions>
      </trkpt>
      <trkpt lat="36.8155397661030292510986328125" lon="-118.43761481344699859619140625">
        <ele>3624</ele>
        <time>2021-06-26T17:47:34.000Z</time>
        <extensions>
          <ns3:TrackPointExtension>
            <ns3:atemp>25.0</ns3:atemp>
            <ns3:hr>73</ns3:hr>
          </ns3:TrackPointExtension>
        </extensions>
      </trkpt>
      <trkpt lat="36.81554135866463184356689453125" lon="-118.43762294389307498931884765625">
        <ele>3624</ele>
        <time>2021-06-26T17:47:40.000Z</time>
        <extensions>
          <ns3:TrackPointExtension>
            <ns3:atemp>26.0</ns3:atemp>
            <ns3:hr>74</ns3:hr>
          </ns3:TrackPointExtension>
        </extensions>
      </trkpt>
      <trkpt lat="36.81554202921688556671142578125" lon="-118.43762562610208988189697265625">
        <ele>3624.199951171875</ele>
        <time>2021-06-26T17:47:42.000Z</time>
        <extensions>
          <ns3:TrackPointExtension>
            <ns3:atemp>26.0</ns3:atemp>
            <ns3:hr>77</ns3:hr>
          </ns3:TrackPointExtension>
        </extensions>
      </trkpt>
      <trkpt lat="36.815543286502361297607421875" lon="-118.43763099052011966705322265625">
        <ele>3622.60009765625</ele>
        <time>2021-06-26T17:47:46.000Z</time>
        <extensions>
          <ns3:TrackPointExtension>
            <ns3:atemp>26.0</ns3:atemp>
            <ns3:hr>77</ns3:hr>
          </ns3:TrackPointExtension>
        </extensions>
      </trkpt>
      <trkpt lat="36.8155458010733127593994140625" lon="-118.43764155171811580657958984375">
        <ele>3623</ele>
        <time>2021-06-26T17:47:54.000Z</time>
        <extensions>
          <ns3:TrackPointExtension>
            <ns3:atemp>26.0</ns3:atemp>
            <ns3:hr>80</ns3:hr>
          </ns3:TrackPointExtension>
        </extensions>
      </trkpt>
      <trkpt lat="36.8155461363494396209716796875" lon="-118.4376428090035915374755859375">
        <ele>3623.39990234375</ele>
        <time>2021-06-26T17:47:55.000Z</time>
        <extensions>
          <ns3:TrackPointExtension>
            <ns3:atemp>26.0</ns3:atemp>
            <ns3:hr>79</ns3:hr>
          </ns3:TrackPointExtension>
        </extensions>
      </trkpt>
      <trkpt lat="36.81555024348199367523193359375" lon="-118.4376595728099346160888671875">
        <ele>3623.800048828125</ele>
        <time>2021-06-26T17:48:08.000Z</time>
        <extensions>
          <ns3:TrackPointExtension>
            <ns3:atemp>26.0</ns3:atemp>
            <ns3:hr>80</ns3:hr>
          </ns3:TrackPointExtension>
        </extensions>
      </trkpt>
      <trkpt lat="36.81555175222456455230712890625" lon="-118.43766585923731327056884765625">
        <ele>3624.199951171875</ele>
        <time>2021-06-26T17:48:13.000Z</time>
        <extensions>
          <ns3:TrackPointExtension>
            <ns3:atemp>26.0</ns3:atemp>
            <ns3:hr>83</ns3:hr>
          </ns3:TrackPointExtension>
        </extensions>
      </trkpt>
      <trkpt lat="36.81555242277681827545166015625" lon="-118.43766845762729644775390625">
        <ele>3625.39990234375</ele>
        <time>2021-06-26T17:48:15.000Z</time>
        <extensions>
          <ns3:TrackPointExtension>
            <ns3:atemp>26.0</ns3:atemp>
            <ns3:hr>81</ns3:hr>
          </ns3:TrackPointExtension>
        </extensions>
      </trkpt>
      <trkpt lat="36.815553344786167144775390625" lon="-118.4376723133027553558349609375">
        <ele>3625.60009765625</ele>
        <time>2021-06-26T17:48:18.000Z</time>
        <extensions>
          <ns3:TrackPointExtension>
            <ns3:atemp>27.0</ns3:atemp>
            <ns3:hr>84</ns3:hr>
          </ns3:TrackPointExtension>
        </extensions>
      </trkpt>
      <trkpt lat="36.81555393151938915252685546875" lon="-118.43767491169273853302001953125">
        <ele>3625.60009765625</ele>
        <time>2021-06-26T17:48:20.000Z</time>
        <extensions>
          <ns3:TrackPointExtension>
            <ns3:atemp>27.0</ns3:atemp>
            <ns3:hr>87</ns3:hr>
          </ns3:TrackPointExtension>
        </extensions>
      </trkpt>
      <trkpt lat="36.81555460207164287567138671875" lon="-118.437677510082721710205078125">
        <ele>3625.60009765625</ele>
        <time>2021-06-26T17:48:22.000Z</time>
        <extensions>
          <ns3:TrackPointExtension>
            <ns3:atemp>27.0</ns3:atemp>
            <ns3:hr>91</ns3:hr>
          </ns3:TrackPointExtension>
        </extensions>
      </trkpt>
      <trkpt lat="36.8155551888048648834228515625" lon="-118.43768010847270488739013671875">
        <ele>3625.39990234375</ele>
        <time>2021-06-26T17:48:24.000Z</time>
        <extensions>
          <ns3:TrackPointExtension>
            <ns3:atemp>27.0</ns3:atemp>
            <ns3:hr>90</ns3:hr>
          </ns3:TrackPointExtension>
        </extensions>
      </trkpt>
      <trkpt lat="36.81555594317615032196044921875" lon="-118.4376827068626880645751953125">
        <ele>3625.60009765625</ele>
        <time>2021-06-26T17:48:26.000Z</time>
        <extensions>
          <ns3:TrackPointExtension>
            <ns3:atemp>27.0</ns3:atemp>
            <ns3:hr>93</ns3:hr>
          </ns3:TrackPointExtension>
        </extensions>
      </trkpt>
      <trkpt lat="36.81555627845227718353271484375" lon="-118.4376840479671955108642578125">
        <ele>3625.60009765625</ele>
        <time>2021-06-26T17:48:27.000Z</time>
        <extensions>
          <ns3:TrackPointExtension>
            <ns3:atemp>27.0</ns3:atemp>
            <ns3:hr>89</ns3:hr>
          </ns3:TrackPointExtension>
        </extensions>
      </trkpt>
      <trkpt lat="36.81555694900453090667724609375" lon="-118.43768656253814697265625">
        <ele>3626.39990234375</ele>
        <time>2021-06-26T17:48:29.000Z</time>
        <extensions>
          <ns3:TrackPointExtension>
            <ns3:atemp>27.0</ns3:atemp>
            <ns3:hr>88</ns3:hr>
          </ns3:TrackPointExtension>
        </extensions>
      </trkpt>
      <trkpt lat="36.8155592121183872222900390625" lon="-118.43769452534615993499755859375">
        <ele>3627.60009765625</ele>
        <time>2021-06-26T17:48:35.000Z</time>
        <extensions>
          <ns3:TrackPointExtension>
            <ns3:atemp>27.0</ns3:atemp>
            <ns3:hr>87</ns3:hr>
          </ns3:TrackPointExtension>
        </extensions>
      </trkpt>
      <trkpt lat="36.81556038558483123779296875" lon="-118.4376984648406505584716796875">
        <ele>3627.60009765625</ele>
        <time>2021-06-26T17:48:38.000Z</time>
        <extensions>
          <ns3:TrackPointExtension>
            <ns3:atemp>27.0</ns3:atemp>
            <ns3:hr>92</ns3:hr>
          </ns3:TrackPointExtension>
        </extensions>
      </trkpt>
      <trkpt lat="36.81556113995611667633056640625" lon="-118.4377011470496654510498046875">
        <ele>3628</ele>
        <time>2021-06-26T17:48:40.000Z</time>
        <extensions>
          <ns3:TrackPointExtension>
            <ns3:atemp>27.0</ns3:atemp>
            <ns3:hr>96</ns3:hr>
          </ns3:TrackPointExtension>
        </extensions>
      </trkpt>
      <trkpt lat="36.8155618943274021148681640625" lon="-118.4377038292586803436279296875">
        <ele>3628</ele>
        <time>2021-06-26T17:48:42.000Z</time>
        <extensions>
          <ns3:TrackPointExtension>
            <ns3:atemp>27.0</ns3:atemp>
            <ns3:hr>99</ns3:hr>
          </ns3:TrackPointExtension>
        </extensions>
      </trkpt>
      <trkpt lat="36.81556298397481441497802734375" lon="-118.43770793639123439788818359375">
        <ele>3628.199951171875</ele>
        <time>2021-06-26T17:48:45.000Z</time>
        <extensions>
          <ns3:TrackPointExtension>
            <ns3:atemp>27.0</ns3:atemp>
            <ns3:hr>102</ns3:hr>
          </ns3:TrackPointExtension>
        </extensions>
      </trkpt>
      <trkpt lat="36.81556415744125843048095703125" lon="-118.4377120435237884521484375">
        <ele>3628.60009765625</ele>
        <time>2021-06-26T17:48:48.000Z</time>
        <extensions>
          <ns3:TrackPointExtension>
            <ns3:atemp>27.0</ns3:atemp>
            <ns3:hr>102</ns3:hr>
          </ns3:TrackPointExtension>
        </extensions>
      </trkpt>
      <trkpt lat="36.81556650437414646148681640625" lon="-118.43772034160792827606201171875">
        <ele>3629.60009765625</ele>
        <time>2021-06-26T17:48:54.000Z</time>
        <extensions>
          <ns3:TrackPointExtension>
            <ns3:atemp>27.0</ns3:atemp>
            <ns3:hr>100</ns3:hr>
          </ns3:TrackPointExtension>
        </extensions>
      </trkpt>
      <trkpt lat="36.81556901894509792327880859375" lon="-118.43772880733013153076171875">
        <ele>3630.800048828125</ele>
        <time>2021-06-26T17:49:00.000Z</time>
        <extensions>
          <ns3:TrackPointExtension>
            <ns3:atemp>27.0</ns3:atemp>
            <ns3:hr>97</ns3:hr>
          </ns3:TrackPointExtension>
        </extensions>
      </trkpt>
      <trkpt lat="36.81557170115411281585693359375" lon="-118.43773727305233478546142578125">
        <ele>3631</ele>
        <time>2021-06-26T17:49:06.000Z</time>
        <extensions>
          <ns3:TrackPointExtension>
            <ns3:atemp>27.0</ns3:atemp>
            <ns3:hr>94</ns3:hr>
          </ns3:TrackPointExtension>
        </extensions>
      </trkpt>
      <trkpt lat="36.815575473010540008544921875" lon="-118.43774850480258464813232421875">
        <ele>3631.800048828125</ele>
        <time>2021-06-26T17:49:14.000Z</time>
        <extensions>
          <ns3:TrackPointExtension>
            <ns3:atemp>27.0</ns3:atemp>
            <ns3:hr>92</ns3:hr>
          </ns3:TrackPointExtension>
        </extensions>
      </trkpt>
      <trkpt lat="36.8155796639621257781982421875" lon="-118.4377611614763736724853515625">
        <ele>3633</ele>
        <time>2021-06-26T17:49:23.000Z</time>
        <extensions>
          <ns3:TrackPointExtension>
            <ns3:atemp>27.0</ns3:atemp>
            <ns3:hr>95</ns3:hr>
          </ns3:TrackPointExtension>
        </extensions>
      </trkpt>
      <trkpt lat="36.8156696856021881103515625" lon="-118.438066430389881134033203125">
        <ele>3634.800048828125</ele>
        <time>2021-06-26T17:49:31.000Z</time>
        <extensions>
          <ns3:TrackPointExtension>
            <ns3:atemp>27.0</ns3:atemp>
            <ns3:hr>94</ns3:hr>
          </ns3:TrackPointExtension>
        </extensions>
      </trkpt>
      <trkpt lat="36.81571553461253643035888671875" lon="-118.4382553584873676300048828125">
        <ele>3635</ele>
        <time>2021-06-26T17:49:33.000Z</time>
        <extensions>
          <ns3:TrackPointExtension>
            <ns3:atemp>27.0</ns3:atemp>
            <ns3:hr>93</ns3:hr>
          </ns3:TrackPointExtension>
        </extensions>
      </trkpt>
      <trkpt lat="36.81574621237814426422119140625" lon="-118.43835686333477497100830078125">
        <ele>3635</ele>
        <time>2021-06-26T17:49:34.000Z</time>
        <extensions>
          <ns3:TrackPointExtension>
            <ns3:atemp>27.0</ns3:atemp>
            <ns3:hr>94</ns3:hr>
          </ns3:TrackPointExtension>
        </extensions>
      </trkpt>
      <trkpt lat="36.81582458317279815673828125" lon="-118.43864738009870052337646484375">
        <ele>3635</ele>
        <time>2021-06-26T17:49:37.000Z</time>
        <extensions>
          <ns3:TrackPointExtension>
            <ns3:atemp>27.0</ns3:atemp>
            <ns3:hr>95</ns3:hr>
          </ns3:TrackPointExtension>
        </extensions>
      </trkpt>
      <trkpt lat="36.81586104445159435272216796875" lon="-118.43876170925796031951904296875">
        <ele>3635.39990234375</ele>
        <time>2021-06-26T17:49:39.000Z</time>
        <extensions>
          <ns3:TrackPointExtension>
            <ns3:atemp>27.0</ns3:atemp>
            <ns3:hr>96</ns3:hr>
          </ns3:TrackPointExtension>
        </extensions>
      </trkpt>
      <trkpt lat="36.8158628046512603759765625" lon="-118.43876556493341922760009765625">
        <ele>3636</ele>
        <time>2021-06-26T17:49:41.000Z</time>
        <extensions>
          <ns3:TrackPointExtension>
            <ns3:atemp>27.0</ns3:atemp>
            <ns3:hr>98</ns3:hr>
          </ns3:TrackPointExtension>
        </extensions>
      </trkpt>
      <trkpt lat="36.815859116613864898681640625" lon="-118.43876548111438751220703125">
        <ele>3636</ele>
        <time>2021-06-26T17:49:42.000Z</time>
        <extensions>
          <ns3:TrackPointExtension>
            <ns3:atemp>27.0</ns3:atemp>
            <ns3:hr>100</ns3:hr>
          </ns3:TrackPointExtension>
        </extensions>
      </trkpt>
      <trkpt lat="36.815849058330059051513671875" lon="-118.43876858241856098175048828125">
        <ele>3637</ele>
        <time>2021-06-26T17:49:46.000Z</time>
        <extensions>
          <ns3:TrackPointExtension>
            <ns3:atemp>27.0</ns3:atemp>
            <ns3:hr>100</ns3:hr>
          </ns3:TrackPointExtension>
        </extensions>
      </trkpt>
      <trkpt lat="36.8158810772001743316650390625" lon="-118.43880026601254940032958984375">
        <ele>3637.60009765625</ele>
        <time>2021-06-26T17:49:52.000Z</time>
        <extensions>
          <ns3:TrackPointExtension>
            <ns3:atemp>27.0</ns3:atemp>
            <ns3:hr>101</ns3:hr>
          </ns3:TrackPointExtension>
        </extensions>
      </trkpt>
      <trkpt lat="36.81590194813907146453857421875" lon="-118.43881669454276561737060546875">
        <ele>3637.800048828125</ele>
        <time>2021-06-26T17:50:04.000Z</time>
        <extensions>
          <ns3:TrackPointExtension>
            <ns3:atemp>27.0</ns3:atemp>
            <ns3:hr>99</ns3:hr>
          </ns3:TrackPointExtension>
        </extensions>
      </trkpt>
      <trkpt lat="36.8159085698425769805908203125" lon="-118.43881317414343357086181640625">
        <ele>3638.39990234375</ele>
        <time>2021-06-26T17:50:06.000Z</time>
        <extensions>
          <ns3:TrackPointExtension>
            <ns3:atemp>27.0</ns3:atemp>
            <ns3:hr>99</ns3:hr>
          </ns3:TrackPointExtension>
        </extensions>
      </trkpt>
      <trkpt lat="36.81591452099382877349853515625" lon="-118.43880026601254940032958984375">
        <ele>3639.60009765625</ele>
        <time>2021-06-26T17:50:09.000Z</time>
        <extensions>
          <ns3:TrackPointExtension>
            <ns3:atemp>27.0</ns3:atemp>
            <ns3:hr>99</ns3:hr>
          </ns3:TrackPointExtension>
        </extensions>
      </trkpt>
      <trkpt lat="36.81592759676277637481689453125" lon="-118.4387964941561222076416015625">
        <ele>3640.199951171875</ele>
        <time>2021-06-26T17:50:11.000Z</time>
        <extensions>
          <ns3:TrackPointExtension>
            <ns3:atemp>27.0</ns3:atemp>
            <ns3:hr>104</ns3:hr>
          </ns3:TrackPointExtension>
        </extensions>
      </trkpt>
      <trkpt lat="36.81593455374240875244140625" lon="-118.43878836371004581451416015625">
        <ele>3640.199951171875</ele>
        <time>2021-06-26T17:50:13.000Z</time>
        <extensions>
          <ns3:TrackPointExtension>
            <ns3:atemp>27.0</ns3:atemp>
            <ns3:hr>102</ns3:hr>
          </ns3:TrackPointExtension>
        </extensions>
      </trkpt>
      <trkpt lat="36.815938912332057952880859375" lon="-118.4387830831110477447509765625">
        <ele>3641.199951171875</ele>
        <time>2021-06-26T17:50:17.000Z</time>
        <extensions>
          <ns3:TrackPointExtension>
            <ns3:atemp>27.0</ns3:atemp>
            <ns3:hr>101</ns3:hr>
          </ns3:TrackPointExtension>
        </extensions>
      </trkpt>
      <trkpt lat="36.81594637222588062286376953125" lon="-118.4387874417006969451904296875">
        <ele>3641.199951171875</ele>
        <time>2021-06-26T17:50:20.000Z</time>
        <extensions>
          <ns3:TrackPointExtension>
            <ns3:atemp>27.0</ns3:atemp>
            <ns3:hr>101</ns3:hr>
          </ns3:TrackPointExtension>
        </extensions>
      </trkpt>
      <trkpt lat="36.81595324538648128509521484375" lon="-118.43879766762256622314453125">
        <ele>3641</ele>
        <time>2021-06-26T17:50:24.000Z</time>
        <extensions>
          <ns3:TrackPointExtension>
            <ns3:atemp>27.0</ns3:atemp>
            <ns3:hr>104</ns3:hr>
          </ns3:TrackPointExtension>
        </extensions>
      </trkpt>
      <trkpt lat="36.8159618787467479705810546875" lon="-118.4388038702309131622314453125">
        <ele>3641.39990234375</ele>
        <time>2021-06-26T17:50:27.000Z</time>
        <extensions>
          <ns3:TrackPointExtension>
            <ns3:atemp>26.0</ns3:atemp>
            <ns3:hr>102</ns3:hr>
          </ns3:TrackPointExtension>
        </extensions>
      </trkpt>
      <trkpt lat="36.81596632115542888641357421875" lon="-118.43880764208734035491943359375">
        <ele>3642.60009765625</ele>
        <time>2021-06-26T17:50:30.000Z</time>
        <extensions>
          <ns3:TrackPointExtension>
            <ns3:atemp>26.0</ns3:atemp>
            <ns3:hr>101</ns3:hr>
          </ns3:TrackPointExtension>
        </extensions>
      </trkpt>
      <trkpt lat="36.81596263311803340911865234375" lon="-118.4388075582683086395263671875">
        <ele>3644</ele>
        <time>2021-06-26T17:50:32.000Z</time>
        <extensions>
          <ns3:TrackPointExtension>
            <ns3:atemp>26.0</ns3:atemp>
            <ns3:hr>100</ns3:hr>
          </ns3:TrackPointExtension>
        </extensions>
      </trkpt>
      <trkpt lat="36.8159762956202030181884765625" lon="-118.43883262015879154205322265625">
        <ele>3644.199951171875</ele>
        <time>2021-06-26T17:50:36.000Z</time>
        <extensions>
          <ns3:TrackPointExtension>
            <ns3:atemp>26.0</ns3:atemp>
            <ns3:hr>101</ns3:hr>
          </ns3:TrackPointExtension>
        </extensions>
      </trkpt>
      <trkpt lat="36.815968416631221771240234375" lon="-118.4388491325080394744873046875">
        <ele>3645.60009765625</ele>
        <time>2021-06-26T17:50:43.000Z</time>
        <extensions>
          <ns3:TrackPointExtension>
            <ns3:atemp>26.0</ns3:atemp>
            <ns3:hr>102</ns3:hr>
          </ns3:TrackPointExtension>
        </extensions>
      </trkpt>
      <trkpt lat="36.81597922928631305694580078125" lon="-118.43885541893541812896728515625">
        <ele>3646</ele>
        <time>2021-06-26T17:50:45.000Z</time>
        <extensions>
          <ns3:TrackPointExtension>
            <ns3:atemp>26.0</ns3:atemp>
            <ns3:hr>105</ns3:hr>
          </ns3:TrackPointExtension>
        </extensions>
      </trkpt>
      <trkpt lat="36.81598241440951824188232421875" lon="-118.4388546645641326904296875">
        <ele>3646</ele>
        <time>2021-06-26T17:50:46.000Z</time>
        <extensions>
          <ns3:TrackPointExtension>
            <ns3:atemp>26.0</ns3:atemp>
            <ns3:hr>102</ns3:hr>
          </ns3:TrackPointExtension>
        </extensions>
      </trkpt>
      <trkpt lat="36.81599490344524383544921875" lon="-118.4388645552098751068115234375">
        <ele>3646.800048828125</ele>
        <time>2021-06-26T17:50:49.000Z</time>
        <extensions>
          <ns3:TrackPointExtension>
            <ns3:atemp>26.0</ns3:atemp>
            <ns3:hr>101</ns3:hr>
          </ns3:TrackPointExtension>
        </extensions>
      </trkpt>
      <trkpt lat="36.8160103261470794677734375" lon="-118.438872434198856353759765625">
        <ele>3647</ele>
        <time>2021-06-26T17:50:53.000Z</time>
        <extensions>
          <ns3:TrackPointExtension>
            <ns3:atemp>26.0</ns3:atemp>
            <ns3:hr>101</ns3:hr>
          </ns3:TrackPointExtension>
        </extensions>
      </trkpt>
      <trkpt lat="36.81602197699248790740966796875" lon="-118.43888089992105960845947265625">
        <ele>3647.60009765625</ele>
        <time>2021-06-26T17:50:57.000Z</time>
        <extensions>
          <ns3:TrackPointExtension>
            <ns3:atemp>26.0</ns3:atemp>
            <ns3:hr>97</ns3:hr>
          </ns3:TrackPointExtension>
        </extensions>
      </trkpt>
      <trkpt lat="36.81602667085826396942138671875" lon="-118.4388923831284046173095703125">
        <ele>3647.800048828125</ele>
        <time>2021-06-26T17:51:02.000Z</time>
        <extensions>
          <ns3:TrackPointExtension>
            <ns3:atemp>26.0</ns3:atemp>
            <ns3:hr>98</ns3:hr>
          </ns3:TrackPointExtension>
        </extensions>
      </trkpt>
      <trkpt lat="36.81602315045893192291259765625" lon="-118.4388853423297405242919921875">
        <ele>3649.199951171875</ele>
        <time>2021-06-26T17:51:15.000Z</time>
        <extensions>
          <ns3:TrackPointExtension>
            <ns3:atemp>26.0</ns3:atemp>
            <ns3:hr>100</ns3:hr>
          </ns3:TrackPointExtension>
        </extensions>
      </trkpt>
      <trkpt lat="36.81602172553539276123046875" lon="-118.43888106755912303924560546875">
        <ele>3650</ele>
        <time>2021-06-26T17:51:20.000Z</time>
        <extensions>
          <ns3:TrackPointExtension>
            <ns3:atemp>26.0</ns3:atemp>
            <ns3:hr>104</ns3:hr>
          </ns3:TrackPointExtension>
        </extensions>
      </trkpt>
      <trkpt lat="36.81602046824991703033447265625" lon="-118.438877798616886138916015625">
        <ele>3650.39990234375</ele>
        <time>2021-06-26T17:51:21.000Z</time>
        <extensions>
          <ns3:TrackPointExtension>
            <ns3:atemp>26.0</ns3:atemp>
            <ns3:hr>105</ns3:hr>
          </ns3:TrackPointExtension>
        </extensions>
      </trkpt>
      <trkpt lat="36.8160049617290496826171875" lon="-118.43887335620820522308349609375">
        <ele>3650.39990234375</ele>
        <time>2021-06-26T17:51:23.000Z</time>
        <extensions>
          <ns3:TrackPointExtension>
            <ns3:atemp>26.0</ns3:atemp>
            <ns3:hr>108</ns3:hr>
          </ns3:TrackPointExtension>
        </extensions>
      </trkpt>
      <trkpt lat="36.815999932587146759033203125" lon="-118.43887335620820522308349609375">
        <ele>3652.199951171875</ele>
        <time>2021-06-26T17:51:28.000Z</time>
        <extensions>
          <ns3:TrackPointExtension>
            <ns3:atemp>26.0</ns3:atemp>
            <ns3:hr>108</ns3:hr>
          </ns3:TrackPointExtension>
        </extensions>
      </trkpt>
      <trkpt lat="36.815999932587146759033203125" lon="-118.43887335620820522308349609375">
        <ele>3652.199951171875</ele>
        <time>2021-06-26T17:51:31.000Z</time>
        <extensions>
          <ns3:TrackPointExtension>
            <ns3:atemp>26.0</ns3:atemp>
            <ns3:hr>105</ns3:hr>
          </ns3:TrackPointExtension>
        </extensions>
      </trkpt>
      <trkpt lat="36.815999932587146759033203125" lon="-118.43887335620820522308349609375">
        <ele>3652.199951171875</ele>
        <time>2021-06-26T17:51:36.000Z</time>
        <extensions>
          <ns3:TrackPointExtension>
            <ns3:atemp>26.0</ns3:atemp>
            <ns3:hr>102</ns3:hr>
          </ns3:TrackPointExtension>
        </extensions>
      </trkpt>
      <trkpt lat="36.8160024471580982208251953125" lon="-118.438894562423229217529296875">
        <ele>3653.199951171875</ele>
        <time>2021-06-26T17:51:40.000Z</time>
        <extensions>
          <ns3:TrackPointExtension>
            <ns3:atemp>26.0</ns3:atemp>
            <ns3:hr>102</ns3:hr>
          </ns3:TrackPointExtension>
        </extensions>
      </trkpt>
      <trkpt lat="36.81602398864924907684326171875" lon="-118.43892431817948818206787109375">
        <ele>3654.39990234375</ele>
        <time>2021-06-26T17:51:45.000Z</time>
        <extensions>
          <ns3:TrackPointExtension>
            <ns3:atemp>26.0</ns3:atemp>
            <ns3:hr>103</ns3:hr>
          </ns3:TrackPointExtension>
        </extensions>
      </trkpt>
      <trkpt lat="36.816068328917026519775390625" lon="-118.4389507211744785308837890625">
        <ele>3655.199951171875</ele>
        <time>2021-06-26T17:51:51.000Z</time>
        <extensions>
          <ns3:TrackPointExtension>
            <ns3:atemp>26.0</ns3:atemp>
            <ns3:hr>106</ns3:hr>
          </ns3:TrackPointExtension>
        </extensions>
      </trkpt>
      <trkpt lat="36.8160720169544219970703125" lon="-118.4389617852866649627685546875">
        <ele>3656</ele>
        <time>2021-06-26T17:51:53.000Z</time>
        <extensions>
          <ns3:TrackPointExtension>
            <ns3:atemp>26.0</ns3:atemp>
            <ns3:hr>106</ns3:hr>
          </ns3:TrackPointExtension>
        </extensions>
      </trkpt>
      <trkpt lat="36.81607612408697605133056640625" lon="-118.4389753639698028564453125">
        <ele>3656.199951171875</ele>
        <time>2021-06-26T17:51:56.000Z</time>
        <extensions>
          <ns3:TrackPointExtension>
            <ns3:atemp>26.0</ns3:atemp>
            <ns3:hr>103</ns3:hr>
          </ns3:TrackPointExtension>
        </extensions>
      </trkpt>
      <trkpt lat="36.81607805192470550537109375" lon="-118.4389842487871646881103515625">
        <ele>3656.800048828125</ele>
        <time>2021-06-26T17:52:01.000Z</time>
        <extensions>
          <ns3:TrackPointExtension>
            <ns3:atemp>26.0</ns3:atemp>
            <ns3:hr>108</ns3:hr>
          </ns3:TrackPointExtension>
        </extensions>
      </trkpt>
      <trkpt lat="36.81607813574373722076416015625" lon="-118.4389859251677989959716796875">
        <ele>3657</ele>
        <time>2021-06-26T17:52:02.000Z</time>
        <extensions>
          <ns3:TrackPointExtension>
            <ns3:atemp>26.0</ns3:atemp>
            <ns3:hr>108</ns3:hr>
          </ns3:TrackPointExtension>
        </extensions>
      </trkpt>
      <trkpt lat="36.81607830338180065155029296875" lon="-118.43898902647197246551513671875">
        <ele>3657</ele>
        <time>2021-06-26T17:52:03.000Z</time>
        <extensions>
          <ns3:TrackPointExtension>
            <ns3:atemp>26.0</ns3:atemp>
            <ns3:hr>109</ns3:hr>
          </ns3:TrackPointExtension>
        </extensions>
      </trkpt>
      <trkpt lat="36.81608199141919612884521484375" lon="-118.438996486365795135498046875">
        <ele>3657.39990234375</ele>
        <time>2021-06-26T17:52:07.000Z</time>
        <extensions>
          <ns3:TrackPointExtension>
            <ns3:atemp>26.0</ns3:atemp>
            <ns3:hr>106</ns3:hr>
          </ns3:TrackPointExtension>
        </extensions>
      </trkpt>
      <trkpt lat="36.8160976655781269073486328125" lon="-118.43900620937347412109375">
        <ele>3658</ele>
        <time>2021-06-26T17:52:12.000Z</time>
        <extensions>
          <ns3:TrackPointExtension>
            <ns3:atemp>26.0</ns3:atemp>
            <ns3:hr>108</ns3:hr>
          </ns3:TrackPointExtension>
        </extensions>
      </trkpt>
      <trkpt lat="36.816108226776123046875" lon="-118.43900931067764759063720703125">
        <ele>3657.800048828125</ele>
        <time>2021-06-26T17:52:16.000Z</time>
        <extensions>
          <ns3:TrackPointExtension>
            <ns3:atemp>26.0</ns3:atemp>
            <ns3:hr>104</ns3:hr>
          </ns3:TrackPointExtension>
        </extensions>
      </trkpt>
      <trkpt lat="36.81610881350934505462646484375" lon="-118.43905524350702762603759765625">
        <ele>3658.199951171875</ele>
        <time>2021-06-26T17:52:29.000Z</time>
        <extensions>
          <ns3:TrackPointExtension>
            <ns3:atemp>26.0</ns3:atemp>
            <ns3:hr>108</ns3:hr>
          </ns3:TrackPointExtension>
        </extensions>
      </trkpt>
      <trkpt lat="36.81609288789331912994384765625" lon="-118.43907318077981472015380859375">
        <ele>3658.60009765625</ele>
        <time>2021-06-26T17:52:37.000Z</time>
        <extensions>
          <ns3:TrackPointExtension>
            <ns3:atemp>26.0</ns3:atemp>
            <ns3:hr>107</ns3:hr>
          </ns3:TrackPointExtension>
        </extensions>
      </trkpt>
      <trkpt lat="36.8160889483988285064697265625" lon="-118.43907527625560760498046875">
        <ele>3659.199951171875</ele>
        <time>2021-06-26T17:52:42.000Z</time>
        <extensions>
          <ns3:TrackPointExtension>
            <ns3:atemp>26.0</ns3:atemp>
            <ns3:hr>106</ns3:hr>
          </ns3:TrackPointExtension>
        </extensions>
      </trkpt>
      <trkpt lat="36.8160881102085113525390625" lon="-118.43908055685460567474365234375">
        <ele>3660.199951171875</ele>
        <time>2021-06-26T17:52:46.000Z</time>
        <extensions>
          <ns3:TrackPointExtension>
            <ns3:atemp>26.0</ns3:atemp>
            <ns3:hr>107</ns3:hr>
          </ns3:TrackPointExtension>
        </extensions>
      </trkpt>
      <trkpt lat="36.81608802638947963714599609375" lon="-118.43908466398715972900390625">
        <ele>3661.199951171875</ele>
        <time>2021-06-26T17:52:51.000Z</time>
        <extensions>
          <ns3:TrackPointExtension>
            <ns3:atemp>25.0</ns3:atemp>
            <ns3:hr>104</ns3:hr>
          </ns3:TrackPointExtension>
        </extensions>
      </trkpt>
      <trkpt lat="36.81608802638947963714599609375" lon="-118.43908608891069889068603515625">
        <ele>3661.39990234375</ele>
        <time>2021-06-26T17:52:53.000Z</time>
        <extensions>
          <ns3:TrackPointExtension>
            <ns3:atemp>25.0</ns3:atemp>
            <ns3:hr>104</ns3:hr>
          </ns3:TrackPointExtension>
        </extensions>
      </trkpt>
      <trkpt lat="36.81608836166560649871826171875" lon="-118.43908860348165035247802734375">
        <ele>3661.800048828125</ele>
        <time>2021-06-26T17:52:56.000Z</time>
        <extensions>
          <ns3:TrackPointExtension>
            <ns3:atemp>25.0</ns3:atemp>
            <ns3:hr>101</ns3:hr>
          </ns3:TrackPointExtension>
        </extensions>
      </trkpt>
      <trkpt lat="36.81608869694173336029052734375" lon="-118.43909011222422122955322265625">
        <ele>3662</ele>
        <time>2021-06-26T17:52:57.000Z</time>
        <extensions>
          <ns3:TrackPointExtension>
            <ns3:atemp>25.0</ns3:atemp>
            <ns3:hr>104</ns3:hr>
          </ns3:TrackPointExtension>
        </extensions>
      </trkpt>
      <trkpt lat="36.81608903221786022186279296875" lon="-118.43909262679517269134521484375">
        <ele>3662.60009765625</ele>
        <time>2021-06-26T17:52:58.000Z</time>
        <extensions>
          <ns3:TrackPointExtension>
            <ns3:atemp>25.0</ns3:atemp>
            <ns3:hr>104</ns3:hr>
          </ns3:TrackPointExtension>
        </extensions>
      </trkpt>
      <trkpt lat="36.81609657593071460723876953125" lon="-118.4391002543270587921142578125">
        <ele>3662.60009765625</ele>
        <time>2021-06-26T17:53:01.000Z</time>
        <extensions>
          <ns3:TrackPointExtension>
            <ns3:atemp>25.0</ns3:atemp>
            <ns3:hr>100</ns3:hr>
          </ns3:TrackPointExtension>
        </extensions>
      </trkpt>
      <trkpt lat="36.81610579602420330047607421875" lon="-118.4391032718122005462646484375">
        <ele>3662.60009765625</ele>
        <time>2021-06-26T17:53:03.000Z</time>
        <extensions>
          <ns3:TrackPointExtension>
            <ns3:atemp>25.0</ns3:atemp>
            <ns3:hr>97</ns3:hr>
          </ns3:TrackPointExtension>
        </extensions>
      </trkpt>
      <trkpt lat="36.816119290888309478759765625" lon="-118.4391067922115325927734375">
        <ele>3663</ele>
        <time>2021-06-26T17:53:06.000Z</time>
        <extensions>
          <ns3:TrackPointExtension>
            <ns3:atemp>25.0</ns3:atemp>
            <ns3:hr>94</ns3:hr>
          </ns3:TrackPointExtension>
        </extensions>
      </trkpt>
      <trkpt lat="36.81613144464790821075439453125" lon="-118.439111150801181793212890625">
        <ele>3663.60009765625</ele>
        <time>2021-06-26T17:53:09.000Z</time>
        <extensions>
          <ns3:TrackPointExtension>
            <ns3:atemp>25.0</ns3:atemp>
            <ns3:hr>95</ns3:hr>
          </ns3:TrackPointExtension>
        </extensions>
      </trkpt>
      <trkpt lat="36.81613714434206485748291015625" lon="-118.43911341391503810882568359375">
        <ele>3663.60009765625</ele>
        <time>2021-06-26T17:53:11.000Z</time>
        <extensions>
          <ns3:TrackPointExtension>
            <ns3:atemp>25.0</ns3:atemp>
            <ns3:hr>98</ns3:hr>
          </ns3:TrackPointExtension>
        </extensions>
      </trkpt>
      <trkpt lat="36.8161469511687755584716796875" lon="-118.43911685049533843994140625">
        <ele>3663.60009765625</ele>
        <time>2021-06-26T17:53:14.000Z</time>
        <extensions>
          <ns3:TrackPointExtension>
            <ns3:atemp>25.0</ns3:atemp>
            <ns3:hr>95</ns3:hr>
          </ns3:TrackPointExtension>
        </extensions>
      </trkpt>
      <trkpt lat="36.8161503039300441741943359375" lon="-118.4391190297901630401611328125">
        <ele>3663.60009765625</ele>
        <time>2021-06-26T17:53:16.000Z</time>
        <extensions>
          <ns3:TrackPointExtension>
            <ns3:atemp>25.0</ns3:atemp>
            <ns3:hr>98</ns3:hr>
          </ns3:TrackPointExtension>
        </extensions>
      </trkpt>
      <trkpt lat="36.81615206412971019744873046875" lon="-118.43912179581820964813232421875">
        <ele>3664.60009765625</ele>
        <time>2021-06-26T17:53:19.000Z</time>
        <extensions>
          <ns3:TrackPointExtension>
            <ns3:atemp>25.0</ns3:atemp>
            <ns3:hr>101</ns3:hr>
          </ns3:TrackPointExtension>
        </extensions>
      </trkpt>
      <trkpt lat="36.8161526508629322052001953125" lon="-118.4391317702829837799072265625">
        <ele>3664.39990234375</ele>
        <time>2021-06-26T17:53:24.000Z</time>
        <extensions>
          <ns3:TrackPointExtension>
            <ns3:atemp>25.0</ns3:atemp>
            <ns3:hr>104</ns3:hr>
          </ns3:TrackPointExtension>
        </extensions>
      </trkpt>
      <trkpt lat="36.81615273468196392059326171875" lon="-118.43913788907229900360107421875">
        <ele>3664.800048828125</ele>
        <time>2021-06-26T17:53:27.000Z</time>
        <extensions>
          <ns3:TrackPointExtension>
            <ns3:atemp>25.0</ns3:atemp>
            <ns3:hr>104</ns3:hr>
          </ns3:TrackPointExtension>
        </extensions>
      </trkpt>
      <trkpt lat="36.81615206412971019744873046875" lon="-118.43914543278515338897705078125">
        <ele>3665.39990234375</ele>
        <time>2021-06-26T17:53:31.000Z</time>
        <extensions>
          <ns3:TrackPointExtension>
            <ns3:atemp>25.0</ns3:atemp>
            <ns3:hr>107</ns3:hr>
          </ns3:TrackPointExtension>
        </extensions>
      </trkpt>
      <trkpt lat="36.81615139357745647430419921875" lon="-118.43914761207997798919677734375">
        <ele>3666</ele>
        <time>2021-06-26T17:53:32.000Z</time>
        <extensions>
          <ns3:TrackPointExtension>
            <ns3:atemp>25.0</ns3:atemp>
            <ns3:hr>107</ns3:hr>
          </ns3:TrackPointExtension>
        </extensions>
      </trkpt>
      <trkpt lat="36.816150136291980743408203125" lon="-118.439152054488658905029296875">
        <ele>3666.39990234375</ele>
        <time>2021-06-26T17:53:35.000Z</time>
        <extensions>
          <ns3:TrackPointExtension>
            <ns3:atemp>25.0</ns3:atemp>
            <ns3:hr>104</ns3:hr>
          </ns3:TrackPointExtension>
        </extensions>
      </trkpt>
      <trkpt lat="36.81614954955875873565673828125" lon="-118.4391595982015132904052734375">
        <ele>3667.199951171875</ele>
        <time>2021-06-26T17:53:41.000Z</time>
        <extensions>
          <ns3:TrackPointExtension>
            <ns3:atemp>25.0</ns3:atemp>
            <ns3:hr>105</ns3:hr>
          </ns3:TrackPointExtension>
        </extensions>
      </trkpt>
      <trkpt lat="36.81615038774907588958740234375" lon="-118.4391663037240505218505859375">
        <ele>3668.39990234375</ele>
        <time>2021-06-26T17:53:48.000Z</time>
        <extensions>
          <ns3:TrackPointExtension>
            <ns3:atemp>25.0</ns3:atemp>
            <ns3:hr>102</ns3:hr>
          </ns3:TrackPointExtension>
        </extensions>
      </trkpt>
      <trkpt lat="36.816156841814517974853515625" lon="-118.43917787075042724609375">
        <ele>3669</ele>
        <time>2021-06-26T17:53:54.000Z</time>
        <extensions>
          <ns3:TrackPointExtension>
            <ns3:atemp>25.0</ns3:atemp>
            <ns3:hr>105</ns3:hr>
          </ns3:TrackPointExtension>
        </extensions>
      </trkpt>
      <trkpt lat="36.816167570650577545166015625" lon="-118.43918365426361560821533203125">
        <ele>3669.60009765625</ele>
        <time>2021-06-26T17:53:59.000Z</time>
        <extensions>
          <ns3:TrackPointExtension>
            <ns3:atemp>25.0</ns3:atemp>
            <ns3:hr>104</ns3:hr>
          </ns3:TrackPointExtension>
        </extensions>
      </trkpt>
      <trkpt lat="36.81617469526827335357666015625" lon="-118.43918734230101108551025390625">
        <ele>3670.199951171875</ele>
        <time>2021-06-26T17:54:04.000Z</time>
        <extensions>
          <ns3:TrackPointExtension>
            <ns3:atemp>25.0</ns3:atemp>
            <ns3:hr>107</ns3:hr>
          </ns3:TrackPointExtension>
        </extensions>
      </trkpt>
      <trkpt lat="36.8161761201918125152587890625" lon="-118.43918801285326480865478515625">
        <ele>3670.60009765625</ele>
        <time>2021-06-26T17:54:05.000Z</time>
        <extensions>
          <ns3:TrackPointExtension>
            <ns3:atemp>25.0</ns3:atemp>
            <ns3:hr>108</ns3:hr>
          </ns3:TrackPointExtension>
        </extensions>
      </trkpt>
      <trkpt lat="36.81618927977979183197021484375" lon="-118.43919287435710430145263671875">
        <ele>3671.60009765625</ele>
        <time>2021-06-26T17:54:13.000Z</time>
        <extensions>
          <ns3:TrackPointExtension>
            <ns3:atemp>25.0</ns3:atemp>
            <ns3:hr>108</ns3:hr>
          </ns3:TrackPointExtension>
        </extensions>
      </trkpt>
      <trkpt lat="36.81619799695909023284912109375" lon="-118.43919555656611919403076171875">
        <ele>3672.800048828125</ele>
        <time>2021-06-26T17:54:20.000Z</time>
        <extensions>
          <ns3:TrackPointExtension>
            <ns3:atemp>25.0</ns3:atemp>
            <ns3:hr>107</ns3:hr>
          </ns3:TrackPointExtension>
        </extensions>
      </trkpt>
      <trkpt lat="36.81619900278747081756591796875" lon="-118.43919639475643634796142578125">
        <ele>3673</ele>
        <time>2021-06-26T17:54:22.000Z</time>
        <extensions>
          <ns3:TrackPointExtension>
            <ns3:atemp>25.0</ns3:atemp>
            <ns3:hr>110</ns3:hr>
          </ns3:TrackPointExtension>
        </extensions>
      </trkpt>
      <trkpt lat="36.81619984097778797149658203125" lon="-118.43919790349900722503662109375">
        <ele>3674</ele>
        <time>2021-06-26T17:54:33.000Z</time>
        <extensions>
          <ns3:TrackPointExtension>
            <ns3:atemp>25.0</ns3:atemp>
            <ns3:hr>109</ns3:hr>
          </ns3:TrackPointExtension>
        </extensions>
      </trkpt>
      <trkpt lat="36.81620017625391483306884765625" lon="-118.43919924460351467132568359375">
        <ele>3673.800048828125</ele>
        <time>2021-06-26T17:54:41.000Z</time>
        <extensions>
          <ns3:TrackPointExtension>
            <ns3:atemp>25.0</ns3:atemp>
            <ns3:hr>105</ns3:hr>
          </ns3:TrackPointExtension>
        </extensions>
      </trkpt>
      <trkpt lat="36.81620067916810512542724609375" lon="-118.43920125626027584075927734375">
        <ele>3674.800048828125</ele>
        <time>2021-06-26T17:54:51.000Z</time>
        <extensions>
          <ns3:TrackPointExtension>
            <ns3:atemp>25.0</ns3:atemp>
            <ns3:hr>108</ns3:hr>
          </ns3:TrackPointExtension>
        </extensions>
      </trkpt>
      <trkpt lat="36.81620084680616855621337890625" lon="-118.439201675355434417724609375">
        <ele>3675</ele>
        <time>2021-06-26T17:54:53.000Z</time>
        <extensions>
          <ns3:TrackPointExtension>
            <ns3:atemp>25.0</ns3:atemp>
            <ns3:hr>112</ns3:hr>
          </ns3:TrackPointExtension>
        </extensions>
      </trkpt>
      <trkpt lat="36.81620143353939056396484375" lon="-118.43920360319316387176513671875">
        <ele>3675.39990234375</ele>
        <time>2021-06-26T17:55:02.000Z</time>
        <extensions>
          <ns3:TrackPointExtension>
            <ns3:atemp>25.0</ns3:atemp>
            <ns3:hr>115</ns3:hr>
          </ns3:TrackPointExtension>
        </extensions>
      </trkpt>
      <trkpt lat="36.816202104091644287109375" lon="-118.43920578248798847198486328125">
        <ele>3675.199951171875</ele>
        <time>2021-06-26T17:55:12.000Z</time>
        <extensions>
          <ns3:TrackPointExtension>
            <ns3:atemp>25.0</ns3:atemp>
            <ns3:hr>112</ns3:hr>
          </ns3:TrackPointExtension>
        </extensions>
      </trkpt>
      <trkpt lat="36.8162026070058345794677734375" lon="-118.43920829705893993377685546875">
        <ele>3674.60009765625</ele>
        <time>2021-06-26T17:55:22.000Z</time>
        <extensions>
          <ns3:TrackPointExtension>
            <ns3:atemp>25.0</ns3:atemp>
            <ns3:hr>109</ns3:hr>
          </ns3:TrackPointExtension>
        </extensions>
      </trkpt>
      <trkpt lat="36.81620352901518344879150390625" lon="-118.43921332620084285736083984375">
        <ele>3676</ele>
        <time>2021-06-26T17:55:42.000Z</time>
        <extensions>
          <ns3:TrackPointExtension>
            <ns3:atemp>25.0</ns3:atemp>
            <ns3:hr>106</ns3:hr>
          </ns3:TrackPointExtension>
        </extensions>
      </trkpt>
      <trkpt lat="36.8162036128342151641845703125" lon="-118.4392135776579380035400390625">
        <ele>3676.199951171875</ele>
        <time>2021-06-26T17:55:43.000Z</time>
        <extensions>
          <ns3:TrackPointExtension>
            <ns3:atemp>25.0</ns3:atemp>
            <ns3:hr>106</ns3:hr>
          </ns3:TrackPointExtension>
        </extensions>
      </trkpt>
      <trkpt lat="36.8162042833864688873291015625" lon="-118.43921718187630176544189453125">
        <ele>3676.39990234375</ele>
        <time>2021-06-26T17:55:58.000Z</time>
        <extensions>
          <ns3:TrackPointExtension>
            <ns3:atemp>25.0</ns3:atemp>
            <ns3:hr>109</ns3:hr>
          </ns3:TrackPointExtension>
        </extensions>
      </trkpt>
      <trkpt lat="36.81620487011969089508056640625" lon="-118.439220450818538665771484375">
        <ele>3675.800048828125</ele>
        <time>2021-06-26T17:56:21.000Z</time>
        <extensions>
          <ns3:TrackPointExtension>
            <ns3:atemp>25.0</ns3:atemp>
            <ns3:hr>106</ns3:hr>
          </ns3:TrackPointExtension>
        </extensions>
      </trkpt>
      <trkpt lat="36.8162049539387226104736328125" lon="-118.43922070227563381195068359375">
        <ele>3675.800048828125</ele>
        <time>2021-06-26T17:56:24.000Z</time>
        <extensions>
          <ns3:TrackPointExtension>
            <ns3:atemp>25.0</ns3:atemp>
            <ns3:hr>102</ns3:hr>
          </ns3:TrackPointExtension>
        </extensions>
      </trkpt>
      <trkpt lat="36.81620503775775432586669921875" lon="-118.43922086991369724273681640625">
        <ele>3675.800048828125</ele>
        <time>2021-06-26T17:56:26.000Z</time>
        <extensions>
          <ns3:TrackPointExtension>
            <ns3:atemp>25.0</ns3:atemp>
            <ns3:hr>99</ns3:hr>
          </ns3:TrackPointExtension>
        </extensions>
      </trkpt>
      <trkpt lat="36.816205121576786041259765625" lon="-118.43922120518982410430908203125">
        <ele>3675.800048828125</ele>
        <time>2021-06-26T17:56:30.000Z</time>
        <extensions>
          <ns3:TrackPointExtension>
            <ns3:atemp>25.0</ns3:atemp>
            <ns3:hr>96</ns3:hr>
          </ns3:TrackPointExtension>
        </extensions>
      </trkpt>
      <trkpt lat="36.8162052892148494720458984375" lon="-118.439221791923046112060546875">
        <ele>3675.800048828125</ele>
        <time>2021-06-26T17:56:37.000Z</time>
        <extensions>
          <ns3:TrackPointExtension>
            <ns3:atemp>25.0</ns3:atemp>
            <ns3:hr>93</ns3:hr>
          </ns3:TrackPointExtension>
        </extensions>
      </trkpt>
      <trkpt lat="36.81620545685291290283203125" lon="-118.43922221101820468902587890625">
        <ele>3675.800048828125</ele>
        <time>2021-06-26T17:56:43.000Z</time>
        <extensions>
          <ns3:TrackPointExtension>
            <ns3:atemp>25.0</ns3:atemp>
            <ns3:hr>96</ns3:hr>
          </ns3:TrackPointExtension>
        </extensions>
      </trkpt>
      <trkpt lat="36.8162056244909763336181640625" lon="-118.4392226301133632659912109375">
        <ele>3675.800048828125</ele>
        <time>2021-06-26T17:56:48.000Z</time>
        <extensions>
          <ns3:TrackPointExtension>
            <ns3:atemp>25.0</ns3:atemp>
            <ns3:hr>99</ns3:hr>
          </ns3:TrackPointExtension>
        </extensions>
      </trkpt>
      <trkpt lat="36.81620671413838863372802734375" lon="-118.43922556377947330474853515625">
        <ele>3675.800048828125</ele>
        <time>2021-06-26T17:57:06.000Z</time>
        <extensions>
          <ns3:TrackPointExtension>
            <ns3:atemp>25.0</ns3:atemp>
            <ns3:hr>102</ns3:hr>
          </ns3:TrackPointExtension>
        </extensions>
      </trkpt>
      <trkpt lat="36.8162076361477375030517578125" lon="-118.43922724016010761260986328125">
        <ele>3684</ele>
        <time>2021-06-26T17:57:14.000Z</time>
        <extensions>
          <ns3:TrackPointExtension>
            <ns3:atemp>25.0</ns3:atemp>
            <ns3:hr>103</ns3:hr>
          </ns3:TrackPointExtension>
        </extensions>
      </trkpt>
      <trkpt lat="36.81620839051902294158935546875" lon="-118.43922874890267848968505859375">
        <ele>3684.39990234375</ele>
        <time>2021-06-26T17:57:20.000Z</time>
        <extensions>
          <ns3:TrackPointExtension>
            <ns3:atemp>25.0</ns3:atemp>
            <ns3:hr>106</ns3:hr>
          </ns3:TrackPointExtension>
        </extensions>
      </trkpt>
      <trkpt lat="36.81620906107127666473388671875" lon="-118.43923025764524936676025390625">
        <ele>3685</ele>
        <time>2021-06-26T17:57:25.000Z</time>
        <extensions>
          <ns3:TrackPointExtension>
            <ns3:atemp>25.0</ns3:atemp>
            <ns3:hr>103</ns3:hr>
          </ns3:TrackPointExtension>
        </extensions>
      </trkpt>
      <trkpt lat="36.81620922870934009552001953125" lon="-118.43923059292137622833251953125">
        <ele>3685.199951171875</ele>
        <time>2021-06-26T17:57:26.000Z</time>
        <extensions>
          <ns3:TrackPointExtension>
            <ns3:atemp>26.0</ns3:atemp>
            <ns3:hr>102</ns3:hr>
          </ns3:TrackPointExtension>
        </extensions>
      </trkpt>
      <trkpt lat="36.81621090508997440338134765625" lon="-118.43923361040651798248291015625">
        <ele>3686.199951171875</ele>
        <time>2021-06-26T17:57:36.000Z</time>
        <extensions>
          <ns3:TrackPointExtension>
            <ns3:atemp>26.0</ns3:atemp>
            <ns3:hr>105</ns3:hr>
          </ns3:TrackPointExtension>
        </extensions>
      </trkpt>
      <trkpt lat="36.81621124036610126495361328125" lon="-118.43923428095877170562744140625">
        <ele>3686.199951171875</ele>
        <time>2021-06-26T17:57:38.000Z</time>
        <extensions>
          <ns3:TrackPointExtension>
            <ns3:atemp>26.0</ns3:atemp>
            <ns3:hr>102</ns3:hr>
          </ns3:TrackPointExtension>
        </extensions>
      </trkpt>
      <trkpt lat="36.81621258147060871124267578125" lon="-118.43923595733940601348876953125">
        <ele>3687</ele>
        <time>2021-06-26T17:57:44.000Z</time>
        <extensions>
          <ns3:TrackPointExtension>
            <ns3:atemp>26.0</ns3:atemp>
            <ns3:hr>102</ns3:hr>
          </ns3:TrackPointExtension>
        </extensions>
      </trkpt>
      <trkpt lat="36.81621543131768703460693359375" lon="-118.43923897482454776763916015625">
        <ele>3688</ele>
        <time>2021-06-26T17:57:55.000Z</time>
        <extensions>
          <ns3:TrackPointExtension>
            <ns3:atemp>26.0</ns3:atemp>
            <ns3:hr>105</ns3:hr>
          </ns3:TrackPointExtension>
        </extensions>
      </trkpt>
      <trkpt lat="36.81621593423187732696533203125" lon="-118.439239561557769775390625">
        <ele>3688.199951171875</ele>
        <time>2021-06-26T17:57:57.000Z</time>
        <extensions>
          <ns3:TrackPointExtension>
            <ns3:atemp>26.0</ns3:atemp>
            <ns3:hr>104</ns3:hr>
          </ns3:TrackPointExtension>
        </extensions>
      </trkpt>
      <trkpt lat="36.81621844880282878875732421875" lon="-118.439241908490657806396484375">
        <ele>3689.60009765625</ele>
        <time>2021-06-26T17:58:06.000Z</time>
        <extensions>
          <ns3:TrackPointExtension>
            <ns3:atemp>26.0</ns3:atemp>
            <ns3:hr>105</ns3:hr>
          </ns3:TrackPointExtension>
        </extensions>
      </trkpt>
      <trkpt lat="36.8162203766405582427978515625" lon="-118.4392440877854824066162109375">
        <ele>3690.199951171875</ele>
        <time>2021-06-26T17:58:13.000Z</time>
        <extensions>
          <ns3:TrackPointExtension>
            <ns3:atemp>26.0</ns3:atemp>
            <ns3:hr>109</ns3:hr>
          </ns3:TrackPointExtension>
        </extensions>
      </trkpt>
      <trkpt lat="36.8162207119166851043701171875" lon="-118.4392444230616092681884765625">
        <ele>3690.199951171875</ele>
        <time>2021-06-26T17:58:14.000Z</time>
        <extensions>
          <ns3:TrackPointExtension>
            <ns3:atemp>26.0</ns3:atemp>
            <ns3:hr>106</ns3:hr>
          </ns3:TrackPointExtension>
        </extensions>
      </trkpt>
      <trkpt lat="36.8162220530211925506591796875" lon="-118.43924618326127529144287109375">
        <ele>3690.60009765625</ele>
        <time>2021-06-26T17:58:19.000Z</time>
        <extensions>
          <ns3:TrackPointExtension>
            <ns3:atemp>26.0</ns3:atemp>
            <ns3:hr>108</ns3:hr>
          </ns3:TrackPointExtension>
        </extensions>
      </trkpt>
      <trkpt lat="36.81622381322085857391357421875" lon="-118.4392484463751316070556640625">
        <ele>3691.60009765625</ele>
        <time>2021-06-26T17:58:25.000Z</time>
        <extensions>
          <ns3:TrackPointExtension>
            <ns3:atemp>26.0</ns3:atemp>
            <ns3:hr>107</ns3:hr>
          </ns3:TrackPointExtension>
        </extensions>
      </trkpt>
      <trkpt lat="36.816225238144397735595703125" lon="-118.43925037421286106109619140625">
        <ele>3692.199951171875</ele>
        <time>2021-06-26T17:58:30.000Z</time>
        <extensions>
          <ns3:TrackPointExtension>
            <ns3:atemp>26.0</ns3:atemp>
            <ns3:hr>104</ns3:hr>
          </ns3:TrackPointExtension>
        </extensions>
      </trkpt>
      <trkpt lat="36.81622557342052459716796875" lon="-118.43925070948898792266845703125">
        <ele>3692.199951171875</ele>
        <time>2021-06-26T17:58:31.000Z</time>
        <extensions>
          <ns3:TrackPointExtension>
            <ns3:atemp>26.0</ns3:atemp>
            <ns3:hr>107</ns3:hr>
          </ns3:TrackPointExtension>
        </extensions>
      </trkpt>
      <trkpt lat="36.81622716598212718963623046875" lon="-118.439252637326717376708984375">
        <ele>3692.800048828125</ele>
        <time>2021-06-26T17:58:36.000Z</time>
        <extensions>
          <ns3:TrackPointExtension>
            <ns3:atemp>26.0</ns3:atemp>
            <ns3:hr>105</ns3:hr>
          </ns3:TrackPointExtension>
        </extensions>
      </trkpt>
      <trkpt lat="36.816228926181793212890625" lon="-118.43925456516444683074951171875">
        <ele>3694</ele>
        <time>2021-06-26T17:58:41.000Z</time>
        <extensions>
          <ns3:TrackPointExtension>
            <ns3:atemp>26.0</ns3:atemp>
            <ns3:hr>106</ns3:hr>
          </ns3:TrackPointExtension>
        </extensions>
      </trkpt>
      <trkpt lat="36.816233284771442413330078125" lon="-118.4392588399350643157958984375">
        <ele>3695</ele>
        <time>2021-06-26T17:58:52.000Z</time>
        <extensions>
          <ns3:TrackPointExtension>
            <ns3:atemp>26.0</ns3:atemp>
            <ns3:hr>108</ns3:hr>
          </ns3:TrackPointExtension>
        </extensions>
      </trkpt>
      <trkpt lat="36.8162356317043304443359375" lon="-118.43926160596311092376708984375">
        <ele>3696</ele>
        <time>2021-06-26T17:58:58.000Z</time>
        <extensions>
          <ns3:TrackPointExtension>
            <ns3:atemp>26.0</ns3:atemp>
            <ns3:hr>111</ns3:hr>
          </ns3:TrackPointExtension>
        </extensions>
      </trkpt>
      <trkpt lat="36.81623638607561588287353515625" lon="-118.43926261179149150848388671875">
        <ele>3696.199951171875</ele>
        <time>2021-06-26T17:59:00.000Z</time>
        <extensions>
          <ns3:TrackPointExtension>
            <ns3:atemp>26.0</ns3:atemp>
            <ns3:hr>113</ns3:hr>
          </ns3:TrackPointExtension>
        </extensions>
      </trkpt>
      <trkpt lat="36.81623873300850391387939453125" lon="-118.43926571309566497802734375">
        <ele>3697.199951171875</ele>
        <time>2021-06-26T17:59:06.000Z</time>
        <extensions>
          <ns3:TrackPointExtension>
            <ns3:atemp>26.0</ns3:atemp>
            <ns3:hr>116</ns3:hr>
          </ns3:TrackPointExtension>
        </extensions>
      </trkpt>
      <trkpt lat="36.8162391521036624908447265625" lon="-118.43926629982888698577880859375">
        <ele>3697.39990234375</ele>
        <time>2021-06-26T17:59:07.000Z</time>
        <extensions>
          <ns3:TrackPointExtension>
            <ns3:atemp>26.0</ns3:atemp>
            <ns3:hr>117</ns3:hr>
          </ns3:TrackPointExtension>
        </extensions>
      </trkpt>
      <trkpt lat="36.81623990647494792938232421875" lon="-118.439267389476299285888671875">
        <ele>3698</ele>
        <time>2021-06-26T17:59:09.000Z</time>
        <extensions>
          <ns3:TrackPointExtension>
            <ns3:atemp>26.0</ns3:atemp>
            <ns3:hr>120</ns3:hr>
          </ns3:TrackPointExtension>
        </extensions>
      </trkpt>
      <trkpt lat="36.81624493561685085296630859375" lon="-118.4392752684652805328369140625">
        <ele>3698.800048828125</ele>
        <time>2021-06-26T17:59:22.000Z</time>
        <extensions>
          <ns3:TrackPointExtension>
            <ns3:atemp>26.0</ns3:atemp>
            <ns3:hr>121</ns3:hr>
          </ns3:TrackPointExtension>
        </extensions>
      </trkpt>
      <trkpt lat="36.81624577380716800689697265625" lon="-118.43927652575075626373291015625">
        <ele>3698.800048828125</ele>
        <time>2021-06-26T17:59:24.000Z</time>
        <extensions>
          <ns3:TrackPointExtension>
            <ns3:atemp>26.0</ns3:atemp>
            <ns3:hr>118</ns3:hr>
          </ns3:TrackPointExtension>
        </extensions>
      </trkpt>
      <trkpt lat="36.816248707473278045654296875" lon="-118.43928071670234203338623046875">
        <ele>3699.800048828125</ele>
        <time>2021-06-26T17:59:31.000Z</time>
        <extensions>
          <ns3:TrackPointExtension>
            <ns3:atemp>26.0</ns3:atemp>
            <ns3:hr>116</ns3:hr>
          </ns3:TrackPointExtension>
        </extensions>
      </trkpt>
      <trkpt lat="36.8162528984248638153076171875" lon="-118.43928608112037181854248046875">
        <ele>3700.800048828125</ele>
        <time>2021-06-26T17:59:40.000Z</time>
        <extensions>
          <ns3:TrackPointExtension>
            <ns3:atemp>26.0</ns3:atemp>
            <ns3:hr>117</ns3:hr>
          </ns3:TrackPointExtension>
        </extensions>
      </trkpt>
      <trkpt lat="36.81625650264322757720947265625" lon="-118.43929027207195758819580078125">
        <ele>3702</ele>
        <time>2021-06-26T17:59:47.000Z</time>
        <extensions>
          <ns3:TrackPointExtension>
            <ns3:atemp>26.0</ns3:atemp>
            <ns3:hr>118</ns3:hr>
          </ns3:TrackPointExtension>
        </extensions>
      </trkpt>
      <trkpt lat="36.81625801138579845428466796875" lon="-118.4392920322716236114501953125">
        <ele>3703</ele>
        <time>2021-06-26T17:59:50.000Z</time>
        <extensions>
          <ns3:TrackPointExtension>
            <ns3:atemp>26.0</ns3:atemp>
            <ns3:hr>117</ns3:hr>
          </ns3:TrackPointExtension>
        </extensions>
      </trkpt>
      <trkpt lat="36.81626270525157451629638671875" lon="-118.43929764814674854278564453125">
        <ele>3704</ele>
        <time>2021-06-26T17:59:59.000Z</time>
        <extensions>
          <ns3:TrackPointExtension>
            <ns3:atemp>26.0</ns3:atemp>
            <ns3:hr>116</ns3:hr>
          </ns3:TrackPointExtension>
        </extensions>
      </trkpt>
      <trkpt lat="36.81626622565090656280517578125" lon="-118.4393024258315563201904296875">
        <ele>3705</ele>
        <time>2021-06-26T18:00:06.000Z</time>
        <extensions>
          <ns3:TrackPointExtension>
            <ns3:atemp>26.0</ns3:atemp>
            <ns3:hr>116</ns3:hr>
          </ns3:TrackPointExtension>
        </extensions>
      </trkpt>
      <trkpt lat="36.81626982986927032470703125" lon="-118.439307622611522674560546875">
        <ele>3705.800048828125</ele>
        <time>2021-06-26T18:00:13.000Z</time>
        <extensions>
          <ns3:TrackPointExtension>
            <ns3:atemp>26.0</ns3:atemp>
            <ns3:hr>113</ns3:hr>
          </ns3:TrackPointExtension>
        </extensions>
      </trkpt>
      <trkpt lat="36.81627142243087291717529296875" lon="-118.43930988572537899017333984375">
        <ele>3706</ele>
        <time>2021-06-26T18:00:16.000Z</time>
        <extensions>
          <ns3:TrackPointExtension>
            <ns3:atemp>26.0</ns3:atemp>
            <ns3:hr>109</ns3:hr>
          </ns3:TrackPointExtension>
        </extensions>
      </trkpt>
      <trkpt lat="36.81627251207828521728515625" lon="-118.4393114782869815826416015625">
        <ele>3706</ele>
        <time>2021-06-26T18:00:18.000Z</time>
        <extensions>
          <ns3:TrackPointExtension>
            <ns3:atemp>26.0</ns3:atemp>
            <ns3:hr>106</ns3:hr>
          </ns3:TrackPointExtension>
        </extensions>
      </trkpt>
      <trkpt lat="36.81627695448696613311767578125" lon="-118.43931759707629680633544921875">
        <ele>3705.800048828125</ele>
        <time>2021-06-26T18:00:26.000Z</time>
        <extensions>
          <ns3:TrackPointExtension>
            <ns3:atemp>26.0</ns3:atemp>
            <ns3:hr>109</ns3:hr>
          </ns3:TrackPointExtension>
        </extensions>
      </trkpt>
      <trkpt lat="36.81627921760082244873046875" lon="-118.43932069838047027587890625">
        <ele>3705.800048828125</ele>
        <time>2021-06-26T18:00:30.000Z</time>
        <extensions>
          <ns3:TrackPointExtension>
            <ns3:atemp>26.0</ns3:atemp>
            <ns3:hr>112</ns3:hr>
          </ns3:TrackPointExtension>
        </extensions>
      </trkpt>
      <trkpt lat="36.81628382764756679534912109375" lon="-118.4393269009888172149658203125">
        <ele>3705.60009765625</ele>
        <time>2021-06-26T18:00:38.000Z</time>
        <extensions>
          <ns3:TrackPointExtension>
            <ns3:atemp>26.0</ns3:atemp>
            <ns3:hr>115</ns3:hr>
          </ns3:TrackPointExtension>
        </extensions>
      </trkpt>
      <trkpt lat="36.8162877671420574188232421875" lon="-118.4393322654068470001220703125">
        <ele>3705.60009765625</ele>
        <time>2021-06-26T18:00:45.000Z</time>
        <extensions>
          <ns3:TrackPointExtension>
            <ns3:atemp>26.0</ns3:atemp>
            <ns3:hr>118</ns3:hr>
          </ns3:TrackPointExtension>
        </extensions>
      </trkpt>
      <trkpt lat="36.816298663616180419921875" lon="-118.43934643082320690155029296875">
        <ele>3706.199951171875</ele>
        <time>2021-06-26T18:01:05.000Z</time>
        <extensions>
          <ns3:TrackPointExtension>
            <ns3:atemp>25.0</ns3:atemp>
            <ns3:hr>115</ns3:hr>
          </ns3:TrackPointExtension>
        </extensions>
      </trkpt>
      <trkpt lat="36.8163011781871318817138671875" lon="-118.4393496997654438018798828125">
        <ele>3706.199951171875</ele>
        <time>2021-06-26T18:01:10.000Z</time>
        <extensions>
          <ns3:TrackPointExtension>
            <ns3:atemp>26.0</ns3:atemp>
            <ns3:hr>112</ns3:hr>
          </ns3:TrackPointExtension>
        </extensions>
      </trkpt>
      <trkpt lat="36.81630411185324192047119140625" lon="-118.4393535554409027099609375">
        <ele>3706</ele>
        <time>2021-06-26T18:01:16.000Z</time>
        <extensions>
          <ns3:TrackPointExtension>
            <ns3:atemp>26.0</ns3:atemp>
            <ns3:hr>108</ns3:hr>
          </ns3:TrackPointExtension>
        </extensions>
      </trkpt>
      <trkpt lat="36.8163085542619228363037109375" lon="-118.4393594227731227874755859375">
        <ele>3705.800048828125</ele>
        <time>2021-06-26T18:01:25.000Z</time>
        <extensions>
          <ns3:TrackPointExtension>
            <ns3:atemp>25.0</ns3:atemp>
            <ns3:hr>105</ns3:hr>
          </ns3:TrackPointExtension>
        </extensions>
      </trkpt>
      <trkpt lat="36.8163139186799526214599609375" lon="-118.439366631209850311279296875">
        <ele>3707</ele>
        <time>2021-06-26T18:01:36.000Z</time>
        <extensions>
          <ns3:TrackPointExtension>
            <ns3:atemp>26.0</ns3:atemp>
            <ns3:hr>102</ns3:hr>
          </ns3:TrackPointExtension>
        </extensions>
      </trkpt>
      <trkpt lat="36.81631433777511119842529296875" lon="-118.439367301762104034423828125">
        <ele>3707.39990234375</ele>
        <time>2021-06-26T18:01:37.000Z</time>
        <extensions>
          <ns3:TrackPointExtension>
            <ns3:atemp>25.0</ns3:atemp>
            <ns3:hr>103</ns3:hr>
          </ns3:TrackPointExtension>
        </extensions>
      </trkpt>
      <trkpt lat="36.81631810963153839111328125" lon="-118.43937241472303867340087890625">
        <ele>3708</ele>
        <time>2021-06-26T18:01:45.000Z</time>
        <extensions>
          <ns3:TrackPointExtension>
            <ns3:atemp>26.0</ns3:atemp>
            <ns3:hr>100</ns3:hr>
          </ns3:TrackPointExtension>
        </extensions>
      </trkpt>
      <trkpt lat="36.8163196183741092681884765625" lon="-118.43937442637979984283447265625">
        <ele>3708.39990234375</ele>
        <time>2021-06-26T18:01:48.000Z</time>
        <extensions>
          <ns3:TrackPointExtension>
            <ns3:atemp>26.0</ns3:atemp>
            <ns3:hr>99</ns3:hr>
          </ns3:TrackPointExtension>
        </extensions>
      </trkpt>
      <trkpt lat="36.8163233064115047454833984375" lon="-118.43937995843589305877685546875">
        <ele>3709.199951171875</ele>
        <time>2021-06-26T18:01:56.000Z</time>
        <extensions>
          <ns3:TrackPointExtension>
            <ns3:atemp>26.0</ns3:atemp>
            <ns3:hr>102</ns3:hr>
          </ns3:TrackPointExtension>
        </extensions>
      </trkpt>
      <trkpt lat="36.81632422842085361480712890625" lon="-118.439381383359432220458984375">
        <ele>3709.39990234375</ele>
        <time>2021-06-26T18:01:58.000Z</time>
        <extensions>
          <ns3:TrackPointExtension>
            <ns3:atemp>26.0</ns3:atemp>
            <ns3:hr>107</ns3:hr>
          </ns3:TrackPointExtension>
        </extensions>
      </trkpt>
      <trkpt lat="36.8163246475160121917724609375" lon="-118.43938213773071765899658203125">
        <ele>3709.60009765625</ele>
        <time>2021-06-26T18:01:59.000Z</time>
        <extensions>
          <ns3:TrackPointExtension>
            <ns3:atemp>26.0</ns3:atemp>
            <ns3:hr>107</ns3:hr>
          </ns3:TrackPointExtension>
        </extensions>
      </trkpt>
      <trkpt lat="36.81632556952536106109619140625" lon="-118.43938373029232025146484375">
        <ele>3709.60009765625</ele>
        <time>2021-06-26T18:02:01.000Z</time>
        <extensions>
          <ns3:TrackPointExtension>
            <ns3:atemp>26.0</ns3:atemp>
            <ns3:hr>110</ns3:hr>
          </ns3:TrackPointExtension>
        </extensions>
      </trkpt>
      <trkpt lat="36.8163259886205196380615234375" lon="-118.43938448466360569000244140625">
        <ele>3710</ele>
        <time>2021-06-26T18:02:02.000Z</time>
        <extensions>
          <ns3:TrackPointExtension>
            <ns3:atemp>26.0</ns3:atemp>
            <ns3:hr>107</ns3:hr>
          </ns3:TrackPointExtension>
        </extensions>
      </trkpt>
      <trkpt lat="36.81632741354405879974365234375" lon="-118.4393869154155254364013671875">
        <ele>3710.39990234375</ele>
        <time>2021-06-26T18:02:05.000Z</time>
        <extensions>
          <ns3:TrackPointExtension>
            <ns3:atemp>26.0</ns3:atemp>
            <ns3:hr>110</ns3:hr>
          </ns3:TrackPointExtension>
        </extensions>
      </trkpt>
      <trkpt lat="36.81632875464856624603271484375" lon="-118.43938934616744518280029296875">
        <ele>3710.60009765625</ele>
        <time>2021-06-26T18:02:08.000Z</time>
        <extensions>
          <ns3:TrackPointExtension>
            <ns3:atemp>26.0</ns3:atemp>
            <ns3:hr>112</ns3:hr>
          </ns3:TrackPointExtension>
        </extensions>
      </trkpt>
      <trkpt lat="36.81632976047694683074951171875" lon="-118.43939102254807949066162109375">
        <ele>3710.800048828125</ele>
        <time>2021-06-26T18:02:10.000Z</time>
        <extensions>
          <ns3:TrackPointExtension>
            <ns3:atemp>26.0</ns3:atemp>
            <ns3:hr>108</ns3:hr>
          </ns3:TrackPointExtension>
        </extensions>
      </trkpt>
      <trkpt lat="36.8163316883146762847900390625" lon="-118.4393942914903163909912109375">
        <ele>3711.39990234375</ele>
        <time>2021-06-26T18:02:14.000Z</time>
        <extensions>
          <ns3:TrackPointExtension>
            <ns3:atemp>26.0</ns3:atemp>
            <ns3:hr>111</ns3:hr>
          </ns3:TrackPointExtension>
        </extensions>
      </trkpt>
      <trkpt lat="36.8163336999714374542236328125" lon="-118.43939756043255329132080078125">
        <ele>3711.800048828125</ele>
        <time>2021-06-26T18:02:18.000Z</time>
        <extensions>
          <ns3:TrackPointExtension>
            <ns3:atemp>26.0</ns3:atemp>
            <ns3:hr>108</ns3:hr>
          </ns3:TrackPointExtension>
        </extensions>
      </trkpt>
      <trkpt lat="36.816338561475276947021484375" lon="-118.439404852688312530517578125">
        <ele>3713</ele>
        <time>2021-06-26T18:02:27.000Z</time>
        <extensions>
          <ns3:TrackPointExtension>
            <ns3:atemp>26.0</ns3:atemp>
            <ns3:hr>109</ns3:hr>
          </ns3:TrackPointExtension>
        </extensions>
      </trkpt>
      <trkpt lat="36.8163477815687656402587890625" lon="-118.43941851519048213958740234375">
        <ele>3714.199951171875</ele>
        <time>2021-06-26T18:02:43.000Z</time>
        <extensions>
          <ns3:TrackPointExtension>
            <ns3:atemp>26.0</ns3:atemp>
            <ns3:hr>105</ns3:hr>
          </ns3:TrackPointExtension>
        </extensions>
      </trkpt>
      <trkpt lat="36.81634836830198764801025390625" lon="-118.4394194371998310089111328125">
        <ele>3714.199951171875</ele>
        <time>2021-06-26T18:02:44.000Z</time>
        <extensions>
          <ns3:TrackPointExtension>
            <ns3:atemp>26.0</ns3:atemp>
            <ns3:hr>109</ns3:hr>
          </ns3:TrackPointExtension>
        </extensions>
      </trkpt>
      <trkpt lat="36.81645297445356845855712890625" lon="-118.43961431644856929779052734375">
        <ele>3714.39990234375</ele>
        <time>2021-06-26T18:02:47.000Z</time>
        <extensions>
          <ns3:TrackPointExtension>
            <ns3:atemp>26.0</ns3:atemp>
            <ns3:hr>110</ns3:hr>
          </ns3:TrackPointExtension>
        </extensions>
      </trkpt>
      <trkpt lat="36.81651952676475048065185546875" lon="-118.439743481576442718505859375">
        <ele>3714.60009765625</ele>
        <time>2021-06-26T18:02:49.000Z</time>
        <extensions>
          <ns3:TrackPointExtension>
            <ns3:atemp>26.0</ns3:atemp>
            <ns3:hr>108</ns3:hr>
          </ns3:TrackPointExtension>
        </extensions>
      </trkpt>
      <trkpt lat="36.8165861628949642181396484375" lon="-118.4398787654936313629150390625">
        <ele>3715.199951171875</ele>
        <time>2021-06-26T18:02:51.000Z</time>
        <extensions>
          <ns3:TrackPointExtension>
            <ns3:atemp>26.0</ns3:atemp>
            <ns3:hr>110</ns3:hr>
          </ns3:TrackPointExtension>
        </extensions>
      </trkpt>
      <trkpt lat="36.81669303216040134429931640625" lon="-118.4400836192071437835693359375">
        <ele>3715.39990234375</ele>
        <time>2021-06-26T18:02:54.000Z</time>
        <extensions>
          <ns3:TrackPointExtension>
            <ns3:atemp>26.0</ns3:atemp>
            <ns3:hr>108</ns3:hr>
          </ns3:TrackPointExtension>
        </extensions>
      </trkpt>
      <trkpt lat="36.8167035095393657684326171875" lon="-118.440075404942035675048828125">
        <ele>3716</ele>
        <time>2021-06-26T18:02:57.000Z</time>
        <extensions>
          <ns3:TrackPointExtension>
            <ns3:atemp>26.0</ns3:atemp>
            <ns3:hr>111</ns3:hr>
          </ns3:TrackPointExtension>
        </extensions>
      </trkpt>
      <trkpt lat="36.81671180762350559234619140625" lon="-118.44006610102951526641845703125">
        <ele>3716.199951171875</ele>
        <time>2021-06-26T18:02:59.000Z</time>
        <extensions>
          <ns3:TrackPointExtension>
            <ns3:atemp>26.0</ns3:atemp>
            <ns3:hr>112</ns3:hr>
          </ns3:TrackPointExtension>
        </extensions>
      </trkpt>
      <trkpt lat="36.81673678569495677947998046875" lon="-118.44008269719779491424560546875">
        <ele>3717.199951171875</ele>
        <time>2021-06-26T18:03:08.000Z</time>
        <extensions>
          <ns3:TrackPointExtension>
            <ns3:atemp>26.0</ns3:atemp>
            <ns3:hr>111</ns3:hr>
          </ns3:TrackPointExtension>
        </extensions>
      </trkpt>
      <trkpt lat="36.81674684397876262664794921875" lon="-118.44010013155639171600341796875">
        <ele>3717.800048828125</ele>
        <time>2021-06-26T18:03:12.000Z</time>
        <extensions>
          <ns3:TrackPointExtension>
            <ns3:atemp>26.0</ns3:atemp>
            <ns3:hr>108</ns3:hr>
          </ns3:TrackPointExtension>
        </extensions>
      </trkpt>
      <trkpt lat="36.81674969382584095001220703125" lon="-118.440114967525005340576171875">
        <ele>3718.39990234375</ele>
        <time>2021-06-26T18:03:15.000Z</time>
        <extensions>
          <ns3:TrackPointExtension>
            <ns3:atemp>26.0</ns3:atemp>
            <ns3:hr>110</ns3:hr>
          </ns3:TrackPointExtension>
        </extensions>
      </trkpt>
      <trkpt lat="36.8167541362345218658447265625" lon="-118.44011790119111537933349609375">
        <ele>3718.60009765625</ele>
        <time>2021-06-26T18:03:16.000Z</time>
        <extensions>
          <ns3:TrackPointExtension>
            <ns3:atemp>26.0</ns3:atemp>
            <ns3:hr>110</ns3:hr>
          </ns3:TrackPointExtension>
        </extensions>
      </trkpt>
      <trkpt lat="36.81677341461181640625" lon="-118.44012401998043060302734375">
        <ele>3719.199951171875</ele>
        <time>2021-06-26T18:03:21.000Z</time>
        <extensions>
          <ns3:TrackPointExtension>
            <ns3:atemp>26.0</ns3:atemp>
            <ns3:hr>113</ns3:hr>
          </ns3:TrackPointExtension>
        </extensions>
      </trkpt>
      <trkpt lat="36.8167802877724170684814453125" lon="-118.44012737274169921875">
        <ele>3719.39990234375</ele>
        <time>2021-06-26T18:03:24.000Z</time>
        <extensions>
          <ns3:TrackPointExtension>
            <ns3:atemp>26.0</ns3:atemp>
            <ns3:hr>115</ns3:hr>
          </ns3:TrackPointExtension>
        </extensions>
      </trkpt>
      <trkpt lat="36.81678053922951221466064453125" lon="-118.44012678600847721099853515625">
        <ele>3719.60009765625</ele>
        <time>2021-06-26T18:03:25.000Z</time>
        <extensions>
          <ns3:TrackPointExtension>
            <ns3:atemp>26.0</ns3:atemp>
            <ns3:hr>114</ns3:hr>
          </ns3:TrackPointExtension>
        </extensions>
      </trkpt>
      <trkpt lat="36.8167923577129840850830078125" lon="-118.4401332400739192962646484375">
        <ele>3720.199951171875</ele>
        <time>2021-06-26T18:03:29.000Z</time>
        <extensions>
          <ns3:TrackPointExtension>
            <ns3:atemp>26.0</ns3:atemp>
            <ns3:hr>117</ns3:hr>
          </ns3:TrackPointExtension>
        </extensions>
      </trkpt>
      <trkpt lat="36.81679780595004558563232421875" lon="-118.44013885594904422760009765625">
        <ele>3720.199951171875</ele>
        <time>2021-06-26T18:03:30.000Z</time>
        <extensions>
          <ns3:TrackPointExtension>
            <ns3:atemp>26.0</ns3:atemp>
            <ns3:hr>116</ns3:hr>
          </ns3:TrackPointExtension>
        </extensions>
      </trkpt>
      <trkpt lat="36.8168010748922824859619140625" lon="-118.4401593916118144989013671875">
        <ele>3721</ele>
        <time>2021-06-26T18:03:34.000Z</time>
        <extensions>
          <ns3:TrackPointExtension>
            <ns3:atemp>26.0</ns3:atemp>
            <ns3:hr>116</ns3:hr>
          </ns3:TrackPointExtension>
        </extensions>
      </trkpt>
      <trkpt lat="36.816802918910980224609375" lon="-118.44016232527792453765869140625">
        <ele>3721.199951171875</ele>
        <time>2021-06-26T18:03:39.000Z</time>
        <extensions>
          <ns3:TrackPointExtension>
            <ns3:atemp>26.0</ns3:atemp>
            <ns3:hr>118</ns3:hr>
          </ns3:TrackPointExtension>
        </extensions>
      </trkpt>
      <trkpt lat="36.816802918910980224609375" lon="-118.44016232527792453765869140625">
        <ele>3722.199951171875</ele>
        <time>2021-06-26T18:03:49.000Z</time>
        <extensions>
          <ns3:TrackPointExtension>
            <ns3:atemp>26.0</ns3:atemp>
            <ns3:hr>118</ns3:hr>
          </ns3:TrackPointExtension>
        </extensions>
      </trkpt>
      <trkpt lat="36.81680534966289997100830078125" lon="-118.440157882869243621826171875">
        <ele>3723.199951171875</ele>
        <time>2021-06-26T18:03:55.000Z</time>
        <extensions>
          <ns3:TrackPointExtension>
            <ns3:atemp>26.0</ns3:atemp>
            <ns3:hr>119</ns3:hr>
          </ns3:TrackPointExtension>
        </extensions>
      </trkpt>
      <trkpt lat="36.81682236492633819580078125" lon="-118.4401614032685756683349609375">
        <ele>3723.800048828125</ele>
        <time>2021-06-26T18:04:03.000Z</time>
        <extensions>
          <ns3:TrackPointExtension>
            <ns3:atemp>26.0</ns3:atemp>
            <ns3:hr>115</ns3:hr>
          </ns3:TrackPointExtension>
        </extensions>
      </trkpt>
      <trkpt lat="36.81682504713535308837890625" lon="-118.4401617385447025299072265625">
        <ele>3724.39990234375</ele>
        <time>2021-06-26T18:04:05.000Z</time>
        <extensions>
          <ns3:TrackPointExtension>
            <ns3:atemp>26.0</ns3:atemp>
            <ns3:hr>116</ns3:hr>
          </ns3:TrackPointExtension>
        </extensions>
      </trkpt>
      <trkpt lat="36.81685564108192920684814453125" lon="-118.44017121009528636932373046875">
        <ele>3724.60009765625</ele>
        <time>2021-06-26T18:04:15.000Z</time>
        <extensions>
          <ns3:TrackPointExtension>
            <ns3:atemp>26.0</ns3:atemp>
            <ns3:hr>113</ns3:hr>
          </ns3:TrackPointExtension>
        </extensions>
      </trkpt>
      <trkpt lat="36.81685564108192920684814453125" lon="-118.44017121009528636932373046875">
        <ele>3725</ele>
        <time>2021-06-26T18:04:17.000Z</time>
        <extensions>
          <ns3:TrackPointExtension>
            <ns3:atemp>26.0</ns3:atemp>
            <ns3:hr>113</ns3:hr>
          </ns3:TrackPointExtension>
        </extensions>
      </trkpt>
      <trkpt lat="36.81685564108192920684814453125" lon="-118.44017121009528636932373046875">
        <ele>3725.39990234375</ele>
        <time>2021-06-26T18:04:19.000Z</time>
        <extensions>
          <ns3:TrackPointExtension>
            <ns3:atemp>27.0</ns3:atemp>
            <ns3:hr>114</ns3:hr>
          </ns3:TrackPointExtension>
        </extensions>
      </trkpt>
      <trkpt lat="36.8168654479086399078369140625" lon="-118.44019375741481781005859375">
        <ele>3726.800048828125</ele>
        <time>2021-06-26T18:04:27.000Z</time>
        <extensions>
          <ns3:TrackPointExtension>
            <ns3:atemp>27.0</ns3:atemp>
            <ns3:hr>114</ns3:hr>
          </ns3:TrackPointExtension>
        </extensions>
      </trkpt>
      <trkpt lat="36.81687525473535060882568359375" lon="-118.4402002952992916107177734375">
        <ele>3727.800048828125</ele>
        <time>2021-06-26T18:04:33.000Z</time>
        <extensions>
          <ns3:TrackPointExtension>
            <ns3:atemp>27.0</ns3:atemp>
            <ns3:hr>111</ns3:hr>
          </ns3:TrackPointExtension>
        </extensions>
      </trkpt>
      <trkpt lat="36.816876344382762908935546875" lon="-118.44020037911832332611083984375">
        <ele>3728.39990234375</ele>
        <time>2021-06-26T18:04:34.000Z</time>
        <extensions>
          <ns3:TrackPointExtension>
            <ns3:atemp>27.0</ns3:atemp>
            <ns3:hr>111</ns3:hr>
          </ns3:TrackPointExtension>
        </extensions>
      </trkpt>
      <trkpt lat="36.8169204331934452056884765625" lon="-118.4402019716799259185791015625">
        <ele>3729.60009765625</ele>
        <time>2021-06-26T18:04:44.000Z</time>
        <extensions>
          <ns3:TrackPointExtension>
            <ns3:atemp>27.0</ns3:atemp>
            <ns3:hr>109</ns3:hr>
          </ns3:TrackPointExtension>
        </extensions>
      </trkpt>
      <trkpt lat="36.81694080121815204620361328125" lon="-118.4402039833366870880126953125">
        <ele>3730</ele>
        <time>2021-06-26T18:04:50.000Z</time>
        <extensions>
          <ns3:TrackPointExtension>
            <ns3:atemp>27.0</ns3:atemp>
            <ns3:hr>108</ns3:hr>
          </ns3:TrackPointExtension>
        </extensions>
      </trkpt>
      <trkpt lat="36.816941387951374053955078125" lon="-118.4402043186128139495849609375">
        <ele>3730.800048828125</ele>
        <time>2021-06-26T18:04:51.000Z</time>
        <extensions>
          <ns3:TrackPointExtension>
            <ns3:atemp>27.0</ns3:atemp>
            <ns3:hr>107</ns3:hr>
          </ns3:TrackPointExtension>
        </extensions>
      </trkpt>
      <trkpt lat="36.81694842875003814697265625" lon="-118.4402090124785900115966796875">
        <ele>3731.800048828125</ele>
        <time>2021-06-26T18:04:58.000Z</time>
        <extensions>
          <ns3:TrackPointExtension>
            <ns3:atemp>27.0</ns3:atemp>
            <ns3:hr>110</ns3:hr>
          </ns3:TrackPointExtension>
        </extensions>
      </trkpt>
      <trkpt lat="36.8169677071273326873779296875" lon="-118.44021496362984180450439453125">
        <ele>3732.800048828125</ele>
        <time>2021-06-26T18:05:10.000Z</time>
        <extensions>
          <ns3:TrackPointExtension>
            <ns3:atemp>27.0</ns3:atemp>
            <ns3:hr>107</ns3:hr>
          </ns3:TrackPointExtension>
        </extensions>
      </trkpt>
      <trkpt lat="36.8169757537543773651123046875" lon="-118.440219573676586151123046875">
        <ele>3734</ele>
        <time>2021-06-26T18:05:17.000Z</time>
        <extensions>
          <ns3:TrackPointExtension>
            <ns3:atemp>27.0</ns3:atemp>
            <ns3:hr>110</ns3:hr>
          </ns3:TrackPointExtension>
        </extensions>
      </trkpt>
      <trkpt lat="36.8169774301350116729736328125" lon="-118.44022049568593502044677734375">
        <ele>3734.199951171875</ele>
        <time>2021-06-26T18:05:19.000Z</time>
        <extensions>
          <ns3:TrackPointExtension>
            <ns3:atemp>27.0</ns3:atemp>
            <ns3:hr>107</ns3:hr>
          </ns3:TrackPointExtension>
        </extensions>
      </trkpt>
      <trkpt lat="36.81698556058108806610107421875" lon="-118.44022217206656932830810546875">
        <ele>3735.199951171875</ele>
        <time>2021-06-26T18:05:22.000Z</time>
        <extensions>
          <ns3:TrackPointExtension>
            <ns3:atemp>27.0</ns3:atemp>
            <ns3:hr>109</ns3:hr>
          </ns3:TrackPointExtension>
        </extensions>
      </trkpt>
      <trkpt lat="36.81699360720813274383544921875" lon="-118.44022468663752079010009765625">
        <ele>3735.39990234375</ele>
        <time>2021-06-26T18:05:25.000Z</time>
        <extensions>
          <ns3:TrackPointExtension>
            <ns3:atemp>27.0</ns3:atemp>
            <ns3:hr>113</ns3:hr>
          </ns3:TrackPointExtension>
        </extensions>
      </trkpt>
      <trkpt lat="36.81699964217841625213623046875" lon="-118.44022938050329685211181640625">
        <ele>3735.800048828125</ele>
        <time>2021-06-26T18:05:34.000Z</time>
        <extensions>
          <ns3:TrackPointExtension>
            <ns3:atemp>27.0</ns3:atemp>
            <ns3:hr>116</ns3:hr>
          </ns3:TrackPointExtension>
        </extensions>
      </trkpt>
      <trkpt lat="36.816999725997447967529296875" lon="-118.44023591838777065277099609375">
        <ele>3736.60009765625</ele>
        <time>2021-06-26T18:05:38.000Z</time>
        <extensions>
          <ns3:TrackPointExtension>
            <ns3:atemp>27.0</ns3:atemp>
            <ns3:hr>115</ns3:hr>
          </ns3:TrackPointExtension>
        </extensions>
      </trkpt>
      <trkpt lat="36.816999725997447967529296875" lon="-118.44024145044386386871337890625">
        <ele>3737</ele>
        <time>2021-06-26T18:05:41.000Z</time>
        <extensions>
          <ns3:TrackPointExtension>
            <ns3:atemp>27.0</ns3:atemp>
            <ns3:hr>118</ns3:hr>
          </ns3:TrackPointExtension>
        </extensions>
      </trkpt>
      <trkpt lat="36.816998384892940521240234375" lon="-118.44024346210062503814697265625">
        <ele>3737.60009765625</ele>
        <time>2021-06-26T18:05:49.000Z</time>
        <extensions>
          <ns3:TrackPointExtension>
            <ns3:atemp>26.0</ns3:atemp>
            <ns3:hr>118</ns3:hr>
          </ns3:TrackPointExtension>
        </extensions>
      </trkpt>
      <trkpt lat="36.81699511595070362091064453125" lon="-118.4402774088084697723388671875">
        <ele>3738</ele>
        <time>2021-06-26T18:06:04.000Z</time>
        <extensions>
          <ns3:TrackPointExtension>
            <ns3:atemp>26.0</ns3:atemp>
            <ns3:hr>115</ns3:hr>
          </ns3:TrackPointExtension>
        </extensions>
      </trkpt>
      <trkpt lat="36.81699511595070362091064453125" lon="-118.44027824699878692626953125">
        <ele>3737.60009765625</ele>
        <time>2021-06-26T18:06:07.000Z</time>
        <extensions>
          <ns3:TrackPointExtension>
            <ns3:atemp>26.0</ns3:atemp>
            <ns3:hr>121</ns3:hr>
          </ns3:TrackPointExtension>
        </extensions>
      </trkpt>
      <trkpt lat="36.8169951997697353363037109375" lon="-118.44027833081781864166259765625">
        <ele>3737.60009765625</ele>
        <time>2021-06-26T18:06:09.000Z</time>
        <extensions>
          <ns3:TrackPointExtension>
            <ns3:atemp>26.0</ns3:atemp>
            <ns3:hr>121</ns3:hr>
          </ns3:TrackPointExtension>
        </extensions>
      </trkpt>
      <trkpt lat="36.81699478067457675933837890625" lon="-118.4402784146368503570556640625">
        <ele>3738.199951171875</ele>
        <time>2021-06-26T18:06:18.000Z</time>
        <extensions>
          <ns3:TrackPointExtension>
            <ns3:atemp>26.0</ns3:atemp>
            <ns3:hr>118</ns3:hr>
          </ns3:TrackPointExtension>
        </extensions>
      </trkpt>
      <trkpt lat="36.8169948644936084747314453125" lon="-118.4402817673981189727783203125">
        <ele>3738.60009765625</ele>
        <time>2021-06-26T18:06:21.000Z</time>
        <extensions>
          <ns3:TrackPointExtension>
            <ns3:atemp>26.0</ns3:atemp>
            <ns3:hr>117</ns3:hr>
          </ns3:TrackPointExtension>
        </extensions>
      </trkpt>
      <trkpt lat="36.8169965408742427825927734375" lon="-118.44028939493000507354736328125">
        <ele>3738.60009765625</ele>
        <time>2021-06-26T18:06:28.000Z</time>
        <extensions>
          <ns3:TrackPointExtension>
            <ns3:atemp>26.0</ns3:atemp>
            <ns3:hr>114</ns3:hr>
          </ns3:TrackPointExtension>
        </extensions>
      </trkpt>
      <trkpt lat="36.8170002289116382598876953125" lon="-118.44030515290796756744384765625">
        <ele>3739</ele>
        <time>2021-06-26T18:06:36.000Z</time>
        <extensions>
          <ns3:TrackPointExtension>
            <ns3:atemp>26.0</ns3:atemp>
            <ns3:hr>111</ns3:hr>
          </ns3:TrackPointExtension>
        </extensions>
      </trkpt>
      <trkpt lat="36.8170027434825897216796875" lon="-118.4403084218502044677734375">
        <ele>3738.60009765625</ele>
        <time>2021-06-26T18:06:43.000Z</time>
        <extensions>
          <ns3:TrackPointExtension>
            <ns3:atemp>26.0</ns3:atemp>
            <ns3:hr>108</ns3:hr>
          </ns3:TrackPointExtension>
        </extensions>
      </trkpt>
      <trkpt lat="36.8170032463967800140380859375" lon="-118.44030934385955333709716796875">
        <ele>3738.60009765625</ele>
        <time>2021-06-26T18:06:47.000Z</time>
        <extensions>
          <ns3:TrackPointExtension>
            <ns3:atemp>26.0</ns3:atemp>
            <ns3:hr>104</ns3:hr>
          </ns3:TrackPointExtension>
        </extensions>
      </trkpt>
      <trkpt lat="36.8170035816729068756103515625" lon="-118.4403099305927753448486328125">
        <ele>3738.800048828125</ele>
        <time>2021-06-26T18:06:50.000Z</time>
        <extensions>
          <ns3:TrackPointExtension>
            <ns3:atemp>26.0</ns3:atemp>
            <ns3:hr>101</ns3:hr>
          </ns3:TrackPointExtension>
        </extensions>
      </trkpt>
      <trkpt lat="36.817003749310970306396484375" lon="-118.44031001441180706024169921875">
        <ele>3738.800048828125</ele>
        <time>2021-06-26T18:06:51.000Z</time>
        <extensions>
          <ns3:TrackPointExtension>
            <ns3:atemp>26.0</ns3:atemp>
            <ns3:hr>98</ns3:hr>
          </ns3:TrackPointExtension>
        </extensions>
      </trkpt>
      <trkpt lat="36.817004419863224029541015625" lon="-118.44031085260212421417236328125">
        <ele>3740</ele>
        <time>2021-06-26T18:07:14.000Z</time>
        <extensions>
          <ns3:TrackPointExtension>
            <ns3:atemp>26.0</ns3:atemp>
            <ns3:hr>98</ns3:hr>
          </ns3:TrackPointExtension>
        </extensions>
      </trkpt>
      <trkpt lat="36.8170029111206531524658203125" lon="-118.44031135551631450653076171875">
        <ele>3740.800048828125</ele>
        <time>2021-06-26T18:07:21.000Z</time>
        <extensions>
          <ns3:TrackPointExtension>
            <ns3:atemp>26.0</ns3:atemp>
            <ns3:hr>102</ns3:hr>
          </ns3:TrackPointExtension>
        </extensions>
      </trkpt>
      <trkpt lat="36.8170027434825897216796875" lon="-118.4403116069734096527099609375">
        <ele>3741.60009765625</ele>
        <time>2021-06-26T18:07:22.000Z</time>
        <extensions>
          <ns3:TrackPointExtension>
            <ns3:atemp>26.0</ns3:atemp>
            <ns3:hr>102</ns3:hr>
          </ns3:TrackPointExtension>
        </extensions>
      </trkpt>
      <trkpt lat="36.81700232438743114471435546875" lon="-118.44031286425888538360595703125">
        <ele>3742.60009765625</ele>
        <time>2021-06-26T18:07:28.000Z</time>
        <extensions>
          <ns3:TrackPointExtension>
            <ns3:atemp>26.0</ns3:atemp>
            <ns3:hr>101</ns3:hr>
          </ns3:TrackPointExtension>
        </extensions>
      </trkpt>
      <trkpt lat="36.8170022405683994293212890625" lon="-118.44031420536339282989501953125">
        <ele>3743.60009765625</ele>
        <time>2021-06-26T18:07:35.000Z</time>
        <extensions>
          <ns3:TrackPointExtension>
            <ns3:atemp>26.0</ns3:atemp>
            <ns3:hr>102</ns3:hr>
          </ns3:TrackPointExtension>
        </extensions>
      </trkpt>
      <trkpt lat="36.81700232438743114471435546875" lon="-118.44031445682048797607421875">
        <ele>3744</ele>
        <time>2021-06-26T18:07:41.000Z</time>
        <extensions>
          <ns3:TrackPointExtension>
            <ns3:atemp>26.0</ns3:atemp>
            <ns3:hr>105</ns3:hr>
          </ns3:TrackPointExtension>
        </extensions>
      </trkpt>
      <trkpt lat="36.817002408206462860107421875" lon="-118.440314792096614837646484375">
        <ele>3745.199951171875</ele>
        <time>2021-06-26T18:07:46.000Z</time>
        <extensions>
          <ns3:TrackPointExtension>
            <ns3:atemp>27.0</ns3:atemp>
            <ns3:hr>105</ns3:hr>
          </ns3:TrackPointExtension>
        </extensions>
      </trkpt>
      <trkpt lat="36.81700249202549457550048828125" lon="-118.44031504355370998382568359375">
        <ele>3745.39990234375</ele>
        <time>2021-06-26T18:07:48.000Z</time>
        <extensions>
          <ns3:TrackPointExtension>
            <ns3:atemp>27.0</ns3:atemp>
            <ns3:hr>108</ns3:hr>
          </ns3:TrackPointExtension>
        </extensions>
      </trkpt>
      <trkpt lat="36.8170025758445262908935546875" lon="-118.440315462648868560791015625">
        <ele>3746.199951171875</ele>
        <time>2021-06-26T18:07:53.000Z</time>
        <extensions>
          <ns3:TrackPointExtension>
            <ns3:atemp>27.0</ns3:atemp>
            <ns3:hr>109</ns3:hr>
          </ns3:TrackPointExtension>
        </extensions>
      </trkpt>
      <trkpt lat="36.81700265966355800628662109375" lon="-118.4403156302869319915771484375">
        <ele>3746.199951171875</ele>
        <time>2021-06-26T18:07:54.000Z</time>
        <extensions>
          <ns3:TrackPointExtension>
            <ns3:atemp>27.0</ns3:atemp>
            <ns3:hr>109</ns3:hr>
          </ns3:TrackPointExtension>
        </extensions>
      </trkpt>
      <trkpt lat="36.8170027434825897216796875" lon="-118.44031588174402713775634765625">
        <ele>3746.60009765625</ele>
        <time>2021-06-26T18:07:56.000Z</time>
        <extensions>
          <ns3:TrackPointExtension>
            <ns3:atemp>27.0</ns3:atemp>
            <ns3:hr>112</ns3:hr>
          </ns3:TrackPointExtension>
        </extensions>
      </trkpt>
      <trkpt lat="36.81700341403484344482421875" lon="-118.44031755812466144561767578125">
        <ele>3747.60009765625</ele>
        <time>2021-06-26T18:08:08.000Z</time>
        <extensions>
          <ns3:TrackPointExtension>
            <ns3:atemp>27.0</ns3:atemp>
            <ns3:hr>113</ns3:hr>
          </ns3:TrackPointExtension>
        </extensions>
      </trkpt>
      <trkpt lat="36.81700366549193859100341796875" lon="-118.44031822867691516876220703125">
        <ele>3748</ele>
        <time>2021-06-26T18:08:12.000Z</time>
        <extensions>
          <ns3:TrackPointExtension>
            <ns3:atemp>27.0</ns3:atemp>
            <ns3:hr>116</ns3:hr>
          </ns3:TrackPointExtension>
        </extensions>
      </trkpt>
      <trkpt lat="36.8170039169490337371826171875" lon="-118.44031889922916889190673828125">
        <ele>3748.60009765625</ele>
        <time>2021-06-26T18:08:16.000Z</time>
        <extensions>
          <ns3:TrackPointExtension>
            <ns3:atemp>27.0</ns3:atemp>
            <ns3:hr>116</ns3:hr>
          </ns3:TrackPointExtension>
        </extensions>
      </trkpt>
      <trkpt lat="36.81700400076806545257568359375" lon="-118.44031923450529575347900390625">
        <ele>3748.800048828125</ele>
        <time>2021-06-26T18:08:18.000Z</time>
        <extensions>
          <ns3:TrackPointExtension>
            <ns3:atemp>27.0</ns3:atemp>
            <ns3:hr>113</ns3:hr>
          </ns3:TrackPointExtension>
        </extensions>
      </trkpt>
      <trkpt lat="36.81700416840612888336181640625" lon="-118.4403196536004543304443359375">
        <ele>3749.199951171875</ele>
        <time>2021-06-26T18:08:20.000Z</time>
        <extensions>
          <ns3:TrackPointExtension>
            <ns3:atemp>27.0</ns3:atemp>
            <ns3:hr>110</ns3:hr>
          </ns3:TrackPointExtension>
        </extensions>
      </trkpt>
      <trkpt lat="36.81700433604419231414794921875" lon="-118.44032024033367633819580078125">
        <ele>3749.800048828125</ele>
        <time>2021-06-26T18:08:23.000Z</time>
        <extensions>
          <ns3:TrackPointExtension>
            <ns3:atemp>27.0</ns3:atemp>
            <ns3:hr>109</ns3:hr>
          </ns3:TrackPointExtension>
        </extensions>
      </trkpt>
      <trkpt lat="36.8170045875012874603271484375" lon="-118.44032141380012035369873046875">
        <ele>3751.199951171875</ele>
        <time>2021-06-26T18:08:28.000Z</time>
        <extensions>
          <ns3:TrackPointExtension>
            <ns3:atemp>27.0</ns3:atemp>
            <ns3:hr>108</ns3:hr>
          </ns3:TrackPointExtension>
        </extensions>
      </trkpt>
      <trkpt lat="36.81700483895838260650634765625" lon="-118.440322838723659515380859375">
        <ele>3751.39990234375</ele>
        <time>2021-06-26T18:08:33.000Z</time>
        <extensions>
          <ns3:TrackPointExtension>
            <ns3:atemp>27.0</ns3:atemp>
            <ns3:hr>104</ns3:hr>
          </ns3:TrackPointExtension>
        </extensions>
      </trkpt>
      <trkpt lat="36.817005090415477752685546875" lon="-118.4403240121901035308837890625">
        <ele>3752.39990234375</ele>
        <time>2021-06-26T18:08:37.000Z</time>
        <extensions>
          <ns3:TrackPointExtension>
            <ns3:atemp>27.0</ns3:atemp>
            <ns3:hr>105</ns3:hr>
          </ns3:TrackPointExtension>
        </extensions>
      </trkpt>
      <trkpt lat="36.81700668297708034515380859375" lon="-118.4403300471603870391845703125">
        <ele>3752.800048828125</ele>
        <time>2021-06-26T18:08:56.000Z</time>
        <extensions>
          <ns3:TrackPointExtension>
            <ns3:atemp>27.0</ns3:atemp>
            <ns3:hr>109</ns3:hr>
          </ns3:TrackPointExtension>
        </extensions>
      </trkpt>
      <trkpt lat="36.817007102072238922119140625" lon="-118.44033130444586277008056640625">
        <ele>3752.800048828125</ele>
        <time>2021-06-26T18:09:00.000Z</time>
        <extensions>
          <ns3:TrackPointExtension>
            <ns3:atemp>27.0</ns3:atemp>
            <ns3:hr>112</ns3:hr>
          </ns3:TrackPointExtension>
        </extensions>
      </trkpt>
      <trkpt lat="36.8170072697103023529052734375" lon="-118.44033197499811649322509765625">
        <ele>3752.800048828125</ele>
        <time>2021-06-26T18:09:02.000Z</time>
        <extensions>
          <ns3:TrackPointExtension>
            <ns3:atemp>27.0</ns3:atemp>
            <ns3:hr>115</ns3:hr>
          </ns3:TrackPointExtension>
        </extensions>
      </trkpt>
      <trkpt lat="36.81700785644352436065673828125" lon="-118.44033348374068737030029296875">
        <ele>3753.199951171875</ele>
        <time>2021-06-26T18:09:07.000Z</time>
        <extensions>
          <ns3:TrackPointExtension>
            <ns3:atemp>27.0</ns3:atemp>
            <ns3:hr>118</ns3:hr>
          </ns3:TrackPointExtension>
        </extensions>
      </trkpt>
      <trkpt lat="36.8170082755386829376220703125" lon="-118.4403347410261631011962890625">
        <ele>3753.39990234375</ele>
        <time>2021-06-26T18:09:11.000Z</time>
        <extensions>
          <ns3:TrackPointExtension>
            <ns3:atemp>27.0</ns3:atemp>
            <ns3:hr>118</ns3:hr>
          </ns3:TrackPointExtension>
        </extensions>
      </trkpt>
      <trkpt lat="36.81701037101447582244873046875" lon="-118.44034035690128803253173828125">
        <ele>3752.800048828125</ele>
        <time>2021-06-26T18:09:30.000Z</time>
        <extensions>
          <ns3:TrackPointExtension>
            <ns3:atemp>27.0</ns3:atemp>
            <ns3:hr>115</ns3:hr>
          </ns3:TrackPointExtension>
        </extensions>
      </trkpt>
      <trkpt lat="36.8170107901096343994140625" lon="-118.44034136272966861724853515625">
        <ele>3753</ele>
        <time>2021-06-26T18:09:34.000Z</time>
        <extensions>
          <ns3:TrackPointExtension>
            <ns3:atemp>27.0</ns3:atemp>
            <ns3:hr>111</ns3:hr>
          </ns3:TrackPointExtension>
        </extensions>
      </trkpt>
      <trkpt lat="36.81701204739511013031005859375" lon="-118.44034396111965179443359375">
        <ele>3753.39990234375</ele>
        <time>2021-06-26T18:09:44.000Z</time>
        <extensions>
          <ns3:TrackPointExtension>
            <ns3:atemp>27.0</ns3:atemp>
            <ns3:hr>108</ns3:hr>
          </ns3:TrackPointExtension>
        </extensions>
      </trkpt>
      <trkpt lat="36.8170139752328395843505859375" lon="-118.4403478167951107025146484375">
        <ele>3753</ele>
        <time>2021-06-26T18:09:59.000Z</time>
        <extensions>
          <ns3:TrackPointExtension>
            <ns3:atemp>27.0</ns3:atemp>
            <ns3:hr>104</ns3:hr>
          </ns3:TrackPointExtension>
        </extensions>
      </trkpt>
      <trkpt lat="36.81701422668993473052978515625" lon="-118.440348319709300994873046875">
        <ele>3753</ele>
        <time>2021-06-26T18:10:01.000Z</time>
        <extensions>
          <ns3:TrackPointExtension>
            <ns3:atemp>27.0</ns3:atemp>
            <ns3:hr>101</ns3:hr>
          </ns3:TrackPointExtension>
        </extensions>
      </trkpt>
      <trkpt lat="36.81701548397541046142578125" lon="-118.4403508342802524566650390625">
        <ele>3753.199951171875</ele>
        <time>2021-06-26T18:10:11.000Z</time>
        <extensions>
          <ns3:TrackPointExtension>
            <ns3:atemp>27.0</ns3:atemp>
            <ns3:hr>107</ns3:hr>
          </ns3:TrackPointExtension>
        </extensions>
      </trkpt>
      <trkpt lat="36.8170156516134738922119140625" lon="-118.44035108573734760284423828125">
        <ele>3753.199951171875</ele>
        <time>2021-06-26T18:10:12.000Z</time>
        <extensions>
          <ns3:TrackPointExtension>
            <ns3:atemp>27.0</ns3:atemp>
            <ns3:hr>110</ns3:hr>
          </ns3:TrackPointExtension>
        </extensions>
      </trkpt>
      <trkpt lat="36.81701573543250560760498046875" lon="-118.44035125337541103363037109375">
        <ele>3753.199951171875</ele>
        <time>2021-06-26T18:10:13.000Z</time>
        <extensions>
          <ns3:TrackPointExtension>
            <ns3:atemp>27.0</ns3:atemp>
            <ns3:hr>113</ns3:hr>
          </ns3:TrackPointExtension>
        </extensions>
      </trkpt>
      <trkpt lat="36.81701590307056903839111328125" lon="-118.44035158865153789520263671875">
        <ele>3753.199951171875</ele>
        <time>2021-06-26T18:10:14.000Z</time>
        <extensions>
          <ns3:TrackPointExtension>
            <ns3:atemp>27.0</ns3:atemp>
            <ns3:hr>116</ns3:hr>
          </ns3:TrackPointExtension>
        </extensions>
      </trkpt>
      <trkpt lat="36.8170159868896007537841796875" lon="-118.44035192392766475677490234375">
        <ele>3753.199951171875</ele>
        <time>2021-06-26T18:10:15.000Z</time>
        <extensions>
          <ns3:TrackPointExtension>
            <ns3:atemp>27.0</ns3:atemp>
            <ns3:hr>119</ns3:hr>
          </ns3:TrackPointExtension>
        </extensions>
      </trkpt>
      <trkpt lat="36.81701724417507648468017578125" lon="-118.44035427086055278778076171875">
        <ele>3754</ele>
        <time>2021-06-26T18:10:24.000Z</time>
        <extensions>
          <ns3:TrackPointExtension>
            <ns3:atemp>27.0</ns3:atemp>
            <ns3:hr>122</ns3:hr>
          </ns3:TrackPointExtension>
        </extensions>
      </trkpt>
      <trkpt lat="36.817017495632171630859375" lon="-118.44035468995571136474609375">
        <ele>3754.60009765625</ele>
        <time>2021-06-26T18:10:26.000Z</time>
        <extensions>
          <ns3:TrackPointExtension>
            <ns3:atemp>27.0</ns3:atemp>
            <ns3:hr>121</ns3:hr>
          </ns3:TrackPointExtension>
        </extensions>
      </trkpt>
      <trkpt lat="36.81701808236539363861083984375" lon="-118.4403558634221553802490234375">
        <ele>3755.199951171875</ele>
        <time>2021-06-26T18:10:30.000Z</time>
        <extensions>
          <ns3:TrackPointExtension>
            <ns3:atemp>27.0</ns3:atemp>
            <ns3:hr>118</ns3:hr>
          </ns3:TrackPointExtension>
        </extensions>
      </trkpt>
      <trkpt lat="36.8170186690986156463623046875" lon="-118.44035695306956768035888671875">
        <ele>3754.60009765625</ele>
        <time>2021-06-26T18:10:34.000Z</time>
        <extensions>
          <ns3:TrackPointExtension>
            <ns3:atemp>27.0</ns3:atemp>
            <ns3:hr>115</ns3:hr>
          </ns3:TrackPointExtension>
        </extensions>
      </trkpt>
      <trkpt lat="36.8170193396508693695068359375" lon="-118.4403578750789165496826171875">
        <ele>3754.800048828125</ele>
        <time>2021-06-26T18:10:38.000Z</time>
        <extensions>
          <ns3:TrackPointExtension>
            <ns3:atemp>27.0</ns3:atemp>
            <ns3:hr>112</ns3:hr>
          </ns3:TrackPointExtension>
        </extensions>
      </trkpt>
      <trkpt lat="36.81702076457440853118896484375" lon="-118.4403595514595508575439453125">
        <ele>3755.39990234375</ele>
        <time>2021-06-26T18:10:45.000Z</time>
        <extensions>
          <ns3:TrackPointExtension>
            <ns3:atemp>27.0</ns3:atemp>
            <ns3:hr>109</ns3:hr>
          </ns3:TrackPointExtension>
        </extensions>
      </trkpt>
      <trkpt lat="36.81702143512666225433349609375" lon="-118.4403602220118045806884765625">
        <ele>3755.60009765625</ele>
        <time>2021-06-26T18:10:48.000Z</time>
        <extensions>
          <ns3:TrackPointExtension>
            <ns3:atemp>27.0</ns3:atemp>
            <ns3:hr>109</ns3:hr>
          </ns3:TrackPointExtension>
        </extensions>
      </trkpt>
      <trkpt lat="36.817023195326328277587890625" lon="-118.4403620660305023193359375">
        <ele>3756.60009765625</ele>
        <time>2021-06-26T18:10:56.000Z</time>
        <extensions>
          <ns3:TrackPointExtension>
            <ns3:atemp>27.0</ns3:atemp>
            <ns3:hr>110</ns3:hr>
          </ns3:TrackPointExtension>
        </extensions>
      </trkpt>
      <trkpt lat="36.8170233629643917083740234375" lon="-118.4403622336685657501220703125">
        <ele>3757.199951171875</ele>
        <time>2021-06-26T18:10:57.000Z</time>
        <extensions>
          <ns3:TrackPointExtension>
            <ns3:atemp>27.0</ns3:atemp>
            <ns3:hr>110</ns3:hr>
          </ns3:TrackPointExtension>
        </extensions>
      </trkpt>
      <trkpt lat="36.817023865878582000732421875" lon="-118.44036273658275604248046875">
        <ele>3757.60009765625</ele>
        <time>2021-06-26T18:10:59.000Z</time>
        <extensions>
          <ns3:TrackPointExtension>
            <ns3:atemp>27.0</ns3:atemp>
            <ns3:hr>111</ns3:hr>
          </ns3:TrackPointExtension>
        </extensions>
      </trkpt>
      <trkpt lat="36.817025206983089447021484375" lon="-118.44036407768726348876953125">
        <ele>3758.800048828125</ele>
        <time>2021-06-26T18:11:05.000Z</time>
        <extensions>
          <ns3:TrackPointExtension>
            <ns3:atemp>27.0</ns3:atemp>
            <ns3:hr>113</ns3:hr>
          </ns3:TrackPointExtension>
        </extensions>
      </trkpt>
      <trkpt lat="36.81702696718275547027587890625" lon="-118.4403655864298343658447265625">
        <ele>3759.800048828125</ele>
        <time>2021-06-26T18:11:12.000Z</time>
        <extensions>
          <ns3:TrackPointExtension>
            <ns3:atemp>27.0</ns3:atemp>
            <ns3:hr>116</ns3:hr>
          </ns3:TrackPointExtension>
        </extensions>
      </trkpt>
      <trkpt lat="36.817027218639850616455078125" lon="-118.44036583788692951202392578125">
        <ele>3759.800048828125</ele>
        <time>2021-06-26T18:11:13.000Z</time>
        <extensions>
          <ns3:TrackPointExtension>
            <ns3:atemp>27.0</ns3:atemp>
            <ns3:hr>117</ns3:hr>
          </ns3:TrackPointExtension>
        </extensions>
      </trkpt>
      <trkpt lat="36.8170280568301677703857421875" lon="-118.44036650843918323516845703125">
        <ele>3760.199951171875</ele>
        <time>2021-06-26T18:11:16.000Z</time>
        <extensions>
          <ns3:TrackPointExtension>
            <ns3:atemp>27.0</ns3:atemp>
            <ns3:hr>120</ns3:hr>
          </ns3:TrackPointExtension>
        </extensions>
      </trkpt>
      <trkpt lat="36.81702931411564350128173828125" lon="-118.44036751426756381988525390625">
        <ele>3760.800048828125</ele>
        <time>2021-06-26T18:11:20.000Z</time>
        <extensions>
          <ns3:TrackPointExtension>
            <ns3:atemp>27.0</ns3:atemp>
            <ns3:hr>119</ns3:hr>
          </ns3:TrackPointExtension>
        </extensions>
      </trkpt>
      <trkpt lat="36.81703090667724609375" lon="-118.4403686039149761199951171875">
        <ele>3761.800048828125</ele>
        <time>2021-06-26T18:11:25.000Z</time>
        <extensions>
          <ns3:TrackPointExtension>
            <ns3:atemp>27.0</ns3:atemp>
            <ns3:hr>119</ns3:hr>
          </ns3:TrackPointExtension>
        </extensions>
      </trkpt>
      <trkpt lat="36.8170361034572124481201171875" lon="-118.44037187285721302032470703125">
        <ele>3763.199951171875</ele>
        <time>2021-06-26T18:11:39.000Z</time>
        <extensions>
          <ns3:TrackPointExtension>
            <ns3:atemp>27.0</ns3:atemp>
            <ns3:hr>119</ns3:hr>
          </ns3:TrackPointExtension>
        </extensions>
      </trkpt>
      <trkpt lat="36.8170391209423542022705078125" lon="-118.4403739683330059051513671875">
        <ele>3764.199951171875</ele>
        <time>2021-06-26T18:11:47.000Z</time>
        <extensions>
          <ns3:TrackPointExtension>
            <ns3:atemp>27.0</ns3:atemp>
            <ns3:hr>122</ns3:hr>
          </ns3:TrackPointExtension>
        </extensions>
      </trkpt>
      <trkpt lat="36.8170402944087982177734375" lon="-118.44037480652332305908203125">
        <ele>3764.800048828125</ele>
        <time>2021-06-26T18:11:50.000Z</time>
        <extensions>
          <ns3:TrackPointExtension>
            <ns3:atemp>27.0</ns3:atemp>
            <ns3:hr>125</ns3:hr>
          </ns3:TrackPointExtension>
        </extensions>
      </trkpt>
      <trkpt lat="36.81704104878008365631103515625" lon="-118.44037539325654506683349609375">
        <ele>3765</ele>
        <time>2021-06-26T18:11:52.000Z</time>
        <extensions>
          <ns3:TrackPointExtension>
            <ns3:atemp>27.0</ns3:atemp>
            <ns3:hr>122</ns3:hr>
          </ns3:TrackPointExtension>
        </extensions>
      </trkpt>
      <trkpt lat="36.81704490445554256439208984375" lon="-118.44037857837975025177001953125">
        <ele>3765.39990234375</ele>
        <time>2021-06-26T18:12:02.000Z</time>
        <extensions>
          <ns3:TrackPointExtension>
            <ns3:atemp>27.0</ns3:atemp>
            <ns3:hr>121</ns3:hr>
          </ns3:TrackPointExtension>
        </extensions>
      </trkpt>
      <trkpt lat="36.81704699993133544921875" lon="-118.44038025476038455963134765625">
        <ele>3766.60009765625</ele>
        <time>2021-06-26T18:12:07.000Z</time>
        <extensions>
          <ns3:TrackPointExtension>
            <ns3:atemp>27.0</ns3:atemp>
            <ns3:hr>120</ns3:hr>
          </ns3:TrackPointExtension>
        </extensions>
      </trkpt>
      <trkpt lat="36.81704909540712833404541015625" lon="-118.440382182598114013671875">
        <ele>3768.199951171875</ele>
        <time>2021-06-26T18:12:12.000Z</time>
        <extensions>
          <ns3:TrackPointExtension>
            <ns3:atemp>27.0</ns3:atemp>
            <ns3:hr>121</ns3:hr>
          </ns3:TrackPointExtension>
        </extensions>
      </trkpt>
      <trkpt lat="36.817052364349365234375" lon="-118.4403850324451923370361328125">
        <ele>3769.199951171875</ele>
        <time>2021-06-26T18:12:19.000Z</time>
        <extensions>
          <ns3:TrackPointExtension>
            <ns3:atemp>27.0</ns3:atemp>
            <ns3:hr>120</ns3:hr>
          </ns3:TrackPointExtension>
        </extensions>
      </trkpt>
      <trkpt lat="36.817059405148029327392578125" lon="-118.4403907321393489837646484375">
        <ele>3770.39990234375</ele>
        <time>2021-06-26T18:12:33.000Z</time>
        <extensions>
          <ns3:TrackPointExtension>
            <ns3:atemp>27.0</ns3:atemp>
            <ns3:hr>119</ns3:hr>
          </ns3:TrackPointExtension>
        </extensions>
      </trkpt>
      <trkpt lat="36.8170649372041225433349609375" lon="-118.44039467163383960723876953125">
        <ele>3771</ele>
        <time>2021-06-26T18:12:43.000Z</time>
        <extensions>
          <ns3:TrackPointExtension>
            <ns3:atemp>27.0</ns3:atemp>
            <ns3:hr>122</ns3:hr>
          </ns3:TrackPointExtension>
        </extensions>
      </trkpt>
      <trkpt lat="36.817066110670566558837890625" lon="-118.44039534218609333038330078125">
        <ele>3771.39990234375</ele>
        <time>2021-06-26T18:12:45.000Z</time>
        <extensions>
          <ns3:TrackPointExtension>
            <ns3:atemp>27.0</ns3:atemp>
            <ns3:hr>123</ns3:hr>
          </ns3:TrackPointExtension>
        </extensions>
      </trkpt>
      <trkpt lat="36.81706845760345458984375" lon="-118.440396599471569061279296875">
        <ele>3772</ele>
        <time>2021-06-26T18:12:49.000Z</time>
        <extensions>
          <ns3:TrackPointExtension>
            <ns3:atemp>27.0</ns3:atemp>
            <ns3:hr>125</ns3:hr>
          </ns3:TrackPointExtension>
        </extensions>
      </trkpt>
      <trkpt lat="36.81706912815570831298828125" lon="-118.4403969347476959228515625">
        <ele>3772.39990234375</ele>
        <time>2021-06-26T18:12:50.000Z</time>
        <extensions>
          <ns3:TrackPointExtension>
            <ns3:atemp>27.0</ns3:atemp>
            <ns3:hr>125</ns3:hr>
          </ns3:TrackPointExtension>
        </extensions>
      </trkpt>
      <trkpt lat="36.81707290001213550567626953125" lon="-118.440398611128330230712890625">
        <ele>3773.199951171875</ele>
        <time>2021-06-26T18:12:56.000Z</time>
        <extensions>
          <ns3:TrackPointExtension>
            <ns3:atemp>27.0</ns3:atemp>
            <ns3:hr>128</ns3:hr>
          </ns3:TrackPointExtension>
        </extensions>
      </trkpt>
      <trkpt lat="36.81707424111664295196533203125" lon="-118.44039903022348880767822265625">
        <ele>3774.199951171875</ele>
        <time>2021-06-26T18:12:58.000Z</time>
        <extensions>
          <ns3:TrackPointExtension>
            <ns3:atemp>26.0</ns3:atemp>
            <ns3:hr>133</ns3:hr>
          </ns3:TrackPointExtension>
        </extensions>
      </trkpt>
      <trkpt lat="36.817078180611133575439453125" lon="-118.44040053896605968475341796875">
        <ele>3775.60009765625</ele>
        <time>2021-06-26T18:13:04.000Z</time>
        <extensions>
          <ns3:TrackPointExtension>
            <ns3:atemp>26.0</ns3:atemp>
            <ns3:hr>135</ns3:hr>
          </ns3:TrackPointExtension>
        </extensions>
      </trkpt>
      <trkpt lat="36.8170830421149730682373046875" lon="-118.4404022991657257080078125">
        <ele>3775.60009765625</ele>
        <time>2021-06-26T18:13:11.000Z</time>
        <extensions>
          <ns3:TrackPointExtension>
            <ns3:atemp>26.0</ns3:atemp>
            <ns3:hr>130</ns3:hr>
          </ns3:TrackPointExtension>
        </extensions>
      </trkpt>
      <trkpt lat="36.81708790361881256103515625" lon="-118.4404041431844234466552734375">
        <ele>3776.60009765625</ele>
        <time>2021-06-26T18:13:18.000Z</time>
        <extensions>
          <ns3:TrackPointExtension>
            <ns3:atemp>26.0</ns3:atemp>
            <ns3:hr>132</ns3:hr>
          </ns3:TrackPointExtension>
        </extensions>
      </trkpt>
      <trkpt lat="36.8170914240181446075439453125" lon="-118.44040573574602603912353515625">
        <ele>3778</ele>
        <time>2021-06-26T18:13:23.000Z</time>
        <extensions>
          <ns3:TrackPointExtension>
            <ns3:atemp>26.0</ns3:atemp>
            <ns3:hr>131</ns3:hr>
          </ns3:TrackPointExtension>
        </extensions>
      </trkpt>
      <trkpt lat="36.81709620170295238494873046875" lon="-118.4404081664979457855224609375">
        <ele>3778.800048828125</ele>
        <time>2021-06-26T18:13:30.000Z</time>
        <extensions>
          <ns3:TrackPointExtension>
            <ns3:atemp>26.0</ns3:atemp>
            <ns3:hr>127</ns3:hr>
          </ns3:TrackPointExtension>
        </extensions>
      </trkpt>
      <trkpt lat="36.81709687225520610809326171875" lon="-118.44040858559310436248779296875">
        <ele>3779</ele>
        <time>2021-06-26T18:13:31.000Z</time>
        <extensions>
          <ns3:TrackPointExtension>
            <ns3:atemp>26.0</ns3:atemp>
            <ns3:hr>128</ns3:hr>
          </ns3:TrackPointExtension>
        </extensions>
      </trkpt>
      <trkpt lat="36.817098967730998992919921875" lon="-118.44040975905954837799072265625">
        <ele>3780</ele>
        <time>2021-06-26T18:13:34.000Z</time>
        <extensions>
          <ns3:TrackPointExtension>
            <ns3:atemp>26.0</ns3:atemp>
            <ns3:hr>131</ns3:hr>
          </ns3:TrackPointExtension>
        </extensions>
      </trkpt>
      <trkpt lat="36.817100308835506439208984375" lon="-118.4404105134308338165283203125">
        <ele>3780.199951171875</ele>
        <time>2021-06-26T18:13:36.000Z</time>
        <extensions>
          <ns3:TrackPointExtension>
            <ns3:atemp>26.0</ns3:atemp>
            <ns3:hr>133</ns3:hr>
          </ns3:TrackPointExtension>
        </extensions>
      </trkpt>
      <trkpt lat="36.81710508652031421661376953125" lon="-118.44041344709694385528564453125">
        <ele>3781.39990234375</ele>
        <time>2021-06-26T18:13:43.000Z</time>
        <extensions>
          <ns3:TrackPointExtension>
            <ns3:atemp>26.0</ns3:atemp>
            <ns3:hr>136</ns3:hr>
          </ns3:TrackPointExtension>
        </extensions>
      </trkpt>
      <trkpt lat="36.8171135522425174713134765625" lon="-118.44041881151497364044189453125">
        <ele>3782.39990234375</ele>
        <time>2021-06-26T18:13:55.000Z</time>
        <extensions>
          <ns3:TrackPointExtension>
            <ns3:atemp>26.0</ns3:atemp>
            <ns3:hr>136</ns3:hr>
          </ns3:TrackPointExtension>
        </extensions>
      </trkpt>
      <trkpt lat="36.8171229399740695953369140625" lon="-118.44042551703751087188720703125">
        <ele>3782.39990234375</ele>
        <time>2021-06-26T18:14:08.000Z</time>
        <extensions>
          <ns3:TrackPointExtension>
            <ns3:atemp>26.0</ns3:atemp>
            <ns3:hr>132</ns3:hr>
          </ns3:TrackPointExtension>
        </extensions>
      </trkpt>
      <trkpt lat="36.81712436489760875701904296875" lon="-118.4404266066849231719970703125">
        <ele>3782.199951171875</ele>
        <time>2021-06-26T18:14:10.000Z</time>
        <extensions>
          <ns3:TrackPointExtension>
            <ns3:atemp>26.0</ns3:atemp>
            <ns3:hr>129</ns3:hr>
          </ns3:TrackPointExtension>
        </extensions>
      </trkpt>
      <trkpt lat="36.8171413801610469818115234375" lon="-118.4404398500919342041015625">
        <ele>3782</ele>
        <time>2021-06-26T18:14:33.000Z</time>
        <extensions>
          <ns3:TrackPointExtension>
            <ns3:atemp>27.0</ns3:atemp>
            <ns3:hr>126</ns3:hr>
          </ns3:TrackPointExtension>
        </extensions>
      </trkpt>
      <trkpt lat="36.81714347563683986663818359375" lon="-118.44044161029160022735595703125">
        <ele>3782</ele>
        <time>2021-06-26T18:14:36.000Z</time>
        <extensions>
          <ns3:TrackPointExtension>
            <ns3:atemp>27.0</ns3:atemp>
            <ns3:hr>123</ns3:hr>
          </ns3:TrackPointExtension>
        </extensions>
      </trkpt>
      <trkpt lat="36.8171484209597110748291015625" lon="-118.44044563360512256622314453125">
        <ele>3781.800048828125</ele>
        <time>2021-06-26T18:14:43.000Z</time>
        <extensions>
          <ns3:TrackPointExtension>
            <ns3:atemp>27.0</ns3:atemp>
            <ns3:hr>120</ns3:hr>
          </ns3:TrackPointExtension>
        </extensions>
      </trkpt>
      <trkpt lat="36.81714984588325023651123046875" lon="-118.44044680707156658172607421875">
        <ele>3781.800048828125</ele>
        <time>2021-06-26T18:14:45.000Z</time>
        <extensions>
          <ns3:TrackPointExtension>
            <ns3:atemp>27.0</ns3:atemp>
            <ns3:hr>117</ns3:hr>
          </ns3:TrackPointExtension>
        </extensions>
      </trkpt>
      <trkpt lat="36.817151270806789398193359375" lon="-118.44044798053801059722900390625">
        <ele>3781.39990234375</ele>
        <time>2021-06-26T18:14:47.000Z</time>
        <extensions>
          <ns3:TrackPointExtension>
            <ns3:atemp>27.0</ns3:atemp>
            <ns3:hr>113</ns3:hr>
          </ns3:TrackPointExtension>
        </extensions>
      </trkpt>
      <trkpt lat="36.817152611911296844482421875" lon="-118.44044915400445461273193359375">
        <ele>3781.39990234375</ele>
        <time>2021-06-26T18:14:49.000Z</time>
        <extensions>
          <ns3:TrackPointExtension>
            <ns3:atemp>27.0</ns3:atemp>
            <ns3:hr>109</ns3:hr>
          </ns3:TrackPointExtension>
        </extensions>
      </trkpt>
      <trkpt lat="36.81716158054769039154052734375" lon="-118.44045653007924556732177734375">
        <ele>3782.800048828125</ele>
        <time>2021-06-26T18:15:02.000Z</time>
        <extensions>
          <ns3:TrackPointExtension>
            <ns3:atemp>27.0</ns3:atemp>
            <ns3:hr>106</ns3:hr>
          </ns3:TrackPointExtension>
        </extensions>
      </trkpt>
      <trkpt lat="36.81716292165219783782958984375" lon="-118.440457619726657867431640625">
        <ele>3783.39990234375</ele>
        <time>2021-06-26T18:15:04.000Z</time>
        <extensions>
          <ns3:TrackPointExtension>
            <ns3:atemp>27.0</ns3:atemp>
            <ns3:hr>106</ns3:hr>
          </ns3:TrackPointExtension>
        </extensions>
      </trkpt>
      <trkpt lat="36.81716761551797389984130859375" lon="-118.4404613077640533447265625">
        <ele>3784.39990234375</ele>
        <time>2021-06-26T18:15:11.000Z</time>
        <extensions>
          <ns3:TrackPointExtension>
            <ns3:atemp>27.0</ns3:atemp>
            <ns3:hr>106</ns3:hr>
          </ns3:TrackPointExtension>
        </extensions>
      </trkpt>
      <trkpt lat="36.8171739019453525543212890625" lon="-118.44046600162982940673828125">
        <ele>3785.39990234375</ele>
        <time>2021-06-26T18:15:20.000Z</time>
        <extensions>
          <ns3:TrackPointExtension>
            <ns3:atemp>27.0</ns3:atemp>
            <ns3:hr>108</ns3:hr>
          </ns3:TrackPointExtension>
        </extensions>
      </trkpt>
      <trkpt lat="36.81717532686889171600341796875" lon="-118.440467007458209991455078125">
        <ele>3785.800048828125</ele>
        <time>2021-06-26T18:15:22.000Z</time>
        <extensions>
          <ns3:TrackPointExtension>
            <ns3:atemp>27.0</ns3:atemp>
            <ns3:hr>112</ns3:hr>
          </ns3:TrackPointExtension>
        </extensions>
      </trkpt>
      <trkpt lat="36.817176751792430877685546875" lon="-118.440468013286590576171875">
        <ele>3786</ele>
        <time>2021-06-26T18:15:24.000Z</time>
        <extensions>
          <ns3:TrackPointExtension>
            <ns3:atemp>27.0</ns3:atemp>
            <ns3:hr>115</ns3:hr>
          </ns3:TrackPointExtension>
        </extensions>
      </trkpt>
      <trkpt lat="36.81717817671597003936767578125" lon="-118.44046910293400287628173828125">
        <ele>3786.39990234375</ele>
        <time>2021-06-26T18:15:26.000Z</time>
        <extensions>
          <ns3:TrackPointExtension>
            <ns3:atemp>27.0</ns3:atemp>
            <ns3:hr>117</ns3:hr>
          </ns3:TrackPointExtension>
        </extensions>
      </trkpt>
      <trkpt lat="36.8171819485723972320556640625" lon="-118.44047161750495433807373046875">
        <ele>3787</ele>
        <time>2021-06-26T18:15:31.000Z</time>
        <extensions>
          <ns3:TrackPointExtension>
            <ns3:atemp>27.0</ns3:atemp>
            <ns3:hr>121</ns3:hr>
          </ns3:TrackPointExtension>
        </extensions>
      </trkpt>
      <trkpt lat="36.81718421168625354766845703125" lon="-118.4404732100665569305419921875">
        <ele>3787.60009765625</ele>
        <time>2021-06-26T18:15:34.000Z</time>
        <extensions>
          <ns3:TrackPointExtension>
            <ns3:atemp>27.0</ns3:atemp>
            <ns3:hr>121</ns3:hr>
          </ns3:TrackPointExtension>
        </extensions>
      </trkpt>
      <trkpt lat="36.81719108484685420989990234375" lon="-118.4404779039323329925537109375">
        <ele>3788.60009765625</ele>
        <time>2021-06-26T18:15:43.000Z</time>
        <extensions>
          <ns3:TrackPointExtension>
            <ns3:atemp>27.0</ns3:atemp>
            <ns3:hr>118</ns3:hr>
          </ns3:TrackPointExtension>
        </extensions>
      </trkpt>
      <trkpt lat="36.81719577871263027191162109375" lon="-118.4404809214174747467041015625">
        <ele>3788.800048828125</ele>
        <time>2021-06-26T18:15:49.000Z</time>
        <extensions>
          <ns3:TrackPointExtension>
            <ns3:atemp>27.0</ns3:atemp>
            <ns3:hr>118</ns3:hr>
          </ns3:TrackPointExtension>
        </extensions>
      </trkpt>
      <trkpt lat="36.81720055639743804931640625" lon="-118.44048402272164821624755859375">
        <ele>3789</ele>
        <time>2021-06-26T18:15:55.000Z</time>
        <extensions>
          <ns3:TrackPointExtension>
            <ns3:atemp>27.0</ns3:atemp>
            <ns3:hr>114</ns3:hr>
          </ns3:TrackPointExtension>
        </extensions>
      </trkpt>
      <trkpt lat="36.81720298714935779571533203125" lon="-118.4404856152832508087158203125">
        <ele>3789.60009765625</ele>
        <time>2021-06-26T18:15:58.000Z</time>
        <extensions>
          <ns3:TrackPointExtension>
            <ns3:atemp>27.0</ns3:atemp>
            <ns3:hr>115</ns3:hr>
          </ns3:TrackPointExtension>
        </extensions>
      </trkpt>
      <trkpt lat="36.817206256091594696044921875" lon="-118.4404876269400119781494140625">
        <ele>3789.800048828125</ele>
        <time>2021-06-26T18:16:02.000Z</time>
        <extensions>
          <ns3:TrackPointExtension>
            <ns3:atemp>27.0</ns3:atemp>
            <ns3:hr>114</ns3:hr>
          </ns3:TrackPointExtension>
        </extensions>
      </trkpt>
      <trkpt lat="36.81721103377640247344970703125" lon="-118.44049089588224887847900390625">
        <ele>3790.39990234375</ele>
        <time>2021-06-26T18:16:08.000Z</time>
        <extensions>
          <ns3:TrackPointExtension>
            <ns3:atemp>27.0</ns3:atemp>
            <ns3:hr>117</ns3:hr>
          </ns3:TrackPointExtension>
        </extensions>
      </trkpt>
      <trkpt lat="36.8172158114612102508544921875" lon="-118.44049424864351749420166015625">
        <ele>3791.199951171875</ele>
        <time>2021-06-26T18:16:14.000Z</time>
        <extensions>
          <ns3:TrackPointExtension>
            <ns3:atemp>27.0</ns3:atemp>
            <ns3:hr>119</ns3:hr>
          </ns3:TrackPointExtension>
        </extensions>
      </trkpt>
      <trkpt lat="36.8172181583940982818603515625" lon="-118.44049609266221523284912109375">
        <ele>3791.39990234375</ele>
        <time>2021-06-26T18:16:17.000Z</time>
        <extensions>
          <ns3:TrackPointExtension>
            <ns3:atemp>27.0</ns3:atemp>
            <ns3:hr>123</ns3:hr>
          </ns3:TrackPointExtension>
        </extensions>
      </trkpt>
      <trkpt lat="36.8172253668308258056640625" lon="-118.440501876175403594970703125">
        <ele>3792.199951171875</ele>
        <time>2021-06-26T18:16:26.000Z</time>
        <extensions>
          <ns3:TrackPointExtension>
            <ns3:atemp>27.0</ns3:atemp>
            <ns3:hr>122</ns3:hr>
          </ns3:TrackPointExtension>
        </extensions>
      </trkpt>
      <trkpt lat="36.81722779758274555206298828125" lon="-118.440503887832164764404296875">
        <ele>3792.60009765625</ele>
        <time>2021-06-26T18:16:29.000Z</time>
        <extensions>
          <ns3:TrackPointExtension>
            <ns3:atemp>27.0</ns3:atemp>
            <ns3:hr>118</ns3:hr>
          </ns3:TrackPointExtension>
        </extensions>
      </trkpt>
      <trkpt lat="36.817231066524982452392578125" lon="-118.4405064024031162261962890625">
        <ele>3793.39990234375</ele>
        <time>2021-06-26T18:16:33.000Z</time>
        <extensions>
          <ns3:TrackPointExtension>
            <ns3:atemp>27.0</ns3:atemp>
            <ns3:hr>117</ns3:hr>
          </ns3:TrackPointExtension>
        </extensions>
      </trkpt>
      <trkpt lat="36.81723768822848796844482421875" lon="-118.44051159918308258056640625">
        <ele>3793.39990234375</ele>
        <time>2021-06-26T18:16:41.000Z</time>
        <extensions>
          <ns3:TrackPointExtension>
            <ns3:atemp>27.0</ns3:atemp>
            <ns3:hr>114</ns3:hr>
          </ns3:TrackPointExtension>
        </extensions>
      </trkpt>
      <trkpt lat="36.817241124808788299560546875" lon="-118.44051419757306575775146484375">
        <ele>3794.39990234375</ele>
        <time>2021-06-26T18:16:45.000Z</time>
        <extensions>
          <ns3:TrackPointExtension>
            <ns3:atemp>27.0</ns3:atemp>
            <ns3:hr>111</ns3:hr>
          </ns3:TrackPointExtension>
        </extensions>
      </trkpt>
      <trkpt lat="36.81725612841546535491943359375" lon="-118.44052492640912532806396484375">
        <ele>3795.39990234375</ele>
        <time>2021-06-26T18:17:02.000Z</time>
        <extensions>
          <ns3:TrackPointExtension>
            <ns3:atemp>27.0</ns3:atemp>
            <ns3:hr>115</ns3:hr>
          </ns3:TrackPointExtension>
        </extensions>
      </trkpt>
      <trkpt lat="36.8172570504248142242431640625" lon="-118.44052559696137905120849609375">
        <ele>3795.60009765625</ele>
        <time>2021-06-26T18:17:03.000Z</time>
        <extensions>
          <ns3:TrackPointExtension>
            <ns3:atemp>27.0</ns3:atemp>
            <ns3:hr>116</ns3:hr>
          </ns3:TrackPointExtension>
        </extensions>
      </trkpt>
      <trkpt lat="36.817263253033161163330078125" lon="-118.44052978791296482086181640625">
        <ele>3795.800048828125</ele>
        <time>2021-06-26T18:17:10.000Z</time>
        <extensions>
          <ns3:TrackPointExtension>
            <ns3:atemp>27.0</ns3:atemp>
            <ns3:hr>119</ns3:hr>
          </ns3:TrackPointExtension>
        </extensions>
      </trkpt>
      <trkpt lat="36.81727222166955471038818359375" lon="-118.440535403788089752197265625">
        <ele>3796.800048828125</ele>
        <time>2021-06-26T18:17:20.000Z</time>
        <extensions>
          <ns3:TrackPointExtension>
            <ns3:atemp>27.0</ns3:atemp>
            <ns3:hr>120</ns3:hr>
          </ns3:TrackPointExtension>
        </extensions>
      </trkpt>
      <trkpt lat="36.817273981869220733642578125" lon="-118.44053649343550205230712890625">
        <ele>3797</ele>
        <time>2021-06-26T18:17:22.000Z</time>
        <extensions>
          <ns3:TrackPointExtension>
            <ns3:atemp>27.0</ns3:atemp>
            <ns3:hr>123</ns3:hr>
          </ns3:TrackPointExtension>
        </extensions>
      </trkpt>
      <trkpt lat="36.8172758258879184722900390625" lon="-118.44053766690194606781005859375">
        <ele>3797.199951171875</ele>
        <time>2021-06-26T18:17:24.000Z</time>
        <extensions>
          <ns3:TrackPointExtension>
            <ns3:atemp>27.0</ns3:atemp>
            <ns3:hr>126</ns3:hr>
          </ns3:TrackPointExtension>
        </extensions>
      </trkpt>
      <trkpt lat="36.81727943010628223419189453125" lon="-118.44053984619677066802978515625">
        <ele>3797.199951171875</ele>
        <time>2021-06-26T18:17:28.000Z</time>
        <extensions>
          <ns3:TrackPointExtension>
            <ns3:atemp>27.0</ns3:atemp>
            <ns3:hr>129</ns3:hr>
          </ns3:TrackPointExtension>
        </extensions>
      </trkpt>
      <trkpt lat="36.81728395633399486541748046875" lon="-118.4405426122248172760009765625">
        <ele>3798</ele>
        <time>2021-06-26T18:17:33.000Z</time>
        <extensions>
          <ns3:TrackPointExtension>
            <ns3:atemp>27.0</ns3:atemp>
            <ns3:hr>130</ns3:hr>
          </ns3:TrackPointExtension>
        </extensions>
      </trkpt>
      <trkpt lat="36.81728848256170749664306640625" lon="-118.44054537825286388397216796875">
        <ele>3798</ele>
        <time>2021-06-26T18:17:38.000Z</time>
        <extensions>
          <ns3:TrackPointExtension>
            <ns3:atemp>27.0</ns3:atemp>
            <ns3:hr>133</ns3:hr>
          </ns3:TrackPointExtension>
        </extensions>
      </trkpt>
      <trkpt lat="36.81729569099843502044677734375" lon="-118.44055007211863994598388671875">
        <ele>3798.800048828125</ele>
        <time>2021-06-26T18:17:46.000Z</time>
        <extensions>
          <ns3:TrackPointExtension>
            <ns3:atemp>27.0</ns3:atemp>
            <ns3:hr>130</ns3:hr>
          </ns3:TrackPointExtension>
        </extensions>
      </trkpt>
      <trkpt lat="36.81729845702648162841796875" lon="-118.44055183231830596923828125">
        <ele>3799.199951171875</ele>
        <time>2021-06-26T18:17:49.000Z</time>
        <extensions>
          <ns3:TrackPointExtension>
            <ns3:atemp>27.0</ns3:atemp>
            <ns3:hr>130</ns3:hr>
          </ns3:TrackPointExtension>
        </extensions>
      </trkpt>
      <trkpt lat="36.81730574928224086761474609375" lon="-118.44055644236505031585693359375">
        <ele>3800.39990234375</ele>
        <time>2021-06-26T18:17:57.000Z</time>
        <extensions>
          <ns3:TrackPointExtension>
            <ns3:atemp>27.0</ns3:atemp>
            <ns3:hr>128</ns3:hr>
          </ns3:TrackPointExtension>
        </extensions>
      </trkpt>
      <trkpt lat="36.8173085153102874755859375" lon="-118.440558202564716339111328125">
        <ele>3800.39990234375</ele>
        <time>2021-06-26T18:18:00.000Z</time>
        <extensions>
          <ns3:TrackPointExtension>
            <ns3:atemp>27.0</ns3:atemp>
            <ns3:hr>125</ns3:hr>
          </ns3:TrackPointExtension>
        </extensions>
      </trkpt>
      <trkpt lat="36.817317567765712738037109375" lon="-118.4405640698969364166259765625">
        <ele>3801.60009765625</ele>
        <time>2021-06-26T18:18:10.000Z</time>
        <extensions>
          <ns3:TrackPointExtension>
            <ns3:atemp>27.0</ns3:atemp>
            <ns3:hr>124</ns3:hr>
          </ns3:TrackPointExtension>
        </extensions>
      </trkpt>
      <trkpt lat="36.81732117198407649993896484375" lon="-118.4405664168298244476318359375">
        <ele>3802</ele>
        <time>2021-06-26T18:18:14.000Z</time>
        <extensions>
          <ns3:TrackPointExtension>
            <ns3:atemp>27.0</ns3:atemp>
            <ns3:hr>121</ns3:hr>
          </ns3:TrackPointExtension>
        </extensions>
      </trkpt>
      <trkpt lat="36.81732737459242343902587890625" lon="-118.4405707754194736480712890625">
        <ele>3801.800048828125</ele>
        <time>2021-06-26T18:18:21.000Z</time>
        <extensions>
          <ns3:TrackPointExtension>
            <ns3:atemp>27.0</ns3:atemp>
            <ns3:hr>118</ns3:hr>
          </ns3:TrackPointExtension>
        </extensions>
      </trkpt>
      <trkpt lat="36.81733441539108753204345703125" lon="-118.44057605601847171783447265625">
        <ele>3802.800048828125</ele>
        <time>2021-06-26T18:18:29.000Z</time>
        <extensions>
          <ns3:TrackPointExtension>
            <ns3:atemp>27.0</ns3:atemp>
            <ns3:hr>118</ns3:hr>
          </ns3:TrackPointExtension>
        </extensions>
      </trkpt>
      <trkpt lat="36.8173432163894176483154296875" lon="-118.4405828453600406646728515625">
        <ele>3802.39990234375</ele>
        <time>2021-06-26T18:18:39.000Z</time>
        <extensions>
          <ns3:TrackPointExtension>
            <ns3:atemp>27.0</ns3:atemp>
            <ns3:hr>121</ns3:hr>
          </ns3:TrackPointExtension>
        </extensions>
      </trkpt>
      <trkpt lat="36.81735788471996784210205078125" lon="-118.440594412386417388916015625">
        <ele>3802.60009765625</ele>
        <time>2021-06-26T18:18:56.000Z</time>
        <extensions>
          <ns3:TrackPointExtension>
            <ns3:atemp>27.0</ns3:atemp>
            <ns3:hr>118</ns3:hr>
          </ns3:TrackPointExtension>
        </extensions>
      </trkpt>
      <trkpt lat="36.817367188632488250732421875" lon="-118.4406019560992717742919921875">
        <ele>3802.60009765625</ele>
        <time>2021-06-26T18:19:07.000Z</time>
        <extensions>
          <ns3:TrackPointExtension>
            <ns3:atemp>27.0</ns3:atemp>
            <ns3:hr>114</ns3:hr>
          </ns3:TrackPointExtension>
        </extensions>
      </trkpt>
      <trkpt lat="36.8173680268228054046630859375" lon="-118.4406026266515254974365234375">
        <ele>3802.60009765625</ele>
        <time>2021-06-26T18:19:08.000Z</time>
        <extensions>
          <ns3:TrackPointExtension>
            <ns3:atemp>27.0</ns3:atemp>
            <ns3:hr>111</ns3:hr>
          </ns3:TrackPointExtension>
        </extensions>
      </trkpt>
      <trkpt lat="36.81736886501312255859375" lon="-118.4406032972037792205810546875">
        <ele>3802.60009765625</ele>
        <time>2021-06-26T18:19:09.000Z</time>
        <extensions>
          <ns3:TrackPointExtension>
            <ns3:atemp>27.0</ns3:atemp>
            <ns3:hr>108</ns3:hr>
          </ns3:TrackPointExtension>
        </extensions>
      </trkpt>
      <trkpt lat="36.817370541393756866455078125" lon="-118.4406046383082866668701171875">
        <ele>3802.199951171875</ele>
        <time>2021-06-26T18:19:11.000Z</time>
        <extensions>
          <ns3:TrackPointExtension>
            <ns3:atemp>27.0</ns3:atemp>
            <ns3:hr>105</ns3:hr>
          </ns3:TrackPointExtension>
        </extensions>
      </trkpt>
      <trkpt lat="36.81737381033599376678466796875" lon="-118.44060740433633327484130859375">
        <ele>3802.39990234375</ele>
        <time>2021-06-26T18:19:15.000Z</time>
        <extensions>
          <ns3:TrackPointExtension>
            <ns3:atemp>27.0</ns3:atemp>
            <ns3:hr>101</ns3:hr>
          </ns3:TrackPointExtension>
        </extensions>
      </trkpt>
      <trkpt lat="36.81738437153398990631103515625" lon="-118.44061595387756824493408203125">
        <ele>3802.39990234375</ele>
        <time>2021-06-26T18:19:28.000Z</time>
        <extensions>
          <ns3:TrackPointExtension>
            <ns3:atemp>27.0</ns3:atemp>
            <ns3:hr>98</ns3:hr>
          </ns3:TrackPointExtension>
        </extensions>
      </trkpt>
      <trkpt lat="36.8173868022859096527099609375" lon="-118.44061796553432941436767578125">
        <ele>3802.39990234375</ele>
        <time>2021-06-26T18:19:31.000Z</time>
        <extensions>
          <ns3:TrackPointExtension>
            <ns3:atemp>27.0</ns3:atemp>
            <ns3:hr>95</ns3:hr>
          </ns3:TrackPointExtension>
        </extensions>
      </trkpt>
      <trkpt lat="36.8173914961516857147216796875" lon="-118.44062182120978832244873046875">
        <ele>3802.199951171875</ele>
        <time>2021-06-26T18:19:37.000Z</time>
        <extensions>
          <ns3:TrackPointExtension>
            <ns3:atemp>27.0</ns3:atemp>
            <ns3:hr>92</ns3:hr>
          </ns3:TrackPointExtension>
        </extensions>
      </trkpt>
      <trkpt lat="36.817400716245174407958984375" lon="-118.44062936492264270782470703125">
        <ele>3801.800048828125</ele>
        <time>2021-06-26T18:19:49.000Z</time>
        <extensions>
          <ns3:TrackPointExtension>
            <ns3:atemp>27.0</ns3:atemp>
            <ns3:hr>93</ns3:hr>
          </ns3:TrackPointExtension>
        </extensions>
      </trkpt>
      <trkpt lat="36.81740448810160160064697265625" lon="-118.4406324662268161773681640625">
        <ele>3802.199951171875</ele>
        <time>2021-06-26T18:19:54.000Z</time>
        <extensions>
          <ns3:TrackPointExtension>
            <ns3:atemp>27.0</ns3:atemp>
            <ns3:hr>96</ns3:hr>
          </ns3:TrackPointExtension>
        </extensions>
      </trkpt>
      <trkpt lat="36.8174104392528533935546875" lon="-118.440637327730655670166015625">
        <ele>3802.39990234375</ele>
        <time>2021-06-26T18:20:02.000Z</time>
        <extensions>
          <ns3:TrackPointExtension>
            <ns3:atemp>27.0</ns3:atemp>
            <ns3:hr>93</ns3:hr>
          </ns3:TrackPointExtension>
        </extensions>
      </trkpt>
      <trkpt lat="36.817414797842502593994140625" lon="-118.4406410157680511474609375">
        <ele>3802.199951171875</ele>
        <time>2021-06-26T18:20:08.000Z</time>
        <extensions>
          <ns3:TrackPointExtension>
            <ns3:atemp>27.0</ns3:atemp>
            <ns3:hr>90</ns3:hr>
          </ns3:TrackPointExtension>
        </extensions>
      </trkpt>
      <trkpt lat="36.81742125190794467926025390625" lon="-118.440646715462207794189453125">
        <ele>3802.39990234375</ele>
        <time>2021-06-26T18:20:17.000Z</time>
        <extensions>
          <ns3:TrackPointExtension>
            <ns3:atemp>27.0</ns3:atemp>
            <ns3:hr>89</ns3:hr>
          </ns3:TrackPointExtension>
        </extensions>
      </trkpt>
      <trkpt lat="36.81742896325886249542236328125" lon="-118.44065367244184017181396484375">
        <ele>3802.60009765625</ele>
        <time>2021-06-26T18:20:28.000Z</time>
        <extensions>
          <ns3:TrackPointExtension>
            <ns3:atemp>26.0</ns3:atemp>
            <ns3:hr>84</ns3:hr>
          </ns3:TrackPointExtension>
        </extensions>
      </trkpt>
      <trkpt lat="36.8174421228468418121337890625" lon="-118.440665490925312042236328125">
        <ele>3802.800048828125</ele>
        <time>2021-06-26T18:20:47.000Z</time>
        <extensions>
          <ns3:TrackPointExtension>
            <ns3:atemp>26.0</ns3:atemp>
            <ns3:hr>85</ns3:hr>
          </ns3:TrackPointExtension>
        </extensions>
      </trkpt>
      <trkpt lat="36.8174427933990955352783203125" lon="-118.440666161477565765380859375">
        <ele>3802.800048828125</ele>
        <time>2021-06-26T18:20:48.000Z</time>
        <extensions>
          <ns3:TrackPointExtension>
            <ns3:atemp>26.0</ns3:atemp>
            <ns3:hr>85</ns3:hr>
          </ns3:TrackPointExtension>
        </extensions>
      </trkpt>
      <trkpt lat="36.81745712645351886749267578125" lon="-118.44067865051329135894775390625">
        <ele>3803.800048828125</ele>
        <time>2021-06-26T18:21:09.000Z</time>
        <extensions>
          <ns3:TrackPointExtension>
            <ns3:atemp>26.0</ns3:atemp>
            <ns3:hr>90</ns3:hr>
          </ns3:TrackPointExtension>
        </extensions>
      </trkpt>
      <trkpt lat="36.81745779700577259063720703125" lon="-118.44067923724651336669921875">
        <ele>3804</ele>
        <time>2021-06-26T18:21:10.000Z</time>
        <extensions>
          <ns3:TrackPointExtension>
            <ns3:atemp>26.0</ns3:atemp>
            <ns3:hr>93</ns3:hr>
          </ns3:TrackPointExtension>
        </extensions>
      </trkpt>
      <trkpt lat="36.81745913811028003692626953125" lon="-118.4406804107129573822021484375">
        <ele>3804</ele>
        <time>2021-06-26T18:21:12.000Z</time>
        <extensions>
          <ns3:TrackPointExtension>
            <ns3:atemp>26.0</ns3:atemp>
            <ns3:hr>96</ns3:hr>
          </ns3:TrackPointExtension>
        </extensions>
      </trkpt>
      <trkpt lat="36.81745980866253376007080078125" lon="-118.440680913627147674560546875">
        <ele>3804</ele>
        <time>2021-06-26T18:21:13.000Z</time>
        <extensions>
          <ns3:TrackPointExtension>
            <ns3:atemp>26.0</ns3:atemp>
            <ns3:hr>99</ns3:hr>
          </ns3:TrackPointExtension>
        </extensions>
      </trkpt>
      <trkpt lat="36.81746114976704120635986328125" lon="-118.4406820870935916900634765625">
        <ele>3804</ele>
        <time>2021-06-26T18:21:15.000Z</time>
        <extensions>
          <ns3:TrackPointExtension>
            <ns3:atemp>26.0</ns3:atemp>
            <ns3:hr>102</ns3:hr>
          </ns3:TrackPointExtension>
        </extensions>
      </trkpt>
      <trkpt lat="36.81747422553598880767822265625" lon="-118.44069264829158782958984375">
        <ele>3805</ele>
        <time>2021-06-26T18:21:33.000Z</time>
        <extensions>
          <ns3:TrackPointExtension>
            <ns3:atemp>26.0</ns3:atemp>
            <ns3:hr>101</ns3:hr>
          </ns3:TrackPointExtension>
        </extensions>
      </trkpt>
      <trkpt lat="36.817478835582733154296875" lon="-118.4406961686909198760986328125">
        <ele>3804.800048828125</ele>
        <time>2021-06-26T18:21:39.000Z</time>
        <extensions>
          <ns3:TrackPointExtension>
            <ns3:atemp>26.0</ns3:atemp>
            <ns3:hr>104</ns3:hr>
          </ns3:TrackPointExtension>
        </extensions>
      </trkpt>
      <trkpt lat="36.81748260743916034698486328125" lon="-118.44069910235702991485595703125">
        <ele>3804.39990234375</ele>
        <time>2021-06-26T18:21:44.000Z</time>
        <extensions>
          <ns3:TrackPointExtension>
            <ns3:atemp>26.0</ns3:atemp>
            <ns3:hr>107</ns3:hr>
          </ns3:TrackPointExtension>
        </extensions>
      </trkpt>
      <trkpt lat="36.8174882233142852783203125" lon="-118.44070337712764739990234375">
        <ele>3803.800048828125</ele>
        <time>2021-06-26T18:21:51.000Z</time>
        <extensions>
          <ns3:TrackPointExtension>
            <ns3:atemp>26.0</ns3:atemp>
            <ns3:hr>106</ns3:hr>
          </ns3:TrackPointExtension>
        </extensions>
      </trkpt>
      <trkpt lat="36.8175051547586917877197265625" lon="-118.44071620143949985504150390625">
        <ele>3803.60009765625</ele>
        <time>2021-06-26T18:22:12.000Z</time>
        <extensions>
          <ns3:TrackPointExtension>
            <ns3:atemp>27.0</ns3:atemp>
            <ns3:hr>105</ns3:hr>
          </ns3:TrackPointExtension>
        </extensions>
      </trkpt>
      <trkpt lat="36.8175121955573558807373046875" lon="-118.44072173349559307098388671875">
        <ele>3804.199951171875</ele>
        <time>2021-06-26T18:22:21.000Z</time>
        <extensions>
          <ns3:TrackPointExtension>
            <ns3:atemp>27.0</ns3:atemp>
            <ns3:hr>108</ns3:hr>
          </ns3:TrackPointExtension>
        </extensions>
      </trkpt>
      <trkpt lat="36.81751613505184650421142578125" lon="-118.44072483479976654052734375">
        <ele>3804.800048828125</ele>
        <time>2021-06-26T18:22:26.000Z</time>
        <extensions>
          <ns3:TrackPointExtension>
            <ns3:atemp>27.0</ns3:atemp>
            <ns3:hr>107</ns3:hr>
          </ns3:TrackPointExtension>
        </extensions>
      </trkpt>
      <trkpt lat="36.81754245422780513763427734375" lon="-118.4407454542815685272216796875">
        <ele>3804.60009765625</ele>
        <time>2021-06-26T18:22:58.000Z</time>
        <extensions>
          <ns3:TrackPointExtension>
            <ns3:atemp>27.0</ns3:atemp>
            <ns3:hr>104</ns3:hr>
          </ns3:TrackPointExtension>
        </extensions>
      </trkpt>
      <trkpt lat="36.81754983030259609222412109375" lon="-118.4407514892518520355224609375">
        <ele>3804.60009765625</ele>
        <time>2021-06-26T18:23:07.000Z</time>
        <extensions>
          <ns3:TrackPointExtension>
            <ns3:atemp>27.0</ns3:atemp>
            <ns3:hr>101</ns3:hr>
          </ns3:TrackPointExtension>
        </extensions>
      </trkpt>
      <trkpt lat="36.8175554461777210235595703125" lon="-118.4407563507556915283203125">
        <ele>3804.60009765625</ele>
        <time>2021-06-26T18:23:14.000Z</time>
        <extensions>
          <ns3:TrackPointExtension>
            <ns3:atemp>27.0</ns3:atemp>
            <ns3:hr>101</ns3:hr>
          </ns3:TrackPointExtension>
        </extensions>
      </trkpt>
      <trkpt lat="36.81755871511995792388916015625" lon="-118.4407592006027698516845703125">
        <ele>3804.60009765625</ele>
        <time>2021-06-26T18:23:18.000Z</time>
        <extensions>
          <ns3:TrackPointExtension>
            <ns3:atemp>27.0</ns3:atemp>
            <ns3:hr>98</ns3:hr>
          </ns3:TrackPointExtension>
        </extensions>
      </trkpt>
      <trkpt lat="36.8175701983273029327392578125" lon="-118.44076917506754398345947265625">
        <ele>3804.60009765625</ele>
        <time>2021-06-26T18:23:32.000Z</time>
        <extensions>
          <ns3:TrackPointExtension>
            <ns3:atemp>27.0</ns3:atemp>
            <ns3:hr>94</ns3:hr>
          </ns3:TrackPointExtension>
        </extensions>
      </trkpt>
      <trkpt lat="36.81757095269858837127685546875" lon="-118.44076984561979770660400390625">
        <ele>3804.60009765625</ele>
        <time>2021-06-26T18:23:33.000Z</time>
        <extensions>
          <ns3:TrackPointExtension>
            <ns3:atemp>27.0</ns3:atemp>
            <ns3:hr>97</ns3:hr>
          </ns3:TrackPointExtension>
        </extensions>
      </trkpt>
      <trkpt lat="36.81757665239274501800537109375" lon="-118.4407749585807323455810546875">
        <ele>3800</ele>
        <time>2021-06-26T18:23:40.000Z</time>
        <extensions>
          <ns3:TrackPointExtension>
            <ns3:atemp>27.0</ns3:atemp>
            <ns3:hr>95</ns3:hr>
          </ns3:TrackPointExtension>
        </extensions>
      </trkpt>
      <trkpt lat="36.81759023107588291168212890625" lon="-118.4407880343496799468994140625">
        <ele>3800</ele>
        <time>2021-06-26T18:23:57.000Z</time>
        <extensions>
          <ns3:TrackPointExtension>
            <ns3:atemp>27.0</ns3:atemp>
            <ns3:hr>92</ns3:hr>
          </ns3:TrackPointExtension>
        </extensions>
      </trkpt>
      <trkpt lat="36.81759878061711788177490234375" lon="-118.44079616479575634002685546875">
        <ele>3800</ele>
        <time>2021-06-26T18:24:08.000Z</time>
        <extensions>
          <ns3:TrackPointExtension>
            <ns3:atemp>27.0</ns3:atemp>
            <ns3:hr>95</ns3:hr>
          </ns3:TrackPointExtension>
        </extensions>
      </trkpt>
      <trkpt lat="36.81760632432997226715087890625" lon="-118.4408034570515155792236328125">
        <ele>3800.199951171875</ele>
        <time>2021-06-26T18:24:18.000Z</time>
        <extensions>
          <ns3:TrackPointExtension>
            <ns3:atemp>27.0</ns3:atemp>
            <ns3:hr>91</ns3:hr>
          </ns3:TrackPointExtension>
        </extensions>
      </trkpt>
      <trkpt lat="36.8176107667386531829833984375" lon="-118.4408078156411647796630859375">
        <ele>3800</ele>
        <time>2021-06-26T18:24:24.000Z</time>
        <extensions>
          <ns3:TrackPointExtension>
            <ns3:atemp>27.0</ns3:atemp>
            <ns3:hr>88</ns3:hr>
          </ns3:TrackPointExtension>
        </extensions>
      </trkpt>
      <trkpt lat="36.817628033459186553955078125" lon="-118.4408249147236347198486328125">
        <ele>3799.60009765625</ele>
        <time>2021-06-26T18:24:48.000Z</time>
        <extensions>
          <ns3:TrackPointExtension>
            <ns3:atemp>27.0</ns3:atemp>
            <ns3:hr>84</ns3:hr>
          </ns3:TrackPointExtension>
        </extensions>
      </trkpt>
      <trkpt lat="36.8176302127540111541748046875" lon="-118.44082701019942760467529296875">
        <ele>3799.60009765625</ele>
        <time>2021-06-26T18:24:51.000Z</time>
        <extensions>
          <ns3:TrackPointExtension>
            <ns3:atemp>27.0</ns3:atemp>
            <ns3:hr>87</ns3:hr>
          </ns3:TrackPointExtension>
        </extensions>
      </trkpt>
      <trkpt lat="36.817650832235813140869140625" lon="-118.4408483840525150299072265625">
        <ele>3799.60009765625</ele>
        <time>2021-06-26T18:25:23.000Z</time>
        <extensions>
          <ns3:TrackPointExtension>
            <ns3:atemp>27.0</ns3:atemp>
            <ns3:hr>84</ns3:hr>
          </ns3:TrackPointExtension>
        </extensions>
      </trkpt>
      <trkpt lat="36.81765996851027011871337890625" lon="-118.440857939422130584716796875">
        <ele>3799.60009765625</ele>
        <time>2021-06-26T18:25:38.000Z</time>
        <extensions>
          <ns3:TrackPointExtension>
            <ns3:atemp>27.0</ns3:atemp>
            <ns3:hr>87</ns3:hr>
          </ns3:TrackPointExtension>
        </extensions>
      </trkpt>
      <trkpt lat="36.8176637403666973114013671875" lon="-118.440861962735652923583984375">
        <ele>3799.60009765625</ele>
        <time>2021-06-26T18:25:44.000Z</time>
        <extensions>
          <ns3:TrackPointExtension>
            <ns3:atemp>27.0</ns3:atemp>
            <ns3:hr>90</ns3:hr>
          </ns3:TrackPointExtension>
        </extensions>
      </trkpt>
      <trkpt lat="36.817666925489902496337890625" lon="-118.44086539931595325469970703125">
        <ele>3799.60009765625</ele>
        <time>2021-06-26T18:25:49.000Z</time>
        <extensions>
          <ns3:TrackPointExtension>
            <ns3:atemp>27.0</ns3:atemp>
            <ns3:hr>87</ns3:hr>
          </ns3:TrackPointExtension>
        </extensions>
      </trkpt>
      <trkpt lat="36.8176694400608539581298828125" lon="-118.4408681653439998626708984375">
        <ele>3799.60009765625</ele>
        <time>2021-06-26T18:25:53.000Z</time>
        <extensions>
          <ns3:TrackPointExtension>
            <ns3:atemp>27.0</ns3:atemp>
            <ns3:hr>90</ns3:hr>
          </ns3:TrackPointExtension>
        </extensions>
      </trkpt>
      <trkpt lat="36.81767270900309085845947265625" lon="-118.4408716857433319091796875">
        <ele>3799.60009765625</ele>
        <time>2021-06-26T18:25:58.000Z</time>
        <extensions>
          <ns3:TrackPointExtension>
            <ns3:atemp>27.0</ns3:atemp>
            <ns3:hr>94</ns3:hr>
          </ns3:TrackPointExtension>
        </extensions>
      </trkpt>
      <trkpt lat="36.81767589412629604339599609375" lon="-118.44087528996169567108154296875">
        <ele>3799.60009765625</ele>
        <time>2021-06-26T18:26:03.000Z</time>
        <extensions>
          <ns3:TrackPointExtension>
            <ns3:atemp>27.0</ns3:atemp>
            <ns3:hr>97</ns3:hr>
          </ns3:TrackPointExtension>
        </extensions>
      </trkpt>
      <trkpt lat="36.81767790578305721282958984375" lon="-118.44087746925652027130126953125">
        <ele>3799.60009765625</ele>
        <time>2021-06-26T18:26:06.000Z</time>
        <extensions>
          <ns3:TrackPointExtension>
            <ns3:atemp>27.0</ns3:atemp>
            <ns3:hr>94</ns3:hr>
          </ns3:TrackPointExtension>
        </extensions>
      </trkpt>
      <trkpt lat="36.81768058799207210540771484375" lon="-118.440880738198757171630859375">
        <ele>3799.60009765625</ele>
        <time>2021-06-26T18:26:10.000Z</time>
        <extensions>
          <ns3:TrackPointExtension>
            <ns3:atemp>27.0</ns3:atemp>
            <ns3:hr>97</ns3:hr>
          </ns3:TrackPointExtension>
        </extensions>
      </trkpt>
      <trkpt lat="36.81768477894365787506103515625" lon="-118.4408855997025966644287109375">
        <ele>3799.60009765625</ele>
        <time>2021-06-26T18:26:16.000Z</time>
        <extensions>
          <ns3:TrackPointExtension>
            <ns3:atemp>27.0</ns3:atemp>
            <ns3:hr>94</ns3:hr>
          </ns3:TrackPointExtension>
        </extensions>
      </trkpt>
      <trkpt lat="36.8176947534084320068359375" lon="-118.44089674763381481170654296875">
        <ele>3799.60009765625</ele>
        <time>2021-06-26T18:26:29.000Z</time>
        <extensions>
          <ns3:TrackPointExtension>
            <ns3:atemp>27.0</ns3:atemp>
            <ns3:hr>91</ns3:hr>
          </ns3:TrackPointExtension>
        </extensions>
      </trkpt>
      <trkpt lat="36.8176986090838909149169921875" lon="-118.4409010224044322967529296875">
        <ele>3799.60009765625</ele>
        <time>2021-06-26T18:26:34.000Z</time>
        <extensions>
          <ns3:TrackPointExtension>
            <ns3:atemp>27.0</ns3:atemp>
            <ns3:hr>94</ns3:hr>
          </ns3:TrackPointExtension>
        </extensions>
      </trkpt>
      <trkpt lat="36.817701794207096099853515625" lon="-118.44090454280376434326171875">
        <ele>3799.60009765625</ele>
        <time>2021-06-26T18:26:38.000Z</time>
        <extensions>
          <ns3:TrackPointExtension>
            <ns3:atemp>27.0</ns3:atemp>
            <ns3:hr>97</ns3:hr>
          </ns3:TrackPointExtension>
        </extensions>
      </trkpt>
      <trkpt lat="36.8177056498825550079345703125" lon="-118.44090881757438182830810546875">
        <ele>3799.60009765625</ele>
        <time>2021-06-26T18:26:43.000Z</time>
        <extensions>
          <ns3:TrackPointExtension>
            <ns3:atemp>27.0</ns3:atemp>
            <ns3:hr>94</ns3:hr>
          </ns3:TrackPointExtension>
        </extensions>
      </trkpt>
      <trkpt lat="36.81771344505250453948974609375" lon="-118.4409174509346485137939453125">
        <ele>3799.60009765625</ele>
        <time>2021-06-26T18:26:53.000Z</time>
        <extensions>
          <ns3:TrackPointExtension>
            <ns3:atemp>27.0</ns3:atemp>
            <ns3:hr>97</ns3:hr>
          </ns3:TrackPointExtension>
        </extensions>
      </trkpt>
      <trkpt lat="36.81771755218505859375" lon="-118.44092197716236114501953125">
        <ele>3799.60009765625</ele>
        <time>2021-06-26T18:26:58.000Z</time>
        <extensions>
          <ns3:TrackPointExtension>
            <ns3:atemp>27.0</ns3:atemp>
            <ns3:hr>101</ns3:hr>
          </ns3:TrackPointExtension>
        </extensions>
      </trkpt>
      <trkpt lat="36.81772802956402301788330078125" lon="-118.44093295745551586151123046875">
        <ele>3799.60009765625</ele>
        <time>2021-06-26T18:27:10.000Z</time>
        <extensions>
          <ns3:TrackPointExtension>
            <ns3:atemp>28.0</ns3:atemp>
            <ns3:hr>104</ns3:hr>
          </ns3:TrackPointExtension>
        </extensions>
      </trkpt>
      <trkpt lat="36.8177297897636890411376953125" lon="-118.44093480147421360015869140625">
        <ele>3799.60009765625</ele>
        <time>2021-06-26T18:27:12.000Z</time>
        <extensions>
          <ns3:TrackPointExtension>
            <ns3:atemp>28.0</ns3:atemp>
            <ns3:hr>107</ns3:hr>
          </ns3:TrackPointExtension>
        </extensions>
      </trkpt>
      <trkpt lat="36.81773540563881397247314453125" lon="-118.440940417349338531494140625">
        <ele>3799.60009765625</ele>
        <time>2021-06-26T18:27:18.000Z</time>
        <extensions>
          <ns3:TrackPointExtension>
            <ns3:atemp>28.0</ns3:atemp>
            <ns3:hr>109</ns3:hr>
          </ns3:TrackPointExtension>
        </extensions>
      </trkpt>
      <trkpt lat="36.817744038999080657958984375" lon="-118.44094888307154178619384765625">
        <ele>3799.60009765625</ele>
        <time>2021-06-26T18:27:27.000Z</time>
        <extensions>
          <ns3:TrackPointExtension>
            <ns3:atemp>28.0</ns3:atemp>
            <ns3:hr>106</ns3:hr>
          </ns3:TrackPointExtension>
        </extensions>
      </trkpt>
      <trkpt lat="36.81774496100842952728271484375" lon="-118.44094988889992237091064453125">
        <ele>3799.60009765625</ele>
        <time>2021-06-26T18:27:28.000Z</time>
        <extensions>
          <ns3:TrackPointExtension>
            <ns3:atemp>28.0</ns3:atemp>
            <ns3:hr>110</ns3:hr>
          </ns3:TrackPointExtension>
        </extensions>
      </trkpt>
      <trkpt lat="36.8177468888461589813232421875" lon="-118.440951816737651824951171875">
        <ele>3799.60009765625</ele>
        <time>2021-06-26T18:27:30.000Z</time>
        <extensions>
          <ns3:TrackPointExtension>
            <ns3:atemp>28.0</ns3:atemp>
            <ns3:hr>107</ns3:hr>
          </ns3:TrackPointExtension>
        </extensions>
      </trkpt>
      <trkpt lat="36.8177497386932373046875" lon="-118.44095475040376186370849609375">
        <ele>3799.60009765625</ele>
        <time>2021-06-26T18:27:33.000Z</time>
        <extensions>
          <ns3:TrackPointExtension>
            <ns3:atemp>28.0</ns3:atemp>
            <ns3:hr>104</ns3:hr>
          </ns3:TrackPointExtension>
        </extensions>
      </trkpt>
      <trkpt lat="36.81775451637804508209228515625" lon="-118.44095977954566478729248046875">
        <ele>3799.60009765625</ele>
        <time>2021-06-26T18:27:38.000Z</time>
        <extensions>
          <ns3:TrackPointExtension>
            <ns3:atemp>28.0</ns3:atemp>
            <ns3:hr>101</ns3:hr>
          </ns3:TrackPointExtension>
        </extensions>
      </trkpt>
      <trkpt lat="36.81776021607220172882080078125" lon="-118.440965898334980010986328125">
        <ele>3804.800048828125</ele>
        <time>2021-06-26T18:27:44.000Z</time>
        <extensions>
          <ns3:TrackPointExtension>
            <ns3:atemp>28.0</ns3:atemp>
            <ns3:hr>103</ns3:hr>
          </ns3:TrackPointExtension>
        </extensions>
      </trkpt>
      <trkpt lat="36.81776113808155059814453125" lon="-118.440966904163360595703125">
        <ele>3804.800048828125</ele>
        <time>2021-06-26T18:27:45.000Z</time>
        <extensions>
          <ns3:TrackPointExtension>
            <ns3:atemp>28.0</ns3:atemp>
            <ns3:hr>100</ns3:hr>
          </ns3:TrackPointExtension>
        </extensions>
      </trkpt>
      <trkpt lat="36.81776206009089946746826171875" lon="-118.440967909991741180419921875">
        <ele>3804.800048828125</ele>
        <time>2021-06-26T18:27:46.000Z</time>
        <extensions>
          <ns3:TrackPointExtension>
            <ns3:atemp>28.0</ns3:atemp>
            <ns3:hr>103</ns3:hr>
          </ns3:TrackPointExtension>
        </extensions>
      </trkpt>
      <trkpt lat="36.8177725374698638916015625" lon="-118.44097905792295932769775390625">
        <ele>3805.800048828125</ele>
        <time>2021-06-26T18:27:57.000Z</time>
        <extensions>
          <ns3:TrackPointExtension>
            <ns3:atemp>28.0</ns3:atemp>
            <ns3:hr>103</ns3:hr>
          </ns3:TrackPointExtension>
        </extensions>
      </trkpt>
      <trkpt lat="36.8177911452949047088623046875" lon="-118.44099783338606357574462890625">
        <ele>3806.60009765625</ele>
        <time>2021-06-26T18:28:16.000Z</time>
        <extensions>
          <ns3:TrackPointExtension>
            <ns3:atemp>28.0</ns3:atemp>
            <ns3:hr>106</ns3:hr>
          </ns3:TrackPointExtension>
        </extensions>
      </trkpt>
      <trkpt lat="36.8177931569516658782958984375" lon="-118.44099984504282474517822265625">
        <ele>3806.800048828125</ele>
        <time>2021-06-26T18:28:18.000Z</time>
        <extensions>
          <ns3:TrackPointExtension>
            <ns3:atemp>28.0</ns3:atemp>
            <ns3:hr>109</ns3:hr>
          </ns3:TrackPointExtension>
        </extensions>
      </trkpt>
      <trkpt lat="36.8177971802651882171630859375" lon="-118.44100370071828365325927734375">
        <ele>3806.800048828125</ele>
        <time>2021-06-26T18:28:22.000Z</time>
        <extensions>
          <ns3:TrackPointExtension>
            <ns3:atemp>28.0</ns3:atemp>
            <ns3:hr>110</ns3:hr>
          </ns3:TrackPointExtension>
        </extensions>
      </trkpt>
      <trkpt lat="36.81780011393129825592041015625" lon="-118.44100655056536197662353515625">
        <ele>3806.800048828125</ele>
        <time>2021-06-26T18:28:25.000Z</time>
        <extensions>
          <ns3:TrackPointExtension>
            <ns3:atemp>28.0</ns3:atemp>
            <ns3:hr>107</ns3:hr>
          </ns3:TrackPointExtension>
        </extensions>
      </trkpt>
      <trkpt lat="36.81780212558805942535400390625" lon="-118.4410084784030914306640625">
        <ele>3806.800048828125</ele>
        <time>2021-06-26T18:28:27.000Z</time>
        <extensions>
          <ns3:TrackPointExtension>
            <ns3:atemp>28.0</ns3:atemp>
            <ns3:hr>103</ns3:hr>
          </ns3:TrackPointExtension>
        </extensions>
      </trkpt>
      <trkpt lat="36.81780598126351833343505859375" lon="-118.44101225025951862335205078125">
        <ele>3806.800048828125</ele>
        <time>2021-06-26T18:28:31.000Z</time>
        <extensions>
          <ns3:TrackPointExtension>
            <ns3:atemp>28.0</ns3:atemp>
            <ns3:hr>99</ns3:hr>
          </ns3:TrackPointExtension>
        </extensions>
      </trkpt>
      <trkpt lat="36.81781084276735782623291015625" lon="-118.4410170279443264007568359375">
        <ele>3806.800048828125</ele>
        <time>2021-06-26T18:28:36.000Z</time>
        <extensions>
          <ns3:TrackPointExtension>
            <ns3:atemp>28.0</ns3:atemp>
            <ns3:hr>102</ns3:hr>
          </ns3:TrackPointExtension>
        </extensions>
      </trkpt>
      <trkpt lat="36.81781469844281673431396484375" lon="-118.4410207159817218780517578125">
        <ele>3806.39990234375</ele>
        <time>2021-06-26T18:28:40.000Z</time>
        <extensions>
          <ns3:TrackPointExtension>
            <ns3:atemp>28.0</ns3:atemp>
            <ns3:hr>105</ns3:hr>
          </ns3:TrackPointExtension>
        </extensions>
      </trkpt>
      <trkpt lat="36.81782416999340057373046875" lon="-118.44103001989424228668212890625">
        <ele>3806.60009765625</ele>
        <time>2021-06-26T18:28:50.000Z</time>
        <extensions>
          <ns3:TrackPointExtension>
            <ns3:atemp>28.0</ns3:atemp>
            <ns3:hr>101</ns3:hr>
          </ns3:TrackPointExtension>
        </extensions>
      </trkpt>
      <trkpt lat="36.8178260140120983123779296875" lon="-118.44103186391294002532958984375">
        <ele>3806.60009765625</ele>
        <time>2021-06-26T18:28:52.000Z</time>
        <extensions>
          <ns3:TrackPointExtension>
            <ns3:atemp>28.0</ns3:atemp>
            <ns3:hr>97</ns3:hr>
          </ns3:TrackPointExtension>
        </extensions>
      </trkpt>
      <trkpt lat="36.817827858030796051025390625" lon="-118.44103370793163776397705078125">
        <ele>3806.800048828125</ele>
        <time>2021-06-26T18:28:54.000Z</time>
        <extensions>
          <ns3:TrackPointExtension>
            <ns3:atemp>28.0</ns3:atemp>
            <ns3:hr>94</ns3:hr>
          </ns3:TrackPointExtension>
        </extensions>
      </trkpt>
      <trkpt lat="36.81783062405884265899658203125" lon="-118.44103639014065265655517578125">
        <ele>3806.800048828125</ele>
        <time>2021-06-26T18:28:57.000Z</time>
        <extensions>
          <ns3:TrackPointExtension>
            <ns3:atemp>28.0</ns3:atemp>
            <ns3:hr>90</ns3:hr>
          </ns3:TrackPointExtension>
        </extensions>
      </trkpt>
      <trkpt lat="36.81784068234264850616455078125" lon="-118.44104628078639507293701171875">
        <ele>3806.60009765625</ele>
        <time>2021-06-26T18:29:08.000Z</time>
        <extensions>
          <ns3:TrackPointExtension>
            <ns3:atemp>28.0</ns3:atemp>
            <ns3:hr>87</ns3:hr>
          </ns3:TrackPointExtension>
        </extensions>
      </trkpt>
      <trkpt lat="36.81784336455166339874267578125" lon="-118.4410488791763782501220703125">
        <ele>3806.60009765625</ele>
        <time>2021-06-26T18:29:11.000Z</time>
        <extensions>
          <ns3:TrackPointExtension>
            <ns3:atemp>28.0</ns3:atemp>
            <ns3:hr>84</ns3:hr>
          </ns3:TrackPointExtension>
        </extensions>
      </trkpt>
      <trkpt lat="36.8178612180054187774658203125" lon="-118.44106606207787990570068359375">
        <ele>3807.199951171875</ele>
        <time>2021-06-26T18:29:31.000Z</time>
        <extensions>
          <ns3:TrackPointExtension>
            <ns3:atemp>27.0</ns3:atemp>
            <ns3:hr>87</ns3:hr>
          </ns3:TrackPointExtension>
        </extensions>
      </trkpt>
      <trkpt lat="36.8178690969944000244140625" lon="-118.4410736896097660064697265625">
        <ele>3808</ele>
        <time>2021-06-26T18:29:40.000Z</time>
        <extensions>
          <ns3:TrackPointExtension>
            <ns3:atemp>27.0</ns3:atemp>
            <ns3:hr>89</ns3:hr>
          </ns3:TrackPointExtension>
        </extensions>
      </trkpt>
      <trkpt lat="36.817873455584049224853515625" lon="-118.441077880561351776123046875">
        <ele>3808.60009765625</ele>
        <time>2021-06-26T18:29:45.000Z</time>
        <extensions>
          <ns3:TrackPointExtension>
            <ns3:atemp>28.0</ns3:atemp>
            <ns3:hr>95</ns3:hr>
          </ns3:TrackPointExtension>
        </extensions>
      </trkpt>
      <trkpt lat="36.81787957437336444854736328125" lon="-118.4410837478935718536376953125">
        <ele>3808.800048828125</ele>
        <time>2021-06-26T18:29:52.000Z</time>
        <extensions>
          <ns3:TrackPointExtension>
            <ns3:atemp>28.0</ns3:atemp>
            <ns3:hr>98</ns3:hr>
          </ns3:TrackPointExtension>
        </extensions>
      </trkpt>
      <trkpt lat="36.81788041256368160247802734375" lon="-118.44108450226485729217529296875">
        <ele>3809</ele>
        <time>2021-06-26T18:29:53.000Z</time>
        <extensions>
          <ns3:TrackPointExtension>
            <ns3:atemp>28.0</ns3:atemp>
            <ns3:hr>102</ns3:hr>
          </ns3:TrackPointExtension>
        </extensions>
      </trkpt>
      <trkpt lat="36.81788125075399875640869140625" lon="-118.441085256636142730712890625">
        <ele>3809.39990234375</ele>
        <time>2021-06-26T18:29:54.000Z</time>
        <extensions>
          <ns3:TrackPointExtension>
            <ns3:atemp>28.0</ns3:atemp>
            <ns3:hr>105</ns3:hr>
          </ns3:TrackPointExtension>
        </extensions>
      </trkpt>
      <trkpt lat="36.8178830109536647796630859375" lon="-118.44108701683580875396728515625">
        <ele>3809.39990234375</ele>
        <time>2021-06-26T18:29:56.000Z</time>
        <extensions>
          <ns3:TrackPointExtension>
            <ns3:atemp>28.0</ns3:atemp>
            <ns3:hr>108</ns3:hr>
          </ns3:TrackPointExtension>
        </extensions>
      </trkpt>
      <trkpt lat="36.81788912974298000335693359375" lon="-118.441092632710933685302734375">
        <ele>3810.199951171875</ele>
        <time>2021-06-26T18:30:03.000Z</time>
        <extensions>
          <ns3:TrackPointExtension>
            <ns3:atemp>28.0</ns3:atemp>
            <ns3:hr>106</ns3:hr>
          </ns3:TrackPointExtension>
        </extensions>
      </trkpt>
      <trkpt lat="36.8178917281329631805419921875" lon="-118.44109497964382171630859375">
        <ele>3810.39990234375</ele>
        <time>2021-06-26T18:30:06.000Z</time>
        <extensions>
          <ns3:TrackPointExtension>
            <ns3:atemp>28.0</ns3:atemp>
            <ns3:hr>110</ns3:hr>
          </ns3:TrackPointExtension>
        </extensions>
      </trkpt>
      <trkpt lat="36.817902289330959320068359375" lon="-118.44110411591827869415283203125">
        <ele>3810.199951171875</ele>
        <time>2021-06-26T18:30:18.000Z</time>
        <extensions>
          <ns3:TrackPointExtension>
            <ns3:atemp>28.0</ns3:atemp>
            <ns3:hr>107</ns3:hr>
          </ns3:TrackPointExtension>
        </extensions>
      </trkpt>
      <trkpt lat="36.81790673173964023590087890625" lon="-118.44110780395567417144775390625">
        <ele>3810</ele>
        <time>2021-06-26T18:30:23.000Z</time>
        <extensions>
          <ns3:TrackPointExtension>
            <ns3:atemp>28.0</ns3:atemp>
            <ns3:hr>104</ns3:hr>
          </ns3:TrackPointExtension>
        </extensions>
      </trkpt>
      <trkpt lat="36.81791394017636775970458984375" lon="-118.44111367128789424896240234375">
        <ele>3810.199951171875</ele>
        <time>2021-06-26T18:30:31.000Z</time>
        <extensions>
          <ns3:TrackPointExtension>
            <ns3:atemp>27.0</ns3:atemp>
            <ns3:hr>100</ns3:hr>
          </ns3:TrackPointExtension>
        </extensions>
      </trkpt>
      <trkpt lat="36.81792466901242733001708984375" lon="-118.44112205319106578826904296875">
        <ele>3811</ele>
        <time>2021-06-26T18:30:43.000Z</time>
        <extensions>
          <ns3:TrackPointExtension>
            <ns3:atemp>27.0</ns3:atemp>
            <ns3:hr>97</ns3:hr>
          </ns3:TrackPointExtension>
        </extensions>
      </trkpt>
      <trkpt lat="36.817929111421108245849609375" lon="-118.441125489771366119384765625">
        <ele>3811.39990234375</ele>
        <time>2021-06-26T18:30:48.000Z</time>
        <extensions>
          <ns3:TrackPointExtension>
            <ns3:atemp>27.0</ns3:atemp>
            <ns3:hr>98</ns3:hr>
          </ns3:TrackPointExtension>
        </extensions>
      </trkpt>
      <trkpt lat="36.81793455965816974639892578125" lon="-118.44112959690392017364501953125">
        <ele>3812</ele>
        <time>2021-06-26T18:30:54.000Z</time>
        <extensions>
          <ns3:TrackPointExtension>
            <ns3:atemp>27.0</ns3:atemp>
            <ns3:hr>95</ns3:hr>
          </ns3:TrackPointExtension>
        </extensions>
      </trkpt>
      <trkpt lat="36.81793724186718463897705078125" lon="-118.441131524741649627685546875">
        <ele>3812.39990234375</ele>
        <time>2021-06-26T18:30:57.000Z</time>
        <extensions>
          <ns3:TrackPointExtension>
            <ns3:atemp>27.0</ns3:atemp>
            <ns3:hr>95</ns3:hr>
          </ns3:TrackPointExtension>
        </extensions>
      </trkpt>
      <trkpt lat="36.81794528849422931671142578125" lon="-118.4411372244358062744140625">
        <ele>3813.199951171875</ele>
        <time>2021-06-26T18:31:06.000Z</time>
        <extensions>
          <ns3:TrackPointExtension>
            <ns3:atemp>27.0</ns3:atemp>
            <ns3:hr>92</ns3:hr>
          </ns3:TrackPointExtension>
        </extensions>
      </trkpt>
      <trkpt lat="36.8179497309029102325439453125" lon="-118.441140241920948028564453125">
        <ele>3813.60009765625</ele>
        <time>2021-06-26T18:31:11.000Z</time>
        <extensions>
          <ns3:TrackPointExtension>
            <ns3:atemp>27.0</ns3:atemp>
            <ns3:hr>90</ns3:hr>
          </ns3:TrackPointExtension>
        </extensions>
      </trkpt>
      <trkpt lat="36.81795157492160797119140625" lon="-118.4411414153873920440673828125">
        <ele>3814</ele>
        <time>2021-06-26T18:31:13.000Z</time>
        <extensions>
          <ns3:TrackPointExtension>
            <ns3:atemp>27.0</ns3:atemp>
            <ns3:hr>94</ns3:hr>
          </ns3:TrackPointExtension>
        </extensions>
      </trkpt>
      <trkpt lat="36.81795333512127399444580078125" lon="-118.4411425888538360595703125">
        <ele>3814.39990234375</ele>
        <time>2021-06-26T18:31:15.000Z</time>
        <extensions>
          <ns3:TrackPointExtension>
            <ns3:atemp>27.0</ns3:atemp>
            <ns3:hr>97</ns3:hr>
          </ns3:TrackPointExtension>
        </extensions>
      </trkpt>
      <trkpt lat="36.8179550953209400177001953125" lon="-118.4411437623202800750732421875">
        <ele>3814.39990234375</ele>
        <time>2021-06-26T18:31:17.000Z</time>
        <extensions>
          <ns3:TrackPointExtension>
            <ns3:atemp>27.0</ns3:atemp>
            <ns3:hr>101</ns3:hr>
          </ns3:TrackPointExtension>
        </extensions>
      </trkpt>
      <trkpt lat="36.81795685552060604095458984375" lon="-118.441144935786724090576171875">
        <ele>3814.60009765625</ele>
        <time>2021-06-26T18:31:19.000Z</time>
        <extensions>
          <ns3:TrackPointExtension>
            <ns3:atemp>27.0</ns3:atemp>
            <ns3:hr>104</ns3:hr>
          </ns3:TrackPointExtension>
        </extensions>
      </trkpt>
      <trkpt lat="36.81795953772962093353271484375" lon="-118.44114669598639011383056640625">
        <ele>3814.60009765625</ele>
        <time>2021-06-26T18:31:22.000Z</time>
        <extensions>
          <ns3:TrackPointExtension>
            <ns3:atemp>27.0</ns3:atemp>
            <ns3:hr>103</ns3:hr>
          </ns3:TrackPointExtension>
        </extensions>
      </trkpt>
      <trkpt lat="36.817966662347316741943359375" lon="-118.44115122221410274505615234375">
        <ele>3815.800048828125</ele>
        <time>2021-06-26T18:31:30.000Z</time>
        <extensions>
          <ns3:TrackPointExtension>
            <ns3:atemp>27.0</ns3:atemp>
            <ns3:hr>105</ns3:hr>
          </ns3:TrackPointExtension>
        </extensions>
      </trkpt>
      <trkpt lat="36.817972026765346527099609375" lon="-118.44115457497537136077880859375">
        <ele>3816.199951171875</ele>
        <time>2021-06-26T18:31:36.000Z</time>
        <extensions>
          <ns3:TrackPointExtension>
            <ns3:atemp>27.0</ns3:atemp>
            <ns3:hr>102</ns3:hr>
          </ns3:TrackPointExtension>
        </extensions>
      </trkpt>
      <trkpt lat="36.8179899640381336212158203125" lon="-118.44116530381143093109130859375">
        <ele>3815.800048828125</ele>
        <time>2021-06-26T18:31:56.000Z</time>
        <extensions>
          <ns3:TrackPointExtension>
            <ns3:atemp>27.0</ns3:atemp>
            <ns3:hr>108</ns3:hr>
          </ns3:TrackPointExtension>
        </extensions>
      </trkpt>
      <trkpt lat="36.817990802228450775146484375" lon="-118.441165722906589508056640625">
        <ele>3815.800048828125</ele>
        <time>2021-06-26T18:31:57.000Z</time>
        <extensions>
          <ns3:TrackPointExtension>
            <ns3:atemp>27.0</ns3:atemp>
            <ns3:hr>105</ns3:hr>
          </ns3:TrackPointExtension>
        </extensions>
      </trkpt>
      <trkpt lat="36.81799440644681453704833984375" lon="-118.44116798602044582366943359375">
        <ele>3815.800048828125</ele>
        <time>2021-06-26T18:32:01.000Z</time>
        <extensions>
          <ns3:TrackPointExtension>
            <ns3:atemp>27.0</ns3:atemp>
            <ns3:hr>102</ns3:hr>
          </ns3:TrackPointExtension>
        </extensions>
      </trkpt>
      <trkpt lat="36.81800228543579578399658203125" lon="-118.44117276370525360107421875">
        <ele>3816</ele>
        <time>2021-06-26T18:32:10.000Z</time>
        <extensions>
          <ns3:TrackPointExtension>
            <ns3:atemp>27.0</ns3:atemp>
            <ns3:hr>105</ns3:hr>
          </ns3:TrackPointExtension>
        </extensions>
      </trkpt>
      <trkpt lat="36.8180090747773647308349609375" lon="-118.4411769546568393707275390625">
        <ele>3815.60009765625</ele>
        <time>2021-06-26T18:32:18.000Z</time>
        <extensions>
          <ns3:TrackPointExtension>
            <ns3:atemp>27.0</ns3:atemp>
            <ns3:hr>102</ns3:hr>
          </ns3:TrackPointExtension>
        </extensions>
      </trkpt>
      <trkpt lat="36.8180281855165958404541015625" lon="-118.441189192235469818115234375">
        <ele>3814.800048828125</ele>
        <time>2021-06-26T18:32:41.000Z</time>
        <extensions>
          <ns3:TrackPointExtension>
            <ns3:atemp>27.0</ns3:atemp>
            <ns3:hr>100</ns3:hr>
          </ns3:TrackPointExtension>
        </extensions>
      </trkpt>
      <trkpt lat="36.81803715415298938751220703125" lon="-118.44119489192962646484375">
        <ele>3813.60009765625</ele>
        <time>2021-06-26T18:32:52.000Z</time>
        <extensions>
          <ns3:TrackPointExtension>
            <ns3:atemp>27.0</ns3:atemp>
            <ns3:hr>100</ns3:hr>
          </ns3:TrackPointExtension>
        </extensions>
      </trkpt>
      <trkpt lat="36.8180395849049091339111328125" lon="-118.44119648449122905731201171875">
        <ele>3813.39990234375</ele>
        <time>2021-06-26T18:32:55.000Z</time>
        <extensions>
          <ns3:TrackPointExtension>
            <ns3:atemp>27.0</ns3:atemp>
            <ns3:hr>103</ns3:hr>
          </ns3:TrackPointExtension>
        </extensions>
      </trkpt>
      <trkpt lat="36.81804771535098552703857421875" lon="-118.44120168127119541168212890625">
        <ele>3812.199951171875</ele>
        <time>2021-06-26T18:33:05.000Z</time>
        <extensions>
          <ns3:TrackPointExtension>
            <ns3:atemp>27.0</ns3:atemp>
            <ns3:hr>101</ns3:hr>
          </ns3:TrackPointExtension>
        </extensions>
      </trkpt>
      <trkpt lat="36.818054504692554473876953125" lon="-118.44120587222278118133544921875">
        <ele>3812.199951171875</ele>
        <time>2021-06-26T18:33:13.000Z</time>
        <extensions>
          <ns3:TrackPointExtension>
            <ns3:atemp>27.0</ns3:atemp>
            <ns3:hr>98</ns3:hr>
          </ns3:TrackPointExtension>
        </extensions>
      </trkpt>
      <trkpt lat="36.81805618107318878173828125" lon="-118.44120687805116176605224609375">
        <ele>3812.800048828125</ele>
        <time>2021-06-26T18:33:15.000Z</time>
        <extensions>
          <ns3:TrackPointExtension>
            <ns3:atemp>27.0</ns3:atemp>
            <ns3:hr>95</ns3:hr>
          </ns3:TrackPointExtension>
        </extensions>
      </trkpt>
      <trkpt lat="36.81805794127285480499267578125" lon="-118.441207967698574066162109375">
        <ele>3813</ele>
        <time>2021-06-26T18:33:17.000Z</time>
        <extensions>
          <ns3:TrackPointExtension>
            <ns3:atemp>27.0</ns3:atemp>
            <ns3:hr>92</ns3:hr>
          </ns3:TrackPointExtension>
        </extensions>
      </trkpt>
      <trkpt lat="36.818060539662837982177734375" lon="-118.44120972789824008941650390625">
        <ele>3813.199951171875</ele>
        <time>2021-06-26T18:33:20.000Z</time>
        <extensions>
          <ns3:TrackPointExtension>
            <ns3:atemp>27.0</ns3:atemp>
            <ns3:hr>91</ns3:hr>
          </ns3:TrackPointExtension>
        </extensions>
      </trkpt>
      <trkpt lat="36.81806414388120174407958984375" lon="-118.441211991012096405029296875">
        <ele>3813.60009765625</ele>
        <time>2021-06-26T18:33:24.000Z</time>
        <extensions>
          <ns3:TrackPointExtension>
            <ns3:atemp>27.0</ns3:atemp>
            <ns3:hr>94</ns3:hr>
          </ns3:TrackPointExtension>
        </extensions>
      </trkpt>
      <trkpt lat="36.81806682609021663665771484375" lon="-118.441213667392730712890625">
        <ele>3814.60009765625</ele>
        <time>2021-06-26T18:33:27.000Z</time>
        <extensions>
          <ns3:TrackPointExtension>
            <ns3:atemp>27.0</ns3:atemp>
            <ns3:hr>96</ns3:hr>
          </ns3:TrackPointExtension>
        </extensions>
      </trkpt>
      <trkpt lat="36.8180704303085803985595703125" lon="-118.44121593050658702850341796875">
        <ele>3814.800048828125</ele>
        <time>2021-06-26T18:33:31.000Z</time>
        <extensions>
          <ns3:TrackPointExtension>
            <ns3:atemp>27.0</ns3:atemp>
            <ns3:hr>93</ns3:hr>
          </ns3:TrackPointExtension>
        </extensions>
      </trkpt>
      <trkpt lat="36.8180831708014011383056640625" lon="-118.44122380949556827545166015625">
        <ele>3815</ele>
        <time>2021-06-26T18:33:45.000Z</time>
        <extensions>
          <ns3:TrackPointExtension>
            <ns3:atemp>27.0</ns3:atemp>
            <ns3:hr>96</ns3:hr>
          </ns3:TrackPointExtension>
        </extensions>
      </trkpt>
      <trkpt lat="36.81808593682944774627685546875" lon="-118.44122548587620258331298828125">
        <ele>3815</ele>
        <time>2021-06-26T18:33:48.000Z</time>
        <extensions>
          <ns3:TrackPointExtension>
            <ns3:atemp>27.0</ns3:atemp>
            <ns3:hr>99</ns3:hr>
          </ns3:TrackPointExtension>
        </extensions>
      </trkpt>
      <trkpt lat="36.81810848414897918701171875" lon="-118.4412393160164356231689453125">
        <ele>3816.199951171875</ele>
        <time>2021-06-26T18:34:12.000Z</time>
        <extensions>
          <ns3:TrackPointExtension>
            <ns3:atemp>27.0</ns3:atemp>
            <ns3:hr>99</ns3:hr>
          </ns3:TrackPointExtension>
        </extensions>
      </trkpt>
      <trkpt lat="36.8181183747947216033935546875" lon="-118.44124543480575084686279296875">
        <ele>3817.39990234375</ele>
        <time>2021-06-26T18:34:22.000Z</time>
        <extensions>
          <ns3:TrackPointExtension>
            <ns3:atemp>27.0</ns3:atemp>
            <ns3:hr>98</ns3:hr>
          </ns3:TrackPointExtension>
        </extensions>
      </trkpt>
      <trkpt lat="36.81812533177435398101806640625" lon="-118.44124979339540004730224609375">
        <ele>3818</ele>
        <time>2021-06-26T18:34:29.000Z</time>
        <extensions>
          <ns3:TrackPointExtension>
            <ns3:atemp>27.0</ns3:atemp>
            <ns3:hr>95</ns3:hr>
          </ns3:TrackPointExtension>
        </extensions>
      </trkpt>
      <trkpt lat="36.81812734343111515045166015625" lon="-118.4412510506808757781982421875">
        <ele>3818</ele>
        <time>2021-06-26T18:34:31.000Z</time>
        <extensions>
          <ns3:TrackPointExtension>
            <ns3:atemp>27.0</ns3:atemp>
            <ns3:hr>91</ns3:hr>
          </ns3:TrackPointExtension>
        </extensions>
      </trkpt>
      <trkpt lat="36.81812935508787631988525390625" lon="-118.44125230796635150909423828125">
        <ele>3817.800048828125</ele>
        <time>2021-06-26T18:34:33.000Z</time>
        <extensions>
          <ns3:TrackPointExtension>
            <ns3:atemp>27.0</ns3:atemp>
            <ns3:hr>87</ns3:hr>
          </ns3:TrackPointExtension>
        </extensions>
      </trkpt>
      <trkpt lat="36.8181408382952213287353515625" lon="-118.441259600222110748291015625">
        <ele>3817</ele>
        <time>2021-06-26T18:34:44.000Z</time>
        <extensions>
          <ns3:TrackPointExtension>
            <ns3:atemp>27.0</ns3:atemp>
            <ns3:hr>84</ns3:hr>
          </ns3:TrackPointExtension>
        </extensions>
      </trkpt>
      <trkpt lat="36.81815165095031261444091796875" lon="-118.4412668086588382720947265625">
        <ele>3818.199951171875</ele>
        <time>2021-06-26T18:34:54.000Z</time>
        <extensions>
          <ns3:TrackPointExtension>
            <ns3:atemp>27.0</ns3:atemp>
            <ns3:hr>88</ns3:hr>
          </ns3:TrackPointExtension>
        </extensions>
      </trkpt>
      <trkpt lat="36.81815274059772491455078125" lon="-118.44126756303012371063232421875">
        <ele>3818.39990234375</ele>
        <time>2021-06-26T18:34:55.000Z</time>
        <extensions>
          <ns3:TrackPointExtension>
            <ns3:atemp>27.0</ns3:atemp>
            <ns3:hr>87</ns3:hr>
          </ns3:TrackPointExtension>
        </extensions>
      </trkpt>
      <trkpt lat="36.81816053576767444610595703125" lon="-118.4412731789052486419677734375">
        <ele>3819.39990234375</ele>
        <time>2021-06-26T18:35:02.000Z</time>
        <extensions>
          <ns3:TrackPointExtension>
            <ns3:atemp>27.0</ns3:atemp>
            <ns3:hr>87</ns3:hr>
          </ns3:TrackPointExtension>
        </extensions>
      </trkpt>
      <trkpt lat="36.81816506199538707733154296875" lon="-118.4412765316665172576904296875">
        <ele>3820</ele>
        <time>2021-06-26T18:35:06.000Z</time>
        <extensions>
          <ns3:TrackPointExtension>
            <ns3:atemp>27.0</ns3:atemp>
            <ns3:hr>91</ns3:hr>
          </ns3:TrackPointExtension>
        </extensions>
      </trkpt>
      <trkpt lat="36.81816623546183109283447265625" lon="-118.44127745367586612701416015625">
        <ele>3820.199951171875</ele>
        <time>2021-06-26T18:35:07.000Z</time>
        <extensions>
          <ns3:TrackPointExtension>
            <ns3:atemp>27.0</ns3:atemp>
            <ns3:hr>96</ns3:hr>
          </ns3:TrackPointExtension>
        </extensions>
      </trkpt>
      <trkpt lat="36.8181673251092433929443359375" lon="-118.44127829186618328094482421875">
        <ele>3820.199951171875</ele>
        <time>2021-06-26T18:35:08.000Z</time>
        <extensions>
          <ns3:TrackPointExtension>
            <ns3:atemp>27.0</ns3:atemp>
            <ns3:hr>100</ns3:hr>
          </ns3:TrackPointExtension>
        </extensions>
      </trkpt>
      <trkpt lat="36.8181696720421314239501953125" lon="-118.44128005206584930419921875">
        <ele>3820.199951171875</ele>
        <time>2021-06-26T18:35:10.000Z</time>
        <extensions>
          <ns3:TrackPointExtension>
            <ns3:atemp>27.0</ns3:atemp>
            <ns3:hr>104</ns3:hr>
          </ns3:TrackPointExtension>
        </extensions>
      </trkpt>
      <trkpt lat="36.81817428208887577056884765625" lon="-118.44128365628421306610107421875">
        <ele>3820.800048828125</ele>
        <time>2021-06-26T18:35:14.000Z</time>
        <extensions>
          <ns3:TrackPointExtension>
            <ns3:atemp>27.0</ns3:atemp>
            <ns3:hr>103</ns3:hr>
          </ns3:TrackPointExtension>
        </extensions>
      </trkpt>
      <trkpt lat="36.81817662902176380157470703125" lon="-118.44128541648387908935546875">
        <ele>3821</ele>
        <time>2021-06-26T18:35:16.000Z</time>
        <extensions>
          <ns3:TrackPointExtension>
            <ns3:atemp>27.0</ns3:atemp>
            <ns3:hr>100</ns3:hr>
          </ns3:TrackPointExtension>
        </extensions>
      </trkpt>
      <trkpt lat="36.81817897595465183258056640625" lon="-118.4412872605025768280029296875">
        <ele>3821.199951171875</ele>
        <time>2021-06-26T18:35:18.000Z</time>
        <extensions>
          <ns3:TrackPointExtension>
            <ns3:atemp>27.0</ns3:atemp>
            <ns3:hr>97</ns3:hr>
          </ns3:TrackPointExtension>
        </extensions>
      </trkpt>
      <trkpt lat="36.81818492710590362548828125" lon="-118.44129187054932117462158203125">
        <ele>3821.39990234375</ele>
        <time>2021-06-26T18:35:23.000Z</time>
        <extensions>
          <ns3:TrackPointExtension>
            <ns3:atemp>27.0</ns3:atemp>
            <ns3:hr>94</ns3:hr>
          </ns3:TrackPointExtension>
        </extensions>
      </trkpt>
      <trkpt lat="36.81818853132426738739013671875" lon="-118.44129455275833606719970703125">
        <ele>3821.199951171875</ele>
        <time>2021-06-26T18:35:26.000Z</time>
        <extensions>
          <ns3:TrackPointExtension>
            <ns3:atemp>27.0</ns3:atemp>
            <ns3:hr>97</ns3:hr>
          </ns3:TrackPointExtension>
        </extensions>
      </trkpt>
      <trkpt lat="36.81819691322743892669677734375" lon="-118.4413010068237781524658203125">
        <ele>3822</ele>
        <time>2021-06-26T18:35:33.000Z</time>
        <extensions>
          <ns3:TrackPointExtension>
            <ns3:atemp>27.0</ns3:atemp>
            <ns3:hr>99</ns3:hr>
          </ns3:TrackPointExtension>
        </extensions>
      </trkpt>
      <trkpt lat="36.8182065524160861968994140625" lon="-118.44130821526050567626953125">
        <ele>3823.199951171875</ele>
        <time>2021-06-26T18:35:41.000Z</time>
        <extensions>
          <ns3:TrackPointExtension>
            <ns3:atemp>27.0</ns3:atemp>
            <ns3:hr>98</ns3:hr>
          </ns3:TrackPointExtension>
        </extensions>
      </trkpt>
      <trkpt lat="36.81821015663444995880126953125" lon="-118.44131098128855228424072265625">
        <ele>3823.199951171875</ele>
        <time>2021-06-26T18:35:44.000Z</time>
        <extensions>
          <ns3:TrackPointExtension>
            <ns3:atemp>27.0</ns3:atemp>
            <ns3:hr>101</ns3:hr>
          </ns3:TrackPointExtension>
        </extensions>
      </trkpt>
      <trkpt lat="36.81823781691491603851318359375" lon="-118.4413330256938934326171875">
        <ele>3823</ele>
        <time>2021-06-26T18:36:07.000Z</time>
        <extensions>
          <ns3:TrackPointExtension>
            <ns3:atemp>28.0</ns3:atemp>
            <ns3:hr>105</ns3:hr>
          </ns3:TrackPointExtension>
        </extensions>
      </trkpt>
      <trkpt lat="36.81824016384780406951904296875" lon="-118.44133495353162288665771484375">
        <ele>3822.800048828125</ele>
        <time>2021-06-26T18:36:09.000Z</time>
        <extensions>
          <ns3:TrackPointExtension>
            <ns3:atemp>28.0</ns3:atemp>
            <ns3:hr>108</ns3:hr>
          </ns3:TrackPointExtension>
        </extensions>
      </trkpt>
      <trkpt lat="36.81824603118002414703369140625" lon="-118.4413397312164306640625">
        <ele>3822.800048828125</ele>
        <time>2021-06-26T18:36:14.000Z</time>
        <extensions>
          <ns3:TrackPointExtension>
            <ns3:atemp>28.0</ns3:atemp>
            <ns3:hr>105</ns3:hr>
          </ns3:TrackPointExtension>
        </extensions>
      </trkpt>
      <trkpt lat="36.81824955157935619354248046875" lon="-118.4413425810635089874267578125">
        <ele>3822.60009765625</ele>
        <time>2021-06-26T18:36:17.000Z</time>
        <extensions>
          <ns3:TrackPointExtension>
            <ns3:atemp>28.0</ns3:atemp>
            <ns3:hr>102</ns3:hr>
          </ns3:TrackPointExtension>
        </extensions>
      </trkpt>
      <trkpt lat="36.8182541616261005401611328125" lon="-118.4413464367389678955078125">
        <ele>3822.60009765625</ele>
        <time>2021-06-26T18:36:21.000Z</time>
        <extensions>
          <ns3:TrackPointExtension>
            <ns3:atemp>28.0</ns3:atemp>
            <ns3:hr>99</ns3:hr>
          </ns3:TrackPointExtension>
        </extensions>
      </trkpt>
      <trkpt lat="36.8182565085589885711669921875" lon="-118.4413482807576656341552734375">
        <ele>3822.60009765625</ele>
        <time>2021-06-26T18:36:23.000Z</time>
        <extensions>
          <ns3:TrackPointExtension>
            <ns3:atemp>28.0</ns3:atemp>
            <ns3:hr>96</ns3:hr>
          </ns3:TrackPointExtension>
        </extensions>
      </trkpt>
      <trkpt lat="36.81825759820640087127685546875" lon="-118.44134920276701450347900390625">
        <ele>3822.39990234375</ele>
        <time>2021-06-26T18:36:24.000Z</time>
        <extensions>
          <ns3:TrackPointExtension>
            <ns3:atemp>28.0</ns3:atemp>
            <ns3:hr>95</ns3:hr>
          </ns3:TrackPointExtension>
        </extensions>
      </trkpt>
      <trkpt lat="36.81827017106115818023681640625" lon="-118.441359512507915496826171875">
        <ele>3822.199951171875</ele>
        <time>2021-06-26T18:36:35.000Z</time>
        <extensions>
          <ns3:TrackPointExtension>
            <ns3:atemp>28.0</ns3:atemp>
            <ns3:hr>95</ns3:hr>
          </ns3:TrackPointExtension>
        </extensions>
      </trkpt>
      <trkpt lat="36.81827352382242679595947265625" lon="-118.44136227853596210479736328125">
        <ele>3822</ele>
        <time>2021-06-26T18:36:38.000Z</time>
        <extensions>
          <ns3:TrackPointExtension>
            <ns3:atemp>28.0</ns3:atemp>
            <ns3:hr>92</ns3:hr>
          </ns3:TrackPointExtension>
        </extensions>
      </trkpt>
      <trkpt lat="36.81828240863978862762451171875" lon="-118.44136965461075305938720703125">
        <ele>3821.39990234375</ele>
        <time>2021-06-26T18:36:46.000Z</time>
        <extensions>
          <ns3:TrackPointExtension>
            <ns3:atemp>29.0</ns3:atemp>
            <ns3:hr>92</ns3:hr>
          </ns3:TrackPointExtension>
        </extensions>
      </trkpt>
      <trkpt lat="36.818283498287200927734375" lon="-118.44137049280107021331787109375">
        <ele>3821.39990234375</ele>
        <time>2021-06-26T18:36:47.000Z</time>
        <extensions>
          <ns3:TrackPointExtension>
            <ns3:atemp>29.0</ns3:atemp>
            <ns3:hr>89</ns3:hr>
          </ns3:TrackPointExtension>
        </extensions>
      </trkpt>
      <trkpt lat="36.81828685104846954345703125" lon="-118.4413732588291168212890625">
        <ele>3821.39990234375</ele>
        <time>2021-06-26T18:36:50.000Z</time>
        <extensions>
          <ns3:TrackPointExtension>
            <ns3:atemp>29.0</ns3:atemp>
            <ns3:hr>84</ns3:hr>
          </ns3:TrackPointExtension>
        </extensions>
      </trkpt>
      <trkpt lat="36.8182890303432941436767578125" lon="-118.44137501902878284454345703125">
        <ele>3821.199951171875</ele>
        <time>2021-06-26T18:36:52.000Z</time>
        <extensions>
          <ns3:TrackPointExtension>
            <ns3:atemp>29.0</ns3:atemp>
            <ns3:hr>87</ns3:hr>
          </ns3:TrackPointExtension>
        </extensions>
      </trkpt>
      <trkpt lat="36.81829011999070644378662109375" lon="-118.4413759410381317138671875">
        <ele>3821</ele>
        <time>2021-06-26T18:36:53.000Z</time>
        <extensions>
          <ns3:TrackPointExtension>
            <ns3:atemp>29.0</ns3:atemp>
            <ns3:hr>88</ns3:hr>
          </ns3:TrackPointExtension>
        </extensions>
      </trkpt>
      <trkpt lat="36.81830202229321002960205078125" lon="-118.4413858316838741302490234375">
        <ele>3820.800048828125</ele>
        <time>2021-06-26T18:37:04.000Z</time>
        <extensions>
          <ns3:TrackPointExtension>
            <ns3:atemp>29.0</ns3:atemp>
            <ns3:hr>90</ns3:hr>
          </ns3:TrackPointExtension>
        </extensions>
      </trkpt>
      <trkpt lat="36.81831459514796733856201171875" lon="-118.44139647670090198516845703125">
        <ele>3819.800048828125</ele>
        <time>2021-06-26T18:37:16.000Z</time>
        <extensions>
          <ns3:TrackPointExtension>
            <ns3:atemp>30.0</ns3:atemp>
            <ns3:hr>89</ns3:hr>
          </ns3:TrackPointExtension>
        </extensions>
      </trkpt>
      <trkpt lat="36.81831878609955310821533203125" lon="-118.44139999710023403167724609375">
        <ele>3819.800048828125</ele>
        <time>2021-06-26T18:37:20.000Z</time>
        <extensions>
          <ns3:TrackPointExtension>
            <ns3:atemp>30.0</ns3:atemp>
            <ns3:hr>88</ns3:hr>
          </ns3:TrackPointExtension>
        </extensions>
      </trkpt>
      <trkpt lat="36.81832079775631427764892578125" lon="-118.441401757299900054931640625">
        <ele>3820</ele>
        <time>2021-06-26T18:37:22.000Z</time>
        <extensions>
          <ns3:TrackPointExtension>
            <ns3:atemp>30.0</ns3:atemp>
            <ns3:hr>85</ns3:hr>
          </ns3:TrackPointExtension>
        </extensions>
      </trkpt>
      <trkpt lat="36.81832901202142238616943359375" lon="-118.44140854664146900177001953125">
        <ele>3820</ele>
        <time>2021-06-26T18:37:30.000Z</time>
        <extensions>
          <ns3:TrackPointExtension>
            <ns3:atemp>30.0</ns3:atemp>
            <ns3:hr>82</ns3:hr>
          </ns3:TrackPointExtension>
        </extensions>
      </trkpt>
      <trkpt lat="36.8183349631726741790771484375" lon="-118.4414136596024036407470703125">
        <ele>3820.800048828125</ele>
        <time>2021-06-26T18:37:36.000Z</time>
        <extensions>
          <ns3:TrackPointExtension>
            <ns3:atemp>30.0</ns3:atemp>
            <ns3:hr>81</ns3:hr>
          </ns3:TrackPointExtension>
        </extensions>
      </trkpt>
      <trkpt lat="36.81859052740037441253662109375" lon="-118.4416014142334461212158203125">
        <ele>3821</ele>
        <time>2021-06-26T18:37:40.000Z</time>
        <extensions>
          <ns3:TrackPointExtension>
            <ns3:atemp>30.0</ns3:atemp>
            <ns3:hr>81</ns3:hr>
          </ns3:TrackPointExtension>
        </extensions>
      </trkpt>
      <trkpt lat="36.8187111429870128631591796875" lon="-118.44168498180806636810302734375">
        <ele>3821</ele>
        <time>2021-06-26T18:37:42.000Z</time>
        <extensions>
          <ns3:TrackPointExtension>
            <ns3:atemp>30.0</ns3:atemp>
            <ns3:hr>79</ns3:hr>
          </ns3:TrackPointExtension>
        </extensions>
      </trkpt>
      <trkpt lat="36.81877358816564083099365234375" lon="-118.44172529876232147216796875">
        <ele>3821</ele>
        <time>2021-06-26T18:37:43.000Z</time>
        <extensions>
          <ns3:TrackPointExtension>
            <ns3:atemp>30.0</ns3:atemp>
            <ns3:hr>78</ns3:hr>
          </ns3:TrackPointExtension>
        </extensions>
      </trkpt>
      <trkpt lat="36.8189693056046962738037109375" lon="-118.44185027293860912322998046875">
        <ele>3821.800048828125</ele>
        <time>2021-06-26T18:37:46.000Z</time>
        <extensions>
          <ns3:TrackPointExtension>
            <ns3:atemp>30.0</ns3:atemp>
            <ns3:hr>77</ns3:hr>
          </ns3:TrackPointExtension>
        </extensions>
      </trkpt>
      <trkpt lat="36.8189693056046962738037109375" lon="-118.44185027293860912322998046875">
        <ele>3821.60009765625</ele>
        <time>2021-06-26T18:37:51.000Z</time>
        <extensions>
          <ns3:TrackPointExtension>
            <ns3:atemp>30.0</ns3:atemp>
            <ns3:hr>74</ns3:hr>
          </ns3:TrackPointExtension>
        </extensions>
      </trkpt>
      <trkpt lat="36.8189693056046962738037109375" lon="-118.44185027293860912322998046875">
        <ele>3822.199951171875</ele>
        <time>2021-06-26T18:37:54.000Z</time>
        <extensions>
          <ns3:TrackPointExtension>
            <ns3:atemp>30.0</ns3:atemp>
            <ns3:hr>73</ns3:hr>
          </ns3:TrackPointExtension>
        </extensions>
      </trkpt>
      <trkpt lat="36.8189636059105396270751953125" lon="-118.44188354909420013427734375">
        <ele>3821.800048828125</ele>
        <time>2021-06-26T18:38:10.000Z</time>
        <extensions>
          <ns3:TrackPointExtension>
            <ns3:atemp>31.0</ns3:atemp>
            <ns3:hr>76</ns3:hr>
          </ns3:TrackPointExtension>
        </extensions>
      </trkpt>
      <trkpt lat="36.81895648129284381866455078125" lon="-118.44189017079770565032958984375">
        <ele>3821.39990234375</ele>
        <time>2021-06-26T18:38:13.000Z</time>
        <extensions>
          <ns3:TrackPointExtension>
            <ns3:atemp>30.0</ns3:atemp>
            <ns3:hr>73</ns3:hr>
          </ns3:TrackPointExtension>
        </extensions>
      </trkpt>
      <trkpt lat="36.81895346380770206451416015625" lon="-118.44189285300672054290771484375">
        <ele>3821</ele>
        <time>2021-06-26T18:38:16.000Z</time>
        <extensions>
          <ns3:TrackPointExtension>
            <ns3:atemp>31.0</ns3:atemp>
            <ns3:hr>74</ns3:hr>
          </ns3:TrackPointExtension>
        </extensions>
      </trkpt>
      <trkpt lat="36.81895195506513118743896484375" lon="-118.44189519993960857391357421875">
        <ele>3821.199951171875</ele>
        <time>2021-06-26T18:38:19.000Z</time>
        <extensions>
          <ns3:TrackPointExtension>
            <ns3:atemp>31.0</ns3:atemp>
            <ns3:hr>78</ns3:hr>
          </ns3:TrackPointExtension>
        </extensions>
      </trkpt>
      <trkpt lat="36.818939633667469024658203125" lon="-118.4418977983295917510986328125">
        <ele>3821.199951171875</ele>
        <time>2021-06-26T18:38:27.000Z</time>
        <extensions>
          <ns3:TrackPointExtension>
            <ns3:atemp>31.0</ns3:atemp>
            <ns3:hr>75</ns3:hr>
          </ns3:TrackPointExtension>
        </extensions>
      </trkpt>
      <trkpt lat="36.81893921457231044769287109375" lon="-118.44190006144344806671142578125">
        <ele>3820.800048828125</ele>
        <time>2021-06-26T18:38:32.000Z</time>
        <extensions>
          <ns3:TrackPointExtension>
            <ns3:atemp>31.0</ns3:atemp>
            <ns3:hr>76</ns3:hr>
          </ns3:TrackPointExtension>
        </extensions>
      </trkpt>
      <trkpt lat="36.81893921457231044769287109375" lon="-118.44190006144344806671142578125">
        <ele>3820.800048828125</ele>
        <time>2021-06-26T18:38:34.000Z</time>
        <extensions>
          <ns3:TrackPointExtension>
            <ns3:atemp>31.0</ns3:atemp>
            <ns3:hr>79</ns3:hr>
          </ns3:TrackPointExtension>
        </extensions>
      </trkpt>
      <trkpt lat="36.81894105859100818634033203125" lon="-118.4419055096805095672607421875">
        <ele>3822.199951171875</ele>
        <time>2021-06-26T18:38:47.000Z</time>
        <extensions>
          <ns3:TrackPointExtension>
            <ns3:atemp>31.0</ns3:atemp>
            <ns3:hr>79</ns3:hr>
          </ns3:TrackPointExtension>
        </extensions>
      </trkpt>
      <trkpt lat="36.8189659528434276580810546875" lon="-118.44191841781139373779296875">
        <ele>3822.60009765625</ele>
        <time>2021-06-26T18:39:09.000Z</time>
        <extensions>
          <ns3:TrackPointExtension>
            <ns3:atemp>31.0</ns3:atemp>
            <ns3:hr>78</ns3:hr>
          </ns3:TrackPointExtension>
        </extensions>
      </trkpt>
      <trkpt lat="36.81896972469985485076904296875" lon="-118.44195052050054073333740234375">
        <ele>3822.60009765625</ele>
        <time>2021-06-26T18:39:14.000Z</time>
        <extensions>
          <ns3:TrackPointExtension>
            <ns3:atemp>31.0</ns3:atemp>
            <ns3:hr>79</ns3:hr>
          </ns3:TrackPointExtension>
        </extensions>
      </trkpt>
      <trkpt lat="36.81897751986980438232421875" lon="-118.4419387020170688629150390625">
        <ele>3822.60009765625</ele>
        <time>2021-06-26T18:39:17.000Z</time>
        <extensions>
          <ns3:TrackPointExtension>
            <ns3:atemp>31.0</ns3:atemp>
            <ns3:hr>82</ns3:hr>
          </ns3:TrackPointExtension>
        </extensions>
      </trkpt>
      <trkpt lat="36.81897877715528011322021484375" lon="-118.4419309906661510467529296875">
        <ele>3822.60009765625</ele>
        <time>2021-06-26T18:39:19.000Z</time>
        <extensions>
          <ns3:TrackPointExtension>
            <ns3:atemp>31.0</ns3:atemp>
            <ns3:hr>83</ns3:hr>
          </ns3:TrackPointExtension>
        </extensions>
      </trkpt>
      <trkpt lat="36.81897710077464580535888671875" lon="-118.44191313721239566802978515625">
        <ele>3822.60009765625</ele>
        <time>2021-06-26T18:39:26.000Z</time>
        <extensions>
          <ns3:TrackPointExtension>
            <ns3:atemp>31.0</ns3:atemp>
            <ns3:hr>85</ns3:hr>
          </ns3:TrackPointExtension>
        </extensions>
      </trkpt>
      <trkpt lat="36.81897710077464580535888671875" lon="-118.44191313721239566802978515625">
        <ele>3822.60009765625</ele>
        <time>2021-06-26T18:39:38.000Z</time>
        <extensions>
          <ns3:TrackPointExtension>
            <ns3:atemp>32.0</ns3:atemp>
            <ns3:hr>88</ns3:hr>
          </ns3:TrackPointExtension>
        </extensions>
      </trkpt>
      <trkpt lat="36.8189807049930095672607421875" lon="-118.44191841781139373779296875">
        <ele>3822.60009765625</ele>
        <time>2021-06-26T18:39:48.000Z</time>
        <extensions>
          <ns3:TrackPointExtension>
            <ns3:atemp>32.0</ns3:atemp>
            <ns3:hr>89</ns3:hr>
          </ns3:TrackPointExtension>
        </extensions>
      </trkpt>
      <trkpt lat="36.81898280046880245208740234375" lon="-118.44192110002040863037109375">
        <ele>3822.60009765625</ele>
        <time>2021-06-26T18:39:57.000Z</time>
        <extensions>
          <ns3:TrackPointExtension>
            <ns3:atemp>32.0</ns3:atemp>
            <ns3:hr>92</ns3:hr>
          </ns3:TrackPointExtension>
        </extensions>
      </trkpt>
      <trkpt lat="36.8189870752394199371337890625" lon="-118.44192151911556720733642578125">
        <ele>3822.60009765625</ele>
        <time>2021-06-26T18:40:00.000Z</time>
        <extensions>
          <ns3:TrackPointExtension>
            <ns3:atemp>32.0</ns3:atemp>
            <ns3:hr>97</ns3:hr>
          </ns3:TrackPointExtension>
        </extensions>
      </trkpt>
      <trkpt lat="36.81899084709584712982177734375" lon="-118.44192051328718662261962890625">
        <ele>3822.60009765625</ele>
        <time>2021-06-26T18:40:01.000Z</time>
        <extensions>
          <ns3:TrackPointExtension>
            <ns3:atemp>32.0</ns3:atemp>
            <ns3:hr>99</ns3:hr>
          </ns3:TrackPointExtension>
        </extensions>
      </trkpt>
      <trkpt lat="36.81895111687481403350830078125" lon="-118.44189964234828948974609375">
        <ele>3822.60009765625</ele>
        <time>2021-06-26T18:40:19.000Z</time>
        <extensions>
          <ns3:TrackPointExtension>
            <ns3:atemp>32.0</ns3:atemp>
            <ns3:hr>96</ns3:hr>
          </ns3:TrackPointExtension>
        </extensions>
      </trkpt>
      <trkpt lat="36.81896938942372798919677734375" lon="-118.44188581220805644989013671875">
        <ele>3822.60009765625</ele>
        <time>2021-06-26T18:40:29.000Z</time>
        <extensions>
          <ns3:TrackPointExtension>
            <ns3:atemp>32.0</ns3:atemp>
            <ns3:hr>95</ns3:hr>
          </ns3:TrackPointExtension>
        </extensions>
      </trkpt>
      <trkpt lat="36.81896603666245937347412109375" lon="-118.44191716052591800689697265625">
        <ele>3822.60009765625</ele>
        <time>2021-06-26T18:40:35.000Z</time>
        <extensions>
          <ns3:TrackPointExtension>
            <ns3:atemp>32.0</ns3:atemp>
            <ns3:hr>96</ns3:hr>
          </ns3:TrackPointExtension>
        </extensions>
      </trkpt>
      <trkpt lat="36.81897022761404514312744140625" lon="-118.44192445278167724609375">
        <ele>3822.60009765625</ele>
        <time>2021-06-26T18:40:37.000Z</time>
        <extensions>
          <ns3:TrackPointExtension>
            <ns3:atemp>32.0</ns3:atemp>
            <ns3:hr>93</ns3:hr>
          </ns3:TrackPointExtension>
        </extensions>
      </trkpt>
      <trkpt lat="36.818971149623394012451171875" lon="-118.441914059221744537353515625">
        <ele>3822.60009765625</ele>
        <time>2021-06-26T18:40:39.000Z</time>
        <extensions>
          <ns3:TrackPointExtension>
            <ns3:atemp>32.0</ns3:atemp>
            <ns3:hr>90</ns3:hr>
          </ns3:TrackPointExtension>
        </extensions>
      </trkpt>
      <trkpt lat="36.81897106580436229705810546875" lon="-118.441879190504550933837890625">
        <ele>3822.60009765625</ele>
        <time>2021-06-26T18:40:44.000Z</time>
        <extensions>
          <ns3:TrackPointExtension>
            <ns3:atemp>32.0</ns3:atemp>
            <ns3:hr>89</ns3:hr>
          </ns3:TrackPointExtension>
        </extensions>
      </trkpt>
      <trkpt lat="36.8189661204814910888671875" lon="-118.44191707670688629150390625">
        <ele>3822.60009765625</ele>
        <time>2021-06-26T18:40:50.000Z</time>
        <extensions>
          <ns3:TrackPointExtension>
            <ns3:atemp>32.0</ns3:atemp>
            <ns3:hr>87</ns3:hr>
          </ns3:TrackPointExtension>
        </extensions>
      </trkpt>
      <trkpt lat="36.81896771304309368133544921875" lon="-118.441922776401042938232421875">
        <ele>3822.60009765625</ele>
        <time>2021-06-26T18:40:56.000Z</time>
        <extensions>
          <ns3:TrackPointExtension>
            <ns3:atemp>32.0</ns3:atemp>
            <ns3:hr>86</ns3:hr>
          </ns3:TrackPointExtension>
        </extensions>
      </trkpt>
      <trkpt lat="36.8189807049930095672607421875" lon="-118.44191305339336395263671875">
        <ele>3822.60009765625</ele>
        <time>2021-06-26T18:41:02.000Z</time>
        <extensions>
          <ns3:TrackPointExtension>
            <ns3:atemp>32.0</ns3:atemp>
            <ns3:hr>88</ns3:hr>
          </ns3:TrackPointExtension>
        </extensions>
      </trkpt>
      <trkpt lat="36.81897995062172412872314453125" lon="-118.44191816635429859161376953125">
        <ele>3822.60009765625</ele>
        <time>2021-06-26T18:41:12.000Z</time>
        <extensions>
          <ns3:TrackPointExtension>
            <ns3:atemp>32.0</ns3:atemp>
            <ns3:hr>89</ns3:hr>
          </ns3:TrackPointExtension>
        </extensions>
      </trkpt>
      <trkpt lat="36.81897995062172412872314453125" lon="-118.44191816635429859161376953125">
        <ele>3822.60009765625</ele>
        <time>2021-06-26T18:41:16.000Z</time>
        <extensions>
          <ns3:TrackPointExtension>
            <ns3:atemp>32.0</ns3:atemp>
            <ns3:hr>86</ns3:hr>
          </ns3:TrackPointExtension>
        </extensions>
      </trkpt>
      <trkpt lat="36.81897844187915325164794921875" lon="-118.44191816635429859161376953125">
        <ele>3822.60009765625</ele>
        <time>2021-06-26T18:41:20.000Z</time>
        <extensions>
          <ns3:TrackPointExtension>
            <ns3:atemp>32.0</ns3:atemp>
            <ns3:hr>83</ns3:hr>
          </ns3:TrackPointExtension>
        </extensions>
      </trkpt>
      <trkpt lat="36.81897089816629886627197265625" lon="-118.441927470266819000244140625">
        <ele>3822.60009765625</ele>
        <time>2021-06-26T18:41:30.000Z</time>
        <extensions>
          <ns3:TrackPointExtension>
            <ns3:atemp>32.0</ns3:atemp>
            <ns3:hr>86</ns3:hr>
          </ns3:TrackPointExtension>
        </extensions>
      </trkpt>
      <trkpt lat="36.8189605884253978729248046875" lon="-118.441927470266819000244140625">
        <ele>3822.60009765625</ele>
        <time>2021-06-26T18:41:37.000Z</time>
        <extensions>
          <ns3:TrackPointExtension>
            <ns3:atemp>32.0</ns3:atemp>
            <ns3:hr>89</ns3:hr>
          </ns3:TrackPointExtension>
        </extensions>
      </trkpt>
      <trkpt lat="36.81896050460636615753173828125" lon="-118.441927470266819000244140625">
        <ele>3822.60009765625</ele>
        <time>2021-06-26T18:41:39.000Z</time>
        <extensions>
          <ns3:TrackPointExtension>
            <ns3:atemp>32.0</ns3:atemp>
            <ns3:hr>85</ns3:hr>
          </ns3:TrackPointExtension>
        </extensions>
      </trkpt>
      <trkpt lat="36.81895866058766841888427734375" lon="-118.44191933982074260711669921875">
        <ele>3822.60009765625</ele>
        <time>2021-06-26T18:41:51.000Z</time>
        <extensions>
          <ns3:TrackPointExtension>
            <ns3:atemp>32.0</ns3:atemp>
            <ns3:hr>88</ns3:hr>
          </ns3:TrackPointExtension>
        </extensions>
      </trkpt>
      <trkpt lat="36.81895966641604900360107421875" lon="-118.44191749580204486846923828125">
        <ele>3822.60009765625</ele>
        <time>2021-06-26T18:41:56.000Z</time>
        <extensions>
          <ns3:TrackPointExtension>
            <ns3:atemp>32.0</ns3:atemp>
            <ns3:hr>91</ns3:hr>
          </ns3:TrackPointExtension>
        </extensions>
      </trkpt>
      <trkpt lat="36.81895966641604900360107421875" lon="-118.4419155679643154144287109375">
        <ele>3818.800048828125</ele>
        <time>2021-06-26T18:41:58.000Z</time>
        <extensions>
          <ns3:TrackPointExtension>
            <ns3:atemp>32.0</ns3:atemp>
            <ns3:hr>91</ns3:hr>
          </ns3:TrackPointExtension>
        </extensions>
      </trkpt>
      <trkpt lat="36.8189569003880023956298828125" lon="-118.441890589892864227294921875">
        <ele>3818.800048828125</ele>
        <time>2021-06-26T18:42:11.000Z</time>
        <extensions>
          <ns3:TrackPointExtension>
            <ns3:atemp>32.0</ns3:atemp>
            <ns3:hr>88</ns3:hr>
          </ns3:TrackPointExtension>
        </extensions>
      </trkpt>
      <trkpt lat="36.81895748712122440338134765625" lon="-118.44188514165580272674560546875">
        <ele>3819.60009765625</ele>
        <time>2021-06-26T18:42:18.000Z</time>
        <extensions>
          <ns3:TrackPointExtension>
            <ns3:atemp>32.0</ns3:atemp>
            <ns3:hr>85</ns3:hr>
          </ns3:TrackPointExtension>
        </extensions>
      </trkpt>
      <trkpt lat="36.81895748712122440338134765625" lon="-118.4418840520083904266357421875">
        <ele>3820</ele>
        <time>2021-06-26T18:42:19.000Z</time>
        <extensions>
          <ns3:TrackPointExtension>
            <ns3:atemp>32.0</ns3:atemp>
            <ns3:hr>85</ns3:hr>
          </ns3:TrackPointExtension>
        </extensions>
      </trkpt>
      <trkpt lat="36.81895748712122440338134765625" lon="-118.44186150468885898590087890625">
        <ele>3821.199951171875</ele>
        <time>2021-06-26T18:42:25.000Z</time>
        <extensions>
          <ns3:TrackPointExtension>
            <ns3:atemp>32.0</ns3:atemp>
            <ns3:hr>83</ns3:hr>
          </ns3:TrackPointExtension>
        </extensions>
      </trkpt>
      <trkpt lat="36.818957738578319549560546875" lon="-118.4418599121272563934326171875">
        <ele>3821.39990234375</ele>
        <time>2021-06-26T18:42:27.000Z</time>
        <extensions>
          <ns3:TrackPointExtension>
            <ns3:atemp>32.0</ns3:atemp>
            <ns3:hr>80</ns3:hr>
          </ns3:TrackPointExtension>
        </extensions>
      </trkpt>
      <trkpt lat="36.81896134279668331146240234375" lon="-118.44185530208051204681396484375">
        <ele>3821.800048828125</ele>
        <time>2021-06-26T18:42:32.000Z</time>
        <extensions>
          <ns3:TrackPointExtension>
            <ns3:atemp>32.0</ns3:atemp>
            <ns3:hr>83</ns3:hr>
          </ns3:TrackPointExtension>
        </extensions>
      </trkpt>
      <trkpt lat="36.81896486319601535797119140625" lon="-118.44185446389019489288330078125">
        <ele>3822.199951171875</ele>
        <time>2021-06-26T18:42:34.000Z</time>
        <extensions>
          <ns3:TrackPointExtension>
            <ns3:atemp>32.0</ns3:atemp>
            <ns3:hr>83</ns3:hr>
          </ns3:TrackPointExtension>
        </extensions>
      </trkpt>
      <trkpt lat="36.81897492147982120513916015625" lon="-118.441851027309894561767578125">
        <ele>3823</ele>
        <time>2021-06-26T18:42:39.000Z</time>
        <extensions>
          <ns3:TrackPointExtension>
            <ns3:atemp>32.0</ns3:atemp>
            <ns3:hr>86</ns3:hr>
          </ns3:TrackPointExtension>
        </extensions>
      </trkpt>
      <trkpt lat="36.8189817108213901519775390625" lon="-118.44184943474829196929931640625">
        <ele>3823</ele>
        <time>2021-06-26T18:42:44.000Z</time>
        <extensions>
          <ns3:TrackPointExtension>
            <ns3:atemp>32.0</ns3:atemp>
            <ns3:hr>89</ns3:hr>
          </ns3:TrackPointExtension>
        </extensions>
      </trkpt>
      <trkpt lat="36.81898280046880245208740234375" lon="-118.4418426454067230224609375">
        <ele>3823.199951171875</ele>
        <time>2021-06-26T18:42:46.000Z</time>
        <extensions>
          <ns3:TrackPointExtension>
            <ns3:atemp>32.0</ns3:atemp>
            <ns3:hr>90</ns3:hr>
          </ns3:TrackPointExtension>
        </extensions>
      </trkpt>
      <trkpt lat="36.8189840577542781829833984375" lon="-118.4418426454067230224609375">
        <ele>3823.39990234375</ele>
        <time>2021-06-26T18:42:47.000Z</time>
        <extensions>
          <ns3:TrackPointExtension>
            <ns3:atemp>32.0</ns3:atemp>
            <ns3:hr>90</ns3:hr>
          </ns3:TrackPointExtension>
        </extensions>
      </trkpt>
      <trkpt lat="36.81899369694292545318603515625" lon="-118.44184708781540393829345703125">
        <ele>3823.800048828125</ele>
        <time>2021-06-26T18:43:05.000Z</time>
        <extensions>
          <ns3:TrackPointExtension>
            <ns3:atemp>32.0</ns3:atemp>
            <ns3:hr>93</ns3:hr>
          </ns3:TrackPointExtension>
        </extensions>
      </trkpt>
      <trkpt lat="36.81899788789451122283935546875" lon="-118.44184893183410167694091796875">
        <ele>3823.800048828125</ele>
        <time>2021-06-26T18:43:08.000Z</time>
        <extensions>
          <ns3:TrackPointExtension>
            <ns3:atemp>32.0</ns3:atemp>
            <ns3:hr>97</ns3:hr>
          </ns3:TrackPointExtension>
        </extensions>
      </trkpt>
      <trkpt lat="36.818993948400020599365234375" lon="-118.44184893183410167694091796875">
        <ele>3823.60009765625</ele>
        <time>2021-06-26T18:43:10.000Z</time>
        <extensions>
          <ns3:TrackPointExtension>
            <ns3:atemp>32.0</ns3:atemp>
            <ns3:hr>102</ns3:hr>
          </ns3:TrackPointExtension>
        </extensions>
      </trkpt>
      <trkpt lat="36.81899369694292545318603515625" lon="-118.44184893183410167694091796875">
        <ele>3823</ele>
        <time>2021-06-26T18:43:11.000Z</time>
        <extensions>
          <ns3:TrackPointExtension>
            <ns3:atemp>32.0</ns3:atemp>
            <ns3:hr>105</ns3:hr>
          </ns3:TrackPointExtension>
        </extensions>
      </trkpt>
      <trkpt lat="36.81899369694292545318603515625" lon="-118.44184868037700653076171875">
        <ele>3823</ele>
        <time>2021-06-26T18:43:13.000Z</time>
        <extensions>
          <ns3:TrackPointExtension>
            <ns3:atemp>32.0</ns3:atemp>
            <ns3:hr>108</ns3:hr>
          </ns3:TrackPointExtension>
        </extensions>
      </trkpt>
      <trkpt lat="36.81899369694292545318603515625" lon="-118.44184868037700653076171875">
        <ele>3823</ele>
        <time>2021-06-26T18:43:16.000Z</time>
        <extensions>
          <ns3:TrackPointExtension>
            <ns3:atemp>32.0</ns3:atemp>
            <ns3:hr>111</ns3:hr>
          </ns3:TrackPointExtension>
        </extensions>
      </trkpt>
      <trkpt lat="36.81898917071521282196044921875" lon="-118.4418461658060550689697265625">
        <ele>3823.199951171875</ele>
        <time>2021-06-26T18:43:26.000Z</time>
        <extensions>
          <ns3:TrackPointExtension>
            <ns3:atemp>32.0</ns3:atemp>
            <ns3:hr>111</ns3:hr>
          </ns3:TrackPointExtension>
        </extensions>
      </trkpt>
      <trkpt lat="36.81898900307714939117431640625" lon="-118.44183862209320068359375">
        <ele>3823.39990234375</ele>
        <time>2021-06-26T18:43:31.000Z</time>
        <extensions>
          <ns3:TrackPointExtension>
            <ns3:atemp>32.0</ns3:atemp>
            <ns3:hr>107</ns3:hr>
          </ns3:TrackPointExtension>
        </extensions>
      </trkpt>
      <trkpt lat="36.81899000890552997589111328125" lon="-118.441832922399044036865234375">
        <ele>3822.800048828125</ele>
        <time>2021-06-26T18:43:42.000Z</time>
        <extensions>
          <ns3:TrackPointExtension>
            <ns3:atemp>32.0</ns3:atemp>
            <ns3:hr>111</ns3:hr>
          </ns3:TrackPointExtension>
        </extensions>
      </trkpt>
      <trkpt lat="36.81899017654359340667724609375" lon="-118.44183200038969516754150390625">
        <ele>3823</ele>
        <time>2021-06-26T18:43:44.000Z</time>
        <extensions>
          <ns3:TrackPointExtension>
            <ns3:atemp>32.0</ns3:atemp>
            <ns3:hr>115</ns3:hr>
          </ns3:TrackPointExtension>
        </extensions>
      </trkpt>
      <trkpt lat="36.8189902603626251220703125" lon="-118.4418319165706634521484375">
        <ele>3823</ele>
        <time>2021-06-26T18:43:46.000Z</time>
        <extensions>
          <ns3:TrackPointExtension>
            <ns3:atemp>32.0</ns3:atemp>
            <ns3:hr>118</ns3:hr>
          </ns3:TrackPointExtension>
        </extensions>
      </trkpt>
      <trkpt lat="36.818991266191005706787109375" lon="-118.4418314136564731597900390625">
        <ele>3824.199951171875</ele>
        <time>2021-06-26T18:44:00.000Z</time>
        <extensions>
          <ns3:TrackPointExtension>
            <ns3:atemp>33.0</ns3:atemp>
            <ns3:hr>115</ns3:hr>
          </ns3:TrackPointExtension>
        </extensions>
      </trkpt>
      <trkpt lat="36.81899135001003742218017578125" lon="-118.4418317489326000213623046875">
        <ele>3824.39990234375</ele>
        <time>2021-06-26T18:44:01.000Z</time>
        <extensions>
          <ns3:TrackPointExtension>
            <ns3:atemp>33.0</ns3:atemp>
            <ns3:hr>117</ns3:hr>
          </ns3:TrackPointExtension>
        </extensions>
      </trkpt>
      <trkpt lat="36.8189924396574497222900390625" lon="-118.44183862209320068359375">
        <ele>3824.199951171875</ele>
        <time>2021-06-26T18:44:10.000Z</time>
        <extensions>
          <ns3:TrackPointExtension>
            <ns3:atemp>33.0</ns3:atemp>
            <ns3:hr>120</ns3:hr>
          </ns3:TrackPointExtension>
        </extensions>
      </trkpt>
      <trkpt lat="36.81899403221905231475830078125" lon="-118.44184122048318386077880859375">
        <ele>3824.199951171875</ele>
        <time>2021-06-26T18:44:12.000Z</time>
        <extensions>
          <ns3:TrackPointExtension>
            <ns3:atemp>33.0</ns3:atemp>
            <ns3:hr>123</ns3:hr>
          </ns3:TrackPointExtension>
        </extensions>
      </trkpt>
      <trkpt lat="36.81899587623775005340576171875" lon="-118.44184172339737415313720703125">
        <ele>3823.800048828125</ele>
        <time>2021-06-26T18:44:35.000Z</time>
        <extensions>
          <ns3:TrackPointExtension>
            <ns3:atemp>33.0</ns3:atemp>
            <ns3:hr>119</ns3:hr>
          </ns3:TrackPointExtension>
        </extensions>
      </trkpt>
      <trkpt lat="36.818995289504528045654296875" lon="-118.441841639578342437744140625">
        <ele>3823.800048828125</ele>
        <time>2021-06-26T18:44:38.000Z</time>
        <extensions>
          <ns3:TrackPointExtension>
            <ns3:atemp>33.0</ns3:atemp>
            <ns3:hr>116</ns3:hr>
          </ns3:TrackPointExtension>
        </extensions>
      </trkpt>
      <trkpt lat="36.8189947865903377532958984375" lon="-118.44184122048318386077880859375">
        <ele>3823.60009765625</ele>
        <time>2021-06-26T18:44:41.000Z</time>
        <extensions>
          <ns3:TrackPointExtension>
            <ns3:atemp>33.0</ns3:atemp>
            <ns3:hr>113</ns3:hr>
          </ns3:TrackPointExtension>
        </extensions>
      </trkpt>
      <trkpt lat="36.818994618952274322509765625" lon="-118.4418411366641521453857421875">
        <ele>3823.60009765625</ele>
        <time>2021-06-26T18:44:43.000Z</time>
        <extensions>
          <ns3:TrackPointExtension>
            <ns3:atemp>33.0</ns3:atemp>
            <ns3:hr>110</ns3:hr>
          </ns3:TrackPointExtension>
        </extensions>
      </trkpt>
      <trkpt lat="36.8189941160380840301513671875" lon="-118.44184105284512042999267578125">
        <ele>3823.60009765625</ele>
        <time>2021-06-26T18:44:45.000Z</time>
        <extensions>
          <ns3:TrackPointExtension>
            <ns3:atemp>33.0</ns3:atemp>
            <ns3:hr>107</ns3:hr>
          </ns3:TrackPointExtension>
        </extensions>
      </trkpt>
      <trkpt lat="36.8189934454858303070068359375" lon="-118.44184105284512042999267578125">
        <ele>3823.800048828125</ele>
        <time>2021-06-26T18:44:47.000Z</time>
        <extensions>
          <ns3:TrackPointExtension>
            <ns3:atemp>33.0</ns3:atemp>
            <ns3:hr>104</ns3:hr>
          </ns3:TrackPointExtension>
        </extensions>
      </trkpt>
      <trkpt lat="36.81899285875260829925537109375" lon="-118.441840969026088714599609375">
        <ele>3823.800048828125</ele>
        <time>2021-06-26T18:44:50.000Z</time>
        <extensions>
          <ns3:TrackPointExtension>
            <ns3:atemp>33.0</ns3:atemp>
            <ns3:hr>102</ns3:hr>
          </ns3:TrackPointExtension>
        </extensions>
      </trkpt>
      <trkpt lat="36.818992607295513153076171875" lon="-118.4418387897312641143798828125">
        <ele>3823.39990234375</ele>
        <time>2021-06-26T18:44:55.000Z</time>
        <extensions>
          <ns3:TrackPointExtension>
            <ns3:atemp>33.0</ns3:atemp>
            <ns3:hr>100</ns3:hr>
          </ns3:TrackPointExtension>
        </extensions>
      </trkpt>
      <trkpt lat="36.818992607295513153076171875" lon="-118.44183719716966152191162109375">
        <ele>3823.39990234375</ele>
        <time>2021-06-26T18:44:58.000Z</time>
        <extensions>
          <ns3:TrackPointExtension>
            <ns3:atemp>33.0</ns3:atemp>
            <ns3:hr>96</ns3:hr>
          </ns3:TrackPointExtension>
        </extensions>
      </trkpt>
      <trkpt lat="36.8189934454858303070068359375" lon="-118.441834263503551483154296875">
        <ele>3824.60009765625</ele>
        <time>2021-06-26T18:45:11.000Z</time>
        <extensions>
          <ns3:TrackPointExtension>
            <ns3:atemp>33.0</ns3:atemp>
            <ns3:hr>95</ns3:hr>
          </ns3:TrackPointExtension>
        </extensions>
      </trkpt>
      <trkpt lat="36.818995960056781768798828125" lon="-118.4418347664177417755126953125">
        <ele>3826</ele>
        <time>2021-06-26T18:45:19.000Z</time>
        <extensions>
          <ns3:TrackPointExtension>
            <ns3:atemp>33.0</ns3:atemp>
            <ns3:hr>97</ns3:hr>
          </ns3:TrackPointExtension>
        </extensions>
      </trkpt>
      <trkpt lat="36.8190014921128749847412109375" lon="-118.44184323213994503021240234375">
        <ele>3826.199951171875</ele>
        <time>2021-06-26T18:45:25.000Z</time>
        <extensions>
          <ns3:TrackPointExtension>
            <ns3:atemp>33.0</ns3:atemp>
            <ns3:hr>100</ns3:hr>
          </ns3:TrackPointExtension>
        </extensions>
      </trkpt>
      <trkpt lat="36.819009371101856231689453125" lon="-118.4418575651943683624267578125">
        <ele>3827.199951171875</ele>
        <time>2021-06-26T18:45:29.000Z</time>
        <extensions>
          <ns3:TrackPointExtension>
            <ns3:atemp>33.0</ns3:atemp>
            <ns3:hr>99</ns3:hr>
          </ns3:TrackPointExtension>
        </extensions>
      </trkpt>
      <trkpt lat="36.819016076624393463134765625" lon="-118.4418686293065547943115234375">
        <ele>3827.199951171875</ele>
        <time>2021-06-26T18:45:39.000Z</time>
        <extensions>
          <ns3:TrackPointExtension>
            <ns3:atemp>33.0</ns3:atemp>
            <ns3:hr>99</ns3:hr>
          </ns3:TrackPointExtension>
        </extensions>
      </trkpt>
      <trkpt lat="36.81901616044342517852783203125" lon="-118.44187357462942600250244140625">
        <ele>3826.800048828125</ele>
        <time>2021-06-26T18:45:46.000Z</time>
        <extensions>
          <ns3:TrackPointExtension>
            <ns3:atemp>33.0</ns3:atemp>
            <ns3:hr>102</ns3:hr>
          </ns3:TrackPointExtension>
        </extensions>
      </trkpt>
      <trkpt lat="36.81901632808148860931396484375" lon="-118.44187910668551921844482421875">
        <ele>3826.39990234375</ele>
        <time>2021-06-26T18:45:52.000Z</time>
        <extensions>
          <ns3:TrackPointExtension>
            <ns3:atemp>33.0</ns3:atemp>
            <ns3:hr>105</ns3:hr>
          </ns3:TrackPointExtension>
        </extensions>
      </trkpt>
      <trkpt lat="36.81901699863374233245849609375" lon="-118.44188095070421695709228515625">
        <ele>3826.39990234375</ele>
        <time>2021-06-26T18:45:58.000Z</time>
        <extensions>
          <ns3:TrackPointExtension>
            <ns3:atemp>33.0</ns3:atemp>
            <ns3:hr>108</ns3:hr>
          </ns3:TrackPointExtension>
        </extensions>
      </trkpt>
      <trkpt lat="36.81901699863374233245849609375" lon="-118.44188153743743896484375">
        <ele>3826.199951171875</ele>
        <time>2021-06-26T18:46:01.000Z</time>
        <extensions>
          <ns3:TrackPointExtension>
            <ns3:atemp>33.0</ns3:atemp>
            <ns3:hr>110</ns3:hr>
          </ns3:TrackPointExtension>
        </extensions>
      </trkpt>
      <trkpt lat="36.81901783682405948638916015625" lon="-118.44188153743743896484375">
        <ele>3826.199951171875</ele>
        <time>2021-06-26T18:46:06.000Z</time>
        <extensions>
          <ns3:TrackPointExtension>
            <ns3:atemp>33.0</ns3:atemp>
            <ns3:hr>107</ns3:hr>
          </ns3:TrackPointExtension>
        </extensions>
      </trkpt>
      <trkpt lat="36.81901800446212291717529296875" lon="-118.44188279472291469573974609375">
        <ele>3825.800048828125</ele>
        <time>2021-06-26T18:46:12.000Z</time>
        <extensions>
          <ns3:TrackPointExtension>
            <ns3:atemp>33.0</ns3:atemp>
            <ns3:hr>110</ns3:hr>
          </ns3:TrackPointExtension>
        </extensions>
      </trkpt>
      <trkpt lat="36.8190152384340763092041015625" lon="-118.44188614748418331146240234375">
        <ele>3825</ele>
        <time>2021-06-26T18:46:25.000Z</time>
        <extensions>
          <ns3:TrackPointExtension>
            <ns3:atemp>33.0</ns3:atemp>
            <ns3:hr>107</ns3:hr>
          </ns3:TrackPointExtension>
        </extensions>
      </trkpt>
      <trkpt lat="36.81899336166679859161376953125" lon="-118.44189838506281375885009765625">
        <ele>3825.60009765625</ele>
        <time>2021-06-26T18:47:01.000Z</time>
        <extensions>
          <ns3:TrackPointExtension>
            <ns3:atemp>32.0</ns3:atemp>
            <ns3:hr>104</ns3:hr>
          </ns3:TrackPointExtension>
        </extensions>
      </trkpt>
      <trkpt lat="36.81899361312389373779296875" lon="-118.4418971277773380279541015625">
        <ele>3826.199951171875</ele>
        <time>2021-06-26T18:47:04.000Z</time>
        <extensions>
          <ns3:TrackPointExtension>
            <ns3:atemp>32.0</ns3:atemp>
            <ns3:hr>103</ns3:hr>
          </ns3:TrackPointExtension>
        </extensions>
      </trkpt>
      <trkpt lat="36.8189937807619571685791015625" lon="-118.44189285300672054290771484375">
        <ele>3826.199951171875</ele>
        <time>2021-06-26T18:47:07.000Z</time>
        <extensions>
          <ns3:TrackPointExtension>
            <ns3:atemp>32.0</ns3:atemp>
            <ns3:hr>105</ns3:hr>
          </ns3:TrackPointExtension>
        </extensions>
      </trkpt>
      <trkpt lat="36.8189941160380840301513671875" lon="-118.44189235009253025054931640625">
        <ele>3826.199951171875</ele>
        <time>2021-06-26T18:47:09.000Z</time>
        <extensions>
          <ns3:TrackPointExtension>
            <ns3:atemp>32.0</ns3:atemp>
            <ns3:hr>108</ns3:hr>
          </ns3:TrackPointExtension>
        </extensions>
      </trkpt>
      <trkpt lat="36.8189951218664646148681640625" lon="-118.44189226627349853515625">
        <ele>3826.199951171875</ele>
        <time>2021-06-26T18:47:11.000Z</time>
        <extensions>
          <ns3:TrackPointExtension>
            <ns3:atemp>32.0</ns3:atemp>
            <ns3:hr>111</ns3:hr>
          </ns3:TrackPointExtension>
        </extensions>
      </trkpt>
      <trkpt lat="36.81901062838733196258544921875" lon="-118.44189050607383251190185546875">
        <ele>3826.39990234375</ele>
        <time>2021-06-26T18:47:21.000Z</time>
        <extensions>
          <ns3:TrackPointExtension>
            <ns3:atemp>32.0</ns3:atemp>
            <ns3:hr>114</ns3:hr>
          </ns3:TrackPointExtension>
        </extensions>
      </trkpt>
      <trkpt lat="36.81901616044342517852783203125" lon="-118.44188815914094448089599609375">
        <ele>3826</ele>
        <time>2021-06-26T18:47:31.000Z</time>
        <extensions>
          <ns3:TrackPointExtension>
            <ns3:atemp>32.0</ns3:atemp>
            <ns3:hr>117</ns3:hr>
          </ns3:TrackPointExtension>
        </extensions>
      </trkpt>
      <trkpt lat="36.81901599280536174774169921875" lon="-118.44190073199570178985595703125">
        <ele>3825.39990234375</ele>
        <time>2021-06-26T18:47:50.000Z</time>
        <extensions>
          <ns3:TrackPointExtension>
            <ns3:atemp>33.0</ns3:atemp>
            <ns3:hr>114</ns3:hr>
          </ns3:TrackPointExtension>
        </extensions>
      </trkpt>
      <trkpt lat="36.8190152384340763092041015625" lon="-118.441905342042446136474609375">
        <ele>3825.199951171875</ele>
        <time>2021-06-26T18:47:53.000Z</time>
        <extensions>
          <ns3:TrackPointExtension>
            <ns3:atemp>33.0</ns3:atemp>
            <ns3:hr>113</ns3:hr>
          </ns3:TrackPointExtension>
        </extensions>
      </trkpt>
      <trkpt lat="36.8190117180347442626953125" lon="-118.441911041736602783203125">
        <ele>3824.39990234375</ele>
        <time>2021-06-26T18:47:58.000Z</time>
        <extensions>
          <ns3:TrackPointExtension>
            <ns3:atemp>33.0</ns3:atemp>
            <ns3:hr>110</ns3:hr>
          </ns3:TrackPointExtension>
        </extensions>
      </trkpt>
      <trkpt lat="36.81900979019701480865478515625" lon="-118.44191372394561767578125">
        <ele>3825.199951171875</ele>
        <time>2021-06-26T18:48:01.000Z</time>
        <extensions>
          <ns3:TrackPointExtension>
            <ns3:atemp>33.0</ns3:atemp>
            <ns3:hr>107</ns3:hr>
          </ns3:TrackPointExtension>
        </extensions>
      </trkpt>
      <trkpt lat="36.8190088681876659393310546875" lon="-118.4419148974120616912841796875">
        <ele>3825.199951171875</ele>
        <time>2021-06-26T18:48:03.000Z</time>
        <extensions>
          <ns3:TrackPointExtension>
            <ns3:atemp>33.0</ns3:atemp>
            <ns3:hr>104</ns3:hr>
          </ns3:TrackPointExtension>
        </extensions>
      </trkpt>
      <trkpt lat="36.8190058507025241851806640625" lon="-118.44191632233560085296630859375">
        <ele>3825.39990234375</ele>
        <time>2021-06-26T18:48:08.000Z</time>
        <extensions>
          <ns3:TrackPointExtension>
            <ns3:atemp>33.0</ns3:atemp>
            <ns3:hr>101</ns3:hr>
          </ns3:TrackPointExtension>
        </extensions>
      </trkpt>
      <trkpt lat="36.8190014921128749847412109375" lon="-118.441917411983013153076171875">
        <ele>3825.199951171875</ele>
        <time>2021-06-26T18:48:12.000Z</time>
        <extensions>
          <ns3:TrackPointExtension>
            <ns3:atemp>33.0</ns3:atemp>
            <ns3:hr>98</ns3:hr>
          </ns3:TrackPointExtension>
        </extensions>
      </trkpt>
      <trkpt lat="36.81899604387581348419189453125" lon="-118.44192017801105976104736328125">
        <ele>3826.199951171875</ele>
        <time>2021-06-26T18:48:20.000Z</time>
        <extensions>
          <ns3:TrackPointExtension>
            <ns3:atemp>33.0</ns3:atemp>
            <ns3:hr>97</ns3:hr>
          </ns3:TrackPointExtension>
        </extensions>
      </trkpt>
      <trkpt lat="36.818994618952274322509765625" lon="-118.44192151911556720733642578125">
        <ele>3827</ele>
        <time>2021-06-26T18:48:23.000Z</time>
        <extensions>
          <ns3:TrackPointExtension>
            <ns3:atemp>33.0</ns3:atemp>
            <ns3:hr>100</ns3:hr>
          </ns3:TrackPointExtension>
        </extensions>
      </trkpt>
      <trkpt lat="36.8189941160380840301513671875" lon="-118.4419219382107257843017578125">
        <ele>3827.199951171875</ele>
        <time>2021-06-26T18:48:24.000Z</time>
        <extensions>
          <ns3:TrackPointExtension>
            <ns3:atemp>33.0</ns3:atemp>
            <ns3:hr>101</ns3:hr>
          </ns3:TrackPointExtension>
        </extensions>
      </trkpt>
      <trkpt lat="36.81899336166679859161376953125" lon="-118.44192286022007465362548828125">
        <ele>3827.199951171875</ele>
        <time>2021-06-26T18:48:26.000Z</time>
        <extensions>
          <ns3:TrackPointExtension>
            <ns3:atemp>33.0</ns3:atemp>
            <ns3:hr>105</ns3:hr>
          </ns3:TrackPointExtension>
        </extensions>
      </trkpt>
      <trkpt lat="36.81899269111454486846923828125" lon="-118.44192436896264553070068359375">
        <ele>3827.60009765625</ele>
        <time>2021-06-26T18:48:28.000Z</time>
        <extensions>
          <ns3:TrackPointExtension>
            <ns3:atemp>33.0</ns3:atemp>
            <ns3:hr>108</ns3:hr>
          </ns3:TrackPointExtension>
        </extensions>
      </trkpt>
      <trkpt lat="36.81899227201938629150390625" lon="-118.441926129162311553955078125">
        <ele>3827.60009765625</ele>
        <time>2021-06-26T18:48:30.000Z</time>
        <extensions>
          <ns3:TrackPointExtension>
            <ns3:atemp>33.0</ns3:atemp>
            <ns3:hr>111</ns3:hr>
          </ns3:TrackPointExtension>
        </extensions>
      </trkpt>
      <trkpt lat="36.8189907632768154144287109375" lon="-118.4419387020170688629150390625">
        <ele>3827.800048828125</ele>
        <time>2021-06-26T18:48:41.000Z</time>
        <extensions>
          <ns3:TrackPointExtension>
            <ns3:atemp>33.0</ns3:atemp>
            <ns3:hr>110</ns3:hr>
          </ns3:TrackPointExtension>
        </extensions>
      </trkpt>
      <trkpt lat="36.818982549011707305908203125" lon="-118.44193275086581707000732421875">
        <ele>3828</ele>
        <time>2021-06-26T19:08:20.000Z</time>
        <extensions>
          <ns3:TrackPointExtension>
            <ns3:atemp>33.0</ns3:atemp>
            <ns3:hr>97</ns3:hr>
          </ns3:TrackPointExtension>
        </extensions>
      </trkpt>
      <trkpt lat="36.81899386458098888397216796875" lon="-118.4419346787035465240478515625">
        <ele>3828</ele>
        <time>2021-06-26T19:08:24.000Z</time>
        <extensions>
          <ns3:TrackPointExtension>
            <ns3:atemp>33.0</ns3:atemp>
            <ns3:hr>95</ns3:hr>
          </ns3:TrackPointExtension>
        </extensions>
      </trkpt>
      <trkpt lat="36.81899637915194034576416015625" lon="-118.44193073920905590057373046875">
        <ele>3828</ele>
        <time>2021-06-26T19:08:29.000Z</time>
        <extensions>
          <ns3:TrackPointExtension>
            <ns3:atemp>33.0</ns3:atemp>
            <ns3:hr>97</ns3:hr>
          </ns3:TrackPointExtension>
        </extensions>
      </trkpt>
      <trkpt lat="36.81899822317063808441162109375" lon="-118.441927470266819000244140625">
        <ele>3828</ele>
        <time>2021-06-26T19:08:30.000Z</time>
        <extensions>
          <ns3:TrackPointExtension>
            <ns3:atemp>33.0</ns3:atemp>
            <ns3:hr>100</ns3:hr>
          </ns3:TrackPointExtension>
        </extensions>
      </trkpt>
      <trkpt lat="36.8189981393516063690185546875" lon="-118.44193057157099246978759765625">
        <ele>3827.800048828125</ele>
        <time>2021-06-26T19:08:42.000Z</time>
        <extensions>
          <ns3:TrackPointExtension>
            <ns3:atemp>33.0</ns3:atemp>
            <ns3:hr>97</ns3:hr>
          </ns3:TrackPointExtension>
        </extensions>
      </trkpt>
      <trkpt lat="36.8189981393516063690185546875" lon="-118.44193057157099246978759765625">
        <ele>3827.39990234375</ele>
        <time>2021-06-26T19:08:44.000Z</time>
        <extensions>
          <ns3:TrackPointExtension>
            <ns3:atemp>33.0</ns3:atemp>
            <ns3:hr>95</ns3:hr>
          </ns3:TrackPointExtension>
        </extensions>
      </trkpt>
      <trkpt lat="36.8189981393516063690185546875" lon="-118.4419284760951995849609375">
        <ele>3826.800048828125</ele>
        <time>2021-06-26T19:08:50.000Z</time>
        <extensions>
          <ns3:TrackPointExtension>
            <ns3:atemp>33.0</ns3:atemp>
            <ns3:hr>92</ns3:hr>
          </ns3:TrackPointExtension>
        </extensions>
      </trkpt>
      <trkpt lat="36.8190031684935092926025390625" lon="-118.4419105388224124908447265625">
        <ele>3826.800048828125</ele>
        <time>2021-06-26T19:09:08.000Z</time>
        <extensions>
          <ns3:TrackPointExtension>
            <ns3:atemp>33.0</ns3:atemp>
            <ns3:hr>89</ns3:hr>
          </ns3:TrackPointExtension>
        </extensions>
      </trkpt>
      <trkpt lat="36.8190028332173824310302734375" lon="-118.44187893904745578765869140625">
        <ele>3827</ele>
        <time>2021-06-26T19:09:22.000Z</time>
        <extensions>
          <ns3:TrackPointExtension>
            <ns3:atemp>33.0</ns3:atemp>
            <ns3:hr>85</ns3:hr>
          </ns3:TrackPointExtension>
        </extensions>
      </trkpt>
      <trkpt lat="36.8190028332173824310302734375" lon="-118.44187793321907520294189453125">
        <ele>3826.39990234375</ele>
        <time>2021-06-26T19:09:25.000Z</time>
        <extensions>
          <ns3:TrackPointExtension>
            <ns3:atemp>33.0</ns3:atemp>
            <ns3:hr>88</ns3:hr>
          </ns3:TrackPointExtension>
        </extensions>
      </trkpt>
      <trkpt lat="36.8190041743218898773193359375" lon="-118.44187080860137939453125">
        <ele>3826.199951171875</ele>
        <time>2021-06-26T19:09:32.000Z</time>
        <extensions>
          <ns3:TrackPointExtension>
            <ns3:atemp>33.0</ns3:atemp>
            <ns3:hr>85</ns3:hr>
          </ns3:TrackPointExtension>
        </extensions>
      </trkpt>
      <trkpt lat="36.8190048448741436004638671875" lon="-118.44187055714428424835205078125">
        <ele>3826</ele>
        <time>2021-06-26T19:09:33.000Z</time>
        <extensions>
          <ns3:TrackPointExtension>
            <ns3:atemp>33.0</ns3:atemp>
            <ns3:hr>85</ns3:hr>
          </ns3:TrackPointExtension>
        </extensions>
      </trkpt>
      <trkpt lat="36.8190051801502704620361328125" lon="-118.44186904840171337127685546875">
        <ele>3825</ele>
        <time>2021-06-26T19:09:38.000Z</time>
        <extensions>
          <ns3:TrackPointExtension>
            <ns3:atemp>33.0</ns3:atemp>
            <ns3:hr>85</ns3:hr>
          </ns3:TrackPointExtension>
        </extensions>
      </trkpt>
      <trkpt lat="36.8190011568367481231689453125" lon="-118.4418542124330997467041015625">
        <ele>3824.199951171875</ele>
        <time>2021-06-26T19:09:51.000Z</time>
        <extensions>
          <ns3:TrackPointExtension>
            <ns3:atemp>33.0</ns3:atemp>
            <ns3:hr>88</ns3:hr>
          </ns3:TrackPointExtension>
        </extensions>
      </trkpt>
      <trkpt lat="36.81899386458098888397216796875" lon="-118.4418434835970401763916015625">
        <ele>3824.39990234375</ele>
        <time>2021-06-26T19:09:58.000Z</time>
        <extensions>
          <ns3:TrackPointExtension>
            <ns3:atemp>33.0</ns3:atemp>
            <ns3:hr>91</ns3:hr>
          </ns3:TrackPointExtension>
        </extensions>
      </trkpt>
      <trkpt lat="36.81898447684943675994873046875" lon="-118.4418434835970401763916015625">
        <ele>3823.60009765625</ele>
        <time>2021-06-26T19:10:06.000Z</time>
        <extensions>
          <ns3:TrackPointExtension>
            <ns3:atemp>33.0</ns3:atemp>
            <ns3:hr>92</ns3:hr>
          </ns3:TrackPointExtension>
        </extensions>
      </trkpt>
      <trkpt lat="36.8189810402691364288330078125" lon="-118.4418506920337677001953125">
        <ele>3823</ele>
        <time>2021-06-26T19:10:20.000Z</time>
        <extensions>
          <ns3:TrackPointExtension>
            <ns3:atemp>33.0</ns3:atemp>
            <ns3:hr>95</ns3:hr>
          </ns3:TrackPointExtension>
        </extensions>
      </trkpt>
      <trkpt lat="36.81898045353591442108154296875" lon="-118.44185178168118000030517578125">
        <ele>3823.199951171875</ele>
        <time>2021-06-26T19:10:23.000Z</time>
        <extensions>
          <ns3:TrackPointExtension>
            <ns3:atemp>33.0</ns3:atemp>
            <ns3:hr>98</ns3:hr>
          </ns3:TrackPointExtension>
        </extensions>
      </trkpt>
      <trkpt lat="36.8189786933362483978271484375" lon="-118.4418525360524654388427734375">
        <ele>3822.60009765625</ele>
        <time>2021-06-26T19:10:28.000Z</time>
        <extensions>
          <ns3:TrackPointExtension>
            <ns3:atemp>33.0</ns3:atemp>
            <ns3:hr>101</ns3:hr>
          </ns3:TrackPointExtension>
        </extensions>
      </trkpt>
      <trkpt lat="36.81897810660302639007568359375" lon="-118.44185261987149715423583984375">
        <ele>3822.199951171875</ele>
        <time>2021-06-26T19:10:29.000Z</time>
        <extensions>
          <ns3:TrackPointExtension>
            <ns3:atemp>33.0</ns3:atemp>
            <ns3:hr>101</ns3:hr>
          </ns3:TrackPointExtension>
        </extensions>
      </trkpt>
      <trkpt lat="36.8189766816794872283935546875" lon="-118.4418506920337677001953125">
        <ele>3822.199951171875</ele>
        <time>2021-06-26T19:10:38.000Z</time>
        <extensions>
          <ns3:TrackPointExtension>
            <ns3:atemp>33.0</ns3:atemp>
            <ns3:hr>98</ns3:hr>
          </ns3:TrackPointExtension>
        </extensions>
      </trkpt>
      <trkpt lat="36.81898280046880245208740234375" lon="-118.44182965345680713653564453125">
        <ele>3821.199951171875</ele>
        <time>2021-06-26T19:10:50.000Z</time>
        <extensions>
          <ns3:TrackPointExtension>
            <ns3:atemp>33.0</ns3:atemp>
            <ns3:hr>96</ns3:hr>
          </ns3:TrackPointExtension>
        </extensions>
      </trkpt>
      <trkpt lat="36.8189840577542781829833984375" lon="-118.441824875771999359130859375">
        <ele>3821.39990234375</ele>
        <time>2021-06-26T19:10:59.000Z</time>
        <extensions>
          <ns3:TrackPointExtension>
            <ns3:atemp>33.0</ns3:atemp>
            <ns3:hr>99</ns3:hr>
          </ns3:TrackPointExtension>
        </extensions>
      </trkpt>
      <trkpt lat="36.8189840577542781829833984375" lon="-118.4418247081339359283447265625">
        <ele>3821.39990234375</ele>
        <time>2021-06-26T19:11:03.000Z</time>
        <extensions>
          <ns3:TrackPointExtension>
            <ns3:atemp>33.0</ns3:atemp>
            <ns3:hr>102</ns3:hr>
          </ns3:TrackPointExtension>
        </extensions>
      </trkpt>
      <trkpt lat="36.818983554840087890625" lon="-118.44182479195296764373779296875">
        <ele>3821.60009765625</ele>
        <time>2021-06-26T19:11:07.000Z</time>
        <extensions>
          <ns3:TrackPointExtension>
            <ns3:atemp>33.0</ns3:atemp>
            <ns3:hr>99</ns3:hr>
          </ns3:TrackPointExtension>
        </extensions>
      </trkpt>
      <trkpt lat="36.818983219563961029052734375" lon="-118.441824875771999359130859375">
        <ele>3821.60009765625</ele>
        <time>2021-06-26T19:11:08.000Z</time>
        <extensions>
          <ns3:TrackPointExtension>
            <ns3:atemp>33.0</ns3:atemp>
            <ns3:hr>100</ns3:hr>
          </ns3:TrackPointExtension>
        </extensions>
      </trkpt>
      <trkpt lat="36.818980872631072998046875" lon="-118.4418270550668239593505859375">
        <ele>3820.60009765625</ele>
        <time>2021-06-26T19:11:22.000Z</time>
        <extensions>
          <ns3:TrackPointExtension>
            <ns3:atemp>34.0</ns3:atemp>
            <ns3:hr>97</ns3:hr>
          </ns3:TrackPointExtension>
        </extensions>
      </trkpt>
      <trkpt lat="36.81898045353591442108154296875" lon="-118.4418277256190776824951171875">
        <ele>3820.60009765625</ele>
        <time>2021-06-26T19:11:29.000Z</time>
        <extensions>
          <ns3:TrackPointExtension>
            <ns3:atemp>34.0</ns3:atemp>
            <ns3:hr>100</ns3:hr>
          </ns3:TrackPointExtension>
        </extensions>
      </trkpt>
      <trkpt lat="36.818980537354946136474609375" lon="-118.441828228533267974853515625">
        <ele>3820.60009765625</ele>
        <time>2021-06-26T19:11:32.000Z</time>
        <extensions>
          <ns3:TrackPointExtension>
            <ns3:atemp>34.0</ns3:atemp>
            <ns3:hr>103</ns3:hr>
          </ns3:TrackPointExtension>
        </extensions>
      </trkpt>
      <trkpt lat="36.81898062117397785186767578125" lon="-118.44182881526648998260498046875">
        <ele>3820.39990234375</ele>
        <time>2021-06-26T19:11:37.000Z</time>
        <extensions>
          <ns3:TrackPointExtension>
            <ns3:atemp>34.0</ns3:atemp>
            <ns3:hr>106</ns3:hr>
          </ns3:TrackPointExtension>
        </extensions>
      </trkpt>
      <trkpt lat="36.8189807049930095672607421875" lon="-118.4418297372758388519287109375">
        <ele>3820.39990234375</ele>
        <time>2021-06-26T19:11:43.000Z</time>
        <extensions>
          <ns3:TrackPointExtension>
            <ns3:atemp>34.0</ns3:atemp>
            <ns3:hr>103</ns3:hr>
          </ns3:TrackPointExtension>
        </extensions>
      </trkpt>
      <trkpt lat="36.81898145936429500579833984375" lon="-118.441830910742282867431640625">
        <ele>3820.199951171875</ele>
        <time>2021-06-26T19:11:53.000Z</time>
        <extensions>
          <ns3:TrackPointExtension>
            <ns3:atemp>34.0</ns3:atemp>
            <ns3:hr>102</ns3:hr>
          </ns3:TrackPointExtension>
        </extensions>
      </trkpt>
      <trkpt lat="36.81898162700235843658447265625" lon="-118.44183099456131458282470703125">
        <ele>3820</ele>
        <time>2021-06-26T19:12:06.000Z</time>
        <extensions>
          <ns3:TrackPointExtension>
            <ns3:atemp>34.0</ns3:atemp>
            <ns3:hr>103</ns3:hr>
          </ns3:TrackPointExtension>
        </extensions>
      </trkpt>
      <trkpt lat="36.81898162700235843658447265625" lon="-118.4418310783803462982177734375">
        <ele>3819.800048828125</ele>
        <time>2021-06-26T19:12:14.000Z</time>
        <extensions>
          <ns3:TrackPointExtension>
            <ns3:atemp>34.0</ns3:atemp>
            <ns3:hr>106</ns3:hr>
          </ns3:TrackPointExtension>
        </extensions>
      </trkpt>
      <trkpt lat="36.8189817108213901519775390625" lon="-118.4418310783803462982177734375">
        <ele>3819.199951171875</ele>
        <time>2021-06-26T19:12:19.000Z</time>
        <extensions>
          <ns3:TrackPointExtension>
            <ns3:atemp>35.0</ns3:atemp>
            <ns3:hr>107</ns3:hr>
          </ns3:TrackPointExtension>
        </extensions>
      </trkpt>
      <trkpt lat="36.8189817108213901519775390625" lon="-118.44183116219937801361083984375">
        <ele>3819.39990234375</ele>
        <time>2021-06-26T19:12:26.000Z</time>
        <extensions>
          <ns3:TrackPointExtension>
            <ns3:atemp>35.0</ns3:atemp>
            <ns3:hr>104</ns3:hr>
          </ns3:TrackPointExtension>
        </extensions>
      </trkpt>
      <trkpt lat="36.81898196227848529815673828125" lon="-118.4418310783803462982177734375">
        <ele>3818.39990234375</ele>
        <time>2021-06-26T19:12:43.000Z</time>
        <extensions>
          <ns3:TrackPointExtension>
            <ns3:atemp>35.0</ns3:atemp>
            <ns3:hr>100</ns3:hr>
          </ns3:TrackPointExtension>
        </extensions>
      </trkpt>
      <trkpt lat="36.8189820460975170135498046875" lon="-118.4418310783803462982177734375">
        <ele>3818.39990234375</ele>
        <time>2021-06-26T19:12:50.000Z</time>
        <extensions>
          <ns3:TrackPointExtension>
            <ns3:atemp>35.0</ns3:atemp>
            <ns3:hr>97</ns3:hr>
          </ns3:TrackPointExtension>
        </extensions>
      </trkpt>
      <trkpt lat="36.8189820460975170135498046875" lon="-118.4418310783803462982177734375">
        <ele>3817.800048828125</ele>
        <time>2021-06-26T19:12:53.000Z</time>
        <extensions>
          <ns3:TrackPointExtension>
            <ns3:atemp>35.0</ns3:atemp>
            <ns3:hr>100</ns3:hr>
          </ns3:TrackPointExtension>
        </extensions>
      </trkpt>
      <trkpt lat="36.81898212991654872894287109375" lon="-118.44183099456131458282470703125">
        <ele>3817.39990234375</ele>
        <time>2021-06-26T19:12:57.000Z</time>
        <extensions>
          <ns3:TrackPointExtension>
            <ns3:atemp>35.0</ns3:atemp>
            <ns3:hr>103</ns3:hr>
          </ns3:TrackPointExtension>
        </extensions>
      </trkpt>
      <trkpt lat="36.81898212991654872894287109375" lon="-118.44183099456131458282470703125">
        <ele>3817.199951171875</ele>
        <time>2021-06-26T19:13:00.000Z</time>
        <extensions>
          <ns3:TrackPointExtension>
            <ns3:atemp>35.0</ns3:atemp>
            <ns3:hr>106</ns3:hr>
          </ns3:TrackPointExtension>
        </extensions>
      </trkpt>
      <trkpt lat="36.8189820460975170135498046875" lon="-118.4418307431042194366455078125">
        <ele>3817.199951171875</ele>
        <time>2021-06-26T19:13:14.000Z</time>
        <extensions>
          <ns3:TrackPointExtension>
            <ns3:atemp>35.0</ns3:atemp>
            <ns3:hr>109</ns3:hr>
          </ns3:TrackPointExtension>
        </extensions>
      </trkpt>
      <trkpt lat="36.818981878459453582763671875" lon="-118.44183049164712429046630859375">
        <ele>3817.199951171875</ele>
        <time>2021-06-26T19:13:20.000Z</time>
        <extensions>
          <ns3:TrackPointExtension>
            <ns3:atemp>34.0</ns3:atemp>
            <ns3:hr>112</ns3:hr>
          </ns3:TrackPointExtension>
        </extensions>
      </trkpt>
      <trkpt lat="36.81898129172623157501220703125" lon="-118.44182998873293399810791015625">
        <ele>3818</ele>
        <time>2021-06-26T19:13:35.000Z</time>
        <extensions>
          <ns3:TrackPointExtension>
            <ns3:atemp>34.0</ns3:atemp>
            <ns3:hr>109</ns3:hr>
          </ns3:TrackPointExtension>
        </extensions>
      </trkpt>
      <trkpt lat="36.81898112408816814422607421875" lon="-118.44182990491390228271484375">
        <ele>3818.199951171875</ele>
        <time>2021-06-26T19:13:40.000Z</time>
        <extensions>
          <ns3:TrackPointExtension>
            <ns3:atemp>34.0</ns3:atemp>
            <ns3:hr>106</ns3:hr>
          </ns3:TrackPointExtension>
        </extensions>
      </trkpt>
      <trkpt lat="36.818980872631072998046875" lon="-118.44182982109487056732177734375">
        <ele>3818.199951171875</ele>
        <time>2021-06-26T19:13:45.000Z</time>
        <extensions>
          <ns3:TrackPointExtension>
            <ns3:atemp>34.0</ns3:atemp>
            <ns3:hr>104</ns3:hr>
          </ns3:TrackPointExtension>
        </extensions>
      </trkpt>
      <trkpt lat="36.81898062117397785186767578125" lon="-118.44182965345680713653564453125">
        <ele>3818.39990234375</ele>
        <time>2021-06-26T19:13:50.000Z</time>
        <extensions>
          <ns3:TrackPointExtension>
            <ns3:atemp>34.0</ns3:atemp>
            <ns3:hr>105</ns3:hr>
          </ns3:TrackPointExtension>
        </extensions>
      </trkpt>
      <trkpt lat="36.81787773035466670989990234375" lon="-118.44140117056667804718017578125">
        <ele>3786</ele>
        <time>2021-06-26T19:48:50.000Z</time>
        <extensions>
          <ns3:TrackPointExtension>
            <ns3:atemp>31.0</ns3:atemp>
            <ns3:hr>110</ns3:hr>
          </ns3:TrackPointExtension>
        </extensions>
      </trkpt>
      <trkpt lat="36.8178769759833812713623046875" lon="-118.4414009191095829010009765625">
        <ele>3786</ele>
        <time>2021-06-26T19:48:51.000Z</time>
        <extensions>
          <ns3:TrackPointExtension>
            <ns3:atemp>31.0</ns3:atemp>
            <ns3:hr>110</ns3:hr>
          </ns3:TrackPointExtension>
        </extensions>
      </trkpt>
      <trkpt lat="36.81787379086017608642578125" lon="-118.4413920342922210693359375">
        <ele>3785.39990234375</ele>
        <time>2021-06-26T19:49:00.000Z</time>
        <extensions>
          <ns3:TrackPointExtension>
            <ns3:atemp>32.0</ns3:atemp>
            <ns3:hr>107</ns3:hr>
          </ns3:TrackPointExtension>
        </extensions>
      </trkpt>
      <trkpt lat="36.8178717792034149169921875" lon="-118.44139010645449161529541015625">
        <ele>3785.60009765625</ele>
        <time>2021-06-26T19:49:06.000Z</time>
        <extensions>
          <ns3:TrackPointExtension>
            <ns3:atemp>32.0</ns3:atemp>
            <ns3:hr>103</ns3:hr>
          </ns3:TrackPointExtension>
        </extensions>
      </trkpt>
      <trkpt lat="36.8178957514464855194091796875" lon="-118.44139865599572658538818359375">
        <ele>3785.60009765625</ele>
        <time>2021-06-26T19:49:48.000Z</time>
        <extensions>
          <ns3:TrackPointExtension>
            <ns3:atemp>32.0</ns3:atemp>
            <ns3:hr>100</ns3:hr>
          </ns3:TrackPointExtension>
        </extensions>
      </trkpt>
      <trkpt lat="36.81789114139974117279052734375" lon="-118.44136881642043590545654296875">
        <ele>3786.199951171875</ele>
        <time>2021-06-26T19:49:57.000Z</time>
        <extensions>
          <ns3:TrackPointExtension>
            <ns3:atemp>32.0</ns3:atemp>
            <ns3:hr>97</ns3:hr>
          </ns3:TrackPointExtension>
        </extensions>
      </trkpt>
      <trkpt lat="36.81788812391459941864013671875" lon="-118.4413603506982326507568359375">
        <ele>3786.39990234375</ele>
        <time>2021-06-26T19:49:59.000Z</time>
        <extensions>
          <ns3:TrackPointExtension>
            <ns3:atemp>32.0</ns3:atemp>
            <ns3:hr>100</ns3:hr>
          </ns3:TrackPointExtension>
        </extensions>
      </trkpt>
      <trkpt lat="36.8178779818117618560791015625" lon="-118.44134333543479442596435546875">
        <ele>3786.60009765625</ele>
        <time>2021-06-26T19:50:03.000Z</time>
        <extensions>
          <ns3:TrackPointExtension>
            <ns3:atemp>32.0</ns3:atemp>
            <ns3:hr>103</ns3:hr>
          </ns3:TrackPointExtension>
        </extensions>
      </trkpt>
      <trkpt lat="36.8178558535873889923095703125" lon="-118.4413010068237781524658203125">
        <ele>3784.800048828125</ele>
        <time>2021-06-26T19:50:19.000Z</time>
        <extensions>
          <ns3:TrackPointExtension>
            <ns3:atemp>32.0</ns3:atemp>
            <ns3:hr>104</ns3:hr>
          </ns3:TrackPointExtension>
        </extensions>
      </trkpt>
      <trkpt lat="36.817855350673198699951171875" lon="-118.44129907898604869842529296875">
        <ele>3784.800048828125</ele>
        <time>2021-06-26T19:50:20.000Z</time>
        <extensions>
          <ns3:TrackPointExtension>
            <ns3:atemp>32.0</ns3:atemp>
            <ns3:hr>104</ns3:hr>
          </ns3:TrackPointExtension>
        </extensions>
      </trkpt>
      <trkpt lat="36.8178511597216129302978515625" lon="-118.44129078090190887451171875">
        <ele>3784</ele>
        <time>2021-06-26T19:50:28.000Z</time>
        <extensions>
          <ns3:TrackPointExtension>
            <ns3:atemp>32.0</ns3:atemp>
            <ns3:hr>101</ns3:hr>
          </ns3:TrackPointExtension>
        </extensions>
      </trkpt>
      <trkpt lat="36.8178313784301280975341796875" lon="-118.441287092864513397216796875">
        <ele>3784</ele>
        <time>2021-06-26T19:50:43.000Z</time>
        <extensions>
          <ns3:TrackPointExtension>
            <ns3:atemp>32.0</ns3:atemp>
            <ns3:hr>104</ns3:hr>
          </ns3:TrackPointExtension>
        </extensions>
      </trkpt>
      <trkpt lat="36.81783020496368408203125" lon="-118.4412869252264499664306640625">
        <ele>3784.199951171875</ele>
        <time>2021-06-26T19:50:48.000Z</time>
        <extensions>
          <ns3:TrackPointExtension>
            <ns3:atemp>32.0</ns3:atemp>
            <ns3:hr>107</ns3:hr>
          </ns3:TrackPointExtension>
        </extensions>
      </trkpt>
      <trkpt lat="36.8178297020494937896728515625" lon="-118.44128684140741825103759765625">
        <ele>3784.39990234375</ele>
        <time>2021-06-26T19:51:01.000Z</time>
        <extensions>
          <ns3:TrackPointExtension>
            <ns3:atemp>32.0</ns3:atemp>
            <ns3:hr>110</ns3:hr>
          </ns3:TrackPointExtension>
        </extensions>
      </trkpt>
      <trkpt lat="36.8178288638591766357421875" lon="-118.4412865899503231048583984375">
        <ele>3783.60009765625</ele>
        <time>2021-06-26T19:51:25.000Z</time>
        <extensions>
          <ns3:TrackPointExtension>
            <ns3:atemp>32.0</ns3:atemp>
            <ns3:hr>108</ns3:hr>
          </ns3:TrackPointExtension>
        </extensions>
      </trkpt>
      <trkpt lat="36.81782827712595462799072265625" lon="-118.441286422312259674072265625">
        <ele>3783.39990234375</ele>
        <time>2021-06-26T19:51:36.000Z</time>
        <extensions>
          <ns3:TrackPointExtension>
            <ns3:atemp>32.0</ns3:atemp>
            <ns3:hr>105</ns3:hr>
          </ns3:TrackPointExtension>
        </extensions>
      </trkpt>
      <trkpt lat="36.81782794184982776641845703125" lon="-118.44128633849322795867919921875">
        <ele>3782.39990234375</ele>
        <time>2021-06-26T19:51:41.000Z</time>
        <extensions>
          <ns3:TrackPointExtension>
            <ns3:atemp>32.0</ns3:atemp>
            <ns3:hr>105</ns3:hr>
          </ns3:TrackPointExtension>
        </extensions>
      </trkpt>
      <trkpt lat="36.8178270198404788970947265625" lon="-118.44128633849322795867919921875">
        <ele>3781.60009765625</ele>
        <time>2021-06-26T19:51:55.000Z</time>
        <extensions>
          <ns3:TrackPointExtension>
            <ns3:atemp>32.0</ns3:atemp>
            <ns3:hr>109</ns3:hr>
          </ns3:TrackPointExtension>
        </extensions>
      </trkpt>
      <trkpt lat="36.8178266845643520355224609375" lon="-118.441286422312259674072265625">
        <ele>3781.39990234375</ele>
        <time>2021-06-26T19:52:00.000Z</time>
        <extensions>
          <ns3:TrackPointExtension>
            <ns3:atemp>32.0</ns3:atemp>
            <ns3:hr>112</ns3:hr>
          </ns3:TrackPointExtension>
        </extensions>
      </trkpt>
      <trkpt lat="36.81782551109790802001953125" lon="-118.4412860870361328125">
        <ele>3780.199951171875</ele>
        <time>2021-06-26T19:52:10.000Z</time>
        <extensions>
          <ns3:TrackPointExtension>
            <ns3:atemp>32.0</ns3:atemp>
            <ns3:hr>112</ns3:hr>
          </ns3:TrackPointExtension>
        </extensions>
      </trkpt>
      <trkpt lat="36.8178199790418148040771484375" lon="-118.4412839077413082122802734375">
        <ele>3780.199951171875</ele>
        <time>2021-06-26T19:52:43.000Z</time>
        <extensions>
          <ns3:TrackPointExtension>
            <ns3:atemp>32.0</ns3:atemp>
            <ns3:hr>115</ns3:hr>
          </ns3:TrackPointExtension>
        </extensions>
      </trkpt>
      <trkpt lat="36.81781603954732418060302734375" lon="-118.44128298573195934295654296875">
        <ele>3780.39990234375</ele>
        <time>2021-06-26T19:53:04.000Z</time>
        <extensions>
          <ns3:TrackPointExtension>
            <ns3:atemp>32.0</ns3:atemp>
            <ns3:hr>112</ns3:hr>
          </ns3:TrackPointExtension>
        </extensions>
      </trkpt>
      <trkpt lat="36.8178146146237850189208984375" lon="-118.44128281809389591217041015625">
        <ele>3780.199951171875</ele>
        <time>2021-06-26T19:53:11.000Z</time>
        <extensions>
          <ns3:TrackPointExtension>
            <ns3:atemp>31.0</ns3:atemp>
            <ns3:hr>109</ns3:hr>
          </ns3:TrackPointExtension>
        </extensions>
      </trkpt>
      <trkpt lat="36.81781335733830928802490234375" lon="-118.44128281809389591217041015625">
        <ele>3780.199951171875</ele>
        <time>2021-06-26T19:53:17.000Z</time>
        <extensions>
          <ns3:TrackPointExtension>
            <ns3:atemp>31.0</ns3:atemp>
            <ns3:hr>108</ns3:hr>
          </ns3:TrackPointExtension>
        </extensions>
      </trkpt>
      <trkpt lat="36.817811094224452972412109375" lon="-118.4412829019129276275634765625">
        <ele>3779.800048828125</ele>
        <time>2021-06-26T19:53:28.000Z</time>
        <extensions>
          <ns3:TrackPointExtension>
            <ns3:atemp>31.0</ns3:atemp>
            <ns3:hr>105</ns3:hr>
          </ns3:TrackPointExtension>
        </extensions>
      </trkpt>
      <trkpt lat="36.8178092502057552337646484375" lon="-118.4412829019129276275634765625">
        <ele>3779.199951171875</ele>
        <time>2021-06-26T19:53:37.000Z</time>
        <extensions>
          <ns3:TrackPointExtension>
            <ns3:atemp>31.0</ns3:atemp>
            <ns3:hr>106</ns3:hr>
          </ns3:TrackPointExtension>
        </extensions>
      </trkpt>
      <trkpt lat="36.8177780695259571075439453125" lon="-118.44128399156033992767333984375">
        <ele>3777.800048828125</ele>
        <time>2021-06-26T19:53:44.000Z</time>
        <extensions>
          <ns3:TrackPointExtension>
            <ns3:atemp>31.0</ns3:atemp>
            <ns3:hr>107</ns3:hr>
          </ns3:TrackPointExtension>
        </extensions>
      </trkpt>
      <trkpt lat="36.8177150376141071319580078125" lon="-118.44129237346351146697998046875">
        <ele>3776.800048828125</ele>
        <time>2021-06-26T19:53:48.000Z</time>
        <extensions>
          <ns3:TrackPointExtension>
            <ns3:atemp>31.0</ns3:atemp>
            <ns3:hr>107</ns3:hr>
          </ns3:TrackPointExtension>
        </extensions>
      </trkpt>
      <trkpt lat="36.81767321191728115081787109375" lon="-118.4412896074354648590087890625">
        <ele>3776.60009765625</ele>
        <time>2021-06-26T19:53:50.000Z</time>
        <extensions>
          <ns3:TrackPointExtension>
            <ns3:atemp>31.0</ns3:atemp>
            <ns3:hr>108</ns3:hr>
          </ns3:TrackPointExtension>
        </extensions>
      </trkpt>
      <trkpt lat="36.8176325596868991851806640625" lon="-118.44125993549823760986328125">
        <ele>3776.60009765625</ele>
        <time>2021-06-26T19:53:54.000Z</time>
        <extensions>
          <ns3:TrackPointExtension>
            <ns3:atemp>31.0</ns3:atemp>
            <ns3:hr>110</ns3:hr>
          </ns3:TrackPointExtension>
        </extensions>
      </trkpt>
      <trkpt lat="36.81760934181511402130126953125" lon="-118.4412466920912265777587890625">
        <ele>3775.800048828125</ele>
        <time>2021-06-26T19:54:01.000Z</time>
        <extensions>
          <ns3:TrackPointExtension>
            <ns3:atemp>31.0</ns3:atemp>
            <ns3:hr>107</ns3:hr>
          </ns3:TrackPointExtension>
        </extensions>
      </trkpt>
      <trkpt lat="36.8176080845296382904052734375" lon="-118.4412490390241146087646484375">
        <ele>3775.800048828125</ele>
        <time>2021-06-26T19:54:02.000Z</time>
        <extensions>
          <ns3:TrackPointExtension>
            <ns3:atemp>31.0</ns3:atemp>
            <ns3:hr>107</ns3:hr>
          </ns3:TrackPointExtension>
        </extensions>
      </trkpt>
      <trkpt lat="36.81758956052362918853759765625" lon="-118.4412337839603424072265625">
        <ele>3775.60009765625</ele>
        <time>2021-06-26T19:54:07.000Z</time>
        <extensions>
          <ns3:TrackPointExtension>
            <ns3:atemp>31.0</ns3:atemp>
            <ns3:hr>104</ns3:hr>
          </ns3:TrackPointExtension>
        </extensions>
      </trkpt>
      <trkpt lat="36.8175780773162841796875" lon="-118.44123177230358123779296875">
        <ele>3775.39990234375</ele>
        <time>2021-06-26T19:54:10.000Z</time>
        <extensions>
          <ns3:TrackPointExtension>
            <ns3:atemp>31.0</ns3:atemp>
            <ns3:hr>102</ns3:hr>
          </ns3:TrackPointExtension>
        </extensions>
      </trkpt>
      <trkpt lat="36.817573718726634979248046875" lon="-118.44123504124581813812255859375">
        <ele>3774.800048828125</ele>
        <time>2021-06-26T19:54:12.000Z</time>
        <extensions>
          <ns3:TrackPointExtension>
            <ns3:atemp>31.0</ns3:atemp>
            <ns3:hr>105</ns3:hr>
          </ns3:TrackPointExtension>
        </extensions>
      </trkpt>
      <trkpt lat="36.817573718726634979248046875" lon="-118.44123504124581813812255859375">
        <ele>3774.60009765625</ele>
        <time>2021-06-26T19:54:15.000Z</time>
        <extensions>
          <ns3:TrackPointExtension>
            <ns3:atemp>31.0</ns3:atemp>
            <ns3:hr>108</ns3:hr>
          </ns3:TrackPointExtension>
        </extensions>
      </trkpt>
      <trkpt lat="36.817573718726634979248046875" lon="-118.44123504124581813812255859375">
        <ele>3774.60009765625</ele>
        <time>2021-06-26T19:54:16.000Z</time>
        <extensions>
          <ns3:TrackPointExtension>
            <ns3:atemp>31.0</ns3:atemp>
            <ns3:hr>108</ns3:hr>
          </ns3:TrackPointExtension>
        </extensions>
      </trkpt>
      <trkpt lat="36.817573718726634979248046875" lon="-118.44123504124581813812255859375">
        <ele>3774.199951171875</ele>
        <time>2021-06-26T19:54:21.000Z</time>
        <extensions>
          <ns3:TrackPointExtension>
            <ns3:atemp>31.0</ns3:atemp>
            <ns3:hr>111</ns3:hr>
          </ns3:TrackPointExtension>
        </extensions>
      </trkpt>
      <trkpt lat="36.817573718726634979248046875" lon="-118.44123504124581813812255859375">
        <ele>3773.60009765625</ele>
        <time>2021-06-26T19:54:23.000Z</time>
        <extensions>
          <ns3:TrackPointExtension>
            <ns3:atemp>31.0</ns3:atemp>
            <ns3:hr>111</ns3:hr>
          </ns3:TrackPointExtension>
        </extensions>
      </trkpt>
      <trkpt lat="36.817573718726634979248046875" lon="-118.44123504124581813812255859375">
        <ele>3773.39990234375</ele>
        <time>2021-06-26T19:54:24.000Z</time>
        <extensions>
          <ns3:TrackPointExtension>
            <ns3:atemp>31.0</ns3:atemp>
            <ns3:hr>112</ns3:hr>
          </ns3:TrackPointExtension>
        </extensions>
      </trkpt>
      <trkpt lat="36.817565672099590301513671875" lon="-118.44123336486518383026123046875">
        <ele>3773.199951171875</ele>
        <time>2021-06-26T19:54:32.000Z</time>
        <extensions>
          <ns3:TrackPointExtension>
            <ns3:atemp>31.0</ns3:atemp>
            <ns3:hr>109</ns3:hr>
          </ns3:TrackPointExtension>
        </extensions>
      </trkpt>
      <trkpt lat="36.81755552999675273895263671875" lon="-118.441230095922946929931640625">
        <ele>3772.39990234375</ele>
        <time>2021-06-26T19:54:35.000Z</time>
        <extensions>
          <ns3:TrackPointExtension>
            <ns3:atemp>31.0</ns3:atemp>
            <ns3:hr>108</ns3:hr>
          </ns3:TrackPointExtension>
        </extensions>
      </trkpt>
      <trkpt lat="36.81755066849291324615478515625" lon="-118.4412248991429805755615234375">
        <ele>3771.60009765625</ele>
        <time>2021-06-26T19:54:38.000Z</time>
        <extensions>
          <ns3:TrackPointExtension>
            <ns3:atemp>31.0</ns3:atemp>
            <ns3:hr>105</ns3:hr>
          </ns3:TrackPointExtension>
        </extensions>
      </trkpt>
      <trkpt lat="36.8175494112074375152587890625" lon="-118.44122380949556827545166015625">
        <ele>3771.39990234375</ele>
        <time>2021-06-26T19:54:40.000Z</time>
        <extensions>
          <ns3:TrackPointExtension>
            <ns3:atemp>31.0</ns3:atemp>
            <ns3:hr>104</ns3:hr>
          </ns3:TrackPointExtension>
        </extensions>
      </trkpt>
      <trkpt lat="36.8174578808248043060302734375" lon="-118.44121861271560192108154296875">
        <ele>3770.39990234375</ele>
        <time>2021-06-26T19:54:59.000Z</time>
        <extensions>
          <ns3:TrackPointExtension>
            <ns3:atemp>31.0</ns3:atemp>
            <ns3:hr>107</ns3:hr>
          </ns3:TrackPointExtension>
        </extensions>
      </trkpt>
      <trkpt lat="36.81745645590126514434814453125" lon="-118.44121861271560192108154296875">
        <ele>3770.39990234375</ele>
        <time>2021-06-26T19:55:00.000Z</time>
        <extensions>
          <ns3:TrackPointExtension>
            <ns3:atemp>31.0</ns3:atemp>
            <ns3:hr>107</ns3:hr>
          </ns3:TrackPointExtension>
        </extensions>
      </trkpt>
      <trkpt lat="36.81745402514934539794921875" lon="-118.44121743924915790557861328125">
        <ele>3770.39990234375</ele>
        <time>2021-06-26T19:55:05.000Z</time>
        <extensions>
          <ns3:TrackPointExtension>
            <ns3:atemp>31.0</ns3:atemp>
            <ns3:hr>110</ns3:hr>
          </ns3:TrackPointExtension>
        </extensions>
      </trkpt>
      <trkpt lat="36.81745209731161594390869140625" lon="-118.44118843786418437957763671875">
        <ele>3771</ele>
        <time>2021-06-26T19:55:25.000Z</time>
        <extensions>
          <ns3:TrackPointExtension>
            <ns3:atemp>31.0</ns3:atemp>
            <ns3:hr>113</ns3:hr>
          </ns3:TrackPointExtension>
        </extensions>
      </trkpt>
      <trkpt lat="36.81745209731161594390869140625" lon="-118.4411839954555034637451171875">
        <ele>3771.199951171875</ele>
        <time>2021-06-26T19:55:33.000Z</time>
        <extensions>
          <ns3:TrackPointExtension>
            <ns3:atemp>31.0</ns3:atemp>
            <ns3:hr>110</ns3:hr>
          </ns3:TrackPointExtension>
        </extensions>
      </trkpt>
      <trkpt lat="36.81745595298707485198974609375" lon="-118.44118391163647174835205078125">
        <ele>3771.199951171875</ele>
        <time>2021-06-26T19:55:35.000Z</time>
        <extensions>
          <ns3:TrackPointExtension>
            <ns3:atemp>31.0</ns3:atemp>
            <ns3:hr>109</ns3:hr>
          </ns3:TrackPointExtension>
        </extensions>
      </trkpt>
      <trkpt lat="36.8174860440194606781005859375" lon="-118.44118122942745685577392578125">
        <ele>3771.60009765625</ele>
        <time>2021-06-26T19:55:51.000Z</time>
        <extensions>
          <ns3:TrackPointExtension>
            <ns3:atemp>31.0</ns3:atemp>
            <ns3:hr>107</ns3:hr>
          </ns3:TrackPointExtension>
        </extensions>
      </trkpt>
      <trkpt lat="36.817465759813785552978515625" lon="-118.4411809779703617095947265625">
        <ele>3770.60009765625</ele>
        <time>2021-06-26T19:56:00.000Z</time>
        <extensions>
          <ns3:TrackPointExtension>
            <ns3:atemp>31.0</ns3:atemp>
            <ns3:hr>105</ns3:hr>
          </ns3:TrackPointExtension>
        </extensions>
      </trkpt>
      <trkpt lat="36.81744656525552272796630859375" lon="-118.44117787666618824005126953125">
        <ele>3770</ele>
        <time>2021-06-26T19:56:05.000Z</time>
        <extensions>
          <ns3:TrackPointExtension>
            <ns3:atemp>31.0</ns3:atemp>
            <ns3:hr>108</ns3:hr>
          </ns3:TrackPointExtension>
        </extensions>
      </trkpt>
      <trkpt lat="36.8174077570438385009765625" lon="-118.441165052354335784912109375">
        <ele>3769.60009765625</ele>
        <time>2021-06-26T19:56:14.000Z</time>
        <extensions>
          <ns3:TrackPointExtension>
            <ns3:atemp>31.0</ns3:atemp>
            <ns3:hr>107</ns3:hr>
          </ns3:TrackPointExtension>
        </extensions>
      </trkpt>
      <trkpt lat="36.81735905818641185760498046875" lon="-118.44114216975867748260498046875">
        <ele>3769</ele>
        <time>2021-06-26T19:56:27.000Z</time>
        <extensions>
          <ns3:TrackPointExtension>
            <ns3:atemp>31.0</ns3:atemp>
            <ns3:hr>109</ns3:hr>
          </ns3:TrackPointExtension>
        </extensions>
      </trkpt>
      <trkpt lat="36.817307174205780029296875" lon="-118.441117107868194580078125">
        <ele>3769.39990234375</ele>
        <time>2021-06-26T19:56:48.000Z</time>
        <extensions>
          <ns3:TrackPointExtension>
            <ns3:atemp>31.0</ns3:atemp>
            <ns3:hr>109</ns3:hr>
          </ns3:TrackPointExtension>
        </extensions>
      </trkpt>
      <trkpt lat="36.81729870848357677459716796875" lon="-118.44111182726919651031494140625">
        <ele>3768.800048828125</ele>
        <time>2021-06-26T19:56:54.000Z</time>
        <extensions>
          <ns3:TrackPointExtension>
            <ns3:atemp>31.0</ns3:atemp>
            <ns3:hr>106</ns3:hr>
          </ns3:TrackPointExtension>
        </extensions>
      </trkpt>
      <trkpt lat="36.81729803793132305145263671875" lon="-118.44110696576535701751708984375">
        <ele>3768.39990234375</ele>
        <time>2021-06-26T19:56:56.000Z</time>
        <extensions>
          <ns3:TrackPointExtension>
            <ns3:atemp>31.0</ns3:atemp>
            <ns3:hr>105</ns3:hr>
          </ns3:TrackPointExtension>
        </extensions>
      </trkpt>
      <trkpt lat="36.81726803071796894073486328125" lon="-118.4410958178341388702392578125">
        <ele>3768.39990234375</ele>
        <time>2021-06-26T19:57:04.000Z</time>
        <extensions>
          <ns3:TrackPointExtension>
            <ns3:atemp>31.0</ns3:atemp>
            <ns3:hr>108</ns3:hr>
          </ns3:TrackPointExtension>
        </extensions>
      </trkpt>
      <trkpt lat="36.8172272108495235443115234375" lon="-118.44107125885784626007080078125">
        <ele>3768.199951171875</ele>
        <time>2021-06-26T19:57:21.000Z</time>
        <extensions>
          <ns3:TrackPointExtension>
            <ns3:atemp>32.0</ns3:atemp>
            <ns3:hr>111</ns3:hr>
          </ns3:TrackPointExtension>
        </extensions>
      </trkpt>
      <trkpt lat="36.8172171525657176971435546875" lon="-118.44106975011527538299560546875">
        <ele>3768.39990234375</ele>
        <time>2021-06-26T19:57:23.000Z</time>
        <extensions>
          <ns3:TrackPointExtension>
            <ns3:atemp>32.0</ns3:atemp>
            <ns3:hr>114</ns3:hr>
          </ns3:TrackPointExtension>
        </extensions>
      </trkpt>
      <trkpt lat="36.817211620509624481201171875" lon="-118.4410683251917362213134765625">
        <ele>3768.60009765625</ele>
        <time>2021-06-26T19:57:26.000Z</time>
        <extensions>
          <ns3:TrackPointExtension>
            <ns3:atemp>32.0</ns3:atemp>
            <ns3:hr>117</ns3:hr>
          </ns3:TrackPointExtension>
        </extensions>
      </trkpt>
      <trkpt lat="36.81720835156738758087158203125" lon="-118.44106354750692844390869140625">
        <ele>3769.39990234375</ele>
        <time>2021-06-26T19:57:33.000Z</time>
        <extensions>
          <ns3:TrackPointExtension>
            <ns3:atemp>32.0</ns3:atemp>
            <ns3:hr>119</ns3:hr>
          </ns3:TrackPointExtension>
        </extensions>
      </trkpt>
      <trkpt lat="36.817204914987087249755859375" lon="-118.44103873707354068756103515625">
        <ele>3770.39990234375</ele>
        <time>2021-06-26T19:57:39.000Z</time>
        <extensions>
          <ns3:TrackPointExtension>
            <ns3:atemp>32.0</ns3:atemp>
            <ns3:hr>116</ns3:hr>
          </ns3:TrackPointExtension>
        </extensions>
      </trkpt>
      <trkpt lat="36.81719611398875713348388671875" lon="-118.44102817587554454803466796875">
        <ele>3770.39990234375</ele>
        <time>2021-06-26T19:57:43.000Z</time>
        <extensions>
          <ns3:TrackPointExtension>
            <ns3:atemp>32.0</ns3:atemp>
            <ns3:hr>112</ns3:hr>
          </ns3:TrackPointExtension>
        </extensions>
      </trkpt>
      <trkpt lat="36.8171920068562030792236328125" lon="-118.44101945869624614715576171875">
        <ele>3770.39990234375</ele>
        <time>2021-06-26T19:57:45.000Z</time>
        <extensions>
          <ns3:TrackPointExtension>
            <ns3:atemp>32.0</ns3:atemp>
            <ns3:hr>108</ns3:hr>
          </ns3:TrackPointExtension>
        </extensions>
      </trkpt>
      <trkpt lat="36.81719058193266391754150390625" lon="-118.44101610593497753143310546875">
        <ele>3770.60009765625</ele>
        <time>2021-06-26T19:57:46.000Z</time>
        <extensions>
          <ns3:TrackPointExtension>
            <ns3:atemp>32.0</ns3:atemp>
            <ns3:hr>106</ns3:hr>
          </ns3:TrackPointExtension>
        </extensions>
      </trkpt>
      <trkpt lat="36.81718136183917522430419921875" lon="-118.44100805930793285369873046875">
        <ele>3770.60009765625</ele>
        <time>2021-06-26T19:57:49.000Z</time>
        <extensions>
          <ns3:TrackPointExtension>
            <ns3:atemp>32.0</ns3:atemp>
            <ns3:hr>103</ns3:hr>
          </ns3:TrackPointExtension>
        </extensions>
      </trkpt>
      <trkpt lat="36.8171591497957706451416015625" lon="-118.44096346758306026458740234375">
        <ele>3769.39990234375</ele>
        <time>2021-06-26T19:58:00.000Z</time>
        <extensions>
          <ns3:TrackPointExtension>
            <ns3:atemp>32.0</ns3:atemp>
            <ns3:hr>103</ns3:hr>
          </ns3:TrackPointExtension>
        </extensions>
      </trkpt>
      <trkpt lat="36.817149259150028228759765625" lon="-118.44096078537404537200927734375">
        <ele>3769.39990234375</ele>
        <time>2021-06-26T19:58:05.000Z</time>
        <extensions>
          <ns3:TrackPointExtension>
            <ns3:atemp>32.0</ns3:atemp>
            <ns3:hr>100</ns3:hr>
          </ns3:TrackPointExtension>
        </extensions>
      </trkpt>
      <trkpt lat="36.8171440623700618743896484375" lon="-118.4409607015550136566162109375">
        <ele>3769.39990234375</ele>
        <time>2021-06-26T19:58:08.000Z</time>
        <extensions>
          <ns3:TrackPointExtension>
            <ns3:atemp>32.0</ns3:atemp>
            <ns3:hr>97</ns3:hr>
          </ns3:TrackPointExtension>
        </extensions>
      </trkpt>
      <trkpt lat="36.81710357777774333953857421875" lon="-118.44096078537404537200927734375">
        <ele>3769.39990234375</ele>
        <time>2021-06-26T19:58:22.000Z</time>
        <extensions>
          <ns3:TrackPointExtension>
            <ns3:atemp>32.0</ns3:atemp>
            <ns3:hr>100</ns3:hr>
          </ns3:TrackPointExtension>
        </extensions>
      </trkpt>
      <trkpt lat="36.8170951120555400848388671875" lon="-118.44096179120242595672607421875">
        <ele>3769.39990234375</ele>
        <time>2021-06-26T19:58:25.000Z</time>
        <extensions>
          <ns3:TrackPointExtension>
            <ns3:atemp>31.0</ns3:atemp>
            <ns3:hr>103</ns3:hr>
          </ns3:TrackPointExtension>
        </extensions>
      </trkpt>
      <trkpt lat="36.817055381834506988525390625" lon="-118.440967239439487457275390625">
        <ele>3769.39990234375</ele>
        <time>2021-06-26T19:58:33.000Z</time>
        <extensions>
          <ns3:TrackPointExtension>
            <ns3:atemp>31.0</ns3:atemp>
            <ns3:hr>107</ns3:hr>
          </ns3:TrackPointExtension>
        </extensions>
      </trkpt>
      <trkpt lat="36.817045323550701141357421875" lon="-118.44097654335200786590576171875">
        <ele>3769.39990234375</ele>
        <time>2021-06-26T19:58:35.000Z</time>
        <extensions>
          <ns3:TrackPointExtension>
            <ns3:atemp>31.0</ns3:atemp>
            <ns3:hr>110</ns3:hr>
          </ns3:TrackPointExtension>
        </extensions>
      </trkpt>
      <trkpt lat="36.81703417561948299407958984375" lon="-118.44098760746419429779052734375">
        <ele>3769.39990234375</ele>
        <time>2021-06-26T19:58:42.000Z</time>
        <extensions>
          <ns3:TrackPointExtension>
            <ns3:atemp>31.0</ns3:atemp>
            <ns3:hr>113</ns3:hr>
          </ns3:TrackPointExtension>
        </extensions>
      </trkpt>
      <trkpt lat="36.817033253610134124755859375" lon="-118.4409821592271327972412109375">
        <ele>3769.39990234375</ele>
        <time>2021-06-26T19:58:59.000Z</time>
        <extensions>
          <ns3:TrackPointExtension>
            <ns3:atemp>31.0</ns3:atemp>
            <ns3:hr>110</ns3:hr>
          </ns3:TrackPointExtension>
        </extensions>
      </trkpt>
      <trkpt lat="36.817033253610134124755859375" lon="-118.4409798122942447662353515625">
        <ele>3766</ele>
        <time>2021-06-26T19:59:02.000Z</time>
        <extensions>
          <ns3:TrackPointExtension>
            <ns3:atemp>31.0</ns3:atemp>
            <ns3:hr>111</ns3:hr>
          </ns3:TrackPointExtension>
        </extensions>
      </trkpt>
      <trkpt lat="36.817033253610134124755859375" lon="-118.44097805209457874298095703125">
        <ele>3766.199951171875</ele>
        <time>2021-06-26T19:59:07.000Z</time>
        <extensions>
          <ns3:TrackPointExtension>
            <ns3:atemp>31.0</ns3:atemp>
            <ns3:hr>108</ns3:hr>
          </ns3:TrackPointExtension>
        </extensions>
      </trkpt>
      <trkpt lat="36.8170293979346752166748046875" lon="-118.44098542816936969757080078125">
        <ele>3765.800048828125</ele>
        <time>2021-06-26T19:59:34.000Z</time>
        <extensions>
          <ns3:TrackPointExtension>
            <ns3:atemp>31.0</ns3:atemp>
            <ns3:hr>104</ns3:hr>
          </ns3:TrackPointExtension>
        </extensions>
      </trkpt>
      <trkpt lat="36.817029230296611785888671875" lon="-118.44098509289324283599853515625">
        <ele>3766</ele>
        <time>2021-06-26T19:59:40.000Z</time>
        <extensions>
          <ns3:TrackPointExtension>
            <ns3:atemp>31.0</ns3:atemp>
            <ns3:hr>101</ns3:hr>
          </ns3:TrackPointExtension>
        </extensions>
      </trkpt>
      <trkpt lat="36.817029230296611785888671875" lon="-118.44098458997905254364013671875">
        <ele>3766.199951171875</ele>
        <time>2021-06-26T19:59:44.000Z</time>
        <extensions>
          <ns3:TrackPointExtension>
            <ns3:atemp>31.0</ns3:atemp>
            <ns3:hr>104</ns3:hr>
          </ns3:TrackPointExtension>
        </extensions>
      </trkpt>
      <trkpt lat="36.81702897883951663970947265625" lon="-118.4409838356077671051025390625">
        <ele>3766.199951171875</ele>
        <time>2021-06-26T20:00:04.000Z</time>
        <extensions>
          <ns3:TrackPointExtension>
            <ns3:atemp>31.0</ns3:atemp>
            <ns3:hr>101</ns3:hr>
          </ns3:TrackPointExtension>
        </extensions>
      </trkpt>
      <trkpt lat="36.81702897883951663970947265625" lon="-118.44098375178873538970947265625">
        <ele>3766.199951171875</ele>
        <time>2021-06-26T20:00:06.000Z</time>
        <extensions>
          <ns3:TrackPointExtension>
            <ns3:atemp>31.0</ns3:atemp>
            <ns3:hr>98</ns3:hr>
          </ns3:TrackPointExtension>
        </extensions>
      </trkpt>
      <trkpt lat="36.81702889502048492431640625" lon="-118.4409835003316402435302734375">
        <ele>3766.199951171875</ele>
        <time>2021-06-26T20:00:09.000Z</time>
        <extensions>
          <ns3:TrackPointExtension>
            <ns3:atemp>31.0</ns3:atemp>
            <ns3:hr>101</ns3:hr>
          </ns3:TrackPointExtension>
        </extensions>
      </trkpt>
      <trkpt lat="36.81702889502048492431640625" lon="-118.44098324887454509735107421875">
        <ele>3766.199951171875</ele>
        <time>2021-06-26T20:00:12.000Z</time>
        <extensions>
          <ns3:TrackPointExtension>
            <ns3:atemp>31.0</ns3:atemp>
            <ns3:hr>104</ns3:hr>
          </ns3:TrackPointExtension>
        </extensions>
      </trkpt>
      <trkpt lat="36.81702881120145320892333984375" lon="-118.44098106957972049713134765625">
        <ele>3766.199951171875</ele>
        <time>2021-06-26T20:00:27.000Z</time>
        <extensions>
          <ns3:TrackPointExtension>
            <ns3:atemp>31.0</ns3:atemp>
            <ns3:hr>106</ns3:hr>
          </ns3:TrackPointExtension>
        </extensions>
      </trkpt>
      <trkpt lat="36.8170283921062946319580078125" lon="-118.44097830355167388916015625">
        <ele>3766.199951171875</ele>
        <time>2021-06-26T20:00:40.000Z</time>
        <extensions>
          <ns3:TrackPointExtension>
            <ns3:atemp>31.0</ns3:atemp>
            <ns3:hr>103</ns3:hr>
          </ns3:TrackPointExtension>
        </extensions>
      </trkpt>
      <trkpt lat="36.81702730245888233184814453125" lon="-118.44097486697137355804443359375">
        <ele>3766.199951171875</ele>
        <time>2021-06-26T20:00:57.000Z</time>
        <extensions>
          <ns3:TrackPointExtension>
            <ns3:atemp>31.0</ns3:atemp>
            <ns3:hr>106</ns3:hr>
          </ns3:TrackPointExtension>
        </extensions>
      </trkpt>
      <trkpt lat="36.817027218639850616455078125" lon="-118.44097453169524669647216796875">
        <ele>3766.199951171875</ele>
        <time>2021-06-26T20:00:59.000Z</time>
        <extensions>
          <ns3:TrackPointExtension>
            <ns3:atemp>31.0</ns3:atemp>
            <ns3:hr>103</ns3:hr>
          </ns3:TrackPointExtension>
        </extensions>
      </trkpt>
      <trkpt lat="36.8170268833637237548828125" lon="-118.4409736096858978271484375">
        <ele>3763.39990234375</ele>
        <time>2021-06-26T20:01:04.000Z</time>
        <extensions>
          <ns3:TrackPointExtension>
            <ns3:atemp>31.0</ns3:atemp>
            <ns3:hr>103</ns3:hr>
          </ns3:TrackPointExtension>
        </extensions>
      </trkpt>
      <trkpt lat="36.8170267157256603240966796875" lon="-118.44097302295267581939697265625">
        <ele>3763.39990234375</ele>
        <time>2021-06-26T20:01:07.000Z</time>
        <extensions>
          <ns3:TrackPointExtension>
            <ns3:atemp>31.0</ns3:atemp>
            <ns3:hr>100</ns3:hr>
          </ns3:TrackPointExtension>
        </extensions>
      </trkpt>
      <trkpt lat="36.8170260451734066009521484375" lon="-118.4409710951149463653564453125">
        <ele>3763.39990234375</ele>
        <time>2021-06-26T20:01:18.000Z</time>
        <extensions>
          <ns3:TrackPointExtension>
            <ns3:atemp>31.0</ns3:atemp>
            <ns3:hr>103</ns3:hr>
          </ns3:TrackPointExtension>
        </extensions>
      </trkpt>
      <trkpt lat="36.81702562607824802398681640625" lon="-118.4409700892865657806396484375">
        <ele>3762.800048828125</ele>
        <time>2021-06-26T20:01:24.000Z</time>
        <extensions>
          <ns3:TrackPointExtension>
            <ns3:atemp>31.0</ns3:atemp>
            <ns3:hr>106</ns3:hr>
          </ns3:TrackPointExtension>
        </extensions>
      </trkpt>
      <trkpt lat="36.81702529080212116241455078125" lon="-118.44096899963915348052978515625">
        <ele>3762.39990234375</ele>
        <time>2021-06-26T20:01:30.000Z</time>
        <extensions>
          <ns3:TrackPointExtension>
            <ns3:atemp>31.0</ns3:atemp>
            <ns3:hr>109</ns3:hr>
          </ns3:TrackPointExtension>
        </extensions>
      </trkpt>
      <trkpt lat="36.817025206983089447021484375" lon="-118.44096883200109004974365234375">
        <ele>3762.39990234375</ele>
        <time>2021-06-26T20:01:31.000Z</time>
        <extensions>
          <ns3:TrackPointExtension>
            <ns3:atemp>31.0</ns3:atemp>
            <ns3:hr>108</ns3:hr>
          </ns3:TrackPointExtension>
        </extensions>
      </trkpt>
      <trkpt lat="36.81702327914535999298095703125" lon="-118.44096346758306026458740234375">
        <ele>3762.39990234375</ele>
        <time>2021-06-26T20:02:00.000Z</time>
        <extensions>
          <ns3:TrackPointExtension>
            <ns3:atemp>31.0</ns3:atemp>
            <ns3:hr>105</ns3:hr>
          </ns3:TrackPointExtension>
        </extensions>
      </trkpt>
      <trkpt lat="36.81702059693634510040283203125" lon="-118.440955840051174163818359375">
        <ele>3762.800048828125</ele>
        <time>2021-06-26T20:02:37.000Z</time>
        <extensions>
          <ns3:TrackPointExtension>
            <ns3:atemp>31.0</ns3:atemp>
            <ns3:hr>102</ns3:hr>
          </ns3:TrackPointExtension>
        </extensions>
      </trkpt>
      <trkpt lat="36.8170201778411865234375" lon="-118.44095441512763500213623046875">
        <ele>3762.60009765625</ele>
        <time>2021-06-26T20:02:44.000Z</time>
        <extensions>
          <ns3:TrackPointExtension>
            <ns3:atemp>31.0</ns3:atemp>
            <ns3:hr>99</ns3:hr>
          </ns3:TrackPointExtension>
        </extensions>
      </trkpt>
      <trkpt lat="36.81701724417507648468017578125" lon="-118.4409456141293048858642578125">
        <ele>3762.39990234375</ele>
        <time>2021-06-26T20:03:28.000Z</time>
        <extensions>
          <ns3:TrackPointExtension>
            <ns3:atemp>31.0</ns3:atemp>
            <ns3:hr>102</ns3:hr>
          </ns3:TrackPointExtension>
        </extensions>
      </trkpt>
      <trkpt lat="36.81701556779444217681884765625" lon="-118.44094075262546539306640625">
        <ele>3762.800048828125</ele>
        <time>2021-06-26T20:03:54.000Z</time>
        <extensions>
          <ns3:TrackPointExtension>
            <ns3:atemp>31.0</ns3:atemp>
            <ns3:hr>105</ns3:hr>
          </ns3:TrackPointExtension>
        </extensions>
      </trkpt>
      <trkpt lat="36.8170149810612201690673828125" lon="-118.44093899242579936981201171875">
        <ele>3763.199951171875</ele>
        <time>2021-06-26T20:04:04.000Z</time>
        <extensions>
          <ns3:TrackPointExtension>
            <ns3:atemp>31.0</ns3:atemp>
            <ns3:hr>102</ns3:hr>
          </ns3:TrackPointExtension>
        </extensions>
      </trkpt>
      <trkpt lat="36.8170146457850933074951171875" lon="-118.44093798659741878509521484375">
        <ele>3763.39990234375</ele>
        <time>2021-06-26T20:04:10.000Z</time>
        <extensions>
          <ns3:TrackPointExtension>
            <ns3:atemp>31.0</ns3:atemp>
            <ns3:hr>101</ns3:hr>
          </ns3:TrackPointExtension>
        </extensions>
      </trkpt>
      <trkpt lat="36.81701456196606159210205078125" lon="-118.44093765132129192352294921875">
        <ele>3763.199951171875</ele>
        <time>2021-06-26T20:04:12.000Z</time>
        <extensions>
          <ns3:TrackPointExtension>
            <ns3:atemp>31.0</ns3:atemp>
            <ns3:hr>101</ns3:hr>
          </ns3:TrackPointExtension>
        </extensions>
      </trkpt>
      <trkpt lat="36.8170134723186492919921875" lon="-118.4409345500171184539794921875">
        <ele>3762.39990234375</ele>
        <time>2021-06-26T20:04:34.000Z</time>
        <extensions>
          <ns3:TrackPointExtension>
            <ns3:atemp>32.0</ns3:atemp>
            <ns3:hr>101</ns3:hr>
          </ns3:TrackPointExtension>
        </extensions>
      </trkpt>
      <trkpt lat="36.81701338849961757659912109375" lon="-118.440934382379055023193359375">
        <ele>3762.199951171875</ele>
        <time>2021-06-26T20:04:35.000Z</time>
        <extensions>
          <ns3:TrackPointExtension>
            <ns3:atemp>32.0</ns3:atemp>
            <ns3:hr>100</ns3:hr>
          </ns3:TrackPointExtension>
        </extensions>
      </trkpt>
      <trkpt lat="36.8170133046805858612060546875" lon="-118.44093396328389644622802734375">
        <ele>3762.199951171875</ele>
        <time>2021-06-26T20:04:38.000Z</time>
        <extensions>
          <ns3:TrackPointExtension>
            <ns3:atemp>32.0</ns3:atemp>
            <ns3:hr>104</ns3:hr>
          </ns3:TrackPointExtension>
        </extensions>
      </trkpt>
      <trkpt lat="36.81701322086155414581298828125" lon="-118.4409338794648647308349609375">
        <ele>3762.199951171875</ele>
        <time>2021-06-26T20:04:39.000Z</time>
        <extensions>
          <ns3:TrackPointExtension>
            <ns3:atemp>32.0</ns3:atemp>
            <ns3:hr>100</ns3:hr>
          </ns3:TrackPointExtension>
        </extensions>
      </trkpt>
      <trkpt lat="36.81701271794736385345458984375" lon="-118.44093262217938899993896484375">
        <ele>3761.199951171875</ele>
        <time>2021-06-26T20:04:48.000Z</time>
        <extensions>
          <ns3:TrackPointExtension>
            <ns3:atemp>32.0</ns3:atemp>
            <ns3:hr>99</ns3:hr>
          </ns3:TrackPointExtension>
        </extensions>
      </trkpt>
      <trkpt lat="36.81701221503317356109619140625" lon="-118.44093144871294498443603515625">
        <ele>3760.199951171875</ele>
        <time>2021-06-26T20:04:56.000Z</time>
        <extensions>
          <ns3:TrackPointExtension>
            <ns3:atemp>32.0</ns3:atemp>
            <ns3:hr>100</ns3:hr>
          </ns3:TrackPointExtension>
        </extensions>
      </trkpt>
      <trkpt lat="36.817012131214141845703125" lon="-118.4409311972558498382568359375">
        <ele>3760</ele>
        <time>2021-06-26T20:04:57.000Z</time>
        <extensions>
          <ns3:TrackPointExtension>
            <ns3:atemp>32.0</ns3:atemp>
            <ns3:hr>101</ns3:hr>
          </ns3:TrackPointExtension>
        </extensions>
      </trkpt>
      <trkpt lat="36.81701020337641239166259765625" lon="-118.440800942480564117431640625">
        <ele>3759.199951171875</ele>
        <time>2021-06-26T20:05:06.000Z</time>
        <extensions>
          <ns3:TrackPointExtension>
            <ns3:atemp>33.0</ns3:atemp>
            <ns3:hr>103</ns3:hr>
          </ns3:TrackPointExtension>
        </extensions>
      </trkpt>
      <trkpt lat="36.8170089460909366607666015625" lon="-118.44075568020343780517578125">
        <ele>3759</ele>
        <time>2021-06-26T20:05:08.000Z</time>
        <extensions>
          <ns3:TrackPointExtension>
            <ns3:atemp>33.0</ns3:atemp>
            <ns3:hr>103</ns3:hr>
          </ns3:TrackPointExtension>
        </extensions>
      </trkpt>
      <trkpt lat="36.8170092813670635223388671875" lon="-118.44069742597639560699462890625">
        <ele>3757.60009765625</ele>
        <time>2021-06-26T20:05:12.000Z</time>
        <extensions>
          <ns3:TrackPointExtension>
            <ns3:atemp>33.0</ns3:atemp>
            <ns3:hr>100</ns3:hr>
          </ns3:TrackPointExtension>
        </extensions>
      </trkpt>
      <trkpt lat="36.81700869463384151458740234375" lon="-118.44069398939609527587890625">
        <ele>3757.60009765625</ele>
        <time>2021-06-26T20:05:13.000Z</time>
        <extensions>
          <ns3:TrackPointExtension>
            <ns3:atemp>33.0</ns3:atemp>
            <ns3:hr>103</ns3:hr>
          </ns3:TrackPointExtension>
        </extensions>
      </trkpt>
      <trkpt lat="36.8170096166431903839111328125" lon="-118.440692313015460968017578125">
        <ele>3757.39990234375</ele>
        <time>2021-06-26T20:05:14.000Z</time>
        <extensions>
          <ns3:TrackPointExtension>
            <ns3:atemp>33.0</ns3:atemp>
            <ns3:hr>102</ns3:hr>
          </ns3:TrackPointExtension>
        </extensions>
      </trkpt>
      <trkpt lat="36.8170035816729068756103515625" lon="-118.44068904407322406768798828125">
        <ele>3757.60009765625</ele>
        <time>2021-06-26T20:05:17.000Z</time>
        <extensions>
          <ns3:TrackPointExtension>
            <ns3:atemp>33.0</ns3:atemp>
            <ns3:hr>99</ns3:hr>
          </ns3:TrackPointExtension>
        </extensions>
      </trkpt>
      <trkpt lat="36.8170065991580486297607421875" lon="-118.44065987505018711090087890625">
        <ele>3757.60009765625</ele>
        <time>2021-06-26T20:05:21.000Z</time>
        <extensions>
          <ns3:TrackPointExtension>
            <ns3:atemp>33.0</ns3:atemp>
            <ns3:hr>98</ns3:hr>
          </ns3:TrackPointExtension>
        </extensions>
      </trkpt>
      <trkpt lat="36.81699360720813274383544921875" lon="-118.44064193777740001678466796875">
        <ele>3757.199951171875</ele>
        <time>2021-06-26T20:05:26.000Z</time>
        <extensions>
          <ns3:TrackPointExtension>
            <ns3:atemp>33.0</ns3:atemp>
            <ns3:hr>101</ns3:hr>
          </ns3:TrackPointExtension>
        </extensions>
      </trkpt>
      <trkpt lat="36.816997714340686798095703125" lon="-118.44063640572130680084228515625">
        <ele>3756.800048828125</ele>
        <time>2021-06-26T20:05:28.000Z</time>
        <extensions>
          <ns3:TrackPointExtension>
            <ns3:atemp>33.0</ns3:atemp>
            <ns3:hr>103</ns3:hr>
          </ns3:TrackPointExtension>
        </extensions>
      </trkpt>
      <trkpt lat="36.81701690889894962310791015625" lon="-118.440614528954029083251953125">
        <ele>3756.60009765625</ele>
        <time>2021-06-26T20:05:32.000Z</time>
        <extensions>
          <ns3:TrackPointExtension>
            <ns3:atemp>33.0</ns3:atemp>
            <ns3:hr>102</ns3:hr>
          </ns3:TrackPointExtension>
        </extensions>
      </trkpt>
      <trkpt lat="36.8170220218598842620849609375" lon="-118.4405969269573688507080078125">
        <ele>3755.800048828125</ele>
        <time>2021-06-26T20:05:34.000Z</time>
        <extensions>
          <ns3:TrackPointExtension>
            <ns3:atemp>32.0</ns3:atemp>
            <ns3:hr>104</ns3:hr>
          </ns3:TrackPointExtension>
        </extensions>
      </trkpt>
      <trkpt lat="36.81702830828726291656494140625" lon="-118.44057655893266201019287109375">
        <ele>3755.60009765625</ele>
        <time>2021-06-26T20:05:37.000Z</time>
        <extensions>
          <ns3:TrackPointExtension>
            <ns3:atemp>33.0</ns3:atemp>
            <ns3:hr>105</ns3:hr>
          </ns3:TrackPointExtension>
        </extensions>
      </trkpt>
      <trkpt lat="36.8170421384274959564208984375" lon="-118.4405372478067874908447265625">
        <ele>3755</ele>
        <time>2021-06-26T20:05:44.000Z</time>
        <extensions>
          <ns3:TrackPointExtension>
            <ns3:atemp>33.0</ns3:atemp>
            <ns3:hr>106</ns3:hr>
          </ns3:TrackPointExtension>
        </extensions>
      </trkpt>
      <trkpt lat="36.81705060414969921112060546875" lon="-118.44050548039376735687255859375">
        <ele>3754.60009765625</ele>
        <time>2021-06-26T20:05:51.000Z</time>
        <extensions>
          <ns3:TrackPointExtension>
            <ns3:atemp>32.0</ns3:atemp>
            <ns3:hr>108</ns3:hr>
          </ns3:TrackPointExtension>
        </extensions>
      </trkpt>
      <trkpt lat="36.817052699625492095947265625" lon="-118.44050749205052852630615234375">
        <ele>3754.39990234375</ele>
        <time>2021-06-26T20:05:53.000Z</time>
        <extensions>
          <ns3:TrackPointExtension>
            <ns3:atemp>32.0</ns3:atemp>
            <ns3:hr>112</ns3:hr>
          </ns3:TrackPointExtension>
        </extensions>
      </trkpt>
      <trkpt lat="36.81705311872065067291259765625" lon="-118.4405057318508625030517578125">
        <ele>3754.39990234375</ele>
        <time>2021-06-26T20:05:54.000Z</time>
        <extensions>
          <ns3:TrackPointExtension>
            <ns3:atemp>32.0</ns3:atemp>
            <ns3:hr>115</ns3:hr>
          </ns3:TrackPointExtension>
        </extensions>
      </trkpt>
      <trkpt lat="36.8170475028455257415771484375" lon="-118.440505228936672210693359375">
        <ele>3754</ele>
        <time>2021-06-26T20:05:56.000Z</time>
        <extensions>
          <ns3:TrackPointExtension>
            <ns3:atemp>32.0</ns3:atemp>
            <ns3:hr>118</ns3:hr>
          </ns3:TrackPointExtension>
        </extensions>
      </trkpt>
      <trkpt lat="36.817039288580417633056640625" lon="-118.4404963441193103790283203125">
        <ele>3753.39990234375</ele>
        <time>2021-06-26T20:05:59.000Z</time>
        <extensions>
          <ns3:TrackPointExtension>
            <ns3:atemp>32.0</ns3:atemp>
            <ns3:hr>118</ns3:hr>
          </ns3:TrackPointExtension>
        </extensions>
      </trkpt>
      <trkpt lat="36.81703635491430759429931640625" lon="-118.44049408100545406341552734375">
        <ele>3753.39990234375</ele>
        <time>2021-06-26T20:06:00.000Z</time>
        <extensions>
          <ns3:TrackPointExtension>
            <ns3:atemp>32.0</ns3:atemp>
            <ns3:hr>117</ns3:hr>
          </ns3:TrackPointExtension>
        </extensions>
      </trkpt>
      <trkpt lat="36.81702864356338977813720703125" lon="-118.4404946677386760711669921875">
        <ele>3752.800048828125</ele>
        <time>2021-06-26T20:06:02.000Z</time>
        <extensions>
          <ns3:TrackPointExtension>
            <ns3:atemp>32.0</ns3:atemp>
            <ns3:hr>114</ns3:hr>
          </ns3:TrackPointExtension>
        </extensions>
      </trkpt>
      <trkpt lat="36.81701959110796451568603515625" lon="-118.4405070729553699493408203125">
        <ele>3752.199951171875</ele>
        <time>2021-06-26T20:06:04.000Z</time>
        <extensions>
          <ns3:TrackPointExtension>
            <ns3:atemp>32.0</ns3:atemp>
            <ns3:hr>112</ns3:hr>
          </ns3:TrackPointExtension>
        </extensions>
      </trkpt>
      <trkpt lat="36.81701414287090301513671875" lon="-118.4405028820037841796875">
        <ele>3752.199951171875</ele>
        <time>2021-06-26T20:06:06.000Z</time>
        <extensions>
          <ns3:TrackPointExtension>
            <ns3:atemp>32.0</ns3:atemp>
            <ns3:hr>111</ns3:hr>
          </ns3:TrackPointExtension>
        </extensions>
      </trkpt>
      <trkpt lat="36.8170133046805858612060546875" lon="-118.4404903091490268707275390625">
        <ele>3751.199951171875</ele>
        <time>2021-06-26T20:06:11.000Z</time>
        <extensions>
          <ns3:TrackPointExtension>
            <ns3:atemp>32.0</ns3:atemp>
            <ns3:hr>110</ns3:hr>
          </ns3:TrackPointExtension>
        </extensions>
      </trkpt>
      <trkpt lat="36.81701305322349071502685546875" lon="-118.44048670493066310882568359375">
        <ele>3750.800048828125</ele>
        <time>2021-06-26T20:06:12.000Z</time>
        <extensions>
          <ns3:TrackPointExtension>
            <ns3:atemp>32.0</ns3:atemp>
            <ns3:hr>110</ns3:hr>
          </ns3:TrackPointExtension>
        </extensions>
      </trkpt>
      <trkpt lat="36.817013137042522430419921875" lon="-118.44044613651931285858154296875">
        <ele>3750.199951171875</ele>
        <time>2021-06-26T20:06:18.000Z</time>
        <extensions>
          <ns3:TrackPointExtension>
            <ns3:atemp>32.0</ns3:atemp>
            <ns3:hr>114</ns3:hr>
          </ns3:TrackPointExtension>
        </extensions>
      </trkpt>
      <trkpt lat="36.81701372377574443817138671875" lon="-118.440441526472568511962890625">
        <ele>3749.199951171875</ele>
        <time>2021-06-26T20:06:19.000Z</time>
        <extensions>
          <ns3:TrackPointExtension>
            <ns3:atemp>32.0</ns3:atemp>
            <ns3:hr>116</ns3:hr>
          </ns3:TrackPointExtension>
        </extensions>
      </trkpt>
      <trkpt lat="36.817015148699283599853515625" lon="-118.4404346533119678497314453125">
        <ele>3749</ele>
        <time>2021-06-26T20:06:21.000Z</time>
        <extensions>
          <ns3:TrackPointExtension>
            <ns3:atemp>32.0</ns3:atemp>
            <ns3:hr>120</ns3:hr>
          </ns3:TrackPointExtension>
        </extensions>
      </trkpt>
      <trkpt lat="36.817015819251537322998046875" lon="-118.4404269419610500335693359375">
        <ele>3748.60009765625</ele>
        <time>2021-06-26T20:06:23.000Z</time>
        <extensions>
          <ns3:TrackPointExtension>
            <ns3:atemp>32.0</ns3:atemp>
            <ns3:hr>123</ns3:hr>
          </ns3:TrackPointExtension>
        </extensions>
      </trkpt>
      <trkpt lat="36.81701623834669589996337890625" lon="-118.44042216427624225616455078125">
        <ele>3748.60009765625</ele>
        <time>2021-06-26T20:06:24.000Z</time>
        <extensions>
          <ns3:TrackPointExtension>
            <ns3:atemp>32.0</ns3:atemp>
            <ns3:hr>120</ns3:hr>
          </ns3:TrackPointExtension>
        </extensions>
      </trkpt>
      <trkpt lat="36.81702193804085254669189453125" lon="-118.44041378237307071685791015625">
        <ele>3748.199951171875</ele>
        <time>2021-06-26T20:06:27.000Z</time>
        <extensions>
          <ns3:TrackPointExtension>
            <ns3:atemp>32.0</ns3:atemp>
            <ns3:hr>117</ns3:hr>
          </ns3:TrackPointExtension>
        </extensions>
      </trkpt>
      <trkpt lat="36.8170213513076305389404296875" lon="-118.440409004688262939453125">
        <ele>3747.800048828125</ele>
        <time>2021-06-26T20:06:28.000Z</time>
        <extensions>
          <ns3:TrackPointExtension>
            <ns3:atemp>32.0</ns3:atemp>
            <ns3:hr>117</ns3:hr>
          </ns3:TrackPointExtension>
        </extensions>
      </trkpt>
      <trkpt lat="36.81701355613768100738525390625" lon="-118.4403977729380130767822265625">
        <ele>3747.800048828125</ele>
        <time>2021-06-26T20:06:30.000Z</time>
        <extensions>
          <ns3:TrackPointExtension>
            <ns3:atemp>32.0</ns3:atemp>
            <ns3:hr>114</ns3:hr>
          </ns3:TrackPointExtension>
        </extensions>
      </trkpt>
      <trkpt lat="36.8170054256916046142578125" lon="-118.44039081595838069915771484375">
        <ele>3747.60009765625</ele>
        <time>2021-06-26T20:06:32.000Z</time>
        <extensions>
          <ns3:TrackPointExtension>
            <ns3:atemp>32.0</ns3:atemp>
            <ns3:hr>111</ns3:hr>
          </ns3:TrackPointExtension>
        </extensions>
      </trkpt>
      <trkpt lat="36.81700400076806545257568359375" lon="-118.44038343988358974456787109375">
        <ele>3747.60009765625</ele>
        <time>2021-06-26T20:06:34.000Z</time>
        <extensions>
          <ns3:TrackPointExtension>
            <ns3:atemp>32.0</ns3:atemp>
            <ns3:hr>110</ns3:hr>
          </ns3:TrackPointExtension>
        </extensions>
      </trkpt>
      <trkpt lat="36.8170039169490337371826171875" lon="-118.4403789974749088287353515625">
        <ele>3747.60009765625</ele>
        <time>2021-06-26T20:06:35.000Z</time>
        <extensions>
          <ns3:TrackPointExtension>
            <ns3:atemp>32.0</ns3:atemp>
            <ns3:hr>107</ns3:hr>
          </ns3:TrackPointExtension>
        </extensions>
      </trkpt>
      <trkpt lat="36.81699578650295734405517578125" lon="-118.44038209877908229827880859375">
        <ele>3746.800048828125</ele>
        <time>2021-06-26T20:06:37.000Z</time>
        <extensions>
          <ns3:TrackPointExtension>
            <ns3:atemp>32.0</ns3:atemp>
            <ns3:hr>109</ns3:hr>
          </ns3:TrackPointExtension>
        </extensions>
      </trkpt>
      <trkpt lat="36.816983632743358612060546875" lon="-118.44038897193968296051025390625">
        <ele>3746.39990234375</ele>
        <time>2021-06-26T20:06:40.000Z</time>
        <extensions>
          <ns3:TrackPointExtension>
            <ns3:atemp>32.0</ns3:atemp>
            <ns3:hr>108</ns3:hr>
          </ns3:TrackPointExtension>
        </extensions>
      </trkpt>
      <trkpt lat="36.8169730715453624725341796875" lon="-118.44038444571197032928466796875">
        <ele>3745.60009765625</ele>
        <time>2021-06-26T20:06:42.000Z</time>
        <extensions>
          <ns3:TrackPointExtension>
            <ns3:atemp>32.0</ns3:atemp>
            <ns3:hr>109</ns3:hr>
          </ns3:TrackPointExtension>
        </extensions>
      </trkpt>
      <trkpt lat="36.81696762330830097198486328125" lon="-118.44038008712232112884521484375">
        <ele>3745.800048828125</ele>
        <time>2021-06-26T20:06:47.000Z</time>
        <extensions>
          <ns3:TrackPointExtension>
            <ns3:atemp>32.0</ns3:atemp>
            <ns3:hr>112</ns3:hr>
          </ns3:TrackPointExtension>
        </extensions>
      </trkpt>
      <trkpt lat="36.81697382591664791107177734375" lon="-118.4403766505420207977294921875">
        <ele>3745.800048828125</ele>
        <time>2021-06-26T20:06:49.000Z</time>
        <extensions>
          <ns3:TrackPointExtension>
            <ns3:atemp>32.0</ns3:atemp>
            <ns3:hr>116</ns3:hr>
          </ns3:TrackPointExtension>
        </extensions>
      </trkpt>
      <trkpt lat="36.81697064079344272613525390625" lon="-118.44035946764051914215087890625">
        <ele>3744.800048828125</ele>
        <time>2021-06-26T20:06:53.000Z</time>
        <extensions>
          <ns3:TrackPointExtension>
            <ns3:atemp>32.0</ns3:atemp>
            <ns3:hr>119</ns3:hr>
          </ns3:TrackPointExtension>
        </extensions>
      </trkpt>
      <trkpt lat="36.81696879677474498748779296875" lon="-118.44035510905086994171142578125">
        <ele>3744.60009765625</ele>
        <time>2021-06-26T20:06:54.000Z</time>
        <extensions>
          <ns3:TrackPointExtension>
            <ns3:atemp>32.0</ns3:atemp>
            <ns3:hr>119</ns3:hr>
          </ns3:TrackPointExtension>
        </extensions>
      </trkpt>
      <trkpt lat="36.8169633485376834869384765625" lon="-118.44035091809928417205810546875">
        <ele>3744.60009765625</ele>
        <time>2021-06-26T20:06:55.000Z</time>
        <extensions>
          <ns3:TrackPointExtension>
            <ns3:atemp>32.0</ns3:atemp>
            <ns3:hr>119</ns3:hr>
          </ns3:TrackPointExtension>
        </extensions>
      </trkpt>
      <trkpt lat="36.81695052422583103179931640625" lon="-118.44034991227090358734130859375">
        <ele>3744.39990234375</ele>
        <time>2021-06-26T20:06:57.000Z</time>
        <extensions>
          <ns3:TrackPointExtension>
            <ns3:atemp>32.0</ns3:atemp>
            <ns3:hr>120</ns3:hr>
          </ns3:TrackPointExtension>
        </extensions>
      </trkpt>
      <trkpt lat="36.8169489316642284393310546875" lon="-118.440346308052539825439453125">
        <ele>3744.39990234375</ele>
        <time>2021-06-26T20:07:01.000Z</time>
        <extensions>
          <ns3:TrackPointExtension>
            <ns3:atemp>32.0</ns3:atemp>
            <ns3:hr>118</ns3:hr>
          </ns3:TrackPointExtension>
        </extensions>
      </trkpt>
      <trkpt lat="36.8169667012989521026611328125" lon="-118.44029827974736690521240234375">
        <ele>3743.60009765625</ele>
        <time>2021-06-26T20:07:10.000Z</time>
        <extensions>
          <ns3:TrackPointExtension>
            <ns3:atemp>32.0</ns3:atemp>
            <ns3:hr>116</ns3:hr>
          </ns3:TrackPointExtension>
        </extensions>
      </trkpt>
      <trkpt lat="36.816960163414478302001953125" lon="-118.440297357738018035888671875">
        <ele>3743.39990234375</ele>
        <time>2021-06-26T20:07:12.000Z</time>
        <extensions>
          <ns3:TrackPointExtension>
            <ns3:atemp>32.0</ns3:atemp>
            <ns3:hr>117</ns3:hr>
          </ns3:TrackPointExtension>
        </extensions>
      </trkpt>
      <trkpt lat="36.81695320643484592437744140625" lon="-118.44029509462416172027587890625">
        <ele>3741.800048828125</ele>
        <time>2021-06-26T20:07:15.000Z</time>
        <extensions>
          <ns3:TrackPointExtension>
            <ns3:atemp>32.0</ns3:atemp>
            <ns3:hr>117</ns3:hr>
          </ns3:TrackPointExtension>
        </extensions>
      </trkpt>
      <trkpt lat="36.81693141348659992218017578125" lon="-118.44029073603451251983642578125">
        <ele>3740.60009765625</ele>
        <time>2021-06-26T20:07:20.000Z</time>
        <extensions>
          <ns3:TrackPointExtension>
            <ns3:atemp>32.0</ns3:atemp>
            <ns3:hr>114</ns3:hr>
          </ns3:TrackPointExtension>
        </extensions>
      </trkpt>
      <trkpt lat="36.81691951118409633636474609375" lon="-118.44029040075838565826416015625">
        <ele>3740</ele>
        <time>2021-06-26T20:07:26.000Z</time>
        <extensions>
          <ns3:TrackPointExtension>
            <ns3:atemp>32.0</ns3:atemp>
            <ns3:hr>111</ns3:hr>
          </ns3:TrackPointExtension>
        </extensions>
      </trkpt>
      <trkpt lat="36.81691951118409633636474609375" lon="-118.44029040075838565826416015625">
        <ele>3740</ele>
        <time>2021-06-26T20:07:27.000Z</time>
        <extensions>
          <ns3:TrackPointExtension>
            <ns3:atemp>32.0</ns3:atemp>
            <ns3:hr>111</ns3:hr>
          </ns3:TrackPointExtension>
        </extensions>
      </trkpt>
      <trkpt lat="36.81691951118409633636474609375" lon="-118.44029040075838565826416015625">
        <ele>3739.60009765625</ele>
        <time>2021-06-26T20:07:29.000Z</time>
        <extensions>
          <ns3:TrackPointExtension>
            <ns3:atemp>32.0</ns3:atemp>
            <ns3:hr>110</ns3:hr>
          </ns3:TrackPointExtension>
        </extensions>
      </trkpt>
      <trkpt lat="36.81691951118409633636474609375" lon="-118.44029040075838565826416015625">
        <ele>3739.800048828125</ele>
        <time>2021-06-26T20:07:33.000Z</time>
        <extensions>
          <ns3:TrackPointExtension>
            <ns3:atemp>32.0</ns3:atemp>
            <ns3:hr>113</ns3:hr>
          </ns3:TrackPointExtension>
        </extensions>
      </trkpt>
      <trkpt lat="36.81692026555538177490234375" lon="-118.440290652215480804443359375">
        <ele>3740.800048828125</ele>
        <time>2021-06-26T20:07:38.000Z</time>
        <extensions>
          <ns3:TrackPointExtension>
            <ns3:atemp>32.0</ns3:atemp>
            <ns3:hr>113</ns3:hr>
          </ns3:TrackPointExtension>
        </extensions>
      </trkpt>
      <trkpt lat="36.816920600831508636474609375" lon="-118.4402955137193202972412109375">
        <ele>3740.800048828125</ele>
        <time>2021-06-26T20:07:46.000Z</time>
        <extensions>
          <ns3:TrackPointExtension>
            <ns3:atemp>31.0</ns3:atemp>
            <ns3:hr>110</ns3:hr>
          </ns3:TrackPointExtension>
        </extensions>
      </trkpt>
      <trkpt lat="36.816920600831508636474609375" lon="-118.440300710499286651611328125">
        <ele>3740.800048828125</ele>
        <time>2021-06-26T20:07:51.000Z</time>
        <extensions>
          <ns3:TrackPointExtension>
            <ns3:atemp>31.0</ns3:atemp>
            <ns3:hr>109</ns3:hr>
          </ns3:TrackPointExtension>
        </extensions>
      </trkpt>
      <trkpt lat="36.81692889891564846038818359375" lon="-118.44029375351965427398681640625">
        <ele>3739.60009765625</ele>
        <time>2021-06-26T20:08:06.000Z</time>
        <extensions>
          <ns3:TrackPointExtension>
            <ns3:atemp>31.0</ns3:atemp>
            <ns3:hr>110</ns3:hr>
          </ns3:TrackPointExtension>
        </extensions>
      </trkpt>
      <trkpt lat="36.81693091057240962982177734375" lon="-118.44027824699878692626953125">
        <ele>3738.60009765625</ele>
        <time>2021-06-26T20:08:10.000Z</time>
        <extensions>
          <ns3:TrackPointExtension>
            <ns3:atemp>31.0</ns3:atemp>
            <ns3:hr>107</ns3:hr>
          </ns3:TrackPointExtension>
        </extensions>
      </trkpt>
      <trkpt lat="36.8169356882572174072265625" lon="-118.4402616508305072784423828125">
        <ele>3737.39990234375</ele>
        <time>2021-06-26T20:08:16.000Z</time>
        <extensions>
          <ns3:TrackPointExtension>
            <ns3:atemp>31.0</ns3:atemp>
            <ns3:hr>105</ns3:hr>
          </ns3:TrackPointExtension>
        </extensions>
      </trkpt>
      <trkpt lat="36.8169392086565494537353515625" lon="-118.440243713557720184326171875">
        <ele>3736.199951171875</ele>
        <time>2021-06-26T20:08:22.000Z</time>
        <extensions>
          <ns3:TrackPointExtension>
            <ns3:atemp>31.0</ns3:atemp>
            <ns3:hr>103</ns3:hr>
          </ns3:TrackPointExtension>
        </extensions>
      </trkpt>
      <trkpt lat="36.81693996302783489227294921875" lon="-118.44022753648459911346435546875">
        <ele>3735.199951171875</ele>
        <time>2021-06-26T20:08:29.000Z</time>
        <extensions>
          <ns3:TrackPointExtension>
            <ns3:atemp>31.0</ns3:atemp>
            <ns3:hr>102</ns3:hr>
          </ns3:TrackPointExtension>
        </extensions>
      </trkpt>
      <trkpt lat="36.8169398792088031768798828125" lon="-118.44020188786089420318603515625">
        <ele>3734.60009765625</ele>
        <time>2021-06-26T20:08:34.000Z</time>
        <extensions>
          <ns3:TrackPointExtension>
            <ns3:atemp>31.0</ns3:atemp>
            <ns3:hr>105</ns3:hr>
          </ns3:TrackPointExtension>
        </extensions>
      </trkpt>
      <trkpt lat="36.81693962775170803070068359375" lon="-118.44019484706223011016845703125">
        <ele>3734</ele>
        <time>2021-06-26T20:08:36.000Z</time>
        <extensions>
          <ns3:TrackPointExtension>
            <ns3:atemp>31.0</ns3:atemp>
            <ns3:hr>105</ns3:hr>
          </ns3:TrackPointExtension>
        </extensions>
      </trkpt>
      <trkpt lat="36.81693744845688343048095703125" lon="-118.44015444628894329071044921875">
        <ele>3732.800048828125</ele>
        <time>2021-06-26T20:08:45.000Z</time>
        <extensions>
          <ns3:TrackPointExtension>
            <ns3:atemp>31.0</ns3:atemp>
            <ns3:hr>105</ns3:hr>
          </ns3:TrackPointExtension>
        </extensions>
      </trkpt>
      <trkpt lat="36.81692621670663356781005859375" lon="-118.44014505855739116668701171875">
        <ele>3732.39990234375</ele>
        <time>2021-06-26T20:08:49.000Z</time>
        <extensions>
          <ns3:TrackPointExtension>
            <ns3:atemp>31.0</ns3:atemp>
            <ns3:hr>107</ns3:hr>
          </ns3:TrackPointExtension>
        </extensions>
      </trkpt>
      <trkpt lat="36.81692185811698436737060546875" lon="-118.440113626420497894287109375">
        <ele>3732</ele>
        <time>2021-06-26T20:08:55.000Z</time>
        <extensions>
          <ns3:TrackPointExtension>
            <ns3:atemp>31.0</ns3:atemp>
            <ns3:hr>107</ns3:hr>
          </ns3:TrackPointExtension>
        </extensions>
      </trkpt>
      <trkpt lat="36.816896460950374603271484375" lon="-118.4401101060211658477783203125">
        <ele>3732.199951171875</ele>
        <time>2021-06-26T20:09:03.000Z</time>
        <extensions>
          <ns3:TrackPointExtension>
            <ns3:atemp>31.0</ns3:atemp>
            <ns3:hr>110</ns3:hr>
          </ns3:TrackPointExtension>
        </extensions>
      </trkpt>
      <trkpt lat="36.81689210236072540283203125" lon="-118.44011270441114902496337890625">
        <ele>3732.199951171875</ele>
        <time>2021-06-26T20:09:17.000Z</time>
        <extensions>
          <ns3:TrackPointExtension>
            <ns3:atemp>31.0</ns3:atemp>
            <ns3:hr>113</ns3:hr>
          </ns3:TrackPointExtension>
        </extensions>
      </trkpt>
      <trkpt lat="36.81689168326556682586669921875" lon="-118.4401233494281768798828125">
        <ele>3732.800048828125</ele>
        <time>2021-06-26T20:09:31.000Z</time>
        <extensions>
          <ns3:TrackPointExtension>
            <ns3:atemp>31.0</ns3:atemp>
            <ns3:hr>110</ns3:hr>
          </ns3:TrackPointExtension>
        </extensions>
      </trkpt>
      <trkpt lat="36.81689151562750339508056640625" lon="-118.440125025808811187744140625">
        <ele>3733.39990234375</ele>
        <time>2021-06-26T20:09:35.000Z</time>
        <extensions>
          <ns3:TrackPointExtension>
            <ns3:atemp>31.0</ns3:atemp>
            <ns3:hr>107</ns3:hr>
          </ns3:TrackPointExtension>
        </extensions>
      </trkpt>
      <trkpt lat="36.8168900907039642333984375" lon="-118.44012728892266750335693359375">
        <ele>3733.39990234375</ele>
        <time>2021-06-26T20:09:45.000Z</time>
        <extensions>
          <ns3:TrackPointExtension>
            <ns3:atemp>31.0</ns3:atemp>
            <ns3:hr>104</ns3:hr>
          </ns3:TrackPointExtension>
        </extensions>
      </trkpt>
      <trkpt lat="36.8168713152408599853515625" lon="-118.44012527726590633392333984375">
        <ele>3731.800048828125</ele>
        <time>2021-06-26T20:10:02.000Z</time>
        <extensions>
          <ns3:TrackPointExtension>
            <ns3:atemp>31.0</ns3:atemp>
            <ns3:hr>107</ns3:hr>
          </ns3:TrackPointExtension>
        </extensions>
      </trkpt>
      <trkpt lat="36.81685999967157840728759765625" lon="-118.4401208348572254180908203125">
        <ele>3731</ele>
        <time>2021-06-26T20:10:07.000Z</time>
        <extensions>
          <ns3:TrackPointExtension>
            <ns3:atemp>31.0</ns3:atemp>
            <ns3:hr>110</ns3:hr>
          </ns3:TrackPointExtension>
        </extensions>
      </trkpt>
      <trkpt lat="36.81682194583117961883544921875" lon="-118.44011773355305194854736328125">
        <ele>3731</ele>
        <time>2021-06-26T20:10:21.000Z</time>
        <extensions>
          <ns3:TrackPointExtension>
            <ns3:atemp>31.0</ns3:atemp>
            <ns3:hr>107</ns3:hr>
          </ns3:TrackPointExtension>
        </extensions>
      </trkpt>
      <trkpt lat="36.81681876070797443389892578125" lon="-118.44011605717241764068603515625">
        <ele>3730.39990234375</ele>
        <time>2021-06-26T20:10:26.000Z</time>
        <extensions>
          <ns3:TrackPointExtension>
            <ns3:atemp>31.0</ns3:atemp>
            <ns3:hr>107</ns3:hr>
          </ns3:TrackPointExtension>
        </extensions>
      </trkpt>
      <trkpt lat="36.81681574322283267974853515625" lon="-118.44011253677308559417724609375">
        <ele>3729.800048828125</ele>
        <time>2021-06-26T20:10:33.000Z</time>
        <extensions>
          <ns3:TrackPointExtension>
            <ns3:atemp>30.0</ns3:atemp>
            <ns3:hr>110</ns3:hr>
          </ns3:TrackPointExtension>
        </extensions>
      </trkpt>
      <trkpt lat="36.81681297719478607177734375" lon="-118.44010499306023120880126953125">
        <ele>3729.60009765625</ele>
        <time>2021-06-26T20:10:38.000Z</time>
        <extensions>
          <ns3:TrackPointExtension>
            <ns3:atemp>30.0</ns3:atemp>
            <ns3:hr>113</ns3:hr>
          </ns3:TrackPointExtension>
        </extensions>
      </trkpt>
      <trkpt lat="36.81680199690163135528564453125" lon="-118.44009158201515674591064453125">
        <ele>3729.39990234375</ele>
        <time>2021-06-26T20:10:44.000Z</time>
        <extensions>
          <ns3:TrackPointExtension>
            <ns3:atemp>30.0</ns3:atemp>
            <ns3:hr>111</ns3:hr>
          </ns3:TrackPointExtension>
        </extensions>
      </trkpt>
      <trkpt lat="36.81680099107325077056884765625" lon="-118.44009024091064929962158203125">
        <ele>3729.199951171875</ele>
        <time>2021-06-26T20:10:45.000Z</time>
        <extensions>
          <ns3:TrackPointExtension>
            <ns3:atemp>30.0</ns3:atemp>
            <ns3:hr>111</ns3:hr>
          </ns3:TrackPointExtension>
        </extensions>
      </trkpt>
      <trkpt lat="36.8167762644588947296142578125" lon="-118.44008521176874637603759765625">
        <ele>3728.60009765625</ele>
        <time>2021-06-26T20:10:53.000Z</time>
        <extensions>
          <ns3:TrackPointExtension>
            <ns3:atemp>30.0</ns3:atemp>
            <ns3:hr>108</ns3:hr>
          </ns3:TrackPointExtension>
        </extensions>
      </trkpt>
      <trkpt lat="36.81677165441215038299560546875" lon="-118.440080769360065460205078125">
        <ele>3728.199951171875</ele>
        <time>2021-06-26T20:10:54.000Z</time>
        <extensions>
          <ns3:TrackPointExtension>
            <ns3:atemp>30.0</ns3:atemp>
            <ns3:hr>109</ns3:hr>
          </ns3:TrackPointExtension>
        </extensions>
      </trkpt>
      <trkpt lat="36.81675472296774387359619140625" lon="-118.44003944657742977142333984375">
        <ele>3727.800048828125</ele>
        <time>2021-06-26T20:10:59.000Z</time>
        <extensions>
          <ns3:TrackPointExtension>
            <ns3:atemp>30.0</ns3:atemp>
            <ns3:hr>107</ns3:hr>
          </ns3:TrackPointExtension>
        </extensions>
      </trkpt>
      <trkpt lat="36.81675237603485584259033203125" lon="-118.439990244805812835693359375">
        <ele>3727</ele>
        <time>2021-06-26T20:11:04.000Z</time>
        <extensions>
          <ns3:TrackPointExtension>
            <ns3:atemp>30.0</ns3:atemp>
            <ns3:hr>109</ns3:hr>
          </ns3:TrackPointExtension>
        </extensions>
      </trkpt>
      <trkpt lat="36.8167534656822681427001953125" lon="-118.43996174633502960205078125">
        <ele>3726.39990234375</ele>
        <time>2021-06-26T20:11:10.000Z</time>
        <extensions>
          <ns3:TrackPointExtension>
            <ns3:atemp>30.0</ns3:atemp>
            <ns3:hr>110</ns3:hr>
          </ns3:TrackPointExtension>
        </extensions>
      </trkpt>
      <trkpt lat="36.816749274730682373046875" lon="-118.43996132723987102508544921875">
        <ele>3725.800048828125</ele>
        <time>2021-06-26T20:11:11.000Z</time>
        <extensions>
          <ns3:TrackPointExtension>
            <ns3:atemp>30.0</ns3:atemp>
            <ns3:hr>110</ns3:hr>
          </ns3:TrackPointExtension>
        </extensions>
      </trkpt>
      <trkpt lat="36.816730834543704986572265625" lon="-118.43995898030698299407958984375">
        <ele>3724.800048828125</ele>
        <time>2021-06-26T20:11:15.000Z</time>
        <extensions>
          <ns3:TrackPointExtension>
            <ns3:atemp>30.0</ns3:atemp>
            <ns3:hr>109</ns3:hr>
          </ns3:TrackPointExtension>
        </extensions>
      </trkpt>
      <trkpt lat="36.8167219497263431549072265625" lon="-118.4399511851370334625244140625">
        <ele>3724.800048828125</ele>
        <time>2021-06-26T20:11:18.000Z</time>
        <extensions>
          <ns3:TrackPointExtension>
            <ns3:atemp>30.0</ns3:atemp>
            <ns3:hr>108</ns3:hr>
          </ns3:TrackPointExtension>
        </extensions>
      </trkpt>
      <trkpt lat="36.8167085386812686920166015625" lon="-118.43992947600781917572021484375">
        <ele>3724.800048828125</ele>
        <time>2021-06-26T20:11:26.000Z</time>
        <extensions>
          <ns3:TrackPointExtension>
            <ns3:atemp>30.0</ns3:atemp>
            <ns3:hr>105</ns3:hr>
          </ns3:TrackPointExtension>
        </extensions>
      </trkpt>
      <trkpt lat="36.81670141406357288360595703125" lon="-118.43990868888795375823974609375">
        <ele>3723.800048828125</ele>
        <time>2021-06-26T20:11:29.000Z</time>
        <extensions>
          <ns3:TrackPointExtension>
            <ns3:atemp>30.0</ns3:atemp>
            <ns3:hr>105</ns3:hr>
          </ns3:TrackPointExtension>
        </extensions>
      </trkpt>
      <trkpt lat="36.8166823871433734893798828125" lon="-118.43990952707827091217041015625">
        <ele>3723</ele>
        <time>2021-06-26T20:11:33.000Z</time>
        <extensions>
          <ns3:TrackPointExtension>
            <ns3:atemp>30.0</ns3:atemp>
            <ns3:hr>110</ns3:hr>
          </ns3:TrackPointExtension>
        </extensions>
      </trkpt>
      <trkpt lat="36.816679537296295166015625" lon="-118.4399089403450489044189453125">
        <ele>3723</ele>
        <time>2021-06-26T20:11:34.000Z</time>
        <extensions>
          <ns3:TrackPointExtension>
            <ns3:atemp>30.0</ns3:atemp>
            <ns3:hr>114</ns3:hr>
          </ns3:TrackPointExtension>
        </extensions>
      </trkpt>
      <trkpt lat="36.816673837602138519287109375" lon="-118.4399060904979705810546875">
        <ele>3722.60009765625</ele>
        <time>2021-06-26T20:11:35.000Z</time>
        <extensions>
          <ns3:TrackPointExtension>
            <ns3:atemp>30.0</ns3:atemp>
            <ns3:hr>116</ns3:hr>
          </ns3:TrackPointExtension>
        </extensions>
      </trkpt>
      <trkpt lat="36.81666570715606212615966796875" lon="-118.43991287983953952789306640625">
        <ele>3722.60009765625</ele>
        <time>2021-06-26T20:11:37.000Z</time>
        <extensions>
          <ns3:TrackPointExtension>
            <ns3:atemp>30.0</ns3:atemp>
            <ns3:hr>120</ns3:hr>
          </ns3:TrackPointExtension>
        </extensions>
      </trkpt>
      <trkpt lat="36.81665766052901744842529296875" lon="-118.43991757370531558990478515625">
        <ele>3722.199951171875</ele>
        <time>2021-06-26T20:11:39.000Z</time>
        <extensions>
          <ns3:TrackPointExtension>
            <ns3:atemp>30.0</ns3:atemp>
            <ns3:hr>123</ns3:hr>
          </ns3:TrackPointExtension>
        </extensions>
      </trkpt>
      <trkpt lat="36.81665112264454364776611328125" lon="-118.4399260394275188446044921875">
        <ele>3722.199951171875</ele>
        <time>2021-06-26T20:11:41.000Z</time>
        <extensions>
          <ns3:TrackPointExtension>
            <ns3:atemp>30.0</ns3:atemp>
            <ns3:hr>126</ns3:hr>
          </ns3:TrackPointExtension>
        </extensions>
      </trkpt>
      <trkpt lat="36.81664533913135528564453125" lon="-118.439923860132694244384765625">
        <ele>3721.800048828125</ele>
        <time>2021-06-26T20:11:43.000Z</time>
        <extensions>
          <ns3:TrackPointExtension>
            <ns3:atemp>30.0</ns3:atemp>
            <ns3:hr>129</ns3:hr>
          </ns3:TrackPointExtension>
        </extensions>
      </trkpt>
      <trkpt lat="36.81663989089429378509521484375" lon="-118.43992260284721851348876953125">
        <ele>3721.60009765625</ele>
        <time>2021-06-26T20:11:44.000Z</time>
        <extensions>
          <ns3:TrackPointExtension>
            <ns3:atemp>30.0</ns3:atemp>
            <ns3:hr>130</ns3:hr>
          </ns3:TrackPointExtension>
        </extensions>
      </trkpt>
      <trkpt lat="36.81662078015506267547607421875" lon="-118.439933247864246368408203125">
        <ele>3720.800048828125</ele>
        <time>2021-06-26T20:11:50.000Z</time>
        <extensions>
          <ns3:TrackPointExtension>
            <ns3:atemp>30.0</ns3:atemp>
            <ns3:hr>128</ns3:hr>
          </ns3:TrackPointExtension>
        </extensions>
      </trkpt>
      <trkpt lat="36.8166149966418743133544921875" lon="-118.4399277158081531524658203125">
        <ele>3720.60009765625</ele>
        <time>2021-06-26T20:11:53.000Z</time>
        <extensions>
          <ns3:TrackPointExtension>
            <ns3:atemp>30.0</ns3:atemp>
            <ns3:hr>128</ns3:hr>
          </ns3:TrackPointExtension>
        </extensions>
      </trkpt>
      <trkpt lat="36.81658809073269367218017578125" lon="-118.43993626534938812255859375">
        <ele>3719.800048828125</ele>
        <time>2021-06-26T20:11:58.000Z</time>
        <extensions>
          <ns3:TrackPointExtension>
            <ns3:atemp>30.0</ns3:atemp>
            <ns3:hr>126</ns3:hr>
          </ns3:TrackPointExtension>
        </extensions>
      </trkpt>
      <trkpt lat="36.81657652370631694793701171875" lon="-118.4399317391216754913330078125">
        <ele>3719.60009765625</ele>
        <time>2021-06-26T20:12:02.000Z</time>
        <extensions>
          <ns3:TrackPointExtension>
            <ns3:atemp>30.0</ns3:atemp>
            <ns3:hr>126</ns3:hr>
          </ns3:TrackPointExtension>
        </extensions>
      </trkpt>
      <trkpt lat="36.81656889617443084716796875" lon="-118.43992092646658420562744140625">
        <ele>3719.39990234375</ele>
        <time>2021-06-26T20:12:05.000Z</time>
        <extensions>
          <ns3:TrackPointExtension>
            <ns3:atemp>30.0</ns3:atemp>
            <ns3:hr>126</ns3:hr>
          </ns3:TrackPointExtension>
        </extensions>
      </trkpt>
      <trkpt lat="36.8165610171854496002197265625" lon="-118.43990298919379711151123046875">
        <ele>3718.800048828125</ele>
        <time>2021-06-26T20:12:09.000Z</time>
        <extensions>
          <ns3:TrackPointExtension>
            <ns3:atemp>30.0</ns3:atemp>
            <ns3:hr>125</ns3:hr>
          </ns3:TrackPointExtension>
        </extensions>
      </trkpt>
      <trkpt lat="36.81655506603419780731201171875" lon="-118.439901731908321380615234375">
        <ele>3718</ele>
        <time>2021-06-26T20:12:10.000Z</time>
        <extensions>
          <ns3:TrackPointExtension>
            <ns3:atemp>30.0</ns3:atemp>
            <ns3:hr>125</ns3:hr>
          </ns3:TrackPointExtension>
        </extensions>
      </trkpt>
      <trkpt lat="36.816550791263580322265625" lon="-118.43989511020481586456298828125">
        <ele>3717.800048828125</ele>
        <time>2021-06-26T20:12:12.000Z</time>
        <extensions>
          <ns3:TrackPointExtension>
            <ns3:atemp>30.0</ns3:atemp>
            <ns3:hr>126</ns3:hr>
          </ns3:TrackPointExtension>
        </extensions>
      </trkpt>
      <trkpt lat="36.8165333569049835205078125" lon="-118.4398801065981388092041015625">
        <ele>3717</ele>
        <time>2021-06-26T20:12:17.000Z</time>
        <extensions>
          <ns3:TrackPointExtension>
            <ns3:atemp>30.0</ns3:atemp>
            <ns3:hr>124</ns3:hr>
          </ns3:TrackPointExtension>
        </extensions>
      </trkpt>
      <trkpt lat="36.8165258131921291351318359375" lon="-118.43986275605857372283935546875">
        <ele>3716.60009765625</ele>
        <time>2021-06-26T20:12:20.000Z</time>
        <extensions>
          <ns3:TrackPointExtension>
            <ns3:atemp>30.0</ns3:atemp>
            <ns3:hr>121</ns3:hr>
          </ns3:TrackPointExtension>
        </extensions>
      </trkpt>
      <trkpt lat="36.8165170960128307342529296875" lon="-118.4398646838963031768798828125">
        <ele>3715.800048828125</ele>
        <time>2021-06-26T20:12:22.000Z</time>
        <extensions>
          <ns3:TrackPointExtension>
            <ns3:atemp>30.0</ns3:atemp>
            <ns3:hr>120</ns3:hr>
          </ns3:TrackPointExtension>
        </extensions>
      </trkpt>
      <trkpt lat="36.81651064194738864898681640625" lon="-118.439856469631195068359375">
        <ele>3715.39990234375</ele>
        <time>2021-06-26T20:12:26.000Z</time>
        <extensions>
          <ns3:TrackPointExtension>
            <ns3:atemp>30.0</ns3:atemp>
            <ns3:hr>118</ns3:hr>
          </ns3:TrackPointExtension>
        </extensions>
      </trkpt>
      <trkpt lat="36.81648985482752323150634765625" lon="-118.43984331004321575164794921875">
        <ele>3714.800048828125</ele>
        <time>2021-06-26T20:12:32.000Z</time>
        <extensions>
          <ns3:TrackPointExtension>
            <ns3:atemp>30.0</ns3:atemp>
            <ns3:hr>116</ns3:hr>
          </ns3:TrackPointExtension>
        </extensions>
      </trkpt>
      <trkpt lat="36.81647510267794132232666015625" lon="-118.43983710743486881256103515625">
        <ele>3714.199951171875</ele>
        <time>2021-06-26T20:12:35.000Z</time>
        <extensions>
          <ns3:TrackPointExtension>
            <ns3:atemp>30.0</ns3:atemp>
            <ns3:hr>114</ns3:hr>
          </ns3:TrackPointExtension>
        </extensions>
      </trkpt>
      <trkpt lat="36.81646705605089664459228515625" lon="-118.4398157335817813873291015625">
        <ele>3713.39990234375</ele>
        <time>2021-06-26T20:12:39.000Z</time>
        <extensions>
          <ns3:TrackPointExtension>
            <ns3:atemp>30.0</ns3:atemp>
            <ns3:hr>111</ns3:hr>
          </ns3:TrackPointExtension>
        </extensions>
      </trkpt>
      <trkpt lat="36.81645213626325130462646484375" lon="-118.4398016519844532012939453125">
        <ele>3712.800048828125</ele>
        <time>2021-06-26T20:12:44.000Z</time>
        <extensions>
          <ns3:TrackPointExtension>
            <ns3:atemp>30.0</ns3:atemp>
            <ns3:hr>110</ns3:hr>
          </ns3:TrackPointExtension>
        </extensions>
      </trkpt>
      <trkpt lat="36.81644392199814319610595703125" lon="-118.4397892467677593231201171875">
        <ele>3712.199951171875</ele>
        <time>2021-06-26T20:12:48.000Z</time>
        <extensions>
          <ns3:TrackPointExtension>
            <ns3:atemp>30.0</ns3:atemp>
            <ns3:hr>111</ns3:hr>
          </ns3:TrackPointExtension>
        </extensions>
      </trkpt>
      <trkpt lat="36.81643973104655742645263671875" lon="-118.43978664837777614593505859375">
        <ele>3711.800048828125</ele>
        <time>2021-06-26T20:12:50.000Z</time>
        <extensions>
          <ns3:TrackPointExtension>
            <ns3:atemp>30.0</ns3:atemp>
            <ns3:hr>112</ns3:hr>
          </ns3:TrackPointExtension>
        </extensions>
      </trkpt>
      <trkpt lat="36.81643520481884479522705078125" lon="-118.43978606164455413818359375">
        <ele>3711.800048828125</ele>
        <time>2021-06-26T20:12:51.000Z</time>
        <extensions>
          <ns3:TrackPointExtension>
            <ns3:atemp>30.0</ns3:atemp>
            <ns3:hr>112</ns3:hr>
          </ns3:TrackPointExtension>
        </extensions>
      </trkpt>
      <trkpt lat="36.81642581708729267120361328125" lon="-118.439787067472934722900390625">
        <ele>3711.60009765625</ele>
        <time>2021-06-26T20:12:53.000Z</time>
        <extensions>
          <ns3:TrackPointExtension>
            <ns3:atemp>30.0</ns3:atemp>
            <ns3:hr>109</ns3:hr>
          </ns3:TrackPointExtension>
        </extensions>
      </trkpt>
      <trkpt lat="36.81641944684088230133056640625" lon="-118.4397909231483936309814453125">
        <ele>3711</ele>
        <time>2021-06-26T20:12:55.000Z</time>
        <extensions>
          <ns3:TrackPointExtension>
            <ns3:atemp>30.0</ns3:atemp>
            <ns3:hr>109</ns3:hr>
          </ns3:TrackPointExtension>
        </extensions>
      </trkpt>
      <trkpt lat="36.8164207041263580322265625" lon="-118.43977457843720912933349609375">
        <ele>3710.39990234375</ele>
        <time>2021-06-26T20:13:00.000Z</time>
        <extensions>
          <ns3:TrackPointExtension>
            <ns3:atemp>30.0</ns3:atemp>
            <ns3:hr>107</ns3:hr>
          </ns3:TrackPointExtension>
        </extensions>
      </trkpt>
      <trkpt lat="36.8164228834211826324462890625" lon="-118.43974825926125049591064453125">
        <ele>3710</ele>
        <time>2021-06-26T20:13:04.000Z</time>
        <extensions>
          <ns3:TrackPointExtension>
            <ns3:atemp>30.0</ns3:atemp>
            <ns3:hr>106</ns3:hr>
          </ns3:TrackPointExtension>
        </extensions>
      </trkpt>
      <trkpt lat="36.816427409648895263671875" lon="-118.4397299028933048248291015625">
        <ele>3709.60009765625</ele>
        <time>2021-06-26T20:13:07.000Z</time>
        <extensions>
          <ns3:TrackPointExtension>
            <ns3:atemp>30.0</ns3:atemp>
            <ns3:hr>106</ns3:hr>
          </ns3:TrackPointExtension>
        </extensions>
      </trkpt>
      <trkpt lat="36.81642145849764347076416015625" lon="-118.4397128038108348846435546875">
        <ele>3709</ele>
        <time>2021-06-26T20:13:10.000Z</time>
        <extensions>
          <ns3:TrackPointExtension>
            <ns3:atemp>30.0</ns3:atemp>
            <ns3:hr>109</ns3:hr>
          </ns3:TrackPointExtension>
        </extensions>
      </trkpt>
      <trkpt lat="36.81642137467861175537109375" lon="-118.439707942306995391845703125">
        <ele>3709</ele>
        <time>2021-06-26T20:13:11.000Z</time>
        <extensions>
          <ns3:TrackPointExtension>
            <ns3:atemp>30.0</ns3:atemp>
            <ns3:hr>109</ns3:hr>
          </ns3:TrackPointExtension>
        </extensions>
      </trkpt>
      <trkpt lat="36.81642933748662471771240234375" lon="-118.439695872366428375244140625">
        <ele>3708.60009765625</ele>
        <time>2021-06-26T20:13:13.000Z</time>
        <extensions>
          <ns3:TrackPointExtension>
            <ns3:atemp>30.0</ns3:atemp>
            <ns3:hr>109</ns3:hr>
          </ns3:TrackPointExtension>
        </extensions>
      </trkpt>
      <trkpt lat="36.81643151678144931793212890625" lon="-118.43967416323721408843994140625">
        <ele>3707.800048828125</ele>
        <time>2021-06-26T20:13:18.000Z</time>
        <extensions>
          <ns3:TrackPointExtension>
            <ns3:atemp>30.0</ns3:atemp>
            <ns3:hr>110</ns3:hr>
          </ns3:TrackPointExtension>
        </extensions>
      </trkpt>
      <trkpt lat="36.81643034331500530242919921875" lon="-118.43967030756175518035888671875">
        <ele>3707.800048828125</ele>
        <time>2021-06-26T20:13:19.000Z</time>
        <extensions>
          <ns3:TrackPointExtension>
            <ns3:atemp>30.0</ns3:atemp>
            <ns3:hr>110</ns3:hr>
          </ns3:TrackPointExtension>
        </extensions>
      </trkpt>
      <trkpt lat="36.8164248950779438018798828125" lon="-118.4396470896899700164794921875">
        <ele>3706.800048828125</ele>
        <time>2021-06-26T20:13:23.000Z</time>
        <extensions>
          <ns3:TrackPointExtension>
            <ns3:atemp>30.0</ns3:atemp>
            <ns3:hr>109</ns3:hr>
          </ns3:TrackPointExtension>
        </extensions>
      </trkpt>
      <trkpt lat="36.8164134956896305084228515625" lon="-118.43964147381484508514404296875">
        <ele>3706.60009765625</ele>
        <time>2021-06-26T20:13:25.000Z</time>
        <extensions>
          <ns3:TrackPointExtension>
            <ns3:atemp>30.0</ns3:atemp>
            <ns3:hr>111</ns3:hr>
          </ns3:TrackPointExtension>
        </extensions>
      </trkpt>
      <trkpt lat="36.81640586815774440765380859375" lon="-118.43964097090065479278564453125">
        <ele>3706</ele>
        <time>2021-06-26T20:13:29.000Z</time>
        <extensions>
          <ns3:TrackPointExtension>
            <ns3:atemp>30.0</ns3:atemp>
            <ns3:hr>107</ns3:hr>
          </ns3:TrackPointExtension>
        </extensions>
      </trkpt>
      <trkpt lat="36.816382817924022674560546875" lon="-118.4396353550255298614501953125">
        <ele>3705.800048828125</ele>
        <time>2021-06-26T20:13:33.000Z</time>
        <extensions>
          <ns3:TrackPointExtension>
            <ns3:atemp>30.0</ns3:atemp>
            <ns3:hr>108</ns3:hr>
          </ns3:TrackPointExtension>
        </extensions>
      </trkpt>
      <trkpt lat="36.81636630557477474212646484375" lon="-118.4396477602422237396240234375">
        <ele>3705</ele>
        <time>2021-06-26T20:13:36.000Z</time>
        <extensions>
          <ns3:TrackPointExtension>
            <ns3:atemp>30.0</ns3:atemp>
            <ns3:hr>109</ns3:hr>
          </ns3:TrackPointExtension>
        </extensions>
      </trkpt>
      <trkpt lat="36.81636194698512554168701171875" lon="-118.4396420605480670928955078125">
        <ele>3704.39990234375</ele>
        <time>2021-06-26T20:13:39.000Z</time>
        <extensions>
          <ns3:TrackPointExtension>
            <ns3:atemp>30.0</ns3:atemp>
            <ns3:hr>109</ns3:hr>
          </ns3:TrackPointExtension>
        </extensions>
      </trkpt>
      <trkpt lat="36.8163719214498996734619140625" lon="-118.4396030008792877197265625">
        <ele>3704</ele>
        <time>2021-06-26T20:13:46.000Z</time>
        <extensions>
          <ns3:TrackPointExtension>
            <ns3:atemp>30.0</ns3:atemp>
            <ns3:hr>108</ns3:hr>
          </ns3:TrackPointExtension>
        </extensions>
      </trkpt>
      <trkpt lat="36.81636949069797992706298828125" lon="-118.4395954571664333343505859375">
        <ele>3703.800048828125</ele>
        <time>2021-06-26T20:13:47.000Z</time>
        <extensions>
          <ns3:TrackPointExtension>
            <ns3:atemp>30.0</ns3:atemp>
            <ns3:hr>110</ns3:hr>
          </ns3:TrackPointExtension>
        </extensions>
      </trkpt>
      <trkpt lat="36.81636144407093524932861328125" lon="-118.43957358039915561676025390625">
        <ele>3703.39990234375</ele>
        <time>2021-06-26T20:13:51.000Z</time>
        <extensions>
          <ns3:TrackPointExtension>
            <ns3:atemp>30.0</ns3:atemp>
            <ns3:hr>108</ns3:hr>
          </ns3:TrackPointExtension>
        </extensions>
      </trkpt>
      <trkpt lat="36.81634736247360706329345703125" lon="-118.43957148492336273193359375">
        <ele>3702.800048828125</ele>
        <time>2021-06-26T20:13:54.000Z</time>
        <extensions>
          <ns3:TrackPointExtension>
            <ns3:atemp>30.0</ns3:atemp>
            <ns3:hr>108</ns3:hr>
          </ns3:TrackPointExtension>
        </extensions>
      </trkpt>
      <trkpt lat="36.816342584788799285888671875" lon="-118.43957408331334590911865234375">
        <ele>3702.800048828125</ele>
        <time>2021-06-26T20:13:55.000Z</time>
        <extensions>
          <ns3:TrackPointExtension>
            <ns3:atemp>30.0</ns3:atemp>
            <ns3:hr>109</ns3:hr>
          </ns3:TrackPointExtension>
        </extensions>
      </trkpt>
      <trkpt lat="36.8163383938372135162353515625" lon="-118.43957391567528247833251953125">
        <ele>3702.60009765625</ele>
        <time>2021-06-26T20:13:57.000Z</time>
        <extensions>
          <ns3:TrackPointExtension>
            <ns3:atemp>30.0</ns3:atemp>
            <ns3:hr>108</ns3:hr>
          </ns3:TrackPointExtension>
        </extensions>
      </trkpt>
      <trkpt lat="36.816336214542388916015625" lon="-118.43957106582820415496826171875">
        <ele>3702.199951171875</ele>
        <time>2021-06-26T20:13:58.000Z</time>
        <extensions>
          <ns3:TrackPointExtension>
            <ns3:atemp>30.0</ns3:atemp>
            <ns3:hr>108</ns3:hr>
          </ns3:TrackPointExtension>
        </extensions>
      </trkpt>
      <trkpt lat="36.816336549818515777587890625" lon="-118.4395589120686054229736328125">
        <ele>3701.800048828125</ele>
        <time>2021-06-26T20:14:01.000Z</time>
        <extensions>
          <ns3:TrackPointExtension>
            <ns3:atemp>30.0</ns3:atemp>
            <ns3:hr>106</ns3:hr>
          </ns3:TrackPointExtension>
        </extensions>
      </trkpt>
      <trkpt lat="36.81633822619915008544921875" lon="-118.4395525418221950531005859375">
        <ele>3701.800048828125</ele>
        <time>2021-06-26T20:14:02.000Z</time>
        <extensions>
          <ns3:TrackPointExtension>
            <ns3:atemp>30.0</ns3:atemp>
            <ns3:hr>106</ns3:hr>
          </ns3:TrackPointExtension>
        </extensions>
      </trkpt>
      <trkpt lat="36.816342584788799285888671875" lon="-118.43954407609999179840087890625">
        <ele>3701.60009765625</ele>
        <time>2021-06-26T20:14:04.000Z</time>
        <extensions>
          <ns3:TrackPointExtension>
            <ns3:atemp>30.0</ns3:atemp>
            <ns3:hr>106</ns3:hr>
          </ns3:TrackPointExtension>
        </extensions>
      </trkpt>
      <trkpt lat="36.81633026339113712310791015625" lon="-118.43952278606593608856201171875">
        <ele>3700.800048828125</ele>
        <time>2021-06-26T20:14:09.000Z</time>
        <extensions>
          <ns3:TrackPointExtension>
            <ns3:atemp>30.0</ns3:atemp>
            <ns3:hr>106</ns3:hr>
          </ns3:TrackPointExtension>
        </extensions>
      </trkpt>
      <trkpt lat="36.81632758118212223052978515625" lon="-118.43952454626560211181640625">
        <ele>3700.199951171875</ele>
        <time>2021-06-26T20:14:10.000Z</time>
        <extensions>
          <ns3:TrackPointExtension>
            <ns3:atemp>30.0</ns3:atemp>
            <ns3:hr>106</ns3:hr>
          </ns3:TrackPointExtension>
        </extensions>
      </trkpt>
      <trkpt lat="36.81632255204021930694580078125" lon="-118.43951256014406681060791015625">
        <ele>3699.800048828125</ele>
        <time>2021-06-26T20:14:13.000Z</time>
        <extensions>
          <ns3:TrackPointExtension>
            <ns3:atemp>30.0</ns3:atemp>
            <ns3:hr>106</ns3:hr>
          </ns3:TrackPointExtension>
        </extensions>
      </trkpt>
      <trkpt lat="36.8163206242024898529052734375" lon="-118.43950199894607067108154296875">
        <ele>3699.60009765625</ele>
        <time>2021-06-26T20:14:15.000Z</time>
        <extensions>
          <ns3:TrackPointExtension>
            <ns3:atemp>30.0</ns3:atemp>
            <ns3:hr>105</ns3:hr>
          </ns3:TrackPointExtension>
        </extensions>
      </trkpt>
      <trkpt lat="36.81631769053637981414794921875" lon="-118.4394891746342182159423828125">
        <ele>3699.199951171875</ele>
        <time>2021-06-26T20:14:17.000Z</time>
        <extensions>
          <ns3:TrackPointExtension>
            <ns3:atemp>30.0</ns3:atemp>
            <ns3:hr>104</ns3:hr>
          </ns3:TrackPointExtension>
        </extensions>
      </trkpt>
      <trkpt lat="36.81631676852703094482421875" lon="-118.43947920016944408416748046875">
        <ele>3699</ele>
        <time>2021-06-26T20:14:18.000Z</time>
        <extensions>
          <ns3:TrackPointExtension>
            <ns3:atemp>30.0</ns3:atemp>
            <ns3:hr>104</ns3:hr>
          </ns3:TrackPointExtension>
        </extensions>
      </trkpt>
      <trkpt lat="36.81631903164088726043701171875" lon="-118.43945506028831005096435546875">
        <ele>3698.800048828125</ele>
        <time>2021-06-26T20:14:21.000Z</time>
        <extensions>
          <ns3:TrackPointExtension>
            <ns3:atemp>30.0</ns3:atemp>
            <ns3:hr>103</ns3:hr>
          </ns3:TrackPointExtension>
        </extensions>
      </trkpt>
      <trkpt lat="36.81630696170032024383544921875" lon="-118.43944667838513851165771484375">
        <ele>3697.39990234375</ele>
        <time>2021-06-26T20:14:24.000Z</time>
        <extensions>
          <ns3:TrackPointExtension>
            <ns3:atemp>30.0</ns3:atemp>
            <ns3:hr>102</ns3:hr>
          </ns3:TrackPointExtension>
        </extensions>
      </trkpt>
      <trkpt lat="36.8163021840155124664306640625" lon="-118.43944936059415340423583984375">
        <ele>3697</ele>
        <time>2021-06-26T20:14:25.000Z</time>
        <extensions>
          <ns3:TrackPointExtension>
            <ns3:atemp>29.0</ns3:atemp>
            <ns3:hr>102</ns3:hr>
          </ns3:TrackPointExtension>
        </extensions>
      </trkpt>
      <trkpt lat="36.816297657787799835205078125" lon="-118.43945371918380260467529296875">
        <ele>3697</ele>
        <time>2021-06-26T20:14:26.000Z</time>
        <extensions>
          <ns3:TrackPointExtension>
            <ns3:atemp>30.0</ns3:atemp>
            <ns3:hr>102</ns3:hr>
          </ns3:TrackPointExtension>
        </extensions>
      </trkpt>
      <trkpt lat="36.8162917904555797576904296875" lon="-118.43946277163922786712646484375">
        <ele>3696.800048828125</ele>
        <time>2021-06-26T20:14:28.000Z</time>
        <extensions>
          <ns3:TrackPointExtension>
            <ns3:atemp>30.0</ns3:atemp>
            <ns3:hr>102</ns3:hr>
          </ns3:TrackPointExtension>
        </extensions>
      </trkpt>
      <trkpt lat="36.816283576190471649169921875" lon="-118.43946017324924468994140625">
        <ele>3696.199951171875</ele>
        <time>2021-06-26T20:14:30.000Z</time>
        <extensions>
          <ns3:TrackPointExtension>
            <ns3:atemp>30.0</ns3:atemp>
            <ns3:hr>102</ns3:hr>
          </ns3:TrackPointExtension>
        </extensions>
      </trkpt>
      <trkpt lat="36.81628248654305934906005859375" lon="-118.4394512884318828582763671875">
        <ele>3696.199951171875</ele>
        <time>2021-06-26T20:14:32.000Z</time>
        <extensions>
          <ns3:TrackPointExtension>
            <ns3:atemp>30.0</ns3:atemp>
            <ns3:hr>102</ns3:hr>
          </ns3:TrackPointExtension>
        </extensions>
      </trkpt>
      <trkpt lat="36.81628986261785030364990234375" lon="-118.4394294954836368560791015625">
        <ele>3695.800048828125</ele>
        <time>2021-06-26T20:14:35.000Z</time>
        <extensions>
          <ns3:TrackPointExtension>
            <ns3:atemp>29.0</ns3:atemp>
            <ns3:hr>102</ns3:hr>
          </ns3:TrackPointExtension>
        </extensions>
      </trkpt>
      <trkpt lat="36.8162924610078334808349609375" lon="-118.439421616494655609130859375">
        <ele>3695.39990234375</ele>
        <time>2021-06-26T20:14:36.000Z</time>
        <extensions>
          <ns3:TrackPointExtension>
            <ns3:atemp>29.0</ns3:atemp>
            <ns3:hr>102</ns3:hr>
          </ns3:TrackPointExtension>
        </extensions>
      </trkpt>
      <trkpt lat="36.8162958137691020965576171875" lon="-118.43940862454473972320556640625">
        <ele>3695.199951171875</ele>
        <time>2021-06-26T20:14:38.000Z</time>
        <extensions>
          <ns3:TrackPointExtension>
            <ns3:atemp>29.0</ns3:atemp>
            <ns3:hr>102</ns3:hr>
          </ns3:TrackPointExtension>
        </extensions>
      </trkpt>
      <trkpt lat="36.8162946403026580810546875" lon="-118.43940108083188533782958984375">
        <ele>3694.800048828125</ele>
        <time>2021-06-26T20:14:39.000Z</time>
        <extensions>
          <ns3:TrackPointExtension>
            <ns3:atemp>29.0</ns3:atemp>
            <ns3:hr>102</ns3:hr>
          </ns3:TrackPointExtension>
        </extensions>
      </trkpt>
      <trkpt lat="36.81629522703588008880615234375" lon="-118.43939437530934810638427734375">
        <ele>3694.60009765625</ele>
        <time>2021-06-26T20:14:40.000Z</time>
        <extensions>
          <ns3:TrackPointExtension>
            <ns3:atemp>29.0</ns3:atemp>
            <ns3:hr>101</ns3:hr>
          </ns3:TrackPointExtension>
        </extensions>
      </trkpt>
      <trkpt lat="36.8162984959781169891357421875" lon="-118.43938171863555908203125">
        <ele>3694.60009765625</ele>
        <time>2021-06-26T20:14:42.000Z</time>
        <extensions>
          <ns3:TrackPointExtension>
            <ns3:atemp>29.0</ns3:atemp>
            <ns3:hr>101</ns3:hr>
          </ns3:TrackPointExtension>
        </extensions>
      </trkpt>
      <trkpt lat="36.81627452373504638671875" lon="-118.4393745101988315582275390625">
        <ele>3694</ele>
        <time>2021-06-26T20:14:47.000Z</time>
        <extensions>
          <ns3:TrackPointExtension>
            <ns3:atemp>29.0</ns3:atemp>
            <ns3:hr>100</ns3:hr>
          </ns3:TrackPointExtension>
        </extensions>
      </trkpt>
      <trkpt lat="36.8162699975073337554931640625" lon="-118.4393771924078464508056640625">
        <ele>3693.60009765625</ele>
        <time>2021-06-26T20:14:48.000Z</time>
        <extensions>
          <ns3:TrackPointExtension>
            <ns3:atemp>29.0</ns3:atemp>
            <ns3:hr>99</ns3:hr>
          </ns3:TrackPointExtension>
        </extensions>
      </trkpt>
      <trkpt lat="36.816262118518352508544921875" lon="-118.43937962315976619720458984375">
        <ele>3693.199951171875</ele>
        <time>2021-06-26T20:14:50.000Z</time>
        <extensions>
          <ns3:TrackPointExtension>
            <ns3:atemp>29.0</ns3:atemp>
            <ns3:hr>100</ns3:hr>
          </ns3:TrackPointExtension>
        </extensions>
      </trkpt>
      <trkpt lat="36.816242001950740814208984375" lon="-118.43938465230166912078857421875">
        <ele>3692.39990234375</ele>
        <time>2021-06-26T20:14:55.000Z</time>
        <extensions>
          <ns3:TrackPointExtension>
            <ns3:atemp>29.0</ns3:atemp>
            <ns3:hr>99</ns3:hr>
          </ns3:TrackPointExtension>
        </extensions>
      </trkpt>
      <trkpt lat="36.81623890064656734466552734375" lon="-118.43938163481652736663818359375">
        <ele>3692.199951171875</ele>
        <time>2021-06-26T20:14:56.000Z</time>
        <extensions>
          <ns3:TrackPointExtension>
            <ns3:atemp>29.0</ns3:atemp>
            <ns3:hr>98</ns3:hr>
          </ns3:TrackPointExtension>
        </extensions>
      </trkpt>
      <trkpt lat="36.81622548960149288177490234375" lon="-118.43937677331268787384033203125">
        <ele>3691.39990234375</ele>
        <time>2021-06-26T20:14:59.000Z</time>
        <extensions>
          <ns3:TrackPointExtension>
            <ns3:atemp>29.0</ns3:atemp>
            <ns3:hr>99</ns3:hr>
          </ns3:TrackPointExtension>
        </extensions>
      </trkpt>
      <trkpt lat="36.8162079714238643646240234375" lon="-118.43938012607395648956298828125">
        <ele>3691</ele>
        <time>2021-06-26T20:15:04.000Z</time>
        <extensions>
          <ns3:TrackPointExtension>
            <ns3:atemp>29.0</ns3:atemp>
            <ns3:hr>100</ns3:hr>
          </ns3:TrackPointExtension>
        </extensions>
      </trkpt>
      <trkpt lat="36.81620688177645206451416015625" lon="-118.43936420045793056488037109375">
        <ele>3690.39990234375</ele>
        <time>2021-06-26T20:15:08.000Z</time>
        <extensions>
          <ns3:TrackPointExtension>
            <ns3:atemp>29.0</ns3:atemp>
            <ns3:hr>97</ns3:hr>
          </ns3:TrackPointExtension>
        </extensions>
      </trkpt>
      <trkpt lat="36.81619967333972454071044921875" lon="-118.43935481272637844085693359375">
        <ele>3690</ele>
        <time>2021-06-26T20:15:11.000Z</time>
        <extensions>
          <ns3:TrackPointExtension>
            <ns3:atemp>29.0</ns3:atemp>
            <ns3:hr>96</ns3:hr>
          </ns3:TrackPointExtension>
        </extensions>
      </trkpt>
      <trkpt lat="36.81619028560817241668701171875" lon="-118.43935866840183734893798828125">
        <ele>3689</ele>
        <time>2021-06-26T20:15:14.000Z</time>
        <extensions>
          <ns3:TrackPointExtension>
            <ns3:atemp>29.0</ns3:atemp>
            <ns3:hr>97</ns3:hr>
          </ns3:TrackPointExtension>
        </extensions>
      </trkpt>
      <trkpt lat="36.81618492119014263153076171875" lon="-118.43934559263288974761962890625">
        <ele>3688.39990234375</ele>
        <time>2021-06-26T20:15:18.000Z</time>
        <extensions>
          <ns3:TrackPointExtension>
            <ns3:atemp>29.0</ns3:atemp>
            <ns3:hr>95</ns3:hr>
          </ns3:TrackPointExtension>
        </extensions>
      </trkpt>
      <trkpt lat="36.8161774612963199615478515625" lon="-118.43933754600584506988525390625">
        <ele>3688</ele>
        <time>2021-06-26T20:15:20.000Z</time>
        <extensions>
          <ns3:TrackPointExtension>
            <ns3:atemp>29.0</ns3:atemp>
            <ns3:hr>95</ns3:hr>
          </ns3:TrackPointExtension>
        </extensions>
      </trkpt>
      <trkpt lat="36.81617519818246364593505859375" lon="-118.43931776471436023712158203125">
        <ele>3687.60009765625</ele>
        <time>2021-06-26T20:15:25.000Z</time>
        <extensions>
          <ns3:TrackPointExtension>
            <ns3:atemp>29.0</ns3:atemp>
            <ns3:hr>95</ns3:hr>
          </ns3:TrackPointExtension>
        </extensions>
      </trkpt>
      <trkpt lat="36.81616924703121185302734375" lon="-118.439285494387149810791015625">
        <ele>3686.800048828125</ele>
        <time>2021-06-26T20:15:29.000Z</time>
        <extensions>
          <ns3:TrackPointExtension>
            <ns3:atemp>29.0</ns3:atemp>
            <ns3:hr>95</ns3:hr>
          </ns3:TrackPointExtension>
        </extensions>
      </trkpt>
      <trkpt lat="36.8161606974899768829345703125" lon="-118.43925766646862030029296875">
        <ele>3685.39990234375</ele>
        <time>2021-06-26T20:15:33.000Z</time>
        <extensions>
          <ns3:TrackPointExtension>
            <ns3:atemp>29.0</ns3:atemp>
            <ns3:hr>93</ns3:hr>
          </ns3:TrackPointExtension>
        </extensions>
      </trkpt>
      <trkpt lat="36.81615223176777362823486328125" lon="-118.43923076055943965911865234375">
        <ele>3684</ele>
        <time>2021-06-26T20:15:37.000Z</time>
        <extensions>
          <ns3:TrackPointExtension>
            <ns3:atemp>29.0</ns3:atemp>
            <ns3:hr>97</ns3:hr>
          </ns3:TrackPointExtension>
        </extensions>
      </trkpt>
      <trkpt lat="36.8161375634372234344482421875" lon="-118.43922975473105907440185546875">
        <ele>3683.60009765625</ele>
        <time>2021-06-26T20:15:40.000Z</time>
        <extensions>
          <ns3:TrackPointExtension>
            <ns3:atemp>29.0</ns3:atemp>
            <ns3:hr>102</ns3:hr>
          </ns3:TrackPointExtension>
        </extensions>
      </trkpt>
      <trkpt lat="36.81613345630466938018798828125" lon="-118.4392343647778034210205078125">
        <ele>3683.60009765625</ele>
        <time>2021-06-26T20:15:41.000Z</time>
        <extensions>
          <ns3:TrackPointExtension>
            <ns3:atemp>29.0</ns3:atemp>
            <ns3:hr>105</ns3:hr>
          </ns3:TrackPointExtension>
        </extensions>
      </trkpt>
      <trkpt lat="36.8161298520863056182861328125" lon="-118.43924023211002349853515625">
        <ele>3683.39990234375</ele>
        <time>2021-06-26T20:15:42.000Z</time>
        <extensions>
          <ns3:TrackPointExtension>
            <ns3:atemp>29.0</ns3:atemp>
            <ns3:hr>109</ns3:hr>
          </ns3:TrackPointExtension>
        </extensions>
      </trkpt>
      <trkpt lat="36.8161271698772907257080078125" lon="-118.43924333341419696807861328125">
        <ele>3683.39990234375</ele>
        <time>2021-06-26T20:15:43.000Z</time>
        <extensions>
          <ns3:TrackPointExtension>
            <ns3:atemp>29.0</ns3:atemp>
            <ns3:hr>112</ns3:hr>
          </ns3:TrackPointExtension>
        </extensions>
      </trkpt>
      <trkpt lat="36.8161140941083431243896484375" lon="-118.43924953602254390716552734375">
        <ele>3683</ele>
        <time>2021-06-26T20:15:46.000Z</time>
        <extensions>
          <ns3:TrackPointExtension>
            <ns3:atemp>29.0</ns3:atemp>
            <ns3:hr>116</ns3:hr>
          </ns3:TrackPointExtension>
        </extensions>
      </trkpt>
      <trkpt lat="36.8161060474812984466552734375" lon="-118.43924785964190959930419921875">
        <ele>3682.199951171875</ele>
        <time>2021-06-26T20:15:49.000Z</time>
        <extensions>
          <ns3:TrackPointExtension>
            <ns3:atemp>29.0</ns3:atemp>
            <ns3:hr>118</ns3:hr>
          </ns3:TrackPointExtension>
        </extensions>
      </trkpt>
      <trkpt lat="36.81611023843288421630859375" lon="-118.439225144684314727783203125">
        <ele>3681.60009765625</ele>
        <time>2021-06-26T20:15:52.000Z</time>
        <extensions>
          <ns3:TrackPointExtension>
            <ns3:atemp>29.0</ns3:atemp>
            <ns3:hr>121</ns3:hr>
          </ns3:TrackPointExtension>
        </extensions>
      </trkpt>
      <trkpt lat="36.81610981933772563934326171875" lon="-118.439204692840576171875">
        <ele>3680.800048828125</ele>
        <time>2021-06-26T20:15:55.000Z</time>
        <extensions>
          <ns3:TrackPointExtension>
            <ns3:atemp>29.0</ns3:atemp>
            <ns3:hr>119</ns3:hr>
          </ns3:TrackPointExtension>
        </extensions>
      </trkpt>
      <trkpt lat="36.8161070533096790313720703125" lon="-118.43919329345226287841796875">
        <ele>3680.60009765625</ele>
        <time>2021-06-26T20:15:57.000Z</time>
        <extensions>
          <ns3:TrackPointExtension>
            <ns3:atemp>29.0</ns3:atemp>
            <ns3:hr>116</ns3:hr>
          </ns3:TrackPointExtension>
        </extensions>
      </trkpt>
      <trkpt lat="36.81610596366226673126220703125" lon="-118.439190275967121124267578125">
        <ele>3680.60009765625</ele>
        <time>2021-06-26T20:15:58.000Z</time>
        <extensions>
          <ns3:TrackPointExtension>
            <ns3:atemp>29.0</ns3:atemp>
            <ns3:hr>115</ns3:hr>
          </ns3:TrackPointExtension>
        </extensions>
      </trkpt>
      <trkpt lat="36.8160983361303806304931640625" lon="-118.43918927013874053955078125">
        <ele>3680.199951171875</ele>
        <time>2021-06-26T20:16:00.000Z</time>
        <extensions>
          <ns3:TrackPointExtension>
            <ns3:atemp>29.0</ns3:atemp>
            <ns3:hr>112</ns3:hr>
          </ns3:TrackPointExtension>
        </extensions>
      </trkpt>
      <trkpt lat="36.81608936749398708343505859375" lon="-118.43919840641319751739501953125">
        <ele>3679.800048828125</ele>
        <time>2021-06-26T20:16:02.000Z</time>
        <extensions>
          <ns3:TrackPointExtension>
            <ns3:atemp>29.0</ns3:atemp>
            <ns3:hr>113</ns3:hr>
          </ns3:TrackPointExtension>
        </extensions>
      </trkpt>
      <trkpt lat="36.8160879425704479217529296875" lon="-118.43920025043189525604248046875">
        <ele>3679.39990234375</ele>
        <time>2021-06-26T20:16:03.000Z</time>
        <extensions>
          <ns3:TrackPointExtension>
            <ns3:atemp>29.0</ns3:atemp>
            <ns3:hr>115</ns3:hr>
          </ns3:TrackPointExtension>
        </extensions>
      </trkpt>
      <trkpt lat="36.81606757454574108123779296875" lon="-118.43918851576745510101318359375">
        <ele>3678.39990234375</ele>
        <time>2021-06-26T20:16:10.000Z</time>
        <extensions>
          <ns3:TrackPointExtension>
            <ns3:atemp>29.0</ns3:atemp>
            <ns3:hr>114</ns3:hr>
          </ns3:TrackPointExtension>
        </extensions>
      </trkpt>
      <trkpt lat="36.81606522761285305023193359375" lon="-118.43918918631970882415771484375">
        <ele>3677.800048828125</ele>
        <time>2021-06-26T20:16:11.000Z</time>
        <extensions>
          <ns3:TrackPointExtension>
            <ns3:atemp>29.0</ns3:atemp>
            <ns3:hr>115</ns3:hr>
          </ns3:TrackPointExtension>
        </extensions>
      </trkpt>
      <trkpt lat="36.8160604499280452728271484375" lon="-118.43918298371136188507080078125">
        <ele>3677</ele>
        <time>2021-06-26T20:16:18.000Z</time>
        <extensions>
          <ns3:TrackPointExtension>
            <ns3:atemp>29.0</ns3:atemp>
            <ns3:hr>116</ns3:hr>
          </ns3:TrackPointExtension>
        </extensions>
      </trkpt>
      <trkpt lat="36.8160604499280452728271484375" lon="-118.43918298371136188507080078125">
        <ele>3676.800048828125</ele>
        <time>2021-06-26T20:16:24.000Z</time>
        <extensions>
          <ns3:TrackPointExtension>
            <ns3:atemp>29.0</ns3:atemp>
            <ns3:hr>117</ns3:hr>
          </ns3:TrackPointExtension>
        </extensions>
      </trkpt>
      <trkpt lat="36.81603823788464069366455078125" lon="-118.43914543278515338897705078125">
        <ele>3675.60009765625</ele>
        <time>2021-06-26T20:16:33.000Z</time>
        <extensions>
          <ns3:TrackPointExtension>
            <ns3:atemp>29.0</ns3:atemp>
            <ns3:hr>115</ns3:hr>
          </ns3:TrackPointExtension>
        </extensions>
      </trkpt>
      <trkpt lat="36.816028766334056854248046875" lon="-118.43913696706295013427734375">
        <ele>3674.39990234375</ele>
        <time>2021-06-26T20:16:35.000Z</time>
        <extensions>
          <ns3:TrackPointExtension>
            <ns3:atemp>29.0</ns3:atemp>
            <ns3:hr>115</ns3:hr>
          </ns3:TrackPointExtension>
        </extensions>
      </trkpt>
      <trkpt lat="36.81601577438414096832275390625" lon="-118.43911794014275074005126953125">
        <ele>3674</ele>
        <time>2021-06-26T20:16:39.000Z</time>
        <extensions>
          <ns3:TrackPointExtension>
            <ns3:atemp>30.0</ns3:atemp>
            <ns3:hr>114</ns3:hr>
          </ns3:TrackPointExtension>
        </extensions>
      </trkpt>
      <trkpt lat="36.81600085459649562835693359375" lon="-118.43911492265760898590087890625">
        <ele>3673.199951171875</ele>
        <time>2021-06-26T20:16:41.000Z</time>
        <extensions>
          <ns3:TrackPointExtension>
            <ns3:atemp>29.0</ns3:atemp>
            <ns3:hr>114</ns3:hr>
          </ns3:TrackPointExtension>
        </extensions>
      </trkpt>
      <trkpt lat="36.8159960769116878509521484375" lon="-118.43909329734742641448974609375">
        <ele>3672.39990234375</ele>
        <time>2021-06-26T20:16:46.000Z</time>
        <extensions>
          <ns3:TrackPointExtension>
            <ns3:atemp>30.0</ns3:atemp>
            <ns3:hr>114</ns3:hr>
          </ns3:TrackPointExtension>
        </extensions>
      </trkpt>
      <trkpt lat="36.81599951349198818206787109375" lon="-118.43906932510435581207275390625">
        <ele>3672.199951171875</ele>
        <time>2021-06-26T20:16:51.000Z</time>
        <extensions>
          <ns3:TrackPointExtension>
            <ns3:atemp>29.0</ns3:atemp>
            <ns3:hr>113</ns3:hr>
          </ns3:TrackPointExtension>
        </extensions>
      </trkpt>
      <trkpt lat="36.8159856833517551422119140625" lon="-118.4390583448112010955810546875">
        <ele>3671.39990234375</ele>
        <time>2021-06-26T20:16:54.000Z</time>
        <extensions>
          <ns3:TrackPointExtension>
            <ns3:atemp>30.0</ns3:atemp>
            <ns3:hr>112</ns3:hr>
          </ns3:TrackPointExtension>
        </extensions>
      </trkpt>
      <trkpt lat="36.81598509661853313446044921875" lon="-118.439050801098346710205078125">
        <ele>3671.199951171875</ele>
        <time>2021-06-26T20:16:56.000Z</time>
        <extensions>
          <ns3:TrackPointExtension>
            <ns3:atemp>29.0</ns3:atemp>
            <ns3:hr>112</ns3:hr>
          </ns3:TrackPointExtension>
        </extensions>
      </trkpt>
      <trkpt lat="36.8159856833517551422119140625" lon="-118.4390102326869964599609375">
        <ele>3669.60009765625</ele>
        <time>2021-06-26T20:17:01.000Z</time>
        <extensions>
          <ns3:TrackPointExtension>
            <ns3:atemp>29.0</ns3:atemp>
            <ns3:hr>113</ns3:hr>
          </ns3:TrackPointExtension>
        </extensions>
      </trkpt>
      <trkpt lat="36.81598828174173831939697265625" lon="-118.438998162746429443359375">
        <ele>3669.39990234375</ele>
        <time>2021-06-26T20:17:02.000Z</time>
        <extensions>
          <ns3:TrackPointExtension>
            <ns3:atemp>29.0</ns3:atemp>
            <ns3:hr>116</ns3:hr>
          </ns3:TrackPointExtension>
        </extensions>
      </trkpt>
      <trkpt lat="36.81599029339849948883056640625" lon="-118.43898701481521129608154296875">
        <ele>3669.199951171875</ele>
        <time>2021-06-26T20:17:03.000Z</time>
        <extensions>
          <ns3:TrackPointExtension>
            <ns3:atemp>29.0</ns3:atemp>
            <ns3:hr>114</ns3:hr>
          </ns3:TrackPointExtension>
        </extensions>
      </trkpt>
      <trkpt lat="36.81598861701786518096923828125" lon="-118.43897796235978603363037109375">
        <ele>3668.39990234375</ele>
        <time>2021-06-26T20:17:04.000Z</time>
        <extensions>
          <ns3:TrackPointExtension>
            <ns3:atemp>29.0</ns3:atemp>
            <ns3:hr>113</ns3:hr>
          </ns3:TrackPointExtension>
        </extensions>
      </trkpt>
      <trkpt lat="36.8159789778292179107666015625" lon="-118.43896639533340930938720703125">
        <ele>3668</ele>
        <time>2021-06-26T20:17:07.000Z</time>
        <extensions>
          <ns3:TrackPointExtension>
            <ns3:atemp>29.0</ns3:atemp>
            <ns3:hr>112</ns3:hr>
          </ns3:TrackPointExtension>
        </extensions>
      </trkpt>
      <trkpt lat="36.81597922928631305694580078125" lon="-118.438965640962123870849609375">
        <ele>3667.800048828125</ele>
        <time>2021-06-26T20:17:10.000Z</time>
        <extensions>
          <ns3:TrackPointExtension>
            <ns3:atemp>29.0</ns3:atemp>
            <ns3:hr>112</ns3:hr>
          </ns3:TrackPointExtension>
        </extensions>
      </trkpt>
      <trkpt lat="36.81598023511469364166259765625" lon="-118.43896664679050445556640625">
        <ele>3668</ele>
        <time>2021-06-26T20:17:16.000Z</time>
        <extensions>
          <ns3:TrackPointExtension>
            <ns3:atemp>29.0</ns3:atemp>
            <ns3:hr>116</ns3:hr>
          </ns3:TrackPointExtension>
        </extensions>
      </trkpt>
      <trkpt lat="36.81598023511469364166259765625" lon="-118.43896664679050445556640625">
        <ele>3667.800048828125</ele>
        <time>2021-06-26T20:17:18.000Z</time>
        <extensions>
          <ns3:TrackPointExtension>
            <ns3:atemp>29.0</ns3:atemp>
            <ns3:hr>119</ns3:hr>
          </ns3:TrackPointExtension>
        </extensions>
      </trkpt>
      <trkpt lat="36.81598023511469364166259765625" lon="-118.43896664679050445556640625">
        <ele>3667.800048828125</ele>
        <time>2021-06-26T20:17:21.000Z</time>
        <extensions>
          <ns3:TrackPointExtension>
            <ns3:atemp>29.0</ns3:atemp>
            <ns3:hr>120</ns3:hr>
          </ns3:TrackPointExtension>
        </extensions>
      </trkpt>
      <trkpt lat="36.81598023511469364166259765625" lon="-118.43896664679050445556640625">
        <ele>3667.39990234375</ele>
        <time>2021-06-26T20:17:24.000Z</time>
        <extensions>
          <ns3:TrackPointExtension>
            <ns3:atemp>29.0</ns3:atemp>
            <ns3:hr>117</ns3:hr>
          </ns3:TrackPointExtension>
        </extensions>
      </trkpt>
      <trkpt lat="36.81598023511469364166259765625" lon="-118.43896664679050445556640625">
        <ele>3666.800048828125</ele>
        <time>2021-06-26T20:17:25.000Z</time>
        <extensions>
          <ns3:TrackPointExtension>
            <ns3:atemp>29.0</ns3:atemp>
            <ns3:hr>116</ns3:hr>
          </ns3:TrackPointExtension>
        </extensions>
      </trkpt>
      <trkpt lat="36.81597881019115447998046875" lon="-118.43896337784826755523681640625">
        <ele>3666.199951171875</ele>
        <time>2021-06-26T20:17:32.000Z</time>
        <extensions>
          <ns3:TrackPointExtension>
            <ns3:atemp>29.0</ns3:atemp>
            <ns3:hr>113</ns3:hr>
          </ns3:TrackPointExtension>
        </extensions>
      </trkpt>
      <trkpt lat="36.8159783072769641876220703125" lon="-118.43896287493407726287841796875">
        <ele>3665.800048828125</ele>
        <time>2021-06-26T20:17:33.000Z</time>
        <extensions>
          <ns3:TrackPointExtension>
            <ns3:atemp>29.0</ns3:atemp>
            <ns3:hr>112</ns3:hr>
          </ns3:TrackPointExtension>
        </extensions>
      </trkpt>
      <trkpt lat="36.81597118265926837921142578125" lon="-118.4389592707157135009765625">
        <ele>3664.60009765625</ele>
        <time>2021-06-26T20:17:37.000Z</time>
        <extensions>
          <ns3:TrackPointExtension>
            <ns3:atemp>29.0</ns3:atemp>
            <ns3:hr>109</ns3:hr>
          </ns3:TrackPointExtension>
        </extensions>
      </trkpt>
      <trkpt lat="36.815943606197834014892578125" lon="-118.43895633704960346221923828125">
        <ele>3663.39990234375</ele>
        <time>2021-06-26T20:17:43.000Z</time>
        <extensions>
          <ns3:TrackPointExtension>
            <ns3:atemp>29.0</ns3:atemp>
            <ns3:hr>111</ns3:hr>
          </ns3:TrackPointExtension>
        </extensions>
      </trkpt>
      <trkpt lat="36.81592307053506374359130859375" lon="-118.438917361199855804443359375">
        <ele>3662</ele>
        <time>2021-06-26T20:17:51.000Z</time>
        <extensions>
          <ns3:TrackPointExtension>
            <ns3:atemp>29.0</ns3:atemp>
            <ns3:hr>109</ns3:hr>
          </ns3:TrackPointExtension>
        </extensions>
      </trkpt>
      <trkpt lat="36.8159048818051815032958984375" lon="-118.43891057185828685760498046875">
        <ele>3660.39990234375</ele>
        <time>2021-06-26T20:17:55.000Z</time>
        <extensions>
          <ns3:TrackPointExtension>
            <ns3:atemp>29.0</ns3:atemp>
            <ns3:hr>109</ns3:hr>
          </ns3:TrackPointExtension>
        </extensions>
      </trkpt>
      <trkpt lat="36.81590060703456401824951171875" lon="-118.43887369148433208465576171875">
        <ele>3659.199951171875</ele>
        <time>2021-06-26T20:18:02.000Z</time>
        <extensions>
          <ns3:TrackPointExtension>
            <ns3:atemp>29.0</ns3:atemp>
            <ns3:hr>109</ns3:hr>
          </ns3:TrackPointExtension>
        </extensions>
      </trkpt>
      <trkpt lat="36.8158958293497562408447265625" lon="-118.43885399401187896728515625">
        <ele>3658.60009765625</ele>
        <time>2021-06-26T20:18:06.000Z</time>
        <extensions>
          <ns3:TrackPointExtension>
            <ns3:atemp>29.0</ns3:atemp>
            <ns3:hr>112</ns3:hr>
          </ns3:TrackPointExtension>
        </extensions>
      </trkpt>
      <trkpt lat="36.8158934824168682098388671875" lon="-118.43884854577481746673583984375">
        <ele>3658</ele>
        <time>2021-06-26T20:18:07.000Z</time>
        <extensions>
          <ns3:TrackPointExtension>
            <ns3:atemp>29.0</ns3:atemp>
            <ns3:hr>113</ns3:hr>
          </ns3:TrackPointExtension>
        </extensions>
      </trkpt>
      <trkpt lat="36.815818212926387786865234375" lon="-118.43884469009935855865478515625">
        <ele>3658.39990234375</ele>
        <time>2021-06-26T20:18:30.000Z</time>
        <extensions>
          <ns3:TrackPointExtension>
            <ns3:atemp>29.0</ns3:atemp>
            <ns3:hr>110</ns3:hr>
          </ns3:TrackPointExtension>
        </extensions>
      </trkpt>
      <trkpt lat="36.8158177100121974945068359375" lon="-118.4388451091945171356201171875">
        <ele>3658.39990234375</ele>
        <time>2021-06-26T20:18:32.000Z</time>
        <extensions>
          <ns3:TrackPointExtension>
            <ns3:atemp>29.0</ns3:atemp>
            <ns3:hr>107</ns3:hr>
          </ns3:TrackPointExtension>
        </extensions>
      </trkpt>
      <trkpt lat="36.815815865993499755859375" lon="-118.4388506412506103515625">
        <ele>3658.199951171875</ele>
        <time>2021-06-26T20:18:38.000Z</time>
        <extensions>
          <ns3:TrackPointExtension>
            <ns3:atemp>29.0</ns3:atemp>
            <ns3:hr>110</ns3:hr>
          </ns3:TrackPointExtension>
        </extensions>
      </trkpt>
      <trkpt lat="36.8158172070980072021484375" lon="-118.4388538263738155364990234375">
        <ele>3658.39990234375</ele>
        <time>2021-06-26T20:18:50.000Z</time>
        <extensions>
          <ns3:TrackPointExtension>
            <ns3:atemp>29.0</ns3:atemp>
            <ns3:hr>113</ns3:hr>
          </ns3:TrackPointExtension>
        </extensions>
      </trkpt>
      <trkpt lat="36.81581930257380008697509765625" lon="-118.438848964869976043701171875">
        <ele>3657</ele>
        <time>2021-06-26T20:19:12.000Z</time>
        <extensions>
          <ns3:TrackPointExtension>
            <ns3:atemp>29.0</ns3:atemp>
            <ns3:hr>110</ns3:hr>
          </ns3:TrackPointExtension>
        </extensions>
      </trkpt>
      <trkpt lat="36.8158203922212123870849609375" lon="-118.43883412890136241912841796875">
        <ele>3656.39990234375</ele>
        <time>2021-06-26T20:19:17.000Z</time>
        <extensions>
          <ns3:TrackPointExtension>
            <ns3:atemp>29.0</ns3:atemp>
            <ns3:hr>107</ns3:hr>
          </ns3:TrackPointExtension>
        </extensions>
      </trkpt>
      <trkpt lat="36.815820895135402679443359375" lon="-118.43883262015879154205322265625">
        <ele>3655.800048828125</ele>
        <time>2021-06-26T20:19:18.000Z</time>
        <extensions>
          <ns3:TrackPointExtension>
            <ns3:atemp>29.0</ns3:atemp>
            <ns3:hr>108</ns3:hr>
          </ns3:TrackPointExtension>
        </extensions>
      </trkpt>
      <trkpt lat="36.8158210627734661102294921875" lon="-118.43882624991238117218017578125">
        <ele>3654.800048828125</ele>
        <time>2021-06-26T20:19:22.000Z</time>
        <extensions>
          <ns3:TrackPointExtension>
            <ns3:atemp>29.0</ns3:atemp>
            <ns3:hr>112</ns3:hr>
          </ns3:TrackPointExtension>
        </extensions>
      </trkpt>
      <trkpt lat="36.81581628508865833282470703125" lon="-118.438786603510379791259765625">
        <ele>3653.800048828125</ele>
        <time>2021-06-26T20:19:30.000Z</time>
        <extensions>
          <ns3:TrackPointExtension>
            <ns3:atemp>29.0</ns3:atemp>
            <ns3:hr>113</ns3:hr>
          </ns3:TrackPointExtension>
        </extensions>
      </trkpt>
      <trkpt lat="36.8158156983554363250732421875" lon="-118.438770510256290435791015625">
        <ele>3653</ele>
        <time>2021-06-26T20:19:33.000Z</time>
        <extensions>
          <ns3:TrackPointExtension>
            <ns3:atemp>29.0</ns3:atemp>
            <ns3:hr>110</ns3:hr>
          </ns3:TrackPointExtension>
        </extensions>
      </trkpt>
      <trkpt lat="36.81581544689834117889404296875" lon="-118.43876682221889495849609375">
        <ele>3652.60009765625</ele>
        <time>2021-06-26T20:19:34.000Z</time>
        <extensions>
          <ns3:TrackPointExtension>
            <ns3:atemp>29.0</ns3:atemp>
            <ns3:hr>111</ns3:hr>
          </ns3:TrackPointExtension>
        </extensions>
      </trkpt>
      <trkpt lat="36.815807819366455078125" lon="-118.43875785358250141143798828125">
        <ele>3651.800048828125</ele>
        <time>2021-06-26T20:19:37.000Z</time>
        <extensions>
          <ns3:TrackPointExtension>
            <ns3:atemp>29.0</ns3:atemp>
            <ns3:hr>108</ns3:hr>
          </ns3:TrackPointExtension>
        </extensions>
      </trkpt>
      <trkpt lat="36.815798766911029815673828125" lon="-118.43875450082123279571533203125">
        <ele>3651.60009765625</ele>
        <time>2021-06-26T20:19:39.000Z</time>
        <extensions>
          <ns3:TrackPointExtension>
            <ns3:atemp>29.0</ns3:atemp>
            <ns3:hr>108</ns3:hr>
          </ns3:TrackPointExtension>
        </extensions>
      </trkpt>
      <trkpt lat="36.815786026418209075927734375" lon="-118.43874645419418811798095703125">
        <ele>3651.39990234375</ele>
        <time>2021-06-26T20:19:42.000Z</time>
        <extensions>
          <ns3:TrackPointExtension>
            <ns3:atemp>29.0</ns3:atemp>
            <ns3:hr>111</ns3:hr>
          </ns3:TrackPointExtension>
        </extensions>
      </trkpt>
      <trkpt lat="36.81577353738248348236083984375" lon="-118.43873153440654277801513671875">
        <ele>3650.199951171875</ele>
        <time>2021-06-26T20:19:46.000Z</time>
        <extensions>
          <ns3:TrackPointExtension>
            <ns3:atemp>29.0</ns3:atemp>
            <ns3:hr>112</ns3:hr>
          </ns3:TrackPointExtension>
        </extensions>
      </trkpt>
      <trkpt lat="36.815742440521717071533203125" lon="-118.4387190453708171844482421875">
        <ele>3649</ele>
        <time>2021-06-26T20:19:55.000Z</time>
        <extensions>
          <ns3:TrackPointExtension>
            <ns3:atemp>29.0</ns3:atemp>
            <ns3:hr>111</ns3:hr>
          </ns3:TrackPointExtension>
        </extensions>
      </trkpt>
      <trkpt lat="36.8157214857637882232666015625" lon="-118.43871275894343852996826171875">
        <ele>3648</ele>
        <time>2021-06-26T20:20:01.000Z</time>
        <extensions>
          <ns3:TrackPointExtension>
            <ns3:atemp>29.0</ns3:atemp>
            <ns3:hr>113</ns3:hr>
          </ns3:TrackPointExtension>
        </extensions>
      </trkpt>
      <trkpt lat="36.815712265670299530029296875" lon="-118.43870772980153560638427734375">
        <ele>3647</ele>
        <time>2021-06-26T20:20:06.000Z</time>
        <extensions>
          <ns3:TrackPointExtension>
            <ns3:atemp>29.0</ns3:atemp>
            <ns3:hr>114</ns3:hr>
          </ns3:TrackPointExtension>
        </extensions>
      </trkpt>
      <trkpt lat="36.815703213214874267578125" lon="-118.4386801533401012420654296875">
        <ele>3645.60009765625</ele>
        <time>2021-06-26T20:20:15.000Z</time>
        <extensions>
          <ns3:TrackPointExtension>
            <ns3:atemp>29.0</ns3:atemp>
            <ns3:hr>112</ns3:hr>
          </ns3:TrackPointExtension>
        </extensions>
      </trkpt>
      <trkpt lat="36.81569105945527553558349609375" lon="-118.4386677481234073638916015625">
        <ele>3644.60009765625</ele>
        <time>2021-06-26T20:20:20.000Z</time>
        <extensions>
          <ns3:TrackPointExtension>
            <ns3:atemp>29.0</ns3:atemp>
            <ns3:hr>111</ns3:hr>
          </ns3:TrackPointExtension>
        </extensions>
      </trkpt>
      <trkpt lat="36.8156748823821544647216796875" lon="-118.43865777365863323211669921875">
        <ele>3643.199951171875</ele>
        <time>2021-06-26T20:20:27.000Z</time>
        <extensions>
          <ns3:TrackPointExtension>
            <ns3:atemp>29.0</ns3:atemp>
            <ns3:hr>110</ns3:hr>
          </ns3:TrackPointExtension>
        </extensions>
      </trkpt>
      <trkpt lat="36.815670020878314971923828125" lon="-118.43865123577415943145751953125">
        <ele>3641.800048828125</ele>
        <time>2021-06-26T20:20:32.000Z</time>
        <extensions>
          <ns3:TrackPointExtension>
            <ns3:atemp>29.0</ns3:atemp>
            <ns3:hr>110</ns3:hr>
          </ns3:TrackPointExtension>
        </extensions>
      </trkpt>
      <trkpt lat="36.81566876359283924102783203125" lon="-118.4386486373841762542724609375">
        <ele>3641</ele>
        <time>2021-06-26T20:20:39.000Z</time>
        <extensions>
          <ns3:TrackPointExtension>
            <ns3:atemp>29.0</ns3:atemp>
            <ns3:hr>107</ns3:hr>
          </ns3:TrackPointExtension>
        </extensions>
      </trkpt>
      <trkpt lat="36.81566876359283924102783203125" lon="-118.438648469746112823486328125">
        <ele>3640.39990234375</ele>
        <time>2021-06-26T20:20:40.000Z</time>
        <extensions>
          <ns3:TrackPointExtension>
            <ns3:atemp>29.0</ns3:atemp>
            <ns3:hr>108</ns3:hr>
          </ns3:TrackPointExtension>
        </extensions>
      </trkpt>
      <trkpt lat="36.81566826067864894866943359375" lon="-118.4386469610035419464111328125">
        <ele>3639.800048828125</ele>
        <time>2021-06-26T20:20:47.000Z</time>
        <extensions>
          <ns3:TrackPointExtension>
            <ns3:atemp>29.0</ns3:atemp>
            <ns3:hr>105</ns3:hr>
          </ns3:TrackPointExtension>
        </extensions>
      </trkpt>
      <trkpt lat="36.81566792540252208709716796875" lon="-118.43864620663225650787353515625">
        <ele>3639.199951171875</ele>
        <time>2021-06-26T20:20:50.000Z</time>
        <extensions>
          <ns3:TrackPointExtension>
            <ns3:atemp>29.0</ns3:atemp>
            <ns3:hr>105</ns3:hr>
          </ns3:TrackPointExtension>
        </extensions>
      </trkpt>
      <trkpt lat="36.81566775776445865631103515625" lon="-118.43864570371806621551513671875">
        <ele>3638.60009765625</ele>
        <time>2021-06-26T20:20:52.000Z</time>
        <extensions>
          <ns3:TrackPointExtension>
            <ns3:atemp>29.0</ns3:atemp>
            <ns3:hr>110</ns3:hr>
          </ns3:TrackPointExtension>
        </extensions>
      </trkpt>
      <trkpt lat="36.81566742248833179473876953125" lon="-118.43864520080387592315673828125">
        <ele>3638.60009765625</ele>
        <time>2021-06-26T20:20:54.000Z</time>
        <extensions>
          <ns3:TrackPointExtension>
            <ns3:atemp>29.0</ns3:atemp>
            <ns3:hr>114</ns3:hr>
          </ns3:TrackPointExtension>
        </extensions>
      </trkpt>
      <trkpt lat="36.81566708721220493316650390625" lon="-118.43864469788968563079833984375">
        <ele>3638.39990234375</ele>
        <time>2021-06-26T20:20:56.000Z</time>
        <extensions>
          <ns3:TrackPointExtension>
            <ns3:atemp>29.0</ns3:atemp>
            <ns3:hr>117</ns3:hr>
          </ns3:TrackPointExtension>
        </extensions>
      </trkpt>
      <trkpt lat="36.81566658429801464080810546875" lon="-118.4386439435184001922607421875">
        <ele>3638.199951171875</ele>
        <time>2021-06-26T20:20:59.000Z</time>
        <extensions>
          <ns3:TrackPointExtension>
            <ns3:atemp>29.0</ns3:atemp>
            <ns3:hr>119</ns3:hr>
          </ns3:TrackPointExtension>
        </extensions>
      </trkpt>
      <trkpt lat="36.81566591374576091766357421875" lon="-118.43864318914711475372314453125">
        <ele>3637.39990234375</ele>
        <time>2021-06-26T20:21:02.000Z</time>
        <extensions>
          <ns3:TrackPointExtension>
            <ns3:atemp>29.0</ns3:atemp>
            <ns3:hr>116</ns3:hr>
          </ns3:TrackPointExtension>
        </extensions>
      </trkpt>
      <trkpt lat="36.81566574610769748687744140625" lon="-118.4386429376900196075439453125">
        <ele>3636.199951171875</ele>
        <time>2021-06-26T20:21:03.000Z</time>
        <extensions>
          <ns3:TrackPointExtension>
            <ns3:atemp>29.0</ns3:atemp>
            <ns3:hr>116</ns3:hr>
          </ns3:TrackPointExtension>
        </extensions>
      </trkpt>
      <trkpt lat="36.81566440500319004058837890625" lon="-118.43864168040454387664794921875">
        <ele>3635.60009765625</ele>
        <time>2021-06-26T20:21:08.000Z</time>
        <extensions>
          <ns3:TrackPointExtension>
            <ns3:atemp>29.0</ns3:atemp>
            <ns3:hr>112</ns3:hr>
          </ns3:TrackPointExtension>
        </extensions>
      </trkpt>
      <trkpt lat="36.81566155515611171722412109375" lon="-118.43863950110971927642822265625">
        <ele>3635.199951171875</ele>
        <time>2021-06-26T20:21:17.000Z</time>
        <extensions>
          <ns3:TrackPointExtension>
            <ns3:atemp>29.0</ns3:atemp>
            <ns3:hr>112</ns3:hr>
          </ns3:TrackPointExtension>
        </extensions>
      </trkpt>
      <trkpt lat="36.81566038168966770172119140625" lon="-118.43863883055746555328369140625">
        <ele>3634</ele>
        <time>2021-06-26T20:21:20.000Z</time>
        <extensions>
          <ns3:TrackPointExtension>
            <ns3:atemp>29.0</ns3:atemp>
            <ns3:hr>113</ns3:hr>
          </ns3:TrackPointExtension>
        </extensions>
      </trkpt>
      <trkpt lat="36.81565920822322368621826171875" lon="-118.43863816000521183013916015625">
        <ele>3633</ele>
        <time>2021-06-26T20:21:23.000Z</time>
        <extensions>
          <ns3:TrackPointExtension>
            <ns3:atemp>29.0</ns3:atemp>
            <ns3:hr>113</ns3:hr>
          </ns3:TrackPointExtension>
        </extensions>
      </trkpt>
      <trkpt lat="36.8156564421951770782470703125" lon="-118.43863673508167266845703125">
        <ele>3631.60009765625</ele>
        <time>2021-06-26T20:21:29.000Z</time>
        <extensions>
          <ns3:TrackPointExtension>
            <ns3:atemp>29.0</ns3:atemp>
            <ns3:hr>111</ns3:hr>
          </ns3:TrackPointExtension>
        </extensions>
      </trkpt>
      <trkpt lat="36.8156540952622890472412109375" lon="-118.43863547779619693756103515625">
        <ele>3630.60009765625</ele>
        <time>2021-06-26T20:21:34.000Z</time>
        <extensions>
          <ns3:TrackPointExtension>
            <ns3:atemp>29.0</ns3:atemp>
            <ns3:hr>109</ns3:hr>
          </ns3:TrackPointExtension>
        </extensions>
      </trkpt>
      <trkpt lat="36.81565082632005214691162109375" lon="-118.43863329850137233734130859375">
        <ele>3629.60009765625</ele>
        <time>2021-06-26T20:21:41.000Z</time>
        <extensions>
          <ns3:TrackPointExtension>
            <ns3:atemp>29.0</ns3:atemp>
            <ns3:hr>106</ns3:hr>
          </ns3:TrackPointExtension>
        </extensions>
      </trkpt>
      <trkpt lat="36.81565032340586185455322265625" lon="-118.43863296322524547576904296875">
        <ele>3629.39990234375</ele>
        <time>2021-06-26T20:21:42.000Z</time>
        <extensions>
          <ns3:TrackPointExtension>
            <ns3:atemp>29.0</ns3:atemp>
            <ns3:hr>106</ns3:hr>
          </ns3:TrackPointExtension>
        </extensions>
      </trkpt>
      <trkpt lat="36.81564780883491039276123046875" lon="-118.43863111920654773712158203125">
        <ele>3628.39990234375</ele>
        <time>2021-06-26T20:21:47.000Z</time>
        <extensions>
          <ns3:TrackPointExtension>
            <ns3:atemp>29.0</ns3:atemp>
            <ns3:hr>106</ns3:hr>
          </ns3:TrackPointExtension>
        </extensions>
      </trkpt>
      <trkpt lat="36.81564512662589550018310546875" lon="-118.4386291913688182830810546875">
        <ele>3627</ele>
        <time>2021-06-26T20:21:52.000Z</time>
        <extensions>
          <ns3:TrackPointExtension>
            <ns3:atemp>29.0</ns3:atemp>
            <ns3:hr>105</ns3:hr>
          </ns3:TrackPointExtension>
        </extensions>
      </trkpt>
      <trkpt lat="36.81564076803624629974365234375" lon="-118.43862558715045452117919921875">
        <ele>3625.800048828125</ele>
        <time>2021-06-26T20:22:00.000Z</time>
        <extensions>
          <ns3:TrackPointExtension>
            <ns3:atemp>29.0</ns3:atemp>
            <ns3:hr>104</ns3:hr>
          </ns3:TrackPointExtension>
        </extensions>
      </trkpt>
      <trkpt lat="36.8156401813030242919921875" lon="-118.43862508423626422882080078125">
        <ele>3625.800048828125</ele>
        <time>2021-06-26T20:22:01.000Z</time>
        <extensions>
          <ns3:TrackPointExtension>
            <ns3:atemp>29.0</ns3:atemp>
            <ns3:hr>108</ns3:hr>
          </ns3:TrackPointExtension>
        </extensions>
      </trkpt>
      <trkpt lat="36.81563959456980228424072265625" lon="-118.43862466514110565185546875">
        <ele>3625.60009765625</ele>
        <time>2021-06-26T20:22:02.000Z</time>
        <extensions>
          <ns3:TrackPointExtension>
            <ns3:atemp>29.0</ns3:atemp>
            <ns3:hr>112</ns3:hr>
          </ns3:TrackPointExtension>
        </extensions>
      </trkpt>
      <trkpt lat="36.8156390078365802764892578125" lon="-118.4386241622269153594970703125">
        <ele>3625.60009765625</ele>
        <time>2021-06-26T20:22:03.000Z</time>
        <extensions>
          <ns3:TrackPointExtension>
            <ns3:atemp>29.0</ns3:atemp>
            <ns3:hr>115</ns3:hr>
          </ns3:TrackPointExtension>
        </extensions>
      </trkpt>
      <trkpt lat="36.81563775055110454559326171875" lon="-118.43862324021756649017333984375">
        <ele>3625.199951171875</ele>
        <time>2021-06-26T20:22:05.000Z</time>
        <extensions>
          <ns3:TrackPointExtension>
            <ns3:atemp>29.0</ns3:atemp>
            <ns3:hr>119</ns3:hr>
          </ns3:TrackPointExtension>
        </extensions>
      </trkpt>
      <trkpt lat="36.815637163817882537841796875" lon="-118.4386228211224079132080078125">
        <ele>3624.800048828125</ele>
        <time>2021-06-26T20:22:06.000Z</time>
        <extensions>
          <ns3:TrackPointExtension>
            <ns3:atemp>29.0</ns3:atemp>
            <ns3:hr>118</ns3:hr>
          </ns3:TrackPointExtension>
        </extensions>
      </trkpt>
      <trkpt lat="36.8156336434185504913330078125" lon="-118.438619635999202728271484375">
        <ele>3624</ele>
        <time>2021-06-26T20:22:12.000Z</time>
        <extensions>
          <ns3:TrackPointExtension>
            <ns3:atemp>29.0</ns3:atemp>
            <ns3:hr>115</ns3:hr>
          </ns3:TrackPointExtension>
        </extensions>
      </trkpt>
      <trkpt lat="36.81563305668532848358154296875" lon="-118.4386191330850124359130859375">
        <ele>3623.60009765625</ele>
        <time>2021-06-26T20:22:13.000Z</time>
        <extensions>
          <ns3:TrackPointExtension>
            <ns3:atemp>29.0</ns3:atemp>
            <ns3:hr>115</ns3:hr>
          </ns3:TrackPointExtension>
        </extensions>
      </trkpt>
      <trkpt lat="36.8156312964856624603271484375" lon="-118.43861737288534641265869140625">
        <ele>3622.800048828125</ele>
        <time>2021-06-26T20:22:16.000Z</time>
        <extensions>
          <ns3:TrackPointExtension>
            <ns3:atemp>29.0</ns3:atemp>
            <ns3:hr>111</ns3:hr>
          </ns3:TrackPointExtension>
        </extensions>
      </trkpt>
      <trkpt lat="36.8156306259334087371826171875" lon="-118.43861670233309268951416015625">
        <ele>3622.60009765625</ele>
        <time>2021-06-26T20:22:17.000Z</time>
        <extensions>
          <ns3:TrackPointExtension>
            <ns3:atemp>29.0</ns3:atemp>
            <ns3:hr>110</ns3:hr>
          </ns3:TrackPointExtension>
        </extensions>
      </trkpt>
      <trkpt lat="36.8154579587280750274658203125" lon="-118.438326604664325714111328125">
        <ele>3621.60009765625</ele>
        <time>2021-06-26T20:22:26.000Z</time>
        <extensions>
          <ns3:TrackPointExtension>
            <ns3:atemp>29.0</ns3:atemp>
            <ns3:hr>108</ns3:hr>
          </ns3:TrackPointExtension>
        </extensions>
      </trkpt>
      <trkpt lat="36.815391071140766143798828125" lon="-118.438208587467670440673828125">
        <ele>3621</ele>
        <time>2021-06-26T20:22:28.000Z</time>
        <extensions>
          <ns3:TrackPointExtension>
            <ns3:atemp>29.0</ns3:atemp>
            <ns3:hr>109</ns3:hr>
          </ns3:TrackPointExtension>
        </extensions>
      </trkpt>
      <trkpt lat="36.8152936734259128570556640625" lon="-118.43800717033445835113525390625">
        <ele>3620</ele>
        <time>2021-06-26T20:22:34.000Z</time>
        <extensions>
          <ns3:TrackPointExtension>
            <ns3:atemp>29.0</ns3:atemp>
            <ns3:hr>109</ns3:hr>
          </ns3:TrackPointExtension>
        </extensions>
      </trkpt>
      <trkpt lat="36.81529979221522808074951171875" lon="-118.4379888139665126800537109375">
        <ele>3619.39990234375</ele>
        <time>2021-06-26T20:22:37.000Z</time>
        <extensions>
          <ns3:TrackPointExtension>
            <ns3:atemp>29.0</ns3:atemp>
            <ns3:hr>111</ns3:hr>
          </ns3:TrackPointExtension>
        </extensions>
      </trkpt>
      <trkpt lat="36.8153022229671478271484375" lon="-118.43797699548304080963134765625">
        <ele>3618.60009765625</ele>
        <time>2021-06-26T20:22:39.000Z</time>
        <extensions>
          <ns3:TrackPointExtension>
            <ns3:atemp>29.0</ns3:atemp>
            <ns3:hr>112</ns3:hr>
          </ns3:TrackPointExtension>
        </extensions>
      </trkpt>
      <trkpt lat="36.815313287079334259033203125" lon="-118.4379596449434757232666015625">
        <ele>3618.199951171875</ele>
        <time>2021-06-26T20:22:42.000Z</time>
        <extensions>
          <ns3:TrackPointExtension>
            <ns3:atemp>29.0</ns3:atemp>
            <ns3:hr>109</ns3:hr>
          </ns3:TrackPointExtension>
        </extensions>
      </trkpt>
      <trkpt lat="36.8153171427547931671142578125" lon="-118.43792301602661609649658203125">
        <ele>3617.60009765625</ele>
        <time>2021-06-26T20:22:47.000Z</time>
        <extensions>
          <ns3:TrackPointExtension>
            <ns3:atemp>29.0</ns3:atemp>
            <ns3:hr>106</ns3:hr>
          </ns3:TrackPointExtension>
        </extensions>
      </trkpt>
      <trkpt lat="36.81531588546931743621826171875" lon="-118.43791731633245944976806640625">
        <ele>3617</ele>
        <time>2021-06-26T20:22:48.000Z</time>
        <extensions>
          <ns3:TrackPointExtension>
            <ns3:atemp>29.0</ns3:atemp>
            <ns3:hr>106</ns3:hr>
          </ns3:TrackPointExtension>
        </extensions>
      </trkpt>
      <trkpt lat="36.8153040669858455657958984375" lon="-118.4379093535244464874267578125">
        <ele>3616.39990234375</ele>
        <time>2021-06-26T20:22:50.000Z</time>
        <extensions>
          <ns3:TrackPointExtension>
            <ns3:atemp>29.0</ns3:atemp>
            <ns3:hr>105</ns3:hr>
          </ns3:TrackPointExtension>
        </extensions>
      </trkpt>
      <trkpt lat="36.81528604589402675628662109375" lon="-118.43789686448872089385986328125">
        <ele>3615.39990234375</ele>
        <time>2021-06-26T20:22:54.000Z</time>
        <extensions>
          <ns3:TrackPointExtension>
            <ns3:atemp>29.0</ns3:atemp>
            <ns3:hr>103</ns3:hr>
          </ns3:TrackPointExtension>
        </extensions>
      </trkpt>
      <trkpt lat="36.81526961736381053924560546875" lon="-118.43787825666368007659912109375">
        <ele>3615.199951171875</ele>
        <time>2021-06-26T20:22:58.000Z</time>
        <extensions>
          <ns3:TrackPointExtension>
            <ns3:atemp>29.0</ns3:atemp>
            <ns3:hr>106</ns3:hr>
          </ns3:TrackPointExtension>
        </extensions>
      </trkpt>
      <trkpt lat="36.81526006199419498443603515625" lon="-118.43786886893212795257568359375">
        <ele>3614.800048828125</ele>
        <time>2021-06-26T20:23:00.000Z</time>
        <extensions>
          <ns3:TrackPointExtension>
            <ns3:atemp>29.0</ns3:atemp>
            <ns3:hr>109</ns3:hr>
          </ns3:TrackPointExtension>
        </extensions>
      </trkpt>
      <trkpt lat="36.815252602100372314453125" lon="-118.43786249868571758270263671875">
        <ele>3614.199951171875</ele>
        <time>2021-06-26T20:23:01.000Z</time>
        <extensions>
          <ns3:TrackPointExtension>
            <ns3:atemp>29.0</ns3:atemp>
            <ns3:hr>110</ns3:hr>
          </ns3:TrackPointExtension>
        </extensions>
      </trkpt>
      <trkpt lat="36.815240196883678436279296875" lon="-118.43785981647670269012451171875">
        <ele>3614</ele>
        <time>2021-06-26T20:23:03.000Z</time>
        <extensions>
          <ns3:TrackPointExtension>
            <ns3:atemp>29.0</ns3:atemp>
            <ns3:hr>112</ns3:hr>
          </ns3:TrackPointExtension>
        </extensions>
      </trkpt>
      <trkpt lat="36.815235503017902374267578125" lon="-118.43785663135349750518798828125">
        <ele>3613.199951171875</ele>
        <time>2021-06-26T20:23:05.000Z</time>
        <extensions>
          <ns3:TrackPointExtension>
            <ns3:atemp>29.0</ns3:atemp>
            <ns3:hr>110</ns3:hr>
          </ns3:TrackPointExtension>
        </extensions>
      </trkpt>
      <trkpt lat="36.81524279527366161346435546875" lon="-118.43783902935683727264404296875">
        <ele>3613</ele>
        <time>2021-06-26T20:23:08.000Z</time>
        <extensions>
          <ns3:TrackPointExtension>
            <ns3:atemp>29.0</ns3:atemp>
            <ns3:hr>109</ns3:hr>
          </ns3:TrackPointExtension>
        </extensions>
      </trkpt>
      <trkpt lat="36.815260984003543853759765625" lon="-118.43781732022762298583984375">
        <ele>3612.199951171875</ele>
        <time>2021-06-26T20:23:11.000Z</time>
        <extensions>
          <ns3:TrackPointExtension>
            <ns3:atemp>29.0</ns3:atemp>
            <ns3:hr>107</ns3:hr>
          </ns3:TrackPointExtension>
        </extensions>
      </trkpt>
      <trkpt lat="36.81526408530771732330322265625" lon="-118.4377822838723659515380859375">
        <ele>3611.800048828125</ele>
        <time>2021-06-26T20:23:15.000Z</time>
        <extensions>
          <ns3:TrackPointExtension>
            <ns3:atemp>29.0</ns3:atemp>
            <ns3:hr>106</ns3:hr>
          </ns3:TrackPointExtension>
        </extensions>
      </trkpt>
      <trkpt lat="36.81524883024394512176513671875" lon="-118.43777080066502094268798828125">
        <ele>3611</ele>
        <time>2021-06-26T20:23:18.000Z</time>
        <extensions>
          <ns3:TrackPointExtension>
            <ns3:atemp>29.0</ns3:atemp>
            <ns3:hr>107</ns3:hr>
          </ns3:TrackPointExtension>
        </extensions>
      </trkpt>
      <trkpt lat="36.81522435508668422698974609375" lon="-118.43776233494281768798828125">
        <ele>3610.60009765625</ele>
        <time>2021-06-26T20:23:21.000Z</time>
        <extensions>
          <ns3:TrackPointExtension>
            <ns3:atemp>29.0</ns3:atemp>
            <ns3:hr>108</ns3:hr>
          </ns3:TrackPointExtension>
        </extensions>
      </trkpt>
      <trkpt lat="36.815208680927753448486328125" lon="-118.43775638379156589508056640625">
        <ele>3610</ele>
        <time>2021-06-26T20:23:24.000Z</time>
        <extensions>
          <ns3:TrackPointExtension>
            <ns3:atemp>29.0</ns3:atemp>
            <ns3:hr>109</ns3:hr>
          </ns3:TrackPointExtension>
        </extensions>
      </trkpt>
      <trkpt lat="36.8151850439608097076416015625" lon="-118.437747247517108917236328125">
        <ele>3608.800048828125</ele>
        <time>2021-06-26T20:23:28.000Z</time>
        <extensions>
          <ns3:TrackPointExtension>
            <ns3:atemp>29.0</ns3:atemp>
            <ns3:hr>109</ns3:hr>
          </ns3:TrackPointExtension>
        </extensions>
      </trkpt>
      <trkpt lat="36.8151788413524627685546875" lon="-118.4377443976700305938720703125">
        <ele>3608.800048828125</ele>
        <time>2021-06-26T20:23:29.000Z</time>
        <extensions>
          <ns3:TrackPointExtension>
            <ns3:atemp>29.0</ns3:atemp>
            <ns3:hr>109</ns3:hr>
          </ns3:TrackPointExtension>
        </extensions>
      </trkpt>
      <trkpt lat="36.81515076197683811187744140625" lon="-118.43769787810742855072021484375">
        <ele>3607.800048828125</ele>
        <time>2021-06-26T20:23:37.000Z</time>
        <extensions>
          <ns3:TrackPointExtension>
            <ns3:atemp>29.0</ns3:atemp>
            <ns3:hr>111</ns3:hr>
          </ns3:TrackPointExtension>
        </extensions>
      </trkpt>
      <trkpt lat="36.81514958851039409637451171875" lon="-118.43768245540559291839599609375">
        <ele>3606.800048828125</ele>
        <time>2021-06-26T20:23:39.000Z</time>
        <extensions>
          <ns3:TrackPointExtension>
            <ns3:atemp>29.0</ns3:atemp>
            <ns3:hr>111</ns3:hr>
          </ns3:TrackPointExtension>
        </extensions>
      </trkpt>
      <trkpt lat="36.8151461519300937652587890625" lon="-118.437676168978214263916015625">
        <ele>3606.39990234375</ele>
        <time>2021-06-26T20:23:40.000Z</time>
        <extensions>
          <ns3:TrackPointExtension>
            <ns3:atemp>29.0</ns3:atemp>
            <ns3:hr>110</ns3:hr>
          </ns3:TrackPointExtension>
        </extensions>
      </trkpt>
      <trkpt lat="36.8151297233998775482177734375" lon="-118.4376716427505016326904296875">
        <ele>3605.800048828125</ele>
        <time>2021-06-26T20:23:43.000Z</time>
        <extensions>
          <ns3:TrackPointExtension>
            <ns3:atemp>29.0</ns3:atemp>
            <ns3:hr>107</ns3:hr>
          </ns3:TrackPointExtension>
        </extensions>
      </trkpt>
      <trkpt lat="36.81512452661991119384765625" lon="-118.4376718103885650634765625">
        <ele>3605.199951171875</ele>
        <time>2021-06-26T20:23:44.000Z</time>
        <extensions>
          <ns3:TrackPointExtension>
            <ns3:atemp>29.0</ns3:atemp>
            <ns3:hr>107</ns3:hr>
          </ns3:TrackPointExtension>
        </extensions>
      </trkpt>
      <trkpt lat="36.8151132948696613311767578125" lon="-118.437666781246662139892578125">
        <ele>3604.800048828125</ele>
        <time>2021-06-26T20:23:46.000Z</time>
        <extensions>
          <ns3:TrackPointExtension>
            <ns3:atemp>29.0</ns3:atemp>
            <ns3:hr>107</ns3:hr>
          </ns3:TrackPointExtension>
        </extensions>
      </trkpt>
      <trkpt lat="36.81508990935981273651123046875" lon="-118.43766049481928348541259765625">
        <ele>3604</ele>
        <time>2021-06-26T20:23:51.000Z</time>
        <extensions>
          <ns3:TrackPointExtension>
            <ns3:atemp>29.0</ns3:atemp>
            <ns3:hr>106</ns3:hr>
          </ns3:TrackPointExtension>
        </extensions>
      </trkpt>
      <trkpt lat="36.815087981522083282470703125" lon="-118.43765043653547763824462890625">
        <ele>3603.800048828125</ele>
        <time>2021-06-26T20:23:53.000Z</time>
        <extensions>
          <ns3:TrackPointExtension>
            <ns3:atemp>29.0</ns3:atemp>
            <ns3:hr>106</ns3:hr>
          </ns3:TrackPointExtension>
        </extensions>
      </trkpt>
      <trkpt lat="36.815085969865322113037109375" lon="-118.43763652257621288299560546875">
        <ele>3602.800048828125</ele>
        <time>2021-06-26T20:23:55.000Z</time>
        <extensions>
          <ns3:TrackPointExtension>
            <ns3:atemp>29.0</ns3:atemp>
            <ns3:hr>106</ns3:hr>
          </ns3:TrackPointExtension>
        </extensions>
      </trkpt>
      <trkpt lat="36.81505571119487285614013671875" lon="-118.4376032464206218719482421875">
        <ele>3601.60009765625</ele>
        <time>2021-06-26T20:24:02.000Z</time>
        <extensions>
          <ns3:TrackPointExtension>
            <ns3:atemp>29.0</ns3:atemp>
            <ns3:hr>108</ns3:hr>
          </ns3:TrackPointExtension>
        </extensions>
      </trkpt>
      <trkpt lat="36.81501380167901515960693359375" lon="-118.4376029111444950103759765625">
        <ele>3600.60009765625</ele>
        <time>2021-06-26T20:24:08.000Z</time>
        <extensions>
          <ns3:TrackPointExtension>
            <ns3:atemp>29.0</ns3:atemp>
            <ns3:hr>109</ns3:hr>
          </ns3:TrackPointExtension>
        </extensions>
      </trkpt>
      <trkpt lat="36.81498505175113677978515625" lon="-118.437587320804595947265625">
        <ele>3599.60009765625</ele>
        <time>2021-06-26T20:24:13.000Z</time>
        <extensions>
          <ns3:TrackPointExtension>
            <ns3:atemp>29.0</ns3:atemp>
            <ns3:hr>107</ns3:hr>
          </ns3:TrackPointExtension>
        </extensions>
      </trkpt>
      <trkpt lat="36.8149808607995510101318359375" lon="-118.4375801123678684234619140625">
        <ele>3599.60009765625</ele>
        <time>2021-06-26T20:24:14.000Z</time>
        <extensions>
          <ns3:TrackPointExtension>
            <ns3:atemp>29.0</ns3:atemp>
            <ns3:hr>107</ns3:hr>
          </ns3:TrackPointExtension>
        </extensions>
      </trkpt>
      <trkpt lat="36.814979016780853271484375" lon="-118.43755035661160945892333984375">
        <ele>3598.39990234375</ele>
        <time>2021-06-26T20:24:18.000Z</time>
        <extensions>
          <ns3:TrackPointExtension>
            <ns3:atemp>29.0</ns3:atemp>
            <ns3:hr>107</ns3:hr>
          </ns3:TrackPointExtension>
        </extensions>
      </trkpt>
      <trkpt lat="36.81497826240956783294677734375" lon="-118.43754113651812076568603515625">
        <ele>3598.199951171875</ele>
        <time>2021-06-26T20:24:19.000Z</time>
        <extensions>
          <ns3:TrackPointExtension>
            <ns3:atemp>29.0</ns3:atemp>
            <ns3:hr>110</ns3:hr>
          </ns3:TrackPointExtension>
        </extensions>
      </trkpt>
      <trkpt lat="36.81497775949537754058837890625" lon="-118.43752403743565082550048828125">
        <ele>3598</ele>
        <time>2021-06-26T20:24:21.000Z</time>
        <extensions>
          <ns3:TrackPointExtension>
            <ns3:atemp>29.0</ns3:atemp>
            <ns3:hr>114</ns3:hr>
          </ns3:TrackPointExtension>
        </extensions>
      </trkpt>
      <trkpt lat="36.81498111225664615631103515625" lon="-118.437498472630977630615234375">
        <ele>3597.60009765625</ele>
        <time>2021-06-26T20:24:23.000Z</time>
        <extensions>
          <ns3:TrackPointExtension>
            <ns3:atemp>29.0</ns3:atemp>
            <ns3:hr>117</ns3:hr>
          </ns3:TrackPointExtension>
        </extensions>
      </trkpt>
      <trkpt lat="36.81497968733310699462890625" lon="-118.43748950399458408355712890625">
        <ele>3597.60009765625</ele>
        <time>2021-06-26T20:24:24.000Z</time>
        <extensions>
          <ns3:TrackPointExtension>
            <ns3:atemp>29.0</ns3:atemp>
            <ns3:hr>119</ns3:hr>
          </ns3:TrackPointExtension>
        </extensions>
      </trkpt>
      <trkpt lat="36.8149751611053943634033203125" lon="-118.43748346902430057525634765625">
        <ele>3597.199951171875</ele>
        <time>2021-06-26T20:24:25.000Z</time>
        <extensions>
          <ns3:TrackPointExtension>
            <ns3:atemp>29.0</ns3:atemp>
            <ns3:hr>120</ns3:hr>
          </ns3:TrackPointExtension>
        </extensions>
      </trkpt>
      <trkpt lat="36.814957223832607269287109375" lon="-118.437476344406604766845703125">
        <ele>3596.199951171875</ele>
        <time>2021-06-26T20:24:28.000Z</time>
        <extensions>
          <ns3:TrackPointExtension>
            <ns3:atemp>29.0</ns3:atemp>
            <ns3:hr>121</ns3:hr>
          </ns3:TrackPointExtension>
        </extensions>
      </trkpt>
      <trkpt lat="36.81494439952075481414794921875" lon="-118.43746871687471866607666015625">
        <ele>3595.800048828125</ele>
        <time>2021-06-26T20:24:30.000Z</time>
        <extensions>
          <ns3:TrackPointExtension>
            <ns3:atemp>29.0</ns3:atemp>
            <ns3:hr>124</ns3:hr>
          </ns3:TrackPointExtension>
        </extensions>
      </trkpt>
      <trkpt lat="36.8149409629404544830322265625" lon="-118.43745790421962738037109375">
        <ele>3595.39990234375</ele>
        <time>2021-06-26T20:24:32.000Z</time>
        <extensions>
          <ns3:TrackPointExtension>
            <ns3:atemp>29.0</ns3:atemp>
            <ns3:hr>124</ns3:hr>
          </ns3:TrackPointExtension>
        </extensions>
      </trkpt>
      <trkpt lat="36.8149508535861968994140625" lon="-118.4374419786036014556884765625">
        <ele>3595</ele>
        <time>2021-06-26T20:24:34.000Z</time>
        <extensions>
          <ns3:TrackPointExtension>
            <ns3:atemp>29.0</ns3:atemp>
            <ns3:hr>124</ns3:hr>
          </ns3:TrackPointExtension>
        </extensions>
      </trkpt>
      <trkpt lat="36.8149687908589839935302734375" lon="-118.43740400858223438262939453125">
        <ele>3594</ele>
        <time>2021-06-26T20:24:39.000Z</time>
        <extensions>
          <ns3:TrackPointExtension>
            <ns3:atemp>29.0</ns3:atemp>
            <ns3:hr>124</ns3:hr>
          </ns3:TrackPointExtension>
        </extensions>
      </trkpt>
      <trkpt lat="36.81497373618185520172119140625" lon="-118.43739344738423824310302734375">
        <ele>3593.60009765625</ele>
        <time>2021-06-26T20:24:40.000Z</time>
        <extensions>
          <ns3:TrackPointExtension>
            <ns3:atemp>29.0</ns3:atemp>
            <ns3:hr>123</ns3:hr>
          </ns3:TrackPointExtension>
        </extensions>
      </trkpt>
      <trkpt lat="36.8149640969932079315185546875" lon="-118.43734600581228733062744140625">
        <ele>3592.800048828125</ele>
        <time>2021-06-26T20:24:46.000Z</time>
        <extensions>
          <ns3:TrackPointExtension>
            <ns3:atemp>29.0</ns3:atemp>
            <ns3:hr>122</ns3:hr>
          </ns3:TrackPointExtension>
        </extensions>
      </trkpt>
      <trkpt lat="36.8149671144783496856689453125" lon="-118.43733477406203746795654296875">
        <ele>3592.60009765625</ele>
        <time>2021-06-26T20:24:48.000Z</time>
        <extensions>
          <ns3:TrackPointExtension>
            <ns3:atemp>29.0</ns3:atemp>
            <ns3:hr>123</ns3:hr>
          </ns3:TrackPointExtension>
        </extensions>
      </trkpt>
      <trkpt lat="36.81498102843761444091796875" lon="-118.4373175911605358123779296875">
        <ele>3592.199951171875</ele>
        <time>2021-06-26T20:24:50.000Z</time>
        <extensions>
          <ns3:TrackPointExtension>
            <ns3:atemp>29.0</ns3:atemp>
            <ns3:hr>120</ns3:hr>
          </ns3:TrackPointExtension>
        </extensions>
      </trkpt>
      <trkpt lat="36.81498597376048564910888671875" lon="-118.43729604966938495635986328125">
        <ele>3591.800048828125</ele>
        <time>2021-06-26T20:24:53.000Z</time>
        <extensions>
          <ns3:TrackPointExtension>
            <ns3:atemp>29.0</ns3:atemp>
            <ns3:hr>117</ns3:hr>
          </ns3:TrackPointExtension>
        </extensions>
      </trkpt>
      <trkpt lat="36.81499469093978404998779296875" lon="-118.43728146515786647796630859375">
        <ele>3591.60009765625</ele>
        <time>2021-06-26T20:24:55.000Z</time>
        <extensions>
          <ns3:TrackPointExtension>
            <ns3:atemp>29.0</ns3:atemp>
            <ns3:hr>116</ns3:hr>
          </ns3:TrackPointExtension>
        </extensions>
      </trkpt>
      <trkpt lat="36.81501514278352260589599609375" lon="-118.43724223785102367401123046875">
        <ele>3590.800048828125</ele>
        <time>2021-06-26T20:25:01.000Z</time>
        <extensions>
          <ns3:TrackPointExtension>
            <ns3:atemp>29.0</ns3:atemp>
            <ns3:hr>115</ns3:hr>
          </ns3:TrackPointExtension>
        </extensions>
      </trkpt>
      <trkpt lat="36.8150190822780132293701171875" lon="-118.4372354485094547271728515625">
        <ele>3590.39990234375</ele>
        <time>2021-06-26T20:25:02.000Z</time>
        <extensions>
          <ns3:TrackPointExtension>
            <ns3:atemp>29.0</ns3:atemp>
            <ns3:hr>116</ns3:hr>
          </ns3:TrackPointExtension>
        </extensions>
      </trkpt>
      <trkpt lat="36.81505520828068256378173828125" lon="-118.43718490563333034515380859375">
        <ele>3589.199951171875</ele>
        <time>2021-06-26T20:25:09.000Z</time>
        <extensions>
          <ns3:TrackPointExtension>
            <ns3:atemp>29.0</ns3:atemp>
            <ns3:hr>114</ns3:hr>
          </ns3:TrackPointExtension>
        </extensions>
      </trkpt>
      <trkpt lat="36.81505889631807804107666015625" lon="-118.43717920593917369842529296875">
        <ele>3589.199951171875</ele>
        <time>2021-06-26T20:25:10.000Z</time>
        <extensions>
          <ns3:TrackPointExtension>
            <ns3:atemp>29.0</ns3:atemp>
            <ns3:hr>114</ns3:hr>
          </ns3:TrackPointExtension>
        </extensions>
      </trkpt>
      <trkpt lat="36.815072558820247650146484375" lon="-118.43715456314384937286376953125">
        <ele>3589</ele>
        <time>2021-06-26T20:25:14.000Z</time>
        <extensions>
          <ns3:TrackPointExtension>
            <ns3:atemp>29.0</ns3:atemp>
            <ns3:hr>111</ns3:hr>
          </ns3:TrackPointExtension>
        </extensions>
      </trkpt>
      <trkpt lat="36.81505889631807804107666015625" lon="-118.4371385537087917327880859375">
        <ele>3588.199951171875</ele>
        <time>2021-06-26T20:25:18.000Z</time>
        <extensions>
          <ns3:TrackPointExtension>
            <ns3:atemp>29.0</ns3:atemp>
            <ns3:hr>111</ns3:hr>
          </ns3:TrackPointExtension>
        </extensions>
      </trkpt>
      <trkpt lat="36.81505453772842884063720703125" lon="-118.4371355362236499786376953125">
        <ele>3588</ele>
        <time>2021-06-26T20:25:19.000Z</time>
        <extensions>
          <ns3:TrackPointExtension>
            <ns3:atemp>29.0</ns3:atemp>
            <ns3:hr>112</ns3:hr>
          </ns3:TrackPointExtension>
        </extensions>
      </trkpt>
      <trkpt lat="36.8150465749204158782958984375" lon="-118.43712388537824153900146484375">
        <ele>3588</ele>
        <time>2021-06-26T20:25:21.000Z</time>
        <extensions>
          <ns3:TrackPointExtension>
            <ns3:atemp>29.0</ns3:atemp>
            <ns3:hr>116</ns3:hr>
          </ns3:TrackPointExtension>
        </extensions>
      </trkpt>
      <trkpt lat="36.81503609754145145416259765625" lon="-118.43710787594318389892578125">
        <ele>3587.39990234375</ele>
        <time>2021-06-26T20:25:24.000Z</time>
        <extensions>
          <ns3:TrackPointExtension>
            <ns3:atemp>29.0</ns3:atemp>
            <ns3:hr>119</ns3:hr>
          </ns3:TrackPointExtension>
        </extensions>
      </trkpt>
      <trkpt lat="36.815035678446292877197265625" lon="-118.43710393644869327545166015625">
        <ele>3587.39990234375</ele>
        <time>2021-06-26T20:25:25.000Z</time>
        <extensions>
          <ns3:TrackPointExtension>
            <ns3:atemp>29.0</ns3:atemp>
            <ns3:hr>121</ns3:hr>
          </ns3:TrackPointExtension>
        </extensions>
      </trkpt>
      <trkpt lat="36.8150368519127368927001953125" lon="-118.43709857203066349029541015625">
        <ele>3587.199951171875</ele>
        <time>2021-06-26T20:25:27.000Z</time>
        <extensions>
          <ns3:TrackPointExtension>
            <ns3:atemp>29.0</ns3:atemp>
            <ns3:hr>122</ns3:hr>
          </ns3:TrackPointExtension>
        </extensions>
      </trkpt>
      <trkpt lat="36.81505017913877964019775390625" lon="-118.43707493506371974945068359375">
        <ele>3586.39990234375</ele>
        <time>2021-06-26T20:25:31.000Z</time>
        <extensions>
          <ns3:TrackPointExtension>
            <ns3:atemp>29.0</ns3:atemp>
            <ns3:hr>123</ns3:hr>
          </ns3:TrackPointExtension>
        </extensions>
      </trkpt>
      <trkpt lat="36.8150562979280948638916015625" lon="-118.437067307531833648681640625">
        <ele>3586</ele>
        <time>2021-06-26T20:25:32.000Z</time>
        <extensions>
          <ns3:TrackPointExtension>
            <ns3:atemp>29.0</ns3:atemp>
            <ns3:hr>122</ns3:hr>
          </ns3:TrackPointExtension>
        </extensions>
      </trkpt>
      <trkpt lat="36.81509812362492084503173828125" lon="-118.43705783598124980926513671875">
        <ele>3585.199951171875</ele>
        <time>2021-06-26T20:25:39.000Z</time>
        <extensions>
          <ns3:TrackPointExtension>
            <ns3:atemp>29.0</ns3:atemp>
            <ns3:hr>122</ns3:hr>
          </ns3:TrackPointExtension>
        </extensions>
      </trkpt>
      <trkpt lat="36.81511824019253253936767578125" lon="-118.43705356121063232421875">
        <ele>3584.800048828125</ele>
        <time>2021-06-26T20:25:42.000Z</time>
        <extensions>
          <ns3:TrackPointExtension>
            <ns3:atemp>29.0</ns3:atemp>
            <ns3:hr>123</ns3:hr>
          </ns3:TrackPointExtension>
        </extensions>
      </trkpt>
      <trkpt lat="36.8151359260082244873046875" lon="-118.4370441734790802001953125">
        <ele>3584.60009765625</ele>
        <time>2021-06-26T20:25:46.000Z</time>
        <extensions>
          <ns3:TrackPointExtension>
            <ns3:atemp>29.0</ns3:atemp>
            <ns3:hr>121</ns3:hr>
          </ns3:TrackPointExtension>
        </extensions>
      </trkpt>
      <trkpt lat="36.81513483636081218719482421875" lon="-118.43703738413751125335693359375">
        <ele>3584.199951171875</ele>
        <time>2021-06-26T20:25:52.000Z</time>
        <extensions>
          <ns3:TrackPointExtension>
            <ns3:atemp>29.0</ns3:atemp>
            <ns3:hr>119</ns3:hr>
          </ns3:TrackPointExtension>
        </extensions>
      </trkpt>
      <trkpt lat="36.815132237970829010009765625" lon="-118.43702137470245361328125">
        <ele>3583.60009765625</ele>
        <time>2021-06-26T20:25:56.000Z</time>
        <extensions>
          <ns3:TrackPointExtension>
            <ns3:atemp>29.0</ns3:atemp>
            <ns3:hr>117</ns3:hr>
          </ns3:TrackPointExtension>
        </extensions>
      </trkpt>
      <trkpt lat="36.81515947915613651275634765625" lon="-118.437011651694774627685546875">
        <ele>3582.800048828125</ele>
        <time>2021-06-26T20:26:02.000Z</time>
        <extensions>
          <ns3:TrackPointExtension>
            <ns3:atemp>29.0</ns3:atemp>
            <ns3:hr>116</ns3:hr>
          </ns3:TrackPointExtension>
        </extensions>
      </trkpt>
      <trkpt lat="36.81516333483159542083740234375" lon="-118.43701391480863094329833984375">
        <ele>3582.60009765625</ele>
        <time>2021-06-26T20:26:03.000Z</time>
        <extensions>
          <ns3:TrackPointExtension>
            <ns3:atemp>29.0</ns3:atemp>
            <ns3:hr>116</ns3:hr>
          </ns3:TrackPointExtension>
        </extensions>
      </trkpt>
      <trkpt lat="36.81519032455980777740478515625" lon="-118.4370093047618865966796875">
        <ele>3582.39990234375</ele>
        <time>2021-06-26T20:26:07.000Z</time>
        <extensions>
          <ns3:TrackPointExtension>
            <ns3:atemp>29.0</ns3:atemp>
            <ns3:hr>112</ns3:hr>
          </ns3:TrackPointExtension>
        </extensions>
      </trkpt>
      <trkpt lat="36.81520004756748676300048828125" lon="-118.43699849210679531097412109375">
        <ele>3582</ele>
        <time>2021-06-26T20:26:09.000Z</time>
        <extensions>
          <ns3:TrackPointExtension>
            <ns3:atemp>29.0</ns3:atemp>
            <ns3:hr>108</ns3:hr>
          </ns3:TrackPointExtension>
        </extensions>
      </trkpt>
      <trkpt lat="36.81521228514611721038818359375" lon="-118.43698709271848201751708984375">
        <ele>3582</ele>
        <time>2021-06-26T20:26:11.000Z</time>
        <extensions>
          <ns3:TrackPointExtension>
            <ns3:atemp>29.0</ns3:atemp>
            <ns3:hr>106</ns3:hr>
          </ns3:TrackPointExtension>
        </extensions>
      </trkpt>
      <trkpt lat="36.81522854603826999664306640625" lon="-118.43697703443467617034912109375">
        <ele>3581.60009765625</ele>
        <time>2021-06-26T20:26:13.000Z</time>
        <extensions>
          <ns3:TrackPointExtension>
            <ns3:atemp>29.0</ns3:atemp>
            <ns3:hr>111</ns3:hr>
          </ns3:TrackPointExtension>
        </extensions>
      </trkpt>
      <trkpt lat="36.81523474864661693572998046875" lon="-118.436970077455043792724609375">
        <ele>3581.60009765625</ele>
        <time>2021-06-26T20:26:14.000Z</time>
        <extensions>
          <ns3:TrackPointExtension>
            <ns3:atemp>29.0</ns3:atemp>
            <ns3:hr>111</ns3:hr>
          </ns3:TrackPointExtension>
        </extensions>
      </trkpt>
      <trkpt lat="36.8152531050145626068115234375" lon="-118.4369776211678981781005859375">
        <ele>3581.199951171875</ele>
        <time>2021-06-26T20:26:17.000Z</time>
        <extensions>
          <ns3:TrackPointExtension>
            <ns3:atemp>29.0</ns3:atemp>
            <ns3:hr>113</ns3:hr>
          </ns3:TrackPointExtension>
        </extensions>
      </trkpt>
      <trkpt lat="36.815265677869319915771484375" lon="-118.436980806291103363037109375">
        <ele>3581.199951171875</ele>
        <time>2021-06-26T20:26:19.000Z</time>
        <extensions>
          <ns3:TrackPointExtension>
            <ns3:atemp>29.0</ns3:atemp>
            <ns3:hr>116</ns3:hr>
          </ns3:TrackPointExtension>
        </extensions>
      </trkpt>
      <trkpt lat="36.8152805976569652557373046875" lon="-118.43698642216622829437255859375">
        <ele>3581.199951171875</ele>
        <time>2021-06-26T20:26:21.000Z</time>
        <extensions>
          <ns3:TrackPointExtension>
            <ns3:atemp>29.0</ns3:atemp>
            <ns3:hr>119</ns3:hr>
          </ns3:TrackPointExtension>
        </extensions>
      </trkpt>
      <trkpt lat="36.8153017200529575347900390625" lon="-118.436988852918148040771484375">
        <ele>3581</ele>
        <time>2021-06-26T20:26:24.000Z</time>
        <extensions>
          <ns3:TrackPointExtension>
            <ns3:atemp>29.0</ns3:atemp>
            <ns3:hr>122</ns3:hr>
          </ns3:TrackPointExtension>
        </extensions>
      </trkpt>
      <trkpt lat="36.815323345363140106201171875" lon="-118.43699815683066844940185546875">
        <ele>3581.199951171875</ele>
        <time>2021-06-26T20:26:27.000Z</time>
        <extensions>
          <ns3:TrackPointExtension>
            <ns3:atemp>29.0</ns3:atemp>
            <ns3:hr>123</ns3:hr>
          </ns3:TrackPointExtension>
        </extensions>
      </trkpt>
      <trkpt lat="36.81536416523158550262451171875" lon="-118.436983488500118255615234375">
        <ele>3580.800048828125</ele>
        <time>2021-06-26T20:26:34.000Z</time>
        <extensions>
          <ns3:TrackPointExtension>
            <ns3:atemp>29.0</ns3:atemp>
            <ns3:hr>120</ns3:hr>
          </ns3:TrackPointExtension>
        </extensions>
      </trkpt>
      <trkpt lat="36.81538646109402179718017578125" lon="-118.436970412731170654296875">
        <ele>3580.39990234375</ele>
        <time>2021-06-26T20:26:37.000Z</time>
        <extensions>
          <ns3:TrackPointExtension>
            <ns3:atemp>29.0</ns3:atemp>
            <ns3:hr>121</ns3:hr>
          </ns3:TrackPointExtension>
        </extensions>
      </trkpt>
      <trkpt lat="36.81539081968367099761962890625" lon="-118.43693411909043788909912109375">
        <ele>3579.39990234375</ele>
        <time>2021-06-26T20:26:42.000Z</time>
        <extensions>
          <ns3:TrackPointExtension>
            <ns3:atemp>29.0</ns3:atemp>
            <ns3:hr>123</ns3:hr>
          </ns3:TrackPointExtension>
        </extensions>
      </trkpt>
      <trkpt lat="36.8153955973684787750244140625" lon="-118.436929173767566680908203125">
        <ele>3579.199951171875</ele>
        <time>2021-06-26T20:26:43.000Z</time>
        <extensions>
          <ns3:TrackPointExtension>
            <ns3:atemp>29.0</ns3:atemp>
            <ns3:hr>123</ns3:hr>
          </ns3:TrackPointExtension>
        </extensions>
      </trkpt>
      <trkpt lat="36.815417893230915069580078125" lon="-118.4369181096553802490234375">
        <ele>3578.60009765625</ele>
        <time>2021-06-26T20:26:47.000Z</time>
        <extensions>
          <ns3:TrackPointExtension>
            <ns3:atemp>29.0</ns3:atemp>
            <ns3:hr>120</ns3:hr>
          </ns3:TrackPointExtension>
        </extensions>
      </trkpt>
      <trkpt lat="36.8154287897050380706787109375" lon="-118.436922132968902587890625">
        <ele>3578.39990234375</ele>
        <time>2021-06-26T20:26:49.000Z</time>
        <extensions>
          <ns3:TrackPointExtension>
            <ns3:atemp>29.0</ns3:atemp>
            <ns3:hr>120</ns3:hr>
          </ns3:TrackPointExtension>
        </extensions>
      </trkpt>
      <trkpt lat="36.815444715321063995361328125" lon="-118.43692489899694919586181640625">
        <ele>3578</ele>
        <time>2021-06-26T20:26:51.000Z</time>
        <extensions>
          <ns3:TrackPointExtension>
            <ns3:atemp>29.0</ns3:atemp>
            <ns3:hr>123</ns3:hr>
          </ns3:TrackPointExtension>
        </extensions>
      </trkpt>
      <trkpt lat="36.81546340696513652801513671875" lon="-118.43688902445137500762939453125">
        <ele>3577.800048828125</ele>
        <time>2021-06-26T20:26:57.000Z</time>
        <extensions>
          <ns3:TrackPointExtension>
            <ns3:atemp>29.0</ns3:atemp>
            <ns3:hr>123</ns3:hr>
          </ns3:TrackPointExtension>
        </extensions>
      </trkpt>
      <trkpt lat="36.81546692736446857452392578125" lon="-118.43688047491014003753662109375">
        <ele>3576.800048828125</ele>
        <time>2021-06-26T20:26:59.000Z</time>
        <extensions>
          <ns3:TrackPointExtension>
            <ns3:atemp>29.0</ns3:atemp>
            <ns3:hr>122</ns3:hr>
          </ns3:TrackPointExtension>
        </extensions>
      </trkpt>
      <trkpt lat="36.8155089206993579864501953125" lon="-118.4368602745234966278076171875">
        <ele>3575.800048828125</ele>
        <time>2021-06-26T20:27:06.000Z</time>
        <extensions>
          <ns3:TrackPointExtension>
            <ns3:atemp>29.0</ns3:atemp>
            <ns3:hr>121</ns3:hr>
          </ns3:TrackPointExtension>
        </extensions>
      </trkpt>
      <trkpt lat="36.81551721878349781036376953125" lon="-118.4368510544300079345703125">
        <ele>3575.60009765625</ele>
        <time>2021-06-26T20:27:08.000Z</time>
        <extensions>
          <ns3:TrackPointExtension>
            <ns3:atemp>29.0</ns3:atemp>
            <ns3:hr>121</ns3:hr>
          </ns3:TrackPointExtension>
        </extensions>
      </trkpt>
      <trkpt lat="36.8155340664088726043701171875" lon="-118.436812497675418853759765625">
        <ele>3574.39990234375</ele>
        <time>2021-06-26T20:27:14.000Z</time>
        <extensions>
          <ns3:TrackPointExtension>
            <ns3:atemp>29.0</ns3:atemp>
            <ns3:hr>119</ns3:hr>
          </ns3:TrackPointExtension>
        </extensions>
      </trkpt>
      <trkpt lat="36.81552794761955738067626953125" lon="-118.4367992542684078216552734375">
        <ele>3573.39990234375</ele>
        <time>2021-06-26T20:27:17.000Z</time>
        <extensions>
          <ns3:TrackPointExtension>
            <ns3:atemp>29.0</ns3:atemp>
            <ns3:hr>117</ns3:hr>
          </ns3:TrackPointExtension>
        </extensions>
      </trkpt>
      <trkpt lat="36.81552811525762081146240234375" lon="-118.43679539859294891357421875">
        <ele>3573.39990234375</ele>
        <time>2021-06-26T20:27:18.000Z</time>
        <extensions>
          <ns3:TrackPointExtension>
            <ns3:atemp>29.0</ns3:atemp>
            <ns3:hr>119</ns3:hr>
          </ns3:TrackPointExtension>
        </extensions>
      </trkpt>
      <trkpt lat="36.81552392430603504180908203125" lon="-118.43676363117992877960205078125">
        <ele>3572.39990234375</ele>
        <time>2021-06-26T20:27:23.000Z</time>
        <extensions>
          <ns3:TrackPointExtension>
            <ns3:atemp>29.0</ns3:atemp>
            <ns3:hr>118</ns3:hr>
          </ns3:TrackPointExtension>
        </extensions>
      </trkpt>
      <trkpt lat="36.81551906280219554901123046875" lon="-118.43674845993518829345703125">
        <ele>3572</ele>
        <time>2021-06-26T20:27:27.000Z</time>
        <extensions>
          <ns3:TrackPointExtension>
            <ns3:atemp>29.0</ns3:atemp>
            <ns3:hr>121</ns3:hr>
          </ns3:TrackPointExtension>
        </extensions>
      </trkpt>
      <trkpt lat="36.815521828830242156982421875" lon="-118.43673345632851123809814453125">
        <ele>3571.60009765625</ele>
        <time>2021-06-26T20:27:29.000Z</time>
        <extensions>
          <ns3:TrackPointExtension>
            <ns3:atemp>29.0</ns3:atemp>
            <ns3:hr>122</ns3:hr>
          </ns3:TrackPointExtension>
        </extensions>
      </trkpt>
      <trkpt lat="36.8155166320502758026123046875" lon="-118.436724655330181121826171875">
        <ele>3571.199951171875</ele>
        <time>2021-06-26T20:27:32.000Z</time>
        <extensions>
          <ns3:TrackPointExtension>
            <ns3:atemp>29.0</ns3:atemp>
            <ns3:hr>125</ns3:hr>
          </ns3:TrackPointExtension>
        </extensions>
      </trkpt>
      <trkpt lat="36.81552694179117679595947265625" lon="-118.4367197938263416290283203125">
        <ele>3570.800048828125</ele>
        <time>2021-06-26T20:27:35.000Z</time>
        <extensions>
          <ns3:TrackPointExtension>
            <ns3:atemp>29.0</ns3:atemp>
            <ns3:hr>128</ns3:hr>
          </ns3:TrackPointExtension>
        </extensions>
      </trkpt>
      <trkpt lat="36.8155471421778202056884765625" lon="-118.43669540248811244964599609375">
        <ele>3570</ele>
        <time>2021-06-26T20:27:40.000Z</time>
        <extensions>
          <ns3:TrackPointExtension>
            <ns3:atemp>29.0</ns3:atemp>
            <ns3:hr>126</ns3:hr>
          </ns3:TrackPointExtension>
        </extensions>
      </trkpt>
      <trkpt lat="36.81554890237748622894287109375" lon="-118.43667738139629364013671875">
        <ele>3569.60009765625</ele>
        <time>2021-06-26T20:27:43.000Z</time>
        <extensions>
          <ns3:TrackPointExtension>
            <ns3:atemp>29.0</ns3:atemp>
            <ns3:hr>123</ns3:hr>
          </ns3:TrackPointExtension>
        </extensions>
      </trkpt>
      <trkpt lat="36.81554387323558330535888671875" lon="-118.43666388653218746185302734375">
        <ele>3569</ele>
        <time>2021-06-26T20:27:45.000Z</time>
        <extensions>
          <ns3:TrackPointExtension>
            <ns3:atemp>29.0</ns3:atemp>
            <ns3:hr>122</ns3:hr>
          </ns3:TrackPointExtension>
        </extensions>
      </trkpt>
      <trkpt lat="36.81552945636212825775146484375" lon="-118.43664058484137058258056640625">
        <ele>3567.60009765625</ele>
        <time>2021-06-26T20:27:49.000Z</time>
        <extensions>
          <ns3:TrackPointExtension>
            <ns3:atemp>29.0</ns3:atemp>
            <ns3:hr>121</ns3:hr>
          </ns3:TrackPointExtension>
        </extensions>
      </trkpt>
      <trkpt lat="36.8155213259160518646240234375" lon="-118.43663622625172138214111328125">
        <ele>3567</ele>
        <time>2021-06-26T20:27:51.000Z</time>
        <extensions>
          <ns3:TrackPointExtension>
            <ns3:atemp>29.0</ns3:atemp>
            <ns3:hr>121</ns3:hr>
          </ns3:TrackPointExtension>
        </extensions>
      </trkpt>
      <trkpt lat="36.8155186437070369720458984375" lon="-118.43662633560597896575927734375">
        <ele>3566.60009765625</ele>
        <time>2021-06-26T20:27:53.000Z</time>
        <extensions>
          <ns3:TrackPointExtension>
            <ns3:atemp>29.0</ns3:atemp>
            <ns3:hr>121</ns3:hr>
          </ns3:TrackPointExtension>
        </extensions>
      </trkpt>
      <trkpt lat="36.8155141174793243408203125" lon="-118.4366041235625743865966796875">
        <ele>3566.39990234375</ele>
        <time>2021-06-26T20:27:57.000Z</time>
        <extensions>
          <ns3:TrackPointExtension>
            <ns3:atemp>29.0</ns3:atemp>
            <ns3:hr>119</ns3:hr>
          </ns3:TrackPointExtension>
        </extensions>
      </trkpt>
      <trkpt lat="36.81552191264927387237548828125" lon="-118.4365927241742610931396484375">
        <ele>3565.39990234375</ele>
        <time>2021-06-26T20:27:59.000Z</time>
        <extensions>
          <ns3:TrackPointExtension>
            <ns3:atemp>29.0</ns3:atemp>
            <ns3:hr>118</ns3:hr>
          </ns3:TrackPointExtension>
        </extensions>
      </trkpt>
      <trkpt lat="36.8155240081250667572021484375" lon="-118.43656967394053936004638671875">
        <ele>3565</ele>
        <time>2021-06-26T20:28:03.000Z</time>
        <extensions>
          <ns3:TrackPointExtension>
            <ns3:atemp>29.0</ns3:atemp>
            <ns3:hr>115</ns3:hr>
          </ns3:TrackPointExtension>
        </extensions>
      </trkpt>
      <trkpt lat="36.81551353074610233306884765625" lon="-118.4365586936473846435546875">
        <ele>3564.199951171875</ele>
        <time>2021-06-26T20:28:05.000Z</time>
        <extensions>
          <ns3:TrackPointExtension>
            <ns3:atemp>29.0</ns3:atemp>
            <ns3:hr>113</ns3:hr>
          </ns3:TrackPointExtension>
        </extensions>
      </trkpt>
      <trkpt lat="36.815519146621227264404296875" lon="-118.4365203045308589935302734375">
        <ele>3563.199951171875</ele>
        <time>2021-06-26T20:28:12.000Z</time>
        <extensions>
          <ns3:TrackPointExtension>
            <ns3:atemp>29.0</ns3:atemp>
            <ns3:hr>111</ns3:hr>
          </ns3:TrackPointExtension>
        </extensions>
      </trkpt>
      <trkpt lat="36.8155142851173877716064453125" lon="-118.43651368282735347747802734375">
        <ele>3563.199951171875</ele>
        <time>2021-06-26T20:28:13.000Z</time>
        <extensions>
          <ns3:TrackPointExtension>
            <ns3:atemp>29.0</ns3:atemp>
            <ns3:hr>111</ns3:hr>
          </ns3:TrackPointExtension>
        </extensions>
      </trkpt>
      <trkpt lat="36.81553130038082599639892578125" lon="-118.436491303145885467529296875">
        <ele>3562.39990234375</ele>
        <time>2021-06-26T20:28:18.000Z</time>
        <extensions>
          <ns3:TrackPointExtension>
            <ns3:atemp>29.0</ns3:atemp>
            <ns3:hr>114</ns3:hr>
          </ns3:TrackPointExtension>
        </extensions>
      </trkpt>
      <trkpt lat="36.81553314439952373504638671875" lon="-118.4364814125001430511474609375">
        <ele>3562</ele>
        <time>2021-06-26T20:28:19.000Z</time>
        <extensions>
          <ns3:TrackPointExtension>
            <ns3:atemp>29.0</ns3:atemp>
            <ns3:hr>114</ns3:hr>
          </ns3:TrackPointExtension>
        </extensions>
      </trkpt>
      <trkpt lat="36.81554135866463184356689453125" lon="-118.43645249493420124053955078125">
        <ele>3561.39990234375</ele>
        <time>2021-06-26T20:28:23.000Z</time>
        <extensions>
          <ns3:TrackPointExtension>
            <ns3:atemp>29.0</ns3:atemp>
            <ns3:hr>117</ns3:hr>
          </ns3:TrackPointExtension>
        </extensions>
      </trkpt>
      <trkpt lat="36.8155394308269023895263671875" lon="-118.43644671142101287841796875">
        <ele>3561.199951171875</ele>
        <time>2021-06-26T20:28:24.000Z</time>
        <extensions>
          <ns3:TrackPointExtension>
            <ns3:atemp>29.0</ns3:atemp>
            <ns3:hr>116</ns3:hr>
          </ns3:TrackPointExtension>
        </extensions>
      </trkpt>
      <trkpt lat="36.815537922084331512451171875" lon="-118.4364398382604122161865234375">
        <ele>3561</ele>
        <time>2021-06-26T20:28:25.000Z</time>
        <extensions>
          <ns3:TrackPointExtension>
            <ns3:atemp>29.0</ns3:atemp>
            <ns3:hr>118</ns3:hr>
          </ns3:TrackPointExtension>
        </extensions>
      </trkpt>
      <trkpt lat="36.81552819907665252685546875" lon="-118.4364083223044872283935546875">
        <ele>3560</ele>
        <time>2021-06-26T20:28:29.000Z</time>
        <extensions>
          <ns3:TrackPointExtension>
            <ns3:atemp>29.0</ns3:atemp>
            <ns3:hr>120</ns3:hr>
          </ns3:TrackPointExtension>
        </extensions>
      </trkpt>
      <trkpt lat="36.81551344692707061767578125" lon="-118.43638242222368717193603515625">
        <ele>3559</ele>
        <time>2021-06-26T20:28:34.000Z</time>
        <extensions>
          <ns3:TrackPointExtension>
            <ns3:atemp>29.0</ns3:atemp>
            <ns3:hr>121</ns3:hr>
          </ns3:TrackPointExtension>
        </extensions>
      </trkpt>
      <trkpt lat="36.81551805697381496429443359375" lon="-118.4363758005201816558837890625">
        <ele>3558.800048828125</ele>
        <time>2021-06-26T20:28:36.000Z</time>
        <extensions>
          <ns3:TrackPointExtension>
            <ns3:atemp>29.0</ns3:atemp>
            <ns3:hr>121</ns3:hr>
          </ns3:TrackPointExtension>
        </extensions>
      </trkpt>
      <trkpt lat="36.81552149355411529541015625" lon="-118.4363291971385478973388671875">
        <ele>3558</ele>
        <time>2021-06-26T20:28:41.000Z</time>
        <extensions>
          <ns3:TrackPointExtension>
            <ns3:atemp>29.0</ns3:atemp>
            <ns3:hr>120</ns3:hr>
          </ns3:TrackPointExtension>
        </extensions>
      </trkpt>
      <trkpt lat="36.8155193142592906951904296875" lon="-118.43632475472986698150634765625">
        <ele>3557.39990234375</ele>
        <time>2021-06-26T20:28:42.000Z</time>
        <extensions>
          <ns3:TrackPointExtension>
            <ns3:atemp>29.0</ns3:atemp>
            <ns3:hr>120</ns3:hr>
          </ns3:TrackPointExtension>
        </extensions>
      </trkpt>
      <trkpt lat="36.8155012093484401702880859375" lon="-118.4363037161529064178466796875">
        <ele>3556.199951171875</ele>
        <time>2021-06-26T20:28:47.000Z</time>
        <extensions>
          <ns3:TrackPointExtension>
            <ns3:atemp>29.0</ns3:atemp>
            <ns3:hr>119</ns3:hr>
          </ns3:TrackPointExtension>
        </extensions>
      </trkpt>
      <trkpt lat="36.81549006141722202301025390625" lon="-118.43629994429647922515869140625">
        <ele>3556</ele>
        <time>2021-06-26T20:28:49.000Z</time>
        <extensions>
          <ns3:TrackPointExtension>
            <ns3:atemp>29.0</ns3:atemp>
            <ns3:hr>120</ns3:hr>
          </ns3:TrackPointExtension>
        </extensions>
      </trkpt>
      <trkpt lat="36.81547262705862522125244140625" lon="-118.43627999536693096160888671875">
        <ele>3554.800048828125</ele>
        <time>2021-06-26T20:28:54.000Z</time>
        <extensions>
          <ns3:TrackPointExtension>
            <ns3:atemp>29.0</ns3:atemp>
            <ns3:hr>119</ns3:hr>
          </ns3:TrackPointExtension>
        </extensions>
      </trkpt>
      <trkpt lat="36.81544479914009571075439453125" lon="-118.43627463094890117645263671875">
        <ele>3554.60009765625</ele>
        <time>2021-06-26T20:28:58.000Z</time>
        <extensions>
          <ns3:TrackPointExtension>
            <ns3:atemp>29.0</ns3:atemp>
            <ns3:hr>116</ns3:hr>
          </ns3:TrackPointExtension>
        </extensions>
      </trkpt>
      <trkpt lat="36.8154257722198963165283203125" lon="-118.4362738765776157379150390625">
        <ele>3554.199951171875</ele>
        <time>2021-06-26T20:29:01.000Z</time>
        <extensions>
          <ns3:TrackPointExtension>
            <ns3:atemp>29.0</ns3:atemp>
            <ns3:hr>113</ns3:hr>
          </ns3:TrackPointExtension>
        </extensions>
      </trkpt>
      <trkpt lat="36.81541663594543933868408203125" lon="-118.43627211637794971466064453125">
        <ele>3553.60009765625</ele>
        <time>2021-06-26T20:29:03.000Z</time>
        <extensions>
          <ns3:TrackPointExtension>
            <ns3:atemp>29.0</ns3:atemp>
            <ns3:hr>113</ns3:hr>
          </ns3:TrackPointExtension>
        </extensions>
      </trkpt>
      <trkpt lat="36.81540087796747684478759765625" lon="-118.4362524189054965972900390625">
        <ele>3552.39990234375</ele>
        <time>2021-06-26T20:29:07.000Z</time>
        <extensions>
          <ns3:TrackPointExtension>
            <ns3:atemp>29.0</ns3:atemp>
            <ns3:hr>111</ns3:hr>
          </ns3:TrackPointExtension>
        </extensions>
      </trkpt>
      <trkpt lat="36.81537958793342113494873046875" lon="-118.43624956905841827392578125">
        <ele>3551.60009765625</ele>
        <time>2021-06-26T20:29:11.000Z</time>
        <extensions>
          <ns3:TrackPointExtension>
            <ns3:atemp>29.0</ns3:atemp>
            <ns3:hr>111</ns3:hr>
          </ns3:TrackPointExtension>
        </extensions>
      </trkpt>
      <trkpt lat="36.8153758160769939422607421875" lon="-118.436247892677783966064453125">
        <ele>3551.39990234375</ele>
        <time>2021-06-26T20:29:12.000Z</time>
        <extensions>
          <ns3:TrackPointExtension>
            <ns3:atemp>29.0</ns3:atemp>
            <ns3:hr>110</ns3:hr>
          </ns3:TrackPointExtension>
        </extensions>
      </trkpt>
      <trkpt lat="36.8153852038085460662841796875" lon="-118.4362212382256984710693359375">
        <ele>3550.39990234375</ele>
        <time>2021-06-26T20:29:17.000Z</time>
        <extensions>
          <ns3:TrackPointExtension>
            <ns3:atemp>29.0</ns3:atemp>
            <ns3:hr>110</ns3:hr>
          </ns3:TrackPointExtension>
        </extensions>
      </trkpt>
      <trkpt lat="36.8154036439955234527587890625" lon="-118.4361870400607585906982421875">
        <ele>3548.800048828125</ele>
        <time>2021-06-26T20:29:23.000Z</time>
        <extensions>
          <ns3:TrackPointExtension>
            <ns3:atemp>29.0</ns3:atemp>
            <ns3:hr>111</ns3:hr>
          </ns3:TrackPointExtension>
        </extensions>
      </trkpt>
      <trkpt lat="36.81541160680353641510009765625" lon="-118.43617538921535015106201171875">
        <ele>3548.800048828125</ele>
        <time>2021-06-26T20:29:25.000Z</time>
        <extensions>
          <ns3:TrackPointExtension>
            <ns3:atemp>29.0</ns3:atemp>
            <ns3:hr>112</ns3:hr>
          </ns3:TrackPointExtension>
        </extensions>
      </trkpt>
      <trkpt lat="36.81544111110270023345947265625" lon="-118.4361469745635986328125">
        <ele>3548.199951171875</ele>
        <time>2021-06-26T20:29:30.000Z</time>
        <extensions>
          <ns3:TrackPointExtension>
            <ns3:atemp>29.0</ns3:atemp>
            <ns3:hr>109</ns3:hr>
          </ns3:TrackPointExtension>
        </extensions>
      </trkpt>
      <trkpt lat="36.81545217521488666534423828125" lon="-118.43610766343772411346435546875">
        <ele>3548</ele>
        <time>2021-06-26T20:29:35.000Z</time>
        <extensions>
          <ns3:TrackPointExtension>
            <ns3:atemp>29.0</ns3:atemp>
            <ns3:hr>107</ns3:hr>
          </ns3:TrackPointExtension>
        </extensions>
      </trkpt>
      <trkpt lat="36.8154448829591274261474609375" lon="-118.43609995208680629730224609375">
        <ele>3547.199951171875</ele>
        <time>2021-06-26T20:29:36.000Z</time>
        <extensions>
          <ns3:TrackPointExtension>
            <ns3:atemp>29.0</ns3:atemp>
            <ns3:hr>107</ns3:hr>
          </ns3:TrackPointExtension>
        </extensions>
      </trkpt>
      <trkpt lat="36.8154264427721500396728515625" lon="-118.436100371181964874267578125">
        <ele>3546.39990234375</ele>
        <time>2021-06-26T20:29:40.000Z</time>
        <extensions>
          <ns3:TrackPointExtension>
            <ns3:atemp>29.0</ns3:atemp>
            <ns3:hr>110</ns3:hr>
          </ns3:TrackPointExtension>
        </extensions>
      </trkpt>
      <trkpt lat="36.81542099453508853912353515625" lon="-118.43609668314456939697265625">
        <ele>3546.199951171875</ele>
        <time>2021-06-26T20:29:41.000Z</time>
        <extensions>
          <ns3:TrackPointExtension>
            <ns3:atemp>29.0</ns3:atemp>
            <ns3:hr>114</ns3:hr>
          </ns3:TrackPointExtension>
        </extensions>
      </trkpt>
      <trkpt lat="36.81539048440754413604736328125" lon="-118.4360643289983272552490234375">
        <ele>3544.60009765625</ele>
        <time>2021-06-26T20:29:47.000Z</time>
        <extensions>
          <ns3:TrackPointExtension>
            <ns3:atemp>29.0</ns3:atemp>
            <ns3:hr>113</ns3:hr>
          </ns3:TrackPointExtension>
        </extensions>
      </trkpt>
      <trkpt lat="36.81539048440754413604736328125" lon="-118.43606583774089813232421875">
        <ele>3544.199951171875</ele>
        <time>2021-06-26T20:29:49.000Z</time>
        <extensions>
          <ns3:TrackPointExtension>
            <ns3:atemp>29.0</ns3:atemp>
            <ns3:hr>113</ns3:hr>
          </ns3:TrackPointExtension>
        </extensions>
      </trkpt>
      <trkpt lat="36.815392412245273590087890625" lon="-118.436049409210681915283203125">
        <ele>3543.39990234375</ele>
        <time>2021-06-26T20:29:58.000Z</time>
        <extensions>
          <ns3:TrackPointExtension>
            <ns3:atemp>29.0</ns3:atemp>
            <ns3:hr>112</ns3:hr>
          </ns3:TrackPointExtension>
        </extensions>
      </trkpt>
      <trkpt lat="36.81539685465395450592041015625" lon="-118.43602099455893039703369140625">
        <ele>3542.39990234375</ele>
        <time>2021-06-26T20:30:01.000Z</time>
        <extensions>
          <ns3:TrackPointExtension>
            <ns3:atemp>29.0</ns3:atemp>
            <ns3:hr>111</ns3:hr>
          </ns3:TrackPointExtension>
        </extensions>
      </trkpt>
      <trkpt lat="36.8153996206820011138916015625" lon="-118.43600682914257049560546875">
        <ele>3542.199951171875</ele>
        <time>2021-06-26T20:30:02.000Z</time>
        <extensions>
          <ns3:TrackPointExtension>
            <ns3:atemp>29.0</ns3:atemp>
            <ns3:hr>110</ns3:hr>
          </ns3:TrackPointExtension>
        </extensions>
      </trkpt>
      <trkpt lat="36.815387047827243804931640625" lon="-118.43597221188247203826904296875">
        <ele>3541.60009765625</ele>
        <time>2021-06-26T20:30:06.000Z</time>
        <extensions>
          <ns3:TrackPointExtension>
            <ns3:atemp>29.0</ns3:atemp>
            <ns3:hr>107</ns3:hr>
          </ns3:TrackPointExtension>
        </extensions>
      </trkpt>
      <trkpt lat="36.8153805099427700042724609375" lon="-118.43597237952053546905517578125">
        <ele>3541.199951171875</ele>
        <time>2021-06-26T20:30:07.000Z</time>
        <extensions>
          <ns3:TrackPointExtension>
            <ns3:atemp>29.0</ns3:atemp>
            <ns3:hr>108</ns3:hr>
          </ns3:TrackPointExtension>
        </extensions>
      </trkpt>
      <trkpt lat="36.815373636782169342041015625" lon="-118.435972966253757476806640625">
        <ele>3540.60009765625</ele>
        <time>2021-06-26T20:30:08.000Z</time>
        <extensions>
          <ns3:TrackPointExtension>
            <ns3:atemp>29.0</ns3:atemp>
            <ns3:hr>108</ns3:hr>
          </ns3:TrackPointExtension>
        </extensions>
      </trkpt>
      <trkpt lat="36.81537087075412273406982421875" lon="-118.435946144163608551025390625">
        <ele>3539.39990234375</ele>
        <time>2021-06-26T20:30:14.000Z</time>
        <extensions>
          <ns3:TrackPointExtension>
            <ns3:atemp>29.0</ns3:atemp>
            <ns3:hr>105</ns3:hr>
          </ns3:TrackPointExtension>
        </extensions>
      </trkpt>
      <trkpt lat="36.8153432942926883697509765625" lon="-118.43591697514057159423828125">
        <ele>3538.199951171875</ele>
        <time>2021-06-26T20:30:20.000Z</time>
        <extensions>
          <ns3:TrackPointExtension>
            <ns3:atemp>29.0</ns3:atemp>
            <ns3:hr>104</ns3:hr>
          </ns3:TrackPointExtension>
        </extensions>
      </trkpt>
      <trkpt lat="36.815338768064975738525390625" lon="-118.4359137900173664093017578125">
        <ele>3538</ele>
        <time>2021-06-26T20:30:21.000Z</time>
        <extensions>
          <ns3:TrackPointExtension>
            <ns3:atemp>29.0</ns3:atemp>
            <ns3:hr>107</ns3:hr>
          </ns3:TrackPointExtension>
        </extensions>
      </trkpt>
      <trkpt lat="36.8153365887701511383056640625" lon="-118.43590892851352691650390625">
        <ele>3537.60009765625</ele>
        <time>2021-06-26T20:30:23.000Z</time>
        <extensions>
          <ns3:TrackPointExtension>
            <ns3:atemp>29.0</ns3:atemp>
            <ns3:hr>110</ns3:hr>
          </ns3:TrackPointExtension>
        </extensions>
      </trkpt>
      <trkpt lat="36.81533801369369029998779296875" lon="-118.43588520772755146026611328125">
        <ele>3537.199951171875</ele>
        <time>2021-06-26T20:30:26.000Z</time>
        <extensions>
          <ns3:TrackPointExtension>
            <ns3:atemp>29.0</ns3:atemp>
            <ns3:hr>111</ns3:hr>
          </ns3:TrackPointExtension>
        </extensions>
      </trkpt>
      <trkpt lat="36.8153429590165615081787109375" lon="-118.43587732873857021331787109375">
        <ele>3536.800048828125</ele>
        <time>2021-06-26T20:30:27.000Z</time>
        <extensions>
          <ns3:TrackPointExtension>
            <ns3:atemp>29.0</ns3:atemp>
            <ns3:hr>111</ns3:hr>
          </ns3:TrackPointExtension>
        </extensions>
      </trkpt>
      <trkpt lat="36.8153556995093822479248046875" lon="-118.43583541922271251678466796875">
        <ele>3535.60009765625</ele>
        <time>2021-06-26T20:30:33.000Z</time>
        <extensions>
          <ns3:TrackPointExtension>
            <ns3:atemp>29.0</ns3:atemp>
            <ns3:hr>109</ns3:hr>
          </ns3:TrackPointExtension>
        </extensions>
      </trkpt>
      <trkpt lat="36.81535377167165279388427734375" lon="-118.435830809175968170166015625">
        <ele>3534.199951171875</ele>
        <time>2021-06-26T20:30:34.000Z</time>
        <extensions>
          <ns3:TrackPointExtension>
            <ns3:atemp>29.0</ns3:atemp>
            <ns3:hr>109</ns3:hr>
          </ns3:TrackPointExtension>
        </extensions>
      </trkpt>
      <trkpt lat="36.81535578332841396331787109375" lon="-118.435821421444416046142578125">
        <ele>3534.199951171875</ele>
        <time>2021-06-26T20:30:35.000Z</time>
        <extensions>
          <ns3:TrackPointExtension>
            <ns3:atemp>29.0</ns3:atemp>
            <ns3:hr>108</ns3:hr>
          </ns3:TrackPointExtension>
        </extensions>
      </trkpt>
      <trkpt lat="36.81535578332841396331787109375" lon="-118.43578395433723926544189453125">
        <ele>3533.39990234375</ele>
        <time>2021-06-26T20:30:41.000Z</time>
        <extensions>
          <ns3:TrackPointExtension>
            <ns3:atemp>29.0</ns3:atemp>
            <ns3:hr>105</ns3:hr>
          </ns3:TrackPointExtension>
        </extensions>
      </trkpt>
      <trkpt lat="36.8153496645390987396240234375" lon="-118.43577842228114604949951171875">
        <ele>3533.199951171875</ele>
        <time>2021-06-26T20:30:42.000Z</time>
        <extensions>
          <ns3:TrackPointExtension>
            <ns3:atemp>29.0</ns3:atemp>
            <ns3:hr>104</ns3:hr>
          </ns3:TrackPointExtension>
        </extensions>
      </trkpt>
      <trkpt lat="36.815341450273990631103515625" lon="-118.43576869927346706390380859375">
        <ele>3532.800048828125</ele>
        <time>2021-06-26T20:30:44.000Z</time>
        <extensions>
          <ns3:TrackPointExtension>
            <ns3:atemp>29.0</ns3:atemp>
            <ns3:hr>103</ns3:hr>
          </ns3:TrackPointExtension>
        </extensions>
      </trkpt>
      <trkpt lat="36.81533985771238803863525390625" lon="-118.43574355356395244598388671875">
        <ele>3532.199951171875</ele>
        <time>2021-06-26T20:30:47.000Z</time>
        <extensions>
          <ns3:TrackPointExtension>
            <ns3:atemp>28.0</ns3:atemp>
            <ns3:hr>102</ns3:hr>
          </ns3:TrackPointExtension>
        </extensions>
      </trkpt>
      <trkpt lat="36.81534371338784694671630859375" lon="-118.43571505509316921234130859375">
        <ele>3531.39990234375</ele>
        <time>2021-06-26T20:30:52.000Z</time>
        <extensions>
          <ns3:TrackPointExtension>
            <ns3:atemp>28.0</ns3:atemp>
            <ns3:hr>102</ns3:hr>
          </ns3:TrackPointExtension>
        </extensions>
      </trkpt>
      <trkpt lat="36.81535745970904827117919921875" lon="-118.43569493852555751800537109375">
        <ele>3530.60009765625</ele>
        <time>2021-06-26T20:30:55.000Z</time>
        <extensions>
          <ns3:TrackPointExtension>
            <ns3:atemp>28.0</ns3:atemp>
            <ns3:hr>101</ns3:hr>
          </ns3:TrackPointExtension>
        </extensions>
      </trkpt>
      <trkpt lat="36.8153546936810016632080078125" lon="-118.43565755523741245269775390625">
        <ele>3529.800048828125</ele>
        <time>2021-06-26T20:31:00.000Z</time>
        <extensions>
          <ns3:TrackPointExtension>
            <ns3:atemp>28.0</ns3:atemp>
            <ns3:hr>102</ns3:hr>
          </ns3:TrackPointExtension>
        </extensions>
      </trkpt>
      <trkpt lat="36.8153451383113861083984375" lon="-118.43564548529684543609619140625">
        <ele>3529.199951171875</ele>
        <time>2021-06-26T20:31:02.000Z</time>
        <extensions>
          <ns3:TrackPointExtension>
            <ns3:atemp>28.0</ns3:atemp>
            <ns3:hr>102</ns3:hr>
          </ns3:TrackPointExtension>
        </extensions>
      </trkpt>
      <trkpt lat="36.8153510056436061859130859375" lon="-118.43562268652021884918212890625">
        <ele>3528.199951171875</ele>
        <time>2021-06-26T20:31:05.000Z</time>
        <extensions>
          <ns3:TrackPointExtension>
            <ns3:atemp>28.0</ns3:atemp>
            <ns3:hr>104</ns3:hr>
          </ns3:TrackPointExtension>
        </extensions>
      </trkpt>
      <trkpt lat="36.81536399759352207183837890625" lon="-118.4356039948761463165283203125">
        <ele>3528</ele>
        <time>2021-06-26T20:31:07.000Z</time>
        <extensions>
          <ns3:TrackPointExtension>
            <ns3:atemp>28.0</ns3:atemp>
            <ns3:hr>104</ns3:hr>
          </ns3:TrackPointExtension>
        </extensions>
      </trkpt>
      <trkpt lat="36.81534287519752979278564453125" lon="-118.435564599931240081787109375">
        <ele>3526.800048828125</ele>
        <time>2021-06-26T20:31:14.000Z</time>
        <extensions>
          <ns3:TrackPointExtension>
            <ns3:atemp>28.0</ns3:atemp>
            <ns3:hr>103</ns3:hr>
          </ns3:TrackPointExtension>
        </extensions>
      </trkpt>
      <trkpt lat="36.81533508002758026123046875" lon="-118.43556032516062259674072265625">
        <ele>3526.199951171875</ele>
        <time>2021-06-26T20:31:15.000Z</time>
        <extensions>
          <ns3:TrackPointExtension>
            <ns3:atemp>28.0</ns3:atemp>
            <ns3:hr>102</ns3:hr>
          </ns3:TrackPointExtension>
        </extensions>
      </trkpt>
      <trkpt lat="36.81530079804360866546630859375" lon="-118.43556283973157405853271484375">
        <ele>3526.199951171875</ele>
        <time>2021-06-26T20:31:22.000Z</time>
        <extensions>
          <ns3:TrackPointExtension>
            <ns3:atemp>28.0</ns3:atemp>
            <ns3:hr>100</ns3:hr>
          </ns3:TrackPointExtension>
        </extensions>
      </trkpt>
      <trkpt lat="36.815293841063976287841796875" lon="-118.43556434847414493560791015625">
        <ele>3525.800048828125</ele>
        <time>2021-06-26T20:31:24.000Z</time>
        <extensions>
          <ns3:TrackPointExtension>
            <ns3:atemp>28.0</ns3:atemp>
            <ns3:hr>100</ns3:hr>
          </ns3:TrackPointExtension>
        </extensions>
      </trkpt>
      <trkpt lat="36.81527799926698207855224609375" lon="-118.43555512838065624237060546875">
        <ele>3524.60009765625</ele>
        <time>2021-06-26T20:31:28.000Z</time>
        <extensions>
          <ns3:TrackPointExtension>
            <ns3:atemp>28.0</ns3:atemp>
            <ns3:hr>100</ns3:hr>
          </ns3:TrackPointExtension>
        </extensions>
      </trkpt>
      <trkpt lat="36.81528202258050441741943359375" lon="-118.43552269041538238525390625">
        <ele>3524.39990234375</ele>
        <time>2021-06-26T20:31:32.000Z</time>
        <extensions>
          <ns3:TrackPointExtension>
            <ns3:atemp>28.0</ns3:atemp>
            <ns3:hr>101</ns3:hr>
          </ns3:TrackPointExtension>
        </extensions>
      </trkpt>
      <trkpt lat="36.8152360059320926666259765625" lon="-118.435492180287837982177734375">
        <ele>3523.39990234375</ele>
        <time>2021-06-26T20:31:39.000Z</time>
        <extensions>
          <ns3:TrackPointExtension>
            <ns3:atemp>28.0</ns3:atemp>
            <ns3:hr>99</ns3:hr>
          </ns3:TrackPointExtension>
        </extensions>
      </trkpt>
      <trkpt lat="36.815234161913394927978515625" lon="-118.43549679033458232879638671875">
        <ele>3523.39990234375</ele>
        <time>2021-06-26T20:31:40.000Z</time>
        <extensions>
          <ns3:TrackPointExtension>
            <ns3:atemp>28.0</ns3:atemp>
            <ns3:hr>98</ns3:hr>
          </ns3:TrackPointExtension>
        </extensions>
      </trkpt>
      <trkpt lat="36.81522519327700138092041015625" lon="-118.43549461103975772857666015625">
        <ele>3523.60009765625</ele>
        <time>2021-06-26T20:31:47.000Z</time>
        <extensions>
          <ns3:TrackPointExtension>
            <ns3:atemp>28.0</ns3:atemp>
            <ns3:hr>99</ns3:hr>
          </ns3:TrackPointExtension>
        </extensions>
      </trkpt>
      <trkpt lat="36.81522376835346221923828125" lon="-118.4354777634143829345703125">
        <ele>3523.60009765625</ele>
        <time>2021-06-26T20:31:50.000Z</time>
        <extensions>
          <ns3:TrackPointExtension>
            <ns3:atemp>28.0</ns3:atemp>
            <ns3:hr>98</ns3:hr>
          </ns3:TrackPointExtension>
        </extensions>
      </trkpt>
      <trkpt lat="36.8152021430432796478271484375" lon="-118.4354926832020282745361328125">
        <ele>3522.800048828125</ele>
        <time>2021-06-26T20:31:58.000Z</time>
        <extensions>
          <ns3:TrackPointExtension>
            <ns3:atemp>28.0</ns3:atemp>
            <ns3:hr>96</ns3:hr>
          </ns3:TrackPointExtension>
        </extensions>
      </trkpt>
      <trkpt lat="36.81518780998885631561279296875" lon="-118.4355000592768192291259765625">
        <ele>3522.199951171875</ele>
        <time>2021-06-26T20:32:01.000Z</time>
        <extensions>
          <ns3:TrackPointExtension>
            <ns3:atemp>28.0</ns3:atemp>
            <ns3:hr>95</ns3:hr>
          </ns3:TrackPointExtension>
        </extensions>
      </trkpt>
      <trkpt lat="36.81516082026064395904541015625" lon="-118.4355037473142147064208984375">
        <ele>3521.800048828125</ele>
        <time>2021-06-26T20:32:04.000Z</time>
        <extensions>
          <ns3:TrackPointExtension>
            <ns3:atemp>28.0</ns3:atemp>
            <ns3:hr>96</ns3:hr>
          </ns3:TrackPointExtension>
        </extensions>
      </trkpt>
      <trkpt lat="36.815139949321746826171875" lon="-118.43551925383508205413818359375">
        <ele>3522</ele>
        <time>2021-06-26T20:32:07.000Z</time>
        <extensions>
          <ns3:TrackPointExtension>
            <ns3:atemp>28.0</ns3:atemp>
            <ns3:hr>99</ns3:hr>
          </ns3:TrackPointExtension>
        </extensions>
      </trkpt>
      <trkpt lat="36.8151042424142360687255859375" lon="-118.43552696518599987030029296875">
        <ele>3522.199951171875</ele>
        <time>2021-06-26T20:32:11.000Z</time>
        <extensions>
          <ns3:TrackPointExtension>
            <ns3:atemp>28.0</ns3:atemp>
            <ns3:hr>103</ns3:hr>
          </ns3:TrackPointExtension>
        </extensions>
      </trkpt>
      <trkpt lat="36.81509577669203281402587890625" lon="-118.43552780337631702423095703125">
        <ele>3522.199951171875</ele>
        <time>2021-06-26T20:32:12.000Z</time>
        <extensions>
          <ns3:TrackPointExtension>
            <ns3:atemp>28.0</ns3:atemp>
            <ns3:hr>107</ns3:hr>
          </ns3:TrackPointExtension>
        </extensions>
      </trkpt>
      <trkpt lat="36.81508555077016353607177734375" lon="-118.4355295635759830474853515625">
        <ele>3522.199951171875</ele>
        <time>2021-06-26T20:32:13.000Z</time>
        <extensions>
          <ns3:TrackPointExtension>
            <ns3:atemp>28.0</ns3:atemp>
            <ns3:hr>110</ns3:hr>
          </ns3:TrackPointExtension>
        </extensions>
      </trkpt>
      <trkpt lat="36.815075576305389404296875" lon="-118.435533754527568817138671875">
        <ele>3522.199951171875</ele>
        <time>2021-06-26T20:32:14.000Z</time>
        <extensions>
          <ns3:TrackPointExtension>
            <ns3:atemp>28.0</ns3:atemp>
            <ns3:hr>113</ns3:hr>
          </ns3:TrackPointExtension>
        </extensions>
      </trkpt>
      <trkpt lat="36.8150688707828521728515625" lon="-118.43553652055561542510986328125">
        <ele>3522.199951171875</ele>
        <time>2021-06-26T20:32:15.000Z</time>
        <extensions>
          <ns3:TrackPointExtension>
            <ns3:atemp>28.0</ns3:atemp>
            <ns3:hr>116</ns3:hr>
          </ns3:TrackPointExtension>
        </extensions>
      </trkpt>
      <trkpt lat="36.81506157852709293365478515625" lon="-118.435540460050106048583984375">
        <ele>3522</ele>
        <time>2021-06-26T20:32:16.000Z</time>
        <extensions>
          <ns3:TrackPointExtension>
            <ns3:atemp>28.0</ns3:atemp>
            <ns3:hr>116</ns3:hr>
          </ns3:TrackPointExtension>
        </extensions>
      </trkpt>
      <trkpt lat="36.815054453909397125244140625" lon="-118.4355795197188854217529296875">
        <ele>3521.199951171875</ele>
        <time>2021-06-26T20:32:20.000Z</time>
        <extensions>
          <ns3:TrackPointExtension>
            <ns3:atemp>28.0</ns3:atemp>
            <ns3:hr>118</ns3:hr>
          </ns3:TrackPointExtension>
        </extensions>
      </trkpt>
      <trkpt lat="36.81505269370973110198974609375" lon="-118.43558463267982006072998046875">
        <ele>3521.199951171875</ele>
        <time>2021-06-26T20:32:21.000Z</time>
        <extensions>
          <ns3:TrackPointExtension>
            <ns3:atemp>28.0</ns3:atemp>
            <ns3:hr>118</ns3:hr>
          </ns3:TrackPointExtension>
        </extensions>
      </trkpt>
      <trkpt lat="36.81504447944462299346923828125" lon="-118.4355825372040271759033203125">
        <ele>3521.199951171875</ele>
        <time>2021-06-26T20:32:24.000Z</time>
        <extensions>
          <ns3:TrackPointExtension>
            <ns3:atemp>28.0</ns3:atemp>
            <ns3:hr>118</ns3:hr>
          </ns3:TrackPointExtension>
        </extensions>
      </trkpt>
      <trkpt lat="36.81503760628402233123779296875" lon="-118.4355681203305721282958984375">
        <ele>3521</ele>
        <time>2021-06-26T20:32:26.000Z</time>
        <extensions>
          <ns3:TrackPointExtension>
            <ns3:atemp>28.0</ns3:atemp>
            <ns3:hr>118</ns3:hr>
          </ns3:TrackPointExtension>
        </extensions>
      </trkpt>
      <trkpt lat="36.815022267401218414306640625" lon="-118.4355483390390872955322265625">
        <ele>3520</ele>
        <time>2021-06-26T20:32:28.000Z</time>
        <extensions>
          <ns3:TrackPointExtension>
            <ns3:atemp>28.0</ns3:atemp>
            <ns3:hr>117</ns3:hr>
          </ns3:TrackPointExtension>
        </extensions>
      </trkpt>
      <trkpt lat="36.8149979598820209503173828125" lon="-118.43554859049618244171142578125">
        <ele>3519.39990234375</ele>
        <time>2021-06-26T20:32:31.000Z</time>
        <extensions>
          <ns3:TrackPointExtension>
            <ns3:atemp>28.0</ns3:atemp>
            <ns3:hr>114</ns3:hr>
          </ns3:TrackPointExtension>
        </extensions>
      </trkpt>
      <trkpt lat="36.814982034265995025634765625" lon="-118.4355590678751468658447265625">
        <ele>3518.800048828125</ele>
        <time>2021-06-26T20:32:33.000Z</time>
        <extensions>
          <ns3:TrackPointExtension>
            <ns3:atemp>28.0</ns3:atemp>
            <ns3:hr>112</ns3:hr>
          </ns3:TrackPointExtension>
        </extensions>
      </trkpt>
      <trkpt lat="36.8149657733738422393798828125" lon="-118.43555361963808536529541015625">
        <ele>3518.800048828125</ele>
        <time>2021-06-26T20:32:36.000Z</time>
        <extensions>
          <ns3:TrackPointExtension>
            <ns3:atemp>28.0</ns3:atemp>
            <ns3:hr>109</ns3:hr>
          </ns3:TrackPointExtension>
        </extensions>
      </trkpt>
      <trkpt lat="36.81495445780456066131591796875" lon="-118.43554817140102386474609375">
        <ele>3518.199951171875</ele>
        <time>2021-06-26T20:32:38.000Z</time>
        <extensions>
          <ns3:TrackPointExtension>
            <ns3:atemp>28.0</ns3:atemp>
            <ns3:hr>109</ns3:hr>
          </ns3:TrackPointExtension>
        </extensions>
      </trkpt>
      <trkpt lat="36.814946494996547698974609375" lon="-118.43554708175361156463623046875">
        <ele>3518</ele>
        <time>2021-06-26T20:32:39.000Z</time>
        <extensions>
          <ns3:TrackPointExtension>
            <ns3:atemp>28.0</ns3:atemp>
            <ns3:hr>111</ns3:hr>
          </ns3:TrackPointExtension>
        </extensions>
      </trkpt>
      <trkpt lat="36.81493635289371013641357421875" lon="-118.43554574064910411834716796875">
        <ele>3518</ele>
        <time>2021-06-26T20:32:40.000Z</time>
        <extensions>
          <ns3:TrackPointExtension>
            <ns3:atemp>28.0</ns3:atemp>
            <ns3:hr>109</ns3:hr>
          </ns3:TrackPointExtension>
        </extensions>
      </trkpt>
      <trkpt lat="36.81492126546800136566162109375" lon="-118.43554641120135784149169921875">
        <ele>3517.60009765625</ele>
        <time>2021-06-26T20:32:42.000Z</time>
        <extensions>
          <ns3:TrackPointExtension>
            <ns3:atemp>28.0</ns3:atemp>
            <ns3:hr>110</ns3:hr>
          </ns3:TrackPointExtension>
        </extensions>
      </trkpt>
      <trkpt lat="36.81489109061658382415771484375" lon="-118.43554146587848663330078125">
        <ele>3516.60009765625</ele>
        <time>2021-06-26T20:32:48.000Z</time>
        <extensions>
          <ns3:TrackPointExtension>
            <ns3:atemp>28.0</ns3:atemp>
            <ns3:hr>111</ns3:hr>
          </ns3:TrackPointExtension>
        </extensions>
      </trkpt>
      <trkpt lat="36.814889498054981231689453125" lon="-118.43553853221237659454345703125">
        <ele>3516.199951171875</ele>
        <time>2021-06-26T20:32:49.000Z</time>
        <extensions>
          <ns3:TrackPointExtension>
            <ns3:atemp>28.0</ns3:atemp>
            <ns3:hr>111</ns3:hr>
          </ns3:TrackPointExtension>
        </extensions>
      </trkpt>
      <trkpt lat="36.8148903362452983856201171875" lon="-118.4355101175606250762939453125">
        <ele>3515</ele>
        <time>2021-06-26T20:32:54.000Z</time>
        <extensions>
          <ns3:TrackPointExtension>
            <ns3:atemp>28.0</ns3:atemp>
            <ns3:hr>110</ns3:hr>
          </ns3:TrackPointExtension>
        </extensions>
      </trkpt>
      <trkpt lat="36.8148889951407909393310546875" lon="-118.4355037473142147064208984375">
        <ele>3515</ele>
        <time>2021-06-26T20:32:55.000Z</time>
        <extensions>
          <ns3:TrackPointExtension>
            <ns3:atemp>28.0</ns3:atemp>
            <ns3:hr>110</ns3:hr>
          </ns3:TrackPointExtension>
        </extensions>
      </trkpt>
      <trkpt lat="36.8148745782673358917236328125" lon="-118.435484468936920166015625">
        <ele>3514</ele>
        <time>2021-06-26T20:32:58.000Z</time>
        <extensions>
          <ns3:TrackPointExtension>
            <ns3:atemp>29.0</ns3:atemp>
            <ns3:hr>108</ns3:hr>
          </ns3:TrackPointExtension>
        </extensions>
      </trkpt>
      <trkpt lat="36.8148611672222614288330078125" lon="-118.43548119999468326568603515625">
        <ele>3513.199951171875</ele>
        <time>2021-06-26T20:33:01.000Z</time>
        <extensions>
          <ns3:TrackPointExtension>
            <ns3:atemp>29.0</ns3:atemp>
            <ns3:hr>105</ns3:hr>
          </ns3:TrackPointExtension>
        </extensions>
      </trkpt>
      <trkpt lat="36.81485035456717014312744140625" lon="-118.43547575175762176513671875">
        <ele>3512.800048828125</ele>
        <time>2021-06-26T20:33:04.000Z</time>
        <extensions>
          <ns3:TrackPointExtension>
            <ns3:atemp>29.0</ns3:atemp>
            <ns3:hr>103</ns3:hr>
          </ns3:TrackPointExtension>
        </extensions>
      </trkpt>
      <trkpt lat="36.81484985165297985076904296875" lon="-118.435463011264801025390625">
        <ele>3512.60009765625</ele>
        <time>2021-06-26T20:33:08.000Z</time>
        <extensions>
          <ns3:TrackPointExtension>
            <ns3:atemp>29.0</ns3:atemp>
            <ns3:hr>100</ns3:hr>
          </ns3:TrackPointExtension>
        </extensions>
      </trkpt>
      <trkpt lat="36.81485831737518310546875" lon="-118.435458652675151824951171875">
        <ele>3511.800048828125</ele>
        <time>2021-06-26T20:33:10.000Z</time>
        <extensions>
          <ns3:TrackPointExtension>
            <ns3:atemp>29.0</ns3:atemp>
            <ns3:hr>100</ns3:hr>
          </ns3:TrackPointExtension>
        </extensions>
      </trkpt>
      <trkpt lat="36.81487047113478183746337890625" lon="-118.43544985167682170867919921875">
        <ele>3511.60009765625</ele>
        <time>2021-06-26T20:33:12.000Z</time>
        <extensions>
          <ns3:TrackPointExtension>
            <ns3:atemp>29.0</ns3:atemp>
            <ns3:hr>99</ns3:hr>
          </ns3:TrackPointExtension>
        </extensions>
      </trkpt>
      <trkpt lat="36.8149010650813579559326171875" lon="-118.43540408648550510406494140625">
        <ele>3510.199951171875</ele>
        <time>2021-06-26T20:33:19.000Z</time>
        <extensions>
          <ns3:TrackPointExtension>
            <ns3:atemp>29.0</ns3:atemp>
            <ns3:hr>98</ns3:hr>
          </ns3:TrackPointExtension>
        </extensions>
      </trkpt>
      <trkpt lat="36.81491238065063953399658203125" lon="-118.43537575565278530120849609375">
        <ele>3509.60009765625</ele>
        <time>2021-06-26T20:33:23.000Z</time>
        <extensions>
          <ns3:TrackPointExtension>
            <ns3:atemp>29.0</ns3:atemp>
            <ns3:hr>95</ns3:hr>
          </ns3:TrackPointExtension>
        </extensions>
      </trkpt>
      <trkpt lat="36.81492210365831851959228515625" lon="-118.43536435626447200775146484375">
        <ele>3508.60009765625</ele>
        <time>2021-06-26T20:33:26.000Z</time>
        <extensions>
          <ns3:TrackPointExtension>
            <ns3:atemp>29.0</ns3:atemp>
            <ns3:hr>97</ns3:hr>
          </ns3:TrackPointExtension>
        </extensions>
      </trkpt>
      <trkpt lat="36.814932413399219512939453125" lon="-118.4353572316467761993408203125">
        <ele>3508.39990234375</ele>
        <time>2021-06-26T20:33:28.000Z</time>
        <extensions>
          <ns3:TrackPointExtension>
            <ns3:atemp>29.0</ns3:atemp>
            <ns3:hr>97</ns3:hr>
          </ns3:TrackPointExtension>
        </extensions>
      </trkpt>
      <trkpt lat="36.81495797820389270782470703125" lon="-118.435328900814056396484375">
        <ele>3507.39990234375</ele>
        <time>2021-06-26T20:33:33.000Z</time>
        <extensions>
          <ns3:TrackPointExtension>
            <ns3:atemp>29.0</ns3:atemp>
            <ns3:hr>97</ns3:hr>
          </ns3:TrackPointExtension>
        </extensions>
      </trkpt>
      <trkpt lat="36.8149835430085659027099609375" lon="-118.435307778418064117431640625">
        <ele>3506.60009765625</ele>
        <time>2021-06-26T20:33:37.000Z</time>
        <extensions>
          <ns3:TrackPointExtension>
            <ns3:atemp>29.0</ns3:atemp>
            <ns3:hr>97</ns3:hr>
          </ns3:TrackPointExtension>
        </extensions>
      </trkpt>
      <trkpt lat="36.814991421997547149658203125" lon="-118.43529093079268932342529296875">
        <ele>3506.199951171875</ele>
        <time>2021-06-26T20:33:39.000Z</time>
        <extensions>
          <ns3:TrackPointExtension>
            <ns3:atemp>29.0</ns3:atemp>
            <ns3:hr>96</ns3:hr>
          </ns3:TrackPointExtension>
        </extensions>
      </trkpt>
      <trkpt lat="36.81501832790672779083251953125" lon="-118.43525874428451061248779296875">
        <ele>3505</ele>
        <time>2021-06-26T20:33:44.000Z</time>
        <extensions>
          <ns3:TrackPointExtension>
            <ns3:atemp>29.0</ns3:atemp>
            <ns3:hr>98</ns3:hr>
          </ns3:TrackPointExtension>
        </extensions>
      </trkpt>
      <trkpt lat="36.815028972923755645751953125" lon="-118.43523435294628143310546875">
        <ele>3504.800048828125</ele>
        <time>2021-06-26T20:33:47.000Z</time>
        <extensions>
          <ns3:TrackPointExtension>
            <ns3:atemp>29.0</ns3:atemp>
            <ns3:hr>99</ns3:hr>
          </ns3:TrackPointExtension>
        </extensions>
      </trkpt>
      <trkpt lat="36.81504883803427219390869140625" lon="-118.4351949580013751983642578125">
        <ele>3503.60009765625</ele>
        <time>2021-06-26T20:33:51.000Z</time>
        <extensions>
          <ns3:TrackPointExtension>
            <ns3:atemp>29.0</ns3:atemp>
            <ns3:hr>98</ns3:hr>
          </ns3:TrackPointExtension>
        </extensions>
      </trkpt>
      <trkpt lat="36.81506576947867870330810546875" lon="-118.4351741708815097808837890625">
        <ele>3502.800048828125</ele>
        <time>2021-06-26T20:33:54.000Z</time>
        <extensions>
          <ns3:TrackPointExtension>
            <ns3:atemp>29.0</ns3:atemp>
            <ns3:hr>95</ns3:hr>
          </ns3:TrackPointExtension>
        </extensions>
      </trkpt>
      <trkpt lat="36.81507356464862823486328125" lon="-118.4351553954184055328369140625">
        <ele>3502.60009765625</ele>
        <time>2021-06-26T20:33:56.000Z</time>
        <extensions>
          <ns3:TrackPointExtension>
            <ns3:atemp>29.0</ns3:atemp>
            <ns3:hr>97</ns3:hr>
          </ns3:TrackPointExtension>
        </extensions>
      </trkpt>
      <trkpt lat="36.815075241029262542724609375" lon="-118.43514726497232913970947265625">
        <ele>3502.39990234375</ele>
        <time>2021-06-26T20:33:57.000Z</time>
        <extensions>
          <ns3:TrackPointExtension>
            <ns3:atemp>29.0</ns3:atemp>
            <ns3:hr>96</ns3:hr>
          </ns3:TrackPointExtension>
        </extensions>
      </trkpt>
      <trkpt lat="36.8150998838245868682861328125" lon="-118.435092531144618988037109375">
        <ele>3501.60009765625</ele>
        <time>2021-06-26T20:34:04.000Z</time>
        <extensions>
          <ns3:TrackPointExtension>
            <ns3:atemp>29.0</ns3:atemp>
            <ns3:hr>95</ns3:hr>
          </ns3:TrackPointExtension>
        </extensions>
      </trkpt>
      <trkpt lat="36.8151037395000457763671875" lon="-118.4350880049169063568115234375">
        <ele>3501.60009765625</ele>
        <time>2021-06-26T20:34:05.000Z</time>
        <extensions>
          <ns3:TrackPointExtension>
            <ns3:atemp>29.0</ns3:atemp>
            <ns3:hr>95</ns3:hr>
          </ns3:TrackPointExtension>
        </extensions>
      </trkpt>
      <trkpt lat="36.81510700844228267669677734375" lon="-118.43508289195597171783447265625">
        <ele>3501.60009765625</ele>
        <time>2021-06-26T20:34:06.000Z</time>
        <extensions>
          <ns3:TrackPointExtension>
            <ns3:atemp>29.0</ns3:atemp>
            <ns3:hr>95</ns3:hr>
          </ns3:TrackPointExtension>
        </extensions>
      </trkpt>
      <trkpt lat="36.8151136301457881927490234375" lon="-118.43503377400338649749755859375">
        <ele>3500.39990234375</ele>
        <time>2021-06-26T20:34:13.000Z</time>
        <extensions>
          <ns3:TrackPointExtension>
            <ns3:atemp>29.0</ns3:atemp>
            <ns3:hr>95</ns3:hr>
          </ns3:TrackPointExtension>
        </extensions>
      </trkpt>
      <trkpt lat="36.815110109746456146240234375" lon="-118.4350286610424518585205078125">
        <ele>3500.39990234375</ele>
        <time>2021-06-26T20:34:15.000Z</time>
        <extensions>
          <ns3:TrackPointExtension>
            <ns3:atemp>29.0</ns3:atemp>
            <ns3:hr>95</ns3:hr>
          </ns3:TrackPointExtension>
        </extensions>
      </trkpt>
      <trkpt lat="36.815101392567157745361328125" lon="-118.43504081480205059051513671875">
        <ele>3500</ele>
        <time>2021-06-26T20:34:25.000Z</time>
        <extensions>
          <ns3:TrackPointExtension>
            <ns3:atemp>29.0</ns3:atemp>
            <ns3:hr>97</ns3:hr>
          </ns3:TrackPointExtension>
        </extensions>
      </trkpt>
      <trkpt lat="36.815101392567157745361328125" lon="-118.43504081480205059051513671875">
        <ele>3500</ele>
        <time>2021-06-26T20:34:29.000Z</time>
        <extensions>
          <ns3:TrackPointExtension>
            <ns3:atemp>29.0</ns3:atemp>
            <ns3:hr>100</ns3:hr>
          </ns3:TrackPointExtension>
        </extensions>
      </trkpt>
      <trkpt lat="36.815105415880680084228515625" lon="-118.43503318727016448974609375">
        <ele>3500.199951171875</ele>
        <time>2021-06-26T20:34:39.000Z</time>
        <extensions>
          <ns3:TrackPointExtension>
            <ns3:atemp>29.0</ns3:atemp>
            <ns3:hr>103</ns3:hr>
          </ns3:TrackPointExtension>
        </extensions>
      </trkpt>
      <trkpt lat="36.81510818190872669219970703125" lon="-118.4350298345088958740234375">
        <ele>3500.39990234375</ele>
        <time>2021-06-26T20:34:44.000Z</time>
        <extensions>
          <ns3:TrackPointExtension>
            <ns3:atemp>29.0</ns3:atemp>
            <ns3:hr>106</ns3:hr>
          </ns3:TrackPointExtension>
        </extensions>
      </trkpt>
      <trkpt lat="36.81510818190872669219970703125" lon="-118.43502773903310298919677734375">
        <ele>3500.60009765625</ele>
        <time>2021-06-26T20:34:56.000Z</time>
        <extensions>
          <ns3:TrackPointExtension>
            <ns3:atemp>29.0</ns3:atemp>
            <ns3:hr>105</ns3:hr>
          </ns3:TrackPointExtension>
        </extensions>
      </trkpt>
      <trkpt lat="36.815069206058979034423828125" lon="-118.43497778289020061492919921875">
        <ele>3498.199951171875</ele>
        <time>2021-06-26T20:53:51.000Z</time>
        <extensions>
          <ns3:TrackPointExtension>
            <ns3:atemp>32.0</ns3:atemp>
            <ns3:hr>107</ns3:hr>
          </ns3:TrackPointExtension>
        </extensions>
      </trkpt>
      <trkpt lat="36.81506954133510589599609375" lon="-118.43497795052826404571533203125">
        <ele>3498.199951171875</ele>
        <time>2021-06-26T20:53:55.000Z</time>
        <extensions>
          <ns3:TrackPointExtension>
            <ns3:atemp>32.0</ns3:atemp>
            <ns3:hr>110</ns3:hr>
          </ns3:TrackPointExtension>
        </extensions>
      </trkpt>
      <trkpt lat="36.81506996043026447296142578125" lon="-118.43497828580439090728759765625">
        <ele>3498</ele>
        <time>2021-06-26T20:54:00.000Z</time>
        <extensions>
          <ns3:TrackPointExtension>
            <ns3:atemp>32.0</ns3:atemp>
            <ns3:hr>107</ns3:hr>
          </ns3:TrackPointExtension>
        </extensions>
      </trkpt>
      <trkpt lat="36.81507029570639133453369140625" lon="-118.43497845344245433807373046875">
        <ele>3498</ele>
        <time>2021-06-26T20:54:05.000Z</time>
        <extensions>
          <ns3:TrackPointExtension>
            <ns3:atemp>32.0</ns3:atemp>
            <ns3:hr>104</ns3:hr>
          </ns3:TrackPointExtension>
        </extensions>
      </trkpt>
      <trkpt lat="36.81507046334445476531982421875" lon="-118.43497878871858119964599609375">
        <ele>3498</ele>
        <time>2021-06-26T20:54:08.000Z</time>
        <extensions>
          <ns3:TrackPointExtension>
            <ns3:atemp>32.0</ns3:atemp>
            <ns3:hr>101</ns3:hr>
          </ns3:TrackPointExtension>
        </extensions>
      </trkpt>
      <trkpt lat="36.8150707148015499114990234375" lon="-118.43497895635664463043212890625">
        <ele>3498</ele>
        <time>2021-06-26T20:54:11.000Z</time>
        <extensions>
          <ns3:TrackPointExtension>
            <ns3:atemp>32.0</ns3:atemp>
            <ns3:hr>98</ns3:hr>
          </ns3:TrackPointExtension>
        </extensions>
      </trkpt>
      <trkpt lat="36.815071217715740203857421875" lon="-118.4349797107279300689697265625">
        <ele>3498</ele>
        <time>2021-06-26T20:54:20.000Z</time>
        <extensions>
          <ns3:TrackPointExtension>
            <ns3:atemp>32.0</ns3:atemp>
            <ns3:hr>101</ns3:hr>
          </ns3:TrackPointExtension>
        </extensions>
      </trkpt>
      <trkpt lat="36.8150713853538036346435546875" lon="-118.43497996218502521514892578125">
        <ele>3498.39990234375</ele>
        <time>2021-06-26T20:54:23.000Z</time>
        <extensions>
          <ns3:TrackPointExtension>
            <ns3:atemp>32.0</ns3:atemp>
            <ns3:hr>104</ns3:hr>
          </ns3:TrackPointExtension>
        </extensions>
      </trkpt>
      <trkpt lat="36.81507222354412078857421875" lon="-118.43498096801340579986572265625">
        <ele>3498.800048828125</ele>
        <time>2021-06-26T20:54:35.000Z</time>
        <extensions>
          <ns3:TrackPointExtension>
            <ns3:atemp>32.0</ns3:atemp>
            <ns3:hr>102</ns3:hr>
          </ns3:TrackPointExtension>
        </extensions>
      </trkpt>
      <trkpt lat="36.8150727264583110809326171875" lon="-118.43498147092759609222412109375">
        <ele>3498.800048828125</ele>
        <time>2021-06-26T20:54:41.000Z</time>
        <extensions>
          <ns3:TrackPointExtension>
            <ns3:atemp>32.0</ns3:atemp>
            <ns3:hr>99</ns3:hr>
          </ns3:TrackPointExtension>
        </extensions>
      </trkpt>
      <trkpt lat="36.81507314555346965789794921875" lon="-118.4349817223846912384033203125">
        <ele>3499.199951171875</ele>
        <time>2021-06-26T20:54:45.000Z</time>
        <extensions>
          <ns3:TrackPointExtension>
            <ns3:atemp>32.0</ns3:atemp>
            <ns3:hr>98</ns3:hr>
          </ns3:TrackPointExtension>
        </extensions>
      </trkpt>
      <trkpt lat="36.81507264263927936553955078125" lon="-118.43498415313661098480224609375">
        <ele>3499.60009765625</ele>
        <time>2021-06-26T20:54:53.000Z</time>
        <extensions>
          <ns3:TrackPointExtension>
            <ns3:atemp>32.0</ns3:atemp>
            <ns3:hr>101</ns3:hr>
          </ns3:TrackPointExtension>
        </extensions>
      </trkpt>
      <trkpt lat="36.8150482513010501861572265625" lon="-118.43497493304312229156494140625">
        <ele>3500</ele>
        <time>2021-06-26T20:54:57.000Z</time>
        <extensions>
          <ns3:TrackPointExtension>
            <ns3:atemp>32.0</ns3:atemp>
            <ns3:hr>103</ns3:hr>
          </ns3:TrackPointExtension>
        </extensions>
      </trkpt>
      <trkpt lat="36.8150063417851924896240234375" lon="-118.4349726699292659759521484375">
        <ele>3500</ele>
        <time>2021-06-26T20:55:00.000Z</time>
        <extensions>
          <ns3:TrackPointExtension>
            <ns3:atemp>32.0</ns3:atemp>
            <ns3:hr>106</ns3:hr>
          </ns3:TrackPointExtension>
        </extensions>
      </trkpt>
      <trkpt lat="36.8149929307401180267333984375" lon="-118.43496403656899929046630859375">
        <ele>3499.60009765625</ele>
        <time>2021-06-26T20:55:04.000Z</time>
        <extensions>
          <ns3:TrackPointExtension>
            <ns3:atemp>32.0</ns3:atemp>
            <ns3:hr>109</ns3:hr>
          </ns3:TrackPointExtension>
        </extensions>
      </trkpt>
      <trkpt lat="36.81497289799153804779052734375" lon="-118.43495598994195461273193359375">
        <ele>3499.800048828125</ele>
        <time>2021-06-26T20:55:07.000Z</time>
        <extensions>
          <ns3:TrackPointExtension>
            <ns3:atemp>31.0</ns3:atemp>
            <ns3:hr>113</ns3:hr>
          </ns3:TrackPointExtension>
        </extensions>
      </trkpt>
      <trkpt lat="36.81496116332709789276123046875" lon="-118.43493260443210601806640625">
        <ele>3500</ele>
        <time>2021-06-26T20:55:13.000Z</time>
        <extensions>
          <ns3:TrackPointExtension>
            <ns3:atemp>31.0</ns3:atemp>
            <ns3:hr>113</ns3:hr>
          </ns3:TrackPointExtension>
        </extensions>
      </trkpt>
      <trkpt lat="36.81493543088436126708984375" lon="-118.4348730929195880889892578125">
        <ele>3499.60009765625</ele>
        <time>2021-06-26T20:55:21.000Z</time>
        <extensions>
          <ns3:TrackPointExtension>
            <ns3:atemp>31.0</ns3:atemp>
            <ns3:hr>116</ns3:hr>
          </ns3:TrackPointExtension>
        </extensions>
      </trkpt>
      <trkpt lat="36.81487105786800384521484375" lon="-118.4348635375499725341796875">
        <ele>3500.39990234375</ele>
        <time>2021-06-26T20:55:29.000Z</time>
        <extensions>
          <ns3:TrackPointExtension>
            <ns3:atemp>31.0</ns3:atemp>
            <ns3:hr>115</ns3:hr>
          </ns3:TrackPointExtension>
        </extensions>
      </trkpt>
      <trkpt lat="36.8148319981992244720458984375" lon="-118.43485875986516475677490234375">
        <ele>3501.199951171875</ele>
        <time>2021-06-26T20:55:37.000Z</time>
        <extensions>
          <ns3:TrackPointExtension>
            <ns3:atemp>31.0</ns3:atemp>
            <ns3:hr>114</ns3:hr>
          </ns3:TrackPointExtension>
        </extensions>
      </trkpt>
      <trkpt lat="36.814827136695384979248046875" lon="-118.43485272489488124847412109375">
        <ele>3501.39990234375</ele>
        <time>2021-06-26T20:55:38.000Z</time>
        <extensions>
          <ns3:TrackPointExtension>
            <ns3:atemp>31.0</ns3:atemp>
            <ns3:hr>117</ns3:hr>
          </ns3:TrackPointExtension>
        </extensions>
      </trkpt>
      <trkpt lat="36.81481607258319854736328125" lon="-118.4348395653069019317626953125">
        <ele>3501.60009765625</ele>
        <time>2021-06-26T20:55:41.000Z</time>
        <extensions>
          <ns3:TrackPointExtension>
            <ns3:atemp>31.0</ns3:atemp>
            <ns3:hr>121</ns3:hr>
          </ns3:TrackPointExtension>
        </extensions>
      </trkpt>
      <trkpt lat="36.81481448002159595489501953125" lon="-118.434832356870174407958984375">
        <ele>3501.39990234375</ele>
        <time>2021-06-26T20:55:43.000Z</time>
        <extensions>
          <ns3:TrackPointExtension>
            <ns3:atemp>31.0</ns3:atemp>
            <ns3:hr>124</ns3:hr>
          </ns3:TrackPointExtension>
        </extensions>
      </trkpt>
      <trkpt lat="36.81480861268937587738037109375" lon="-118.43481433577835559844970703125">
        <ele>3501.39990234375</ele>
        <time>2021-06-26T20:55:45.000Z</time>
        <extensions>
          <ns3:TrackPointExtension>
            <ns3:atemp>31.0</ns3:atemp>
            <ns3:hr>125</ns3:hr>
          </ns3:TrackPointExtension>
        </extensions>
      </trkpt>
      <trkpt lat="36.81477173231542110443115234375" lon="-118.43478835187852382659912109375">
        <ele>3501</ele>
        <time>2021-06-26T20:55:51.000Z</time>
        <extensions>
          <ns3:TrackPointExtension>
            <ns3:atemp>31.0</ns3:atemp>
            <ns3:hr>124</ns3:hr>
          </ns3:TrackPointExtension>
        </extensions>
      </trkpt>
      <trkpt lat="36.81476636789739131927490234375" lon="-118.4347772039473056793212890625">
        <ele>3500.39990234375</ele>
        <time>2021-06-26T20:55:53.000Z</time>
        <extensions>
          <ns3:TrackPointExtension>
            <ns3:atemp>31.0</ns3:atemp>
            <ns3:hr>124</ns3:hr>
          </ns3:TrackPointExtension>
        </extensions>
      </trkpt>
      <trkpt lat="36.814752705395221710205078125" lon="-118.4347604401409626007080078125">
        <ele>3500.39990234375</ele>
        <time>2021-06-26T20:56:01.000Z</time>
        <extensions>
          <ns3:TrackPointExtension>
            <ns3:atemp>31.0</ns3:atemp>
            <ns3:hr>122</ns3:hr>
          </ns3:TrackPointExtension>
        </extensions>
      </trkpt>
      <trkpt lat="36.81473082862794399261474609375" lon="-118.4347188659012317657470703125">
        <ele>3500.39990234375</ele>
        <time>2021-06-26T20:56:07.000Z</time>
        <extensions>
          <ns3:TrackPointExtension>
            <ns3:atemp>31.0</ns3:atemp>
            <ns3:hr>120</ns3:hr>
          </ns3:TrackPointExtension>
        </extensions>
      </trkpt>
      <trkpt lat="36.81471238844096660614013671875" lon="-118.434664048254489898681640625">
        <ele>3500.800048828125</ele>
        <time>2021-06-26T20:56:14.000Z</time>
        <extensions>
          <ns3:TrackPointExtension>
            <ns3:atemp>31.0</ns3:atemp>
            <ns3:hr>117</ns3:hr>
          </ns3:TrackPointExtension>
        </extensions>
      </trkpt>
      <trkpt lat="36.81470878422260284423828125" lon="-118.43465105630457401275634765625">
        <ele>3500.39990234375</ele>
        <time>2021-06-26T20:56:16.000Z</time>
        <extensions>
          <ns3:TrackPointExtension>
            <ns3:atemp>31.0</ns3:atemp>
            <ns3:hr>116</ns3:hr>
          </ns3:TrackPointExtension>
        </extensions>
      </trkpt>
      <trkpt lat="36.81470233015716075897216796875" lon="-118.43462959863245487213134765625">
        <ele>3500.39990234375</ele>
        <time>2021-06-26T20:56:18.000Z</time>
        <extensions>
          <ns3:TrackPointExtension>
            <ns3:atemp>31.0</ns3:atemp>
            <ns3:hr>119</ns3:hr>
          </ns3:TrackPointExtension>
        </extensions>
      </trkpt>
      <trkpt lat="36.81465270929038524627685546875" lon="-118.43457025475800037384033203125">
        <ele>3500.800048828125</ele>
        <time>2021-06-26T20:56:26.000Z</time>
        <extensions>
          <ns3:TrackPointExtension>
            <ns3:atemp>31.0</ns3:atemp>
            <ns3:hr>118</ns3:hr>
          </ns3:TrackPointExtension>
        </extensions>
      </trkpt>
      <trkpt lat="36.8146378733217716217041015625" lon="-118.43454980291426181793212890625">
        <ele>3501.199951171875</ele>
        <time>2021-06-26T20:56:29.000Z</time>
        <extensions>
          <ns3:TrackPointExtension>
            <ns3:atemp>31.0</ns3:atemp>
            <ns3:hr>119</ns3:hr>
          </ns3:TrackPointExtension>
        </extensions>
      </trkpt>
      <trkpt lat="36.81462018750607967376708984375" lon="-118.4345089830458164215087890625">
        <ele>3501.60009765625</ele>
        <time>2021-06-26T20:56:34.000Z</time>
        <extensions>
          <ns3:TrackPointExtension>
            <ns3:atemp>31.0</ns3:atemp>
            <ns3:hr>117</ns3:hr>
          </ns3:TrackPointExtension>
        </extensions>
      </trkpt>
      <trkpt lat="36.81462471373379230499267578125" lon="-118.43450185842812061309814453125">
        <ele>3501.60009765625</ele>
        <time>2021-06-26T20:56:36.000Z</time>
        <extensions>
          <ns3:TrackPointExtension>
            <ns3:atemp>31.0</ns3:atemp>
            <ns3:hr>115</ns3:hr>
          </ns3:TrackPointExtension>
        </extensions>
      </trkpt>
      <trkpt lat="36.81463041342794895172119140625" lon="-118.43449674546718597412109375">
        <ele>3501.60009765625</ele>
        <time>2021-06-26T20:56:37.000Z</time>
        <extensions>
          <ns3:TrackPointExtension>
            <ns3:atemp>31.0</ns3:atemp>
            <ns3:hr>114</ns3:hr>
          </ns3:TrackPointExtension>
        </extensions>
      </trkpt>
      <trkpt lat="36.81464575231075286865234375" lon="-118.43445374630391597747802734375">
        <ele>3502.199951171875</ele>
        <time>2021-06-26T20:56:41.000Z</time>
        <extensions>
          <ns3:TrackPointExtension>
            <ns3:atemp>31.0</ns3:atemp>
            <ns3:hr>113</ns3:hr>
          </ns3:TrackPointExtension>
        </extensions>
      </trkpt>
      <trkpt lat="36.81463728658854961395263671875" lon="-118.43442139215767383575439453125">
        <ele>3501.800048828125</ele>
        <time>2021-06-26T20:56:46.000Z</time>
        <extensions>
          <ns3:TrackPointExtension>
            <ns3:atemp>31.0</ns3:atemp>
            <ns3:hr>113</ns3:hr>
          </ns3:TrackPointExtension>
        </extensions>
      </trkpt>
      <trkpt lat="36.8146383762359619140625" lon="-118.43438987620174884796142578125">
        <ele>3502</ele>
        <time>2021-06-26T20:56:49.000Z</time>
        <extensions>
          <ns3:TrackPointExtension>
            <ns3:atemp>31.0</ns3:atemp>
            <ns3:hr>113</ns3:hr>
          </ns3:TrackPointExtension>
        </extensions>
      </trkpt>
      <trkpt lat="36.8146422319114208221435546875" lon="-118.43438333831727504730224609375">
        <ele>3501.800048828125</ele>
        <time>2021-06-26T20:56:50.000Z</time>
        <extensions>
          <ns3:TrackPointExtension>
            <ns3:atemp>31.0</ns3:atemp>
            <ns3:hr>113</ns3:hr>
          </ns3:TrackPointExtension>
        </extensions>
      </trkpt>
      <trkpt lat="36.8146429024636745452880859375" lon="-118.43437294475734233856201171875">
        <ele>3501.60009765625</ele>
        <time>2021-06-26T20:56:51.000Z</time>
        <extensions>
          <ns3:TrackPointExtension>
            <ns3:atemp>31.0</ns3:atemp>
            <ns3:hr>113</ns3:hr>
          </ns3:TrackPointExtension>
        </extensions>
      </trkpt>
      <trkpt lat="36.81465304456651210784912109375" lon="-118.43436405993998050689697265625">
        <ele>3501.60009765625</ele>
        <time>2021-06-26T20:56:53.000Z</time>
        <extensions>
          <ns3:TrackPointExtension>
            <ns3:atemp>30.0</ns3:atemp>
            <ns3:hr>113</ns3:hr>
          </ns3:TrackPointExtension>
        </extensions>
      </trkpt>
      <trkpt lat="36.81464566849172115325927734375" lon="-118.43433874659240245819091796875">
        <ele>3501.60009765625</ele>
        <time>2021-06-26T20:56:56.000Z</time>
        <extensions>
          <ns3:TrackPointExtension>
            <ns3:atemp>30.0</ns3:atemp>
            <ns3:hr>114</ns3:hr>
          </ns3:TrackPointExtension>
        </extensions>
      </trkpt>
      <trkpt lat="36.81462639011442661285400390625" lon="-118.4343007765710353851318359375">
        <ele>3501.39990234375</ele>
        <time>2021-06-26T20:57:00.000Z</time>
        <extensions>
          <ns3:TrackPointExtension>
            <ns3:atemp>30.0</ns3:atemp>
            <ns3:hr>114</ns3:hr>
          </ns3:TrackPointExtension>
        </extensions>
      </trkpt>
      <trkpt lat="36.81460023857653141021728515625" lon="-118.43427739106118679046630859375">
        <ele>3501.39990234375</ele>
        <time>2021-06-26T20:57:03.000Z</time>
        <extensions>
          <ns3:TrackPointExtension>
            <ns3:atemp>30.0</ns3:atemp>
            <ns3:hr>113</ns3:hr>
          </ns3:TrackPointExtension>
        </extensions>
      </trkpt>
      <trkpt lat="36.8145922757685184478759765625" lon="-118.434245288372039794921875">
        <ele>3500.800048828125</ele>
        <time>2021-06-26T20:57:07.000Z</time>
        <extensions>
          <ns3:TrackPointExtension>
            <ns3:atemp>30.0</ns3:atemp>
            <ns3:hr>110</ns3:hr>
          </ns3:TrackPointExtension>
        </extensions>
      </trkpt>
      <trkpt lat="36.81457358412444591522216796875" lon="-118.43421000055968761444091796875">
        <ele>3500.60009765625</ele>
        <time>2021-06-26T20:57:11.000Z</time>
        <extensions>
          <ns3:TrackPointExtension>
            <ns3:atemp>30.0</ns3:atemp>
            <ns3:hr>109</ns3:hr>
          </ns3:TrackPointExtension>
        </extensions>
      </trkpt>
      <trkpt lat="36.81454692967236042022705078125" lon="-118.4341824240982532501220703125">
        <ele>3500.39990234375</ele>
        <time>2021-06-26T20:57:18.000Z</time>
        <extensions>
          <ns3:TrackPointExtension>
            <ns3:atemp>30.0</ns3:atemp>
            <ns3:hr>109</ns3:hr>
          </ns3:TrackPointExtension>
        </extensions>
      </trkpt>
      <trkpt lat="36.8145815469324588775634765625" lon="-118.434156440198421478271484375">
        <ele>3500.60009765625</ele>
        <time>2021-06-26T20:57:23.000Z</time>
        <extensions>
          <ns3:TrackPointExtension>
            <ns3:atemp>30.0</ns3:atemp>
            <ns3:hr>105</ns3:hr>
          </ns3:TrackPointExtension>
        </extensions>
      </trkpt>
      <trkpt lat="36.81456469930708408355712890625" lon="-118.43412819318473339080810546875">
        <ele>3500.199951171875</ele>
        <time>2021-06-26T20:57:25.000Z</time>
        <extensions>
          <ns3:TrackPointExtension>
            <ns3:atemp>30.0</ns3:atemp>
            <ns3:hr>108</ns3:hr>
          </ns3:TrackPointExtension>
        </extensions>
      </trkpt>
      <trkpt lat="36.81456570513546466827392578125" lon="-118.434116542339324951171875">
        <ele>3499.800048828125</ele>
        <time>2021-06-26T20:57:27.000Z</time>
        <extensions>
          <ns3:TrackPointExtension>
            <ns3:atemp>30.0</ns3:atemp>
            <ns3:hr>105</ns3:hr>
          </ns3:TrackPointExtension>
        </extensions>
      </trkpt>
      <trkpt lat="36.81457039900124073028564453125" lon="-118.43410572968423366546630859375">
        <ele>3499</ele>
        <time>2021-06-26T20:57:29.000Z</time>
        <extensions>
          <ns3:TrackPointExtension>
            <ns3:atemp>30.0</ns3:atemp>
            <ns3:hr>105</ns3:hr>
          </ns3:TrackPointExtension>
        </extensions>
      </trkpt>
      <trkpt lat="36.81457576341927051544189453125" lon="-118.43408376909792423248291015625">
        <ele>3498.800048828125</ele>
        <time>2021-06-26T20:57:32.000Z</time>
        <extensions>
          <ns3:TrackPointExtension>
            <ns3:atemp>30.0</ns3:atemp>
            <ns3:hr>103</ns3:hr>
          </ns3:TrackPointExtension>
        </extensions>
      </trkpt>
      <trkpt lat="36.81455723941326141357421875" lon="-118.4340399317443370819091796875">
        <ele>3497.800048828125</ele>
        <time>2021-06-26T20:57:38.000Z</time>
        <extensions>
          <ns3:TrackPointExtension>
            <ns3:atemp>30.0</ns3:atemp>
            <ns3:hr>102</ns3:hr>
          </ns3:TrackPointExtension>
        </extensions>
      </trkpt>
      <trkpt lat="36.81455866433680057525634765625" lon="-118.4340352378785610198974609375">
        <ele>3497.800048828125</ele>
        <time>2021-06-26T20:57:39.000Z</time>
        <extensions>
          <ns3:TrackPointExtension>
            <ns3:atemp>30.0</ns3:atemp>
            <ns3:hr>101</ns3:hr>
          </ns3:TrackPointExtension>
        </extensions>
      </trkpt>
      <trkpt lat="36.81452848948538303375244140625" lon="-118.43396826647222042083740234375">
        <ele>3497.60009765625</ele>
        <time>2021-06-26T20:57:47.000Z</time>
        <extensions>
          <ns3:TrackPointExtension>
            <ns3:atemp>30.0</ns3:atemp>
            <ns3:hr>98</ns3:hr>
          </ns3:TrackPointExtension>
        </extensions>
      </trkpt>
      <trkpt lat="36.8145319260656833648681640625" lon="-118.433966003358364105224609375">
        <ele>3497.60009765625</ele>
        <time>2021-06-26T20:57:49.000Z</time>
        <extensions>
          <ns3:TrackPointExtension>
            <ns3:atemp>30.0</ns3:atemp>
            <ns3:hr>99</ns3:hr>
          </ns3:TrackPointExtension>
        </extensions>
      </trkpt>
      <trkpt lat="36.8145785294473171234130859375" lon="-118.43392300419509410858154296875">
        <ele>3496.60009765625</ele>
        <time>2021-06-26T20:57:56.000Z</time>
        <extensions>
          <ns3:TrackPointExtension>
            <ns3:atemp>30.0</ns3:atemp>
            <ns3:hr>100</ns3:hr>
          </ns3:TrackPointExtension>
        </extensions>
      </trkpt>
      <trkpt lat="36.81457458995282649993896484375" lon="-118.43391546048223972320556640625">
        <ele>3496.60009765625</ele>
        <time>2021-06-26T20:57:57.000Z</time>
        <extensions>
          <ns3:TrackPointExtension>
            <ns3:atemp>30.0</ns3:atemp>
            <ns3:hr>100</ns3:hr>
          </ns3:TrackPointExtension>
        </extensions>
      </trkpt>
      <trkpt lat="36.814539134502410888671875" lon="-118.43385980464518070220947265625">
        <ele>3495.60009765625</ele>
        <time>2021-06-26T20:58:03.000Z</time>
        <extensions>
          <ns3:TrackPointExtension>
            <ns3:atemp>30.0</ns3:atemp>
            <ns3:hr>101</ns3:hr>
          </ns3:TrackPointExtension>
        </extensions>
      </trkpt>
      <trkpt lat="36.81454240344464778900146484375" lon="-118.43384773470461368560791015625">
        <ele>3495.60009765625</ele>
        <time>2021-06-26T20:58:05.000Z</time>
        <extensions>
          <ns3:TrackPointExtension>
            <ns3:atemp>30.0</ns3:atemp>
            <ns3:hr>101</ns3:hr>
          </ns3:TrackPointExtension>
        </extensions>
      </trkpt>
      <trkpt lat="36.8145485222339630126953125" lon="-118.43383415602147579193115234375">
        <ele>3495</ele>
        <time>2021-06-26T20:58:12.000Z</time>
        <extensions>
          <ns3:TrackPointExtension>
            <ns3:atemp>30.0</ns3:atemp>
            <ns3:hr>102</ns3:hr>
          </ns3:TrackPointExtension>
        </extensions>
      </trkpt>
      <trkpt lat="36.8145567364990711212158203125" lon="-118.43383767642080783843994140625">
        <ele>3494.60009765625</ele>
        <time>2021-06-26T20:58:13.000Z</time>
        <extensions>
          <ns3:TrackPointExtension>
            <ns3:atemp>30.0</ns3:atemp>
            <ns3:hr>101</ns3:hr>
          </ns3:TrackPointExtension>
        </extensions>
      </trkpt>
      <trkpt lat="36.814582049846649169921875" lon="-118.4338206611573696136474609375">
        <ele>3493.800048828125</ele>
        <time>2021-06-26T20:58:19.000Z</time>
        <extensions>
          <ns3:TrackPointExtension>
            <ns3:atemp>30.0</ns3:atemp>
            <ns3:hr>101</ns3:hr>
          </ns3:TrackPointExtension>
        </extensions>
      </trkpt>
      <trkpt lat="36.8146033398807048797607421875" lon="-118.4337774105370044708251953125">
        <ele>3493.60009765625</ele>
        <time>2021-06-26T20:58:25.000Z</time>
        <extensions>
          <ns3:TrackPointExtension>
            <ns3:atemp>30.0</ns3:atemp>
            <ns3:hr>105</ns3:hr>
          </ns3:TrackPointExtension>
        </extensions>
      </trkpt>
      <trkpt lat="36.81460074149072170257568359375" lon="-118.433778584003448486328125">
        <ele>3493.60009765625</ele>
        <time>2021-06-26T20:58:26.000Z</time>
        <extensions>
          <ns3:TrackPointExtension>
            <ns3:atemp>30.0</ns3:atemp>
            <ns3:hr>103</ns3:hr>
          </ns3:TrackPointExtension>
        </extensions>
      </trkpt>
      <trkpt lat="36.81459805928170680999755859375" lon="-118.43377648852765560150146484375">
        <ele>3493.39990234375</ele>
        <time>2021-06-26T20:58:27.000Z</time>
        <extensions>
          <ns3:TrackPointExtension>
            <ns3:atemp>30.0</ns3:atemp>
            <ns3:hr>103</ns3:hr>
          </ns3:TrackPointExtension>
        </extensions>
      </trkpt>
      <trkpt lat="36.81462270207703113555908203125" lon="-118.43377565033733844757080078125">
        <ele>3492.39990234375</ele>
        <time>2021-06-26T20:58:31.000Z</time>
        <extensions>
          <ns3:TrackPointExtension>
            <ns3:atemp>30.0</ns3:atemp>
            <ns3:hr>105</ns3:hr>
          </ns3:TrackPointExtension>
        </extensions>
      </trkpt>
      <trkpt lat="36.81463301181793212890625" lon="-118.433765508234500885009765625">
        <ele>3492.199951171875</ele>
        <time>2021-06-26T20:58:33.000Z</time>
        <extensions>
          <ns3:TrackPointExtension>
            <ns3:atemp>30.0</ns3:atemp>
            <ns3:hr>105</ns3:hr>
          </ns3:TrackPointExtension>
        </extensions>
      </trkpt>
      <trkpt lat="36.81465723551809787750244140625" lon="-118.433699123561382293701171875">
        <ele>3491.39990234375</ele>
        <time>2021-06-26T20:58:41.000Z</time>
        <extensions>
          <ns3:TrackPointExtension>
            <ns3:atemp>30.0</ns3:atemp>
            <ns3:hr>104</ns3:hr>
          </ns3:TrackPointExtension>
        </extensions>
      </trkpt>
      <trkpt lat="36.81465958245098590850830078125" lon="-118.4336758218705654144287109375">
        <ele>3491.39990234375</ele>
        <time>2021-06-26T20:58:44.000Z</time>
        <extensions>
          <ns3:TrackPointExtension>
            <ns3:atemp>30.0</ns3:atemp>
            <ns3:hr>103</ns3:hr>
          </ns3:TrackPointExtension>
        </extensions>
      </trkpt>
      <trkpt lat="36.8146418966352939605712890625" lon="-118.43364120461046695709228515625">
        <ele>3490.60009765625</ele>
        <time>2021-06-26T20:58:50.000Z</time>
        <extensions>
          <ns3:TrackPointExtension>
            <ns3:atemp>30.0</ns3:atemp>
            <ns3:hr>100</ns3:hr>
          </ns3:TrackPointExtension>
        </extensions>
      </trkpt>
      <trkpt lat="36.814638040959835052490234375" lon="-118.4336372651159763336181640625">
        <ele>3490.39990234375</ele>
        <time>2021-06-26T20:58:51.000Z</time>
        <extensions>
          <ns3:TrackPointExtension>
            <ns3:atemp>30.0</ns3:atemp>
            <ns3:hr>100</ns3:hr>
          </ns3:TrackPointExtension>
        </extensions>
      </trkpt>
      <trkpt lat="36.81463527493178844451904296875" lon="-118.4336319006979465484619140625">
        <ele>3489.39990234375</ele>
        <time>2021-06-26T20:58:52.000Z</time>
        <extensions>
          <ns3:TrackPointExtension>
            <ns3:atemp>30.0</ns3:atemp>
            <ns3:hr>101</ns3:hr>
          </ns3:TrackPointExtension>
        </extensions>
      </trkpt>
      <trkpt lat="36.81463728658854961395263671875" lon="-118.43360080383718013763427734375">
        <ele>3488.199951171875</ele>
        <time>2021-06-26T20:58:57.000Z</time>
        <extensions>
          <ns3:TrackPointExtension>
            <ns3:atemp>30.0</ns3:atemp>
            <ns3:hr>101</ns3:hr>
          </ns3:TrackPointExtension>
        </extensions>
      </trkpt>
      <trkpt lat="36.81463410146534442901611328125" lon="-118.43359175138175487518310546875">
        <ele>3488</ele>
        <time>2021-06-26T20:58:58.000Z</time>
        <extensions>
          <ns3:TrackPointExtension>
            <ns3:atemp>30.0</ns3:atemp>
            <ns3:hr>101</ns3:hr>
          </ns3:TrackPointExtension>
        </extensions>
      </trkpt>
      <trkpt lat="36.8146241270005702972412109375" lon="-118.43357029370963573455810546875">
        <ele>3486.800048828125</ele>
        <time>2021-06-26T20:59:01.000Z</time>
        <extensions>
          <ns3:TrackPointExtension>
            <ns3:atemp>30.0</ns3:atemp>
            <ns3:hr>102</ns3:hr>
          </ns3:TrackPointExtension>
        </extensions>
      </trkpt>
      <trkpt lat="36.81457777507603168487548828125" lon="-118.433542884886264801025390625">
        <ele>3486.60009765625</ele>
        <time>2021-06-26T20:59:07.000Z</time>
        <extensions>
          <ns3:TrackPointExtension>
            <ns3:atemp>30.0</ns3:atemp>
            <ns3:hr>101</ns3:hr>
          </ns3:TrackPointExtension>
        </extensions>
      </trkpt>
      <trkpt lat="36.8145671300590038299560546875" lon="-118.43352268449962139129638671875">
        <ele>3486</ele>
        <time>2021-06-26T20:59:11.000Z</time>
        <extensions>
          <ns3:TrackPointExtension>
            <ns3:atemp>30.0</ns3:atemp>
            <ns3:hr>102</ns3:hr>
          </ns3:TrackPointExtension>
        </extensions>
      </trkpt>
      <trkpt lat="36.81456570513546466827392578125" lon="-118.4335169009864330291748046875">
        <ele>3485.800048828125</ele>
        <time>2021-06-26T20:59:12.000Z</time>
        <extensions>
          <ns3:TrackPointExtension>
            <ns3:atemp>30.0</ns3:atemp>
            <ns3:hr>102</ns3:hr>
          </ns3:TrackPointExtension>
        </extensions>
      </trkpt>
      <trkpt lat="36.81455858051776885986328125" lon="-118.43350189737975597381591796875">
        <ele>3485.800048828125</ele>
        <time>2021-06-26T20:59:15.000Z</time>
        <extensions>
          <ns3:TrackPointExtension>
            <ns3:atemp>30.0</ns3:atemp>
            <ns3:hr>102</ns3:hr>
          </ns3:TrackPointExtension>
        </extensions>
      </trkpt>
      <trkpt lat="36.8145726621150970458984375" lon="-118.43344624154269695281982421875">
        <ele>3484.199951171875</ele>
        <time>2021-06-26T20:59:23.000Z</time>
        <extensions>
          <ns3:TrackPointExtension>
            <ns3:atemp>30.0</ns3:atemp>
            <ns3:hr>101</ns3:hr>
          </ns3:TrackPointExtension>
        </extensions>
      </trkpt>
      <trkpt lat="36.8145699799060821533203125" lon="-118.43338823877274990081787109375">
        <ele>3483.60009765625</ele>
        <time>2021-06-26T20:59:31.000Z</time>
        <extensions>
          <ns3:TrackPointExtension>
            <ns3:atemp>29.0</ns3:atemp>
            <ns3:hr>99</ns3:hr>
          </ns3:TrackPointExtension>
        </extensions>
      </trkpt>
      <trkpt lat="36.81456805206835269927978515625" lon="-118.4333636797964572906494140625">
        <ele>3483.199951171875</ele>
        <time>2021-06-26T20:59:34.000Z</time>
        <extensions>
          <ns3:TrackPointExtension>
            <ns3:atemp>29.0</ns3:atemp>
            <ns3:hr>101</ns3:hr>
          </ns3:TrackPointExtension>
        </extensions>
      </trkpt>
      <trkpt lat="36.81455715559422969818115234375" lon="-118.43334498815238475799560546875">
        <ele>3482</ele>
        <time>2021-06-26T20:59:37.000Z</time>
        <extensions>
          <ns3:TrackPointExtension>
            <ns3:atemp>29.0</ns3:atemp>
            <ns3:hr>101</ns3:hr>
          </ns3:TrackPointExtension>
        </extensions>
      </trkpt>
      <trkpt lat="36.81454860605299472808837890625" lon="-118.433342389762401580810546875">
        <ele>3482</ele>
        <time>2021-06-26T20:59:38.000Z</time>
        <extensions>
          <ns3:TrackPointExtension>
            <ns3:atemp>29.0</ns3:atemp>
            <ns3:hr>100</ns3:hr>
          </ns3:TrackPointExtension>
        </extensions>
      </trkpt>
      <trkpt lat="36.8145158328115940093994140625" lon="-118.43334582634270191192626953125">
        <ele>3481.199951171875</ele>
        <time>2021-06-26T20:59:45.000Z</time>
        <extensions>
          <ns3:TrackPointExtension>
            <ns3:atemp>29.0</ns3:atemp>
            <ns3:hr>101</ns3:hr>
          </ns3:TrackPointExtension>
        </extensions>
      </trkpt>
      <trkpt lat="36.8145091272890567779541015625" lon="-118.4333402104675769805908203125">
        <ele>3480.800048828125</ele>
        <time>2021-06-26T20:59:46.000Z</time>
        <extensions>
          <ns3:TrackPointExtension>
            <ns3:atemp>29.0</ns3:atemp>
            <ns3:hr>101</ns3:hr>
          </ns3:TrackPointExtension>
        </extensions>
      </trkpt>
      <trkpt lat="36.814487837255001068115234375" lon="-118.43332906253635883331298828125">
        <ele>3480.39990234375</ele>
        <time>2021-06-26T20:59:49.000Z</time>
        <extensions>
          <ns3:TrackPointExtension>
            <ns3:atemp>29.0</ns3:atemp>
            <ns3:hr>105</ns3:hr>
          </ns3:TrackPointExtension>
        </extensions>
      </trkpt>
      <trkpt lat="36.814480125904083251953125" lon="-118.43332730233669281005859375">
        <ele>3479.60009765625</ele>
        <time>2021-06-26T20:59:50.000Z</time>
        <extensions>
          <ns3:TrackPointExtension>
            <ns3:atemp>29.0</ns3:atemp>
            <ns3:hr>105</ns3:hr>
          </ns3:TrackPointExtension>
        </extensions>
      </trkpt>
      <trkpt lat="36.81447065435349941253662109375" lon="-118.43332721851766109466552734375">
        <ele>3479.199951171875</ele>
        <time>2021-06-26T20:59:56.000Z</time>
        <extensions>
          <ns3:TrackPointExtension>
            <ns3:atemp>29.0</ns3:atemp>
            <ns3:hr>105</ns3:hr>
          </ns3:TrackPointExtension>
        </extensions>
      </trkpt>
      <trkpt lat="36.81448616087436676025390625" lon="-118.433302827179431915283203125">
        <ele>3478.800048828125</ele>
        <time>2021-06-26T21:00:00.000Z</time>
        <extensions>
          <ns3:TrackPointExtension>
            <ns3:atemp>29.0</ns3:atemp>
            <ns3:hr>102</ns3:hr>
          </ns3:TrackPointExtension>
        </extensions>
      </trkpt>
      <trkpt lat="36.81448590941727161407470703125" lon="-118.43329335562884807586669921875">
        <ele>3478.60009765625</ele>
        <time>2021-06-26T21:00:01.000Z</time>
        <extensions>
          <ns3:TrackPointExtension>
            <ns3:atemp>29.0</ns3:atemp>
            <ns3:hr>101</ns3:hr>
          </ns3:TrackPointExtension>
        </extensions>
      </trkpt>
      <trkpt lat="36.8144653737545013427734375" lon="-118.43327508307993412017822265625">
        <ele>3478</ele>
        <time>2021-06-26T21:00:04.000Z</time>
        <extensions>
          <ns3:TrackPointExtension>
            <ns3:atemp>29.0</ns3:atemp>
            <ns3:hr>98</ns3:hr>
          </ns3:TrackPointExtension>
        </extensions>
      </trkpt>
      <trkpt lat="36.8144564889371395111083984375" lon="-118.43326820991933345794677734375">
        <ele>3478</ele>
        <time>2021-06-26T21:00:05.000Z</time>
        <extensions>
          <ns3:TrackPointExtension>
            <ns3:atemp>29.0</ns3:atemp>
            <ns3:hr>97</ns3:hr>
          </ns3:TrackPointExtension>
        </extensions>
      </trkpt>
      <trkpt lat="36.81445062160491943359375" lon="-118.43326217494904994964599609375">
        <ele>3477.39990234375</ele>
        <time>2021-06-26T21:00:06.000Z</time>
        <extensions>
          <ns3:TrackPointExtension>
            <ns3:atemp>29.0</ns3:atemp>
            <ns3:hr>96</ns3:hr>
          </ns3:TrackPointExtension>
        </extensions>
      </trkpt>
      <trkpt lat="36.81444953195750713348388671875" lon="-118.43326351605355739593505859375">
        <ele>3477.39990234375</ele>
        <time>2021-06-26T21:00:07.000Z</time>
        <extensions>
          <ns3:TrackPointExtension>
            <ns3:atemp>29.0</ns3:atemp>
            <ns3:hr>95</ns3:hr>
          </ns3:TrackPointExtension>
        </extensions>
      </trkpt>
      <trkpt lat="36.81445037014782428741455078125" lon="-118.433263264596462249755859375">
        <ele>3476.800048828125</ele>
        <time>2021-06-26T21:00:08.000Z</time>
        <extensions>
          <ns3:TrackPointExtension>
            <ns3:atemp>29.0</ns3:atemp>
            <ns3:hr>93</ns3:hr>
          </ns3:TrackPointExtension>
        </extensions>
      </trkpt>
      <trkpt lat="36.81445531547069549560546875" lon="-118.43326091766357421875">
        <ele>3476.60009765625</ele>
        <time>2021-06-26T21:00:10.000Z</time>
        <extensions>
          <ns3:TrackPointExtension>
            <ns3:atemp>29.0</ns3:atemp>
            <ns3:hr>92</ns3:hr>
          </ns3:TrackPointExtension>
        </extensions>
      </trkpt>
      <trkpt lat="36.814465709030628204345703125" lon="-118.43325329013168811798095703125">
        <ele>3476.60009765625</ele>
        <time>2021-06-26T21:00:12.000Z</time>
        <extensions>
          <ns3:TrackPointExtension>
            <ns3:atemp>29.0</ns3:atemp>
            <ns3:hr>93</ns3:hr>
          </ns3:TrackPointExtension>
        </extensions>
      </trkpt>
      <trkpt lat="36.8144514597952365875244140625" lon="-118.43323669396340847015380859375">
        <ele>3476.39990234375</ele>
        <time>2021-06-26T21:00:15.000Z</time>
        <extensions>
          <ns3:TrackPointExtension>
            <ns3:atemp>29.0</ns3:atemp>
            <ns3:hr>92</ns3:hr>
          </ns3:TrackPointExtension>
        </extensions>
      </trkpt>
      <trkpt lat="36.8144437484443187713623046875" lon="-118.4332319162786006927490234375">
        <ele>3475.199951171875</ele>
        <time>2021-06-26T21:00:17.000Z</time>
        <extensions>
          <ns3:TrackPointExtension>
            <ns3:atemp>29.0</ns3:atemp>
            <ns3:hr>90</ns3:hr>
          </ns3:TrackPointExtension>
        </extensions>
      </trkpt>
      <trkpt lat="36.81443612091243267059326171875" lon="-118.4332300722599029541015625">
        <ele>3475</ele>
        <time>2021-06-26T21:00:19.000Z</time>
        <extensions>
          <ns3:TrackPointExtension>
            <ns3:atemp>29.0</ns3:atemp>
            <ns3:hr>90</ns3:hr>
          </ns3:TrackPointExtension>
        </extensions>
      </trkpt>
      <trkpt lat="36.81441868655383586883544921875" lon="-118.43322546221315860748291015625">
        <ele>3474.199951171875</ele>
        <time>2021-06-26T21:00:24.000Z</time>
        <extensions>
          <ns3:TrackPointExtension>
            <ns3:atemp>29.0</ns3:atemp>
            <ns3:hr>94</ns3:hr>
          </ns3:TrackPointExtension>
        </extensions>
      </trkpt>
      <trkpt lat="36.81442086584866046905517578125" lon="-118.433221019804477691650390625">
        <ele>3474</ele>
        <time>2021-06-26T21:00:25.000Z</time>
        <extensions>
          <ns3:TrackPointExtension>
            <ns3:atemp>29.0</ns3:atemp>
            <ns3:hr>95</ns3:hr>
          </ns3:TrackPointExtension>
        </extensions>
      </trkpt>
      <trkpt lat="36.814420111477375030517578125" lon="-118.43321473337709903717041015625">
        <ele>3473.800048828125</ele>
        <time>2021-06-26T21:00:26.000Z</time>
        <extensions>
          <ns3:TrackPointExtension>
            <ns3:atemp>29.0</ns3:atemp>
            <ns3:hr>95</ns3:hr>
          </ns3:TrackPointExtension>
        </extensions>
      </trkpt>
      <trkpt lat="36.81444014422595500946044921875" lon="-118.43319344334304332733154296875">
        <ele>3473.39990234375</ele>
        <time>2021-06-26T21:00:31.000Z</time>
        <extensions>
          <ns3:TrackPointExtension>
            <ns3:atemp>29.0</ns3:atemp>
            <ns3:hr>99</ns3:hr>
          </ns3:TrackPointExtension>
        </extensions>
      </trkpt>
      <trkpt lat="36.81444802321493625640869140625" lon="-118.43317500315606594085693359375">
        <ele>3472.800048828125</ele>
        <time>2021-06-26T21:00:33.000Z</time>
        <extensions>
          <ns3:TrackPointExtension>
            <ns3:atemp>29.0</ns3:atemp>
            <ns3:hr>100</ns3:hr>
          </ns3:TrackPointExtension>
        </extensions>
      </trkpt>
      <trkpt lat="36.8144494481384754180908203125" lon="-118.43316972255706787109375">
        <ele>3472.60009765625</ele>
        <time>2021-06-26T21:00:34.000Z</time>
        <extensions>
          <ns3:TrackPointExtension>
            <ns3:atemp>29.0</ns3:atemp>
            <ns3:hr>101</ns3:hr>
          </ns3:TrackPointExtension>
        </extensions>
      </trkpt>
      <trkpt lat="36.81444819085299968719482421875" lon="-118.43314968980848789215087890625">
        <ele>3471.60009765625</ele>
        <time>2021-06-26T21:00:37.000Z</time>
        <extensions>
          <ns3:TrackPointExtension>
            <ns3:atemp>29.0</ns3:atemp>
            <ns3:hr>104</ns3:hr>
          </ns3:TrackPointExtension>
        </extensions>
      </trkpt>
      <trkpt lat="36.814473085105419158935546875" lon="-118.4331450797617435455322265625">
        <ele>3471.39990234375</ele>
        <time>2021-06-26T21:00:41.000Z</time>
        <extensions>
          <ns3:TrackPointExtension>
            <ns3:atemp>29.0</ns3:atemp>
            <ns3:hr>105</ns3:hr>
          </ns3:TrackPointExtension>
        </extensions>
      </trkpt>
      <trkpt lat="36.814501583576202392578125" lon="-118.43309973366558551788330078125">
        <ele>3470.39990234375</ele>
        <time>2021-06-26T21:00:47.000Z</time>
        <extensions>
          <ns3:TrackPointExtension>
            <ns3:atemp>29.0</ns3:atemp>
            <ns3:hr>104</ns3:hr>
          </ns3:TrackPointExtension>
        </extensions>
      </trkpt>
      <trkpt lat="36.8145017512142658233642578125" lon="-118.43309302814304828643798828125">
        <ele>3470.39990234375</ele>
        <time>2021-06-26T21:00:48.000Z</time>
        <extensions>
          <ns3:TrackPointExtension>
            <ns3:atemp>29.0</ns3:atemp>
            <ns3:hr>104</ns3:hr>
          </ns3:TrackPointExtension>
        </extensions>
      </trkpt>
      <trkpt lat="36.814485155045986175537109375" lon="-118.43305748887360095977783203125">
        <ele>3469.39990234375</ele>
        <time>2021-06-26T21:00:55.000Z</time>
        <extensions>
          <ns3:TrackPointExtension>
            <ns3:atemp>29.0</ns3:atemp>
            <ns3:hr>103</ns3:hr>
          </ns3:TrackPointExtension>
        </extensions>
      </trkpt>
      <trkpt lat="36.81448104791343212127685546875" lon="-118.43305505812168121337890625">
        <ele>3468.800048828125</ele>
        <time>2021-06-26T21:00:56.000Z</time>
        <extensions>
          <ns3:TrackPointExtension>
            <ns3:atemp>29.0</ns3:atemp>
            <ns3:hr>103</ns3:hr>
          </ns3:TrackPointExtension>
        </extensions>
      </trkpt>
      <trkpt lat="36.81448155082762241363525390625" lon="-118.4330562315881252288818359375">
        <ele>3468.39990234375</ele>
        <time>2021-06-26T21:00:58.000Z</time>
        <extensions>
          <ns3:TrackPointExtension>
            <ns3:atemp>29.0</ns3:atemp>
            <ns3:hr>103</ns3:hr>
          </ns3:TrackPointExtension>
        </extensions>
      </trkpt>
      <trkpt lat="36.81448347866535186767578125" lon="-118.433020524680614471435546875">
        <ele>3466.800048828125</ele>
        <time>2021-06-26T21:01:03.000Z</time>
        <extensions>
          <ns3:TrackPointExtension>
            <ns3:atemp>29.0</ns3:atemp>
            <ns3:hr>100</ns3:hr>
          </ns3:TrackPointExtension>
        </extensions>
      </trkpt>
      <trkpt lat="36.8145054392516613006591796875" lon="-118.43298339284956455230712890625">
        <ele>3465.800048828125</ele>
        <time>2021-06-26T21:01:11.000Z</time>
        <extensions>
          <ns3:TrackPointExtension>
            <ns3:atemp>29.0</ns3:atemp>
            <ns3:hr>99</ns3:hr>
          </ns3:TrackPointExtension>
        </extensions>
      </trkpt>
      <trkpt lat="36.81450627744197845458984375" lon="-118.432973921298980712890625">
        <ele>3465.199951171875</ele>
        <time>2021-06-26T21:01:12.000Z</time>
        <extensions>
          <ns3:TrackPointExtension>
            <ns3:atemp>29.0</ns3:atemp>
            <ns3:hr>99</ns3:hr>
          </ns3:TrackPointExtension>
        </extensions>
      </trkpt>
      <trkpt lat="36.81448171846568584442138671875" lon="-118.43296025879681110382080078125">
        <ele>3464.60009765625</ele>
        <time>2021-06-26T21:01:15.000Z</time>
        <extensions>
          <ns3:TrackPointExtension>
            <ns3:atemp>29.0</ns3:atemp>
            <ns3:hr>99</ns3:hr>
          </ns3:TrackPointExtension>
        </extensions>
      </trkpt>
      <trkpt lat="36.814455650746822357177734375" lon="-118.43296193517744541168212890625">
        <ele>3463.800048828125</ele>
        <time>2021-06-26T21:01:18.000Z</time>
        <extensions>
          <ns3:TrackPointExtension>
            <ns3:atemp>29.0</ns3:atemp>
            <ns3:hr>98</ns3:hr>
          </ns3:TrackPointExtension>
        </extensions>
      </trkpt>
      <trkpt lat="36.81444835849106311798095703125" lon="-118.4329620189964771270751953125">
        <ele>3463.60009765625</ele>
        <time>2021-06-26T21:01:19.000Z</time>
        <extensions>
          <ns3:TrackPointExtension>
            <ns3:atemp>29.0</ns3:atemp>
            <ns3:hr>98</ns3:hr>
          </ns3:TrackPointExtension>
        </extensions>
      </trkpt>
      <trkpt lat="36.8144117295742034912109375" lon="-118.43296210281550884246826171875">
        <ele>3462.800048828125</ele>
        <time>2021-06-26T21:01:23.000Z</time>
        <extensions>
          <ns3:TrackPointExtension>
            <ns3:atemp>29.0</ns3:atemp>
            <ns3:hr>95</ns3:hr>
          </ns3:TrackPointExtension>
        </extensions>
      </trkpt>
      <trkpt lat="36.81438960134983062744140625" lon="-118.432953469455242156982421875">
        <ele>3461.800048828125</ele>
        <time>2021-06-26T21:01:25.000Z</time>
        <extensions>
          <ns3:TrackPointExtension>
            <ns3:atemp>29.0</ns3:atemp>
            <ns3:hr>93</ns3:hr>
          </ns3:TrackPointExtension>
        </extensions>
      </trkpt>
      <trkpt lat="36.81433855555951595306396484375" lon="-118.43295455910265445709228515625">
        <ele>3461</ele>
        <time>2021-06-26T21:01:30.000Z</time>
        <extensions>
          <ns3:TrackPointExtension>
            <ns3:atemp>29.0</ns3:atemp>
            <ns3:hr>90</ns3:hr>
          </ns3:TrackPointExtension>
        </extensions>
      </trkpt>
      <trkpt lat="36.8143300898373126983642578125" lon="-118.4329563193023204803466796875">
        <ele>3460.60009765625</ele>
        <time>2021-06-26T21:01:31.000Z</time>
        <extensions>
          <ns3:TrackPointExtension>
            <ns3:atemp>29.0</ns3:atemp>
            <ns3:hr>90</ns3:hr>
          </ns3:TrackPointExtension>
        </extensions>
      </trkpt>
      <trkpt lat="36.81430033408105373382568359375" lon="-118.4329620189964771270751953125">
        <ele>3460.199951171875</ele>
        <time>2021-06-26T21:01:35.000Z</time>
        <extensions>
          <ns3:TrackPointExtension>
            <ns3:atemp>29.0</ns3:atemp>
            <ns3:hr>90</ns3:hr>
          </ns3:TrackPointExtension>
        </extensions>
      </trkpt>
      <trkpt lat="36.8142937123775482177734375" lon="-118.4329650364816188812255859375">
        <ele>3459.39990234375</ele>
        <time>2021-06-26T21:01:36.000Z</time>
        <extensions>
          <ns3:TrackPointExtension>
            <ns3:atemp>29.0</ns3:atemp>
            <ns3:hr>90</ns3:hr>
          </ns3:TrackPointExtension>
        </extensions>
      </trkpt>
      <trkpt lat="36.81428222917020320892333984375" lon="-118.43297920189797878265380859375">
        <ele>3459</ele>
        <time>2021-06-26T21:01:41.000Z</time>
        <extensions>
          <ns3:TrackPointExtension>
            <ns3:atemp>29.0</ns3:atemp>
            <ns3:hr>89</ns3:hr>
          </ns3:TrackPointExtension>
        </extensions>
      </trkpt>
      <trkpt lat="36.8142439238727092742919921875" lon="-118.43296512030065059661865234375">
        <ele>3457.800048828125</ele>
        <time>2021-06-26T21:01:48.000Z</time>
        <extensions>
          <ns3:TrackPointExtension>
            <ns3:atemp>29.0</ns3:atemp>
            <ns3:hr>87</ns3:hr>
          </ns3:TrackPointExtension>
        </extensions>
      </trkpt>
      <trkpt lat="36.81424199603497982025146484375" lon="-118.4329603426158428192138671875">
        <ele>3457.60009765625</ele>
        <time>2021-06-26T21:01:49.000Z</time>
        <extensions>
          <ns3:TrackPointExtension>
            <ns3:atemp>29.0</ns3:atemp>
            <ns3:hr>87</ns3:hr>
          </ns3:TrackPointExtension>
        </extensions>
      </trkpt>
      <trkpt lat="36.81424199603497982025146484375" lon="-118.43295313417911529541015625">
        <ele>3457.60009765625</ele>
        <time>2021-06-26T21:01:50.000Z</time>
        <extensions>
          <ns3:TrackPointExtension>
            <ns3:atemp>29.0</ns3:atemp>
            <ns3:hr>87</ns3:hr>
          </ns3:TrackPointExtension>
        </extensions>
      </trkpt>
      <trkpt lat="36.8142399005591869354248046875" lon="-118.43293343670666217803955078125">
        <ele>3456.60009765625</ele>
        <time>2021-06-26T21:01:54.000Z</time>
        <extensions>
          <ns3:TrackPointExtension>
            <ns3:atemp>29.0</ns3:atemp>
            <ns3:hr>86</ns3:hr>
          </ns3:TrackPointExtension>
        </extensions>
      </trkpt>
      <trkpt lat="36.8142239749431610107421875" lon="-118.43293997459113597869873046875">
        <ele>3456.60009765625</ele>
        <time>2021-06-26T21:01:56.000Z</time>
        <extensions>
          <ns3:TrackPointExtension>
            <ns3:atemp>29.0</ns3:atemp>
            <ns3:hr>85</ns3:hr>
          </ns3:TrackPointExtension>
        </extensions>
      </trkpt>
      <trkpt lat="36.81424048729240894317626953125" lon="-118.43294030986726284027099609375">
        <ele>3456.39990234375</ele>
        <time>2021-06-26T21:02:00.000Z</time>
        <extensions>
          <ns3:TrackPointExtension>
            <ns3:atemp>28.0</ns3:atemp>
            <ns3:hr>88</ns3:hr>
          </ns3:TrackPointExtension>
        </extensions>
      </trkpt>
      <trkpt lat="36.8142462708055973052978515625" lon="-118.4329355321824550628662109375">
        <ele>3456</ele>
        <time>2021-06-26T21:02:01.000Z</time>
        <extensions>
          <ns3:TrackPointExtension>
            <ns3:atemp>28.0</ns3:atemp>
            <ns3:hr>88</ns3:hr>
          </ns3:TrackPointExtension>
        </extensions>
      </trkpt>
      <trkpt lat="36.81424484588205814361572265625" lon="-118.4329056926071643829345703125">
        <ele>3455.800048828125</ele>
        <time>2021-06-26T21:02:05.000Z</time>
        <extensions>
          <ns3:TrackPointExtension>
            <ns3:atemp>28.0</ns3:atemp>
            <ns3:hr>85</ns3:hr>
          </ns3:TrackPointExtension>
        </extensions>
      </trkpt>
      <trkpt lat="36.81424073874950408935546875" lon="-118.432897143065929412841796875">
        <ele>3455.60009765625</ele>
        <time>2021-06-26T21:02:06.000Z</time>
        <extensions>
          <ns3:TrackPointExtension>
            <ns3:atemp>28.0</ns3:atemp>
            <ns3:hr>86</ns3:hr>
          </ns3:TrackPointExtension>
        </extensions>
      </trkpt>
      <trkpt lat="36.81424610316753387451171875" lon="-118.43288582749664783477783203125">
        <ele>3454.800048828125</ele>
        <time>2021-06-26T21:02:09.000Z</time>
        <extensions>
          <ns3:TrackPointExtension>
            <ns3:atemp>28.0</ns3:atemp>
            <ns3:hr>89</ns3:hr>
          </ns3:TrackPointExtension>
        </extensions>
      </trkpt>
      <trkpt lat="36.81426596827805042266845703125" lon="-118.43287694267928600311279296875">
        <ele>3454.199951171875</ele>
        <time>2021-06-26T21:02:12.000Z</time>
        <extensions>
          <ns3:TrackPointExtension>
            <ns3:atemp>29.0</ns3:atemp>
            <ns3:hr>88</ns3:hr>
          </ns3:TrackPointExtension>
        </extensions>
      </trkpt>
      <trkpt lat="36.8142667226493358612060546875" lon="-118.4328523837029933929443359375">
        <ele>3454</ele>
        <time>2021-06-26T21:02:16.000Z</time>
        <extensions>
          <ns3:TrackPointExtension>
            <ns3:atemp>29.0</ns3:atemp>
            <ns3:hr>89</ns3:hr>
          </ns3:TrackPointExtension>
        </extensions>
      </trkpt>
      <trkpt lat="36.81427686475217342376708984375" lon="-118.4328379668295383453369140625">
        <ele>3453.199951171875</ele>
        <time>2021-06-26T21:02:19.000Z</time>
        <extensions>
          <ns3:TrackPointExtension>
            <ns3:atemp>29.0</ns3:atemp>
            <ns3:hr>90</ns3:hr>
          </ns3:TrackPointExtension>
        </extensions>
      </trkpt>
      <trkpt lat="36.81427250616252422332763671875" lon="-118.43281726352870464324951171875">
        <ele>3452.800048828125</ele>
        <time>2021-06-26T21:02:22.000Z</time>
        <extensions>
          <ns3:TrackPointExtension>
            <ns3:atemp>29.0</ns3:atemp>
            <ns3:hr>90</ns3:hr>
          </ns3:TrackPointExtension>
        </extensions>
      </trkpt>
      <trkpt lat="36.8142509646713733673095703125" lon="-118.43280301429331302642822265625">
        <ele>3452.199951171875</ele>
        <time>2021-06-26T21:02:25.000Z</time>
        <extensions>
          <ns3:TrackPointExtension>
            <ns3:atemp>29.0</ns3:atemp>
            <ns3:hr>90</ns3:hr>
          </ns3:TrackPointExtension>
        </extensions>
      </trkpt>
      <trkpt lat="36.81424668990075588226318359375" lon="-118.43279354274272918701171875">
        <ele>3451</ele>
        <time>2021-06-26T21:02:29.000Z</time>
        <extensions>
          <ns3:TrackPointExtension>
            <ns3:atemp>29.0</ns3:atemp>
            <ns3:hr>91</ns3:hr>
          </ns3:TrackPointExtension>
        </extensions>
      </trkpt>
      <trkpt lat="36.81425004266202449798583984375" lon="-118.432781808078289031982421875">
        <ele>3451</ele>
        <time>2021-06-26T21:02:30.000Z</time>
        <extensions>
          <ns3:TrackPointExtension>
            <ns3:atemp>29.0</ns3:atemp>
            <ns3:hr>90</ns3:hr>
          </ns3:TrackPointExtension>
        </extensions>
      </trkpt>
      <trkpt lat="36.8142856657505035400390625" lon="-118.4327256493270397186279296875">
        <ele>3450.39990234375</ele>
        <time>2021-06-26T21:02:37.000Z</time>
        <extensions>
          <ns3:TrackPointExtension>
            <ns3:atemp>29.0</ns3:atemp>
            <ns3:hr>90</ns3:hr>
          </ns3:TrackPointExtension>
        </extensions>
      </trkpt>
      <trkpt lat="36.81426747702062129974365234375" lon="-118.43265540897846221923828125">
        <ele>3449.60009765625</ele>
        <time>2021-06-26T21:02:45.000Z</time>
        <extensions>
          <ns3:TrackPointExtension>
            <ns3:atemp>29.0</ns3:atemp>
            <ns3:hr>91</ns3:hr>
          </ns3:TrackPointExtension>
        </extensions>
      </trkpt>
      <trkpt lat="36.8142650462687015533447265625" lon="-118.43264711089432239532470703125">
        <ele>3449.60009765625</ele>
        <time>2021-06-26T21:02:46.000Z</time>
        <extensions>
          <ns3:TrackPointExtension>
            <ns3:atemp>29.0</ns3:atemp>
            <ns3:hr>91</ns3:hr>
          </ns3:TrackPointExtension>
        </extensions>
      </trkpt>
      <trkpt lat="36.81428289972245693206787109375" lon="-118.4325999207794666290283203125">
        <ele>3449.60009765625</ele>
        <time>2021-06-26T21:02:52.000Z</time>
        <extensions>
          <ns3:TrackPointExtension>
            <ns3:atemp>29.0</ns3:atemp>
            <ns3:hr>88</ns3:hr>
          </ns3:TrackPointExtension>
        </extensions>
      </trkpt>
      <trkpt lat="36.8142938800156116485595703125" lon="-118.43257100321352481842041015625">
        <ele>3450</ele>
        <time>2021-06-26T21:02:55.000Z</time>
        <extensions>
          <ns3:TrackPointExtension>
            <ns3:atemp>29.0</ns3:atemp>
            <ns3:hr>88</ns3:hr>
          </ns3:TrackPointExtension>
        </extensions>
      </trkpt>
      <trkpt lat="36.81430720724165439605712890625" lon="-118.4325157664716243743896484375">
        <ele>3449</ele>
        <time>2021-06-26T21:03:01.000Z</time>
        <extensions>
          <ns3:TrackPointExtension>
            <ns3:atemp>28.0</ns3:atemp>
            <ns3:hr>91</ns3:hr>
          </ns3:TrackPointExtension>
        </extensions>
      </trkpt>
      <trkpt lat="36.81429279036819934844970703125" lon="-118.4324899502098560333251953125">
        <ele>3448.800048828125</ele>
        <time>2021-06-26T21:03:04.000Z</time>
        <extensions>
          <ns3:TrackPointExtension>
            <ns3:atemp>28.0</ns3:atemp>
            <ns3:hr>92</ns3:hr>
          </ns3:TrackPointExtension>
        </extensions>
      </trkpt>
      <trkpt lat="36.81426621973514556884765625" lon="-118.432455919682979583740234375">
        <ele>3447.60009765625</ele>
        <time>2021-06-26T21:03:06.000Z</time>
        <extensions>
          <ns3:TrackPointExtension>
            <ns3:atemp>28.0</ns3:atemp>
            <ns3:hr>92</ns3:hr>
          </ns3:TrackPointExtension>
        </extensions>
      </trkpt>
      <trkpt lat="36.81425775401294231414794921875" lon="-118.4324227273464202880859375">
        <ele>3448.800048828125</ele>
        <time>2021-06-26T21:03:10.000Z</time>
        <extensions>
          <ns3:TrackPointExtension>
            <ns3:atemp>28.0</ns3:atemp>
            <ns3:hr>92</ns3:hr>
          </ns3:TrackPointExtension>
        </extensions>
      </trkpt>
      <trkpt lat="36.81425121612846851348876953125" lon="-118.43242465518414974212646484375">
        <ele>3448.800048828125</ele>
        <time>2021-06-26T21:03:12.000Z</time>
        <extensions>
          <ns3:TrackPointExtension>
            <ns3:atemp>28.0</ns3:atemp>
            <ns3:hr>93</ns3:hr>
          </ns3:TrackPointExtension>
        </extensions>
      </trkpt>
      <trkpt lat="36.81427435018122196197509765625" lon="-118.4323863498866558074951171875">
        <ele>3448.60009765625</ele>
        <time>2021-06-26T21:03:19.000Z</time>
        <extensions>
          <ns3:TrackPointExtension>
            <ns3:atemp>28.0</ns3:atemp>
            <ns3:hr>96</ns3:hr>
          </ns3:TrackPointExtension>
        </extensions>
      </trkpt>
      <trkpt lat="36.81428759358823299407958984375" lon="-118.43231250531971454620361328125">
        <ele>3449.39990234375</ele>
        <time>2021-06-26T21:03:26.000Z</time>
        <extensions>
          <ns3:TrackPointExtension>
            <ns3:atemp>28.0</ns3:atemp>
            <ns3:hr>98</ns3:hr>
          </ns3:TrackPointExtension>
        </extensions>
      </trkpt>
      <trkpt lat="36.81428055278956890106201171875" lon="-118.4322508983314037322998046875">
        <ele>3449.39990234375</ele>
        <time>2021-06-26T21:03:32.000Z</time>
        <extensions>
          <ns3:TrackPointExtension>
            <ns3:atemp>28.0</ns3:atemp>
            <ns3:hr>101</ns3:hr>
          </ns3:TrackPointExtension>
        </extensions>
      </trkpt>
      <trkpt lat="36.814279966056346893310546875" lon="-118.4322089888155460357666015625">
        <ele>3448.60009765625</ele>
        <time>2021-06-26T21:03:37.000Z</time>
        <extensions>
          <ns3:TrackPointExtension>
            <ns3:atemp>28.0</ns3:atemp>
            <ns3:hr>101</ns3:hr>
          </ns3:TrackPointExtension>
        </extensions>
      </trkpt>
      <trkpt lat="36.81428776122629642486572265625" lon="-118.432166911661624908447265625">
        <ele>3447.800048828125</ele>
        <time>2021-06-26T21:03:43.000Z</time>
        <extensions>
          <ns3:TrackPointExtension>
            <ns3:atemp>28.0</ns3:atemp>
            <ns3:hr>101</ns3:hr>
          </ns3:TrackPointExtension>
        </extensions>
      </trkpt>
      <trkpt lat="36.81428365409374237060546875" lon="-118.432157523930072784423828125">
        <ele>3447.39990234375</ele>
        <time>2021-06-26T21:03:44.000Z</time>
        <extensions>
          <ns3:TrackPointExtension>
            <ns3:atemp>28.0</ns3:atemp>
            <ns3:hr>101</ns3:hr>
          </ns3:TrackPointExtension>
        </extensions>
      </trkpt>
      <trkpt lat="36.81425054557621479034423828125" lon="-118.43210513703525066375732421875">
        <ele>3446.60009765625</ele>
        <time>2021-06-26T21:03:51.000Z</time>
        <extensions>
          <ns3:TrackPointExtension>
            <ns3:atemp>28.0</ns3:atemp>
            <ns3:hr>102</ns3:hr>
          </ns3:TrackPointExtension>
        </extensions>
      </trkpt>
      <trkpt lat="36.8142499588429927825927734375" lon="-118.432094492018222808837890625">
        <ele>3446.39990234375</ele>
        <time>2021-06-26T21:03:52.000Z</time>
        <extensions>
          <ns3:TrackPointExtension>
            <ns3:atemp>28.0</ns3:atemp>
            <ns3:hr>102</ns3:hr>
          </ns3:TrackPointExtension>
        </extensions>
      </trkpt>
      <trkpt lat="36.81420980952680110931396484375" lon="-118.4320386685431003570556640625">
        <ele>3445.39990234375</ele>
        <time>2021-06-26T21:03:57.000Z</time>
        <extensions>
          <ns3:TrackPointExtension>
            <ns3:atemp>28.0</ns3:atemp>
            <ns3:hr>103</ns3:hr>
          </ns3:TrackPointExtension>
        </extensions>
      </trkpt>
      <trkpt lat="36.81418784894049167633056640625" lon="-118.43200656585395336151123046875">
        <ele>3445.39990234375</ele>
        <time>2021-06-26T21:03:59.000Z</time>
        <extensions>
          <ns3:TrackPointExtension>
            <ns3:atemp>28.0</ns3:atemp>
            <ns3:hr>102</ns3:hr>
          </ns3:TrackPointExtension>
        </extensions>
      </trkpt>
      <trkpt lat="36.8141684867441654205322265625" lon="-118.43194202519953250885009765625">
        <ele>3445.800048828125</ele>
        <time>2021-06-26T21:04:06.000Z</time>
        <extensions>
          <ns3:TrackPointExtension>
            <ns3:atemp>28.0</ns3:atemp>
            <ns3:hr>104</ns3:hr>
          </ns3:TrackPointExtension>
        </extensions>
      </trkpt>
      <trkpt lat="36.81416572071611881256103515625" lon="-118.43193934299051761627197265625">
        <ele>3446.800048828125</ele>
        <time>2021-06-26T21:04:07.000Z</time>
        <extensions>
          <ns3:TrackPointExtension>
            <ns3:atemp>28.0</ns3:atemp>
            <ns3:hr>104</ns3:hr>
          </ns3:TrackPointExtension>
        </extensions>
      </trkpt>
      <trkpt lat="36.8141493760049343109130859375" lon="-118.4319337271153926849365234375">
        <ele>3446.199951171875</ele>
        <time>2021-06-26T21:04:14.000Z</time>
        <extensions>
          <ns3:TrackPointExtension>
            <ns3:atemp>28.0</ns3:atemp>
            <ns3:hr>107</ns3:hr>
          </ns3:TrackPointExtension>
        </extensions>
      </trkpt>
      <trkpt lat="36.81411291472613811492919921875" lon="-118.431898020207881927490234375">
        <ele>3445.60009765625</ele>
        <time>2021-06-26T21:04:22.000Z</time>
        <extensions>
          <ns3:TrackPointExtension>
            <ns3:atemp>28.0</ns3:atemp>
            <ns3:hr>107</ns3:hr>
          </ns3:TrackPointExtension>
        </extensions>
      </trkpt>
      <trkpt lat="36.81411065161228179931640625" lon="-118.431898020207881927490234375">
        <ele>3445.39990234375</ele>
        <time>2021-06-26T21:04:37.000Z</time>
        <extensions>
          <ns3:TrackPointExtension>
            <ns3:atemp>28.0</ns3:atemp>
            <ns3:hr>106</ns3:hr>
          </ns3:TrackPointExtension>
        </extensions>
      </trkpt>
      <trkpt lat="36.81409983895719051361083984375" lon="-118.43188695609569549560546875">
        <ele>3445.60009765625</ele>
        <time>2021-06-26T21:04:44.000Z</time>
        <extensions>
          <ns3:TrackPointExtension>
            <ns3:atemp>28.0</ns3:atemp>
            <ns3:hr>103</ns3:hr>
          </ns3:TrackPointExtension>
        </extensions>
      </trkpt>
      <trkpt lat="36.8140997551381587982177734375" lon="-118.43188687227666378021240234375">
        <ele>3445.800048828125</ele>
        <time>2021-06-26T21:04:49.000Z</time>
        <extensions>
          <ns3:TrackPointExtension>
            <ns3:atemp>28.0</ns3:atemp>
            <ns3:hr>106</ns3:hr>
          </ns3:TrackPointExtension>
        </extensions>
      </trkpt>
      <trkpt lat="36.8140997551381587982177734375" lon="-118.43188687227666378021240234375">
        <ele>3445.39990234375</ele>
        <time>2021-06-26T21:04:53.000Z</time>
        <extensions>
          <ns3:TrackPointExtension>
            <ns3:atemp>28.0</ns3:atemp>
            <ns3:hr>103</ns3:hr>
          </ns3:TrackPointExtension>
        </extensions>
      </trkpt>
      <trkpt lat="36.81410369463264942169189453125" lon="-118.431917130947113037109375">
        <ele>3444.60009765625</ele>
        <time>2021-06-26T21:05:06.000Z</time>
        <extensions>
          <ns3:TrackPointExtension>
            <ns3:atemp>28.0</ns3:atemp>
            <ns3:hr>103</ns3:hr>
          </ns3:TrackPointExtension>
        </extensions>
      </trkpt>
      <trkpt lat="36.81410553865134716033935546875" lon="-118.43192048370838165283203125">
        <ele>3444.800048828125</ele>
        <time>2021-06-26T21:05:10.000Z</time>
        <extensions>
          <ns3:TrackPointExtension>
            <ns3:atemp>28.0</ns3:atemp>
            <ns3:hr>100</ns3:hr>
          </ns3:TrackPointExtension>
        </extensions>
      </trkpt>
      <trkpt lat="36.814105622470378875732421875" lon="-118.43192048370838165283203125">
        <ele>3444.60009765625</ele>
        <time>2021-06-26T21:05:14.000Z</time>
        <extensions>
          <ns3:TrackPointExtension>
            <ns3:atemp>28.0</ns3:atemp>
            <ns3:hr>97</ns3:hr>
          </ns3:TrackPointExtension>
        </extensions>
      </trkpt>
      <trkpt lat="36.81410260498523712158203125" lon="-118.43192048370838165283203125">
        <ele>3445.199951171875</ele>
        <time>2021-06-26T21:05:22.000Z</time>
        <extensions>
          <ns3:TrackPointExtension>
            <ns3:atemp>28.0</ns3:atemp>
            <ns3:hr>93</ns3:hr>
          </ns3:TrackPointExtension>
        </extensions>
      </trkpt>
      <trkpt lat="36.81410352699458599090576171875" lon="-118.4319193102419376373291015625">
        <ele>3445.199951171875</ele>
        <time>2021-06-26T21:05:24.000Z</time>
        <extensions>
          <ns3:TrackPointExtension>
            <ns3:atemp>28.0</ns3:atemp>
            <ns3:hr>90</ns3:hr>
          </ns3:TrackPointExtension>
        </extensions>
      </trkpt>
      <trkpt lat="36.8141044490039348602294921875" lon="-118.4319172985851764678955078125">
        <ele>3445.199951171875</ele>
        <time>2021-06-26T21:05:30.000Z</time>
        <extensions>
          <ns3:TrackPointExtension>
            <ns3:atemp>28.0</ns3:atemp>
            <ns3:hr>87</ns3:hr>
          </ns3:TrackPointExtension>
        </extensions>
      </trkpt>
      <trkpt lat="36.8141044490039348602294921875" lon="-118.43191721476614475250244140625">
        <ele>3445.199951171875</ele>
        <time>2021-06-26T21:05:36.000Z</time>
        <extensions>
          <ns3:TrackPointExtension>
            <ns3:atemp>28.0</ns3:atemp>
            <ns3:hr>84</ns3:hr>
          </ns3:TrackPointExtension>
        </extensions>
      </trkpt>
      <trkpt lat="36.814110986888408660888671875" lon="-118.43193045817315578460693359375">
        <ele>3445.199951171875</ele>
        <time>2021-06-26T21:05:45.000Z</time>
        <extensions>
          <ns3:TrackPointExtension>
            <ns3:atemp>28.0</ns3:atemp>
            <ns3:hr>83</ns3:hr>
          </ns3:TrackPointExtension>
        </extensions>
      </trkpt>
      <trkpt lat="36.81411475874483585357666015625" lon="-118.43193079344928264617919921875">
        <ele>3445.199951171875</ele>
        <time>2021-06-26T21:05:50.000Z</time>
        <extensions>
          <ns3:TrackPointExtension>
            <ns3:atemp>28.0</ns3:atemp>
            <ns3:hr>86</ns3:hr>
          </ns3:TrackPointExtension>
        </extensions>
      </trkpt>
      <trkpt lat="36.81414996273815631866455078125" lon="-118.431974463164806365966796875">
        <ele>3445.199951171875</ele>
        <time>2021-06-26T21:06:08.000Z</time>
        <extensions>
          <ns3:TrackPointExtension>
            <ns3:atemp>27.0</ns3:atemp>
            <ns3:hr>88</ns3:hr>
          </ns3:TrackPointExtension>
        </extensions>
      </trkpt>
      <trkpt lat="36.8142561614513397216796875" lon="-118.4319957531988620758056640625">
        <ele>3445.199951171875</ele>
        <time>2021-06-26T21:06:17.000Z</time>
        <extensions>
          <ns3:TrackPointExtension>
            <ns3:atemp>27.0</ns3:atemp>
            <ns3:hr>87</ns3:hr>
          </ns3:TrackPointExtension>
        </extensions>
      </trkpt>
      <trkpt lat="36.8142784573137760162353515625" lon="-118.43197605572640895843505859375">
        <ele>3445.199951171875</ele>
        <time>2021-06-26T21:06:20.000Z</time>
        <extensions>
          <ns3:TrackPointExtension>
            <ns3:atemp>27.0</ns3:atemp>
            <ns3:hr>84</ns3:hr>
          </ns3:TrackPointExtension>
        </extensions>
      </trkpt>
      <trkpt lat="36.81430377066135406494140625" lon="-118.4319585375487804412841796875">
        <ele>3445.199951171875</ele>
        <time>2021-06-26T21:06:24.000Z</time>
        <extensions>
          <ns3:TrackPointExtension>
            <ns3:atemp>27.0</ns3:atemp>
            <ns3:hr>80</ns3:hr>
          </ns3:TrackPointExtension>
        </extensions>
      </trkpt>
      <trkpt lat="36.814312823116779327392578125" lon="-118.43195241875946521759033203125">
        <ele>3445.199951171875</ele>
        <time>2021-06-26T21:06:25.000Z</time>
        <extensions>
          <ns3:TrackPointExtension>
            <ns3:atemp>27.0</ns3:atemp>
            <ns3:hr>80</ns3:hr>
          </ns3:TrackPointExtension>
        </extensions>
      </trkpt>
      <trkpt lat="36.81432120501995086669921875" lon="-118.4319457970559597015380859375">
        <ele>3445.199951171875</ele>
        <time>2021-06-26T21:06:26.000Z</time>
        <extensions>
          <ns3:TrackPointExtension>
            <ns3:atemp>27.0</ns3:atemp>
            <ns3:hr>84</ns3:hr>
          </ns3:TrackPointExtension>
        </extensions>
      </trkpt>
      <trkpt lat="36.8143572472035884857177734375" lon="-118.43192257918417453765869140625">
        <ele>3444</ele>
        <time>2021-06-26T21:06:32.000Z</time>
        <extensions>
          <ns3:TrackPointExtension>
            <ns3:atemp>27.0</ns3:atemp>
            <ns3:hr>85</ns3:hr>
          </ns3:TrackPointExtension>
        </extensions>
      </trkpt>
      <trkpt lat="36.8143619410693645477294921875" lon="-118.4319052286446094512939453125">
        <ele>3443.60009765625</ele>
        <time>2021-06-26T21:06:37.000Z</time>
        <extensions>
          <ns3:TrackPointExtension>
            <ns3:atemp>27.0</ns3:atemp>
            <ns3:hr>83</ns3:hr>
          </ns3:TrackPointExtension>
        </extensions>
      </trkpt>
      <trkpt lat="36.81439823471009731292724609375" lon="-118.431881256401538848876953125">
        <ele>3443</ele>
        <time>2021-06-26T21:06:45.000Z</time>
        <extensions>
          <ns3:TrackPointExtension>
            <ns3:atemp>27.0</ns3:atemp>
            <ns3:hr>84</ns3:hr>
          </ns3:TrackPointExtension>
        </extensions>
      </trkpt>
      <trkpt lat="36.81440007872879505157470703125" lon="-118.431881256401538848876953125">
        <ele>3442.800048828125</ele>
        <time>2021-06-26T21:06:47.000Z</time>
        <extensions>
          <ns3:TrackPointExtension>
            <ns3:atemp>27.0</ns3:atemp>
            <ns3:hr>87</ns3:hr>
          </ns3:TrackPointExtension>
        </extensions>
      </trkpt>
      <trkpt lat="36.81441399268805980682373046875" lon="-118.431871198117733001708984375">
        <ele>3442.39990234375</ele>
        <time>2021-06-26T21:06:50.000Z</time>
        <extensions>
          <ns3:TrackPointExtension>
            <ns3:atemp>27.0</ns3:atemp>
            <ns3:hr>87</ns3:hr>
          </ns3:TrackPointExtension>
        </extensions>
      </trkpt>
      <trkpt lat="36.81442916393280029296875" lon="-118.4318562783300876617431640625">
        <ele>3442.199951171875</ele>
        <time>2021-06-26T21:06:52.000Z</time>
        <extensions>
          <ns3:TrackPointExtension>
            <ns3:atemp>27.0</ns3:atemp>
            <ns3:hr>87</ns3:hr>
          </ns3:TrackPointExtension>
        </extensions>
      </trkpt>
      <trkpt lat="36.8144380487501621246337890625" lon="-118.43184445984661579132080078125">
        <ele>3441.199951171875</ele>
        <time>2021-06-26T21:06:56.000Z</time>
        <extensions>
          <ns3:TrackPointExtension>
            <ns3:atemp>27.0</ns3:atemp>
            <ns3:hr>87</ns3:hr>
          </ns3:TrackPointExtension>
        </extensions>
      </trkpt>
      <trkpt lat="36.814449615776538848876953125" lon="-118.4318452142179012298583984375">
        <ele>3441</ele>
        <time>2021-06-26T21:06:59.000Z</time>
        <extensions>
          <ns3:TrackPointExtension>
            <ns3:atemp>27.0</ns3:atemp>
            <ns3:hr>90</ns3:hr>
          </ns3:TrackPointExtension>
        </extensions>
      </trkpt>
      <trkpt lat="36.81445724330842494964599609375" lon="-118.4318458847701549530029296875">
        <ele>3440.800048828125</ele>
        <time>2021-06-26T21:07:00.000Z</time>
        <extensions>
          <ns3:TrackPointExtension>
            <ns3:atemp>27.0</ns3:atemp>
            <ns3:hr>90</ns3:hr>
          </ns3:TrackPointExtension>
        </extensions>
      </trkpt>
      <trkpt lat="36.814480461180210113525390625" lon="-118.4318341501057147979736328125">
        <ele>3440.199951171875</ele>
        <time>2021-06-26T21:07:05.000Z</time>
        <extensions>
          <ns3:TrackPointExtension>
            <ns3:atemp>27.0</ns3:atemp>
            <ns3:hr>95</ns3:hr>
          </ns3:TrackPointExtension>
        </extensions>
      </trkpt>
      <trkpt lat="36.81448674760758876800537109375" lon="-118.43182752840220928192138671875">
        <ele>3440</ele>
        <time>2021-06-26T21:07:06.000Z</time>
        <extensions>
          <ns3:TrackPointExtension>
            <ns3:atemp>27.0</ns3:atemp>
            <ns3:hr>98</ns3:hr>
          </ns3:TrackPointExtension>
        </extensions>
      </trkpt>
      <trkpt lat="36.81449781171977519989013671875" lon="-118.43183197081089019775390625">
        <ele>3439.60009765625</ele>
        <time>2021-06-26T21:07:08.000Z</time>
        <extensions>
          <ns3:TrackPointExtension>
            <ns3:atemp>27.0</ns3:atemp>
            <ns3:hr>102</ns3:hr>
          </ns3:TrackPointExtension>
        </extensions>
      </trkpt>
      <trkpt lat="36.81450250558555126190185546875" lon="-118.4318264387547969818115234375">
        <ele>3439.39990234375</ele>
        <time>2021-06-26T21:07:10.000Z</time>
        <extensions>
          <ns3:TrackPointExtension>
            <ns3:atemp>27.0</ns3:atemp>
            <ns3:hr>105</ns3:hr>
          </ns3:TrackPointExtension>
        </extensions>
      </trkpt>
      <trkpt lat="36.8145111389458179473876953125" lon="-118.4318126924335956573486328125">
        <ele>3438.800048828125</ele>
        <time>2021-06-26T21:07:13.000Z</time>
        <extensions>
          <ns3:TrackPointExtension>
            <ns3:atemp>27.0</ns3:atemp>
            <ns3:hr>105</ns3:hr>
          </ns3:TrackPointExtension>
        </extensions>
      </trkpt>
      <trkpt lat="36.814526058733463287353515625" lon="-118.431801460683345794677734375">
        <ele>3438.60009765625</ele>
        <time>2021-06-26T21:07:16.000Z</time>
        <extensions>
          <ns3:TrackPointExtension>
            <ns3:atemp>27.0</ns3:atemp>
            <ns3:hr>105</ns3:hr>
          </ns3:TrackPointExtension>
        </extensions>
      </trkpt>
      <trkpt lat="36.81455363519489765167236328125" lon="-118.4317575395107269287109375">
        <ele>3437.800048828125</ele>
        <time>2021-06-26T21:07:22.000Z</time>
        <extensions>
          <ns3:TrackPointExtension>
            <ns3:atemp>27.0</ns3:atemp>
            <ns3:hr>105</ns3:hr>
          </ns3:TrackPointExtension>
        </extensions>
      </trkpt>
      <trkpt lat="36.8145728297531604766845703125" lon="-118.43171269632875919342041015625">
        <ele>3436.800048828125</ele>
        <time>2021-06-26T21:07:28.000Z</time>
        <extensions>
          <ns3:TrackPointExtension>
            <ns3:atemp>27.0</ns3:atemp>
            <ns3:hr>104</ns3:hr>
          </ns3:TrackPointExtension>
        </extensions>
      </trkpt>
      <trkpt lat="36.8145681358873844146728515625" lon="-118.43170464970171451568603515625">
        <ele>3436.60009765625</ele>
        <time>2021-06-26T21:07:29.000Z</time>
        <extensions>
          <ns3:TrackPointExtension>
            <ns3:atemp>27.0</ns3:atemp>
            <ns3:hr>102</ns3:hr>
          </ns3:TrackPointExtension>
        </extensions>
      </trkpt>
      <trkpt lat="36.8145721592009067535400390625" lon="-118.4316609799861907958984375">
        <ele>3435.800048828125</ele>
        <time>2021-06-26T21:07:35.000Z</time>
        <extensions>
          <ns3:TrackPointExtension>
            <ns3:atemp>27.0</ns3:atemp>
            <ns3:hr>101</ns3:hr>
          </ns3:TrackPointExtension>
        </extensions>
      </trkpt>
      <trkpt lat="36.81457878090441226959228515625" lon="-118.4316567890346050262451171875">
        <ele>3435.39990234375</ele>
        <time>2021-06-26T21:07:36.000Z</time>
        <extensions>
          <ns3:TrackPointExtension>
            <ns3:atemp>27.0</ns3:atemp>
            <ns3:hr>101</ns3:hr>
          </ns3:TrackPointExtension>
        </extensions>
      </trkpt>
      <trkpt lat="36.814603172242641448974609375" lon="-118.4316205792129039764404296875">
        <ele>3434.39990234375</ele>
        <time>2021-06-26T21:07:42.000Z</time>
        <extensions>
          <ns3:TrackPointExtension>
            <ns3:atemp>27.0</ns3:atemp>
            <ns3:hr>100</ns3:hr>
          </ns3:TrackPointExtension>
        </extensions>
      </trkpt>
      <trkpt lat="36.81460593827068805694580078125" lon="-118.43158780597150325775146484375">
        <ele>3433.39990234375</ele>
        <time>2021-06-26T21:07:46.000Z</time>
        <extensions>
          <ns3:TrackPointExtension>
            <ns3:atemp>27.0</ns3:atemp>
            <ns3:hr>99</ns3:hr>
          </ns3:TrackPointExtension>
        </extensions>
      </trkpt>
      <trkpt lat="36.81460015475749969482421875" lon="-118.431573808193206787109375">
        <ele>3432.800048828125</ele>
        <time>2021-06-26T21:07:47.000Z</time>
        <extensions>
          <ns3:TrackPointExtension>
            <ns3:atemp>27.0</ns3:atemp>
            <ns3:hr>98</ns3:hr>
          </ns3:TrackPointExtension>
        </extensions>
      </trkpt>
      <trkpt lat="36.81459152139723300933837890625" lon="-118.43155696056783199310302734375">
        <ele>3432.39990234375</ele>
        <time>2021-06-26T21:07:49.000Z</time>
        <extensions>
          <ns3:TrackPointExtension>
            <ns3:atemp>27.0</ns3:atemp>
            <ns3:hr>97</ns3:hr>
          </ns3:TrackPointExtension>
        </extensions>
      </trkpt>
      <trkpt lat="36.814589090645313262939453125" lon="-118.4315471537411212921142578125">
        <ele>3432.199951171875</ele>
        <time>2021-06-26T21:07:51.000Z</time>
        <extensions>
          <ns3:TrackPointExtension>
            <ns3:atemp>27.0</ns3:atemp>
            <ns3:hr>95</ns3:hr>
          </ns3:TrackPointExtension>
        </extensions>
      </trkpt>
      <trkpt lat="36.81459504179656505584716796875" lon="-118.43150499276816844940185546875">
        <ele>3431.39990234375</ele>
        <time>2021-06-26T21:07:56.000Z</time>
        <extensions>
          <ns3:TrackPointExtension>
            <ns3:atemp>27.0</ns3:atemp>
            <ns3:hr>95</ns3:hr>
          </ns3:TrackPointExtension>
        </extensions>
      </trkpt>
      <trkpt lat="36.81459688581526279449462890625" lon="-118.431495688855648040771484375">
        <ele>3431</ele>
        <time>2021-06-26T21:07:57.000Z</time>
        <extensions>
          <ns3:TrackPointExtension>
            <ns3:atemp>27.0</ns3:atemp>
            <ns3:hr>95</ns3:hr>
          </ns3:TrackPointExtension>
        </extensions>
      </trkpt>
      <trkpt lat="36.81460141204297542572021484375" lon="-118.43145084567368030548095703125">
        <ele>3430.39990234375</ele>
        <time>2021-06-26T21:08:01.000Z</time>
        <extensions>
          <ns3:TrackPointExtension>
            <ns3:atemp>27.0</ns3:atemp>
            <ns3:hr>91</ns3:hr>
          </ns3:TrackPointExtension>
        </extensions>
      </trkpt>
      <trkpt lat="36.81458598934113979339599609375" lon="-118.43142963945865631103515625">
        <ele>3429.39990234375</ele>
        <time>2021-06-26T21:08:03.000Z</time>
        <extensions>
          <ns3:TrackPointExtension>
            <ns3:atemp>27.0</ns3:atemp>
            <ns3:hr>91</ns3:hr>
          </ns3:TrackPointExtension>
        </extensions>
      </trkpt>
      <trkpt lat="36.81457861326634883880615234375" lon="-118.43142368830740451812744140625">
        <ele>3429.39990234375</ele>
        <time>2021-06-26T21:08:04.000Z</time>
        <extensions>
          <ns3:TrackPointExtension>
            <ns3:atemp>27.0</ns3:atemp>
            <ns3:hr>90</ns3:hr>
          </ns3:TrackPointExtension>
        </extensions>
      </trkpt>
      <trkpt lat="36.81457207538187503814697265625" lon="-118.4314046613872051239013671875">
        <ele>3429.199951171875</ele>
        <time>2021-06-26T21:08:08.000Z</time>
        <extensions>
          <ns3:TrackPointExtension>
            <ns3:atemp>27.0</ns3:atemp>
            <ns3:hr>88</ns3:hr>
          </ns3:TrackPointExtension>
        </extensions>
      </trkpt>
      <trkpt lat="36.81457190774381160736083984375" lon="-118.43140156008303165435791015625">
        <ele>3428.800048828125</ele>
        <time>2021-06-26T21:08:10.000Z</time>
        <extensions>
          <ns3:TrackPointExtension>
            <ns3:atemp>27.0</ns3:atemp>
            <ns3:hr>89</ns3:hr>
          </ns3:TrackPointExtension>
        </extensions>
      </trkpt>
      <trkpt lat="36.8145745061337947845458984375" lon="-118.4313976205885410308837890625">
        <ele>3428.199951171875</ele>
        <time>2021-06-26T21:08:12.000Z</time>
        <extensions>
          <ns3:TrackPointExtension>
            <ns3:atemp>27.0</ns3:atemp>
            <ns3:hr>90</ns3:hr>
          </ns3:TrackPointExtension>
        </extensions>
      </trkpt>
      <trkpt lat="36.81461079977452754974365234375" lon="-118.4313627518713474273681640625">
        <ele>3427.800048828125</ele>
        <time>2021-06-26T21:08:17.000Z</time>
        <extensions>
          <ns3:TrackPointExtension>
            <ns3:atemp>28.0</ns3:atemp>
            <ns3:hr>89</ns3:hr>
          </ns3:TrackPointExtension>
        </extensions>
      </trkpt>
      <trkpt lat="36.81463125161826610565185546875" lon="-118.43135051429271697998046875">
        <ele>3427.800048828125</ele>
        <time>2021-06-26T21:08:21.000Z</time>
        <extensions>
          <ns3:TrackPointExtension>
            <ns3:atemp>28.0</ns3:atemp>
            <ns3:hr>86</ns3:hr>
          </ns3:TrackPointExtension>
        </extensions>
      </trkpt>
      <trkpt lat="36.81464214809238910675048828125" lon="-118.43132327310740947723388671875">
        <ele>3427</ele>
        <time>2021-06-26T21:08:25.000Z</time>
        <extensions>
          <ns3:TrackPointExtension>
            <ns3:atemp>28.0</ns3:atemp>
            <ns3:hr>87</ns3:hr>
          </ns3:TrackPointExtension>
        </extensions>
      </trkpt>
      <trkpt lat="36.81462437845766544342041015625" lon="-118.43131363391876220703125">
        <ele>3426.60009765625</ele>
        <time>2021-06-26T21:08:31.000Z</time>
        <extensions>
          <ns3:TrackPointExtension>
            <ns3:atemp>28.0</ns3:atemp>
            <ns3:hr>86</ns3:hr>
          </ns3:TrackPointExtension>
        </extensions>
      </trkpt>
      <trkpt lat="36.8146102130413055419921875" lon="-118.43132360838353633880615234375">
        <ele>3426.60009765625</ele>
        <time>2021-06-26T21:08:36.000Z</time>
        <extensions>
          <ns3:TrackPointExtension>
            <ns3:atemp>28.0</ns3:atemp>
            <ns3:hr>84</ns3:hr>
          </ns3:TrackPointExtension>
        </extensions>
      </trkpt>
      <trkpt lat="36.8146110512316226959228515625" lon="-118.43129293061792850494384765625">
        <ele>3425.60009765625</ele>
        <time>2021-06-26T21:08:40.000Z</time>
        <extensions>
          <ns3:TrackPointExtension>
            <ns3:atemp>28.0</ns3:atemp>
            <ns3:hr>85</ns3:hr>
          </ns3:TrackPointExtension>
        </extensions>
      </trkpt>
      <trkpt lat="36.8146019987761974334716796875" lon="-118.43128873966634273529052734375">
        <ele>3425.60009765625</ele>
        <time>2021-06-26T21:08:41.000Z</time>
        <extensions>
          <ns3:TrackPointExtension>
            <ns3:atemp>28.0</ns3:atemp>
            <ns3:hr>83</ns3:hr>
          </ns3:TrackPointExtension>
        </extensions>
      </trkpt>
      <trkpt lat="36.8145802058279514312744140625" lon="-118.4312759153544902801513671875">
        <ele>3424.60009765625</ele>
        <time>2021-06-26T21:08:45.000Z</time>
        <extensions>
          <ns3:TrackPointExtension>
            <ns3:atemp>28.0</ns3:atemp>
            <ns3:hr>84</ns3:hr>
          </ns3:TrackPointExtension>
        </extensions>
      </trkpt>
      <trkpt lat="36.81456662714481353759765625" lon="-118.4312561340630054473876953125">
        <ele>3423.800048828125</ele>
        <time>2021-06-26T21:08:49.000Z</time>
        <extensions>
          <ns3:TrackPointExtension>
            <ns3:atemp>28.0</ns3:atemp>
            <ns3:hr>85</ns3:hr>
          </ns3:TrackPointExtension>
        </extensions>
      </trkpt>
      <trkpt lat="36.81455967016518115997314453125" lon="-118.4312534518539905548095703125">
        <ele>3423.60009765625</ele>
        <time>2021-06-26T21:08:50.000Z</time>
        <extensions>
          <ns3:TrackPointExtension>
            <ns3:atemp>28.0</ns3:atemp>
            <ns3:hr>89</ns3:hr>
          </ns3:TrackPointExtension>
        </extensions>
      </trkpt>
      <trkpt lat="36.81455447338521480560302734375" lon="-118.43124884180724620819091796875">
        <ele>3423.199951171875</ele>
        <time>2021-06-26T21:08:51.000Z</time>
        <extensions>
          <ns3:TrackPointExtension>
            <ns3:atemp>28.0</ns3:atemp>
            <ns3:hr>89</ns3:hr>
          </ns3:TrackPointExtension>
        </extensions>
      </trkpt>
      <trkpt lat="36.81453636847436428070068359375" lon="-118.43124062754213809967041015625">
        <ele>3422.60009765625</ele>
        <time>2021-06-26T21:08:55.000Z</time>
        <extensions>
          <ns3:TrackPointExtension>
            <ns3:atemp>28.0</ns3:atemp>
            <ns3:hr>93</ns3:hr>
          </ns3:TrackPointExtension>
        </extensions>
      </trkpt>
      <trkpt lat="36.81453603319823741912841796875" lon="-118.43125152401626110076904296875">
        <ele>3422.39990234375</ele>
        <time>2021-06-26T21:08:56.000Z</time>
        <extensions>
          <ns3:TrackPointExtension>
            <ns3:atemp>28.0</ns3:atemp>
            <ns3:hr>96</ns3:hr>
          </ns3:TrackPointExtension>
        </extensions>
      </trkpt>
      <trkpt lat="36.81453385390341281890869140625" lon="-118.43126040883362293243408203125">
        <ele>3422.199951171875</ele>
        <time>2021-06-26T21:08:57.000Z</time>
        <extensions>
          <ns3:TrackPointExtension>
            <ns3:atemp>28.0</ns3:atemp>
            <ns3:hr>96</ns3:hr>
          </ns3:TrackPointExtension>
        </extensions>
      </trkpt>
      <trkpt lat="36.8145124800503253936767578125" lon="-118.43127231113612651824951171875">
        <ele>3421.39990234375</ele>
        <time>2021-06-26T21:09:03.000Z</time>
        <extensions>
          <ns3:TrackPointExtension>
            <ns3:atemp>28.0</ns3:atemp>
            <ns3:hr>98</ns3:hr>
          </ns3:TrackPointExtension>
        </extensions>
      </trkpt>
      <trkpt lat="36.81449932046234607696533203125" lon="-118.4312708862125873565673828125">
        <ele>3421</ele>
        <time>2021-06-26T21:09:05.000Z</time>
        <extensions>
          <ns3:TrackPointExtension>
            <ns3:atemp>28.0</ns3:atemp>
            <ns3:hr>99</ns3:hr>
          </ns3:TrackPointExtension>
        </extensions>
      </trkpt>
      <trkpt lat="36.81448054499924182891845703125" lon="-118.43127147294580936431884765625">
        <ele>3420</ele>
        <time>2021-06-26T21:09:07.000Z</time>
        <extensions>
          <ns3:TrackPointExtension>
            <ns3:atemp>28.0</ns3:atemp>
            <ns3:hr>100</ns3:hr>
          </ns3:TrackPointExtension>
        </extensions>
      </trkpt>
      <trkpt lat="36.814459674060344696044921875" lon="-118.43126459978520870208740234375">
        <ele>3419.60009765625</ele>
        <time>2021-06-26T21:09:11.000Z</time>
        <extensions>
          <ns3:TrackPointExtension>
            <ns3:atemp>28.0</ns3:atemp>
            <ns3:hr>100</ns3:hr>
          </ns3:TrackPointExtension>
        </extensions>
      </trkpt>
      <trkpt lat="36.81445020250976085662841796875" lon="-118.431267701089382171630859375">
        <ele>3418.800048828125</ele>
        <time>2021-06-26T21:09:13.000Z</time>
        <extensions>
          <ns3:TrackPointExtension>
            <ns3:atemp>28.0</ns3:atemp>
            <ns3:hr>101</ns3:hr>
          </ns3:TrackPointExtension>
        </extensions>
      </trkpt>
      <trkpt lat="36.8144385516643524169921875" lon="-118.4312671981751918792724609375">
        <ele>3417.800048828125</ele>
        <time>2021-06-26T21:09:18.000Z</time>
        <extensions>
          <ns3:TrackPointExtension>
            <ns3:atemp>28.0</ns3:atemp>
            <ns3:hr>100</ns3:hr>
          </ns3:TrackPointExtension>
        </extensions>
      </trkpt>
      <trkpt lat="36.81443243287503719329833984375" lon="-118.43126200139522552490234375">
        <ele>3417.800048828125</ele>
        <time>2021-06-26T21:09:19.000Z</time>
        <extensions>
          <ns3:TrackPointExtension>
            <ns3:atemp>28.0</ns3:atemp>
            <ns3:hr>100</ns3:hr>
          </ns3:TrackPointExtension>
        </extensions>
      </trkpt>
      <trkpt lat="36.814424134790897369384765625" lon="-118.43125537969172000885009765625">
        <ele>3416.60009765625</ele>
        <time>2021-06-26T21:09:21.000Z</time>
        <extensions>
          <ns3:TrackPointExtension>
            <ns3:atemp>28.0</ns3:atemp>
            <ns3:hr>99</ns3:hr>
          </ns3:TrackPointExtension>
        </extensions>
      </trkpt>
      <trkpt lat="36.8143931217491626739501953125" lon="-118.43123861588537693023681640625">
        <ele>3415.39990234375</ele>
        <time>2021-06-26T21:09:27.000Z</time>
        <extensions>
          <ns3:TrackPointExtension>
            <ns3:atemp>28.0</ns3:atemp>
            <ns3:hr>100</ns3:hr>
          </ns3:TrackPointExtension>
        </extensions>
      </trkpt>
      <trkpt lat="36.8143790401518344879150390625" lon="-118.43120207078754901885986328125">
        <ele>3414.60009765625</ele>
        <time>2021-06-26T21:09:34.000Z</time>
        <extensions>
          <ns3:TrackPointExtension>
            <ns3:atemp>28.0</ns3:atemp>
            <ns3:hr>99</ns3:hr>
          </ns3:TrackPointExtension>
        </extensions>
      </trkpt>
      <trkpt lat="36.8143676407635211944580078125" lon="-118.4312095306813716888427734375">
        <ele>3414.199951171875</ele>
        <time>2021-06-26T21:09:37.000Z</time>
        <extensions>
          <ns3:TrackPointExtension>
            <ns3:atemp>28.0</ns3:atemp>
            <ns3:hr>100</ns3:hr>
          </ns3:TrackPointExtension>
        </extensions>
      </trkpt>
      <trkpt lat="36.814328245818614959716796875" lon="-118.431210033595561981201171875">
        <ele>3413.800048828125</ele>
        <time>2021-06-26T21:09:42.000Z</time>
        <extensions>
          <ns3:TrackPointExtension>
            <ns3:atemp>28.0</ns3:atemp>
            <ns3:hr>100</ns3:hr>
          </ns3:TrackPointExtension>
        </extensions>
      </trkpt>
      <trkpt lat="36.81431190110743045806884765625" lon="-118.4312102012336254119873046875">
        <ele>3413</ele>
        <time>2021-06-26T21:09:44.000Z</time>
        <extensions>
          <ns3:TrackPointExtension>
            <ns3:atemp>28.0</ns3:atemp>
            <ns3:hr>100</ns3:hr>
          </ns3:TrackPointExtension>
        </extensions>
      </trkpt>
      <trkpt lat="36.81426496244966983795166015625" lon="-118.43121849931776523590087890625">
        <ele>3412.199951171875</ele>
        <time>2021-06-26T21:09:52.000Z</time>
        <extensions>
          <ns3:TrackPointExtension>
            <ns3:atemp>28.0</ns3:atemp>
            <ns3:hr>99</ns3:hr>
          </ns3:TrackPointExtension>
        </extensions>
      </trkpt>
      <trkpt lat="36.81424367241561412811279296875" lon="-118.4312130510807037353515625">
        <ele>3412</ele>
        <time>2021-06-26T21:09:56.000Z</time>
        <extensions>
          <ns3:TrackPointExtension>
            <ns3:atemp>28.0</ns3:atemp>
            <ns3:hr>103</ns3:hr>
          </ns3:TrackPointExtension>
        </extensions>
      </trkpt>
      <trkpt lat="36.81422573514282703399658203125" lon="-118.43120969831943511962890625">
        <ele>3410.800048828125</ele>
        <time>2021-06-26T21:10:00.000Z</time>
        <extensions>
          <ns3:TrackPointExtension>
            <ns3:atemp>28.0</ns3:atemp>
            <ns3:hr>103</ns3:hr>
          </ns3:TrackPointExtension>
        </extensions>
      </trkpt>
      <trkpt lat="36.814181394875049591064453125" lon="-118.43122470192611217498779296875">
        <ele>3409.800048828125</ele>
        <time>2021-06-26T21:10:08.000Z</time>
        <extensions>
          <ns3:TrackPointExtension>
            <ns3:atemp>28.0</ns3:atemp>
            <ns3:hr>103</ns3:hr>
          </ns3:TrackPointExtension>
        </extensions>
      </trkpt>
      <trkpt lat="36.81417611427605152130126953125" lon="-118.43122637830674648284912109375">
        <ele>3409.39990234375</ele>
        <time>2021-06-26T21:10:10.000Z</time>
        <extensions>
          <ns3:TrackPointExtension>
            <ns3:atemp>28.0</ns3:atemp>
            <ns3:hr>102</ns3:hr>
          </ns3:TrackPointExtension>
        </extensions>
      </trkpt>
      <trkpt lat="36.8141864240169525146484375" lon="-118.431228809058666229248046875">
        <ele>3408.800048828125</ele>
        <time>2021-06-26T21:10:16.000Z</time>
        <extensions>
          <ns3:TrackPointExtension>
            <ns3:atemp>28.0</ns3:atemp>
            <ns3:hr>101</ns3:hr>
          </ns3:TrackPointExtension>
        </extensions>
      </trkpt>
      <trkpt lat="36.8141730129718780517578125" lon="-118.4311998076736927032470703125">
        <ele>3407.39990234375</ele>
        <time>2021-06-26T21:10:22.000Z</time>
        <extensions>
          <ns3:TrackPointExtension>
            <ns3:atemp>28.0</ns3:atemp>
            <ns3:hr>103</ns3:hr>
          </ns3:TrackPointExtension>
        </extensions>
      </trkpt>
      <trkpt lat="36.8141647987067699432373046875" lon="-118.4311887435615062713623046875">
        <ele>3406.39990234375</ele>
        <time>2021-06-26T21:10:26.000Z</time>
        <extensions>
          <ns3:TrackPointExtension>
            <ns3:atemp>28.0</ns3:atemp>
            <ns3:hr>104</ns3:hr>
          </ns3:TrackPointExtension>
        </extensions>
      </trkpt>
      <trkpt lat="36.81416421197354793548583984375" lon="-118.43118421733379364013671875">
        <ele>3406.199951171875</ele>
        <time>2021-06-26T21:10:27.000Z</time>
        <extensions>
          <ns3:TrackPointExtension>
            <ns3:atemp>28.0</ns3:atemp>
            <ns3:hr>104</ns3:hr>
          </ns3:TrackPointExtension>
        </extensions>
      </trkpt>
      <trkpt lat="36.8141567520797252655029296875" lon="-118.4311521984636783599853515625">
        <ele>3405</ele>
        <time>2021-06-26T21:10:33.000Z</time>
        <extensions>
          <ns3:TrackPointExtension>
            <ns3:atemp>28.0</ns3:atemp>
            <ns3:hr>104</ns3:hr>
          </ns3:TrackPointExtension>
        </extensions>
      </trkpt>
      <trkpt lat="36.81415147148072719573974609375" lon="-118.43113551847636699676513671875">
        <ele>3404.199951171875</ele>
        <time>2021-06-26T21:10:35.000Z</time>
        <extensions>
          <ns3:TrackPointExtension>
            <ns3:atemp>28.0</ns3:atemp>
            <ns3:hr>104</ns3:hr>
          </ns3:TrackPointExtension>
        </extensions>
      </trkpt>
      <trkpt lat="36.8141674809157848358154296875" lon="-118.43110601417720317840576171875">
        <ele>3404.199951171875</ele>
        <time>2021-06-26T21:10:41.000Z</time>
        <extensions>
          <ns3:TrackPointExtension>
            <ns3:atemp>28.0</ns3:atemp>
            <ns3:hr>101</ns3:hr>
          </ns3:TrackPointExtension>
        </extensions>
      </trkpt>
      <trkpt lat="36.81417862884700298309326171875" lon="-118.431092016398906707763671875">
        <ele>3404.199951171875</ele>
        <time>2021-06-26T21:10:43.000Z</time>
        <extensions>
          <ns3:TrackPointExtension>
            <ns3:atemp>28.0</ns3:atemp>
            <ns3:hr>101</ns3:hr>
          </ns3:TrackPointExtension>
        </extensions>
      </trkpt>
      <trkpt lat="36.8141798861324787139892578125" lon="-118.43108556233346462249755859375">
        <ele>3403.60009765625</ele>
        <time>2021-06-26T21:10:44.000Z</time>
        <extensions>
          <ns3:TrackPointExtension>
            <ns3:atemp>28.0</ns3:atemp>
            <ns3:hr>100</ns3:hr>
          </ns3:TrackPointExtension>
        </extensions>
      </trkpt>
      <trkpt lat="36.81417577899992465972900390625" lon="-118.43105614185333251953125">
        <ele>3402.60009765625</ele>
        <time>2021-06-26T21:10:48.000Z</time>
        <extensions>
          <ns3:TrackPointExtension>
            <ns3:atemp>28.0</ns3:atemp>
            <ns3:hr>98</ns3:hr>
          </ns3:TrackPointExtension>
        </extensions>
      </trkpt>
      <trkpt lat="36.814172677695751190185546875" lon="-118.43104314990341663360595703125">
        <ele>3401.800048828125</ele>
        <time>2021-06-26T21:10:50.000Z</time>
        <extensions>
          <ns3:TrackPointExtension>
            <ns3:atemp>28.0</ns3:atemp>
            <ns3:hr>95</ns3:hr>
          </ns3:TrackPointExtension>
        </extensions>
      </trkpt>
      <trkpt lat="36.814167313277721405029296875" lon="-118.4310395456850528717041015625">
        <ele>3401.60009765625</ele>
        <time>2021-06-26T21:10:51.000Z</time>
        <extensions>
          <ns3:TrackPointExtension>
            <ns3:atemp>28.0</ns3:atemp>
            <ns3:hr>95</ns3:hr>
          </ns3:TrackPointExtension>
        </extensions>
      </trkpt>
      <trkpt lat="36.814162619411945343017578125" lon="-118.43102605082094669342041015625">
        <ele>3401</ele>
        <time>2021-06-26T21:10:55.000Z</time>
        <extensions>
          <ns3:TrackPointExtension>
            <ns3:atemp>28.0</ns3:atemp>
            <ns3:hr>94</ns3:hr>
          </ns3:TrackPointExtension>
        </extensions>
      </trkpt>
      <trkpt lat="36.8141674809157848358154296875" lon="-118.4310257993638515472412109375">
        <ele>3401</ele>
        <time>2021-06-26T21:11:05.000Z</time>
        <extensions>
          <ns3:TrackPointExtension>
            <ns3:atemp>28.0</ns3:atemp>
            <ns3:hr>97</ns3:hr>
          </ns3:TrackPointExtension>
        </extensions>
      </trkpt>
      <trkpt lat="36.8141674809157848358154296875" lon="-118.4310257993638515472412109375">
        <ele>3401</ele>
        <time>2021-06-26T21:11:06.000Z</time>
        <extensions>
          <ns3:TrackPointExtension>
            <ns3:atemp>28.0</ns3:atemp>
            <ns3:hr>97</ns3:hr>
          </ns3:TrackPointExtension>
        </extensions>
      </trkpt>
      <trkpt lat="36.814189441502094268798828125" lon="-118.431010879576206207275390625">
        <ele>3400.800048828125</ele>
        <time>2021-06-26T21:11:10.000Z</time>
        <extensions>
          <ns3:TrackPointExtension>
            <ns3:atemp>28.0</ns3:atemp>
            <ns3:hr>100</ns3:hr>
          </ns3:TrackPointExtension>
        </extensions>
      </trkpt>
      <trkpt lat="36.81420209817588329315185546875" lon="-118.43100425787270069122314453125">
        <ele>3400.199951171875</ele>
        <time>2021-06-26T21:11:11.000Z</time>
        <extensions>
          <ns3:TrackPointExtension>
            <ns3:atemp>28.0</ns3:atemp>
            <ns3:hr>101</ns3:hr>
          </ns3:TrackPointExtension>
        </extensions>
      </trkpt>
      <trkpt lat="36.8142147548496723175048828125" lon="-118.4309971332550048828125">
        <ele>3400.199951171875</ele>
        <time>2021-06-26T21:11:12.000Z</time>
        <extensions>
          <ns3:TrackPointExtension>
            <ns3:atemp>28.0</ns3:atemp>
            <ns3:hr>101</ns3:hr>
          </ns3:TrackPointExtension>
        </extensions>
      </trkpt>
      <trkpt lat="36.8142244778573513031005859375" lon="-118.43097710050642490386962890625">
        <ele>3399.199951171875</ele>
        <time>2021-06-26T21:11:16.000Z</time>
        <extensions>
          <ns3:TrackPointExtension>
            <ns3:atemp>28.0</ns3:atemp>
            <ns3:hr>101</ns3:hr>
          </ns3:TrackPointExtension>
        </extensions>
      </trkpt>
      <trkpt lat="36.81422087363898754119873046875" lon="-118.430967628955841064453125">
        <ele>3398.60009765625</ele>
        <time>2021-06-26T21:11:17.000Z</time>
        <extensions>
          <ns3:TrackPointExtension>
            <ns3:atemp>28.0</ns3:atemp>
            <ns3:hr>100</ns3:hr>
          </ns3:TrackPointExtension>
        </extensions>
      </trkpt>
      <trkpt lat="36.8142025172710418701171875" lon="-118.43095664866268634796142578125">
        <ele>3397.800048828125</ele>
        <time>2021-06-26T21:11:20.000Z</time>
        <extensions>
          <ns3:TrackPointExtension>
            <ns3:atemp>28.0</ns3:atemp>
            <ns3:hr>100</ns3:hr>
          </ns3:TrackPointExtension>
        </extensions>
      </trkpt>
      <trkpt lat="36.81419958360493183135986328125" lon="-118.43094642274081707000732421875">
        <ele>3396.800048828125</ele>
        <time>2021-06-26T21:11:24.000Z</time>
        <extensions>
          <ns3:TrackPointExtension>
            <ns3:atemp>28.0</ns3:atemp>
            <ns3:hr>100</ns3:hr>
          </ns3:TrackPointExtension>
        </extensions>
      </trkpt>
      <trkpt lat="36.81423646397888660430908203125" lon="-118.43091138638556003570556640625">
        <ele>3396</ele>
        <time>2021-06-26T21:11:33.000Z</time>
        <extensions>
          <ns3:TrackPointExtension>
            <ns3:atemp>28.0</ns3:atemp>
            <ns3:hr>99</ns3:hr>
          </ns3:TrackPointExtension>
        </extensions>
      </trkpt>
      <trkpt lat="36.81424082256853580474853515625" lon="-118.43090635724365711212158203125">
        <ele>3395.60009765625</ele>
        <time>2021-06-26T21:11:34.000Z</time>
        <extensions>
          <ns3:TrackPointExtension>
            <ns3:atemp>28.0</ns3:atemp>
            <ns3:hr>98</ns3:hr>
          </ns3:TrackPointExtension>
        </extensions>
      </trkpt>
      <trkpt lat="36.8142409063875675201416015625" lon="-118.43087844550609588623046875">
        <ele>3395</ele>
        <time>2021-06-26T21:11:40.000Z</time>
        <extensions>
          <ns3:TrackPointExtension>
            <ns3:atemp>28.0</ns3:atemp>
            <ns3:hr>99</ns3:hr>
          </ns3:TrackPointExtension>
        </extensions>
      </trkpt>
      <trkpt lat="36.8142445944249629974365234375" lon="-118.43086444772779941558837890625">
        <ele>3394.39990234375</ele>
        <time>2021-06-26T21:11:42.000Z</time>
        <extensions>
          <ns3:TrackPointExtension>
            <ns3:atemp>28.0</ns3:atemp>
            <ns3:hr>98</ns3:hr>
          </ns3:TrackPointExtension>
        </extensions>
      </trkpt>
      <trkpt lat="36.81425222195684909820556640625" lon="-118.43084852211177349090576171875">
        <ele>3393.800048828125</ele>
        <time>2021-06-26T21:11:44.000Z</time>
        <extensions>
          <ns3:TrackPointExtension>
            <ns3:atemp>28.0</ns3:atemp>
            <ns3:hr>98</ns3:hr>
          </ns3:TrackPointExtension>
        </extensions>
      </trkpt>
      <trkpt lat="36.81426496244966983795166015625" lon="-118.430808372795581817626953125">
        <ele>3392.39990234375</ele>
        <time>2021-06-26T21:11:49.000Z</time>
        <extensions>
          <ns3:TrackPointExtension>
            <ns3:atemp>28.0</ns3:atemp>
            <ns3:hr>98</ns3:hr>
          </ns3:TrackPointExtension>
        </extensions>
      </trkpt>
      <trkpt lat="36.814261190593242645263671875" lon="-118.4307964704930782318115234375">
        <ele>3392.39990234375</ele>
        <time>2021-06-26T21:11:50.000Z</time>
        <extensions>
          <ns3:TrackPointExtension>
            <ns3:atemp>28.0</ns3:atemp>
            <ns3:hr>98</ns3:hr>
          </ns3:TrackPointExtension>
        </extensions>
      </trkpt>
      <trkpt lat="36.81426194496452808380126953125" lon="-118.43078599311411380767822265625">
        <ele>3392.39990234375</ele>
        <time>2021-06-26T21:11:51.000Z</time>
        <extensions>
          <ns3:TrackPointExtension>
            <ns3:atemp>28.0</ns3:atemp>
            <ns3:hr>98</ns3:hr>
          </ns3:TrackPointExtension>
        </extensions>
      </trkpt>
      <trkpt lat="36.814270578324794769287109375" lon="-118.430782891809940338134765625">
        <ele>3392.39990234375</ele>
        <time>2021-06-26T21:11:54.000Z</time>
        <extensions>
          <ns3:TrackPointExtension>
            <ns3:atemp>28.0</ns3:atemp>
            <ns3:hr>98</ns3:hr>
          </ns3:TrackPointExtension>
        </extensions>
      </trkpt>
      <trkpt lat="36.814290024340152740478515625" lon="-118.430780880153179168701171875">
        <ele>3392.39990234375</ele>
        <time>2021-06-26T21:11:56.000Z</time>
        <extensions>
          <ns3:TrackPointExtension>
            <ns3:atemp>28.0</ns3:atemp>
            <ns3:hr>97</ns3:hr>
          </ns3:TrackPointExtension>
        </extensions>
      </trkpt>
      <trkpt lat="36.81431508623063564300537109375" lon="-118.430767469108104705810546875">
        <ele>3392</ele>
        <time>2021-06-26T21:11:59.000Z</time>
        <extensions>
          <ns3:TrackPointExtension>
            <ns3:atemp>28.0</ns3:atemp>
            <ns3:hr>97</ns3:hr>
          </ns3:TrackPointExtension>
        </extensions>
      </trkpt>
      <trkpt lat="36.81432195939123630523681640625" lon="-118.43073603697121143341064453125">
        <ele>3391.800048828125</ele>
        <time>2021-06-26T21:12:02.000Z</time>
        <extensions>
          <ns3:TrackPointExtension>
            <ns3:atemp>28.0</ns3:atemp>
            <ns3:hr>96</ns3:hr>
          </ns3:TrackPointExtension>
        </extensions>
      </trkpt>
      <trkpt lat="36.81430779397487640380859375" lon="-118.43071256764233112335205078125">
        <ele>3392</ele>
        <time>2021-06-26T21:12:04.000Z</time>
        <extensions>
          <ns3:TrackPointExtension>
            <ns3:atemp>28.0</ns3:atemp>
            <ns3:hr>97</ns3:hr>
          </ns3:TrackPointExtension>
        </extensions>
      </trkpt>
      <trkpt lat="36.81430838070809841156005859375" lon="-118.430693708360195159912109375">
        <ele>3391.800048828125</ele>
        <time>2021-06-26T21:12:08.000Z</time>
        <extensions>
          <ns3:TrackPointExtension>
            <ns3:atemp>28.0</ns3:atemp>
            <ns3:hr>97</ns3:hr>
          </ns3:TrackPointExtension>
        </extensions>
      </trkpt>
      <trkpt lat="36.81430653668940067291259765625" lon="-118.4306925348937511444091796875">
        <ele>3391</ele>
        <time>2021-06-26T21:12:10.000Z</time>
        <extensions>
          <ns3:TrackPointExtension>
            <ns3:atemp>28.0</ns3:atemp>
            <ns3:hr>98</ns3:hr>
          </ns3:TrackPointExtension>
        </extensions>
      </trkpt>
      <trkpt lat="36.8143103085458278656005859375" lon="-118.4306938759982585906982421875">
        <ele>3391</ele>
        <time>2021-06-26T21:12:11.000Z</time>
        <extensions>
          <ns3:TrackPointExtension>
            <ns3:atemp>28.0</ns3:atemp>
            <ns3:hr>95</ns3:hr>
          </ns3:TrackPointExtension>
        </extensions>
      </trkpt>
      <trkpt lat="36.8143160082399845123291015625" lon="-118.43069513328373432159423828125">
        <ele>3391.199951171875</ele>
        <time>2021-06-26T21:12:17.000Z</time>
        <extensions>
          <ns3:TrackPointExtension>
            <ns3:atemp>28.0</ns3:atemp>
            <ns3:hr>98</ns3:hr>
          </ns3:TrackPointExtension>
        </extensions>
      </trkpt>
      <trkpt lat="36.8143160082399845123291015625" lon="-118.43069513328373432159423828125">
        <ele>3390.60009765625</ele>
        <time>2021-06-26T21:12:23.000Z</time>
        <extensions>
          <ns3:TrackPointExtension>
            <ns3:atemp>28.0</ns3:atemp>
            <ns3:hr>101</ns3:hr>
          </ns3:TrackPointExtension>
        </extensions>
      </trkpt>
      <trkpt lat="36.8143160082399845123291015625" lon="-118.4306945465505123138427734375">
        <ele>3390</ele>
        <time>2021-06-26T21:12:28.000Z</time>
        <extensions>
          <ns3:TrackPointExtension>
            <ns3:atemp>28.0</ns3:atemp>
            <ns3:hr>101</ns3:hr>
          </ns3:TrackPointExtension>
        </extensions>
      </trkpt>
      <trkpt lat="36.81431827135384082794189453125" lon="-118.43069471418857574462890625">
        <ele>3389.800048828125</ele>
        <time>2021-06-26T21:12:40.000Z</time>
        <extensions>
          <ns3:TrackPointExtension>
            <ns3:atemp>28.0</ns3:atemp>
            <ns3:hr>99</ns3:hr>
          </ns3:TrackPointExtension>
        </extensions>
      </trkpt>
      <trkpt lat="36.81431827135384082794189453125" lon="-118.4306953847408294677734375">
        <ele>3391</ele>
        <time>2021-06-26T21:12:44.000Z</time>
        <extensions>
          <ns3:TrackPointExtension>
            <ns3:atemp>28.0</ns3:atemp>
            <ns3:hr>97</ns3:hr>
          </ns3:TrackPointExtension>
        </extensions>
      </trkpt>
      <trkpt lat="36.8143166787922382354736328125" lon="-118.430698402225971221923828125">
        <ele>3389.800048828125</ele>
        <time>2021-06-26T21:13:02.000Z</time>
        <extensions>
          <ns3:TrackPointExtension>
            <ns3:atemp>28.0</ns3:atemp>
            <ns3:hr>101</ns3:hr>
          </ns3:TrackPointExtension>
        </extensions>
      </trkpt>
      <trkpt lat="36.81432078592479228973388671875" lon="-118.4306992404162883758544921875">
        <ele>3388.800048828125</ele>
        <time>2021-06-26T21:13:05.000Z</time>
        <extensions>
          <ns3:TrackPointExtension>
            <ns3:atemp>28.0</ns3:atemp>
            <ns3:hr>101</ns3:hr>
          </ns3:TrackPointExtension>
        </extensions>
      </trkpt>
      <trkpt lat="36.814374513924121856689453125" lon="-118.430667221546173095703125">
        <ele>3387.199951171875</ele>
        <time>2021-06-26T21:13:13.000Z</time>
        <extensions>
          <ns3:TrackPointExtension>
            <ns3:atemp>28.0</ns3:atemp>
            <ns3:hr>102</ns3:hr>
          </ns3:TrackPointExtension>
        </extensions>
      </trkpt>
      <trkpt lat="36.8143768608570098876953125" lon="-118.43065640889108180999755859375">
        <ele>3387.199951171875</ele>
        <time>2021-06-26T21:13:14.000Z</time>
        <extensions>
          <ns3:TrackPointExtension>
            <ns3:atemp>28.0</ns3:atemp>
            <ns3:hr>101</ns3:hr>
          </ns3:TrackPointExtension>
        </extensions>
      </trkpt>
      <trkpt lat="36.8144144117832183837890625" lon="-118.4306231327354907989501953125">
        <ele>3386.199951171875</ele>
        <time>2021-06-26T21:13:19.000Z</time>
        <extensions>
          <ns3:TrackPointExtension>
            <ns3:atemp>28.0</ns3:atemp>
            <ns3:hr>102</ns3:hr>
          </ns3:TrackPointExtension>
        </extensions>
      </trkpt>
      <trkpt lat="36.81441508233547210693359375" lon="-118.43061625957489013671875">
        <ele>3386.199951171875</ele>
        <time>2021-06-26T21:13:20.000Z</time>
        <extensions>
          <ns3:TrackPointExtension>
            <ns3:atemp>28.0</ns3:atemp>
            <ns3:hr>99</ns3:hr>
          </ns3:TrackPointExtension>
        </extensions>
      </trkpt>
      <trkpt lat="36.81441851891577243804931640625" lon="-118.43060846440494060516357421875">
        <ele>3386</ele>
        <time>2021-06-26T21:13:22.000Z</time>
        <extensions>
          <ns3:TrackPointExtension>
            <ns3:atemp>28.0</ns3:atemp>
            <ns3:hr>100</ns3:hr>
          </ns3:TrackPointExtension>
        </extensions>
      </trkpt>
      <trkpt lat="36.81444031186401844024658203125" lon="-118.43060888350009918212890625">
        <ele>3385.800048828125</ele>
        <time>2021-06-26T21:13:25.000Z</time>
        <extensions>
          <ns3:TrackPointExtension>
            <ns3:atemp>28.0</ns3:atemp>
            <ns3:hr>98</ns3:hr>
          </ns3:TrackPointExtension>
        </extensions>
      </trkpt>
      <trkpt lat="36.8144742585718631744384765625" lon="-118.43062003143131732940673828125">
        <ele>3386.199951171875</ele>
        <time>2021-06-26T21:13:32.000Z</time>
        <extensions>
          <ns3:TrackPointExtension>
            <ns3:atemp>28.0</ns3:atemp>
            <ns3:hr>99</ns3:hr>
          </ns3:TrackPointExtension>
        </extensions>
      </trkpt>
      <trkpt lat="36.81452698074281215667724609375" lon="-118.4305949695408344268798828125">
        <ele>3386</ele>
        <time>2021-06-26T21:13:40.000Z</time>
        <extensions>
          <ns3:TrackPointExtension>
            <ns3:atemp>28.0</ns3:atemp>
            <ns3:hr>99</ns3:hr>
          </ns3:TrackPointExtension>
        </extensions>
      </trkpt>
      <trkpt lat="36.81453217752277851104736328125" lon="-118.430591113865375518798828125">
        <ele>3385</ele>
        <time>2021-06-26T21:13:41.000Z</time>
        <extensions>
          <ns3:TrackPointExtension>
            <ns3:atemp>28.0</ns3:atemp>
            <ns3:hr>99</ns3:hr>
          </ns3:TrackPointExtension>
        </extensions>
      </trkpt>
      <trkpt lat="36.81457224301993846893310546875" lon="-118.43054308556020259857177734375">
        <ele>3384.39990234375</ele>
        <time>2021-06-26T21:13:49.000Z</time>
        <extensions>
          <ns3:TrackPointExtension>
            <ns3:atemp>28.0</ns3:atemp>
            <ns3:hr>96</ns3:hr>
          </ns3:TrackPointExtension>
        </extensions>
      </trkpt>
      <trkpt lat="36.81462253443896770477294921875" lon="-118.430550210177898406982421875">
        <ele>3384.60009765625</ele>
        <time>2021-06-26T21:13:57.000Z</time>
        <extensions>
          <ns3:TrackPointExtension>
            <ns3:atemp>28.0</ns3:atemp>
            <ns3:hr>94</ns3:hr>
          </ns3:TrackPointExtension>
        </extensions>
      </trkpt>
      <trkpt lat="36.8146405555307865142822265625" lon="-118.43055213801562786102294921875">
        <ele>3384.39990234375</ele>
        <time>2021-06-26T21:13:59.000Z</time>
        <extensions>
          <ns3:TrackPointExtension>
            <ns3:atemp>28.0</ns3:atemp>
            <ns3:hr>92</ns3:hr>
          </ns3:TrackPointExtension>
        </extensions>
      </trkpt>
      <trkpt lat="36.81464801542460918426513671875" lon="-118.430549204349517822265625">
        <ele>3383.60009765625</ele>
        <time>2021-06-26T21:14:00.000Z</time>
        <extensions>
          <ns3:TrackPointExtension>
            <ns3:atemp>28.0</ns3:atemp>
            <ns3:hr>92</ns3:hr>
          </ns3:TrackPointExtension>
        </extensions>
      </trkpt>
      <trkpt lat="36.81467718444764614105224609375" lon="-118.430530093610286712646484375">
        <ele>3383.199951171875</ele>
        <time>2021-06-26T21:14:04.000Z</time>
        <extensions>
          <ns3:TrackPointExtension>
            <ns3:atemp>28.0</ns3:atemp>
            <ns3:hr>93</ns3:hr>
          </ns3:TrackPointExtension>
        </extensions>
      </trkpt>
      <trkpt lat="36.8146928586065769195556640625" lon="-118.430516012012958526611328125">
        <ele>3382.60009765625</ele>
        <time>2021-06-26T21:14:07.000Z</time>
        <extensions>
          <ns3:TrackPointExtension>
            <ns3:atemp>28.0</ns3:atemp>
            <ns3:hr>94</ns3:hr>
          </ns3:TrackPointExtension>
        </extensions>
      </trkpt>
      <trkpt lat="36.81471775285899639129638671875" lon="-118.43049832619726657867431640625">
        <ele>3381.800048828125</ele>
        <time>2021-06-26T21:14:11.000Z</time>
        <extensions>
          <ns3:TrackPointExtension>
            <ns3:atemp>28.0</ns3:atemp>
            <ns3:hr>91</ns3:hr>
          </ns3:TrackPointExtension>
        </extensions>
      </trkpt>
      <trkpt lat="36.8147216923534870147705078125" lon="-118.43049162067472934722900390625">
        <ele>3381.39990234375</ele>
        <time>2021-06-26T21:14:12.000Z</time>
        <extensions>
          <ns3:TrackPointExtension>
            <ns3:atemp>28.0</ns3:atemp>
            <ns3:hr>91</ns3:hr>
          </ns3:TrackPointExtension>
        </extensions>
      </trkpt>
      <trkpt lat="36.81473686359822750091552734375" lon="-118.43046043999493122100830078125">
        <ele>3380.800048828125</ele>
        <time>2021-06-26T21:14:16.000Z</time>
        <extensions>
          <ns3:TrackPointExtension>
            <ns3:atemp>28.0</ns3:atemp>
            <ns3:hr>94</ns3:hr>
          </ns3:TrackPointExtension>
        </extensions>
      </trkpt>
      <trkpt lat="36.814738623797893524169921875" lon="-118.43044971115887165069580078125">
        <ele>3380.800048828125</ele>
        <time>2021-06-26T21:14:17.000Z</time>
        <extensions>
          <ns3:TrackPointExtension>
            <ns3:atemp>28.0</ns3:atemp>
            <ns3:hr>91</ns3:hr>
          </ns3:TrackPointExtension>
        </extensions>
      </trkpt>
      <trkpt lat="36.81473954580724239349365234375" lon="-118.43043948523700237274169921875">
        <ele>3380.39990234375</ele>
        <time>2021-06-26T21:14:18.000Z</time>
        <extensions>
          <ns3:TrackPointExtension>
            <ns3:atemp>28.0</ns3:atemp>
            <ns3:hr>91</ns3:hr>
          </ns3:TrackPointExtension>
        </extensions>
      </trkpt>
      <trkpt lat="36.81472814641892910003662109375" lon="-118.43042238615453243255615234375">
        <ele>3379.60009765625</ele>
        <time>2021-06-26T21:14:20.000Z</time>
        <extensions>
          <ns3:TrackPointExtension>
            <ns3:atemp>28.0</ns3:atemp>
            <ns3:hr>95</ns3:hr>
          </ns3:TrackPointExtension>
        </extensions>
      </trkpt>
      <trkpt lat="36.81472378782927989959716796875" lon="-118.4304169379174709320068359375">
        <ele>3379.39990234375</ele>
        <time>2021-06-26T21:14:21.000Z</time>
        <extensions>
          <ns3:TrackPointExtension>
            <ns3:atemp>28.0</ns3:atemp>
            <ns3:hr>95</ns3:hr>
          </ns3:TrackPointExtension>
        </extensions>
      </trkpt>
      <trkpt lat="36.81468606926500797271728515625" lon="-118.43040478415787220001220703125">
        <ele>3378.60009765625</ele>
        <time>2021-06-26T21:14:25.000Z</time>
        <extensions>
          <ns3:TrackPointExtension>
            <ns3:atemp>28.0</ns3:atemp>
            <ns3:hr>91</ns3:hr>
          </ns3:TrackPointExtension>
        </extensions>
      </trkpt>
      <trkpt lat="36.8146375380456447601318359375" lon="-118.4304011799395084381103515625">
        <ele>3379</ele>
        <time>2021-06-26T21:14:30.000Z</time>
        <extensions>
          <ns3:TrackPointExtension>
            <ns3:atemp>28.0</ns3:atemp>
            <ns3:hr>89</ns3:hr>
          </ns3:TrackPointExtension>
        </extensions>
      </trkpt>
      <trkpt lat="36.81459319777786731719970703125" lon="-118.4303944744169712066650390625">
        <ele>3379</ele>
        <time>2021-06-26T21:14:35.000Z</time>
        <extensions>
          <ns3:TrackPointExtension>
            <ns3:atemp>28.0</ns3:atemp>
            <ns3:hr>92</ns3:hr>
          </ns3:TrackPointExtension>
        </extensions>
      </trkpt>
      <trkpt lat="36.81457039900124073028564453125" lon="-118.43039707280695438385009765625">
        <ele>3379</ele>
        <time>2021-06-26T21:14:37.000Z</time>
        <extensions>
          <ns3:TrackPointExtension>
            <ns3:atemp>28.0</ns3:atemp>
            <ns3:hr>92</ns3:hr>
          </ns3:TrackPointExtension>
        </extensions>
      </trkpt>
      <trkpt lat="36.81453737430274486541748046875" lon="-118.43041970394551753997802734375">
        <ele>3379</ele>
        <time>2021-06-26T21:14:43.000Z</time>
        <extensions>
          <ns3:TrackPointExtension>
            <ns3:atemp>28.0</ns3:atemp>
            <ns3:hr>94</ns3:hr>
          </ns3:TrackPointExtension>
        </extensions>
      </trkpt>
      <trkpt lat="36.814518012106418609619140625" lon="-118.43043453991413116455078125">
        <ele>3379</ele>
        <time>2021-06-26T21:14:48.000Z</time>
        <extensions>
          <ns3:TrackPointExtension>
            <ns3:atemp>29.0</ns3:atemp>
            <ns3:hr>97</ns3:hr>
          </ns3:TrackPointExtension>
        </extensions>
      </trkpt>
      <trkpt lat="36.8145030923187732696533203125" lon="-118.43042490072548389434814453125">
        <ele>3378.800048828125</ele>
        <time>2021-06-26T21:14:50.000Z</time>
        <extensions>
          <ns3:TrackPointExtension>
            <ns3:atemp>29.0</ns3:atemp>
            <ns3:hr>98</ns3:hr>
          </ns3:TrackPointExtension>
        </extensions>
      </trkpt>
      <trkpt lat="36.81449345313012599945068359375" lon="-118.43042238615453243255615234375">
        <ele>3378.39990234375</ele>
        <time>2021-06-26T21:14:51.000Z</time>
        <extensions>
          <ns3:TrackPointExtension>
            <ns3:atemp>29.0</ns3:atemp>
            <ns3:hr>98</ns3:hr>
          </ns3:TrackPointExtension>
        </extensions>
      </trkpt>
      <trkpt lat="36.8144762702286243438720703125" lon="-118.4304095618426799774169921875">
        <ele>3377.800048828125</ele>
        <time>2021-06-26T21:14:54.000Z</time>
        <extensions>
          <ns3:TrackPointExtension>
            <ns3:atemp>29.0</ns3:atemp>
            <ns3:hr>99</ns3:hr>
          </ns3:TrackPointExtension>
        </extensions>
      </trkpt>
      <trkpt lat="36.8144457601010799407958984375" lon="-118.43039606697857379913330078125">
        <ele>3377.199951171875</ele>
        <time>2021-06-26T21:14:57.000Z</time>
        <extensions>
          <ns3:TrackPointExtension>
            <ns3:atemp>29.0</ns3:atemp>
            <ns3:hr>99</ns3:hr>
          </ns3:TrackPointExtension>
        </extensions>
      </trkpt>
      <trkpt lat="36.8144310079514980316162109375" lon="-118.430393971502780914306640625">
        <ele>3376.60009765625</ele>
        <time>2021-06-26T21:14:59.000Z</time>
        <extensions>
          <ns3:TrackPointExtension>
            <ns3:atemp>29.0</ns3:atemp>
            <ns3:hr>100</ns3:hr>
          </ns3:TrackPointExtension>
        </extensions>
      </trkpt>
      <trkpt lat="36.81442388333380222320556640625" lon="-118.43039120547473430633544921875">
        <ele>3376.60009765625</ele>
        <time>2021-06-26T21:15:00.000Z</time>
        <extensions>
          <ns3:TrackPointExtension>
            <ns3:atemp>29.0</ns3:atemp>
            <ns3:hr>100</ns3:hr>
          </ns3:TrackPointExtension>
        </extensions>
      </trkpt>
      <trkpt lat="36.814385913312435150146484375" lon="-118.43040369451045989990234375">
        <ele>3376.39990234375</ele>
        <time>2021-06-26T21:15:08.000Z</time>
        <extensions>
          <ns3:TrackPointExtension>
            <ns3:atemp>29.0</ns3:atemp>
            <ns3:hr>98</ns3:hr>
          </ns3:TrackPointExtension>
        </extensions>
      </trkpt>
      <trkpt lat="36.814380548894405364990234375" lon="-118.4304129146039485931396484375">
        <ele>3376.199951171875</ele>
        <time>2021-06-26T21:15:10.000Z</time>
        <extensions>
          <ns3:TrackPointExtension>
            <ns3:atemp>29.0</ns3:atemp>
            <ns3:hr>95</ns3:hr>
          </ns3:TrackPointExtension>
        </extensions>
      </trkpt>
      <trkpt lat="36.81436680257320404052734375" lon="-118.430433534085750579833984375">
        <ele>3375.39990234375</ele>
        <time>2021-06-26T21:15:13.000Z</time>
        <extensions>
          <ns3:TrackPointExtension>
            <ns3:atemp>29.0</ns3:atemp>
            <ns3:hr>92</ns3:hr>
          </ns3:TrackPointExtension>
        </extensions>
      </trkpt>
      <trkpt lat="36.81436236016452312469482421875" lon="-118.4304378926753997802734375">
        <ele>3375.199951171875</ele>
        <time>2021-06-26T21:15:14.000Z</time>
        <extensions>
          <ns3:TrackPointExtension>
            <ns3:atemp>29.0</ns3:atemp>
            <ns3:hr>89</ns3:hr>
          </ns3:TrackPointExtension>
        </extensions>
      </trkpt>
      <trkpt lat="36.81434811092913150787353515625" lon="-118.43044350855052471160888671875">
        <ele>3375</ele>
        <time>2021-06-26T21:15:17.000Z</time>
        <extensions>
          <ns3:TrackPointExtension>
            <ns3:atemp>29.0</ns3:atemp>
            <ns3:hr>84</ns3:hr>
          </ns3:TrackPointExtension>
        </extensions>
      </trkpt>
      <trkpt lat="36.81434459052979946136474609375" lon="-118.43044116161763668060302734375">
        <ele>3374.800048828125</ele>
        <time>2021-06-26T21:15:18.000Z</time>
        <extensions>
          <ns3:TrackPointExtension>
            <ns3:atemp>29.0</ns3:atemp>
            <ns3:hr>84</ns3:hr>
          </ns3:TrackPointExtension>
        </extensions>
      </trkpt>
      <trkpt lat="36.8143367953598499298095703125" lon="-118.430431187152862548828125">
        <ele>3374.39990234375</ele>
        <time>2021-06-26T21:15:20.000Z</time>
        <extensions>
          <ns3:TrackPointExtension>
            <ns3:atemp>29.0</ns3:atemp>
            <ns3:hr>82</ns3:hr>
          </ns3:TrackPointExtension>
        </extensions>
      </trkpt>
      <trkpt lat="36.81433168239891529083251953125" lon="-118.43040629290044307708740234375">
        <ele>3373.800048828125</ele>
        <time>2021-06-26T21:15:25.000Z</time>
        <extensions>
          <ns3:TrackPointExtension>
            <ns3:atemp>29.0</ns3:atemp>
            <ns3:hr>82</ns3:hr>
          </ns3:TrackPointExtension>
        </extensions>
      </trkpt>
      <trkpt lat="36.8143287487328052520751953125" lon="-118.43039774335920810699462890625">
        <ele>3373.39990234375</ele>
        <time>2021-06-26T21:15:27.000Z</time>
        <extensions>
          <ns3:TrackPointExtension>
            <ns3:atemp>29.0</ns3:atemp>
            <ns3:hr>83</ns3:hr>
          </ns3:TrackPointExtension>
        </extensions>
      </trkpt>
      <trkpt lat="36.81431542150676250457763671875" lon="-118.43038919381797313690185546875">
        <ele>3371.800048828125</ele>
        <time>2021-06-26T21:15:29.000Z</time>
        <extensions>
          <ns3:TrackPointExtension>
            <ns3:atemp>29.0</ns3:atemp>
            <ns3:hr>85</ns3:hr>
          </ns3:TrackPointExtension>
        </extensions>
      </trkpt>
      <trkpt lat="36.814308129251003265380859375" lon="-118.4303922951221466064453125">
        <ele>3371.199951171875</ele>
        <time>2021-06-26T21:15:31.000Z</time>
        <extensions>
          <ns3:TrackPointExtension>
            <ns3:atemp>29.0</ns3:atemp>
            <ns3:hr>85</ns3:hr>
          </ns3:TrackPointExtension>
        </extensions>
      </trkpt>
      <trkpt lat="36.81431843899190425872802734375" lon="-118.4303963184356689453125">
        <ele>3371</ele>
        <time>2021-06-26T21:15:41.000Z</time>
        <extensions>
          <ns3:TrackPointExtension>
            <ns3:atemp>29.0</ns3:atemp>
            <ns3:hr>89</ns3:hr>
          </ns3:TrackPointExtension>
        </extensions>
      </trkpt>
      <trkpt lat="36.81432229466736316680908203125" lon="-118.4303976595401763916015625">
        <ele>3371.199951171875</ele>
        <time>2021-06-26T21:15:44.000Z</time>
        <extensions>
          <ns3:TrackPointExtension>
            <ns3:atemp>29.0</ns3:atemp>
            <ns3:hr>93</ns3:hr>
          </ns3:TrackPointExtension>
        </extensions>
      </trkpt>
      <trkpt lat="36.8143257312476634979248046875" lon="-118.43040511943399906158447265625">
        <ele>3371</ele>
        <time>2021-06-26T21:15:47.000Z</time>
        <extensions>
          <ns3:TrackPointExtension>
            <ns3:atemp>29.0</ns3:atemp>
            <ns3:hr>95</ns3:hr>
          </ns3:TrackPointExtension>
        </extensions>
      </trkpt>
      <trkpt lat="36.8143270723521709442138671875" lon="-118.430406711995601654052734375">
        <ele>3370.60009765625</ele>
        <time>2021-06-26T21:15:49.000Z</time>
        <extensions>
          <ns3:TrackPointExtension>
            <ns3:atemp>29.0</ns3:atemp>
            <ns3:hr>96</ns3:hr>
          </ns3:TrackPointExtension>
        </extensions>
      </trkpt>
      <trkpt lat="36.8143287487328052520751953125" lon="-118.430406711995601654052734375">
        <ele>3369.60009765625</ele>
        <time>2021-06-26T21:15:52.000Z</time>
        <extensions>
          <ns3:TrackPointExtension>
            <ns3:atemp>29.0</ns3:atemp>
            <ns3:hr>97</ns3:hr>
          </ns3:TrackPointExtension>
        </extensions>
      </trkpt>
      <trkpt lat="36.814327239990234375" lon="-118.43040528707206249237060546875">
        <ele>3368.60009765625</ele>
        <time>2021-06-26T21:15:58.000Z</time>
        <extensions>
          <ns3:TrackPointExtension>
            <ns3:atemp>29.0</ns3:atemp>
            <ns3:hr>95</ns3:hr>
          </ns3:TrackPointExtension>
        </extensions>
      </trkpt>
      <trkpt lat="36.81432715617120265960693359375" lon="-118.43040444888174533843994140625">
        <ele>3367.39990234375</ele>
        <time>2021-06-26T21:16:06.000Z</time>
        <extensions>
          <ns3:TrackPointExtension>
            <ns3:atemp>29.0</ns3:atemp>
            <ns3:hr>96</ns3:hr>
          </ns3:TrackPointExtension>
        </extensions>
      </trkpt>
      <trkpt lat="36.814315505325794219970703125" lon="-118.4303897805511951446533203125">
        <ele>3366</ele>
        <time>2021-06-26T21:16:12.000Z</time>
        <extensions>
          <ns3:TrackPointExtension>
            <ns3:atemp>29.0</ns3:atemp>
            <ns3:hr>96</ns3:hr>
          </ns3:TrackPointExtension>
        </extensions>
      </trkpt>
      <trkpt lat="36.81431072764098644256591796875" lon="-118.43038869090378284454345703125">
        <ele>3365.800048828125</ele>
        <time>2021-06-26T21:16:14.000Z</time>
        <extensions>
          <ns3:TrackPointExtension>
            <ns3:atemp>29.0</ns3:atemp>
            <ns3:hr>95</ns3:hr>
          </ns3:TrackPointExtension>
        </extensions>
      </trkpt>
      <trkpt lat="36.8143032677471637725830078125" lon="-118.4303842484951019287109375">
        <ele>3365</ele>
        <time>2021-06-26T21:16:18.000Z</time>
        <extensions>
          <ns3:TrackPointExtension>
            <ns3:atemp>29.0</ns3:atemp>
            <ns3:hr>93</ns3:hr>
          </ns3:TrackPointExtension>
        </extensions>
      </trkpt>
      <trkpt lat="36.81428943760693073272705078125" lon="-118.430373854935169219970703125">
        <ele>3363.800048828125</ele>
        <time>2021-06-26T21:16:23.000Z</time>
        <extensions>
          <ns3:TrackPointExtension>
            <ns3:atemp>29.0</ns3:atemp>
            <ns3:hr>93</ns3:hr>
          </ns3:TrackPointExtension>
        </extensions>
      </trkpt>
      <trkpt lat="36.81422405876219272613525390625" lon="-118.430353067815303802490234375">
        <ele>3362.800048828125</ele>
        <time>2021-06-26T21:16:29.000Z</time>
        <extensions>
          <ns3:TrackPointExtension>
            <ns3:atemp>29.0</ns3:atemp>
            <ns3:hr>89</ns3:hr>
          </ns3:TrackPointExtension>
        </extensions>
      </trkpt>
      <trkpt lat="36.8141932971775531768798828125" lon="-118.43034468591213226318359375">
        <ele>3362.60009765625</ele>
        <time>2021-06-26T21:16:31.000Z</time>
        <extensions>
          <ns3:TrackPointExtension>
            <ns3:atemp>29.0</ns3:atemp>
            <ns3:hr>91</ns3:hr>
          </ns3:TrackPointExtension>
        </extensions>
      </trkpt>
      <trkpt lat="36.81416236795485019683837890625" lon="-118.430348373949527740478515625">
        <ele>3362.199951171875</ele>
        <time>2021-06-26T21:16:35.000Z</time>
        <extensions>
          <ns3:TrackPointExtension>
            <ns3:atemp>29.0</ns3:atemp>
            <ns3:hr>87</ns3:hr>
          </ns3:TrackPointExtension>
        </extensions>
      </trkpt>
      <trkpt lat="36.8141778744757175445556640625" lon="-118.4303735196590423583984375">
        <ele>3362.39990234375</ele>
        <time>2021-06-26T21:16:37.000Z</time>
        <extensions>
          <ns3:TrackPointExtension>
            <ns3:atemp>29.0</ns3:atemp>
            <ns3:hr>86</ns3:hr>
          </ns3:TrackPointExtension>
        </extensions>
      </trkpt>
      <trkpt lat="36.81418349035084247589111328125" lon="-118.4303800575435161590576171875">
        <ele>3362.39990234375</ele>
        <time>2021-06-26T21:16:41.000Z</time>
        <extensions>
          <ns3:TrackPointExtension>
            <ns3:atemp>29.0</ns3:atemp>
            <ns3:hr>83</ns3:hr>
          </ns3:TrackPointExtension>
        </extensions>
      </trkpt>
      <trkpt lat="36.81418349035084247589111328125" lon="-118.4303800575435161590576171875">
        <ele>3362.199951171875</ele>
        <time>2021-06-26T21:16:50.000Z</time>
        <extensions>
          <ns3:TrackPointExtension>
            <ns3:atemp>29.0</ns3:atemp>
            <ns3:hr>86</ns3:hr>
          </ns3:TrackPointExtension>
        </extensions>
      </trkpt>
      <trkpt lat="36.81418349035084247589111328125" lon="-118.4303800575435161590576171875">
        <ele>3362</ele>
        <time>2021-06-26T21:16:53.000Z</time>
        <extensions>
          <ns3:TrackPointExtension>
            <ns3:atemp>29.0</ns3:atemp>
            <ns3:hr>86</ns3:hr>
          </ns3:TrackPointExtension>
        </extensions>
      </trkpt>
      <trkpt lat="36.81418349035084247589111328125" lon="-118.43038081191480159759521484375">
        <ele>3362</ele>
        <time>2021-06-26T21:16:58.000Z</time>
        <extensions>
          <ns3:TrackPointExtension>
            <ns3:atemp>29.0</ns3:atemp>
            <ns3:hr>83</ns3:hr>
          </ns3:TrackPointExtension>
        </extensions>
      </trkpt>
      <trkpt lat="36.81417829357087612152099609375" lon="-118.4303817339241504669189453125">
        <ele>3361.800048828125</ele>
        <time>2021-06-26T21:17:00.000Z</time>
        <extensions>
          <ns3:TrackPointExtension>
            <ns3:atemp>29.0</ns3:atemp>
            <ns3:hr>83</ns3:hr>
          </ns3:TrackPointExtension>
        </extensions>
      </trkpt>
      <trkpt lat="36.8140964023768901824951171875" lon="-118.43040964566171169281005859375">
        <ele>3361.199951171875</ele>
        <time>2021-06-26T21:17:05.000Z</time>
        <extensions>
          <ns3:TrackPointExtension>
            <ns3:atemp>29.0</ns3:atemp>
            <ns3:hr>83</ns3:hr>
          </ns3:TrackPointExtension>
        </extensions>
      </trkpt>
      <trkpt lat="36.81402909569442272186279296875" lon="-118.43042439781129360198974609375">
        <ele>3361</ele>
        <time>2021-06-26T21:17:09.000Z</time>
        <extensions>
          <ns3:TrackPointExtension>
            <ns3:atemp>29.0</ns3:atemp>
            <ns3:hr>80</ns3:hr>
          </ns3:TrackPointExtension>
        </extensions>
      </trkpt>
      <trkpt lat="36.81400042958557605743408203125" lon="-118.43041844666004180908203125">
        <ele>3360.39990234375</ele>
        <time>2021-06-26T21:17:11.000Z</time>
        <extensions>
          <ns3:TrackPointExtension>
            <ns3:atemp>29.0</ns3:atemp>
            <ns3:hr>82</ns3:hr>
          </ns3:TrackPointExtension>
        </extensions>
      </trkpt>
      <trkpt lat="36.81398366577923297882080078125" lon="-118.4304102323949337005615234375">
        <ele>3360</ele>
        <time>2021-06-26T21:17:13.000Z</time>
        <extensions>
          <ns3:TrackPointExtension>
            <ns3:atemp>29.0</ns3:atemp>
            <ns3:hr>81</ns3:hr>
          </ns3:TrackPointExtension>
        </extensions>
      </trkpt>
      <trkpt lat="36.81392717175185680389404296875" lon="-118.43040025793015956878662109375">
        <ele>3359.60009765625</ele>
        <time>2021-06-26T21:17:19.000Z</time>
        <extensions>
          <ns3:TrackPointExtension>
            <ns3:atemp>29.0</ns3:atemp>
            <ns3:hr>79</ns3:hr>
          </ns3:TrackPointExtension>
        </extensions>
      </trkpt>
      <trkpt lat="36.8139217235147953033447265625" lon="-118.43040394596755504608154296875">
        <ele>3359.60009765625</ele>
        <time>2021-06-26T21:17:21.000Z</time>
        <extensions>
          <ns3:TrackPointExtension>
            <ns3:atemp>29.0</ns3:atemp>
            <ns3:hr>80</ns3:hr>
          </ns3:TrackPointExtension>
        </extensions>
      </trkpt>
      <trkpt lat="36.81391929276287555694580078125" lon="-118.43040377832949161529541015625">
        <ele>3359.60009765625</ele>
        <time>2021-06-26T21:17:23.000Z</time>
        <extensions>
          <ns3:TrackPointExtension>
            <ns3:atemp>29.0</ns3:atemp>
            <ns3:hr>78</ns3:hr>
          </ns3:TrackPointExtension>
        </extensions>
      </trkpt>
      <trkpt lat="36.81390940211713314056396484375" lon="-118.4304068796336650848388671875">
        <ele>3359.60009765625</ele>
        <time>2021-06-26T21:17:25.000Z</time>
        <extensions>
          <ns3:TrackPointExtension>
            <ns3:atemp>29.0</ns3:atemp>
            <ns3:hr>78</ns3:hr>
          </ns3:TrackPointExtension>
        </extensions>
      </trkpt>
      <trkpt lat="36.8139066360890865325927734375" lon="-118.43041048385202884674072265625">
        <ele>3359.60009765625</ele>
        <time>2021-06-26T21:17:26.000Z</time>
        <extensions>
          <ns3:TrackPointExtension>
            <ns3:atemp>29.0</ns3:atemp>
            <ns3:hr>77</ns3:hr>
          </ns3:TrackPointExtension>
        </extensions>
      </trkpt>
      <trkpt lat="36.81390588171780109405517578125" lon="-118.430410735309123992919921875">
        <ele>3359.39990234375</ele>
        <time>2021-06-26T21:17:27.000Z</time>
        <extensions>
          <ns3:TrackPointExtension>
            <ns3:atemp>29.0</ns3:atemp>
            <ns3:hr>77</ns3:hr>
          </ns3:TrackPointExtension>
        </extensions>
      </trkpt>
      <trkpt lat="36.81390437297523021697998046875" lon="-118.430408723652362823486328125">
        <ele>3359.199951171875</ele>
        <time>2021-06-26T21:17:28.000Z</time>
        <extensions>
          <ns3:TrackPointExtension>
            <ns3:atemp>29.0</ns3:atemp>
            <ns3:hr>77</ns3:hr>
          </ns3:TrackPointExtension>
        </extensions>
      </trkpt>
      <trkpt lat="36.813900433480739593505859375" lon="-118.4303991682827472686767578125">
        <ele>3359.199951171875</ele>
        <time>2021-06-26T21:17:30.000Z</time>
        <extensions>
          <ns3:TrackPointExtension>
            <ns3:atemp>29.0</ns3:atemp>
            <ns3:hr>77</ns3:hr>
          </ns3:TrackPointExtension>
        </extensions>
      </trkpt>
      <trkpt lat="36.8139096535742282867431640625" lon="-118.4303961507976055145263671875">
        <ele>3359</ele>
        <time>2021-06-26T21:17:32.000Z</time>
        <extensions>
          <ns3:TrackPointExtension>
            <ns3:atemp>29.0</ns3:atemp>
            <ns3:hr>78</ns3:hr>
          </ns3:TrackPointExtension>
        </extensions>
      </trkpt>
      <trkpt lat="36.8139180354773998260498046875" lon="-118.4303995035588741302490234375">
        <ele>3359</ele>
        <time>2021-06-26T21:17:35.000Z</time>
        <extensions>
          <ns3:TrackPointExtension>
            <ns3:atemp>29.0</ns3:atemp>
            <ns3:hr>81</ns3:hr>
          </ns3:TrackPointExtension>
        </extensions>
      </trkpt>
      <trkpt lat="36.8139180354773998260498046875" lon="-118.4303995035588741302490234375">
        <ele>3359</ele>
        <time>2021-06-26T21:17:39.000Z</time>
        <extensions>
          <ns3:TrackPointExtension>
            <ns3:atemp>29.0</ns3:atemp>
            <ns3:hr>83</ns3:hr>
          </ns3:TrackPointExtension>
        </extensions>
      </trkpt>
      <trkpt lat="36.8139180354773998260498046875" lon="-118.4303995035588741302490234375">
        <ele>3359</ele>
        <time>2021-06-26T21:17:41.000Z</time>
        <extensions>
          <ns3:TrackPointExtension>
            <ns3:atemp>29.0</ns3:atemp>
            <ns3:hr>86</ns3:hr>
          </ns3:TrackPointExtension>
        </extensions>
      </trkpt>
      <trkpt lat="36.81395449675619602203369140625" lon="-118.430408053100109100341796875">
        <ele>3358.800048828125</ele>
        <time>2021-06-26T21:17:47.000Z</time>
        <extensions>
          <ns3:TrackPointExtension>
            <ns3:atemp>29.0</ns3:atemp>
            <ns3:hr>89</ns3:hr>
          </ns3:TrackPointExtension>
        </extensions>
      </trkpt>
      <trkpt lat="36.81397830136120319366455078125" lon="-118.4304098971188068389892578125">
        <ele>3358.800048828125</ele>
        <time>2021-06-26T21:17:49.000Z</time>
        <extensions>
          <ns3:TrackPointExtension>
            <ns3:atemp>29.0</ns3:atemp>
            <ns3:hr>89</ns3:hr>
          </ns3:TrackPointExtension>
        </extensions>
      </trkpt>
      <trkpt lat="36.814006380736827850341796875" lon="-118.43040562234818935394287109375">
        <ele>3358.199951171875</ele>
        <time>2021-06-26T21:17:54.000Z</time>
        <extensions>
          <ns3:TrackPointExtension>
            <ns3:atemp>29.0</ns3:atemp>
            <ns3:hr>91</ns3:hr>
          </ns3:TrackPointExtension>
        </extensions>
      </trkpt>
      <trkpt lat="36.8140132538974285125732421875" lon="-118.43039589934051036834716796875">
        <ele>3357.39990234375</ele>
        <time>2021-06-26T21:17:59.000Z</time>
        <extensions>
          <ns3:TrackPointExtension>
            <ns3:atemp>29.0</ns3:atemp>
            <ns3:hr>90</ns3:hr>
          </ns3:TrackPointExtension>
        </extensions>
      </trkpt>
      <trkpt lat="36.814017780125141143798828125" lon="-118.430365808308124542236328125">
        <ele>3356.60009765625</ele>
        <time>2021-06-26T21:18:05.000Z</time>
        <extensions>
          <ns3:TrackPointExtension>
            <ns3:atemp>29.0</ns3:atemp>
            <ns3:hr>91</ns3:hr>
          </ns3:TrackPointExtension>
        </extensions>
      </trkpt>
      <trkpt lat="36.8140192888677120208740234375" lon="-118.43036706559360027313232421875">
        <ele>3356.39990234375</ele>
        <time>2021-06-26T21:18:09.000Z</time>
        <extensions>
          <ns3:TrackPointExtension>
            <ns3:atemp>29.0</ns3:atemp>
            <ns3:hr>91</ns3:hr>
          </ns3:TrackPointExtension>
        </extensions>
      </trkpt>
      <trkpt lat="36.81401568464934825897216796875" lon="-118.43037494458258152008056640625">
        <ele>3355.60009765625</ele>
        <time>2021-06-26T21:18:20.000Z</time>
        <extensions>
          <ns3:TrackPointExtension>
            <ns3:atemp>30.0</ns3:atemp>
            <ns3:hr>96</ns3:hr>
          </ns3:TrackPointExtension>
        </extensions>
      </trkpt>
      <trkpt lat="36.81401275098323822021484375" lon="-118.43037561513483524322509765625">
        <ele>3354.60009765625</ele>
        <time>2021-06-26T21:18:22.000Z</time>
        <extensions>
          <ns3:TrackPointExtension>
            <ns3:atemp>30.0</ns3:atemp>
            <ns3:hr>96</ns3:hr>
          </ns3:TrackPointExtension>
        </extensions>
      </trkpt>
      <trkpt lat="36.81401199661195278167724609375" lon="-118.43037578277289867401123046875">
        <ele>3354.60009765625</ele>
        <time>2021-06-26T21:18:23.000Z</time>
        <extensions>
          <ns3:TrackPointExtension>
            <ns3:atemp>30.0</ns3:atemp>
            <ns3:hr>98</ns3:hr>
          </ns3:TrackPointExtension>
        </extensions>
      </trkpt>
      <trkpt lat="36.81400747038424015045166015625" lon="-118.4303800575435161590576171875">
        <ele>3353.39990234375</ele>
        <time>2021-06-26T21:18:34.000Z</time>
        <extensions>
          <ns3:TrackPointExtension>
            <ns3:atemp>30.0</ns3:atemp>
            <ns3:hr>97</ns3:hr>
          </ns3:TrackPointExtension>
        </extensions>
      </trkpt>
      <trkpt lat="36.813991963863372802734375" lon="-118.4303850866854190826416015625">
        <ele>3352.199951171875</ele>
        <time>2021-06-26T21:18:40.000Z</time>
        <extensions>
          <ns3:TrackPointExtension>
            <ns3:atemp>30.0</ns3:atemp>
            <ns3:hr>96</ns3:hr>
          </ns3:TrackPointExtension>
        </extensions>
      </trkpt>
      <trkpt lat="36.81396975181996822357177734375" lon="-118.43038533814251422882080078125">
        <ele>3351.199951171875</ele>
        <time>2021-06-26T21:18:44.000Z</time>
        <extensions>
          <ns3:TrackPointExtension>
            <ns3:atemp>30.0</ns3:atemp>
            <ns3:hr>97</ns3:hr>
          </ns3:TrackPointExtension>
        </extensions>
      </trkpt>
      <trkpt lat="36.813941337168216705322265625" lon="-118.43037360347807407379150390625">
        <ele>3350.199951171875</ele>
        <time>2021-06-26T21:18:47.000Z</time>
        <extensions>
          <ns3:TrackPointExtension>
            <ns3:atemp>30.0</ns3:atemp>
            <ns3:hr>100</ns3:hr>
          </ns3:TrackPointExtension>
        </extensions>
      </trkpt>
      <trkpt lat="36.8139287643134593963623046875" lon="-118.4303669817745685577392578125">
        <ele>3350</ele>
        <time>2021-06-26T21:18:48.000Z</time>
        <extensions>
          <ns3:TrackPointExtension>
            <ns3:atemp>30.0</ns3:atemp>
            <ns3:hr>100</ns3:hr>
          </ns3:TrackPointExtension>
        </extensions>
      </trkpt>
      <trkpt lat="36.81389766745269298553466796875" lon="-118.43034493736922740936279296875">
        <ele>3349</ele>
        <time>2021-06-26T21:18:52.000Z</time>
        <extensions>
          <ns3:TrackPointExtension>
            <ns3:atemp>30.0</ns3:atemp>
            <ns3:hr>100</ns3:hr>
          </ns3:TrackPointExtension>
        </extensions>
      </trkpt>
      <trkpt lat="36.81389649398624897003173828125" lon="-118.43034175224602222442626953125">
        <ele>3348.800048828125</ele>
        <time>2021-06-26T21:18:53.000Z</time>
        <extensions>
          <ns3:TrackPointExtension>
            <ns3:atemp>30.0</ns3:atemp>
            <ns3:hr>99</ns3:hr>
          </ns3:TrackPointExtension>
        </extensions>
      </trkpt>
      <trkpt lat="36.813902445137500762939453125" lon="-118.43032498843967914581298828125">
        <ele>3348.39990234375</ele>
        <time>2021-06-26T21:18:56.000Z</time>
        <extensions>
          <ns3:TrackPointExtension>
            <ns3:atemp>30.0</ns3:atemp>
            <ns3:hr>96</ns3:hr>
          </ns3:TrackPointExtension>
        </extensions>
      </trkpt>
      <trkpt lat="36.81390814483165740966796875" lon="-118.43031191267073154449462890625">
        <ele>3347.60009765625</ele>
        <time>2021-06-26T21:18:58.000Z</time>
        <extensions>
          <ns3:TrackPointExtension>
            <ns3:atemp>30.0</ns3:atemp>
            <ns3:hr>96</ns3:hr>
          </ns3:TrackPointExtension>
        </extensions>
      </trkpt>
      <trkpt lat="36.8139130063354969024658203125" lon="-118.43030721880495548248291015625">
        <ele>3347.199951171875</ele>
        <time>2021-06-26T21:18:59.000Z</time>
        <extensions>
          <ns3:TrackPointExtension>
            <ns3:atemp>30.0</ns3:atemp>
            <ns3:hr>97</ns3:hr>
          </ns3:TrackPointExtension>
        </extensions>
      </trkpt>
      <trkpt lat="36.81392960250377655029296875" lon="-118.4303062967956066131591796875">
        <ele>3346.199951171875</ele>
        <time>2021-06-26T21:19:02.000Z</time>
        <extensions>
          <ns3:TrackPointExtension>
            <ns3:atemp>30.0</ns3:atemp>
            <ns3:hr>97</ns3:hr>
          </ns3:TrackPointExtension>
        </extensions>
      </trkpt>
      <trkpt lat="36.81391962803900241851806640625" lon="-118.43027763068675994873046875">
        <ele>3345.199951171875</ele>
        <time>2021-06-26T21:19:07.000Z</time>
        <extensions>
          <ns3:TrackPointExtension>
            <ns3:atemp>30.0</ns3:atemp>
            <ns3:hr>98</ns3:hr>
          </ns3:TrackPointExtension>
        </extensions>
      </trkpt>
      <trkpt lat="36.81389833800494670867919921875" lon="-118.43025776557624340057373046875">
        <ele>3345</ele>
        <time>2021-06-26T21:19:10.000Z</time>
        <extensions>
          <ns3:TrackPointExtension>
            <ns3:atemp>30.0</ns3:atemp>
            <ns3:hr>99</ns3:hr>
          </ns3:TrackPointExtension>
        </extensions>
      </trkpt>
      <trkpt lat="36.81386162526905536651611328125" lon="-118.43022792600095272064208984375">
        <ele>3344</ele>
        <time>2021-06-26T21:19:15.000Z</time>
        <extensions>
          <ns3:TrackPointExtension>
            <ns3:atemp>30.0</ns3:atemp>
            <ns3:hr>100</ns3:hr>
          </ns3:TrackPointExtension>
        </extensions>
      </trkpt>
      <trkpt lat="36.8138860166072845458984375" lon="-118.43021334148943424224853515625">
        <ele>3342.800048828125</ele>
        <time>2021-06-26T21:19:20.000Z</time>
        <extensions>
          <ns3:TrackPointExtension>
            <ns3:atemp>30.0</ns3:atemp>
            <ns3:hr>98</ns3:hr>
          </ns3:TrackPointExtension>
        </extensions>
      </trkpt>
      <trkpt lat="36.81389045901596546173095703125" lon="-118.43020898289978504180908203125">
        <ele>3342.60009765625</ele>
        <time>2021-06-26T21:19:21.000Z</time>
        <extensions>
          <ns3:TrackPointExtension>
            <ns3:atemp>30.0</ns3:atemp>
            <ns3:hr>98</ns3:hr>
          </ns3:TrackPointExtension>
        </extensions>
      </trkpt>
      <trkpt lat="36.81390051729977130889892578125" lon="-118.4302003495395183563232421875">
        <ele>3342.39990234375</ele>
        <time>2021-06-26T21:19:23.000Z</time>
        <extensions>
          <ns3:TrackPointExtension>
            <ns3:atemp>30.0</ns3:atemp>
            <ns3:hr>95</ns3:hr>
          </ns3:TrackPointExtension>
        </extensions>
      </trkpt>
      <trkpt lat="36.8139022774994373321533203125" lon="-118.4301923029124736785888671875">
        <ele>3342.39990234375</ele>
        <time>2021-06-26T21:19:24.000Z</time>
        <extensions>
          <ns3:TrackPointExtension>
            <ns3:atemp>30.0</ns3:atemp>
            <ns3:hr>95</ns3:hr>
          </ns3:TrackPointExtension>
        </extensions>
      </trkpt>
      <trkpt lat="36.813919879496097564697265625" lon="-118.43018266372382640838623046875">
        <ele>3341.60009765625</ele>
        <time>2021-06-26T21:19:27.000Z</time>
        <extensions>
          <ns3:TrackPointExtension>
            <ns3:atemp>30.0</ns3:atemp>
            <ns3:hr>96</ns3:hr>
          </ns3:TrackPointExtension>
        </extensions>
      </trkpt>
      <trkpt lat="36.8139321170747280120849609375" lon="-118.43017679639160633087158203125">
        <ele>3341.39990234375</ele>
        <time>2021-06-26T21:19:29.000Z</time>
        <extensions>
          <ns3:TrackPointExtension>
            <ns3:atemp>30.0</ns3:atemp>
            <ns3:hr>95</ns3:hr>
          </ns3:TrackPointExtension>
        </extensions>
      </trkpt>
      <trkpt lat="36.8139418400824069976806640625" lon="-118.43016925267875194549560546875">
        <ele>3340.60009765625</ele>
        <time>2021-06-26T21:19:31.000Z</time>
        <extensions>
          <ns3:TrackPointExtension>
            <ns3:atemp>30.0</ns3:atemp>
            <ns3:hr>95</ns3:hr>
          </ns3:TrackPointExtension>
        </extensions>
      </trkpt>
      <trkpt lat="36.81394460611045360565185546875" lon="-118.43016288243234157562255859375">
        <ele>3340.39990234375</ele>
        <time>2021-06-26T21:19:32.000Z</time>
        <extensions>
          <ns3:TrackPointExtension>
            <ns3:atemp>30.0</ns3:atemp>
            <ns3:hr>94</ns3:hr>
          </ns3:TrackPointExtension>
        </extensions>
      </trkpt>
      <trkpt lat="36.81396824307739734649658203125" lon="-118.43014796264469623565673828125">
        <ele>3339.800048828125</ele>
        <time>2021-06-26T21:19:36.000Z</time>
        <extensions>
          <ns3:TrackPointExtension>
            <ns3:atemp>30.0</ns3:atemp>
            <ns3:hr>96</ns3:hr>
          </ns3:TrackPointExtension>
        </extensions>
      </trkpt>
      <trkpt lat="36.81397696025669574737548828125" lon="-118.43014142476022243499755859375">
        <ele>3339.60009765625</ele>
        <time>2021-06-26T21:19:37.000Z</time>
        <extensions>
          <ns3:TrackPointExtension>
            <ns3:atemp>30.0</ns3:atemp>
            <ns3:hr>94</ns3:hr>
          </ns3:TrackPointExtension>
        </extensions>
      </trkpt>
      <trkpt lat="36.81399472989141941070556640625" lon="-118.4301262535154819488525390625">
        <ele>3338.800048828125</ele>
        <time>2021-06-26T21:19:40.000Z</time>
        <extensions>
          <ns3:TrackPointExtension>
            <ns3:atemp>30.0</ns3:atemp>
            <ns3:hr>94</ns3:hr>
          </ns3:TrackPointExtension>
        </extensions>
      </trkpt>
      <trkpt lat="36.81399825029075145721435546875" lon="-118.43012784607708454132080078125">
        <ele>3338.60009765625</ele>
        <time>2021-06-26T21:19:41.000Z</time>
        <extensions>
          <ns3:TrackPointExtension>
            <ns3:atemp>30.0</ns3:atemp>
            <ns3:hr>94</ns3:hr>
          </ns3:TrackPointExtension>
        </extensions>
      </trkpt>
      <trkpt lat="36.81400411762297153472900390625" lon="-118.43011879362165927886962890625">
        <ele>3338.39990234375</ele>
        <time>2021-06-26T21:19:43.000Z</time>
        <extensions>
          <ns3:TrackPointExtension>
            <ns3:atemp>29.0</ns3:atemp>
            <ns3:hr>95</ns3:hr>
          </ns3:TrackPointExtension>
        </extensions>
      </trkpt>
      <trkpt lat="36.81402591057121753692626953125" lon="-118.4301001019775867462158203125">
        <ele>3338</ele>
        <time>2021-06-26T21:19:46.000Z</time>
        <extensions>
          <ns3:TrackPointExtension>
            <ns3:atemp>29.0</ns3:atemp>
            <ns3:hr>97</ns3:hr>
          </ns3:TrackPointExtension>
        </extensions>
      </trkpt>
      <trkpt lat="36.81404116563498973846435546875" lon="-118.430070765316486358642578125">
        <ele>3337.800048828125</ele>
        <time>2021-06-26T21:19:50.000Z</time>
        <extensions>
          <ns3:TrackPointExtension>
            <ns3:atemp>30.0</ns3:atemp>
            <ns3:hr>96</ns3:hr>
          </ns3:TrackPointExtension>
        </extensions>
      </trkpt>
      <trkpt lat="36.81404200382530689239501953125" lon="-118.43005232512950897216796875">
        <ele>3337.60009765625</ele>
        <time>2021-06-26T21:19:52.000Z</time>
        <extensions>
          <ns3:TrackPointExtension>
            <ns3:atemp>30.0</ns3:atemp>
            <ns3:hr>97</ns3:hr>
          </ns3:TrackPointExtension>
        </extensions>
      </trkpt>
      <trkpt lat="36.81403513066470623016357421875" lon="-118.43003229238092899322509765625">
        <ele>3336.39990234375</ele>
        <time>2021-06-26T21:19:54.000Z</time>
        <extensions>
          <ns3:TrackPointExtension>
            <ns3:atemp>30.0</ns3:atemp>
            <ns3:hr>95</ns3:hr>
          </ns3:TrackPointExtension>
        </extensions>
      </trkpt>
      <trkpt lat="36.81404250673949718475341796875" lon="-118.43002147972583770751953125">
        <ele>3336.199951171875</ele>
        <time>2021-06-26T21:19:57.000Z</time>
        <extensions>
          <ns3:TrackPointExtension>
            <ns3:atemp>29.0</ns3:atemp>
            <ns3:hr>99</ns3:hr>
          </ns3:TrackPointExtension>
        </extensions>
      </trkpt>
      <trkpt lat="36.81404904462397098541259765625" lon="-118.43001653440296649932861328125">
        <ele>3335.60009765625</ele>
        <time>2021-06-26T21:19:58.000Z</time>
        <extensions>
          <ns3:TrackPointExtension>
            <ns3:atemp>30.0</ns3:atemp>
            <ns3:hr>97</ns3:hr>
          </ns3:TrackPointExtension>
        </extensions>
      </trkpt>
      <trkpt lat="36.8140662275254726409912109375" lon="-118.43000882305204868316650390625">
        <ele>3335.199951171875</ele>
        <time>2021-06-26T21:20:01.000Z</time>
        <extensions>
          <ns3:TrackPointExtension>
            <ns3:atemp>29.0</ns3:atemp>
            <ns3:hr>96</ns3:hr>
          </ns3:TrackPointExtension>
        </extensions>
      </trkpt>
      <trkpt lat="36.81408173404633998870849609375" lon="-118.43002206645905971527099609375">
        <ele>3334.800048828125</ele>
        <time>2021-06-26T21:20:04.000Z</time>
        <extensions>
          <ns3:TrackPointExtension>
            <ns3:atemp>30.0</ns3:atemp>
            <ns3:hr>94</ns3:hr>
          </ns3:TrackPointExtension>
        </extensions>
      </trkpt>
      <trkpt lat="36.81408273987472057342529296875" lon="-118.4300233237445354461669921875">
        <ele>3334.800048828125</ele>
        <time>2021-06-26T21:20:05.000Z</time>
        <extensions>
          <ns3:TrackPointExtension>
            <ns3:atemp>30.0</ns3:atemp>
            <ns3:hr>95</ns3:hr>
          </ns3:TrackPointExtension>
        </extensions>
      </trkpt>
      <trkpt lat="36.8140692450106143951416015625" lon="-118.4299924783408641815185546875">
        <ele>3334.39990234375</ele>
        <time>2021-06-26T21:20:09.000Z</time>
        <extensions>
          <ns3:TrackPointExtension>
            <ns3:atemp>30.0</ns3:atemp>
            <ns3:hr>95</ns3:hr>
          </ns3:TrackPointExtension>
        </extensions>
      </trkpt>
      <trkpt lat="36.8140554986894130706787109375" lon="-118.4299619682133197784423828125">
        <ele>3334.199951171875</ele>
        <time>2021-06-26T21:20:11.000Z</time>
        <extensions>
          <ns3:TrackPointExtension>
            <ns3:atemp>30.0</ns3:atemp>
            <ns3:hr>96</ns3:hr>
          </ns3:TrackPointExtension>
        </extensions>
      </trkpt>
      <trkpt lat="36.814080141484737396240234375" lon="-118.4299443662166595458984375">
        <ele>3333</ele>
        <time>2021-06-26T21:20:16.000Z</time>
        <extensions>
          <ns3:TrackPointExtension>
            <ns3:atemp>30.0</ns3:atemp>
            <ns3:hr>96</ns3:hr>
          </ns3:TrackPointExtension>
        </extensions>
      </trkpt>
      <trkpt lat="36.814100258052349090576171875" lon="-118.4299287758767604827880859375">
        <ele>3332</ele>
        <time>2021-06-26T21:20:20.000Z</time>
        <extensions>
          <ns3:TrackPointExtension>
            <ns3:atemp>30.0</ns3:atemp>
            <ns3:hr>93</ns3:hr>
          </ns3:TrackPointExtension>
        </extensions>
      </trkpt>
      <trkpt lat="36.8141098134219646453857421875" lon="-118.42990421690046787261962890625">
        <ele>3331.60009765625</ele>
        <time>2021-06-26T21:20:23.000Z</time>
        <extensions>
          <ns3:TrackPointExtension>
            <ns3:atemp>30.0</ns3:atemp>
            <ns3:hr>90</ns3:hr>
          </ns3:TrackPointExtension>
        </extensions>
      </trkpt>
      <trkpt lat="36.814120709896087646484375" lon="-118.42988091520965099334716796875">
        <ele>3331</ele>
        <time>2021-06-26T21:20:27.000Z</time>
        <extensions>
          <ns3:TrackPointExtension>
            <ns3:atemp>30.0</ns3:atemp>
            <ns3:hr>88</ns3:hr>
          </ns3:TrackPointExtension>
        </extensions>
      </trkpt>
      <trkpt lat="36.81412448175251483917236328125" lon="-118.4298637323081493377685546875">
        <ele>3330.60009765625</ele>
        <time>2021-06-26T21:20:29.000Z</time>
        <extensions>
          <ns3:TrackPointExtension>
            <ns3:atemp>30.0</ns3:atemp>
            <ns3:hr>85</ns3:hr>
          </ns3:TrackPointExtension>
        </extensions>
      </trkpt>
      <trkpt lat="36.814126409590244293212890625" lon="-118.429828695952892303466796875">
        <ele>3329.39990234375</ele>
        <time>2021-06-26T21:20:34.000Z</time>
        <extensions>
          <ns3:TrackPointExtension>
            <ns3:atemp>30.0</ns3:atemp>
            <ns3:hr>84</ns3:hr>
          </ns3:TrackPointExtension>
        </extensions>
      </trkpt>
      <trkpt lat="36.81413638405501842498779296875" lon="-118.42981218360364437103271484375">
        <ele>3329.39990234375</ele>
        <time>2021-06-26T21:20:36.000Z</time>
        <extensions>
          <ns3:TrackPointExtension>
            <ns3:atemp>30.0</ns3:atemp>
            <ns3:hr>84</ns3:hr>
          </ns3:TrackPointExtension>
        </extensions>
      </trkpt>
      <trkpt lat="36.81417292915284633636474609375" lon="-118.42973448336124420166015625">
        <ele>3329</ele>
        <time>2021-06-26T21:20:43.000Z</time>
        <extensions>
          <ns3:TrackPointExtension>
            <ns3:atemp>30.0</ns3:atemp>
            <ns3:hr>85</ns3:hr>
          </ns3:TrackPointExtension>
        </extensions>
      </trkpt>
      <trkpt lat="36.8142010085284709930419921875" lon="-118.42966742813587188720703125">
        <ele>3328.800048828125</ele>
        <time>2021-06-26T21:20:50.000Z</time>
        <extensions>
          <ns3:TrackPointExtension>
            <ns3:atemp>30.0</ns3:atemp>
            <ns3:hr>87</ns3:hr>
          </ns3:TrackPointExtension>
        </extensions>
      </trkpt>
      <trkpt lat="36.81422464549541473388671875" lon="-118.42960045672953128814697265625">
        <ele>3328.39990234375</ele>
        <time>2021-06-26T21:20:57.000Z</time>
        <extensions>
          <ns3:TrackPointExtension>
            <ns3:atemp>30.0</ns3:atemp>
            <ns3:hr>87</ns3:hr>
          </ns3:TrackPointExtension>
        </extensions>
      </trkpt>
      <trkpt lat="36.8142435885965824127197265625" lon="-118.42954806983470916748046875">
        <ele>3327.199951171875</ele>
        <time>2021-06-26T21:21:03.000Z</time>
        <extensions>
          <ns3:TrackPointExtension>
            <ns3:atemp>30.0</ns3:atemp>
            <ns3:hr>86</ns3:hr>
          </ns3:TrackPointExtension>
        </extensions>
      </trkpt>
      <trkpt lat="36.81424836628139019012451171875" lon="-118.42953977175056934356689453125">
        <ele>3327.199951171875</ele>
        <time>2021-06-26T21:21:04.000Z</time>
        <extensions>
          <ns3:TrackPointExtension>
            <ns3:atemp>30.0</ns3:atemp>
            <ns3:hr>86</ns3:hr>
          </ns3:TrackPointExtension>
        </extensions>
      </trkpt>
      <trkpt lat="36.81425792165100574493408203125" lon="-118.42949132435023784637451171875">
        <ele>3326.199951171875</ele>
        <time>2021-06-26T21:21:08.000Z</time>
        <extensions>
          <ns3:TrackPointExtension>
            <ns3:atemp>30.0</ns3:atemp>
            <ns3:hr>85</ns3:hr>
          </ns3:TrackPointExtension>
        </extensions>
      </trkpt>
      <trkpt lat="36.81423478759825229644775390625" lon="-118.429472632706165313720703125">
        <ele>3325.60009765625</ele>
        <time>2021-06-26T21:21:11.000Z</time>
        <extensions>
          <ns3:TrackPointExtension>
            <ns3:atemp>30.0</ns3:atemp>
            <ns3:hr>86</ns3:hr>
          </ns3:TrackPointExtension>
        </extensions>
      </trkpt>
      <trkpt lat="36.81421718560159206390380859375" lon="-118.429476320743560791015625">
        <ele>3325.60009765625</ele>
        <time>2021-06-26T21:21:13.000Z</time>
        <extensions>
          <ns3:TrackPointExtension>
            <ns3:atemp>30.0</ns3:atemp>
            <ns3:hr>88</ns3:hr>
          </ns3:TrackPointExtension>
        </extensions>
      </trkpt>
      <trkpt lat="36.81421718560159206390380859375" lon="-118.42946919612586498260498046875">
        <ele>3325.60009765625</ele>
        <time>2021-06-26T21:21:17.000Z</time>
        <extensions>
          <ns3:TrackPointExtension>
            <ns3:atemp>30.0</ns3:atemp>
            <ns3:hr>87</ns3:hr>
          </ns3:TrackPointExtension>
        </extensions>
      </trkpt>
      <trkpt lat="36.81419857777655124664306640625" lon="-118.4294865466654300689697265625">
        <ele>3325.39990234375</ele>
        <time>2021-06-26T21:21:28.000Z</time>
        <extensions>
          <ns3:TrackPointExtension>
            <ns3:atemp>30.0</ns3:atemp>
            <ns3:hr>90</ns3:hr>
          </ns3:TrackPointExtension>
        </extensions>
      </trkpt>
      <trkpt lat="36.81419857777655124664306640625" lon="-118.4294865466654300689697265625">
        <ele>3325.39990234375</ele>
        <time>2021-06-26T21:21:30.000Z</time>
        <extensions>
          <ns3:TrackPointExtension>
            <ns3:atemp>30.0</ns3:atemp>
            <ns3:hr>93</ns3:hr>
          </ns3:TrackPointExtension>
        </extensions>
      </trkpt>
      <trkpt lat="36.81419857777655124664306640625" lon="-118.4294865466654300689697265625">
        <ele>3325.39990234375</ele>
        <time>2021-06-26T21:21:33.000Z</time>
        <extensions>
          <ns3:TrackPointExtension>
            <ns3:atemp>30.0</ns3:atemp>
            <ns3:hr>94</ns3:hr>
          </ns3:TrackPointExtension>
        </extensions>
      </trkpt>
      <trkpt lat="36.81419857777655124664306640625" lon="-118.4294865466654300689697265625">
        <ele>3325.39990234375</ele>
        <time>2021-06-26T21:21:38.000Z</time>
        <extensions>
          <ns3:TrackPointExtension>
            <ns3:atemp>30.0</ns3:atemp>
            <ns3:hr>97</ns3:hr>
          </ns3:TrackPointExtension>
        </extensions>
      </trkpt>
      <trkpt lat="36.81419690139591693878173828125" lon="-118.42948679812252521514892578125">
        <ele>3325.39990234375</ele>
        <time>2021-06-26T21:21:44.000Z</time>
        <extensions>
          <ns3:TrackPointExtension>
            <ns3:atemp>30.0</ns3:atemp>
            <ns3:hr>97</ns3:hr>
          </ns3:TrackPointExtension>
        </extensions>
      </trkpt>
      <trkpt lat="36.81419690139591693878173828125" lon="-118.42948679812252521514892578125">
        <ele>3325</ele>
        <time>2021-06-26T21:21:46.000Z</time>
        <extensions>
          <ns3:TrackPointExtension>
            <ns3:atemp>30.0</ns3:atemp>
            <ns3:hr>97</ns3:hr>
          </ns3:TrackPointExtension>
        </extensions>
      </trkpt>
      <trkpt lat="36.81419606320559978485107421875" lon="-118.42948679812252521514892578125">
        <ele>3323.60009765625</ele>
        <time>2021-06-26T21:21:51.000Z</time>
        <extensions>
          <ns3:TrackPointExtension>
            <ns3:atemp>30.0</ns3:atemp>
            <ns3:hr>96</ns3:hr>
          </ns3:TrackPointExtension>
        </extensions>
      </trkpt>
      <trkpt lat="36.81419606320559978485107421875" lon="-118.42948394827544689178466796875">
        <ele>3322.800048828125</ele>
        <time>2021-06-26T21:21:55.000Z</time>
        <extensions>
          <ns3:TrackPointExtension>
            <ns3:atemp>30.0</ns3:atemp>
            <ns3:hr>99</ns3:hr>
          </ns3:TrackPointExtension>
        </extensions>
      </trkpt>
      <trkpt lat="36.81419639848172664642333984375" lon="-118.42947992496192455291748046875">
        <ele>3322.39990234375</ele>
        <time>2021-06-26T21:21:58.000Z</time>
        <extensions>
          <ns3:TrackPointExtension>
            <ns3:atemp>30.0</ns3:atemp>
            <ns3:hr>100</ns3:hr>
          </ns3:TrackPointExtension>
        </extensions>
      </trkpt>
      <trkpt lat="36.81419723667204380035400390625" lon="-118.4294583834707736968994140625">
        <ele>3321.199951171875</ele>
        <time>2021-06-26T21:22:01.000Z</time>
        <extensions>
          <ns3:TrackPointExtension>
            <ns3:atemp>30.0</ns3:atemp>
            <ns3:hr>102</ns3:hr>
          </ns3:TrackPointExtension>
        </extensions>
      </trkpt>
      <trkpt lat="36.81417577899992465972900390625" lon="-118.4294033981859683990478515625">
        <ele>3320.39990234375</ele>
        <time>2021-06-26T21:22:04.000Z</time>
        <extensions>
          <ns3:TrackPointExtension>
            <ns3:atemp>30.0</ns3:atemp>
            <ns3:hr>102</ns3:hr>
          </ns3:TrackPointExtension>
        </extensions>
      </trkpt>
      <trkpt lat="36.8141617812216281890869140625" lon="-118.429378755390644073486328125">
        <ele>3320</ele>
        <time>2021-06-26T21:22:06.000Z</time>
        <extensions>
          <ns3:TrackPointExtension>
            <ns3:atemp>30.0</ns3:atemp>
            <ns3:hr>101</ns3:hr>
          </ns3:TrackPointExtension>
        </extensions>
      </trkpt>
      <trkpt lat="36.81414912454783916473388671875" lon="-118.42935050837695598602294921875">
        <ele>3318.800048828125</ele>
        <time>2021-06-26T21:22:08.000Z</time>
        <extensions>
          <ns3:TrackPointExtension>
            <ns3:atemp>30.0</ns3:atemp>
            <ns3:hr>103</ns3:hr>
          </ns3:TrackPointExtension>
        </extensions>
      </trkpt>
      <trkpt lat="36.814154572784900665283203125" lon="-118.42933676205575466156005859375">
        <ele>3318.39990234375</ele>
        <time>2021-06-26T21:22:09.000Z</time>
        <extensions>
          <ns3:TrackPointExtension>
            <ns3:atemp>30.0</ns3:atemp>
            <ns3:hr>103</ns3:hr>
          </ns3:TrackPointExtension>
        </extensions>
      </trkpt>
      <trkpt lat="36.81416119448840618133544921875" lon="-118.42931463383138179779052734375">
        <ele>3318.199951171875</ele>
        <time>2021-06-26T21:22:10.000Z</time>
        <extensions>
          <ns3:TrackPointExtension>
            <ns3:atemp>30.0</ns3:atemp>
            <ns3:hr>106</ns3:hr>
          </ns3:TrackPointExtension>
        </extensions>
      </trkpt>
      <trkpt lat="36.8141674809157848358154296875" lon="-118.42927825637161731719970703125">
        <ele>3318</ele>
        <time>2021-06-26T21:22:13.000Z</time>
        <extensions>
          <ns3:TrackPointExtension>
            <ns3:atemp>30.0</ns3:atemp>
            <ns3:hr>106</ns3:hr>
          </ns3:TrackPointExtension>
        </extensions>
      </trkpt>
      <trkpt lat="36.814156584441661834716796875" lon="-118.429270796477794647216796875">
        <ele>3317.60009765625</ele>
        <time>2021-06-26T21:22:14.000Z</time>
        <extensions>
          <ns3:TrackPointExtension>
            <ns3:atemp>30.0</ns3:atemp>
            <ns3:hr>106</ns3:hr>
          </ns3:TrackPointExtension>
        </extensions>
      </trkpt>
      <trkpt lat="36.814143173396587371826171875" lon="-118.42926383949816226959228515625">
        <ele>3317.60009765625</ele>
        <time>2021-06-26T21:22:15.000Z</time>
        <extensions>
          <ns3:TrackPointExtension>
            <ns3:atemp>30.0</ns3:atemp>
            <ns3:hr>106</ns3:hr>
          </ns3:TrackPointExtension>
        </extensions>
      </trkpt>
      <trkpt lat="36.81410185061395168304443359375" lon="-118.4292287193238735198974609375">
        <ele>3317.199951171875</ele>
        <time>2021-06-26T21:22:20.000Z</time>
        <extensions>
          <ns3:TrackPointExtension>
            <ns3:atemp>30.0</ns3:atemp>
            <ns3:hr>104</ns3:hr>
          </ns3:TrackPointExtension>
        </extensions>
      </trkpt>
      <trkpt lat="36.814084164798259735107421875" lon="-118.42918722890317440032958984375">
        <ele>3317.199951171875</ele>
        <time>2021-06-26T21:22:23.000Z</time>
        <extensions>
          <ns3:TrackPointExtension>
            <ns3:atemp>30.0</ns3:atemp>
            <ns3:hr>104</ns3:hr>
          </ns3:TrackPointExtension>
        </extensions>
      </trkpt>
      <trkpt lat="36.81405357085168361663818359375" lon="-118.42917121946811676025390625">
        <ele>3317</ele>
        <time>2021-06-26T21:22:26.000Z</time>
        <extensions>
          <ns3:TrackPointExtension>
            <ns3:atemp>30.0</ns3:atemp>
            <ns3:hr>106</ns3:hr>
          </ns3:TrackPointExtension>
        </extensions>
      </trkpt>
      <trkpt lat="36.814037226140499114990234375" lon="-118.42916853725910186767578125">
        <ele>3317</ele>
        <time>2021-06-26T21:22:29.000Z</time>
        <extensions>
          <ns3:TrackPointExtension>
            <ns3:atemp>30.0</ns3:atemp>
            <ns3:hr>104</ns3:hr>
          </ns3:TrackPointExtension>
        </extensions>
      </trkpt>
      <trkpt lat="36.81403479538857936859130859375" lon="-118.4291666932404041290283203125">
        <ele>3316.60009765625</ele>
        <time>2021-06-26T21:22:36.000Z</time>
        <extensions>
          <ns3:TrackPointExtension>
            <ns3:atemp>30.0</ns3:atemp>
            <ns3:hr>103</ns3:hr>
          </ns3:TrackPointExtension>
        </extensions>
      </trkpt>
      <trkpt lat="36.814065389335155487060546875" lon="-118.42913903295993804931640625">
        <ele>3316.60009765625</ele>
        <time>2021-06-26T21:22:41.000Z</time>
        <extensions>
          <ns3:TrackPointExtension>
            <ns3:atemp>30.0</ns3:atemp>
            <ns3:hr>102</ns3:hr>
          </ns3:TrackPointExtension>
        </extensions>
      </trkpt>
      <trkpt lat="36.81407704018056392669677734375" lon="-118.4290922619402408599853515625">
        <ele>3316.800048828125</ele>
        <time>2021-06-26T21:22:47.000Z</time>
        <extensions>
          <ns3:TrackPointExtension>
            <ns3:atemp>30.0</ns3:atemp>
            <ns3:hr>99</ns3:hr>
          </ns3:TrackPointExtension>
        </extensions>
      </trkpt>
      <trkpt lat="36.81407821364700794219970703125" lon="-118.42908681370317935943603515625">
        <ele>3316.800048828125</ele>
        <time>2021-06-26T21:22:48.000Z</time>
        <extensions>
          <ns3:TrackPointExtension>
            <ns3:atemp>30.0</ns3:atemp>
            <ns3:hr>99</ns3:hr>
          </ns3:TrackPointExtension>
        </extensions>
      </trkpt>
      <trkpt lat="36.8140818178653717041015625" lon="-118.42903467826545238494873046875">
        <ele>3316.60009765625</ele>
        <time>2021-06-26T21:22:53.000Z</time>
        <extensions>
          <ns3:TrackPointExtension>
            <ns3:atemp>30.0</ns3:atemp>
            <ns3:hr>97</ns3:hr>
          </ns3:TrackPointExtension>
        </extensions>
      </trkpt>
      <trkpt lat="36.8140375614166259765625" lon="-118.42900701798498630523681640625">
        <ele>3316.39990234375</ele>
        <time>2021-06-26T21:22:57.000Z</time>
        <extensions>
          <ns3:TrackPointExtension>
            <ns3:atemp>31.0</ns3:atemp>
            <ns3:hr>97</ns3:hr>
          </ns3:TrackPointExtension>
        </extensions>
      </trkpt>
      <trkpt lat="36.81402825750410556793212890625" lon="-118.42900869436562061309814453125">
        <ele>3316.60009765625</ele>
        <time>2021-06-26T21:23:01.000Z</time>
        <extensions>
          <ns3:TrackPointExtension>
            <ns3:atemp>31.0</ns3:atemp>
            <ns3:hr>98</ns3:hr>
          </ns3:TrackPointExtension>
        </extensions>
      </trkpt>
      <trkpt lat="36.8140420876443386077880859375" lon="-118.42900785617530345916748046875">
        <ele>3316.60009765625</ele>
        <time>2021-06-26T21:23:05.000Z</time>
        <extensions>
          <ns3:TrackPointExtension>
            <ns3:atemp>31.0</ns3:atemp>
            <ns3:hr>99</ns3:hr>
          </ns3:TrackPointExtension>
        </extensions>
      </trkpt>
      <trkpt lat="36.81404896080493927001953125" lon="-118.42895035631954669952392578125">
        <ele>3316.39990234375</ele>
        <time>2021-06-26T21:23:11.000Z</time>
        <extensions>
          <ns3:TrackPointExtension>
            <ns3:atemp>31.0</ns3:atemp>
            <ns3:hr>101</ns3:hr>
          </ns3:TrackPointExtension>
        </extensions>
      </trkpt>
      <trkpt lat="36.8140270002186298370361328125" lon="-118.42884994111955165863037109375">
        <ele>3316.199951171875</ele>
        <time>2021-06-26T21:23:18.000Z</time>
        <extensions>
          <ns3:TrackPointExtension>
            <ns3:atemp>31.0</ns3:atemp>
            <ns3:hr>100</ns3:hr>
          </ns3:TrackPointExtension>
        </extensions>
      </trkpt>
      <trkpt lat="36.81399221532046794891357421875" lon="-118.42881180346012115478515625">
        <ele>3316</ele>
        <time>2021-06-26T21:23:24.000Z</time>
        <extensions>
          <ns3:TrackPointExtension>
            <ns3:atemp>31.0</ns3:atemp>
            <ns3:hr>101</ns3:hr>
          </ns3:TrackPointExtension>
        </extensions>
      </trkpt>
      <trkpt lat="36.81398970074951648712158203125" lon="-118.4288113005459308624267578125">
        <ele>3315.800048828125</ele>
        <time>2021-06-26T21:23:25.000Z</time>
        <extensions>
          <ns3:TrackPointExtension>
            <ns3:atemp>31.0</ns3:atemp>
            <ns3:hr>102</ns3:hr>
          </ns3:TrackPointExtension>
        </extensions>
      </trkpt>
      <trkpt lat="36.81398416869342327117919921875" lon="-118.42881306074559688568115234375">
        <ele>3316</ele>
        <time>2021-06-26T21:23:32.000Z</time>
        <extensions>
          <ns3:TrackPointExtension>
            <ns3:atemp>31.0</ns3:atemp>
            <ns3:hr>100</ns3:hr>
          </ns3:TrackPointExtension>
        </extensions>
      </trkpt>
      <trkpt lat="36.81398970074951648712158203125" lon="-118.42879839241504669189453125">
        <ele>3315.60009765625</ele>
        <time>2021-06-26T21:23:37.000Z</time>
        <extensions>
          <ns3:TrackPointExtension>
            <ns3:atemp>31.0</ns3:atemp>
            <ns3:hr>100</ns3:hr>
          </ns3:TrackPointExtension>
        </extensions>
      </trkpt>
      <trkpt lat="36.8140266649425029754638671875" lon="-118.42875271104276180267333984375">
        <ele>3316</ele>
        <time>2021-06-26T21:23:45.000Z</time>
        <extensions>
          <ns3:TrackPointExtension>
            <ns3:atemp>31.0</ns3:atemp>
            <ns3:hr>100</ns3:hr>
          </ns3:TrackPointExtension>
        </extensions>
      </trkpt>
      <trkpt lat="36.814024485647678375244140625" lon="-118.4286590851843357086181640625">
        <ele>3315.800048828125</ele>
        <time>2021-06-26T21:23:53.000Z</time>
        <extensions>
          <ns3:TrackPointExtension>
            <ns3:atemp>31.0</ns3:atemp>
            <ns3:hr>99</ns3:hr>
          </ns3:TrackPointExtension>
        </extensions>
      </trkpt>
      <trkpt lat="36.8140591867268085479736328125" lon="-118.4286037646234035491943359375">
        <ele>3316.39990234375</ele>
        <time>2021-06-26T21:24:01.000Z</time>
        <extensions>
          <ns3:TrackPointExtension>
            <ns3:atemp>31.0</ns3:atemp>
            <ns3:hr>98</ns3:hr>
          </ns3:TrackPointExtension>
        </extensions>
      </trkpt>
      <trkpt lat="36.8140772916376590728759765625" lon="-118.42859881930053234100341796875">
        <ele>3316.39990234375</ele>
        <time>2021-06-26T21:24:03.000Z</time>
        <extensions>
          <ns3:TrackPointExtension>
            <ns3:atemp>31.0</ns3:atemp>
            <ns3:hr>98</ns3:hr>
          </ns3:TrackPointExtension>
        </extensions>
      </trkpt>
      <trkpt lat="36.81413336656987667083740234375" lon="-118.42860929667949676513671875">
        <ele>3315.39990234375</ele>
        <time>2021-06-26T21:24:08.000Z</time>
        <extensions>
          <ns3:TrackPointExtension>
            <ns3:atemp>31.0</ns3:atemp>
            <ns3:hr>98</ns3:hr>
          </ns3:TrackPointExtension>
        </extensions>
      </trkpt>
      <trkpt lat="36.8141419999301433563232421875" lon="-118.4286101348698139190673828125">
        <ele>3315</ele>
        <time>2021-06-26T21:24:09.000Z</time>
        <extensions>
          <ns3:TrackPointExtension>
            <ns3:atemp>31.0</ns3:atemp>
            <ns3:hr>98</ns3:hr>
          </ns3:TrackPointExtension>
        </extensions>
      </trkpt>
      <trkpt lat="36.81419589556753635406494140625" lon="-118.42859186232089996337890625">
        <ele>3315.199951171875</ele>
        <time>2021-06-26T21:24:17.000Z</time>
        <extensions>
          <ns3:TrackPointExtension>
            <ns3:atemp>31.0</ns3:atemp>
            <ns3:hr>96</ns3:hr>
          </ns3:TrackPointExtension>
        </extensions>
      </trkpt>
      <trkpt lat="36.81425255723297595977783203125" lon="-118.4285521320998668670654296875">
        <ele>3314.60009765625</ele>
        <time>2021-06-26T21:24:24.000Z</time>
        <extensions>
          <ns3:TrackPointExtension>
            <ns3:atemp>31.0</ns3:atemp>
            <ns3:hr>97</ns3:hr>
          </ns3:TrackPointExtension>
        </extensions>
      </trkpt>
      <trkpt lat="36.81426496244966983795166015625" lon="-118.42853059060871601104736328125">
        <ele>3314.39990234375</ele>
        <time>2021-06-26T21:24:26.000Z</time>
        <extensions>
          <ns3:TrackPointExtension>
            <ns3:atemp>31.0</ns3:atemp>
            <ns3:hr>97</ns3:hr>
          </ns3:TrackPointExtension>
        </extensions>
      </trkpt>
      <trkpt lat="36.81430586613714694976806640625" lon="-118.42847443185746669769287109375">
        <ele>3313.60009765625</ele>
        <time>2021-06-26T21:24:32.000Z</time>
        <extensions>
          <ns3:TrackPointExtension>
            <ns3:atemp>31.0</ns3:atemp>
            <ns3:hr>98</ns3:hr>
          </ns3:TrackPointExtension>
        </extensions>
      </trkpt>
      <trkpt lat="36.81435682810842990875244140625" lon="-118.42839128337800502777099609375">
        <ele>3313.60009765625</ele>
        <time>2021-06-26T21:24:40.000Z</time>
        <extensions>
          <ns3:TrackPointExtension>
            <ns3:atemp>31.0</ns3:atemp>
            <ns3:hr>98</ns3:hr>
          </ns3:TrackPointExtension>
        </extensions>
      </trkpt>
      <trkpt lat="36.814363114535808563232421875" lon="-118.4283814765512943267822265625">
        <ele>3313.60009765625</ele>
        <time>2021-06-26T21:24:41.000Z</time>
        <extensions>
          <ns3:TrackPointExtension>
            <ns3:atemp>31.0</ns3:atemp>
            <ns3:hr>95</ns3:hr>
          </ns3:TrackPointExtension>
        </extensions>
      </trkpt>
      <trkpt lat="36.81436470709741115570068359375" lon="-118.42836949042975902557373046875">
        <ele>3313.60009765625</ele>
        <time>2021-06-26T21:24:42.000Z</time>
        <extensions>
          <ns3:TrackPointExtension>
            <ns3:atemp>31.0</ns3:atemp>
            <ns3:hr>99</ns3:hr>
          </ns3:TrackPointExtension>
        </extensions>
      </trkpt>
      <trkpt lat="36.81435129605233669281005859375" lon="-118.4282654710114002227783203125">
        <ele>3313</ele>
        <time>2021-06-26T21:24:50.000Z</time>
        <extensions>
          <ns3:TrackPointExtension>
            <ns3:atemp>30.0</ns3:atemp>
            <ns3:hr>99</ns3:hr>
          </ns3:TrackPointExtension>
        </extensions>
      </trkpt>
      <trkpt lat="36.814250461757183074951171875" lon="-118.428225405514240264892578125">
        <ele>3313</ele>
        <time>2021-06-26T21:24:58.000Z</time>
        <extensions>
          <ns3:TrackPointExtension>
            <ns3:atemp>30.0</ns3:atemp>
            <ns3:hr>102</ns3:hr>
          </ns3:TrackPointExtension>
        </extensions>
      </trkpt>
      <trkpt lat="36.81423939764499664306640625" lon="-118.42822314240038394927978515625">
        <ele>3313.199951171875</ele>
        <time>2021-06-26T21:24:59.000Z</time>
        <extensions>
          <ns3:TrackPointExtension>
            <ns3:atemp>30.0</ns3:atemp>
            <ns3:hr>98</ns3:hr>
          </ns3:TrackPointExtension>
        </extensions>
      </trkpt>
      <trkpt lat="36.81414141319692134857177734375" lon="-118.4282175265252590179443359375">
        <ele>3313.60009765625</ele>
        <time>2021-06-26T21:25:08.000Z</time>
        <extensions>
          <ns3:TrackPointExtension>
            <ns3:atemp>30.0</ns3:atemp>
            <ns3:hr>100</ns3:hr>
          </ns3:TrackPointExtension>
        </extensions>
      </trkpt>
      <trkpt lat="36.81412003934383392333984375" lon="-118.42823286540806293487548828125">
        <ele>3313.60009765625</ele>
        <time>2021-06-26T21:25:13.000Z</time>
        <extensions>
          <ns3:TrackPointExtension>
            <ns3:atemp>30.0</ns3:atemp>
            <ns3:hr>99</ns3:hr>
          </ns3:TrackPointExtension>
        </extensions>
      </trkpt>
      <trkpt lat="36.814112327992916107177734375" lon="-118.4282222203910350799560546875">
        <ele>3313.60009765625</ele>
        <time>2021-06-26T21:25:15.000Z</time>
        <extensions>
          <ns3:TrackPointExtension>
            <ns3:atemp>30.0</ns3:atemp>
            <ns3:hr>99</ns3:hr>
          </ns3:TrackPointExtension>
        </extensions>
      </trkpt>
      <trkpt lat="36.8141071312129497528076171875" lon="-118.42819866724312305450439453125">
        <ele>3313.800048828125</ele>
        <time>2021-06-26T21:25:18.000Z</time>
        <extensions>
          <ns3:TrackPointExtension>
            <ns3:atemp>30.0</ns3:atemp>
            <ns3:hr>98</ns3:hr>
          </ns3:TrackPointExtension>
        </extensions>
      </trkpt>
      <trkpt lat="36.81410537101328372955322265625" lon="-118.42819087207317352294921875">
        <ele>3313.800048828125</ele>
        <time>2021-06-26T21:25:19.000Z</time>
        <extensions>
          <ns3:TrackPointExtension>
            <ns3:atemp>30.0</ns3:atemp>
            <ns3:hr>97</ns3:hr>
          </ns3:TrackPointExtension>
        </extensions>
      </trkpt>
      <trkpt lat="36.814104616641998291015625" lon="-118.42817033641040325164794921875">
        <ele>3314</ele>
        <time>2021-06-26T21:25:22.000Z</time>
        <extensions>
          <ns3:TrackPointExtension>
            <ns3:atemp>30.0</ns3:atemp>
            <ns3:hr>96</ns3:hr>
          </ns3:TrackPointExtension>
        </extensions>
      </trkpt>
      <trkpt lat="36.81410704739391803741455078125" lon="-118.42815843410789966583251953125">
        <ele>3314.199951171875</ele>
        <time>2021-06-26T21:25:23.000Z</time>
        <extensions>
          <ns3:TrackPointExtension>
            <ns3:atemp>30.0</ns3:atemp>
            <ns3:hr>97</ns3:hr>
          </ns3:TrackPointExtension>
        </extensions>
      </trkpt>
      <trkpt lat="36.81410905905067920684814453125" lon="-118.4281498007476329803466796875">
        <ele>3314.199951171875</ele>
        <time>2021-06-26T21:25:24.000Z</time>
        <extensions>
          <ns3:TrackPointExtension>
            <ns3:atemp>30.0</ns3:atemp>
            <ns3:hr>97</ns3:hr>
          </ns3:TrackPointExtension>
        </extensions>
      </trkpt>
      <trkpt lat="36.814115010201930999755859375" lon="-118.428113758563995361328125">
        <ele>3314.199951171875</ele>
        <time>2021-06-26T21:25:28.000Z</time>
        <extensions>
          <ns3:TrackPointExtension>
            <ns3:atemp>30.0</ns3:atemp>
            <ns3:hr>100</ns3:hr>
          </ns3:TrackPointExtension>
        </extensions>
      </trkpt>
      <trkpt lat="36.8141155131161212921142578125" lon="-118.428107388317584991455078125">
        <ele>3314.39990234375</ele>
        <time>2021-06-26T21:25:29.000Z</time>
        <extensions>
          <ns3:TrackPointExtension>
            <ns3:atemp>30.0</ns3:atemp>
            <ns3:hr>103</ns3:hr>
          </ns3:TrackPointExtension>
        </extensions>
      </trkpt>
      <trkpt lat="36.8141124956309795379638671875" lon="-118.42808752320706844329833984375">
        <ele>3314.39990234375</ele>
        <time>2021-06-26T21:25:31.000Z</time>
        <extensions>
          <ns3:TrackPointExtension>
            <ns3:atemp>30.0</ns3:atemp>
            <ns3:hr>106</ns3:hr>
          </ns3:TrackPointExtension>
        </extensions>
      </trkpt>
      <trkpt lat="36.814106293022632598876953125" lon="-118.42805114574730396270751953125">
        <ele>3314.60009765625</ele>
        <time>2021-06-26T21:25:34.000Z</time>
        <extensions>
          <ns3:TrackPointExtension>
            <ns3:atemp>30.0</ns3:atemp>
            <ns3:hr>109</ns3:hr>
          </ns3:TrackPointExtension>
        </extensions>
      </trkpt>
      <trkpt lat="36.81409883312880992889404296875" lon="-118.4280093200504779815673828125">
        <ele>3314.800048828125</ele>
        <time>2021-06-26T21:25:37.000Z</time>
        <extensions>
          <ns3:TrackPointExtension>
            <ns3:atemp>30.0</ns3:atemp>
            <ns3:hr>112</ns3:hr>
          </ns3:TrackPointExtension>
        </extensions>
      </trkpt>
      <trkpt lat="36.8140890263020992279052734375" lon="-118.42791837640106678009033203125">
        <ele>3314.39990234375</ele>
        <time>2021-06-26T21:25:44.000Z</time>
        <extensions>
          <ns3:TrackPointExtension>
            <ns3:atemp>30.0</ns3:atemp>
            <ns3:hr>111</ns3:hr>
          </ns3:TrackPointExtension>
        </extensions>
      </trkpt>
      <trkpt lat="36.8140953965485095977783203125" lon="-118.42787831090390682220458984375">
        <ele>3315.199951171875</ele>
        <time>2021-06-26T21:25:48.000Z</time>
        <extensions>
          <ns3:TrackPointExtension>
            <ns3:atemp>30.0</ns3:atemp>
            <ns3:hr>109</ns3:hr>
          </ns3:TrackPointExtension>
        </extensions>
      </trkpt>
      <trkpt lat="36.81409816257655620574951171875" lon="-118.42784620821475982666015625">
        <ele>3315.800048828125</ele>
        <time>2021-06-26T21:25:52.000Z</time>
        <extensions>
          <ns3:TrackPointExtension>
            <ns3:atemp>30.0</ns3:atemp>
            <ns3:hr>111</ns3:hr>
          </ns3:TrackPointExtension>
        </extensions>
      </trkpt>
      <trkpt lat="36.8140863440930843353271484375" lon="-118.42780731618404388427734375">
        <ele>3316.199951171875</ele>
        <time>2021-06-26T21:25:57.000Z</time>
        <extensions>
          <ns3:TrackPointExtension>
            <ns3:atemp>30.0</ns3:atemp>
            <ns3:hr>113</ns3:hr>
          </ns3:TrackPointExtension>
        </extensions>
      </trkpt>
      <trkpt lat="36.81409866549074649810791015625" lon="-118.42779482714831829071044921875">
        <ele>3316.199951171875</ele>
        <time>2021-06-26T21:25:59.000Z</time>
        <extensions>
          <ns3:TrackPointExtension>
            <ns3:atemp>30.0</ns3:atemp>
            <ns3:hr>113</ns3:hr>
          </ns3:TrackPointExtension>
        </extensions>
      </trkpt>
      <trkpt lat="36.814105622470378875732421875" lon="-118.427715785801410675048828125">
        <ele>3316.199951171875</ele>
        <time>2021-06-26T21:26:06.000Z</time>
        <extensions>
          <ns3:TrackPointExtension>
            <ns3:atemp>30.0</ns3:atemp>
            <ns3:hr>112</ns3:hr>
          </ns3:TrackPointExtension>
        </extensions>
      </trkpt>
      <trkpt lat="36.81409413926303386688232421875" lon="-118.427668176591396331787109375">
        <ele>3316.800048828125</ele>
        <time>2021-06-26T21:26:12.000Z</time>
        <extensions>
          <ns3:TrackPointExtension>
            <ns3:atemp>31.0</ns3:atemp>
            <ns3:hr>113</ns3:hr>
          </ns3:TrackPointExtension>
        </extensions>
      </trkpt>
      <trkpt lat="36.81408525444567203521728515625" lon="-118.42761662788689136505126953125">
        <ele>3317</ele>
        <time>2021-06-26T21:26:16.000Z</time>
        <extensions>
          <ns3:TrackPointExtension>
            <ns3:atemp>31.0</ns3:atemp>
            <ns3:hr>116</ns3:hr>
          </ns3:TrackPointExtension>
        </extensions>
      </trkpt>
      <trkpt lat="36.81406714953482151031494140625" lon="-118.42754739336669445037841796875">
        <ele>3316.800048828125</ele>
        <time>2021-06-26T21:26:22.000Z</time>
        <extensions>
          <ns3:TrackPointExtension>
            <ns3:atemp>31.0</ns3:atemp>
            <ns3:hr>117</ns3:hr>
          </ns3:TrackPointExtension>
        </extensions>
      </trkpt>
      <trkpt lat="36.814007051289081573486328125" lon="-118.42745133675634860992431640625">
        <ele>3316.199951171875</ele>
        <time>2021-06-26T21:26:31.000Z</time>
        <extensions>
          <ns3:TrackPointExtension>
            <ns3:atemp>30.0</ns3:atemp>
            <ns3:hr>115</ns3:hr>
          </ns3:TrackPointExtension>
        </extensions>
      </trkpt>
      <trkpt lat="36.81399791501462459564208984375" lon="-118.4274416975677013397216796875">
        <ele>3316.800048828125</ele>
        <time>2021-06-26T21:26:36.000Z</time>
        <extensions>
          <ns3:TrackPointExtension>
            <ns3:atemp>30.0</ns3:atemp>
            <ns3:hr>114</ns3:hr>
          </ns3:TrackPointExtension>
        </extensions>
      </trkpt>
      <trkpt lat="36.81399573571979999542236328125" lon="-118.42745125293731689453125">
        <ele>3317</ele>
        <time>2021-06-26T21:26:37.000Z</time>
        <extensions>
          <ns3:TrackPointExtension>
            <ns3:atemp>30.0</ns3:atemp>
            <ns3:hr>113</ns3:hr>
          </ns3:TrackPointExtension>
        </extensions>
      </trkpt>
      <trkpt lat="36.81400001049041748046875" lon="-118.4274631552398204803466796875">
        <ele>3317</ele>
        <time>2021-06-26T21:26:38.000Z</time>
        <extensions>
          <ns3:TrackPointExtension>
            <ns3:atemp>30.0</ns3:atemp>
            <ns3:hr>112</ns3:hr>
          </ns3:TrackPointExtension>
        </extensions>
      </trkpt>
      <trkpt lat="36.8140092305839061737060546875" lon="-118.427487127482891082763671875">
        <ele>3316.60009765625</ele>
        <time>2021-06-26T21:26:40.000Z</time>
        <extensions>
          <ns3:TrackPointExtension>
            <ns3:atemp>30.0</ns3:atemp>
            <ns3:hr>110</ns3:hr>
          </ns3:TrackPointExtension>
        </extensions>
      </trkpt>
      <trkpt lat="36.81401853449642658233642578125" lon="-118.42752434313297271728515625">
        <ele>3316.60009765625</ele>
        <time>2021-06-26T21:26:43.000Z</time>
        <extensions>
          <ns3:TrackPointExtension>
            <ns3:atemp>30.0</ns3:atemp>
            <ns3:hr>107</ns3:hr>
          </ns3:TrackPointExtension>
        </extensions>
      </trkpt>
      <trkpt lat="36.81402356363832950592041015625" lon="-118.42753113247454166412353515625">
        <ele>3316.39990234375</ele>
        <time>2021-06-26T21:26:44.000Z</time>
        <extensions>
          <ns3:TrackPointExtension>
            <ns3:atemp>30.0</ns3:atemp>
            <ns3:hr>107</ns3:hr>
          </ns3:TrackPointExtension>
        </extensions>
      </trkpt>
      <trkpt lat="36.814029179513454437255859375" lon="-118.4275322221219539642333984375">
        <ele>3316.60009765625</ele>
        <time>2021-06-26T21:26:45.000Z</time>
        <extensions>
          <ns3:TrackPointExtension>
            <ns3:atemp>30.0</ns3:atemp>
            <ns3:hr>107</ns3:hr>
          </ns3:TrackPointExtension>
        </extensions>
      </trkpt>
      <trkpt lat="36.81406681425869464874267578125" lon="-118.42756097204983234405517578125">
        <ele>3316.800048828125</ele>
        <time>2021-06-26T21:26:51.000Z</time>
        <extensions>
          <ns3:TrackPointExtension>
            <ns3:atemp>30.0</ns3:atemp>
            <ns3:hr>107</ns3:hr>
          </ns3:TrackPointExtension>
        </extensions>
      </trkpt>
      <trkpt lat="36.81406999938189983367919921875" lon="-118.42756717465817928314208984375">
        <ele>3316.800048828125</ele>
        <time>2021-06-26T21:26:52.000Z</time>
        <extensions>
          <ns3:TrackPointExtension>
            <ns3:atemp>30.0</ns3:atemp>
            <ns3:hr>107</ns3:hr>
          </ns3:TrackPointExtension>
        </extensions>
      </trkpt>
      <trkpt lat="36.81407234631478786468505859375" lon="-118.42758595012128353118896484375">
        <ele>3317.39990234375</ele>
        <time>2021-06-26T21:26:54.000Z</time>
        <extensions>
          <ns3:TrackPointExtension>
            <ns3:atemp>30.0</ns3:atemp>
            <ns3:hr>107</ns3:hr>
          </ns3:TrackPointExtension>
        </extensions>
      </trkpt>
      <trkpt lat="36.81407502852380275726318359375" lon="-118.42761059291660785675048828125">
        <ele>3317.39990234375</ele>
        <time>2021-06-26T21:26:56.000Z</time>
        <extensions>
          <ns3:TrackPointExtension>
            <ns3:atemp>30.0</ns3:atemp>
            <ns3:hr>108</ns3:hr>
          </ns3:TrackPointExtension>
        </extensions>
      </trkpt>
      <trkpt lat="36.81407854892313480377197265625" lon="-118.427638672292232513427734375">
        <ele>3317.39990234375</ele>
        <time>2021-06-26T21:26:58.000Z</time>
        <extensions>
          <ns3:TrackPointExtension>
            <ns3:atemp>30.0</ns3:atemp>
            <ns3:hr>108</ns3:hr>
          </ns3:TrackPointExtension>
        </extensions>
      </trkpt>
      <trkpt lat="36.81408039294183254241943359375" lon="-118.427660800516605377197265625">
        <ele>3317.199951171875</ele>
        <time>2021-06-26T21:27:00.000Z</time>
        <extensions>
          <ns3:TrackPointExtension>
            <ns3:atemp>30.0</ns3:atemp>
            <ns3:hr>106</ns3:hr>
          </ns3:TrackPointExtension>
        </extensions>
      </trkpt>
      <trkpt lat="36.814079470932483673095703125" lon="-118.4277464635670185089111328125">
        <ele>3316.39990234375</ele>
        <time>2021-06-26T21:27:06.000Z</time>
        <extensions>
          <ns3:TrackPointExtension>
            <ns3:atemp>30.0</ns3:atemp>
            <ns3:hr>105</ns3:hr>
          </ns3:TrackPointExtension>
        </extensions>
      </trkpt>
      <trkpt lat="36.814088188111782073974609375" lon="-118.42775677330791950225830078125">
        <ele>3316.39990234375</ele>
        <time>2021-06-26T21:27:07.000Z</time>
        <extensions>
          <ns3:TrackPointExtension>
            <ns3:atemp>30.0</ns3:atemp>
            <ns3:hr>106</ns3:hr>
          </ns3:TrackPointExtension>
        </extensions>
      </trkpt>
      <trkpt lat="36.81409833021461963653564453125" lon="-118.42776046134531497955322265625">
        <ele>3316.199951171875</ele>
        <time>2021-06-26T21:27:08.000Z</time>
        <extensions>
          <ns3:TrackPointExtension>
            <ns3:atemp>30.0</ns3:atemp>
            <ns3:hr>106</ns3:hr>
          </ns3:TrackPointExtension>
        </extensions>
      </trkpt>
      <trkpt lat="36.8141537345945835113525390625" lon="-118.4277645684778690338134765625">
        <ele>3315.800048828125</ele>
        <time>2021-06-26T21:27:13.000Z</time>
        <extensions>
          <ns3:TrackPointExtension>
            <ns3:atemp>30.0</ns3:atemp>
            <ns3:hr>108</ns3:hr>
          </ns3:TrackPointExtension>
        </extensions>
      </trkpt>
      <trkpt lat="36.814163960516452789306640625" lon="-118.42777957208454608917236328125">
        <ele>3315.60009765625</ele>
        <time>2021-06-26T21:27:15.000Z</time>
        <extensions>
          <ns3:TrackPointExtension>
            <ns3:atemp>30.0</ns3:atemp>
            <ns3:hr>109</ns3:hr>
          </ns3:TrackPointExtension>
        </extensions>
      </trkpt>
      <trkpt lat="36.81417527608573436737060546875" lon="-118.427809663116931915283203125">
        <ele>3315.39990234375</ele>
        <time>2021-06-26T21:27:18.000Z</time>
        <extensions>
          <ns3:TrackPointExtension>
            <ns3:atemp>30.0</ns3:atemp>
            <ns3:hr>109</ns3:hr>
          </ns3:TrackPointExtension>
        </extensions>
      </trkpt>
      <trkpt lat="36.8141949735581874847412109375" lon="-118.42783221043646335601806640625">
        <ele>3314.800048828125</ele>
        <time>2021-06-26T21:27:21.000Z</time>
        <extensions>
          <ns3:TrackPointExtension>
            <ns3:atemp>30.0</ns3:atemp>
            <ns3:hr>111</ns3:hr>
          </ns3:TrackPointExtension>
        </extensions>
      </trkpt>
      <trkpt lat="36.81420662440359592437744140625" lon="-118.42786959372460842132568359375">
        <ele>3314</ele>
        <time>2021-06-26T21:27:26.000Z</time>
        <extensions>
          <ns3:TrackPointExtension>
            <ns3:atemp>31.0</ns3:atemp>
            <ns3:hr>109</ns3:hr>
          </ns3:TrackPointExtension>
        </extensions>
      </trkpt>
      <trkpt lat="36.8142083846032619476318359375" lon="-118.42787914909422397613525390625">
        <ele>3314</ele>
        <time>2021-06-26T21:27:27.000Z</time>
        <extensions>
          <ns3:TrackPointExtension>
            <ns3:atemp>31.0</ns3:atemp>
            <ns3:hr>108</ns3:hr>
          </ns3:TrackPointExtension>
        </extensions>
      </trkpt>
      <trkpt lat="36.814216263592243194580078125" lon="-118.4278896264731884002685546875">
        <ele>3312.800048828125</ele>
        <time>2021-06-26T21:27:28.000Z</time>
        <extensions>
          <ns3:TrackPointExtension>
            <ns3:atemp>31.0</ns3:atemp>
            <ns3:hr>107</ns3:hr>
          </ns3:TrackPointExtension>
        </extensions>
      </trkpt>
      <trkpt lat="36.81422607041895389556884765625" lon="-118.42789457179605960845947265625">
        <ele>3312.800048828125</ele>
        <time>2021-06-26T21:27:29.000Z</time>
        <extensions>
          <ns3:TrackPointExtension>
            <ns3:atemp>31.0</ns3:atemp>
            <ns3:hr>107</ns3:hr>
          </ns3:TrackPointExtension>
        </extensions>
      </trkpt>
      <trkpt lat="36.8142392300069332122802734375" lon="-118.42789691872894763946533203125">
        <ele>3312.800048828125</ele>
        <time>2021-06-26T21:27:30.000Z</time>
        <extensions>
          <ns3:TrackPointExtension>
            <ns3:atemp>31.0</ns3:atemp>
            <ns3:hr>110</ns3:hr>
          </ns3:TrackPointExtension>
        </extensions>
      </trkpt>
      <trkpt lat="36.8142512999475002288818359375" lon="-118.42790043912827968597412109375">
        <ele>3312.60009765625</ele>
        <time>2021-06-26T21:27:31.000Z</time>
        <extensions>
          <ns3:TrackPointExtension>
            <ns3:atemp>31.0</ns3:atemp>
            <ns3:hr>108</ns3:hr>
          </ns3:TrackPointExtension>
        </extensions>
      </trkpt>
      <trkpt lat="36.81429111398756504058837890625" lon="-118.4278970025479793548583984375">
        <ele>3312.60009765625</ele>
        <time>2021-06-26T21:27:35.000Z</time>
        <extensions>
          <ns3:TrackPointExtension>
            <ns3:atemp>31.0</ns3:atemp>
            <ns3:hr>105</ns3:hr>
          </ns3:TrackPointExtension>
        </extensions>
      </trkpt>
      <trkpt lat="36.814338304102420806884765625" lon="-118.42787579633295536041259765625">
        <ele>3312.60009765625</ele>
        <time>2021-06-26T21:27:40.000Z</time>
        <extensions>
          <ns3:TrackPointExtension>
            <ns3:atemp>31.0</ns3:atemp>
            <ns3:hr>103</ns3:hr>
          </ns3:TrackPointExtension>
        </extensions>
      </trkpt>
      <trkpt lat="36.814358420670032501220703125" lon="-118.42787244357168674468994140625">
        <ele>3312.39990234375</ele>
        <time>2021-06-26T21:27:42.000Z</time>
        <extensions>
          <ns3:TrackPointExtension>
            <ns3:atemp>31.0</ns3:atemp>
            <ns3:hr>100</ns3:hr>
          </ns3:TrackPointExtension>
        </extensions>
      </trkpt>
      <trkpt lat="36.8144229613244533538818359375" lon="-118.42784813605248928070068359375">
        <ele>3311.60009765625</ele>
        <time>2021-06-26T21:27:48.000Z</time>
        <extensions>
          <ns3:TrackPointExtension>
            <ns3:atemp>31.0</ns3:atemp>
            <ns3:hr>102</ns3:hr>
          </ns3:TrackPointExtension>
        </extensions>
      </trkpt>
      <trkpt lat="36.81444634683430194854736328125" lon="-118.42784461565315723419189453125">
        <ele>3311.60009765625</ele>
        <time>2021-06-26T21:27:50.000Z</time>
        <extensions>
          <ns3:TrackPointExtension>
            <ns3:atemp>31.0</ns3:atemp>
            <ns3:hr>100</ns3:hr>
          </ns3:TrackPointExtension>
        </extensions>
      </trkpt>
      <trkpt lat="36.814470402896404266357421875" lon="-118.427844531834125518798828125">
        <ele>3311.39990234375</ele>
        <time>2021-06-26T21:27:52.000Z</time>
        <extensions>
          <ns3:TrackPointExtension>
            <ns3:atemp>31.0</ns3:atemp>
            <ns3:hr>103</ns3:hr>
          </ns3:TrackPointExtension>
        </extensions>
      </trkpt>
      <trkpt lat="36.81454718112945556640625" lon="-118.42783522792160511016845703125">
        <ele>3311</ele>
        <time>2021-06-26T21:27:59.000Z</time>
        <extensions>
          <ns3:TrackPointExtension>
            <ns3:atemp>31.0</ns3:atemp>
            <ns3:hr>101</ns3:hr>
          </ns3:TrackPointExtension>
        </extensions>
      </trkpt>
      <trkpt lat="36.81456754915416240692138671875" lon="-118.42782852239906787872314453125">
        <ele>3310.39990234375</ele>
        <time>2021-06-26T21:28:01.000Z</time>
        <extensions>
          <ns3:TrackPointExtension>
            <ns3:atemp>31.0</ns3:atemp>
            <ns3:hr>101</ns3:hr>
          </ns3:TrackPointExtension>
        </extensions>
      </trkpt>
      <trkpt lat="36.81463661603629589080810546875" lon="-118.4278202243149280548095703125">
        <ele>3311.39990234375</ele>
        <time>2021-06-26T21:28:08.000Z</time>
        <extensions>
          <ns3:TrackPointExtension>
            <ns3:atemp>31.0</ns3:atemp>
            <ns3:hr>101</ns3:hr>
          </ns3:TrackPointExtension>
        </extensions>
      </trkpt>
      <trkpt lat="36.814716160297393798828125" lon="-118.42784478329122066497802734375">
        <ele>3312</ele>
        <time>2021-06-26T21:28:17.000Z</time>
        <extensions>
          <ns3:TrackPointExtension>
            <ns3:atemp>31.0</ns3:atemp>
            <ns3:hr>101</ns3:hr>
          </ns3:TrackPointExtension>
        </extensions>
      </trkpt>
      <trkpt lat="36.8147334270179271697998046875" lon="-118.42785157263278961181640625">
        <ele>3312</ele>
        <time>2021-06-26T21:28:19.000Z</time>
        <extensions>
          <ns3:TrackPointExtension>
            <ns3:atemp>31.0</ns3:atemp>
            <ns3:hr>103</ns3:hr>
          </ns3:TrackPointExtension>
        </extensions>
      </trkpt>
      <trkpt lat="36.81478413753211498260498046875" lon="-118.42782131396234035491943359375">
        <ele>3312.60009765625</ele>
        <time>2021-06-26T21:28:25.000Z</time>
        <extensions>
          <ns3:TrackPointExtension>
            <ns3:atemp>31.0</ns3:atemp>
            <ns3:hr>104</ns3:hr>
          </ns3:TrackPointExtension>
        </extensions>
      </trkpt>
      <trkpt lat="36.8148001469671726226806640625" lon="-118.427804969251155853271484375">
        <ele>3312.800048828125</ele>
        <time>2021-06-26T21:28:28.000Z</time>
        <extensions>
          <ns3:TrackPointExtension>
            <ns3:atemp>31.0</ns3:atemp>
            <ns3:hr>107</ns3:hr>
          </ns3:TrackPointExtension>
        </extensions>
      </trkpt>
      <trkpt lat="36.8148055113852024078369140625" lon="-118.42780136503279209136962890625">
        <ele>3313</ele>
        <time>2021-06-26T21:28:30.000Z</time>
        <extensions>
          <ns3:TrackPointExtension>
            <ns3:atemp>31.0</ns3:atemp>
            <ns3:hr>110</ns3:hr>
          </ns3:TrackPointExtension>
        </extensions>
      </trkpt>
      <trkpt lat="36.81480467319488525390625" lon="-118.42779533006250858306884765625">
        <ele>3313</ele>
        <time>2021-06-26T21:28:32.000Z</time>
        <extensions>
          <ns3:TrackPointExtension>
            <ns3:atemp>31.0</ns3:atemp>
            <ns3:hr>113</ns3:hr>
          </ns3:TrackPointExtension>
        </extensions>
      </trkpt>
      <trkpt lat="36.81480467319488525390625" lon="-118.4277940727770328521728515625">
        <ele>3313</ele>
        <time>2021-06-26T21:28:34.000Z</time>
        <extensions>
          <ns3:TrackPointExtension>
            <ns3:atemp>31.0</ns3:atemp>
            <ns3:hr>115</ns3:hr>
          </ns3:TrackPointExtension>
        </extensions>
      </trkpt>
      <trkpt lat="36.8148340098559856414794921875" lon="-118.42778895981609821319580078125">
        <ele>3313.60009765625</ele>
        <time>2021-06-26T21:28:41.000Z</time>
        <extensions>
          <ns3:TrackPointExtension>
            <ns3:atemp>31.0</ns3:atemp>
            <ns3:hr>116</ns3:hr>
          </ns3:TrackPointExtension>
        </extensions>
      </trkpt>
      <trkpt lat="36.81486703455448150634765625" lon="-118.4277615509927272796630859375">
        <ele>3313.60009765625</ele>
        <time>2021-06-26T21:28:46.000Z</time>
        <extensions>
          <ns3:TrackPointExtension>
            <ns3:atemp>31.0</ns3:atemp>
            <ns3:hr>119</ns3:hr>
          </ns3:TrackPointExtension>
        </extensions>
      </trkpt>
      <trkpt lat="36.8148786015808582305908203125" lon="-118.4277397580444812774658203125">
        <ele>3313.60009765625</ele>
        <time>2021-06-26T21:28:48.000Z</time>
        <extensions>
          <ns3:TrackPointExtension>
            <ns3:atemp>31.0</ns3:atemp>
            <ns3:hr>123</ns3:hr>
          </ns3:TrackPointExtension>
        </extensions>
      </trkpt>
      <trkpt lat="36.81488924659788608551025390625" lon="-118.42771972529590129852294921875">
        <ele>3313.60009765625</ele>
        <time>2021-06-26T21:28:50.000Z</time>
        <extensions>
          <ns3:TrackPointExtension>
            <ns3:atemp>31.0</ns3:atemp>
            <ns3:hr>124</ns3:hr>
          </ns3:TrackPointExtension>
        </extensions>
      </trkpt>
      <trkpt lat="36.81490324437618255615234375" lon="-118.42767831869423389434814453125">
        <ele>3313.60009765625</ele>
        <time>2021-06-26T21:28:54.000Z</time>
        <extensions>
          <ns3:TrackPointExtension>
            <ns3:atemp>31.0</ns3:atemp>
            <ns3:hr>121</ns3:hr>
          </ns3:TrackPointExtension>
        </extensions>
      </trkpt>
      <trkpt lat="36.81490383110940456390380859375" lon="-118.4276572801172733306884765625">
        <ele>3313.39990234375</ele>
        <time>2021-06-26T21:28:56.000Z</time>
        <extensions>
          <ns3:TrackPointExtension>
            <ns3:atemp>31.0</ns3:atemp>
            <ns3:hr>118</ns3:hr>
          </ns3:TrackPointExtension>
        </extensions>
      </trkpt>
      <trkpt lat="36.8148953653872013092041015625" lon="-118.4276368282735347747802734375">
        <ele>3313.39990234375</ele>
        <time>2021-06-26T21:28:58.000Z</time>
        <extensions>
          <ns3:TrackPointExtension>
            <ns3:atemp>31.0</ns3:atemp>
            <ns3:hr>115</ns3:hr>
          </ns3:TrackPointExtension>
        </extensions>
      </trkpt>
      <trkpt lat="36.81488941423594951629638671875" lon="-118.427625931799411773681640625">
        <ele>3313.800048828125</ele>
        <time>2021-06-26T21:28:59.000Z</time>
        <extensions>
          <ns3:TrackPointExtension>
            <ns3:atemp>31.0</ns3:atemp>
            <ns3:hr>115</ns3:hr>
          </ns3:TrackPointExtension>
        </extensions>
      </trkpt>
      <trkpt lat="36.81486711837351322174072265625" lon="-118.42756348662078380584716796875">
        <ele>3312.60009765625</ele>
        <time>2021-06-26T21:29:06.000Z</time>
        <extensions>
          <ns3:TrackPointExtension>
            <ns3:atemp>31.0</ns3:atemp>
            <ns3:hr>115</ns3:hr>
          </ns3:TrackPointExtension>
        </extensions>
      </trkpt>
      <trkpt lat="36.81486292742192745208740234375" lon="-118.42755518853664398193359375">
        <ele>3312.39990234375</ele>
        <time>2021-06-26T21:29:07.000Z</time>
        <extensions>
          <ns3:TrackPointExtension>
            <ns3:atemp>31.0</ns3:atemp>
            <ns3:hr>115</ns3:hr>
          </ns3:TrackPointExtension>
        </extensions>
      </trkpt>
      <trkpt lat="36.81486041285097599029541015625" lon="-118.42750959098339080810546875">
        <ele>3311.60009765625</ele>
        <time>2021-06-26T21:29:11.000Z</time>
        <extensions>
          <ns3:TrackPointExtension>
            <ns3:atemp>31.0</ns3:atemp>
            <ns3:hr>115</ns3:hr>
          </ns3:TrackPointExtension>
        </extensions>
      </trkpt>
      <trkpt lat="36.81485655717551708221435546875" lon="-118.42748008668422698974609375">
        <ele>3310.39990234375</ele>
        <time>2021-06-26T21:29:14.000Z</time>
        <extensions>
          <ns3:TrackPointExtension>
            <ns3:atemp>31.0</ns3:atemp>
            <ns3:hr>117</ns3:hr>
          </ns3:TrackPointExtension>
        </extensions>
      </trkpt>
      <trkpt lat="36.81485756300389766693115234375" lon="-118.4274722076952457427978515625">
        <ele>3310.39990234375</ele>
        <time>2021-06-26T21:29:15.000Z</time>
        <extensions>
          <ns3:TrackPointExtension>
            <ns3:atemp>31.0</ns3:atemp>
            <ns3:hr>118</ns3:hr>
          </ns3:TrackPointExtension>
        </extensions>
      </trkpt>
      <trkpt lat="36.81489494629204273223876953125" lon="-118.42744412831962108612060546875">
        <ele>3309.199951171875</ele>
        <time>2021-06-26T21:29:22.000Z</time>
        <extensions>
          <ns3:TrackPointExtension>
            <ns3:atemp>31.0</ns3:atemp>
            <ns3:hr>118</ns3:hr>
          </ns3:TrackPointExtension>
        </extensions>
      </trkpt>
      <trkpt lat="36.814901567995548248291015625" lon="-118.42744513414800167083740234375">
        <ele>3309</ele>
        <time>2021-06-26T21:29:23.000Z</time>
        <extensions>
          <ns3:TrackPointExtension>
            <ns3:atemp>31.0</ns3:atemp>
            <ns3:hr>118</ns3:hr>
          </ns3:TrackPointExtension>
        </extensions>
      </trkpt>
      <trkpt lat="36.81494892574846744537353515625" lon="-118.42745167203247547149658203125">
        <ele>3308.39990234375</ele>
        <time>2021-06-26T21:29:28.000Z</time>
        <extensions>
          <ns3:TrackPointExtension>
            <ns3:atemp>31.0</ns3:atemp>
            <ns3:hr>117</ns3:hr>
          </ns3:TrackPointExtension>
        </extensions>
      </trkpt>
      <trkpt lat="36.814953871071338653564453125" lon="-118.42745217494666576385498046875">
        <ele>3308</ele>
        <time>2021-06-26T21:29:29.000Z</time>
        <extensions>
          <ns3:TrackPointExtension>
            <ns3:atemp>31.0</ns3:atemp>
            <ns3:hr>117</ns3:hr>
          </ns3:TrackPointExtension>
        </extensions>
      </trkpt>
      <trkpt lat="36.81497910059988498687744140625" lon="-118.42745368368923664093017578125">
        <ele>3307.39990234375</ele>
        <time>2021-06-26T21:29:32.000Z</time>
        <extensions>
          <ns3:TrackPointExtension>
            <ns3:atemp>31.0</ns3:atemp>
            <ns3:hr>117</ns3:hr>
          </ns3:TrackPointExtension>
        </extensions>
      </trkpt>
      <trkpt lat="36.815009526908397674560546875" lon="-118.42744496650993824005126953125">
        <ele>3306.800048828125</ele>
        <time>2021-06-26T21:29:36.000Z</time>
        <extensions>
          <ns3:TrackPointExtension>
            <ns3:atemp>31.0</ns3:atemp>
            <ns3:hr>116</ns3:hr>
          </ns3:TrackPointExtension>
        </extensions>
      </trkpt>
      <trkpt lat="36.8150314874947071075439453125" lon="-118.4274292923510074615478515625">
        <ele>3306</ele>
        <time>2021-06-26T21:29:39.000Z</time>
        <extensions>
          <ns3:TrackPointExtension>
            <ns3:atemp>31.0</ns3:atemp>
            <ns3:hr>116</ns3:hr>
          </ns3:TrackPointExtension>
        </extensions>
      </trkpt>
      <trkpt lat="36.81503911502659320831298828125" lon="-118.4274292923510074615478515625">
        <ele>3305.800048828125</ele>
        <time>2021-06-26T21:29:40.000Z</time>
        <extensions>
          <ns3:TrackPointExtension>
            <ns3:atemp>31.0</ns3:atemp>
            <ns3:hr>116</ns3:hr>
          </ns3:TrackPointExtension>
        </extensions>
      </trkpt>
      <trkpt lat="36.8150596506893634796142578125" lon="-118.427434824407100677490234375">
        <ele>3305.800048828125</ele>
        <time>2021-06-26T21:29:42.000Z</time>
        <extensions>
          <ns3:TrackPointExtension>
            <ns3:atemp>31.0</ns3:atemp>
            <ns3:hr>115</ns3:hr>
          </ns3:TrackPointExtension>
        </extensions>
      </trkpt>
      <trkpt lat="36.81508697569370269775390625" lon="-118.427432477474212646484375">
        <ele>3305</ele>
        <time>2021-06-26T21:29:45.000Z</time>
        <extensions>
          <ns3:TrackPointExtension>
            <ns3:atemp>31.0</ns3:atemp>
            <ns3:hr>112</ns3:hr>
          </ns3:TrackPointExtension>
        </extensions>
      </trkpt>
      <trkpt lat="36.815096698701381683349609375" lon="-118.42743306420743465423583984375">
        <ele>3305</ele>
        <time>2021-06-26T21:29:46.000Z</time>
        <extensions>
          <ns3:TrackPointExtension>
            <ns3:atemp>31.0</ns3:atemp>
            <ns3:hr>110</ns3:hr>
          </ns3:TrackPointExtension>
        </extensions>
      </trkpt>
      <trkpt lat="36.815118491649627685546875" lon="-118.4274266101419925689697265625">
        <ele>3304.60009765625</ele>
        <time>2021-06-26T21:29:48.000Z</time>
        <extensions>
          <ns3:TrackPointExtension>
            <ns3:atemp>31.0</ns3:atemp>
            <ns3:hr>106</ns3:hr>
          </ns3:TrackPointExtension>
        </extensions>
      </trkpt>
      <trkpt lat="36.8151558749377727508544921875" lon="-118.4274088405072689056396484375">
        <ele>3303.800048828125</ele>
        <time>2021-06-26T21:29:52.000Z</time>
        <extensions>
          <ns3:TrackPointExtension>
            <ns3:atemp>31.0</ns3:atemp>
            <ns3:hr>103</ns3:hr>
          </ns3:TrackPointExtension>
        </extensions>
      </trkpt>
      <trkpt lat="36.8151736445724964141845703125" lon="-118.427399285137653350830078125">
        <ele>3303.39990234375</ele>
        <time>2021-06-26T21:29:54.000Z</time>
        <extensions>
          <ns3:TrackPointExtension>
            <ns3:atemp>31.0</ns3:atemp>
            <ns3:hr>100</ns3:hr>
          </ns3:TrackPointExtension>
        </extensions>
      </trkpt>
      <trkpt lat="36.81519568897783756256103515625" lon="-118.42738629318773746490478515625">
        <ele>3303.39990234375</ele>
        <time>2021-06-26T21:29:56.000Z</time>
        <extensions>
          <ns3:TrackPointExtension>
            <ns3:atemp>31.0</ns3:atemp>
            <ns3:hr>100</ns3:hr>
          </ns3:TrackPointExtension>
        </extensions>
      </trkpt>
      <trkpt lat="36.81526207365095615386962890625" lon="-118.4273394383490085601806640625">
        <ele>3302.39990234375</ele>
        <time>2021-06-26T21:30:03.000Z</time>
        <extensions>
          <ns3:TrackPointExtension>
            <ns3:atemp>31.0</ns3:atemp>
            <ns3:hr>99</ns3:hr>
          </ns3:TrackPointExtension>
        </extensions>
      </trkpt>
      <trkpt lat="36.815282441675662994384765625" lon="-118.4273230098187923431396484375">
        <ele>3302.199951171875</ele>
        <time>2021-06-26T21:30:05.000Z</time>
        <extensions>
          <ns3:TrackPointExtension>
            <ns3:atemp>31.0</ns3:atemp>
            <ns3:hr>100</ns3:hr>
          </ns3:TrackPointExtension>
        </extensions>
      </trkpt>
      <trkpt lat="36.8153238482773303985595703125" lon="-118.42727028764784336090087890625">
        <ele>3302.199951171875</ele>
        <time>2021-06-26T21:30:10.000Z</time>
        <extensions>
          <ns3:TrackPointExtension>
            <ns3:atemp>31.0</ns3:atemp>
            <ns3:hr>97</ns3:hr>
          </ns3:TrackPointExtension>
        </extensions>
      </trkpt>
      <trkpt lat="36.81538227014243602752685546875" lon="-118.4272244386374950408935546875">
        <ele>3301.800048828125</ele>
        <time>2021-06-26T21:30:16.000Z</time>
        <extensions>
          <ns3:TrackPointExtension>
            <ns3:atemp>31.0</ns3:atemp>
            <ns3:hr>95</ns3:hr>
          </ns3:TrackPointExtension>
        </extensions>
      </trkpt>
      <trkpt lat="36.81542015634477138519287109375" lon="-118.42720138840377330780029296875">
        <ele>3301.800048828125</ele>
        <time>2021-06-26T21:30:20.000Z</time>
        <extensions>
          <ns3:TrackPointExtension>
            <ns3:atemp>31.0</ns3:atemp>
            <ns3:hr>92</ns3:hr>
          </ns3:TrackPointExtension>
        </extensions>
      </trkpt>
      <trkpt lat="36.81544094346463680267333984375" lon="-118.427185714244842529296875">
        <ele>3301.800048828125</ele>
        <time>2021-06-26T21:30:22.000Z</time>
        <extensions>
          <ns3:TrackPointExtension>
            <ns3:atemp>31.0</ns3:atemp>
            <ns3:hr>89</ns3:hr>
          </ns3:TrackPointExtension>
        </extensions>
      </trkpt>
      <trkpt lat="36.8154867924749851226806640625" lon="-118.4271550364792346954345703125">
        <ele>3302</ele>
        <time>2021-06-26T21:30:27.000Z</time>
        <extensions>
          <ns3:TrackPointExtension>
            <ns3:atemp>31.0</ns3:atemp>
            <ns3:hr>92</ns3:hr>
          </ns3:TrackPointExtension>
        </extensions>
      </trkpt>
      <trkpt lat="36.815570779144763946533203125" lon="-118.42708856798708438873291015625">
        <ele>3302.39990234375</ele>
        <time>2021-06-26T21:30:37.000Z</time>
        <extensions>
          <ns3:TrackPointExtension>
            <ns3:atemp>31.0</ns3:atemp>
            <ns3:hr>93</ns3:hr>
          </ns3:TrackPointExtension>
        </extensions>
      </trkpt>
      <trkpt lat="36.81563221849501132965087890625" lon="-118.4270125441253185272216796875">
        <ele>3303.199951171875</ele>
        <time>2021-06-26T21:30:46.000Z</time>
        <extensions>
          <ns3:TrackPointExtension>
            <ns3:atemp>31.0</ns3:atemp>
            <ns3:hr>96</ns3:hr>
          </ns3:TrackPointExtension>
        </extensions>
      </trkpt>
      <trkpt lat="36.81563724763691425323486328125" lon="-118.42700340785086154937744140625">
        <ele>3303.39990234375</ele>
        <time>2021-06-26T21:30:47.000Z</time>
        <extensions>
          <ns3:TrackPointExtension>
            <ns3:atemp>31.0</ns3:atemp>
            <ns3:hr>96</ns3:hr>
          </ns3:TrackPointExtension>
        </extensions>
      </trkpt>
      <trkpt lat="36.8156426958739757537841796875" lon="-118.42699460685253143310546875">
        <ele>3303.60009765625</ele>
        <time>2021-06-26T21:30:48.000Z</time>
        <extensions>
          <ns3:TrackPointExtension>
            <ns3:atemp>31.0</ns3:atemp>
            <ns3:hr>97</ns3:hr>
          </ns3:TrackPointExtension>
        </extensions>
      </trkpt>
      <trkpt lat="36.81564965285360813140869140625" lon="-118.4269847162067890167236328125">
        <ele>3303.800048828125</ele>
        <time>2021-06-26T21:30:49.000Z</time>
        <extensions>
          <ns3:TrackPointExtension>
            <ns3:atemp>31.0</ns3:atemp>
            <ns3:hr>101</ns3:hr>
          </ns3:TrackPointExtension>
        </extensions>
      </trkpt>
      <trkpt lat="36.8156889639794826507568359375" lon="-118.42689779587090015411376953125">
        <ele>3304.39990234375</ele>
        <time>2021-06-26T21:30:58.000Z</time>
        <extensions>
          <ns3:TrackPointExtension>
            <ns3:atemp>31.0</ns3:atemp>
            <ns3:hr>100</ns3:hr>
          </ns3:TrackPointExtension>
        </extensions>
      </trkpt>
      <trkpt lat="36.8157037161290645599365234375" lon="-118.42688119970262050628662109375">
        <ele>3304.39990234375</ele>
        <time>2021-06-26T21:31:00.000Z</time>
        <extensions>
          <ns3:TrackPointExtension>
            <ns3:atemp>31.0</ns3:atemp>
            <ns3:hr>100</ns3:hr>
          </ns3:TrackPointExtension>
        </extensions>
      </trkpt>
      <trkpt lat="36.81572006084024906158447265625" lon="-118.426865525543689727783203125">
        <ele>3304.39990234375</ele>
        <time>2021-06-26T21:31:02.000Z</time>
        <extensions>
          <ns3:TrackPointExtension>
            <ns3:atemp>31.0</ns3:atemp>
            <ns3:hr>103</ns3:hr>
          </ns3:TrackPointExtension>
        </extensions>
      </trkpt>
      <trkpt lat="36.81573070585727691650390625" lon="-118.42685588635504245758056640625">
        <ele>3304.39990234375</ele>
        <time>2021-06-26T21:31:03.000Z</time>
        <extensions>
          <ns3:TrackPointExtension>
            <ns3:atemp>31.0</ns3:atemp>
            <ns3:hr>100</ns3:hr>
          </ns3:TrackPointExtension>
        </extensions>
      </trkpt>
      <trkpt lat="36.81574545800685882568359375" lon="-118.4268449060618877410888671875">
        <ele>3304.60009765625</ele>
        <time>2021-06-26T21:31:05.000Z</time>
        <extensions>
          <ns3:TrackPointExtension>
            <ns3:atemp>31.0</ns3:atemp>
            <ns3:hr>101</ns3:hr>
          </ns3:TrackPointExtension>
        </extensions>
      </trkpt>
      <trkpt lat="36.81578292511403560638427734375" lon="-118.42680643312633037567138671875">
        <ele>3304.60009765625</ele>
        <time>2021-06-26T21:31:10.000Z</time>
        <extensions>
          <ns3:TrackPointExtension>
            <ns3:atemp>31.0</ns3:atemp>
            <ns3:hr>101</ns3:hr>
          </ns3:TrackPointExtension>
        </extensions>
      </trkpt>
      <trkpt lat="36.8158478848636150360107421875" lon="-118.42675899155437946319580078125">
        <ele>3303.60009765625</ele>
        <time>2021-06-26T21:31:18.000Z</time>
        <extensions>
          <ns3:TrackPointExtension>
            <ns3:atemp>31.0</ns3:atemp>
            <ns3:hr>104</ns3:hr>
          </ns3:TrackPointExtension>
        </extensions>
      </trkpt>
      <trkpt lat="36.81586615741252899169921875" lon="-118.42674507759511470794677734375">
        <ele>3303.60009765625</ele>
        <time>2021-06-26T21:31:20.000Z</time>
        <extensions>
          <ns3:TrackPointExtension>
            <ns3:atemp>31.0</ns3:atemp>
            <ns3:hr>103</ns3:hr>
          </ns3:TrackPointExtension>
        </extensions>
      </trkpt>
      <trkpt lat="36.8158810772001743316650390625" lon="-118.42673317529261112213134765625">
        <ele>3303.39990234375</ele>
        <time>2021-06-26T21:31:22.000Z</time>
        <extensions>
          <ns3:TrackPointExtension>
            <ns3:atemp>31.0</ns3:atemp>
            <ns3:hr>103</ns3:hr>
          </ns3:TrackPointExtension>
        </extensions>
      </trkpt>
      <trkpt lat="36.81593245826661586761474609375" lon="-118.4266705624759197235107421875">
        <ele>3302.39990234375</ele>
        <time>2021-06-26T21:31:29.000Z</time>
        <extensions>
          <ns3:TrackPointExtension>
            <ns3:atemp>31.0</ns3:atemp>
            <ns3:hr>104</ns3:hr>
          </ns3:TrackPointExtension>
        </extensions>
      </trkpt>
      <trkpt lat="36.8159379065036773681640625" lon="-118.42666142620146274566650390625">
        <ele>3302.39990234375</ele>
        <time>2021-06-26T21:31:30.000Z</time>
        <extensions>
          <ns3:TrackPointExtension>
            <ns3:atemp>31.0</ns3:atemp>
            <ns3:hr>104</ns3:hr>
          </ns3:TrackPointExtension>
        </extensions>
      </trkpt>
      <trkpt lat="36.8160044588148593902587890625" lon="-118.42658347450196743011474609375">
        <ele>3301.199951171875</ele>
        <time>2021-06-26T21:31:38.000Z</time>
        <extensions>
          <ns3:TrackPointExtension>
            <ns3:atemp>31.0</ns3:atemp>
            <ns3:hr>106</ns3:hr>
          </ns3:TrackPointExtension>
        </extensions>
      </trkpt>
      <trkpt lat="36.81603186763823032379150390625" lon="-118.42654039151966571807861328125">
        <ele>3301.199951171875</ele>
        <time>2021-06-26T21:31:42.000Z</time>
        <extensions>
          <ns3:TrackPointExtension>
            <ns3:atemp>31.0</ns3:atemp>
            <ns3:hr>107</ns3:hr>
          </ns3:TrackPointExtension>
        </extensions>
      </trkpt>
      <trkpt lat="36.81608769111335277557373046875" lon="-118.42649010010063648223876953125">
        <ele>3301.60009765625</ele>
        <time>2021-06-26T21:31:50.000Z</time>
        <extensions>
          <ns3:TrackPointExtension>
            <ns3:atemp>31.0</ns3:atemp>
            <ns3:hr>105</ns3:hr>
          </ns3:TrackPointExtension>
        </extensions>
      </trkpt>
      <trkpt lat="36.81609607301652431488037109375" lon="-118.4264861606061458587646484375">
        <ele>3301.60009765625</ele>
        <time>2021-06-26T21:31:51.000Z</time>
        <extensions>
          <ns3:TrackPointExtension>
            <ns3:atemp>31.0</ns3:atemp>
            <ns3:hr>104</ns3:hr>
          </ns3:TrackPointExtension>
        </extensions>
      </trkpt>
      <trkpt lat="36.81612876243889331817626953125" lon="-118.42641198076307773590087890625">
        <ele>3300.60009765625</ele>
        <time>2021-06-26T21:31:59.000Z</time>
        <extensions>
          <ns3:TrackPointExtension>
            <ns3:atemp>31.0</ns3:atemp>
            <ns3:hr>103</ns3:hr>
          </ns3:TrackPointExtension>
        </extensions>
      </trkpt>
      <trkpt lat="36.8161435984075069427490234375" lon="-118.42637409456074237823486328125">
        <ele>3300</ele>
        <time>2021-06-26T21:32:02.000Z</time>
        <extensions>
          <ns3:TrackPointExtension>
            <ns3:atemp>31.0</ns3:atemp>
            <ns3:hr>103</ns3:hr>
          </ns3:TrackPointExtension>
        </extensions>
      </trkpt>
      <trkpt lat="36.8161556683480739593505859375" lon="-118.4263528883457183837890625">
        <ele>3299.199951171875</ele>
        <time>2021-06-26T21:32:06.000Z</time>
        <extensions>
          <ns3:TrackPointExtension>
            <ns3:atemp>31.0</ns3:atemp>
            <ns3:hr>102</ns3:hr>
          </ns3:TrackPointExtension>
        </extensions>
      </trkpt>
      <trkpt lat="36.81615457870066165924072265625" lon="-118.42635196633636951446533203125">
        <ele>3298.800048828125</ele>
        <time>2021-06-26T21:32:07.000Z</time>
        <extensions>
          <ns3:TrackPointExtension>
            <ns3:atemp>31.0</ns3:atemp>
            <ns3:hr>102</ns3:hr>
          </ns3:TrackPointExtension>
        </extensions>
      </trkpt>
      <trkpt lat="36.816164888441562652587890625" lon="-118.42634844593703746795654296875">
        <ele>3299.39990234375</ele>
        <time>2021-06-26T21:32:18.000Z</time>
        <extensions>
          <ns3:TrackPointExtension>
            <ns3:atemp>31.0</ns3:atemp>
            <ns3:hr>99</ns3:hr>
          </ns3:TrackPointExtension>
        </extensions>
      </trkpt>
      <trkpt lat="36.81618223898112773895263671875" lon="-118.42631156556308269500732421875">
        <ele>3298.800048828125</ele>
        <time>2021-06-26T21:32:25.000Z</time>
        <extensions>
          <ns3:TrackPointExtension>
            <ns3:atemp>31.0</ns3:atemp>
            <ns3:hr>95</ns3:hr>
          </ns3:TrackPointExtension>
        </extensions>
      </trkpt>
      <trkpt lat="36.81619531475007534027099609375" lon="-118.42627099715173244476318359375">
        <ele>3298.800048828125</ele>
        <time>2021-06-26T21:32:29.000Z</time>
        <extensions>
          <ns3:TrackPointExtension>
            <ns3:atemp>31.0</ns3:atemp>
            <ns3:hr>92</ns3:hr>
          </ns3:TrackPointExtension>
        </extensions>
      </trkpt>
      <trkpt lat="36.81621056981384754180908203125" lon="-118.42622305266559123992919921875">
        <ele>3298.800048828125</ele>
        <time>2021-06-26T21:32:33.000Z</time>
        <extensions>
          <ns3:TrackPointExtension>
            <ns3:atemp>31.0</ns3:atemp>
            <ns3:hr>91</ns3:hr>
          </ns3:TrackPointExtension>
        </extensions>
      </trkpt>
      <trkpt lat="36.81621358729898929595947265625" lon="-118.4261884354054927825927734375">
        <ele>3299.199951171875</ele>
        <time>2021-06-26T21:32:36.000Z</time>
        <extensions>
          <ns3:TrackPointExtension>
            <ns3:atemp>31.0</ns3:atemp>
            <ns3:hr>94</ns3:hr>
          </ns3:TrackPointExtension>
        </extensions>
      </trkpt>
      <trkpt lat="36.81621861644089221954345703125" lon="-118.4261570870876312255859375">
        <ele>3299.199951171875</ele>
        <time>2021-06-26T21:32:40.000Z</time>
        <extensions>
          <ns3:TrackPointExtension>
            <ns3:atemp>31.0</ns3:atemp>
            <ns3:hr>97</ns3:hr>
          </ns3:TrackPointExtension>
        </extensions>
      </trkpt>
      <trkpt lat="36.81622331030666828155517578125" lon="-118.4261532314121723175048828125">
        <ele>3299.199951171875</ele>
        <time>2021-06-26T21:32:41.000Z</time>
        <extensions>
          <ns3:TrackPointExtension>
            <ns3:atemp>31.0</ns3:atemp>
            <ns3:hr>97</ns3:hr>
          </ns3:TrackPointExtension>
        </extensions>
      </trkpt>
      <trkpt lat="36.81624057702720165252685546875" lon="-118.42613638378679752349853515625">
        <ele>3299.199951171875</ele>
        <time>2021-06-26T21:32:43.000Z</time>
        <extensions>
          <ns3:TrackPointExtension>
            <ns3:atemp>31.0</ns3:atemp>
            <ns3:hr>100</ns3:hr>
          </ns3:TrackPointExtension>
        </extensions>
      </trkpt>
      <trkpt lat="36.81625935249030590057373046875" lon="-118.42607938684523105621337890625">
        <ele>3298.800048828125</ele>
        <time>2021-06-26T21:32:48.000Z</time>
        <extensions>
          <ns3:TrackPointExtension>
            <ns3:atemp>31.0</ns3:atemp>
            <ns3:hr>100</ns3:hr>
          </ns3:TrackPointExtension>
        </extensions>
      </trkpt>
      <trkpt lat="36.816254071891307830810546875" lon="-118.42606798745691776275634765625">
        <ele>3299.199951171875</ele>
        <time>2021-06-26T21:32:52.000Z</time>
        <extensions>
          <ns3:TrackPointExtension>
            <ns3:atemp>31.0</ns3:atemp>
            <ns3:hr>100</ns3:hr>
          </ns3:TrackPointExtension>
        </extensions>
      </trkpt>
      <trkpt lat="36.81625063531100749969482421875" lon="-118.42606882564723491668701171875">
        <ele>3298.800048828125</ele>
        <time>2021-06-26T21:32:55.000Z</time>
        <extensions>
          <ns3:TrackPointExtension>
            <ns3:atemp>31.0</ns3:atemp>
            <ns3:hr>100</ns3:hr>
          </ns3:TrackPointExtension>
        </extensions>
      </trkpt>
      <trkpt lat="36.8162394873797893524169921875" lon="-118.4260958991944789886474609375">
        <ele>3299</ele>
        <time>2021-06-26T21:33:05.000Z</time>
        <extensions>
          <ns3:TrackPointExtension>
            <ns3:atemp>31.0</ns3:atemp>
            <ns3:hr>99</ns3:hr>
          </ns3:TrackPointExtension>
        </extensions>
      </trkpt>
      <trkpt lat="36.8162394873797893524169921875" lon="-118.4260958991944789886474609375">
        <ele>3298.60009765625</ele>
        <time>2021-06-26T21:33:17.000Z</time>
        <extensions>
          <ns3:TrackPointExtension>
            <ns3:atemp>31.0</ns3:atemp>
            <ns3:hr>95</ns3:hr>
          </ns3:TrackPointExtension>
        </extensions>
      </trkpt>
      <trkpt lat="36.8162398226559162139892578125" lon="-118.4260958991944789886474609375">
        <ele>3298.60009765625</ele>
        <time>2021-06-26T21:33:23.000Z</time>
        <extensions>
          <ns3:TrackPointExtension>
            <ns3:atemp>31.0</ns3:atemp>
            <ns3:hr>92</ns3:hr>
          </ns3:TrackPointExtension>
        </extensions>
      </trkpt>
      <trkpt lat="36.816234625875949859619140625" lon="-118.42603831551969051361083984375">
        <ele>3298.60009765625</ele>
        <time>2021-06-26T21:33:29.000Z</time>
        <extensions>
          <ns3:TrackPointExtension>
            <ns3:atemp>31.0</ns3:atemp>
            <ns3:hr>89</ns3:hr>
          </ns3:TrackPointExtension>
        </extensions>
      </trkpt>
      <trkpt lat="36.81623789481818675994873046875" lon="-118.42600864358246326446533203125">
        <ele>3298.60009765625</ele>
        <time>2021-06-26T21:33:31.000Z</time>
        <extensions>
          <ns3:TrackPointExtension>
            <ns3:atemp>31.0</ns3:atemp>
            <ns3:hr>90</ns3:hr>
          </ns3:TrackPointExtension>
        </extensions>
      </trkpt>
      <trkpt lat="36.8162720091640949249267578125" lon="-118.42590940184891223907470703125">
        <ele>3298.60009765625</ele>
        <time>2021-06-26T21:33:39.000Z</time>
        <extensions>
          <ns3:TrackPointExtension>
            <ns3:atemp>31.0</ns3:atemp>
            <ns3:hr>89</ns3:hr>
          </ns3:TrackPointExtension>
        </extensions>
      </trkpt>
      <trkpt lat="36.8162686564028263092041015625" lon="-118.42589548788964748382568359375">
        <ele>3299.39990234375</ele>
        <time>2021-06-26T21:33:42.000Z</time>
        <extensions>
          <ns3:TrackPointExtension>
            <ns3:atemp>31.0</ns3:atemp>
            <ns3:hr>89</ns3:hr>
          </ns3:TrackPointExtension>
        </extensions>
      </trkpt>
      <trkpt lat="36.81626840494573116302490234375" lon="-118.42589490115642547607421875">
        <ele>3299.39990234375</ele>
        <time>2021-06-26T21:33:43.000Z</time>
        <extensions>
          <ns3:TrackPointExtension>
            <ns3:atemp>31.0</ns3:atemp>
            <ns3:hr>91</ns3:hr>
          </ns3:TrackPointExtension>
        </extensions>
      </trkpt>
      <trkpt lat="36.8162669800221920013427734375" lon="-118.4258920513093471527099609375">
        <ele>3299.39990234375</ele>
        <time>2021-06-26T21:33:44.000Z</time>
        <extensions>
          <ns3:TrackPointExtension>
            <ns3:atemp>31.0</ns3:atemp>
            <ns3:hr>88</ns3:hr>
          </ns3:TrackPointExtension>
        </extensions>
      </trkpt>
      <trkpt lat="36.81624745018780231475830078125" lon="-118.42586615122854709625244140625">
        <ele>3299</ele>
        <time>2021-06-26T21:33:54.000Z</time>
        <extensions>
          <ns3:TrackPointExtension>
            <ns3:atemp>31.0</ns3:atemp>
            <ns3:hr>91</ns3:hr>
          </ns3:TrackPointExtension>
        </extensions>
      </trkpt>
      <trkpt lat="36.816221885383129119873046875" lon="-118.42584393918514251708984375">
        <ele>3300.199951171875</ele>
        <time>2021-06-26T21:33:58.000Z</time>
        <extensions>
          <ns3:TrackPointExtension>
            <ns3:atemp>31.0</ns3:atemp>
            <ns3:hr>94</ns3:hr>
          </ns3:TrackPointExtension>
        </extensions>
      </trkpt>
      <trkpt lat="36.81619900278747081756591796875" lon="-118.42583077959716320037841796875">
        <ele>3300.60009765625</ele>
        <time>2021-06-26T21:34:01.000Z</time>
        <extensions>
          <ns3:TrackPointExtension>
            <ns3:atemp>31.0</ns3:atemp>
            <ns3:hr>95</ns3:hr>
          </ns3:TrackPointExtension>
        </extensions>
      </trkpt>
      <trkpt lat="36.81614418514072895050048828125" lon="-118.42582843266427516937255859375">
        <ele>3301.39990234375</ele>
        <time>2021-06-26T21:34:07.000Z</time>
        <extensions>
          <ns3:TrackPointExtension>
            <ns3:atemp>31.0</ns3:atemp>
            <ns3:hr>94</ns3:hr>
          </ns3:TrackPointExtension>
        </extensions>
      </trkpt>
      <trkpt lat="36.81611937470734119415283203125" lon="-118.42584192752838134765625">
        <ele>3301.39990234375</ele>
        <time>2021-06-26T21:34:10.000Z</time>
        <extensions>
          <ns3:TrackPointExtension>
            <ns3:atemp>31.0</ns3:atemp>
            <ns3:hr>96</ns3:hr>
          </ns3:TrackPointExtension>
        </extensions>
      </trkpt>
      <trkpt lat="36.8160725198686122894287109375" lon="-118.4258566796779632568359375">
        <ele>3302.39990234375</ele>
        <time>2021-06-26T21:34:16.000Z</time>
        <extensions>
          <ns3:TrackPointExtension>
            <ns3:atemp>31.0</ns3:atemp>
            <ns3:hr>96</ns3:hr>
          </ns3:TrackPointExtension>
        </extensions>
      </trkpt>
      <trkpt lat="36.81606589816510677337646484375" lon="-118.425858020782470703125">
        <ele>3302.39990234375</ele>
        <time>2021-06-26T21:34:17.000Z</time>
        <extensions>
          <ns3:TrackPointExtension>
            <ns3:atemp>31.0</ns3:atemp>
            <ns3:hr>96</ns3:hr>
          </ns3:TrackPointExtension>
        </extensions>
      </trkpt>
      <trkpt lat="36.81604309938848018646240234375" lon="-118.4258608706295490264892578125">
        <ele>3302.60009765625</ele>
        <time>2021-06-26T21:34:20.000Z</time>
        <extensions>
          <ns3:TrackPointExtension>
            <ns3:atemp>31.0</ns3:atemp>
            <ns3:hr>97</ns3:hr>
          </ns3:TrackPointExtension>
        </extensions>
      </trkpt>
      <trkpt lat="36.8160242401063442230224609375" lon="-118.42584117315709590911865234375">
        <ele>3303</ele>
        <time>2021-06-26T21:34:23.000Z</time>
        <extensions>
          <ns3:TrackPointExtension>
            <ns3:atemp>31.0</ns3:atemp>
            <ns3:hr>100</ns3:hr>
          </ns3:TrackPointExtension>
        </extensions>
      </trkpt>
      <trkpt lat="36.81601828895509243011474609375" lon="-118.42582792975008487701416015625">
        <ele>3303</ele>
        <time>2021-06-26T21:34:24.000Z</time>
        <extensions>
          <ns3:TrackPointExtension>
            <ns3:atemp>31.0</ns3:atemp>
            <ns3:hr>100</ns3:hr>
          </ns3:TrackPointExtension>
        </extensions>
      </trkpt>
      <trkpt lat="36.8160125054419040679931640625" lon="-118.42581653036177158355712890625">
        <ele>3303</ele>
        <time>2021-06-26T21:34:25.000Z</time>
        <extensions>
          <ns3:TrackPointExtension>
            <ns3:atemp>31.0</ns3:atemp>
            <ns3:hr>100</ns3:hr>
          </ns3:TrackPointExtension>
        </extensions>
      </trkpt>
      <trkpt lat="36.81600068695843219757080078125" lon="-118.425780236721038818359375">
        <ele>3303</ele>
        <time>2021-06-26T21:34:28.000Z</time>
        <extensions>
          <ns3:TrackPointExtension>
            <ns3:atemp>31.0</ns3:atemp>
            <ns3:hr>103</ns3:hr>
          </ns3:TrackPointExtension>
        </extensions>
      </trkpt>
      <trkpt lat="36.81598417460918426513671875" lon="-118.4257467091083526611328125">
        <ele>3303</ele>
        <time>2021-06-26T21:34:32.000Z</time>
        <extensions>
          <ns3:TrackPointExtension>
            <ns3:atemp>31.0</ns3:atemp>
            <ns3:hr>106</ns3:hr>
          </ns3:TrackPointExtension>
        </extensions>
      </trkpt>
      <trkpt lat="36.815985180437564849853515625" lon="-118.4257418476045131683349609375">
        <ele>3303.199951171875</ele>
        <time>2021-06-26T21:34:33.000Z</time>
        <extensions>
          <ns3:TrackPointExtension>
            <ns3:atemp>31.0</ns3:atemp>
            <ns3:hr>106</ns3:hr>
          </ns3:TrackPointExtension>
        </extensions>
      </trkpt>
      <trkpt lat="36.81597671471536159515380859375" lon="-118.42563011683523654937744140625">
        <ele>3303.39990234375</ele>
        <time>2021-06-26T21:34:42.000Z</time>
        <extensions>
          <ns3:TrackPointExtension>
            <ns3:atemp>31.0</ns3:atemp>
            <ns3:hr>107</ns3:hr>
          </ns3:TrackPointExtension>
        </extensions>
      </trkpt>
      <trkpt lat="36.8159793131053447723388671875" lon="-118.42561854980885982513427734375">
        <ele>3303.60009765625</ele>
        <time>2021-06-26T21:34:43.000Z</time>
        <extensions>
          <ns3:TrackPointExtension>
            <ns3:atemp>31.0</ns3:atemp>
            <ns3:hr>105</ns3:hr>
          </ns3:TrackPointExtension>
        </extensions>
      </trkpt>
      <trkpt lat="36.8159833364188671112060546875" lon="-118.42556172050535678863525390625">
        <ele>3303.60009765625</ele>
        <time>2021-06-26T21:34:48.000Z</time>
        <extensions>
          <ns3:TrackPointExtension>
            <ns3:atemp>31.0</ns3:atemp>
            <ns3:hr>111</ns3:hr>
          </ns3:TrackPointExtension>
        </extensions>
      </trkpt>
      <trkpt lat="36.81597403250634670257568359375" lon="-118.4255215711891651153564453125">
        <ele>3303.60009765625</ele>
        <time>2021-06-26T21:34:51.000Z</time>
        <extensions>
          <ns3:TrackPointExtension>
            <ns3:atemp>31.0</ns3:atemp>
            <ns3:hr>114</ns3:hr>
          </ns3:TrackPointExtension>
        </extensions>
      </trkpt>
      <trkpt lat="36.815970428287982940673828125" lon="-118.42551042325794696807861328125">
        <ele>3303.60009765625</ele>
        <time>2021-06-26T21:34:52.000Z</time>
        <extensions>
          <ns3:TrackPointExtension>
            <ns3:atemp>31.0</ns3:atemp>
            <ns3:hr>116</ns3:hr>
          </ns3:TrackPointExtension>
        </extensions>
      </trkpt>
      <trkpt lat="36.81593715213239192962646484375" lon="-118.42549064196646213531494140625">
        <ele>3304.39990234375</ele>
        <time>2021-06-26T21:34:56.000Z</time>
        <extensions>
          <ns3:TrackPointExtension>
            <ns3:atemp>31.0</ns3:atemp>
            <ns3:hr>119</ns3:hr>
          </ns3:TrackPointExtension>
        </extensions>
      </trkpt>
      <trkpt lat="36.81590898893773555755615234375" lon="-118.42549231834709644317626953125">
        <ele>3304.39990234375</ele>
        <time>2021-06-26T21:34:59.000Z</time>
        <extensions>
          <ns3:TrackPointExtension>
            <ns3:atemp>31.0</ns3:atemp>
            <ns3:hr>118</ns3:hr>
          </ns3:TrackPointExtension>
        </extensions>
      </trkpt>
      <trkpt lat="36.815892644226551055908203125" lon="-118.42549952678382396697998046875">
        <ele>3304.800048828125</ele>
        <time>2021-06-26T21:35:01.000Z</time>
        <extensions>
          <ns3:TrackPointExtension>
            <ns3:atemp>31.0</ns3:atemp>
            <ns3:hr>115</ns3:hr>
          </ns3:TrackPointExtension>
        </extensions>
      </trkpt>
      <trkpt lat="36.815845705568790435791015625" lon="-118.42549315653741359710693359375">
        <ele>3305.60009765625</ele>
        <time>2021-06-26T21:35:07.000Z</time>
        <extensions>
          <ns3:TrackPointExtension>
            <ns3:atemp>31.0</ns3:atemp>
            <ns3:hr>113</ns3:hr>
          </ns3:TrackPointExtension>
        </extensions>
      </trkpt>
      <trkpt lat="36.81577789597213268280029296875" lon="-118.42546314932405948638916015625">
        <ele>3305.39990234375</ele>
        <time>2021-06-26T21:35:15.000Z</time>
        <extensions>
          <ns3:TrackPointExtension>
            <ns3:atemp>31.0</ns3:atemp>
            <ns3:hr>111</ns3:hr>
          </ns3:TrackPointExtension>
        </extensions>
      </trkpt>
      <trkpt lat="36.8157608807086944580078125" lon="-118.42542819678783416748046875">
        <ele>3304.800048828125</ele>
        <time>2021-06-26T21:35:18.000Z</time>
        <extensions>
          <ns3:TrackPointExtension>
            <ns3:atemp>31.0</ns3:atemp>
            <ns3:hr>111</ns3:hr>
          </ns3:TrackPointExtension>
        </extensions>
      </trkpt>
      <trkpt lat="36.8157152831554412841796875" lon="-118.4254015423357486724853515625">
        <ele>3305</ele>
        <time>2021-06-26T21:35:23.000Z</time>
        <extensions>
          <ns3:TrackPointExtension>
            <ns3:atemp>31.0</ns3:atemp>
            <ns3:hr>110</ns3:hr>
          </ns3:TrackPointExtension>
        </extensions>
      </trkpt>
      <trkpt lat="36.815687119960784912109375" lon="-118.42540967278182506561279296875">
        <ele>3305.199951171875</ele>
        <time>2021-06-26T21:35:26.000Z</time>
        <extensions>
          <ns3:TrackPointExtension>
            <ns3:atemp>31.0</ns3:atemp>
            <ns3:hr>107</ns3:hr>
          </ns3:TrackPointExtension>
        </extensions>
      </trkpt>
      <trkpt lat="36.81565920822322368621826171875" lon="-118.42540816403925418853759765625">
        <ele>3305</ele>
        <time>2021-06-26T21:35:30.000Z</time>
        <extensions>
          <ns3:TrackPointExtension>
            <ns3:atemp>31.0</ns3:atemp>
            <ns3:hr>105</ns3:hr>
          </ns3:TrackPointExtension>
        </extensions>
      </trkpt>
      <trkpt lat="36.8156562745571136474609375" lon="-118.42539827339351177215576171875">
        <ele>3304</ele>
        <time>2021-06-26T21:35:31.000Z</time>
        <extensions>
          <ns3:TrackPointExtension>
            <ns3:atemp>31.0</ns3:atemp>
            <ns3:hr>105</ns3:hr>
          </ns3:TrackPointExtension>
        </extensions>
      </trkpt>
      <trkpt lat="36.8156494013965129852294921875" lon="-118.42537379823625087738037109375">
        <ele>3304</ele>
        <time>2021-06-26T21:35:33.000Z</time>
        <extensions>
          <ns3:TrackPointExtension>
            <ns3:atemp>31.0</ns3:atemp>
            <ns3:hr>102</ns3:hr>
          </ns3:TrackPointExtension>
        </extensions>
      </trkpt>
      <trkpt lat="36.81564244441688060760498046875" lon="-118.4253515861928462982177734375">
        <ele>3304</ele>
        <time>2021-06-26T21:35:36.000Z</time>
        <extensions>
          <ns3:TrackPointExtension>
            <ns3:atemp>31.0</ns3:atemp>
            <ns3:hr>99</ns3:hr>
          </ns3:TrackPointExtension>
        </extensions>
      </trkpt>
      <trkpt lat="36.8156413547694683074951171875" lon="-118.42533968389034271240234375">
        <ele>3304.199951171875</ele>
        <time>2021-06-26T21:35:37.000Z</time>
        <extensions>
          <ns3:TrackPointExtension>
            <ns3:atemp>31.0</ns3:atemp>
            <ns3:hr>99</ns3:hr>
          </ns3:TrackPointExtension>
        </extensions>
      </trkpt>
      <trkpt lat="36.81568250991404056549072265625" lon="-118.42530489899218082427978515625">
        <ele>3304.39990234375</ele>
        <time>2021-06-26T21:35:43.000Z</time>
        <extensions>
          <ns3:TrackPointExtension>
            <ns3:atemp>31.0</ns3:atemp>
            <ns3:hr>99</ns3:hr>
          </ns3:TrackPointExtension>
        </extensions>
      </trkpt>
      <trkpt lat="36.81570011191070079803466796875" lon="-118.4252992831170558929443359375">
        <ele>3304</ele>
        <time>2021-06-26T21:35:45.000Z</time>
        <extensions>
          <ns3:TrackPointExtension>
            <ns3:atemp>31.0</ns3:atemp>
            <ns3:hr>98</ns3:hr>
          </ns3:TrackPointExtension>
        </extensions>
      </trkpt>
      <trkpt lat="36.81570732034742832183837890625" lon="-118.42528142966330051422119140625">
        <ele>3302.800048828125</ele>
        <time>2021-06-26T21:35:47.000Z</time>
        <extensions>
          <ns3:TrackPointExtension>
            <ns3:atemp>31.0</ns3:atemp>
            <ns3:hr>98</ns3:hr>
          </ns3:TrackPointExtension>
        </extensions>
      </trkpt>
      <trkpt lat="36.81571335531771183013916015625" lon="-118.42527539469301700592041015625">
        <ele>3302.60009765625</ele>
        <time>2021-06-26T21:35:48.000Z</time>
        <extensions>
          <ns3:TrackPointExtension>
            <ns3:atemp>31.0</ns3:atemp>
            <ns3:hr>98</ns3:hr>
          </ns3:TrackPointExtension>
        </extensions>
      </trkpt>
      <trkpt lat="36.815731711685657501220703125" lon="-118.42526449821889400482177734375">
        <ele>3301.800048828125</ele>
        <time>2021-06-26T21:35:50.000Z</time>
        <extensions>
          <ns3:TrackPointExtension>
            <ns3:atemp>30.0</ns3:atemp>
            <ns3:hr>98</ns3:hr>
          </ns3:TrackPointExtension>
        </extensions>
      </trkpt>
      <trkpt lat="36.815741099417209625244140625" lon="-118.42521806247532367706298828125">
        <ele>3301.39990234375</ele>
        <time>2021-06-26T21:35:54.000Z</time>
        <extensions>
          <ns3:TrackPointExtension>
            <ns3:atemp>30.0</ns3:atemp>
            <ns3:hr>97</ns3:hr>
          </ns3:TrackPointExtension>
        </extensions>
      </trkpt>
      <trkpt lat="36.81572559289634227752685546875" lon="-118.42514195479452610015869140625">
        <ele>3301</ele>
        <time>2021-06-26T21:36:00.000Z</time>
        <extensions>
          <ns3:TrackPointExtension>
            <ns3:atemp>30.0</ns3:atemp>
            <ns3:hr>94</ns3:hr>
          </ns3:TrackPointExtension>
        </extensions>
      </trkpt>
      <trkpt lat="36.81571821682155132293701171875" lon="-118.42512887902557849884033203125">
        <ele>3301</ele>
        <time>2021-06-26T21:36:01.000Z</time>
        <extensions>
          <ns3:TrackPointExtension>
            <ns3:atemp>30.0</ns3:atemp>
            <ns3:hr>93</ns3:hr>
          </ns3:TrackPointExtension>
        </extensions>
      </trkpt>
      <trkpt lat="36.81570614688098430633544921875" lon="-118.42511043883860111236572265625">
        <ele>3301.199951171875</ele>
        <time>2021-06-26T21:36:03.000Z</time>
        <extensions>
          <ns3:TrackPointExtension>
            <ns3:atemp>30.0</ns3:atemp>
            <ns3:hr>92</ns3:hr>
          </ns3:TrackPointExtension>
        </extensions>
      </trkpt>
      <trkpt lat="36.8157050572335720062255859375" lon="-118.42504070140421390533447265625">
        <ele>3301.800048828125</ele>
        <time>2021-06-26T21:36:10.000Z</time>
        <extensions>
          <ns3:TrackPointExtension>
            <ns3:atemp>30.0</ns3:atemp>
            <ns3:hr>94</ns3:hr>
          </ns3:TrackPointExtension>
        </extensions>
      </trkpt>
      <trkpt lat="36.81570815853774547576904296875" lon="-118.42499242164194583892822265625">
        <ele>3301.60009765625</ele>
        <time>2021-06-26T21:36:14.000Z</time>
        <extensions>
          <ns3:TrackPointExtension>
            <ns3:atemp>30.0</ns3:atemp>
            <ns3:hr>92</ns3:hr>
          </ns3:TrackPointExtension>
        </extensions>
      </trkpt>
      <trkpt lat="36.81572173722088336944580078125" lon="-118.424914889037609100341796875">
        <ele>3301.199951171875</ele>
        <time>2021-06-26T21:36:20.000Z</time>
        <extensions>
          <ns3:TrackPointExtension>
            <ns3:atemp>30.0</ns3:atemp>
            <ns3:hr>96</ns3:hr>
          </ns3:TrackPointExtension>
        </extensions>
      </trkpt>
      <trkpt lat="36.81573112495243549346923828125" lon="-118.4248749911785125732421875">
        <ele>3301.60009765625</ele>
        <time>2021-06-26T21:36:24.000Z</time>
        <extensions>
          <ns3:TrackPointExtension>
            <ns3:atemp>30.0</ns3:atemp>
            <ns3:hr>94</ns3:hr>
          </ns3:TrackPointExtension>
        </extensions>
      </trkpt>
      <trkpt lat="36.81572894565761089324951171875" lon="-118.42485495842993259429931640625">
        <ele>3301.60009765625</ele>
        <time>2021-06-26T21:36:26.000Z</time>
        <extensions>
          <ns3:TrackPointExtension>
            <ns3:atemp>30.0</ns3:atemp>
            <ns3:hr>91</ns3:hr>
          </ns3:TrackPointExtension>
        </extensions>
      </trkpt>
      <trkpt lat="36.81572643108665943145751953125" lon="-118.4248288907110691070556640625">
        <ele>3302</ele>
        <time>2021-06-26T21:36:29.000Z</time>
        <extensions>
          <ns3:TrackPointExtension>
            <ns3:atemp>30.0</ns3:atemp>
            <ns3:hr>94</ns3:hr>
          </ns3:TrackPointExtension>
        </extensions>
      </trkpt>
      <trkpt lat="36.81573011912405490875244140625" lon="-118.424809612333774566650390625">
        <ele>3302.60009765625</ele>
        <time>2021-06-26T21:36:31.000Z</time>
        <extensions>
          <ns3:TrackPointExtension>
            <ns3:atemp>30.0</ns3:atemp>
            <ns3:hr>94</ns3:hr>
          </ns3:TrackPointExtension>
        </extensions>
      </trkpt>
      <trkpt lat="36.81573799811303615570068359375" lon="-118.42479427345097064971923828125">
        <ele>3302.800048828125</ele>
        <time>2021-06-26T21:36:33.000Z</time>
        <extensions>
          <ns3:TrackPointExtension>
            <ns3:atemp>30.0</ns3:atemp>
            <ns3:hr>92</ns3:hr>
          </ns3:TrackPointExtension>
        </extensions>
      </trkpt>
      <trkpt lat="36.81571637280285358428955078125" lon="-118.42476904392242431640625">
        <ele>3303.39990234375</ele>
        <time>2021-06-26T21:36:37.000Z</time>
        <extensions>
          <ns3:TrackPointExtension>
            <ns3:atemp>30.0</ns3:atemp>
            <ns3:hr>93</ns3:hr>
          </ns3:TrackPointExtension>
        </extensions>
      </trkpt>
      <trkpt lat="36.81569592095911502838134765625" lon="-118.4247437305748462677001953125">
        <ele>3303.60009765625</ele>
        <time>2021-06-26T21:36:40.000Z</time>
        <extensions>
          <ns3:TrackPointExtension>
            <ns3:atemp>30.0</ns3:atemp>
            <ns3:hr>96</ns3:hr>
          </ns3:TrackPointExtension>
        </extensions>
      </trkpt>
      <trkpt lat="36.8156896345317363739013671875" lon="-118.4247356839478015899658203125">
        <ele>3304</ele>
        <time>2021-06-26T21:36:41.000Z</time>
        <extensions>
          <ns3:TrackPointExtension>
            <ns3:atemp>30.0</ns3:atemp>
            <ns3:hr>95</ns3:hr>
          </ns3:TrackPointExtension>
        </extensions>
      </trkpt>
      <trkpt lat="36.81567898951470851898193359375" lon="-118.42471565119922161102294921875">
        <ele>3304.199951171875</ele>
        <time>2021-06-26T21:36:44.000Z</time>
        <extensions>
          <ns3:TrackPointExtension>
            <ns3:atemp>30.0</ns3:atemp>
            <ns3:hr>98</ns3:hr>
          </ns3:TrackPointExtension>
        </extensions>
      </trkpt>
      <trkpt lat="36.81565769948065280914306640625" lon="-118.42469268478453159332275390625">
        <ele>3304.60009765625</ele>
        <time>2021-06-26T21:36:48.000Z</time>
        <extensions>
          <ns3:TrackPointExtension>
            <ns3:atemp>30.0</ns3:atemp>
            <ns3:hr>100</ns3:hr>
          </ns3:TrackPointExtension>
        </extensions>
      </trkpt>
      <trkpt lat="36.81564043276011943817138671875" lon="-118.42466049827635288238525390625">
        <ele>3304.39990234375</ele>
        <time>2021-06-26T21:36:53.000Z</time>
        <extensions>
          <ns3:TrackPointExtension>
            <ns3:atemp>30.0</ns3:atemp>
            <ns3:hr>103</ns3:hr>
          </ns3:TrackPointExtension>
        </extensions>
      </trkpt>
      <trkpt lat="36.815638504922389984130859375" lon="-118.424656055867671966552734375">
        <ele>3304.39990234375</ele>
        <time>2021-06-26T21:36:54.000Z</time>
        <extensions>
          <ns3:TrackPointExtension>
            <ns3:atemp>30.0</ns3:atemp>
            <ns3:hr>103</ns3:hr>
          </ns3:TrackPointExtension>
        </extensions>
      </trkpt>
      <trkpt lat="36.815638840198516845703125" lon="-118.42465446330606937408447265625">
        <ele>3304.39990234375</ele>
        <time>2021-06-26T21:36:55.000Z</time>
        <extensions>
          <ns3:TrackPointExtension>
            <ns3:atemp>30.0</ns3:atemp>
            <ns3:hr>104</ns3:hr>
          </ns3:TrackPointExtension>
        </extensions>
      </trkpt>
      <trkpt lat="36.8156433664262294769287109375" lon="-118.42465211637318134307861328125">
        <ele>3304.199951171875</ele>
        <time>2021-06-26T21:37:03.000Z</time>
        <extensions>
          <ns3:TrackPointExtension>
            <ns3:atemp>30.0</ns3:atemp>
            <ns3:hr>106</ns3:hr>
          </ns3:TrackPointExtension>
        </extensions>
      </trkpt>
      <trkpt lat="36.81565032340586185455322265625" lon="-118.4246542118489742279052734375">
        <ele>3303.800048828125</ele>
        <time>2021-06-26T21:37:33.000Z</time>
        <extensions>
          <ns3:TrackPointExtension>
            <ns3:atemp>30.0</ns3:atemp>
            <ns3:hr>108</ns3:hr>
          </ns3:TrackPointExtension>
        </extensions>
      </trkpt>
      <trkpt lat="36.81565065868198871612548828125" lon="-118.4246568940579891204833984375">
        <ele>3303.800048828125</ele>
        <time>2021-06-26T21:37:41.000Z</time>
        <extensions>
          <ns3:TrackPointExtension>
            <ns3:atemp>30.0</ns3:atemp>
            <ns3:hr>105</ns3:hr>
          </ns3:TrackPointExtension>
        </extensions>
      </trkpt>
      <trkpt lat="36.81565065868198871612548828125" lon="-118.424658067524433135986328125">
        <ele>3303.800048828125</ele>
        <time>2021-06-26T21:37:48.000Z</time>
        <extensions>
          <ns3:TrackPointExtension>
            <ns3:atemp>30.0</ns3:atemp>
            <ns3:hr>104</ns3:hr>
          </ns3:TrackPointExtension>
        </extensions>
      </trkpt>
      <trkpt lat="36.81565065868198871612548828125" lon="-118.424668796360492706298828125">
        <ele>3303.199951171875</ele>
        <time>2021-06-26T21:37:58.000Z</time>
        <extensions>
          <ns3:TrackPointExtension>
            <ns3:atemp>30.0</ns3:atemp>
            <ns3:hr>100</ns3:hr>
          </ns3:TrackPointExtension>
        </extensions>
      </trkpt>
      <trkpt lat="36.81565065868198871612548828125" lon="-118.424668796360492706298828125">
        <ele>3303.199951171875</ele>
        <time>2021-06-26T21:38:00.000Z</time>
        <extensions>
          <ns3:TrackPointExtension>
            <ns3:atemp>30.0</ns3:atemp>
            <ns3:hr>95</ns3:hr>
          </ns3:TrackPointExtension>
        </extensions>
      </trkpt>
      <trkpt lat="36.81565065868198871612548828125" lon="-118.424668796360492706298828125">
        <ele>3303.199951171875</ele>
        <time>2021-06-26T21:38:02.000Z</time>
        <extensions>
          <ns3:TrackPointExtension>
            <ns3:atemp>30.0</ns3:atemp>
            <ns3:hr>92</ns3:hr>
          </ns3:TrackPointExtension>
        </extensions>
      </trkpt>
      <trkpt lat="36.81561939418315887451171875" lon="-118.4246518649160861968994140625">
        <ele>3303.199951171875</ele>
        <time>2021-06-26T21:38:13.000Z</time>
        <extensions>
          <ns3:TrackPointExtension>
            <ns3:atemp>30.0</ns3:atemp>
            <ns3:hr>89</ns3:hr>
          </ns3:TrackPointExtension>
        </extensions>
      </trkpt>
      <trkpt lat="36.8155843578279018402099609375" lon="-118.42463736422359943389892578125">
        <ele>3303.199951171875</ele>
        <time>2021-06-26T21:38:16.000Z</time>
        <extensions>
          <ns3:TrackPointExtension>
            <ns3:atemp>30.0</ns3:atemp>
            <ns3:hr>88</ns3:hr>
          </ns3:TrackPointExtension>
        </extensions>
      </trkpt>
      <trkpt lat="36.81555569171905517578125" lon="-118.42464029788970947265625">
        <ele>3303.199951171875</ele>
        <time>2021-06-26T21:38:18.000Z</time>
        <extensions>
          <ns3:TrackPointExtension>
            <ns3:atemp>30.0</ns3:atemp>
            <ns3:hr>85</ns3:hr>
          </ns3:TrackPointExtension>
        </extensions>
      </trkpt>
      <trkpt lat="36.815523840487003326416015625" lon="-118.42467181384563446044921875">
        <ele>3303.199951171875</ele>
        <time>2021-06-26T21:38:22.000Z</time>
        <extensions>
          <ns3:TrackPointExtension>
            <ns3:atemp>30.0</ns3:atemp>
            <ns3:hr>84</ns3:hr>
          </ns3:TrackPointExtension>
        </extensions>
      </trkpt>
      <trkpt lat="36.81549601256847381591796875" lon="-118.42468664981424808502197265625">
        <ele>3303.199951171875</ele>
        <time>2021-06-26T21:38:26.000Z</time>
        <extensions>
          <ns3:TrackPointExtension>
            <ns3:atemp>30.0</ns3:atemp>
            <ns3:hr>84</ns3:hr>
          </ns3:TrackPointExtension>
        </extensions>
      </trkpt>
      <trkpt lat="36.81546927429735660552978515625" lon="-118.4246743284165859222412109375">
        <ele>3303.199951171875</ele>
        <time>2021-06-26T21:38:29.000Z</time>
        <extensions>
          <ns3:TrackPointExtension>
            <ns3:atemp>30.0</ns3:atemp>
            <ns3:hr>84</ns3:hr>
          </ns3:TrackPointExtension>
        </extensions>
      </trkpt>
      <trkpt lat="36.8154080025851726531982421875" lon="-118.42466376721858978271484375">
        <ele>3304.199951171875</ele>
        <time>2021-06-26T21:38:37.000Z</time>
        <extensions>
          <ns3:TrackPointExtension>
            <ns3:atemp>30.0</ns3:atemp>
            <ns3:hr>87</ns3:hr>
          </ns3:TrackPointExtension>
        </extensions>
      </trkpt>
      <trkpt lat="36.81540288962423801422119140625" lon="-118.4246552176773548126220703125">
        <ele>3304.199951171875</ele>
        <time>2021-06-26T21:38:38.000Z</time>
        <extensions>
          <ns3:TrackPointExtension>
            <ns3:atemp>30.0</ns3:atemp>
            <ns3:hr>88</ns3:hr>
          </ns3:TrackPointExtension>
        </extensions>
      </trkpt>
      <trkpt lat="36.81537254713475704193115234375" lon="-118.4246367774903774261474609375">
        <ele>3304.199951171875</ele>
        <time>2021-06-26T21:38:42.000Z</time>
        <extensions>
          <ns3:TrackPointExtension>
            <ns3:atemp>30.0</ns3:atemp>
            <ns3:hr>84</ns3:hr>
          </ns3:TrackPointExtension>
        </extensions>
      </trkpt>
      <trkpt lat="36.815335750579833984375" lon="-118.42463501729071140289306640625">
        <ele>3303.60009765625</ele>
        <time>2021-06-26T21:38:46.000Z</time>
        <extensions>
          <ns3:TrackPointExtension>
            <ns3:atemp>30.0</ns3:atemp>
            <ns3:hr>89</ns3:hr>
          </ns3:TrackPointExtension>
        </extensions>
      </trkpt>
      <trkpt lat="36.81532703340053558349609375" lon="-118.42463820241391658782958984375">
        <ele>3303.60009765625</ele>
        <time>2021-06-26T21:38:47.000Z</time>
        <extensions>
          <ns3:TrackPointExtension>
            <ns3:atemp>30.0</ns3:atemp>
            <ns3:hr>84</ns3:hr>
          </ns3:TrackPointExtension>
        </extensions>
      </trkpt>
      <trkpt lat="36.815322004258632659912109375" lon="-118.42463937588036060333251953125">
        <ele>3303.60009765625</ele>
        <time>2021-06-26T21:38:48.000Z</time>
        <extensions>
          <ns3:TrackPointExtension>
            <ns3:atemp>30.0</ns3:atemp>
            <ns3:hr>87</ns3:hr>
          </ns3:TrackPointExtension>
        </extensions>
      </trkpt>
      <trkpt lat="36.815295517444610595703125" lon="-118.4246454946696758270263671875">
        <ele>3302.39990234375</ele>
        <time>2021-06-26T21:38:52.000Z</time>
        <extensions>
          <ns3:TrackPointExtension>
            <ns3:atemp>30.0</ns3:atemp>
            <ns3:hr>86</ns3:hr>
          </ns3:TrackPointExtension>
        </extensions>
      </trkpt>
      <trkpt lat="36.81527079083025455474853515625" lon="-118.4246404655277729034423828125">
        <ele>3302.199951171875</ele>
        <time>2021-06-26T21:38:55.000Z</time>
        <extensions>
          <ns3:TrackPointExtension>
            <ns3:atemp>30.0</ns3:atemp>
            <ns3:hr>85</ns3:hr>
          </ns3:TrackPointExtension>
        </extensions>
      </trkpt>
      <trkpt lat="36.81524396874010562896728515625" lon="-118.4246307425200939178466796875">
        <ele>3301</ele>
        <time>2021-06-26T21:38:59.000Z</time>
        <extensions>
          <ns3:TrackPointExtension>
            <ns3:atemp>30.0</ns3:atemp>
            <ns3:hr>85</ns3:hr>
          </ns3:TrackPointExtension>
        </extensions>
      </trkpt>
      <trkpt lat="36.8152286298573017120361328125" lon="-118.424631245434284210205078125">
        <ele>3301</ele>
        <time>2021-06-26T21:39:02.000Z</time>
        <extensions>
          <ns3:TrackPointExtension>
            <ns3:atemp>30.0</ns3:atemp>
            <ns3:hr>85</ns3:hr>
          </ns3:TrackPointExtension>
        </extensions>
      </trkpt>
      <trkpt lat="36.81522770784795284271240234375" lon="-118.424629233777523040771484375">
        <ele>3301</ele>
        <time>2021-06-26T21:39:03.000Z</time>
        <extensions>
          <ns3:TrackPointExtension>
            <ns3:atemp>30.0</ns3:atemp>
            <ns3:hr>85</ns3:hr>
          </ns3:TrackPointExtension>
        </extensions>
      </trkpt>
      <trkpt lat="36.81523223407566547393798828125" lon="-118.4245998971164226531982421875">
        <ele>3300.800048828125</ele>
        <time>2021-06-26T21:39:17.000Z</time>
        <extensions>
          <ns3:TrackPointExtension>
            <ns3:atemp>30.0</ns3:atemp>
            <ns3:hr>85</ns3:hr>
          </ns3:TrackPointExtension>
        </extensions>
      </trkpt>
      <trkpt lat="36.81523189879953861236572265625" lon="-118.42460148967802524566650390625">
        <ele>3301.199951171875</ele>
        <time>2021-06-26T21:39:29.000Z</time>
        <extensions>
          <ns3:TrackPointExtension>
            <ns3:atemp>30.0</ns3:atemp>
            <ns3:hr>86</ns3:hr>
          </ns3:TrackPointExtension>
        </extensions>
      </trkpt>
      <trkpt lat="36.81523223407566547393798828125" lon="-118.42460811138153076171875">
        <ele>3301</ele>
        <time>2021-06-26T21:39:39.000Z</time>
        <extensions>
          <ns3:TrackPointExtension>
            <ns3:atemp>30.0</ns3:atemp>
            <ns3:hr>82</ns3:hr>
          </ns3:TrackPointExtension>
        </extensions>
      </trkpt>
      <trkpt lat="36.815232150256633758544921875" lon="-118.4246082790195941925048828125">
        <ele>3301</ele>
        <time>2021-06-26T21:39:43.000Z</time>
        <extensions>
          <ns3:TrackPointExtension>
            <ns3:atemp>30.0</ns3:atemp>
            <ns3:hr>79</ns3:hr>
          </ns3:TrackPointExtension>
        </extensions>
      </trkpt>
      <trkpt lat="36.8152051605284214019775390625" lon="-118.42454683966934680938720703125">
        <ele>3300.60009765625</ele>
        <time>2021-06-26T21:39:51.000Z</time>
        <extensions>
          <ns3:TrackPointExtension>
            <ns3:atemp>30.0</ns3:atemp>
            <ns3:hr>79</ns3:hr>
          </ns3:TrackPointExtension>
        </extensions>
      </trkpt>
      <trkpt lat="36.81518579833209514617919921875" lon="-118.4244765155017375946044921875">
        <ele>3301.39990234375</ele>
        <time>2021-06-26T21:39:56.000Z</time>
        <extensions>
          <ns3:TrackPointExtension>
            <ns3:atemp>30.0</ns3:atemp>
            <ns3:hr>82</ns3:hr>
          </ns3:TrackPointExtension>
        </extensions>
      </trkpt>
      <trkpt lat="36.815164424479007720947265625" lon="-118.4244426526129245758056640625">
        <ele>3302</ele>
        <time>2021-06-26T21:40:00.000Z</time>
        <extensions>
          <ns3:TrackPointExtension>
            <ns3:atemp>30.0</ns3:atemp>
            <ns3:hr>79</ns3:hr>
          </ns3:TrackPointExtension>
        </extensions>
      </trkpt>
      <trkpt lat="36.81514707393944263458251953125" lon="-118.42443502508103847503662109375">
        <ele>3302</ele>
        <time>2021-06-26T21:40:02.000Z</time>
        <extensions>
          <ns3:TrackPointExtension>
            <ns3:atemp>30.0</ns3:atemp>
            <ns3:hr>82</ns3:hr>
          </ns3:TrackPointExtension>
        </extensions>
      </trkpt>
      <trkpt lat="36.81512796320021152496337890625" lon="-118.42442932538688182830810546875">
        <ele>3302.199951171875</ele>
        <time>2021-06-26T21:40:04.000Z</time>
        <extensions>
          <ns3:TrackPointExtension>
            <ns3:atemp>30.0</ns3:atemp>
            <ns3:hr>83</ns3:hr>
          </ns3:TrackPointExtension>
        </extensions>
      </trkpt>
      <trkpt lat="36.815102398395538330078125" lon="-118.4244141541421413421630859375">
        <ele>3302.800048828125</ele>
        <time>2021-06-26T21:40:07.000Z</time>
        <extensions>
          <ns3:TrackPointExtension>
            <ns3:atemp>30.0</ns3:atemp>
            <ns3:hr>87</ns3:hr>
          </ns3:TrackPointExtension>
        </extensions>
      </trkpt>
      <trkpt lat="36.81508923880755901336669921875" lon="-118.42440702952444553375244140625">
        <ele>3303</ele>
        <time>2021-06-26T21:40:08.000Z</time>
        <extensions>
          <ns3:TrackPointExtension>
            <ns3:atemp>30.0</ns3:atemp>
            <ns3:hr>87</ns3:hr>
          </ns3:TrackPointExtension>
        </extensions>
      </trkpt>
      <trkpt lat="36.81507289409637451171875" lon="-118.42439847998321056365966796875">
        <ele>3303</ele>
        <time>2021-06-26T21:40:10.000Z</time>
        <extensions>
          <ns3:TrackPointExtension>
            <ns3:atemp>30.0</ns3:atemp>
            <ns3:hr>86</ns3:hr>
          </ns3:TrackPointExtension>
        </extensions>
      </trkpt>
      <trkpt lat="36.81504766456782817840576171875" lon="-118.424391187727451324462890625">
        <ele>3303</ele>
        <time>2021-06-26T21:40:12.000Z</time>
        <extensions>
          <ns3:TrackPointExtension>
            <ns3:atemp>30.0</ns3:atemp>
            <ns3:hr>89</ns3:hr>
          </ns3:TrackPointExtension>
        </extensions>
      </trkpt>
      <trkpt lat="36.815020255744457244873046875" lon="-118.4243923611938953399658203125">
        <ele>3302.60009765625</ele>
        <time>2021-06-26T21:40:15.000Z</time>
        <extensions>
          <ns3:TrackPointExtension>
            <ns3:atemp>30.0</ns3:atemp>
            <ns3:hr>92</ns3:hr>
          </ns3:TrackPointExtension>
        </extensions>
      </trkpt>
      <trkpt lat="36.814988069236278533935546875" lon="-118.42438775114715099334716796875">
        <ele>3302.60009765625</ele>
        <time>2021-06-26T21:40:18.000Z</time>
        <extensions>
          <ns3:TrackPointExtension>
            <ns3:atemp>30.0</ns3:atemp>
            <ns3:hr>94</ns3:hr>
          </ns3:TrackPointExtension>
        </extensions>
      </trkpt>
      <trkpt lat="36.81494171731173992156982421875" lon="-118.4243973903357982635498046875">
        <ele>3302.199951171875</ele>
        <time>2021-06-26T21:40:23.000Z</time>
        <extensions>
          <ns3:TrackPointExtension>
            <ns3:atemp>30.0</ns3:atemp>
            <ns3:hr>97</ns3:hr>
          </ns3:TrackPointExtension>
        </extensions>
      </trkpt>
      <trkpt lat="36.81490550749003887176513671875" lon="-118.4243816323578357696533203125">
        <ele>3300.800048828125</ele>
        <time>2021-06-26T21:40:28.000Z</time>
        <extensions>
          <ns3:TrackPointExtension>
            <ns3:atemp>30.0</ns3:atemp>
            <ns3:hr>97</ns3:hr>
          </ns3:TrackPointExtension>
        </extensions>
      </trkpt>
      <trkpt lat="36.814895533025264739990234375" lon="-118.424364365637302398681640625">
        <ele>3300.60009765625</ele>
        <time>2021-06-26T21:40:30.000Z</time>
        <extensions>
          <ns3:TrackPointExtension>
            <ns3:atemp>30.0</ns3:atemp>
            <ns3:hr>94</ns3:hr>
          </ns3:TrackPointExtension>
        </extensions>
      </trkpt>
      <trkpt lat="36.8148638494312763214111328125" lon="-118.42433209531009197235107421875">
        <ele>3300.199951171875</ele>
        <time>2021-06-26T21:40:34.000Z</time>
        <extensions>
          <ns3:TrackPointExtension>
            <ns3:atemp>30.0</ns3:atemp>
            <ns3:hr>91</ns3:hr>
          </ns3:TrackPointExtension>
        </extensions>
      </trkpt>
      <trkpt lat="36.81485203094780445098876953125" lon="-118.424318768084049224853515625">
        <ele>3300.199951171875</ele>
        <time>2021-06-26T21:40:36.000Z</time>
        <extensions>
          <ns3:TrackPointExtension>
            <ns3:atemp>30.0</ns3:atemp>
            <ns3:hr>90</ns3:hr>
          </ns3:TrackPointExtension>
        </extensions>
      </trkpt>
      <trkpt lat="36.81484532542526721954345703125" lon="-118.42430326156318187713623046875">
        <ele>3300.199951171875</ele>
        <time>2021-06-26T21:40:38.000Z</time>
        <extensions>
          <ns3:TrackPointExtension>
            <ns3:atemp>30.0</ns3:atemp>
            <ns3:hr>87</ns3:hr>
          </ns3:TrackPointExtension>
        </extensions>
      </trkpt>
      <trkpt lat="36.8148551322519779205322265625" lon="-118.42426369898021221160888671875">
        <ele>3299.60009765625</ele>
        <time>2021-06-26T21:40:42.000Z</time>
        <extensions>
          <ns3:TrackPointExtension>
            <ns3:atemp>30.0</ns3:atemp>
            <ns3:hr>85</ns3:hr>
          </ns3:TrackPointExtension>
        </extensions>
      </trkpt>
      <trkpt lat="36.814862675964832305908203125" lon="-118.42423997819423675537109375">
        <ele>3299.199951171875</ele>
        <time>2021-06-26T21:40:44.000Z</time>
        <extensions>
          <ns3:TrackPointExtension>
            <ns3:atemp>30.0</ns3:atemp>
            <ns3:hr>82</ns3:hr>
          </ns3:TrackPointExtension>
        </extensions>
      </trkpt>
      <trkpt lat="36.81486477144062519073486328125" lon="-118.42422514222562313079833984375">
        <ele>3299.199951171875</ele>
        <time>2021-06-26T21:40:45.000Z</time>
        <extensions>
          <ns3:TrackPointExtension>
            <ns3:atemp>30.0</ns3:atemp>
            <ns3:hr>82</ns3:hr>
          </ns3:TrackPointExtension>
        </extensions>
      </trkpt>
      <trkpt lat="36.81486594490706920623779296875" lon="-118.42416286468505859375">
        <ele>3298.800048828125</ele>
        <time>2021-06-26T21:40:50.000Z</time>
        <extensions>
          <ns3:TrackPointExtension>
            <ns3:atemp>30.0</ns3:atemp>
            <ns3:hr>85</ns3:hr>
          </ns3:TrackPointExtension>
        </extensions>
      </trkpt>
      <trkpt lat="36.81486845947802066802978515625" lon="-118.4241502918303012847900390625">
        <ele>3298.800048828125</ele>
        <time>2021-06-26T21:40:51.000Z</time>
        <extensions>
          <ns3:TrackPointExtension>
            <ns3:atemp>30.0</ns3:atemp>
            <ns3:hr>86</ns3:hr>
          </ns3:TrackPointExtension>
        </extensions>
      </trkpt>
      <trkpt lat="36.8148946948349475860595703125" lon="-118.42410963959991931915283203125">
        <ele>3298.60009765625</ele>
        <time>2021-06-26T21:40:55.000Z</time>
        <extensions>
          <ns3:TrackPointExtension>
            <ns3:atemp>30.0</ns3:atemp>
            <ns3:hr>88</ns3:hr>
          </ns3:TrackPointExtension>
        </extensions>
      </trkpt>
      <trkpt lat="36.81493534706532955169677734375" lon="-118.42406638897955417633056640625">
        <ele>3298.39990234375</ele>
        <time>2021-06-26T21:41:00.000Z</time>
        <extensions>
          <ns3:TrackPointExtension>
            <ns3:atemp>30.0</ns3:atemp>
            <ns3:hr>89</ns3:hr>
          </ns3:TrackPointExtension>
        </extensions>
      </trkpt>
      <trkpt lat="36.81496082805097103118896484375" lon="-118.42404074035584926605224609375">
        <ele>3298.199951171875</ele>
        <time>2021-06-26T21:41:03.000Z</time>
        <extensions>
          <ns3:TrackPointExtension>
            <ns3:atemp>30.0</ns3:atemp>
            <ns3:hr>83</ns3:hr>
          </ns3:TrackPointExtension>
        </extensions>
      </trkpt>
      <trkpt lat="36.8149669468402862548828125" lon="-118.42403403483331203460693359375">
        <ele>3298.199951171875</ele>
        <time>2021-06-26T21:41:04.000Z</time>
        <extensions>
          <ns3:TrackPointExtension>
            <ns3:atemp>30.0</ns3:atemp>
            <ns3:hr>87</ns3:hr>
          </ns3:TrackPointExtension>
        </extensions>
      </trkpt>
      <trkpt lat="36.8150164000689983367919921875" lon="-118.4239605255424976348876953125">
        <ele>3297.800048828125</ele>
        <time>2021-06-26T21:41:12.000Z</time>
        <extensions>
          <ns3:TrackPointExtension>
            <ns3:atemp>30.0</ns3:atemp>
            <ns3:hr>85</ns3:hr>
          </ns3:TrackPointExtension>
        </extensions>
      </trkpt>
      <trkpt lat="36.815053783357143402099609375" lon="-118.42390378005802631378173828125">
        <ele>3297.60009765625</ele>
        <time>2021-06-26T21:41:19.000Z</time>
        <extensions>
          <ns3:TrackPointExtension>
            <ns3:atemp>30.0</ns3:atemp>
            <ns3:hr>85</ns3:hr>
          </ns3:TrackPointExtension>
        </extensions>
      </trkpt>
      <trkpt lat="36.815064847469329833984375" lon="-118.42388634569942951202392578125">
        <ele>3297.39990234375</ele>
        <time>2021-06-26T21:41:21.000Z</time>
        <extensions>
          <ns3:TrackPointExtension>
            <ns3:atemp>30.0</ns3:atemp>
            <ns3:hr>85</ns3:hr>
          </ns3:TrackPointExtension>
        </extensions>
      </trkpt>
      <trkpt lat="36.81507582776248455047607421875" lon="-118.42386807315051555633544921875">
        <ele>3296.60009765625</ele>
        <time>2021-06-26T21:41:23.000Z</time>
        <extensions>
          <ns3:TrackPointExtension>
            <ns3:atemp>30.0</ns3:atemp>
            <ns3:hr>85</ns3:hr>
          </ns3:TrackPointExtension>
        </extensions>
      </trkpt>
      <trkpt lat="36.815098710358142852783203125" lon="-118.4238381497561931610107421875">
        <ele>3296</ele>
        <time>2021-06-26T21:41:27.000Z</time>
        <extensions>
          <ns3:TrackPointExtension>
            <ns3:atemp>30.0</ns3:atemp>
            <ns3:hr>88</ns3:hr>
          </ns3:TrackPointExtension>
        </extensions>
      </trkpt>
      <trkpt lat="36.81510767899453639984130859375" lon="-118.423809148371219635009765625">
        <ele>3295.199951171875</ele>
        <time>2021-06-26T21:41:30.000Z</time>
        <extensions>
          <ns3:TrackPointExtension>
            <ns3:atemp>30.0</ns3:atemp>
            <ns3:hr>89</ns3:hr>
          </ns3:TrackPointExtension>
        </extensions>
      </trkpt>
      <trkpt lat="36.81510197930037975311279296875" lon="-118.42379816807806491851806640625">
        <ele>3295.199951171875</ele>
        <time>2021-06-26T21:41:31.000Z</time>
        <extensions>
          <ns3:TrackPointExtension>
            <ns3:atemp>30.0</ns3:atemp>
            <ns3:hr>89</ns3:hr>
          </ns3:TrackPointExtension>
        </extensions>
      </trkpt>
      <trkpt lat="36.81509326212108135223388671875" lon="-118.42378660105168819427490234375">
        <ele>3295.199951171875</ele>
        <time>2021-06-26T21:41:32.000Z</time>
        <extensions>
          <ns3:TrackPointExtension>
            <ns3:atemp>30.0</ns3:atemp>
            <ns3:hr>89</ns3:hr>
          </ns3:TrackPointExtension>
        </extensions>
      </trkpt>
      <trkpt lat="36.815043054521083831787109375" lon="-118.4237603656947612762451171875">
        <ele>3294.800048828125</ele>
        <time>2021-06-26T21:41:37.000Z</time>
        <extensions>
          <ns3:TrackPointExtension>
            <ns3:atemp>30.0</ns3:atemp>
            <ns3:hr>88</ns3:hr>
          </ns3:TrackPointExtension>
        </extensions>
      </trkpt>
      <trkpt lat="36.81498530320823192596435546875" lon="-118.42375139705836772918701171875">
        <ele>3294.39990234375</ele>
        <time>2021-06-26T21:41:44.000Z</time>
        <extensions>
          <ns3:TrackPointExtension>
            <ns3:atemp>30.0</ns3:atemp>
            <ns3:hr>88</ns3:hr>
          </ns3:TrackPointExtension>
        </extensions>
      </trkpt>
      <trkpt lat="36.81497566401958465576171875" lon="-118.42374083586037158966064453125">
        <ele>3294</ele>
        <time>2021-06-26T21:41:46.000Z</time>
        <extensions>
          <ns3:TrackPointExtension>
            <ns3:atemp>30.0</ns3:atemp>
            <ns3:hr>88</ns3:hr>
          </ns3:TrackPointExtension>
        </extensions>
      </trkpt>
      <trkpt lat="36.8149399571120738983154296875" lon="-118.423707224428653717041015625">
        <ele>3294</ele>
        <time>2021-06-26T21:41:51.000Z</time>
        <extensions>
          <ns3:TrackPointExtension>
            <ns3:atemp>30.0</ns3:atemp>
            <ns3:hr>86</ns3:hr>
          </ns3:TrackPointExtension>
        </extensions>
      </trkpt>
      <trkpt lat="36.8149151466786861419677734375" lon="-118.42368786223232746124267578125">
        <ele>3294.199951171875</ele>
        <time>2021-06-26T21:41:54.000Z</time>
        <extensions>
          <ns3:TrackPointExtension>
            <ns3:atemp>30.0</ns3:atemp>
            <ns3:hr>89</ns3:hr>
          </ns3:TrackPointExtension>
        </extensions>
      </trkpt>
      <trkpt lat="36.8148712255060672760009765625" lon="-118.42366003431379795074462890625">
        <ele>3294.199951171875</ele>
        <time>2021-06-26T21:42:00.000Z</time>
        <extensions>
          <ns3:TrackPointExtension>
            <ns3:atemp>30.0</ns3:atemp>
            <ns3:hr>85</ns3:hr>
          </ns3:TrackPointExtension>
        </extensions>
      </trkpt>
      <trkpt lat="36.81486544199287891387939453125" lon="-118.4236554242670536041259765625">
        <ele>3294.199951171875</ele>
        <time>2021-06-26T21:42:01.000Z</time>
        <extensions>
          <ns3:TrackPointExtension>
            <ns3:atemp>30.0</ns3:atemp>
            <ns3:hr>86</ns3:hr>
          </ns3:TrackPointExtension>
        </extensions>
      </trkpt>
      <trkpt lat="36.814861334860324859619140625" lon="-118.42362684197723865509033203125">
        <ele>3293.60009765625</ele>
        <time>2021-06-26T21:42:05.000Z</time>
        <extensions>
          <ns3:TrackPointExtension>
            <ns3:atemp>30.0</ns3:atemp>
            <ns3:hr>83</ns3:hr>
          </ns3:TrackPointExtension>
        </extensions>
      </trkpt>
      <trkpt lat="36.81485873647034168243408203125" lon="-118.42360203154385089874267578125">
        <ele>3293</ele>
        <time>2021-06-26T21:42:08.000Z</time>
        <extensions>
          <ns3:TrackPointExtension>
            <ns3:atemp>30.0</ns3:atemp>
            <ns3:hr>82</ns3:hr>
          </ns3:TrackPointExtension>
        </extensions>
      </trkpt>
      <trkpt lat="36.81486007757484912872314453125" lon="-118.42359264381229877471923828125">
        <ele>3293</ele>
        <time>2021-06-26T21:42:09.000Z</time>
        <extensions>
          <ns3:TrackPointExtension>
            <ns3:atemp>30.0</ns3:atemp>
            <ns3:hr>82</ns3:hr>
          </ns3:TrackPointExtension>
        </extensions>
      </trkpt>
      <trkpt lat="36.814838536083698272705078125" lon="-118.42351754195988178253173828125">
        <ele>3292.39990234375</ele>
        <time>2021-06-26T21:42:16.000Z</time>
        <extensions>
          <ns3:TrackPointExtension>
            <ns3:atemp>30.0</ns3:atemp>
            <ns3:hr>84</ns3:hr>
          </ns3:TrackPointExtension>
        </extensions>
      </trkpt>
      <trkpt lat="36.814831160008907318115234375" lon="-118.42350010760128498077392578125">
        <ele>3292</ele>
        <time>2021-06-26T21:42:18.000Z</time>
        <extensions>
          <ns3:TrackPointExtension>
            <ns3:atemp>30.0</ns3:atemp>
            <ns3:hr>86</ns3:hr>
          </ns3:TrackPointExtension>
        </extensions>
      </trkpt>
      <trkpt lat="36.81482956744730472564697265625" lon="-118.42349105514585971832275390625">
        <ele>3291.800048828125</ele>
        <time>2021-06-26T21:42:19.000Z</time>
        <extensions>
          <ns3:TrackPointExtension>
            <ns3:atemp>30.0</ns3:atemp>
            <ns3:hr>84</ns3:hr>
          </ns3:TrackPointExtension>
        </extensions>
      </trkpt>
      <trkpt lat="36.814807690680027008056640625" lon="-118.423430286347866058349609375">
        <ele>3291.800048828125</ele>
        <time>2021-06-26T21:42:25.000Z</time>
        <extensions>
          <ns3:TrackPointExtension>
            <ns3:atemp>30.0</ns3:atemp>
            <ns3:hr>82</ns3:hr>
          </ns3:TrackPointExtension>
        </extensions>
      </trkpt>
      <trkpt lat="36.81478044949471950531005859375" lon="-118.42342802323400974273681640625">
        <ele>3291.800048828125</ele>
        <time>2021-06-26T21:42:28.000Z</time>
        <extensions>
          <ns3:TrackPointExtension>
            <ns3:atemp>30.0</ns3:atemp>
            <ns3:hr>80</ns3:hr>
          </ns3:TrackPointExtension>
        </extensions>
      </trkpt>
      <trkpt lat="36.8147646076977252960205078125" lon="-118.42341251671314239501953125">
        <ele>3291.60009765625</ele>
        <time>2021-06-26T21:42:31.000Z</time>
        <extensions>
          <ns3:TrackPointExtension>
            <ns3:atemp>30.0</ns3:atemp>
            <ns3:hr>81</ns3:hr>
          </ns3:TrackPointExtension>
        </extensions>
      </trkpt>
      <trkpt lat="36.8147475086152553558349609375" lon="-118.4233918972313404083251953125">
        <ele>3292</ele>
        <time>2021-06-26T21:42:34.000Z</time>
        <extensions>
          <ns3:TrackPointExtension>
            <ns3:atemp>30.0</ns3:atemp>
            <ns3:hr>84</ns3:hr>
          </ns3:TrackPointExtension>
        </extensions>
      </trkpt>
      <trkpt lat="36.81473828852176666259765625" lon="-118.42337873764336109161376953125">
        <ele>3292</ele>
        <time>2021-06-26T21:42:36.000Z</time>
        <extensions>
          <ns3:TrackPointExtension>
            <ns3:atemp>30.0</ns3:atemp>
            <ns3:hr>81</ns3:hr>
          </ns3:TrackPointExtension>
        </extensions>
      </trkpt>
      <trkpt lat="36.81472890079021453857421875" lon="-118.4233546815812587738037109375">
        <ele>3292.60009765625</ele>
        <time>2021-06-26T21:42:41.000Z</time>
        <extensions>
          <ns3:TrackPointExtension>
            <ns3:atemp>30.0</ns3:atemp>
            <ns3:hr>83</ns3:hr>
          </ns3:TrackPointExtension>
        </extensions>
      </trkpt>
      <trkpt lat="36.8147216923534870147705078125" lon="-118.4233499877154827117919921875">
        <ele>3292.60009765625</ele>
        <time>2021-06-26T21:42:43.000Z</time>
        <extensions>
          <ns3:TrackPointExtension>
            <ns3:atemp>30.0</ns3:atemp>
            <ns3:hr>83</ns3:hr>
          </ns3:TrackPointExtension>
        </extensions>
      </trkpt>
      <trkpt lat="36.81470266543328762054443359375" lon="-118.4233419410884380340576171875">
        <ele>3293.199951171875</ele>
        <time>2021-06-26T21:42:46.000Z</time>
        <extensions>
          <ns3:TrackPointExtension>
            <ns3:atemp>30.0</ns3:atemp>
            <ns3:hr>85</ns3:hr>
          </ns3:TrackPointExtension>
        </extensions>
      </trkpt>
      <trkpt lat="36.814690344035625457763671875" lon="-118.4233152866363525390625">
        <ele>3293.60009765625</ele>
        <time>2021-06-26T21:42:49.000Z</time>
        <extensions>
          <ns3:TrackPointExtension>
            <ns3:atemp>30.0</ns3:atemp>
            <ns3:hr>88</ns3:hr>
          </ns3:TrackPointExtension>
        </extensions>
      </trkpt>
      <trkpt lat="36.81468405760824680328369140625" lon="-118.42329408042132854461669921875">
        <ele>3293.60009765625</ele>
        <time>2021-06-26T21:42:51.000Z</time>
        <extensions>
          <ns3:TrackPointExtension>
            <ns3:atemp>30.0</ns3:atemp>
            <ns3:hr>92</ns3:hr>
          </ns3:TrackPointExtension>
        </extensions>
      </trkpt>
      <trkpt lat="36.81468104012310504913330078125" lon="-118.4232711978256702423095703125">
        <ele>3293.60009765625</ele>
        <time>2021-06-26T21:42:53.000Z</time>
        <extensions>
          <ns3:TrackPointExtension>
            <ns3:atemp>30.0</ns3:atemp>
            <ns3:hr>96</ns3:hr>
          </ns3:TrackPointExtension>
        </extensions>
      </trkpt>
      <trkpt lat="36.81468104012310504913330078125" lon="-118.4232711978256702423095703125">
        <ele>3293.60009765625</ele>
        <time>2021-06-26T21:42:54.000Z</time>
        <extensions>
          <ns3:TrackPointExtension>
            <ns3:atemp>30.0</ns3:atemp>
            <ns3:hr>98</ns3:hr>
          </ns3:TrackPointExtension>
        </extensions>
      </trkpt>
      <trkpt lat="36.8146801181137561798095703125" lon="-118.42323373071849346160888671875">
        <ele>3293.60009765625</ele>
        <time>2021-06-26T21:42:57.000Z</time>
        <extensions>
          <ns3:TrackPointExtension>
            <ns3:atemp>30.0</ns3:atemp>
            <ns3:hr>101</ns3:hr>
          </ns3:TrackPointExtension>
        </extensions>
      </trkpt>
      <trkpt lat="36.8146854825317859649658203125" lon="-118.42321881093084812164306640625">
        <ele>3293.60009765625</ele>
        <time>2021-06-26T21:42:59.000Z</time>
        <extensions>
          <ns3:TrackPointExtension>
            <ns3:atemp>30.0</ns3:atemp>
            <ns3:hr>105</ns3:hr>
          </ns3:TrackPointExtension>
        </extensions>
      </trkpt>
      <trkpt lat="36.8146918527781963348388671875" lon="-118.42317455448210239410400390625">
        <ele>3293.39990234375</ele>
        <time>2021-06-26T21:43:03.000Z</time>
        <extensions>
          <ns3:TrackPointExtension>
            <ns3:atemp>30.0</ns3:atemp>
            <ns3:hr>108</ns3:hr>
          </ns3:TrackPointExtension>
        </extensions>
      </trkpt>
      <trkpt lat="36.8146908469498157501220703125" lon="-118.42309140600264072418212890625">
        <ele>3292.39990234375</ele>
        <time>2021-06-26T21:43:11.000Z</time>
        <extensions>
          <ns3:TrackPointExtension>
            <ns3:atemp>30.0</ns3:atemp>
            <ns3:hr>109</ns3:hr>
          </ns3:TrackPointExtension>
        </extensions>
      </trkpt>
      <trkpt lat="36.81468422524631023406982421875" lon="-118.42304983176290988922119140625">
        <ele>3292</ele>
        <time>2021-06-26T21:43:15.000Z</time>
        <extensions>
          <ns3:TrackPointExtension>
            <ns3:atemp>30.0</ns3:atemp>
            <ns3:hr>107</ns3:hr>
          </ns3:TrackPointExtension>
        </extensions>
      </trkpt>
      <trkpt lat="36.8146445788443088531494140625" lon="-118.42302233912050724029541015625">
        <ele>3292</ele>
        <time>2021-06-26T21:43:20.000Z</time>
        <extensions>
          <ns3:TrackPointExtension>
            <ns3:atemp>30.0</ns3:atemp>
            <ns3:hr>107</ns3:hr>
          </ns3:TrackPointExtension>
        </extensions>
      </trkpt>
      <trkpt lat="36.81463292799890041351318359375" lon="-118.42298344708979129791259765625">
        <ele>3291.800048828125</ele>
        <time>2021-06-26T21:43:25.000Z</time>
        <extensions>
          <ns3:TrackPointExtension>
            <ns3:atemp>30.0</ns3:atemp>
            <ns3:hr>104</ns3:hr>
          </ns3:TrackPointExtension>
        </extensions>
      </trkpt>
      <trkpt lat="36.8146294914186000823974609375" lon="-118.42297397553920745849609375">
        <ele>3291.199951171875</ele>
        <time>2021-06-26T21:43:26.000Z</time>
        <extensions>
          <ns3:TrackPointExtension>
            <ns3:atemp>30.0</ns3:atemp>
            <ns3:hr>103</ns3:hr>
          </ns3:TrackPointExtension>
        </extensions>
      </trkpt>
      <trkpt lat="36.814631335437297821044921875" lon="-118.4229493327438831329345703125">
        <ele>3291</ele>
        <time>2021-06-26T21:43:29.000Z</time>
        <extensions>
          <ns3:TrackPointExtension>
            <ns3:atemp>30.0</ns3:atemp>
            <ns3:hr>100</ns3:hr>
          </ns3:TrackPointExtension>
        </extensions>
      </trkpt>
      <trkpt lat="36.81461180560290813446044921875" lon="-118.42288655228912830352783203125">
        <ele>3290.39990234375</ele>
        <time>2021-06-26T21:43:35.000Z</time>
        <extensions>
          <ns3:TrackPointExtension>
            <ns3:atemp>30.0</ns3:atemp>
            <ns3:hr>98</ns3:hr>
          </ns3:TrackPointExtension>
        </extensions>
      </trkpt>
      <trkpt lat="36.81461901403963565826416015625" lon="-118.42285654507577419281005859375">
        <ele>3290.39990234375</ele>
        <time>2021-06-26T21:43:38.000Z</time>
        <extensions>
          <ns3:TrackPointExtension>
            <ns3:atemp>30.0</ns3:atemp>
            <ns3:hr>95</ns3:hr>
          </ns3:TrackPointExtension>
        </extensions>
      </trkpt>
      <trkpt lat="36.8146251328289508819580078125" lon="-118.42284682206809520721435546875">
        <ele>3290.39990234375</ele>
        <time>2021-06-26T21:43:39.000Z</time>
        <extensions>
          <ns3:TrackPointExtension>
            <ns3:atemp>30.0</ns3:atemp>
            <ns3:hr>94</ns3:hr>
          </ns3:TrackPointExtension>
        </extensions>
      </trkpt>
      <trkpt lat="36.81463058106601238250732421875" lon="-118.4228343330323696136474609375">
        <ele>3290.199951171875</ele>
        <time>2021-06-26T21:43:40.000Z</time>
        <extensions>
          <ns3:TrackPointExtension>
            <ns3:atemp>30.0</ns3:atemp>
            <ns3:hr>91</ns3:hr>
          </ns3:TrackPointExtension>
        </extensions>
      </trkpt>
      <trkpt lat="36.814635694026947021484375" lon="-118.42281245626509189605712890625">
        <ele>3290.39990234375</ele>
        <time>2021-06-26T21:43:42.000Z</time>
        <extensions>
          <ns3:TrackPointExtension>
            <ns3:atemp>30.0</ns3:atemp>
            <ns3:hr>92</ns3:hr>
          </ns3:TrackPointExtension>
        </extensions>
      </trkpt>
      <trkpt lat="36.81462957523763179779052734375" lon="-118.4227656014263629913330078125">
        <ele>3290.39990234375</ele>
        <time>2021-06-26T21:43:46.000Z</time>
        <extensions>
          <ns3:TrackPointExtension>
            <ns3:atemp>30.0</ns3:atemp>
            <ns3:hr>88</ns3:hr>
          </ns3:TrackPointExtension>
        </extensions>
      </trkpt>
      <trkpt lat="36.8146358616650104522705078125" lon="-118.42273903079330921173095703125">
        <ele>3290.39990234375</ele>
        <time>2021-06-26T21:43:48.000Z</time>
        <extensions>
          <ns3:TrackPointExtension>
            <ns3:atemp>30.0</ns3:atemp>
            <ns3:hr>90</ns3:hr>
          </ns3:TrackPointExtension>
        </extensions>
      </trkpt>
      <trkpt lat="36.81464315392076969146728515625" lon="-118.4227193333208560943603515625">
        <ele>3290</ele>
        <time>2021-06-26T21:43:50.000Z</time>
        <extensions>
          <ns3:TrackPointExtension>
            <ns3:atemp>30.0</ns3:atemp>
            <ns3:hr>90</ns3:hr>
          </ns3:TrackPointExtension>
        </extensions>
      </trkpt>
      <trkpt lat="36.81464650668203830718994140625" lon="-118.42271656729280948638916015625">
        <ele>3290</ele>
        <time>2021-06-26T21:43:52.000Z</time>
        <extensions>
          <ns3:TrackPointExtension>
            <ns3:atemp>30.0</ns3:atemp>
            <ns3:hr>89</ns3:hr>
          </ns3:TrackPointExtension>
        </extensions>
      </trkpt>
      <trkpt lat="36.81465270929038524627685546875" lon="-118.422710113227367401123046875">
        <ele>3290.199951171875</ele>
        <time>2021-06-26T21:43:56.000Z</time>
        <extensions>
          <ns3:TrackPointExtension>
            <ns3:atemp>30.0</ns3:atemp>
            <ns3:hr>90</ns3:hr>
          </ns3:TrackPointExtension>
        </extensions>
      </trkpt>
      <trkpt lat="36.8146586604416370391845703125" lon="-118.42267566360533237457275390625">
        <ele>3290.199951171875</ele>
        <time>2021-06-26T21:43:59.000Z</time>
        <extensions>
          <ns3:TrackPointExtension>
            <ns3:atemp>30.0</ns3:atemp>
            <ns3:hr>93</ns3:hr>
          </ns3:TrackPointExtension>
        </extensions>
      </trkpt>
      <trkpt lat="36.8146697245538234710693359375" lon="-118.4226273000240325927734375">
        <ele>3290.60009765625</ele>
        <time>2021-06-26T21:44:03.000Z</time>
        <extensions>
          <ns3:TrackPointExtension>
            <ns3:atemp>30.0</ns3:atemp>
            <ns3:hr>94</ns3:hr>
          </ns3:TrackPointExtension>
        </extensions>
      </trkpt>
      <trkpt lat="36.8147089518606662750244140625" lon="-118.42250484041869640350341796875">
        <ele>3290.800048828125</ele>
        <time>2021-06-26T21:44:13.000Z</time>
        <extensions>
          <ns3:TrackPointExtension>
            <ns3:atemp>30.0</ns3:atemp>
            <ns3:hr>93</ns3:hr>
          </ns3:TrackPointExtension>
        </extensions>
      </trkpt>
      <trkpt lat="36.8147119693458080291748046875" lon="-118.4224957041442394256591796875">
        <ele>3291</ele>
        <time>2021-06-26T21:44:14.000Z</time>
        <extensions>
          <ns3:TrackPointExtension>
            <ns3:atemp>30.0</ns3:atemp>
            <ns3:hr>90</ns3:hr>
          </ns3:TrackPointExtension>
        </extensions>
      </trkpt>
      <trkpt lat="36.81472797878086566925048828125" lon="-118.42241632752120494842529296875">
        <ele>3291.39990234375</ele>
        <time>2021-06-26T21:44:21.000Z</time>
        <extensions>
          <ns3:TrackPointExtension>
            <ns3:atemp>30.0</ns3:atemp>
            <ns3:hr>92</ns3:hr>
          </ns3:TrackPointExtension>
        </extensions>
      </trkpt>
      <trkpt lat="36.8147501908242702484130859375" lon="-118.42233024537563323974609375">
        <ele>3291.39990234375</ele>
        <time>2021-06-26T21:44:28.000Z</time>
        <extensions>
          <ns3:TrackPointExtension>
            <ns3:atemp>30.0</ns3:atemp>
            <ns3:hr>92</ns3:hr>
          </ns3:TrackPointExtension>
        </extensions>
      </trkpt>
      <trkpt lat="36.81476645171642303466796875" lon="-118.422294370830059051513671875">
        <ele>3291.800048828125</ele>
        <time>2021-06-26T21:44:32.000Z</time>
        <extensions>
          <ns3:TrackPointExtension>
            <ns3:atemp>30.0</ns3:atemp>
            <ns3:hr>94</ns3:hr>
          </ns3:TrackPointExtension>
        </extensions>
      </trkpt>
      <trkpt lat="36.81476837955415248870849609375" lon="-118.42229227535426616668701171875">
        <ele>3291.39990234375</ele>
        <time>2021-06-26T21:44:34.000Z</time>
        <extensions>
          <ns3:TrackPointExtension>
            <ns3:atemp>30.0</ns3:atemp>
            <ns3:hr>97</ns3:hr>
          </ns3:TrackPointExtension>
        </extensions>
      </trkpt>
      <trkpt lat="36.8147582374513149261474609375" lon="-118.42229059897363185882568359375">
        <ele>3291</ele>
        <time>2021-06-26T21:44:40.000Z</time>
        <extensions>
          <ns3:TrackPointExtension>
            <ns3:atemp>30.0</ns3:atemp>
            <ns3:hr>94</ns3:hr>
          </ns3:TrackPointExtension>
        </extensions>
      </trkpt>
      <trkpt lat="36.81476687081158161163330078125" lon="-118.42229763977229595184326171875">
        <ele>3291.199951171875</ele>
        <time>2021-06-26T21:44:44.000Z</time>
        <extensions>
          <ns3:TrackPointExtension>
            <ns3:atemp>30.0</ns3:atemp>
            <ns3:hr>93</ns3:hr>
          </ns3:TrackPointExtension>
        </extensions>
      </trkpt>
      <trkpt lat="36.81476620025932788848876953125" lon="-118.42229059897363185882568359375">
        <ele>3291.199951171875</ele>
        <time>2021-06-26T21:44:57.000Z</time>
        <extensions>
          <ns3:TrackPointExtension>
            <ns3:atemp>30.0</ns3:atemp>
            <ns3:hr>96</ns3:hr>
          </ns3:TrackPointExtension>
        </extensions>
      </trkpt>
      <trkpt lat="36.8147659488022327423095703125" lon="-118.422289676964282989501953125">
        <ele>3291</ele>
        <time>2021-06-26T21:44:59.000Z</time>
        <extensions>
          <ns3:TrackPointExtension>
            <ns3:atemp>30.0</ns3:atemp>
            <ns3:hr>99</ns3:hr>
          </ns3:TrackPointExtension>
        </extensions>
      </trkpt>
      <trkpt lat="36.814765445888042449951171875" lon="-118.422287665307521820068359375">
        <ele>3291</ele>
        <time>2021-06-26T21:45:01.000Z</time>
        <extensions>
          <ns3:TrackPointExtension>
            <ns3:atemp>30.0</ns3:atemp>
            <ns3:hr>103</ns3:hr>
          </ns3:TrackPointExtension>
        </extensions>
      </trkpt>
      <trkpt lat="36.814800985157489776611328125" lon="-118.4222061932086944580078125">
        <ele>3291.39990234375</ele>
        <time>2021-06-26T21:45:09.000Z</time>
        <extensions>
          <ns3:TrackPointExtension>
            <ns3:atemp>30.0</ns3:atemp>
            <ns3:hr>105</ns3:hr>
          </ns3:TrackPointExtension>
        </extensions>
      </trkpt>
      <trkpt lat="36.8148286454379558563232421875" lon="-118.42216889373958110809326171875">
        <ele>3292.199951171875</ele>
        <time>2021-06-26T21:45:12.000Z</time>
        <extensions>
          <ns3:TrackPointExtension>
            <ns3:atemp>30.0</ns3:atemp>
            <ns3:hr>104</ns3:hr>
          </ns3:TrackPointExtension>
        </extensions>
      </trkpt>
      <trkpt lat="36.814841888844966888427734375" lon="-118.4221178479492664337158203125">
        <ele>3292.199951171875</ele>
        <time>2021-06-26T21:45:16.000Z</time>
        <extensions>
          <ns3:TrackPointExtension>
            <ns3:atemp>31.0</ns3:atemp>
            <ns3:hr>101</ns3:hr>
          </ns3:TrackPointExtension>
        </extensions>
      </trkpt>
      <trkpt lat="36.81483996100723743438720703125" lon="-118.42210628092288970947265625">
        <ele>3292.199951171875</ele>
        <time>2021-06-26T21:45:17.000Z</time>
        <extensions>
          <ns3:TrackPointExtension>
            <ns3:atemp>31.0</ns3:atemp>
            <ns3:hr>100</ns3:hr>
          </ns3:TrackPointExtension>
        </extensions>
      </trkpt>
      <trkpt lat="36.81481598876416683197021484375" lon="-118.4220715798437595367431640625">
        <ele>3292.199951171875</ele>
        <time>2021-06-26T21:45:20.000Z</time>
        <extensions>
          <ns3:TrackPointExtension>
            <ns3:atemp>31.0</ns3:atemp>
            <ns3:hr>97</ns3:hr>
          </ns3:TrackPointExtension>
        </extensions>
      </trkpt>
      <trkpt lat="36.81477827019989490509033203125" lon="-118.4220430813729763031005859375">
        <ele>3292</ele>
        <time>2021-06-26T21:45:24.000Z</time>
        <extensions>
          <ns3:TrackPointExtension>
            <ns3:atemp>31.0</ns3:atemp>
            <ns3:hr>97</ns3:hr>
          </ns3:TrackPointExtension>
        </extensions>
      </trkpt>
      <trkpt lat="36.81475706398487091064453125" lon="-118.422018103301525115966796875">
        <ele>3292.800048828125</ele>
        <time>2021-06-26T21:45:28.000Z</time>
        <extensions>
          <ns3:TrackPointExtension>
            <ns3:atemp>31.0</ns3:atemp>
            <ns3:hr>97</ns3:hr>
          </ns3:TrackPointExtension>
        </extensions>
      </trkpt>
      <trkpt lat="36.81475044228136539459228515625" lon="-118.42199857346713542938232421875">
        <ele>3293</ele>
        <time>2021-06-26T21:45:30.000Z</time>
        <extensions>
          <ns3:TrackPointExtension>
            <ns3:atemp>31.0</ns3:atemp>
            <ns3:hr>98</ns3:hr>
          </ns3:TrackPointExtension>
        </extensions>
      </trkpt>
      <trkpt lat="36.81474356912076473236083984375" lon="-118.4219753555953502655029296875">
        <ele>3293.199951171875</ele>
        <time>2021-06-26T21:45:32.000Z</time>
        <extensions>
          <ns3:TrackPointExtension>
            <ns3:atemp>31.0</ns3:atemp>
            <ns3:hr>96</ns3:hr>
          </ns3:TrackPointExtension>
        </extensions>
      </trkpt>
      <trkpt lat="36.81472957134246826171875" lon="-118.42193218879401683807373046875">
        <ele>3293.800048828125</ele>
        <time>2021-06-26T21:45:36.000Z</time>
        <extensions>
          <ns3:TrackPointExtension>
            <ns3:atemp>31.0</ns3:atemp>
            <ns3:hr>99</ns3:hr>
          </ns3:TrackPointExtension>
        </extensions>
      </trkpt>
      <trkpt lat="36.81473200209438800811767578125" lon="-118.42189371585845947265625">
        <ele>3294</ele>
        <time>2021-06-26T21:45:39.000Z</time>
        <extensions>
          <ns3:TrackPointExtension>
            <ns3:atemp>31.0</ns3:atemp>
            <ns3:hr>97</ns3:hr>
          </ns3:TrackPointExtension>
        </extensions>
      </trkpt>
      <trkpt lat="36.8147344328463077545166015625" lon="-118.42187955044209957122802734375">
        <ele>3294</ele>
        <time>2021-06-26T21:45:40.000Z</time>
        <extensions>
          <ns3:TrackPointExtension>
            <ns3:atemp>31.0</ns3:atemp>
            <ns3:hr>96</ns3:hr>
          </ns3:TrackPointExtension>
        </extensions>
      </trkpt>
      <trkpt lat="36.81473988108336925506591796875" lon="-118.421844430267810821533203125">
        <ele>3294.199951171875</ele>
        <time>2021-06-26T21:45:43.000Z</time>
        <extensions>
          <ns3:TrackPointExtension>
            <ns3:atemp>31.0</ns3:atemp>
            <ns3:hr>93</ns3:hr>
          </ns3:TrackPointExtension>
        </extensions>
      </trkpt>
      <trkpt lat="36.81473904289305210113525390625" lon="-118.42183160595595836639404296875">
        <ele>3294.39990234375</ele>
        <time>2021-06-26T21:45:44.000Z</time>
        <extensions>
          <ns3:TrackPointExtension>
            <ns3:atemp>31.0</ns3:atemp>
            <ns3:hr>95</ns3:hr>
          </ns3:TrackPointExtension>
        </extensions>
      </trkpt>
      <trkpt lat="36.8147183395922183990478515625" lon="-118.42180847190320491790771484375">
        <ele>3294.60009765625</ele>
        <time>2021-06-26T21:45:47.000Z</time>
        <extensions>
          <ns3:TrackPointExtension>
            <ns3:atemp>31.0</ns3:atemp>
            <ns3:hr>96</ns3:hr>
          </ns3:TrackPointExtension>
        </extensions>
      </trkpt>
      <trkpt lat="36.81468321941792964935302734375" lon="-118.42177879996597766876220703125">
        <ele>3295.199951171875</ele>
        <time>2021-06-26T21:45:52.000Z</time>
        <extensions>
          <ns3:TrackPointExtension>
            <ns3:atemp>31.0</ns3:atemp>
            <ns3:hr>100</ns3:hr>
          </ns3:TrackPointExtension>
        </extensions>
      </trkpt>
      <trkpt lat="36.8146603368222713470458984375" lon="-118.42175985686480998992919921875">
        <ele>3295.39990234375</ele>
        <time>2021-06-26T21:45:55.000Z</time>
        <extensions>
          <ns3:TrackPointExtension>
            <ns3:atemp>31.0</ns3:atemp>
            <ns3:hr>104</ns3:hr>
          </ns3:TrackPointExtension>
        </extensions>
      </trkpt>
      <trkpt lat="36.81465656496584415435791015625" lon="-118.4217528998851776123046875">
        <ele>3295.60009765625</ele>
        <time>2021-06-26T21:45:56.000Z</time>
        <extensions>
          <ns3:TrackPointExtension>
            <ns3:atemp>31.0</ns3:atemp>
            <ns3:hr>103</ns3:hr>
          </ns3:TrackPointExtension>
        </extensions>
      </trkpt>
      <trkpt lat="36.814658828079700469970703125" lon="-118.42174543999135494232177734375">
        <ele>3295.60009765625</ele>
        <time>2021-06-26T21:45:57.000Z</time>
        <extensions>
          <ns3:TrackPointExtension>
            <ns3:atemp>31.0</ns3:atemp>
            <ns3:hr>108</ns3:hr>
          </ns3:TrackPointExtension>
        </extensions>
      </trkpt>
      <trkpt lat="36.81466855108737945556640625" lon="-118.42172565869987010955810546875">
        <ele>3295.60009765625</ele>
        <time>2021-06-26T21:45:59.000Z</time>
        <extensions>
          <ns3:TrackPointExtension>
            <ns3:atemp>31.0</ns3:atemp>
            <ns3:hr>110</ns3:hr>
          </ns3:TrackPointExtension>
        </extensions>
      </trkpt>
      <trkpt lat="36.8146640248596668243408203125" lon="-118.42170394957065582275390625">
        <ele>3295.800048828125</ele>
        <time>2021-06-26T21:46:01.000Z</time>
        <extensions>
          <ns3:TrackPointExtension>
            <ns3:atemp>31.0</ns3:atemp>
            <ns3:hr>112</ns3:hr>
          </ns3:TrackPointExtension>
        </extensions>
      </trkpt>
      <trkpt lat="36.81462001986801624298095703125" lon="-118.42167452909052371978759765625">
        <ele>3296</ele>
        <time>2021-06-26T21:46:09.000Z</time>
        <extensions>
          <ns3:TrackPointExtension>
            <ns3:atemp>31.0</ns3:atemp>
            <ns3:hr>111</ns3:hr>
          </ns3:TrackPointExtension>
        </extensions>
      </trkpt>
      <trkpt lat="36.8146180920302867889404296875" lon="-118.42167536728084087371826171875">
        <ele>3296</ele>
        <time>2021-06-26T21:46:10.000Z</time>
        <extensions>
          <ns3:TrackPointExtension>
            <ns3:atemp>31.0</ns3:atemp>
            <ns3:hr>112</ns3:hr>
          </ns3:TrackPointExtension>
        </extensions>
      </trkpt>
      <trkpt lat="36.81462387554347515106201171875" lon="-118.42166279442608356475830078125">
        <ele>3295.60009765625</ele>
        <time>2021-06-26T21:46:16.000Z</time>
        <extensions>
          <ns3:TrackPointExtension>
            <ns3:atemp>31.0</ns3:atemp>
            <ns3:hr>114</ns3:hr>
          </ns3:TrackPointExtension>
        </extensions>
      </trkpt>
      <trkpt lat="36.81462354026734828948974609375" lon="-118.42166095040738582611083984375">
        <ele>3295.60009765625</ele>
        <time>2021-06-26T21:46:22.000Z</time>
        <extensions>
          <ns3:TrackPointExtension>
            <ns3:atemp>31.0</ns3:atemp>
            <ns3:hr>110</ns3:hr>
          </ns3:TrackPointExtension>
        </extensions>
      </trkpt>
      <trkpt lat="36.81462354026734828948974609375" lon="-118.42166095040738582611083984375">
        <ele>3295.60009765625</ele>
        <time>2021-06-26T21:46:23.000Z</time>
        <extensions>
          <ns3:TrackPointExtension>
            <ns3:atemp>31.0</ns3:atemp>
            <ns3:hr>104</ns3:hr>
          </ns3:TrackPointExtension>
        </extensions>
      </trkpt>
      <trkpt lat="36.81462354026734828948974609375" lon="-118.42166095040738582611083984375">
        <ele>3295.60009765625</ele>
        <time>2021-06-26T21:46:27.000Z</time>
        <extensions>
          <ns3:TrackPointExtension>
            <ns3:atemp>30.0</ns3:atemp>
            <ns3:hr>100</ns3:hr>
          </ns3:TrackPointExtension>
        </extensions>
      </trkpt>
      <trkpt lat="36.8146221153438091278076171875" lon="-118.421662710607051849365234375">
        <ele>3295.800048828125</ele>
        <time>2021-06-26T21:46:35.000Z</time>
        <extensions>
          <ns3:TrackPointExtension>
            <ns3:atemp>30.0</ns3:atemp>
            <ns3:hr>96</ns3:hr>
          </ns3:TrackPointExtension>
        </extensions>
      </trkpt>
      <trkpt lat="36.814617924392223358154296875" lon="-118.42167176306247711181640625">
        <ele>3295.39990234375</ele>
        <time>2021-06-26T21:46:51.000Z</time>
        <extensions>
          <ns3:TrackPointExtension>
            <ns3:atemp>30.0</ns3:atemp>
            <ns3:hr>95</ns3:hr>
          </ns3:TrackPointExtension>
        </extensions>
      </trkpt>
      <trkpt lat="36.8146231211721897125244140625" lon="-118.42168022878468036651611328125">
        <ele>3295.60009765625</ele>
        <time>2021-06-26T21:47:23.000Z</time>
        <extensions>
          <ns3:TrackPointExtension>
            <ns3:atemp>30.0</ns3:atemp>
            <ns3:hr>92</ns3:hr>
          </ns3:TrackPointExtension>
        </extensions>
      </trkpt>
      <trkpt lat="36.8146214447915554046630859375" lon="-118.42168425209820270538330078125">
        <ele>3295.60009765625</ele>
        <time>2021-06-26T21:47:29.000Z</time>
        <extensions>
          <ns3:TrackPointExtension>
            <ns3:atemp>30.0</ns3:atemp>
            <ns3:hr>89</ns3:hr>
          </ns3:TrackPointExtension>
        </extensions>
      </trkpt>
      <trkpt lat="36.81461985222995281219482421875" lon="-118.42167721129953861236572265625">
        <ele>3295.60009765625</ele>
        <time>2021-06-26T21:47:39.000Z</time>
        <extensions>
          <ns3:TrackPointExtension>
            <ns3:atemp>30.0</ns3:atemp>
            <ns3:hr>86</ns3:hr>
          </ns3:TrackPointExtension>
        </extensions>
      </trkpt>
      <trkpt lat="36.8146180920302867889404296875" lon="-118.42167553491890430450439453125">
        <ele>3295.60009765625</ele>
        <time>2021-06-26T21:47:42.000Z</time>
        <extensions>
          <ns3:TrackPointExtension>
            <ns3:atemp>30.0</ns3:atemp>
            <ns3:hr>89</ns3:hr>
          </ns3:TrackPointExtension>
        </extensions>
      </trkpt>
      <trkpt lat="36.8146123923361301422119140625" lon="-118.421671092510223388671875">
        <ele>3295.60009765625</ele>
        <time>2021-06-26T21:47:48.000Z</time>
        <extensions>
          <ns3:TrackPointExtension>
            <ns3:atemp>30.0</ns3:atemp>
            <ns3:hr>93</ns3:hr>
          </ns3:TrackPointExtension>
        </extensions>
      </trkpt>
      <trkpt lat="36.81461063213646411895751953125" lon="-118.421670757234096527099609375">
        <ele>3295.60009765625</ele>
        <time>2021-06-26T21:47:49.000Z</time>
        <extensions>
          <ns3:TrackPointExtension>
            <ns3:atemp>30.0</ns3:atemp>
            <ns3:hr>90</ns3:hr>
          </ns3:TrackPointExtension>
        </extensions>
      </trkpt>
      <trkpt lat="36.8146036751568317413330078125" lon="-118.42166799120604991912841796875">
        <ele>3295.60009765625</ele>
        <time>2021-06-26T21:48:04.000Z</time>
        <extensions>
          <ns3:TrackPointExtension>
            <ns3:atemp>30.0</ns3:atemp>
            <ns3:hr>87</ns3:hr>
          </ns3:TrackPointExtension>
        </extensions>
      </trkpt>
      <trkpt lat="36.814603507518768310546875" lon="-118.4216662310063838958740234375">
        <ele>3295.60009765625</ele>
        <time>2021-06-26T21:48:11.000Z</time>
        <extensions>
          <ns3:TrackPointExtension>
            <ns3:atemp>30.0</ns3:atemp>
            <ns3:hr>84</ns3:hr>
          </ns3:TrackPointExtension>
        </extensions>
      </trkpt>
      <trkpt lat="36.81460392661392688751220703125" lon="-118.4216662310063838958740234375">
        <ele>3295.60009765625</ele>
        <time>2021-06-26T21:48:18.000Z</time>
        <extensions>
          <ns3:TrackPointExtension>
            <ns3:atemp>30.0</ns3:atemp>
            <ns3:hr>87</ns3:hr>
          </ns3:TrackPointExtension>
        </extensions>
      </trkpt>
      <trkpt lat="36.81460493244230747222900390625" lon="-118.4216679073870182037353515625">
        <ele>3295.60009765625</ele>
        <time>2021-06-26T21:48:23.000Z</time>
        <extensions>
          <ns3:TrackPointExtension>
            <ns3:atemp>30.0</ns3:atemp>
            <ns3:hr>90</ns3:hr>
          </ns3:TrackPointExtension>
        </extensions>
      </trkpt>
      <trkpt lat="36.814608871936798095703125" lon="-118.421668745577335357666015625">
        <ele>3295.60009765625</ele>
        <time>2021-06-26T21:48:32.000Z</time>
        <extensions>
          <ns3:TrackPointExtension>
            <ns3:atemp>30.0</ns3:atemp>
            <ns3:hr>87</ns3:hr>
          </ns3:TrackPointExtension>
        </extensions>
      </trkpt>
      <trkpt lat="36.8146170862019062042236328125" lon="-118.4216689132153987884521484375">
        <ele>3295.60009765625</ele>
        <time>2021-06-26T21:49:00.000Z</time>
        <extensions>
          <ns3:TrackPointExtension>
            <ns3:atemp>30.0</ns3:atemp>
            <ns3:hr>84</ns3:hr>
          </ns3:TrackPointExtension>
        </extensions>
      </trkpt>
      <trkpt lat="36.814619936048984527587890625" lon="-118.4216692484915256500244140625">
        <ele>3295.60009765625</ele>
        <time>2021-06-26T21:49:24.000Z</time>
        <extensions>
          <ns3:TrackPointExtension>
            <ns3:atemp>30.0</ns3:atemp>
            <ns3:hr>81</ns3:hr>
          </ns3:TrackPointExtension>
        </extensions>
      </trkpt>
      <trkpt lat="36.814619265496730804443359375" lon="-118.42166916467249393463134765625">
        <ele>3295.60009765625</ele>
        <time>2021-06-26T21:49:28.000Z</time>
        <extensions>
          <ns3:TrackPointExtension>
            <ns3:atemp>30.0</ns3:atemp>
            <ns3:hr>78</ns3:hr>
          </ns3:TrackPointExtension>
        </extensions>
      </trkpt>
      <trkpt lat="36.814618594944477081298828125" lon="-118.42166899703443050384521484375">
        <ele>3295.60009765625</ele>
        <time>2021-06-26T21:49:30.000Z</time>
        <extensions>
          <ns3:TrackPointExtension>
            <ns3:atemp>30.0</ns3:atemp>
            <ns3:hr>82</ns3:hr>
          </ns3:TrackPointExtension>
        </extensions>
      </trkpt>
      <trkpt lat="36.8146170862019062042236328125" lon="-118.4216679073870182037353515625">
        <ele>3295.60009765625</ele>
        <time>2021-06-26T21:49:41.000Z</time>
        <extensions>
          <ns3:TrackPointExtension>
            <ns3:atemp>30.0</ns3:atemp>
            <ns3:hr>87</ns3:hr>
          </ns3:TrackPointExtension>
        </extensions>
      </trkpt>
      <trkpt lat="36.81461700238287448883056640625" lon="-118.42166773974895477294921875">
        <ele>3295.60009765625</ele>
        <time>2021-06-26T21:49:48.000Z</time>
        <extensions>
          <ns3:TrackPointExtension>
            <ns3:atemp>30.0</ns3:atemp>
            <ns3:hr>90</ns3:hr>
          </ns3:TrackPointExtension>
        </extensions>
      </trkpt>
      <trkpt lat="36.81461700238287448883056640625" lon="-118.42166773974895477294921875">
        <ele>3295.60009765625</ele>
        <time>2021-06-26T21:49:52.000Z</time>
        <extensions>
          <ns3:TrackPointExtension>
            <ns3:atemp>30.0</ns3:atemp>
            <ns3:hr>87</ns3:hr>
          </ns3:TrackPointExtension>
        </extensions>
      </trkpt>
      <trkpt lat="36.8146169185638427734375" lon="-118.42166765592992305755615234375">
        <ele>3295.60009765625</ele>
        <time>2021-06-26T21:49:54.000Z</time>
        <extensions>
          <ns3:TrackPointExtension>
            <ns3:atemp>30.0</ns3:atemp>
            <ns3:hr>83</ns3:hr>
          </ns3:TrackPointExtension>
        </extensions>
      </trkpt>
      <trkpt lat="36.8146169185638427734375" lon="-118.42166765592992305755615234375">
        <ele>3295.60009765625</ele>
        <time>2021-06-26T21:49:57.000Z</time>
        <extensions>
          <ns3:TrackPointExtension>
            <ns3:atemp>30.0</ns3:atemp>
            <ns3:hr>77</ns3:hr>
          </ns3:TrackPointExtension>
        </extensions>
      </trkpt>
      <trkpt lat="36.8146169185638427734375" lon="-118.42166765592992305755615234375">
        <ele>3295.60009765625</ele>
        <time>2021-06-26T21:49:58.000Z</time>
        <extensions>
          <ns3:TrackPointExtension>
            <ns3:atemp>30.0</ns3:atemp>
            <ns3:hr>81</ns3:hr>
          </ns3:TrackPointExtension>
        </extensions>
      </trkpt>
      <trkpt lat="36.81461683474481105804443359375" lon="-118.42166765592992305755615234375">
        <ele>3295.60009765625</ele>
        <time>2021-06-26T21:50:07.000Z</time>
        <extensions>
          <ns3:TrackPointExtension>
            <ns3:atemp>30.0</ns3:atemp>
            <ns3:hr>85</ns3:hr>
          </ns3:TrackPointExtension>
        </extensions>
      </trkpt>
      <trkpt lat="36.81461683474481105804443359375" lon="-118.42166765592992305755615234375">
        <ele>3295.60009765625</ele>
        <time>2021-06-26T21:50:11.000Z</time>
        <extensions>
          <ns3:TrackPointExtension>
            <ns3:atemp>30.0</ns3:atemp>
            <ns3:hr>88</ns3:hr>
          </ns3:TrackPointExtension>
        </extensions>
      </trkpt>
      <trkpt lat="36.8146169185638427734375" lon="-118.42166773974895477294921875">
        <ele>3295.60009765625</ele>
        <time>2021-06-26T21:50:14.000Z</time>
        <extensions>
          <ns3:TrackPointExtension>
            <ns3:atemp>30.0</ns3:atemp>
            <ns3:hr>90</ns3:hr>
          </ns3:TrackPointExtension>
        </extensions>
      </trkpt>
      <trkpt lat="36.8146169185638427734375" lon="-118.4216679073870182037353515625">
        <ele>3295.60009765625</ele>
        <time>2021-06-26T21:50:28.000Z</time>
        <extensions>
          <ns3:TrackPointExtension>
            <ns3:atemp>30.0</ns3:atemp>
            <ns3:hr>87</ns3:hr>
          </ns3:TrackPointExtension>
        </extensions>
      </trkpt>
      <trkpt lat="36.8146169185638427734375" lon="-118.42166799120604991912841796875">
        <ele>3295.60009765625</ele>
        <time>2021-06-26T21:50:31.000Z</time>
        <extensions>
          <ns3:TrackPointExtension>
            <ns3:atemp>30.0</ns3:atemp>
            <ns3:hr>84</ns3:hr>
          </ns3:TrackPointExtension>
        </extensions>
      </trkpt>
      <trkpt lat="36.81461700238287448883056640625" lon="-118.42166799120604991912841796875">
        <ele>3295.60009765625</ele>
        <time>2021-06-26T21:50:35.000Z</time>
        <extensions>
          <ns3:TrackPointExtension>
            <ns3:atemp>30.0</ns3:atemp>
            <ns3:hr>81</ns3:hr>
          </ns3:TrackPointExtension>
        </extensions>
      </trkpt>
      <trkpt lat="36.8146033398807048797607421875" lon="-118.4216555021703243255615234375">
        <ele>3295.60009765625</ele>
        <time>2021-06-26T21:50:45.000Z</time>
        <extensions>
          <ns3:TrackPointExtension>
            <ns3:atemp>30.0</ns3:atemp>
            <ns3:hr>84</ns3:hr>
          </ns3:TrackPointExtension>
        </extensions>
      </trkpt>
      <trkpt lat="36.8145667947828769683837890625" lon="-118.421636559069156646728515625">
        <ele>3295.60009765625</ele>
        <time>2021-06-26T21:50:48.000Z</time>
        <extensions>
          <ns3:TrackPointExtension>
            <ns3:atemp>30.0</ns3:atemp>
            <ns3:hr>85</ns3:hr>
          </ns3:TrackPointExtension>
        </extensions>
      </trkpt>
      <trkpt lat="36.81455447338521480560302734375" lon="-118.421631865203380584716796875">
        <ele>3295.60009765625</ele>
        <time>2021-06-26T21:50:49.000Z</time>
        <extensions>
          <ns3:TrackPointExtension>
            <ns3:atemp>30.0</ns3:atemp>
            <ns3:hr>85</ns3:hr>
          </ns3:TrackPointExtension>
        </extensions>
      </trkpt>
      <trkpt lat="36.814473085105419158935546875" lon="-118.42160336673259735107421875">
        <ele>3295</ele>
        <time>2021-06-26T21:50:56.000Z</time>
        <extensions>
          <ns3:TrackPointExtension>
            <ns3:atemp>30.0</ns3:atemp>
            <ns3:hr>88</ns3:hr>
          </ns3:TrackPointExtension>
        </extensions>
      </trkpt>
      <trkpt lat="36.81446428410708904266357421875" lon="-118.4215934760868549346923828125">
        <ele>3295.199951171875</ele>
        <time>2021-06-26T21:50:57.000Z</time>
        <extensions>
          <ns3:TrackPointExtension>
            <ns3:atemp>30.0</ns3:atemp>
            <ns3:hr>88</ns3:hr>
          </ns3:TrackPointExtension>
        </extensions>
      </trkpt>
      <trkpt lat="36.8144206143915653228759765625" lon="-118.4215639717876911163330078125">
        <ele>3295.60009765625</ele>
        <time>2021-06-26T21:51:02.000Z</time>
        <extensions>
          <ns3:TrackPointExtension>
            <ns3:atemp>30.0</ns3:atemp>
            <ns3:hr>91</ns3:hr>
          </ns3:TrackPointExtension>
        </extensions>
      </trkpt>
      <trkpt lat="36.814394630491733551025390625" lon="-118.42155366204679012298583984375">
        <ele>3295.39990234375</ele>
        <time>2021-06-26T21:51:05.000Z</time>
        <extensions>
          <ns3:TrackPointExtension>
            <ns3:atemp>30.0</ns3:atemp>
            <ns3:hr>92</ns3:hr>
          </ns3:TrackPointExtension>
        </extensions>
      </trkpt>
      <trkpt lat="36.81436185725033283233642578125" lon="-118.42155097983777523040771484375">
        <ele>3294.800048828125</ele>
        <time>2021-06-26T21:51:08.000Z</time>
        <extensions>
          <ns3:TrackPointExtension>
            <ns3:atemp>30.0</ns3:atemp>
            <ns3:hr>89</ns3:hr>
          </ns3:TrackPointExtension>
        </extensions>
      </trkpt>
      <trkpt lat="36.81434509344398975372314453125" lon="-118.42153823934495449066162109375">
        <ele>3294.39990234375</ele>
        <time>2021-06-26T21:51:10.000Z</time>
        <extensions>
          <ns3:TrackPointExtension>
            <ns3:atemp>30.0</ns3:atemp>
            <ns3:hr>92</ns3:hr>
          </ns3:TrackPointExtension>
        </extensions>
      </trkpt>
      <trkpt lat="36.81429974734783172607421875" lon="-118.4214954078197479248046875">
        <ele>3294.199951171875</ele>
        <time>2021-06-26T21:51:14.000Z</time>
        <extensions>
          <ns3:TrackPointExtension>
            <ns3:atemp>30.0</ns3:atemp>
            <ns3:hr>93</ns3:hr>
          </ns3:TrackPointExtension>
        </extensions>
      </trkpt>
      <trkpt lat="36.8142643757164478302001953125" lon="-118.4214881993830204010009765625">
        <ele>3293.800048828125</ele>
        <time>2021-06-26T21:51:17.000Z</time>
        <extensions>
          <ns3:TrackPointExtension>
            <ns3:atemp>30.0</ns3:atemp>
            <ns3:hr>92</ns3:hr>
          </ns3:TrackPointExtension>
        </extensions>
      </trkpt>
      <trkpt lat="36.81423378176987171173095703125" lon="-118.42146866954863071441650390625">
        <ele>3293.39990234375</ele>
        <time>2021-06-26T21:51:21.000Z</time>
        <extensions>
          <ns3:TrackPointExtension>
            <ns3:atemp>30.0</ns3:atemp>
            <ns3:hr>90</ns3:hr>
          </ns3:TrackPointExtension>
        </extensions>
      </trkpt>
      <trkpt lat="36.81414945982396602630615234375" lon="-118.42142508365213871002197265625">
        <ele>3292.800048828125</ele>
        <time>2021-06-26T21:51:30.000Z</time>
        <extensions>
          <ns3:TrackPointExtension>
            <ns3:atemp>30.0</ns3:atemp>
            <ns3:hr>88</ns3:hr>
          </ns3:TrackPointExtension>
        </extensions>
      </trkpt>
      <trkpt lat="36.81413454003632068634033203125" lon="-118.42142508365213871002197265625">
        <ele>3292.199951171875</ele>
        <time>2021-06-26T21:51:33.000Z</time>
        <extensions>
          <ns3:TrackPointExtension>
            <ns3:atemp>30.0</ns3:atemp>
            <ns3:hr>89</ns3:hr>
          </ns3:TrackPointExtension>
        </extensions>
      </trkpt>
      <trkpt lat="36.81409514509141445159912109375" lon="-118.4214077331125736236572265625">
        <ele>3292.199951171875</ele>
        <time>2021-06-26T21:51:37.000Z</time>
        <extensions>
          <ns3:TrackPointExtension>
            <ns3:atemp>30.0</ns3:atemp>
            <ns3:hr>88</ns3:hr>
          </ns3:TrackPointExtension>
        </extensions>
      </trkpt>
      <trkpt lat="36.81400311179459095001220703125" lon="-118.42134998179972171783447265625">
        <ele>3292.60009765625</ele>
        <time>2021-06-26T21:51:47.000Z</time>
        <extensions>
          <ns3:TrackPointExtension>
            <ns3:atemp>30.0</ns3:atemp>
            <ns3:hr>85</ns3:hr>
          </ns3:TrackPointExtension>
        </extensions>
      </trkpt>
      <trkpt lat="36.81398190557956695556640625" lon="-118.42133581638336181640625">
        <ele>3292.60009765625</ele>
        <time>2021-06-26T21:51:50.000Z</time>
        <extensions>
          <ns3:TrackPointExtension>
            <ns3:atemp>30.0</ns3:atemp>
            <ns3:hr>88</ns3:hr>
          </ns3:TrackPointExtension>
        </extensions>
      </trkpt>
      <trkpt lat="36.81389783509075641632080078125" lon="-118.42127135954797267913818359375">
        <ele>3293.199951171875</ele>
        <time>2021-06-26T21:52:00.000Z</time>
        <extensions>
          <ns3:TrackPointExtension>
            <ns3:atemp>30.0</ns3:atemp>
            <ns3:hr>88</ns3:hr>
          </ns3:TrackPointExtension>
        </extensions>
      </trkpt>
      <trkpt lat="36.81382139213383197784423828125" lon="-118.42121687717735767364501953125">
        <ele>3293.60009765625</ele>
        <time>2021-06-26T21:52:08.000Z</time>
        <extensions>
          <ns3:TrackPointExtension>
            <ns3:atemp>29.0</ns3:atemp>
            <ns3:hr>86</ns3:hr>
          </ns3:TrackPointExtension>
        </extensions>
      </trkpt>
      <trkpt lat="36.813795156776905059814453125" lon="-118.421203382313251495361328125">
        <ele>3293.800048828125</ele>
        <time>2021-06-26T21:52:11.000Z</time>
        <extensions>
          <ns3:TrackPointExtension>
            <ns3:atemp>29.0</ns3:atemp>
            <ns3:hr>87</ns3:hr>
          </ns3:TrackPointExtension>
        </extensions>
      </trkpt>
      <trkpt lat="36.8137205578386783599853515625" lon="-118.421183936297893524169921875">
        <ele>3294.39990234375</ele>
        <time>2021-06-26T21:52:19.000Z</time>
        <extensions>
          <ns3:TrackPointExtension>
            <ns3:atemp>29.0</ns3:atemp>
            <ns3:hr>90</ns3:hr>
          </ns3:TrackPointExtension>
        </extensions>
      </trkpt>
      <trkpt lat="36.81371360085904598236083984375" lon="-118.4211841039359569549560546875">
        <ele>3294.800048828125</ele>
        <time>2021-06-26T21:52:20.000Z</time>
        <extensions>
          <ns3:TrackPointExtension>
            <ns3:atemp>29.0</ns3:atemp>
            <ns3:hr>91</ns3:hr>
          </ns3:TrackPointExtension>
        </extensions>
      </trkpt>
      <trkpt lat="36.81370471604168415069580078125" lon="-118.42117731459438800811767578125">
        <ele>3295.199951171875</ele>
        <time>2021-06-26T21:52:21.000Z</time>
        <extensions>
          <ns3:TrackPointExtension>
            <ns3:atemp>29.0</ns3:atemp>
            <ns3:hr>92</ns3:hr>
          </ns3:TrackPointExtension>
        </extensions>
      </trkpt>
      <trkpt lat="36.81369381956756114959716796875" lon="-118.42116750776767730712890625">
        <ele>3295.199951171875</ele>
        <time>2021-06-26T21:52:22.000Z</time>
        <extensions>
          <ns3:TrackPointExtension>
            <ns3:atemp>29.0</ns3:atemp>
            <ns3:hr>93</ns3:hr>
          </ns3:TrackPointExtension>
        </extensions>
      </trkpt>
      <trkpt lat="36.81366884149610996246337890625" lon="-118.4211522527039051055908203125">
        <ele>3295.199951171875</ele>
        <time>2021-06-26T21:52:25.000Z</time>
        <extensions>
          <ns3:TrackPointExtension>
            <ns3:atemp>29.0</ns3:atemp>
            <ns3:hr>95</ns3:hr>
          </ns3:TrackPointExtension>
        </extensions>
      </trkpt>
      <trkpt lat="36.81365526281297206878662109375" lon="-118.42114412225782871246337890625">
        <ele>3295.199951171875</ele>
        <time>2021-06-26T21:52:27.000Z</time>
        <extensions>
          <ns3:TrackPointExtension>
            <ns3:atemp>29.0</ns3:atemp>
            <ns3:hr>96</ns3:hr>
          </ns3:TrackPointExtension>
        </extensions>
      </trkpt>
      <trkpt lat="36.81363564915955066680908203125" lon="-118.42112484388053417205810546875">
        <ele>3295.800048828125</ele>
        <time>2021-06-26T21:52:30.000Z</time>
        <extensions>
          <ns3:TrackPointExtension>
            <ns3:atemp>29.0</ns3:atemp>
            <ns3:hr>97</ns3:hr>
          </ns3:TrackPointExtension>
        </extensions>
      </trkpt>
      <trkpt lat="36.81362056173384189605712890625" lon="-118.42109751887619495391845703125">
        <ele>3296.39990234375</ele>
        <time>2021-06-26T21:52:35.000Z</time>
        <extensions>
          <ns3:TrackPointExtension>
            <ns3:atemp>29.0</ns3:atemp>
            <ns3:hr>97</ns3:hr>
          </ns3:TrackPointExtension>
        </extensions>
      </trkpt>
      <trkpt lat="36.813625507056713104248046875" lon="-118.4210798330605030059814453125">
        <ele>3296.39990234375</ele>
        <time>2021-06-26T21:52:37.000Z</time>
        <extensions>
          <ns3:TrackPointExtension>
            <ns3:atemp>29.0</ns3:atemp>
            <ns3:hr>99</ns3:hr>
          </ns3:TrackPointExtension>
        </extensions>
      </trkpt>
      <trkpt lat="36.81363581679761409759521484375" lon="-118.42105326242744922637939453125">
        <ele>3296.199951171875</ele>
        <time>2021-06-26T21:52:40.000Z</time>
        <extensions>
          <ns3:TrackPointExtension>
            <ns3:atemp>29.0</ns3:atemp>
            <ns3:hr>99</ns3:hr>
          </ns3:TrackPointExtension>
        </extensions>
      </trkpt>
      <trkpt lat="36.8136595375835895538330078125" lon="-118.421052508056163787841796875">
        <ele>3295.60009765625</ele>
        <time>2021-06-26T21:52:43.000Z</time>
        <extensions>
          <ns3:TrackPointExtension>
            <ns3:atemp>29.0</ns3:atemp>
            <ns3:hr>103</ns3:hr>
          </ns3:TrackPointExtension>
        </extensions>
      </trkpt>
      <trkpt lat="36.81366867385804653167724609375" lon="-118.42105544172227382659912109375">
        <ele>3296</ele>
        <time>2021-06-26T21:52:44.000Z</time>
        <extensions>
          <ns3:TrackPointExtension>
            <ns3:atemp>29.0</ns3:atemp>
            <ns3:hr>107</ns3:hr>
          </ns3:TrackPointExtension>
        </extensions>
      </trkpt>
      <trkpt lat="36.81369147263467311859130859375" lon="-118.42105125077068805694580078125">
        <ele>3295.60009765625</ele>
        <time>2021-06-26T21:52:47.000Z</time>
        <extensions>
          <ns3:TrackPointExtension>
            <ns3:atemp>29.0</ns3:atemp>
            <ns3:hr>110</ns3:hr>
          </ns3:TrackPointExtension>
        </extensions>
      </trkpt>
      <trkpt lat="36.81371091865003108978271484375" lon="-118.421032726764678955078125">
        <ele>3295.800048828125</ele>
        <time>2021-06-26T21:52:50.000Z</time>
        <extensions>
          <ns3:TrackPointExtension>
            <ns3:atemp>29.0</ns3:atemp>
            <ns3:hr>113</ns3:hr>
          </ns3:TrackPointExtension>
        </extensions>
      </trkpt>
      <trkpt lat="36.81371343322098255157470703125" lon="-118.42102669179439544677734375">
        <ele>3295.800048828125</ele>
        <time>2021-06-26T21:52:51.000Z</time>
        <extensions>
          <ns3:TrackPointExtension>
            <ns3:atemp>29.0</ns3:atemp>
            <ns3:hr>114</ns3:hr>
          </ns3:TrackPointExtension>
        </extensions>
      </trkpt>
      <trkpt lat="36.81371091865003108978271484375" lon="-118.4210206568241119384765625">
        <ele>3296.199951171875</ele>
        <time>2021-06-26T21:52:53.000Z</time>
        <extensions>
          <ns3:TrackPointExtension>
            <ns3:atemp>29.0</ns3:atemp>
            <ns3:hr>115</ns3:hr>
          </ns3:TrackPointExtension>
        </extensions>
      </trkpt>
      <trkpt lat="36.81372181512415409088134765625" lon="-118.42101101763546466827392578125">
        <ele>3296.60009765625</ele>
        <time>2021-06-26T21:52:56.000Z</time>
        <extensions>
          <ns3:TrackPointExtension>
            <ns3:atemp>29.0</ns3:atemp>
            <ns3:hr>116</ns3:hr>
          </ns3:TrackPointExtension>
        </extensions>
      </trkpt>
      <trkpt lat="36.8137269280850887298583984375" lon="-118.4210126101970672607421875">
        <ele>3296.39990234375</ele>
        <time>2021-06-26T21:52:57.000Z</time>
        <extensions>
          <ns3:TrackPointExtension>
            <ns3:atemp>29.0</ns3:atemp>
            <ns3:hr>116</ns3:hr>
          </ns3:TrackPointExtension>
        </extensions>
      </trkpt>
      <trkpt lat="36.81373489089310169219970703125" lon="-118.42101185582578182220458984375">
        <ele>3296.60009765625</ele>
        <time>2021-06-26T21:52:58.000Z</time>
        <extensions>
          <ns3:TrackPointExtension>
            <ns3:atemp>29.0</ns3:atemp>
            <ns3:hr>116</ns3:hr>
          </ns3:TrackPointExtension>
        </extensions>
      </trkpt>
      <trkpt lat="36.81376196444034576416015625" lon="-118.42099157162010669708251953125">
        <ele>3296.60009765625</ele>
        <time>2021-06-26T21:53:02.000Z</time>
        <extensions>
          <ns3:TrackPointExtension>
            <ns3:atemp>29.0</ns3:atemp>
            <ns3:hr>116</ns3:hr>
          </ns3:TrackPointExtension>
        </extensions>
      </trkpt>
      <trkpt lat="36.8137701787054538726806640625" lon="-118.42097514308989048004150390625">
        <ele>3296.60009765625</ele>
        <time>2021-06-26T21:53:04.000Z</time>
        <extensions>
          <ns3:TrackPointExtension>
            <ns3:atemp>29.0</ns3:atemp>
            <ns3:hr>116</ns3:hr>
          </ns3:TrackPointExtension>
        </extensions>
      </trkpt>
      <trkpt lat="36.81377931497991085052490234375" lon="-118.42096776701509952545166015625">
        <ele>3296.199951171875</ele>
        <time>2021-06-26T21:53:06.000Z</time>
        <extensions>
          <ns3:TrackPointExtension>
            <ns3:atemp>29.0</ns3:atemp>
            <ns3:hr>116</ns3:hr>
          </ns3:TrackPointExtension>
        </extensions>
      </trkpt>
      <trkpt lat="36.8138003535568714141845703125" lon="-118.42096273787319660186767578125">
        <ele>3296.199951171875</ele>
        <time>2021-06-26T21:53:11.000Z</time>
        <extensions>
          <ns3:TrackPointExtension>
            <ns3:atemp>29.0</ns3:atemp>
            <ns3:hr>115</ns3:hr>
          </ns3:TrackPointExtension>
        </extensions>
      </trkpt>
      <trkpt lat="36.81379306130111217498779296875" lon="-118.4209655039012432098388671875">
        <ele>3296.199951171875</ele>
        <time>2021-06-26T21:53:18.000Z</time>
        <extensions>
          <ns3:TrackPointExtension>
            <ns3:atemp>29.0</ns3:atemp>
            <ns3:hr>111</ns3:hr>
          </ns3:TrackPointExtension>
        </extensions>
      </trkpt>
      <trkpt lat="36.81379306130111217498779296875" lon="-118.4209655039012432098388671875">
        <ele>3296.199951171875</ele>
        <time>2021-06-26T21:53:20.000Z</time>
        <extensions>
          <ns3:TrackPointExtension>
            <ns3:atemp>30.0</ns3:atemp>
            <ns3:hr>113</ns3:hr>
          </ns3:TrackPointExtension>
        </extensions>
      </trkpt>
      <trkpt lat="36.8138055503368377685546875" lon="-118.42095050029456615447998046875">
        <ele>3296.800048828125</ele>
        <time>2021-06-26T21:53:25.000Z</time>
        <extensions>
          <ns3:TrackPointExtension>
            <ns3:atemp>30.0</ns3:atemp>
            <ns3:hr>106</ns3:hr>
          </ns3:TrackPointExtension>
        </extensions>
      </trkpt>
      <trkpt lat="36.81381301023066043853759765625" lon="-118.42093725688755512237548828125">
        <ele>3297.199951171875</ele>
        <time>2021-06-26T21:53:26.000Z</time>
        <extensions>
          <ns3:TrackPointExtension>
            <ns3:atemp>30.0</ns3:atemp>
            <ns3:hr>106</ns3:hr>
          </ns3:TrackPointExtension>
        </extensions>
      </trkpt>
      <trkpt lat="36.813828013837337493896484375" lon="-118.42089928686618804931640625">
        <ele>3297.60009765625</ele>
        <time>2021-06-26T21:53:28.000Z</time>
        <extensions>
          <ns3:TrackPointExtension>
            <ns3:atemp>30.0</ns3:atemp>
            <ns3:hr>106</ns3:hr>
          </ns3:TrackPointExtension>
        </extensions>
      </trkpt>
      <trkpt lat="36.813825331628322601318359375" lon="-118.4208096005022525787353515625">
        <ele>3298</ele>
        <time>2021-06-26T21:53:34.000Z</time>
        <extensions>
          <ns3:TrackPointExtension>
            <ns3:atemp>30.0</ns3:atemp>
            <ns3:hr>108</ns3:hr>
          </ns3:TrackPointExtension>
        </extensions>
      </trkpt>
      <trkpt lat="36.813819296658039093017578125" lon="-118.420793674886226654052734375">
        <ele>3298.199951171875</ele>
        <time>2021-06-26T21:53:36.000Z</time>
        <extensions>
          <ns3:TrackPointExtension>
            <ns3:atemp>30.0</ns3:atemp>
            <ns3:hr>108</ns3:hr>
          </ns3:TrackPointExtension>
        </extensions>
      </trkpt>
      <trkpt lat="36.81381854228675365447998046875" lon="-118.42078655026853084564208984375">
        <ele>3298.199951171875</ele>
        <time>2021-06-26T21:53:37.000Z</time>
        <extensions>
          <ns3:TrackPointExtension>
            <ns3:atemp>30.0</ns3:atemp>
            <ns3:hr>109</ns3:hr>
          </ns3:TrackPointExtension>
        </extensions>
      </trkpt>
      <trkpt lat="36.81382658891379833221435546875" lon="-118.4207851253449916839599609375">
        <ele>3298.199951171875</ele>
        <time>2021-06-26T21:53:39.000Z</time>
        <extensions>
          <ns3:TrackPointExtension>
            <ns3:atemp>30.0</ns3:atemp>
            <ns3:hr>109</ns3:hr>
          </ns3:TrackPointExtension>
        </extensions>
      </trkpt>
      <trkpt lat="36.81386045180261135101318359375" lon="-118.420745395123958587646484375">
        <ele>3299.39990234375</ele>
        <time>2021-06-26T21:53:46.000Z</time>
        <extensions>
          <ns3:TrackPointExtension>
            <ns3:atemp>30.0</ns3:atemp>
            <ns3:hr>111</ns3:hr>
          </ns3:TrackPointExtension>
        </extensions>
      </trkpt>
      <trkpt lat="36.8138727732002735137939453125" lon="-118.4207311458885669708251953125">
        <ele>3299.800048828125</ele>
        <time>2021-06-26T21:53:50.000Z</time>
        <extensions>
          <ns3:TrackPointExtension>
            <ns3:atemp>30.0</ns3:atemp>
            <ns3:hr>112</ns3:hr>
          </ns3:TrackPointExtension>
        </extensions>
      </trkpt>
      <trkpt lat="36.81388358585536479949951171875" lon="-118.420725278556346893310546875">
        <ele>3300</ele>
        <time>2021-06-26T21:53:52.000Z</time>
        <extensions>
          <ns3:TrackPointExtension>
            <ns3:atemp>30.0</ns3:atemp>
            <ns3:hr>112</ns3:hr>
          </ns3:TrackPointExtension>
        </extensions>
      </trkpt>
      <trkpt lat="36.81388710625469684600830078125" lon="-118.42071077786386013031005859375">
        <ele>3300.60009765625</ele>
        <time>2021-06-26T21:53:54.000Z</time>
        <extensions>
          <ns3:TrackPointExtension>
            <ns3:atemp>30.0</ns3:atemp>
            <ns3:hr>113</ns3:hr>
          </ns3:TrackPointExtension>
        </extensions>
      </trkpt>
      <trkpt lat="36.81386791169643402099609375" lon="-118.42065579257905483245849609375">
        <ele>3300.800048828125</ele>
        <time>2021-06-26T21:53:59.000Z</time>
        <extensions>
          <ns3:TrackPointExtension>
            <ns3:atemp>30.0</ns3:atemp>
            <ns3:hr>112</ns3:hr>
          </ns3:TrackPointExtension>
        </extensions>
      </trkpt>
      <trkpt lat="36.81386246345937252044677734375" lon="-118.42063601128756999969482421875">
        <ele>3302.199951171875</ele>
        <time>2021-06-26T21:54:02.000Z</time>
        <extensions>
          <ns3:TrackPointExtension>
            <ns3:atemp>30.0</ns3:atemp>
            <ns3:hr>113</ns3:hr>
          </ns3:TrackPointExtension>
        </extensions>
      </trkpt>
      <trkpt lat="36.81384653784334659576416015625" lon="-118.4206137992441654205322265625">
        <ele>3302.199951171875</ele>
        <time>2021-06-26T21:54:06.000Z</time>
        <extensions>
          <ns3:TrackPointExtension>
            <ns3:atemp>30.0</ns3:atemp>
            <ns3:hr>113</ns3:hr>
          </ns3:TrackPointExtension>
        </extensions>
      </trkpt>
      <trkpt lat="36.81383513845503330230712890625" lon="-118.42056996189057826995849609375">
        <ele>3303.199951171875</ele>
        <time>2021-06-26T21:54:13.000Z</time>
        <extensions>
          <ns3:TrackPointExtension>
            <ns3:atemp>30.0</ns3:atemp>
            <ns3:hr>114</ns3:hr>
          </ns3:TrackPointExtension>
        </extensions>
      </trkpt>
      <trkpt lat="36.81387386284768581390380859375" lon="-118.4205564670264720916748046875">
        <ele>3303.60009765625</ele>
        <time>2021-06-26T21:54:18.000Z</time>
        <extensions>
          <ns3:TrackPointExtension>
            <ns3:atemp>30.0</ns3:atemp>
            <ns3:hr>117</ns3:hr>
          </ns3:TrackPointExtension>
        </extensions>
      </trkpt>
      <trkpt lat="36.8138714320957660675048828125" lon="-118.420548923313617706298828125">
        <ele>3303.800048828125</ele>
        <time>2021-06-26T21:54:19.000Z</time>
        <extensions>
          <ns3:TrackPointExtension>
            <ns3:atemp>30.0</ns3:atemp>
            <ns3:hr>117</ns3:hr>
          </ns3:TrackPointExtension>
        </extensions>
      </trkpt>
      <trkpt lat="36.8138640560209751129150390625" lon="-118.42053182423114776611328125">
        <ele>3304.199951171875</ele>
        <time>2021-06-26T21:54:21.000Z</time>
        <extensions>
          <ns3:TrackPointExtension>
            <ns3:atemp>30.0</ns3:atemp>
            <ns3:hr>116</ns3:hr>
          </ns3:TrackPointExtension>
        </extensions>
      </trkpt>
      <trkpt lat="36.81385173462331295013427734375" lon="-118.4205148927867412567138671875">
        <ele>3305</ele>
        <time>2021-06-26T21:54:24.000Z</time>
        <extensions>
          <ns3:TrackPointExtension>
            <ns3:atemp>30.0</ns3:atemp>
            <ns3:hr>119</ns3:hr>
          </ns3:TrackPointExtension>
        </extensions>
      </trkpt>
      <trkpt lat="36.8138296902179718017578125" lon="-118.4204974584281444549560546875">
        <ele>3305.199951171875</ele>
        <time>2021-06-26T21:54:28.000Z</time>
        <extensions>
          <ns3:TrackPointExtension>
            <ns3:atemp>30.0</ns3:atemp>
            <ns3:hr>122</ns3:hr>
          </ns3:TrackPointExtension>
        </extensions>
      </trkpt>
      <trkpt lat="36.81382407434284687042236328125" lon="-118.4204934351146221160888671875">
        <ele>3305.199951171875</ele>
        <time>2021-06-26T21:54:29.000Z</time>
        <extensions>
          <ns3:TrackPointExtension>
            <ns3:atemp>30.0</ns3:atemp>
            <ns3:hr>122</ns3:hr>
          </ns3:TrackPointExtension>
        </extensions>
      </trkpt>
      <trkpt lat="36.8138028681278228759765625" lon="-118.42047507874667644500732421875">
        <ele>3306.199951171875</ele>
        <time>2021-06-26T21:54:35.000Z</time>
        <extensions>
          <ns3:TrackPointExtension>
            <ns3:atemp>30.0</ns3:atemp>
            <ns3:hr>124</ns3:hr>
          </ns3:TrackPointExtension>
        </extensions>
      </trkpt>
      <trkpt lat="36.81379708461463451385498046875" lon="-118.42047038488090038299560546875">
        <ele>3306.39990234375</ele>
        <time>2021-06-26T21:54:36.000Z</time>
        <extensions>
          <ns3:TrackPointExtension>
            <ns3:atemp>30.0</ns3:atemp>
            <ns3:hr>125</ns3:hr>
          </ns3:TrackPointExtension>
        </extensions>
      </trkpt>
      <trkpt lat="36.81374293752014636993408203125" lon="-118.4204454906284809112548828125">
        <ele>3307.60009765625</ele>
        <time>2021-06-26T21:54:44.000Z</time>
        <extensions>
          <ns3:TrackPointExtension>
            <ns3:atemp>30.0</ns3:atemp>
            <ns3:hr>127</ns3:hr>
          </ns3:TrackPointExtension>
        </extensions>
      </trkpt>
      <trkpt lat="36.813734807074069976806640625" lon="-118.42044733464717864990234375">
        <ele>3307.60009765625</ele>
        <time>2021-06-26T21:54:45.000Z</time>
        <extensions>
          <ns3:TrackPointExtension>
            <ns3:atemp>30.0</ns3:atemp>
            <ns3:hr>127</ns3:hr>
          </ns3:TrackPointExtension>
        </extensions>
      </trkpt>
      <trkpt lat="36.81365408934652805328369140625" lon="-118.42044121585786342620849609375">
        <ele>3307.39990234375</ele>
        <time>2021-06-26T21:54:54.000Z</time>
        <extensions>
          <ns3:TrackPointExtension>
            <ns3:atemp>30.0</ns3:atemp>
            <ns3:hr>129</ns3:hr>
          </ns3:TrackPointExtension>
        </extensions>
      </trkpt>
      <trkpt lat="36.81362408213317394256591796875" lon="-118.420435599982738494873046875">
        <ele>3308.39990234375</ele>
        <time>2021-06-26T21:54:59.000Z</time>
        <extensions>
          <ns3:TrackPointExtension>
            <ns3:atemp>30.0</ns3:atemp>
            <ns3:hr>127</ns3:hr>
          </ns3:TrackPointExtension>
        </extensions>
      </trkpt>
      <trkpt lat="36.81360698305070400238037109375" lon="-118.42043383978307247161865234375">
        <ele>3309</ele>
        <time>2021-06-26T21:55:01.000Z</time>
        <extensions>
          <ns3:TrackPointExtension>
            <ns3:atemp>30.0</ns3:atemp>
            <ns3:hr>127</ns3:hr>
          </ns3:TrackPointExtension>
        </extensions>
      </trkpt>
      <trkpt lat="36.813589297235012054443359375" lon="-118.42039109207689762115478515625">
        <ele>3310.39990234375</ele>
        <time>2021-06-26T21:55:07.000Z</time>
        <extensions>
          <ns3:TrackPointExtension>
            <ns3:atemp>30.0</ns3:atemp>
            <ns3:hr>129</ns3:hr>
          </ns3:TrackPointExtension>
        </extensions>
      </trkpt>
      <trkpt lat="36.8135827593505382537841796875" lon="-118.42038790695369243621826171875">
        <ele>3310.60009765625</ele>
        <time>2021-06-26T21:55:08.000Z</time>
        <extensions>
          <ns3:TrackPointExtension>
            <ns3:atemp>30.0</ns3:atemp>
            <ns3:hr>129</ns3:hr>
          </ns3:TrackPointExtension>
        </extensions>
      </trkpt>
      <trkpt lat="36.8135116808116436004638671875" lon="-118.4203858114778995513916015625">
        <ele>3311.39990234375</ele>
        <time>2021-06-26T21:55:15.000Z</time>
        <extensions>
          <ns3:TrackPointExtension>
            <ns3:atemp>30.0</ns3:atemp>
            <ns3:hr>130</ns3:hr>
          </ns3:TrackPointExtension>
        </extensions>
      </trkpt>
      <trkpt lat="36.81345677934587001800537109375" lon="-118.42038120143115520477294921875">
        <ele>3312</ele>
        <time>2021-06-26T21:55:23.000Z</time>
        <extensions>
          <ns3:TrackPointExtension>
            <ns3:atemp>30.0</ns3:atemp>
            <ns3:hr>128</ns3:hr>
          </ns3:TrackPointExtension>
        </extensions>
      </trkpt>
      <trkpt lat="36.81340917013585567474365234375" lon="-118.4204133041203022003173828125">
        <ele>3311.199951171875</ele>
        <time>2021-06-26T21:55:29.000Z</time>
        <extensions>
          <ns3:TrackPointExtension>
            <ns3:atemp>29.0</ns3:atemp>
            <ns3:hr>126</ns3:hr>
          </ns3:TrackPointExtension>
        </extensions>
      </trkpt>
      <trkpt lat="36.81337513960897922515869140625" lon="-118.42038120143115520477294921875">
        <ele>3311.60009765625</ele>
        <time>2021-06-26T21:55:35.000Z</time>
        <extensions>
          <ns3:TrackPointExtension>
            <ns3:atemp>29.0</ns3:atemp>
            <ns3:hr>124</ns3:hr>
          </ns3:TrackPointExtension>
        </extensions>
      </trkpt>
      <trkpt lat="36.8133738823235034942626953125" lon="-118.4203680418431758880615234375">
        <ele>3312.39990234375</ele>
        <time>2021-06-26T21:55:39.000Z</time>
        <extensions>
          <ns3:TrackPointExtension>
            <ns3:atemp>29.0</ns3:atemp>
            <ns3:hr>127</ns3:hr>
          </ns3:TrackPointExtension>
        </extensions>
      </trkpt>
      <trkpt lat="36.813369356095790863037109375" lon="-118.42035387642681598663330078125">
        <ele>3312.60009765625</ele>
        <time>2021-06-26T21:55:41.000Z</time>
        <extensions>
          <ns3:TrackPointExtension>
            <ns3:atemp>29.0</ns3:atemp>
            <ns3:hr>128</ns3:hr>
          </ns3:TrackPointExtension>
        </extensions>
      </trkpt>
      <trkpt lat="36.81334882043302059173583984375" lon="-118.42030844651162624359130859375">
        <ele>3313.800048828125</ele>
        <time>2021-06-26T21:55:47.000Z</time>
        <extensions>
          <ns3:TrackPointExtension>
            <ns3:atemp>29.0</ns3:atemp>
            <ns3:hr>129</ns3:hr>
          </ns3:TrackPointExtension>
        </extensions>
      </trkpt>
      <trkpt lat="36.8133415281772613525390625" lon="-118.4202942810952663421630859375">
        <ele>3314.199951171875</ele>
        <time>2021-06-26T21:55:49.000Z</time>
        <extensions>
          <ns3:TrackPointExtension>
            <ns3:atemp>29.0</ns3:atemp>
            <ns3:hr>129</ns3:hr>
          </ns3:TrackPointExtension>
        </extensions>
      </trkpt>
      <trkpt lat="36.813321746885776519775390625" lon="-118.42028506100177764892578125">
        <ele>3314.800048828125</ele>
        <time>2021-06-26T21:55:52.000Z</time>
        <extensions>
          <ns3:TrackPointExtension>
            <ns3:atemp>29.0</ns3:atemp>
            <ns3:hr>129</ns3:hr>
          </ns3:TrackPointExtension>
        </extensions>
      </trkpt>
      <trkpt lat="36.8133051507174968719482421875" lon="-118.4202642738819122314453125">
        <ele>3315</ele>
        <time>2021-06-26T21:55:55.000Z</time>
        <extensions>
          <ns3:TrackPointExtension>
            <ns3:atemp>29.0</ns3:atemp>
            <ns3:hr>127</ns3:hr>
          </ns3:TrackPointExtension>
        </extensions>
      </trkpt>
      <trkpt lat="36.81328863836824893951416015625" lon="-118.4202141501009464263916015625">
        <ele>3315.39990234375</ele>
        <time>2021-06-26T21:56:00.000Z</time>
        <extensions>
          <ns3:TrackPointExtension>
            <ns3:atemp>29.0</ns3:atemp>
            <ns3:hr>125</ns3:hr>
          </ns3:TrackPointExtension>
        </extensions>
      </trkpt>
      <trkpt lat="36.8133014626801013946533203125" lon="-118.42019545845687389373779296875">
        <ele>3315.800048828125</ele>
        <time>2021-06-26T21:56:03.000Z</time>
        <extensions>
          <ns3:TrackPointExtension>
            <ns3:atemp>29.0</ns3:atemp>
            <ns3:hr>125</ns3:hr>
          </ns3:TrackPointExtension>
        </extensions>
      </trkpt>
      <trkpt lat="36.813310347497463226318359375" lon="-118.42018338851630687713623046875">
        <ele>3315.800048828125</ele>
        <time>2021-06-26T21:56:05.000Z</time>
        <extensions>
          <ns3:TrackPointExtension>
            <ns3:atemp>29.0</ns3:atemp>
            <ns3:hr>124</ns3:hr>
          </ns3:TrackPointExtension>
        </extensions>
      </trkpt>
      <trkpt lat="36.81331537663936614990234375" lon="-118.42018003575503826141357421875">
        <ele>3315.800048828125</ele>
        <time>2021-06-26T21:56:06.000Z</time>
        <extensions>
          <ns3:TrackPointExtension>
            <ns3:atemp>29.0</ns3:atemp>
            <ns3:hr>123</ns3:hr>
          </ns3:TrackPointExtension>
        </extensions>
      </trkpt>
      <trkpt lat="36.813331805169582366943359375" lon="-118.42017936520278453826904296875">
        <ele>3316.199951171875</ele>
        <time>2021-06-26T21:56:10.000Z</time>
        <extensions>
          <ns3:TrackPointExtension>
            <ns3:atemp>29.0</ns3:atemp>
            <ns3:hr>123</ns3:hr>
          </ns3:TrackPointExtension>
        </extensions>
      </trkpt>
      <trkpt lat="36.81333691813051700592041015625" lon="-118.42017869465053081512451171875">
        <ele>3317</ele>
        <time>2021-06-26T21:56:11.000Z</time>
        <extensions>
          <ns3:TrackPointExtension>
            <ns3:atemp>29.0</ns3:atemp>
            <ns3:hr>123</ns3:hr>
          </ns3:TrackPointExtension>
        </extensions>
      </trkpt>
      <trkpt lat="36.81334546767175197601318359375" lon="-118.4201799519360065460205078125">
        <ele>3317.39990234375</ele>
        <time>2021-06-26T21:56:12.000Z</time>
        <extensions>
          <ns3:TrackPointExtension>
            <ns3:atemp>29.0</ns3:atemp>
            <ns3:hr>123</ns3:hr>
          </ns3:TrackPointExtension>
        </extensions>
      </trkpt>
      <trkpt lat="36.813362650573253631591796875" lon="-118.4201541356742382049560546875">
        <ele>3317.60009765625</ele>
        <time>2021-06-26T21:56:18.000Z</time>
        <extensions>
          <ns3:TrackPointExtension>
            <ns3:atemp>29.0</ns3:atemp>
            <ns3:hr>120</ns3:hr>
          </ns3:TrackPointExtension>
        </extensions>
      </trkpt>
      <trkpt lat="36.813359968364238739013671875" lon="-118.4201464243233203887939453125">
        <ele>3317.60009765625</ele>
        <time>2021-06-26T21:56:19.000Z</time>
        <extensions>
          <ns3:TrackPointExtension>
            <ns3:atemp>29.0</ns3:atemp>
            <ns3:hr>120</ns3:hr>
          </ns3:TrackPointExtension>
        </extensions>
      </trkpt>
      <trkpt lat="36.81334664113819599151611328125" lon="-118.42011616565287113189697265625">
        <ele>3318.800048828125</ele>
        <time>2021-06-26T21:56:22.000Z</time>
        <extensions>
          <ns3:TrackPointExtension>
            <ns3:atemp>29.0</ns3:atemp>
            <ns3:hr>117</ns3:hr>
          </ns3:TrackPointExtension>
        </extensions>
      </trkpt>
      <trkpt lat="36.81334848515689373016357421875" lon="-118.42008121311664581298828125">
        <ele>3319.60009765625</ele>
        <time>2021-06-26T21:56:25.000Z</time>
        <extensions>
          <ns3:TrackPointExtension>
            <ns3:atemp>29.0</ns3:atemp>
            <ns3:hr>115</ns3:hr>
          </ns3:TrackPointExtension>
        </extensions>
      </trkpt>
      <trkpt lat="36.81334882043302059173583984375" lon="-118.42005715705454349517822265625">
        <ele>3319.60009765625</ele>
        <time>2021-06-26T21:56:28.000Z</time>
        <extensions>
          <ns3:TrackPointExtension>
            <ns3:atemp>29.0</ns3:atemp>
            <ns3:hr>113</ns3:hr>
          </ns3:TrackPointExtension>
        </extensions>
      </trkpt>
      <trkpt lat="36.8133313022553920745849609375" lon="-118.42003502883017063140869140625">
        <ele>3319.800048828125</ele>
        <time>2021-06-26T21:56:31.000Z</time>
        <extensions>
          <ns3:TrackPointExtension>
            <ns3:atemp>29.0</ns3:atemp>
            <ns3:hr>114</ns3:hr>
          </ns3:TrackPointExtension>
        </extensions>
      </trkpt>
      <trkpt lat="36.813311688601970672607421875" lon="-118.420023210346698760986328125">
        <ele>3319.800048828125</ele>
        <time>2021-06-26T21:56:34.000Z</time>
        <extensions>
          <ns3:TrackPointExtension>
            <ns3:atemp>29.0</ns3:atemp>
            <ns3:hr>111</ns3:hr>
          </ns3:TrackPointExtension>
        </extensions>
      </trkpt>
      <trkpt lat="36.813282184302806854248046875" lon="-118.42001189477741718292236328125">
        <ele>3319.39990234375</ele>
        <time>2021-06-26T21:56:37.000Z</time>
        <extensions>
          <ns3:TrackPointExtension>
            <ns3:atemp>29.0</ns3:atemp>
            <ns3:hr>114</ns3:hr>
          </ns3:TrackPointExtension>
        </extensions>
      </trkpt>
      <trkpt lat="36.81327505968511104583740234375" lon="-118.420006446540355682373046875">
        <ele>3319.39990234375</ele>
        <time>2021-06-26T21:56:38.000Z</time>
        <extensions>
          <ns3:TrackPointExtension>
            <ns3:atemp>29.0</ns3:atemp>
            <ns3:hr>113</ns3:hr>
          </ns3:TrackPointExtension>
        </extensions>
      </trkpt>
      <trkpt lat="36.8132209964096546173095703125" lon="-118.42000585980713367462158203125">
        <ele>3318.800048828125</ele>
        <time>2021-06-26T21:56:44.000Z</time>
        <extensions>
          <ns3:TrackPointExtension>
            <ns3:atemp>29.0</ns3:atemp>
            <ns3:hr>114</ns3:hr>
          </ns3:TrackPointExtension>
        </extensions>
      </trkpt>
      <trkpt lat="36.81321437470614910125732421875" lon="-118.4200062789022922515869140625">
        <ele>3318.800048828125</ele>
        <time>2021-06-26T21:56:45.000Z</time>
        <extensions>
          <ns3:TrackPointExtension>
            <ns3:atemp>29.0</ns3:atemp>
            <ns3:hr>114</ns3:hr>
          </ns3:TrackPointExtension>
        </extensions>
      </trkpt>
      <trkpt lat="36.8131636641919612884521484375" lon="-118.42000686563551425933837890625">
        <ele>3318.800048828125</ele>
        <time>2021-06-26T21:56:52.000Z</time>
        <extensions>
          <ns3:TrackPointExtension>
            <ns3:atemp>29.0</ns3:atemp>
            <ns3:hr>111</ns3:hr>
          </ns3:TrackPointExtension>
        </extensions>
      </trkpt>
      <trkpt lat="36.8131348304450511932373046875" lon="-118.41999060474336147308349609375">
        <ele>3319.800048828125</ele>
        <time>2021-06-26T21:56:56.000Z</time>
        <extensions>
          <ns3:TrackPointExtension>
            <ns3:atemp>29.0</ns3:atemp>
            <ns3:hr>110</ns3:hr>
          </ns3:TrackPointExtension>
        </extensions>
      </trkpt>
      <trkpt lat="36.81313742883503437042236328125" lon="-118.4199761040508747100830078125">
        <ele>3320.39990234375</ele>
        <time>2021-06-26T21:57:00.000Z</time>
        <extensions>
          <ns3:TrackPointExtension>
            <ns3:atemp>29.0</ns3:atemp>
            <ns3:hr>112</ns3:hr>
          </ns3:TrackPointExtension>
        </extensions>
      </trkpt>
      <trkpt lat="36.8131505884230136871337890625" lon="-118.41995640657842159271240234375">
        <ele>3321</ele>
        <time>2021-06-26T21:57:04.000Z</time>
        <extensions>
          <ns3:TrackPointExtension>
            <ns3:atemp>29.0</ns3:atemp>
            <ns3:hr>114</ns3:hr>
          </ns3:TrackPointExtension>
        </extensions>
      </trkpt>
      <trkpt lat="36.81315821595489978790283203125" lon="-118.41994064860045909881591796875">
        <ele>3321.800048828125</ele>
        <time>2021-06-26T21:57:09.000Z</time>
        <extensions>
          <ns3:TrackPointExtension>
            <ns3:atemp>29.0</ns3:atemp>
            <ns3:hr>113</ns3:hr>
          </ns3:TrackPointExtension>
        </extensions>
      </trkpt>
      <trkpt lat="36.8131723813712596893310546875" lon="-118.41993696056306362152099609375">
        <ele>3322</ele>
        <time>2021-06-26T21:57:11.000Z</time>
        <extensions>
          <ns3:TrackPointExtension>
            <ns3:atemp>29.0</ns3:atemp>
            <ns3:hr>113</ns3:hr>
          </ns3:TrackPointExtension>
        </extensions>
      </trkpt>
      <trkpt lat="36.81320230476558208465576171875" lon="-118.41990108601748943328857421875">
        <ele>3322.800048828125</ele>
        <time>2021-06-26T21:57:18.000Z</time>
        <extensions>
          <ns3:TrackPointExtension>
            <ns3:atemp>29.0</ns3:atemp>
            <ns3:hr>114</ns3:hr>
          </ns3:TrackPointExtension>
        </extensions>
      </trkpt>
      <trkpt lat="36.8132052384316921234130859375" lon="-118.41989454813301563262939453125">
        <ele>3323</ele>
        <time>2021-06-26T21:57:19.000Z</time>
        <extensions>
          <ns3:TrackPointExtension>
            <ns3:atemp>29.0</ns3:atemp>
            <ns3:hr>115</ns3:hr>
          </ns3:TrackPointExtension>
        </extensions>
      </trkpt>
      <trkpt lat="36.81317682377994060516357421875" lon="-118.41987241990864276885986328125">
        <ele>3323.39990234375</ele>
        <time>2021-06-26T21:57:25.000Z</time>
        <extensions>
          <ns3:TrackPointExtension>
            <ns3:atemp>29.0</ns3:atemp>
            <ns3:hr>115</ns3:hr>
          </ns3:TrackPointExtension>
        </extensions>
      </trkpt>
      <trkpt lat="36.81311295367777347564697265625" lon="-118.41983051039278507232666015625">
        <ele>3323.60009765625</ele>
        <time>2021-06-26T21:57:33.000Z</time>
        <extensions>
          <ns3:TrackPointExtension>
            <ns3:atemp>29.0</ns3:atemp>
            <ns3:hr>118</ns3:hr>
          </ns3:TrackPointExtension>
        </extensions>
      </trkpt>
      <trkpt lat="36.81311110965907573699951171875" lon="-118.41982196085155010223388671875">
        <ele>3323.60009765625</ele>
        <time>2021-06-26T21:57:34.000Z</time>
        <extensions>
          <ns3:TrackPointExtension>
            <ns3:atemp>29.0</ns3:atemp>
            <ns3:hr>118</ns3:hr>
          </ns3:TrackPointExtension>
        </extensions>
      </trkpt>
      <trkpt lat="36.81310624815523624420166015625" lon="-118.41980989091098308563232421875">
        <ele>3324</ele>
        <time>2021-06-26T21:57:36.000Z</time>
        <extensions>
          <ns3:TrackPointExtension>
            <ns3:atemp>29.0</ns3:atemp>
            <ns3:hr>118</ns3:hr>
          </ns3:TrackPointExtension>
        </extensions>
      </trkpt>
      <trkpt lat="36.813080348074436187744140625" lon="-118.41980050317943096160888671875">
        <ele>3324.199951171875</ele>
        <time>2021-06-26T21:57:39.000Z</time>
        <extensions>
          <ns3:TrackPointExtension>
            <ns3:atemp>29.0</ns3:atemp>
            <ns3:hr>121</ns3:hr>
          </ns3:TrackPointExtension>
        </extensions>
      </trkpt>
      <trkpt lat="36.81306165643036365509033203125" lon="-118.4197963960468769073486328125">
        <ele>3324</ele>
        <time>2021-06-26T21:57:41.000Z</time>
        <extensions>
          <ns3:TrackPointExtension>
            <ns3:atemp>29.0</ns3:atemp>
            <ns3:hr>122</ns3:hr>
          </ns3:TrackPointExtension>
        </extensions>
      </trkpt>
      <trkpt lat="36.813004575669765472412109375" lon="-118.41976261697709560394287109375">
        <ele>3324.800048828125</ele>
        <time>2021-06-26T21:57:49.000Z</time>
        <extensions>
          <ns3:TrackPointExtension>
            <ns3:atemp>29.0</ns3:atemp>
            <ns3:hr>119</ns3:hr>
          </ns3:TrackPointExtension>
        </extensions>
      </trkpt>
      <trkpt lat="36.81298814713954925537109375" lon="-118.41974099166691303253173828125">
        <ele>3325.199951171875</ele>
        <time>2021-06-26T21:57:52.000Z</time>
        <extensions>
          <ns3:TrackPointExtension>
            <ns3:atemp>29.0</ns3:atemp>
            <ns3:hr>120</ns3:hr>
          </ns3:TrackPointExtension>
        </extensions>
      </trkpt>
      <trkpt lat="36.812971048057079315185546875" lon="-118.41972925700247287750244140625">
        <ele>3325.39990234375</ele>
        <time>2021-06-26T21:57:55.000Z</time>
        <extensions>
          <ns3:TrackPointExtension>
            <ns3:atemp>29.0</ns3:atemp>
            <ns3:hr>121</ns3:hr>
          </ns3:TrackPointExtension>
        </extensions>
      </trkpt>
      <trkpt lat="36.81294615380465984344482421875" lon="-118.41970813460648059844970703125">
        <ele>3325.60009765625</ele>
        <time>2021-06-26T21:57:59.000Z</time>
        <extensions>
          <ns3:TrackPointExtension>
            <ns3:atemp>30.0</ns3:atemp>
            <ns3:hr>122</ns3:hr>
          </ns3:TrackPointExtension>
        </extensions>
      </trkpt>
      <trkpt lat="36.81293274275958538055419921875" lon="-118.419682569801807403564453125">
        <ele>3326.39990234375</ele>
        <time>2021-06-26T21:58:03.000Z</time>
        <extensions>
          <ns3:TrackPointExtension>
            <ns3:atemp>30.0</ns3:atemp>
            <ns3:hr>120</ns3:hr>
          </ns3:TrackPointExtension>
        </extensions>
      </trkpt>
      <trkpt lat="36.81291170418262481689453125" lon="-118.4196715056896209716796875">
        <ele>3326.60009765625</ele>
        <time>2021-06-26T21:58:06.000Z</time>
        <extensions>
          <ns3:TrackPointExtension>
            <ns3:atemp>30.0</ns3:atemp>
            <ns3:hr>120</ns3:hr>
          </ns3:TrackPointExtension>
        </extensions>
      </trkpt>
      <trkpt lat="36.81288446299731731414794921875" lon="-118.4196592681109905242919921875">
        <ele>3327.39990234375</ele>
        <time>2021-06-26T21:58:11.000Z</time>
        <extensions>
          <ns3:TrackPointExtension>
            <ns3:atemp>30.0</ns3:atemp>
            <ns3:hr>122</ns3:hr>
          </ns3:TrackPointExtension>
        </extensions>
      </trkpt>
      <trkpt lat="36.8128474988043308258056640625" lon="-118.41963252983987331390380859375">
        <ele>3328.199951171875</ele>
        <time>2021-06-26T21:58:17.000Z</time>
        <extensions>
          <ns3:TrackPointExtension>
            <ns3:atemp>30.0</ns3:atemp>
            <ns3:hr>122</ns3:hr>
          </ns3:TrackPointExtension>
        </extensions>
      </trkpt>
      <trkpt lat="36.8128451518714427947998046875" lon="-118.41962850652635097503662109375">
        <ele>3328.39990234375</ele>
        <time>2021-06-26T21:58:18.000Z</time>
        <extensions>
          <ns3:TrackPointExtension>
            <ns3:atemp>30.0</ns3:atemp>
            <ns3:hr>121</ns3:hr>
          </ns3:TrackPointExtension>
        </extensions>
      </trkpt>
      <trkpt lat="36.8128052540123462677001953125" lon="-118.41962247155606746673583984375">
        <ele>3328.39990234375</ele>
        <time>2021-06-26T21:58:24.000Z</time>
        <extensions>
          <ns3:TrackPointExtension>
            <ns3:atemp>30.0</ns3:atemp>
            <ns3:hr>121</ns3:hr>
          </ns3:TrackPointExtension>
        </extensions>
      </trkpt>
      <trkpt lat="36.8127573095262050628662109375" lon="-118.4196056239306926727294921875">
        <ele>3328.800048828125</ele>
        <time>2021-06-26T21:58:30.000Z</time>
        <extensions>
          <ns3:TrackPointExtension>
            <ns3:atemp>30.0</ns3:atemp>
            <ns3:hr>118</ns3:hr>
          </ns3:TrackPointExtension>
        </extensions>
      </trkpt>
      <trkpt lat="36.8127361871302127838134765625" lon="-118.4195955656468868255615234375">
        <ele>3329</ele>
        <time>2021-06-26T21:58:33.000Z</time>
        <extensions>
          <ns3:TrackPointExtension>
            <ns3:atemp>30.0</ns3:atemp>
            <ns3:hr>116</ns3:hr>
          </ns3:TrackPointExtension>
        </extensions>
      </trkpt>
      <trkpt lat="36.8127288110554218292236328125" lon="-118.419592380523681640625">
        <ele>3329.199951171875</ele>
        <time>2021-06-26T21:58:34.000Z</time>
        <extensions>
          <ns3:TrackPointExtension>
            <ns3:atemp>30.0</ns3:atemp>
            <ns3:hr>115</ns3:hr>
          </ns3:TrackPointExtension>
        </extensions>
      </trkpt>
      <trkpt lat="36.812722273170948028564453125" lon="-118.419589363038539886474609375">
        <ele>3329.39990234375</ele>
        <time>2021-06-26T21:58:35.000Z</time>
        <extensions>
          <ns3:TrackPointExtension>
            <ns3:atemp>30.0</ns3:atemp>
            <ns3:hr>115</ns3:hr>
          </ns3:TrackPointExtension>
        </extensions>
      </trkpt>
      <trkpt lat="36.81271724402904510498046875" lon="-118.41958626173436641693115234375">
        <ele>3329.60009765625</ele>
        <time>2021-06-26T21:58:36.000Z</time>
        <extensions>
          <ns3:TrackPointExtension>
            <ns3:atemp>30.0</ns3:atemp>
            <ns3:hr>115</ns3:hr>
          </ns3:TrackPointExtension>
        </extensions>
      </trkpt>
      <trkpt lat="36.81270978413522243499755859375" lon="-118.4195771254599094390869140625">
        <ele>3329.800048828125</ele>
        <time>2021-06-26T21:58:38.000Z</time>
        <extensions>
          <ns3:TrackPointExtension>
            <ns3:atemp>30.0</ns3:atemp>
            <ns3:hr>115</ns3:hr>
          </ns3:TrackPointExtension>
        </extensions>
      </trkpt>
      <trkpt lat="36.81269251741468906402587890625" lon="-118.4195643849670886993408203125">
        <ele>3330.39990234375</ele>
        <time>2021-06-26T21:58:42.000Z</time>
        <extensions>
          <ns3:TrackPointExtension>
            <ns3:atemp>30.0</ns3:atemp>
            <ns3:hr>114</ns3:hr>
          </ns3:TrackPointExtension>
        </extensions>
      </trkpt>
      <trkpt lat="36.81269335560500621795654296875" lon="-118.4195627085864543914794921875">
        <ele>3330.60009765625</ele>
        <time>2021-06-26T21:58:43.000Z</time>
        <extensions>
          <ns3:TrackPointExtension>
            <ns3:atemp>30.0</ns3:atemp>
            <ns3:hr>114</ns3:hr>
          </ns3:TrackPointExtension>
        </extensions>
      </trkpt>
      <trkpt lat="36.81267709471285343170166015625" lon="-118.4195372276008129119873046875">
        <ele>3331.800048828125</ele>
        <time>2021-06-26T21:58:48.000Z</time>
        <extensions>
          <ns3:TrackPointExtension>
            <ns3:atemp>30.0</ns3:atemp>
            <ns3:hr>115</ns3:hr>
          </ns3:TrackPointExtension>
        </extensions>
      </trkpt>
      <trkpt lat="36.81267122738063335418701171875" lon="-118.4195105731487274169921875">
        <ele>3332.199951171875</ele>
        <time>2021-06-26T21:58:53.000Z</time>
        <extensions>
          <ns3:TrackPointExtension>
            <ns3:atemp>30.0</ns3:atemp>
            <ns3:hr>116</ns3:hr>
          </ns3:TrackPointExtension>
        </extensions>
      </trkpt>
      <trkpt lat="36.81266225874423980712890625" lon="-118.4194980002939701080322265625">
        <ele>3333</ele>
        <time>2021-06-26T21:58:56.000Z</time>
        <extensions>
          <ns3:TrackPointExtension>
            <ns3:atemp>30.0</ns3:atemp>
            <ns3:hr>116</ns3:hr>
          </ns3:TrackPointExtension>
        </extensions>
      </trkpt>
      <trkpt lat="36.81262764148414134979248046875" lon="-118.419504202902317047119140625">
        <ele>3333.39990234375</ele>
        <time>2021-06-26T21:59:00.000Z</time>
        <extensions>
          <ns3:TrackPointExtension>
            <ns3:atemp>30.0</ns3:atemp>
            <ns3:hr>118</ns3:hr>
          </ns3:TrackPointExtension>
        </extensions>
      </trkpt>
      <trkpt lat="36.8125958740711212158203125" lon="-118.41945349238812923431396484375">
        <ele>3334.199951171875</ele>
        <time>2021-06-26T21:59:07.000Z</time>
        <extensions>
          <ns3:TrackPointExtension>
            <ns3:atemp>30.0</ns3:atemp>
            <ns3:hr>118</ns3:hr>
          </ns3:TrackPointExtension>
        </extensions>
      </trkpt>
      <trkpt lat="36.81257064454257488250732421875" lon="-118.41942180879414081573486328125">
        <ele>3334.60009765625</ele>
        <time>2021-06-26T21:59:12.000Z</time>
        <extensions>
          <ns3:TrackPointExtension>
            <ns3:atemp>30.0</ns3:atemp>
            <ns3:hr>115</ns3:hr>
          </ns3:TrackPointExtension>
        </extensions>
      </trkpt>
      <trkpt lat="36.81255161762237548828125" lon="-118.419401608407497406005859375">
        <ele>3334.800048828125</ele>
        <time>2021-06-26T21:59:16.000Z</time>
        <extensions>
          <ns3:TrackPointExtension>
            <ns3:atemp>30.0</ns3:atemp>
            <ns3:hr>112</ns3:hr>
          </ns3:TrackPointExtension>
        </extensions>
      </trkpt>
      <trkpt lat="36.812546253204345703125" lon="-118.41940102167427539825439453125">
        <ele>3334.800048828125</ele>
        <time>2021-06-26T21:59:17.000Z</time>
        <extensions>
          <ns3:TrackPointExtension>
            <ns3:atemp>30.0</ns3:atemp>
            <ns3:hr>112</ns3:hr>
          </ns3:TrackPointExtension>
        </extensions>
      </trkpt>
      <trkpt lat="36.8125393800437450408935546875" lon="-118.41940018348395824432373046875">
        <ele>3335.199951171875</ele>
        <time>2021-06-26T21:59:18.000Z</time>
        <extensions>
          <ns3:TrackPointExtension>
            <ns3:atemp>30.0</ns3:atemp>
            <ns3:hr>111</ns3:hr>
          </ns3:TrackPointExtension>
        </extensions>
      </trkpt>
      <trkpt lat="36.8124904297292232513427734375" lon="-118.41939968056976795196533203125">
        <ele>3336.199951171875</ele>
        <time>2021-06-26T21:59:26.000Z</time>
        <extensions>
          <ns3:TrackPointExtension>
            <ns3:atemp>30.0</ns3:atemp>
            <ns3:hr>112</ns3:hr>
          </ns3:TrackPointExtension>
        </extensions>
      </trkpt>
      <trkpt lat="36.81247542612254619598388671875" lon="-118.4194027818739414215087890625">
        <ele>3336.60009765625</ele>
        <time>2021-06-26T21:59:28.000Z</time>
        <extensions>
          <ns3:TrackPointExtension>
            <ns3:atemp>30.0</ns3:atemp>
            <ns3:hr>111</ns3:hr>
          </ns3:TrackPointExtension>
        </extensions>
      </trkpt>
      <trkpt lat="36.81243100203573703765869140625" lon="-118.41940655373036861419677734375">
        <ele>3337.39990234375</ele>
        <time>2021-06-26T21:59:34.000Z</time>
        <extensions>
          <ns3:TrackPointExtension>
            <ns3:atemp>30.0</ns3:atemp>
            <ns3:hr>112</ns3:hr>
          </ns3:TrackPointExtension>
        </extensions>
      </trkpt>
      <trkpt lat="36.8124183453619480133056640625" lon="-118.419398255646228790283203125">
        <ele>3337.60009765625</ele>
        <time>2021-06-26T21:59:37.000Z</time>
        <extensions>
          <ns3:TrackPointExtension>
            <ns3:atemp>30.0</ns3:atemp>
            <ns3:hr>115</ns3:hr>
          </ns3:TrackPointExtension>
        </extensions>
      </trkpt>
      <trkpt lat="36.81240853853523731231689453125" lon="-118.41938040219247341156005859375">
        <ele>3338</ele>
        <time>2021-06-26T21:59:39.000Z</time>
        <extensions>
          <ns3:TrackPointExtension>
            <ns3:atemp>30.0</ns3:atemp>
            <ns3:hr>115</ns3:hr>
          </ns3:TrackPointExtension>
        </extensions>
      </trkpt>
      <trkpt lat="36.81239311583340167999267578125" lon="-118.41935307718813419342041015625">
        <ele>3338.39990234375</ele>
        <time>2021-06-26T21:59:42.000Z</time>
        <extensions>
          <ns3:TrackPointExtension>
            <ns3:atemp>30.0</ns3:atemp>
            <ns3:hr>114</ns3:hr>
          </ns3:TrackPointExtension>
        </extensions>
      </trkpt>
      <trkpt lat="36.81238674558699131011962890625" lon="-118.41933061368763446807861328125">
        <ele>3338.60009765625</ele>
        <time>2021-06-26T21:59:44.000Z</time>
        <extensions>
          <ns3:TrackPointExtension>
            <ns3:atemp>30.0</ns3:atemp>
            <ns3:hr>117</ns3:hr>
          </ns3:TrackPointExtension>
        </extensions>
      </trkpt>
      <trkpt lat="36.81235103867948055267333984375" lon="-118.41931703500449657440185546875">
        <ele>3339</ele>
        <time>2021-06-26T21:59:49.000Z</time>
        <extensions>
          <ns3:TrackPointExtension>
            <ns3:atemp>30.0</ns3:atemp>
            <ns3:hr>115</ns3:hr>
          </ns3:TrackPointExtension>
        </extensions>
      </trkpt>
      <trkpt lat="36.812339723110198974609375" lon="-118.41930731199681758880615234375">
        <ele>3339.199951171875</ele>
        <time>2021-06-26T21:59:51.000Z</time>
        <extensions>
          <ns3:TrackPointExtension>
            <ns3:atemp>30.0</ns3:atemp>
            <ns3:hr>118</ns3:hr>
          </ns3:TrackPointExtension>
        </extensions>
      </trkpt>
      <trkpt lat="36.81227744556963443756103515625" lon="-118.41926171444356441497802734375">
        <ele>3339.199951171875</ele>
        <time>2021-06-26T21:59:59.000Z</time>
        <extensions>
          <ns3:TrackPointExtension>
            <ns3:atemp>29.0</ns3:atemp>
            <ns3:hr>119</ns3:hr>
          </ns3:TrackPointExtension>
        </extensions>
      </trkpt>
      <trkpt lat="36.812252886593341827392578125" lon="-118.41927696950733661651611328125">
        <ele>3339.199951171875</ele>
        <time>2021-06-26T22:00:04.000Z</time>
        <extensions>
          <ns3:TrackPointExtension>
            <ns3:atemp>29.0</ns3:atemp>
            <ns3:hr>117</ns3:hr>
          </ns3:TrackPointExtension>
        </extensions>
      </trkpt>
      <trkpt lat="36.8122510425746440887451171875" lon="-118.41928535141050815582275390625">
        <ele>3339.39990234375</ele>
        <time>2021-06-26T22:00:05.000Z</time>
        <extensions>
          <ns3:TrackPointExtension>
            <ns3:atemp>29.0</ns3:atemp>
            <ns3:hr>120</ns3:hr>
          </ns3:TrackPointExtension>
        </extensions>
      </trkpt>
      <trkpt lat="36.81224710308015346527099609375" lon="-118.4192968346178531646728515625">
        <ele>3339.39990234375</ele>
        <time>2021-06-26T22:00:06.000Z</time>
        <extensions>
          <ns3:TrackPointExtension>
            <ns3:atemp>29.0</ns3:atemp>
            <ns3:hr>117</ns3:hr>
          </ns3:TrackPointExtension>
        </extensions>
      </trkpt>
      <trkpt lat="36.81225447915494441986083984375" lon="-118.4193280152976512908935546875">
        <ele>3339.39990234375</ele>
        <time>2021-06-26T22:00:22.000Z</time>
        <extensions>
          <ns3:TrackPointExtension>
            <ns3:atemp>29.0</ns3:atemp>
            <ns3:hr>117</ns3:hr>
          </ns3:TrackPointExtension>
        </extensions>
      </trkpt>
      <trkpt lat="36.8122550658881664276123046875" lon="-118.41933128423988819122314453125">
        <ele>3339.800048828125</ele>
        <time>2021-06-26T22:00:35.000Z</time>
        <extensions>
          <ns3:TrackPointExtension>
            <ns3:atemp>29.0</ns3:atemp>
            <ns3:hr>115</ns3:hr>
          </ns3:TrackPointExtension>
        </extensions>
      </trkpt>
      <trkpt lat="36.8122550658881664276123046875" lon="-118.4193330444395542144775390625">
        <ele>3339.800048828125</ele>
        <time>2021-06-26T22:00:37.000Z</time>
        <extensions>
          <ns3:TrackPointExtension>
            <ns3:atemp>29.0</ns3:atemp>
            <ns3:hr>112</ns3:hr>
          </ns3:TrackPointExtension>
        </extensions>
      </trkpt>
      <trkpt lat="36.8122550658881664276123046875" lon="-118.41934201307594776153564453125">
        <ele>3340</ele>
        <time>2021-06-26T22:00:41.000Z</time>
        <extensions>
          <ns3:TrackPointExtension>
            <ns3:atemp>29.0</ns3:atemp>
            <ns3:hr>109</ns3:hr>
          </ns3:TrackPointExtension>
        </extensions>
      </trkpt>
      <trkpt lat="36.81224861182272434234619140625" lon="-118.41934670694172382354736328125">
        <ele>3340.39990234375</ele>
        <time>2021-06-26T22:00:53.000Z</time>
        <extensions>
          <ns3:TrackPointExtension>
            <ns3:atemp>29.0</ns3:atemp>
            <ns3:hr>105</ns3:hr>
          </ns3:TrackPointExtension>
        </extensions>
      </trkpt>
      <trkpt lat="36.81224844418466091156005859375" lon="-118.4193467907607555389404296875">
        <ele>3340.199951171875</ele>
        <time>2021-06-26T22:00:58.000Z</time>
        <extensions>
          <ns3:TrackPointExtension>
            <ns3:atemp>29.0</ns3:atemp>
            <ns3:hr>108</ns3:hr>
          </ns3:TrackPointExtension>
        </extensions>
      </trkpt>
      <trkpt lat="36.8122621066868305206298828125" lon="-118.4193335473537445068359375">
        <ele>3339.800048828125</ele>
        <time>2021-06-26T22:01:11.000Z</time>
        <extensions>
          <ns3:TrackPointExtension>
            <ns3:atemp>29.0</ns3:atemp>
            <ns3:hr>105</ns3:hr>
          </ns3:TrackPointExtension>
        </extensions>
      </trkpt>
      <trkpt lat="36.81226990185678005218505859375" lon="-118.41928702779114246368408203125">
        <ele>3339.800048828125</ele>
        <time>2021-06-26T22:01:37.000Z</time>
        <extensions>
          <ns3:TrackPointExtension>
            <ns3:atemp>29.0</ns3:atemp>
            <ns3:hr>102</ns3:hr>
          </ns3:TrackPointExtension>
        </extensions>
      </trkpt>
      <trkpt lat="36.81226537562906742095947265625" lon="-118.41927059926092624664306640625">
        <ele>3339.800048828125</ele>
        <time>2021-06-26T22:01:43.000Z</time>
        <extensions>
          <ns3:TrackPointExtension>
            <ns3:atemp>29.0</ns3:atemp>
            <ns3:hr>100</ns3:hr>
          </ns3:TrackPointExtension>
        </extensions>
      </trkpt>
      <trkpt lat="36.81226470507681369781494140625" lon="-118.4192659892141819000244140625">
        <ele>3339.800048828125</ele>
        <time>2021-06-26T22:01:46.000Z</time>
        <extensions>
          <ns3:TrackPointExtension>
            <ns3:atemp>29.0</ns3:atemp>
            <ns3:hr>103</ns3:hr>
          </ns3:TrackPointExtension>
        </extensions>
      </trkpt>
      <trkpt lat="36.812264285981655120849609375" lon="-118.41926489956676959991455078125">
        <ele>3339.800048828125</ele>
        <time>2021-06-26T22:01:47.000Z</time>
        <extensions>
          <ns3:TrackPointExtension>
            <ns3:atemp>29.0</ns3:atemp>
            <ns3:hr>106</ns3:hr>
          </ns3:TrackPointExtension>
        </extensions>
      </trkpt>
      <trkpt lat="36.81226386688649654388427734375" lon="-118.41926439665257930755615234375">
        <ele>3339.800048828125</ele>
        <time>2021-06-26T22:01:48.000Z</time>
        <extensions>
          <ns3:TrackPointExtension>
            <ns3:atemp>29.0</ns3:atemp>
            <ns3:hr>109</ns3:hr>
          </ns3:TrackPointExtension>
        </extensions>
      </trkpt>
      <trkpt lat="36.81226126849651336669921875" lon="-118.419264145195484161376953125">
        <ele>3339.800048828125</ele>
        <time>2021-06-26T22:01:49.000Z</time>
        <extensions>
          <ns3:TrackPointExtension>
            <ns3:atemp>29.0</ns3:atemp>
            <ns3:hr>112</ns3:hr>
          </ns3:TrackPointExtension>
        </extensions>
      </trkpt>
      <trkpt lat="36.81225297041237354278564453125" lon="-118.41926288791000843048095703125">
        <ele>3339.800048828125</ele>
        <time>2021-06-26T22:02:00.000Z</time>
        <extensions>
          <ns3:TrackPointExtension>
            <ns3:atemp>29.0</ns3:atemp>
            <ns3:hr>109</ns3:hr>
          </ns3:TrackPointExtension>
        </extensions>
      </trkpt>
      <trkpt lat="36.81225297041237354278564453125" lon="-118.41926288791000843048095703125">
        <ele>3339.800048828125</ele>
        <time>2021-06-26T22:02:01.000Z</time>
        <extensions>
          <ns3:TrackPointExtension>
            <ns3:atemp>29.0</ns3:atemp>
            <ns3:hr>106</ns3:hr>
          </ns3:TrackPointExtension>
        </extensions>
      </trkpt>
      <trkpt lat="36.812252216041088104248046875" lon="-118.41926456429064273834228515625">
        <ele>3339.800048828125</ele>
        <time>2021-06-26T22:02:04.000Z</time>
        <extensions>
          <ns3:TrackPointExtension>
            <ns3:atemp>29.0</ns3:atemp>
            <ns3:hr>103</ns3:hr>
          </ns3:TrackPointExtension>
        </extensions>
      </trkpt>
      <trkpt lat="36.81225799955427646636962890625" lon="-118.41929943300783634185791015625">
        <ele>3339.800048828125</ele>
        <time>2021-06-26T22:02:20.000Z</time>
        <extensions>
          <ns3:TrackPointExtension>
            <ns3:atemp>29.0</ns3:atemp>
            <ns3:hr>100</ns3:hr>
          </ns3:TrackPointExtension>
        </extensions>
      </trkpt>
      <trkpt lat="36.81227861903607845306396484375" lon="-118.41932617127895355224609375">
        <ele>3339.800048828125</ele>
        <time>2021-06-26T22:02:32.000Z</time>
        <extensions>
          <ns3:TrackPointExtension>
            <ns3:atemp>29.0</ns3:atemp>
            <ns3:hr>97</ns3:hr>
          </ns3:TrackPointExtension>
        </extensions>
      </trkpt>
      <trkpt lat="36.81228004395961761474609375" lon="-118.41932726092636585235595703125">
        <ele>3339.800048828125</ele>
        <time>2021-06-26T22:02:36.000Z</time>
        <extensions>
          <ns3:TrackPointExtension>
            <ns3:atemp>29.0</ns3:atemp>
            <ns3:hr>101</ns3:hr>
          </ns3:TrackPointExtension>
        </extensions>
      </trkpt>
      <trkpt lat="36.812280379235744476318359375" lon="-118.41932751238346099853515625">
        <ele>3339.800048828125</ele>
        <time>2021-06-26T22:02:39.000Z</time>
        <extensions>
          <ns3:TrackPointExtension>
            <ns3:atemp>29.0</ns3:atemp>
            <ns3:hr>104</ns3:hr>
          </ns3:TrackPointExtension>
        </extensions>
      </trkpt>
      <trkpt lat="36.81227727793157100677490234375" lon="-118.4193253330886363983154296875">
        <ele>3339.800048828125</ele>
        <time>2021-06-26T22:02:49.000Z</time>
        <extensions>
          <ns3:TrackPointExtension>
            <ns3:atemp>29.0</ns3:atemp>
            <ns3:hr>101</ns3:hr>
          </ns3:TrackPointExtension>
        </extensions>
      </trkpt>
      <trkpt lat="36.81227057240903377532958984375" lon="-118.4193182922899723052978515625">
        <ele>3339.800048828125</ele>
        <time>2021-06-26T22:03:06.000Z</time>
        <extensions>
          <ns3:TrackPointExtension>
            <ns3:atemp>29.0</ns3:atemp>
            <ns3:hr>98</ns3:hr>
          </ns3:TrackPointExtension>
        </extensions>
      </trkpt>
      <trkpt lat="36.81222899816930294036865234375" lon="-118.4192676655948162078857421875">
        <ele>3339.800048828125</ele>
        <time>2021-06-26T22:03:16.000Z</time>
        <extensions>
          <ns3:TrackPointExtension>
            <ns3:atemp>28.0</ns3:atemp>
            <ns3:hr>96</ns3:hr>
          </ns3:TrackPointExtension>
        </extensions>
      </trkpt>
      <trkpt lat="36.8121372163295745849609375" lon="-118.4192150272428989410400390625">
        <ele>3339</ele>
        <time>2021-06-26T22:03:23.000Z</time>
        <extensions>
          <ns3:TrackPointExtension>
            <ns3:atemp>28.0</ns3:atemp>
            <ns3:hr>95</ns3:hr>
          </ns3:TrackPointExtension>
        </extensions>
      </trkpt>
      <trkpt lat="36.812085919082164764404296875" lon="-118.41916901059448719024658203125">
        <ele>3339</ele>
        <time>2021-06-26T22:03:29.000Z</time>
        <extensions>
          <ns3:TrackPointExtension>
            <ns3:atemp>28.0</ns3:atemp>
            <ns3:hr>98</ns3:hr>
          </ns3:TrackPointExtension>
        </extensions>
      </trkpt>
      <trkpt lat="36.81206546723842620849609375" lon="-118.41915182769298553466796875">
        <ele>3338.60009765625</ele>
        <time>2021-06-26T22:03:31.000Z</time>
        <extensions>
          <ns3:TrackPointExtension>
            <ns3:atemp>28.0</ns3:atemp>
            <ns3:hr>99</ns3:hr>
          </ns3:TrackPointExtension>
        </extensions>
      </trkpt>
      <trkpt lat="36.81205348111689090728759765625" lon="-118.419146127998828887939453125">
        <ele>3339.199951171875</ele>
        <time>2021-06-26T22:03:32.000Z</time>
        <extensions>
          <ns3:TrackPointExtension>
            <ns3:atemp>28.0</ns3:atemp>
            <ns3:hr>100</ns3:hr>
          </ns3:TrackPointExtension>
        </extensions>
      </trkpt>
      <trkpt lat="36.8120337836444377899169921875" lon="-118.419138081371784210205078125">
        <ele>3339.199951171875</ele>
        <time>2021-06-26T22:03:34.000Z</time>
        <extensions>
          <ns3:TrackPointExtension>
            <ns3:atemp>28.0</ns3:atemp>
            <ns3:hr>104</ns3:hr>
          </ns3:TrackPointExtension>
        </extensions>
      </trkpt>
      <trkpt lat="36.81193429045379161834716796875" lon="-118.4191281907260417938232421875">
        <ele>3340.60009765625</ele>
        <time>2021-06-26T22:03:42.000Z</time>
        <extensions>
          <ns3:TrackPointExtension>
            <ns3:atemp>28.0</ns3:atemp>
            <ns3:hr>104</ns3:hr>
          </ns3:TrackPointExtension>
        </extensions>
      </trkpt>
      <trkpt lat="36.8118745274841785430908203125" lon="-118.41911167837679386138916015625">
        <ele>3341</ele>
        <time>2021-06-26T22:03:48.000Z</time>
        <extensions>
          <ns3:TrackPointExtension>
            <ns3:atemp>28.0</ns3:atemp>
            <ns3:hr>101</ns3:hr>
          </ns3:TrackPointExtension>
        </extensions>
      </trkpt>
      <trkpt lat="36.8118651397526264190673828125" lon="-118.4191043861210346221923828125">
        <ele>3341</ele>
        <time>2021-06-26T22:03:49.000Z</time>
        <extensions>
          <ns3:TrackPointExtension>
            <ns3:atemp>28.0</ns3:atemp>
            <ns3:hr>104</ns3:hr>
          </ns3:TrackPointExtension>
        </extensions>
      </trkpt>
      <trkpt lat="36.8118574284017086029052734375" lon="-118.4190976805984973907470703125">
        <ele>3340.800048828125</ele>
        <time>2021-06-26T22:03:50.000Z</time>
        <extensions>
          <ns3:TrackPointExtension>
            <ns3:atemp>28.0</ns3:atemp>
            <ns3:hr>107</ns3:hr>
          </ns3:TrackPointExtension>
        </extensions>
      </trkpt>
      <trkpt lat="36.81184762157499790191650390625" lon="-118.4190881252288818359375">
        <ele>3340.800048828125</ele>
        <time>2021-06-26T22:03:51.000Z</time>
        <extensions>
          <ns3:TrackPointExtension>
            <ns3:atemp>28.0</ns3:atemp>
            <ns3:hr>107</ns3:hr>
          </ns3:TrackPointExtension>
        </extensions>
      </trkpt>
      <trkpt lat="36.8118369765579700469970703125" lon="-118.41908703558146953582763671875">
        <ele>3340.800048828125</ele>
        <time>2021-06-26T22:03:52.000Z</time>
        <extensions>
          <ns3:TrackPointExtension>
            <ns3:atemp>28.0</ns3:atemp>
            <ns3:hr>107</ns3:hr>
          </ns3:TrackPointExtension>
        </extensions>
      </trkpt>
      <trkpt lat="36.81176095269620418548583984375" lon="-118.419070355594158172607421875">
        <ele>3340.60009765625</ele>
        <time>2021-06-26T22:04:00.000Z</time>
        <extensions>
          <ns3:TrackPointExtension>
            <ns3:atemp>28.0</ns3:atemp>
            <ns3:hr>109</ns3:hr>
          </ns3:TrackPointExtension>
        </extensions>
      </trkpt>
      <trkpt lat="36.8117005191743373870849609375" lon="-118.41902400366961956024169921875">
        <ele>3341.199951171875</ele>
        <time>2021-06-26T22:04:08.000Z</time>
        <extensions>
          <ns3:TrackPointExtension>
            <ns3:atemp>28.0</ns3:atemp>
            <ns3:hr>110</ns3:hr>
          </ns3:TrackPointExtension>
        </extensions>
      </trkpt>
      <trkpt lat="36.81165902875363826751708984375" lon="-118.41901914216578006744384765625">
        <ele>3340.39990234375</ele>
        <time>2021-06-26T22:04:14.000Z</time>
        <extensions>
          <ns3:TrackPointExtension>
            <ns3:atemp>28.0</ns3:atemp>
            <ns3:hr>109</ns3:hr>
          </ns3:TrackPointExtension>
        </extensions>
      </trkpt>
      <trkpt lat="36.81164679117500782012939453125" lon="-118.41902584768831729888916015625">
        <ele>3340.39990234375</ele>
        <time>2021-06-26T22:04:16.000Z</time>
        <extensions>
          <ns3:TrackPointExtension>
            <ns3:atemp>28.0</ns3:atemp>
            <ns3:hr>108</ns3:hr>
          </ns3:TrackPointExtension>
        </extensions>
      </trkpt>
      <trkpt lat="36.81163363158702850341796875" lon="-118.419025428593158721923828125">
        <ele>3340</ele>
        <time>2021-06-26T22:04:19.000Z</time>
        <extensions>
          <ns3:TrackPointExtension>
            <ns3:atemp>28.0</ns3:atemp>
            <ns3:hr>107</ns3:hr>
          </ns3:TrackPointExtension>
        </extensions>
      </trkpt>
      <trkpt lat="36.811609826982021331787109375" lon="-118.4190339781343936920166015625">
        <ele>3339.800048828125</ele>
        <time>2021-06-26T22:04:22.000Z</time>
        <extensions>
          <ns3:TrackPointExtension>
            <ns3:atemp>28.0</ns3:atemp>
            <ns3:hr>107</ns3:hr>
          </ns3:TrackPointExtension>
        </extensions>
      </trkpt>
      <trkpt lat="36.8116059713065624237060546875" lon="-118.41903791762888431549072265625">
        <ele>3339.60009765625</ele>
        <time>2021-06-26T22:04:23.000Z</time>
        <extensions>
          <ns3:TrackPointExtension>
            <ns3:atemp>28.0</ns3:atemp>
            <ns3:hr>107</ns3:hr>
          </ns3:TrackPointExtension>
        </extensions>
      </trkpt>
      <trkpt lat="36.8115980923175811767578125" lon="-118.41903758235275745391845703125">
        <ele>3339.39990234375</ele>
        <time>2021-06-26T22:04:24.000Z</time>
        <extensions>
          <ns3:TrackPointExtension>
            <ns3:atemp>28.0</ns3:atemp>
            <ns3:hr>106</ns3:hr>
          </ns3:TrackPointExtension>
        </extensions>
      </trkpt>
      <trkpt lat="36.81159029714763164520263671875" lon="-118.419035486876964569091796875">
        <ele>3338.60009765625</ele>
        <time>2021-06-26T22:04:25.000Z</time>
        <extensions>
          <ns3:TrackPointExtension>
            <ns3:atemp>28.0</ns3:atemp>
            <ns3:hr>106</ns3:hr>
          </ns3:TrackPointExtension>
        </extensions>
      </trkpt>
      <trkpt lat="36.811580322682857513427734375" lon="-118.4190358221530914306640625">
        <ele>3338</ele>
        <time>2021-06-26T22:04:26.000Z</time>
        <extensions>
          <ns3:TrackPointExtension>
            <ns3:atemp>28.0</ns3:atemp>
            <ns3:hr>107</ns3:hr>
          </ns3:TrackPointExtension>
        </extensions>
      </trkpt>
      <trkpt lat="36.81156666018068790435791015625" lon="-118.41903389431536197662353515625">
        <ele>3337.60009765625</ele>
        <time>2021-06-26T22:04:28.000Z</time>
        <extensions>
          <ns3:TrackPointExtension>
            <ns3:atemp>27.0</ns3:atemp>
            <ns3:hr>105</ns3:hr>
          </ns3:TrackPointExtension>
        </extensions>
      </trkpt>
      <trkpt lat="36.81155852973461151123046875" lon="-118.4190346486866474151611328125">
        <ele>3337.39990234375</ele>
        <time>2021-06-26T22:04:29.000Z</time>
        <extensions>
          <ns3:TrackPointExtension>
            <ns3:atemp>27.0</ns3:atemp>
            <ns3:hr>106</ns3:hr>
          </ns3:TrackPointExtension>
        </extensions>
      </trkpt>
      <trkpt lat="36.8115337193012237548828125" lon="-118.419025428593158721923828125">
        <ele>3337</ele>
        <time>2021-06-26T22:04:36.000Z</time>
        <extensions>
          <ns3:TrackPointExtension>
            <ns3:atemp>27.0</ns3:atemp>
            <ns3:hr>104</ns3:hr>
          </ns3:TrackPointExtension>
        </extensions>
      </trkpt>
      <trkpt lat="36.81152164936065673828125" lon="-118.41902417130768299102783203125">
        <ele>3337</ele>
        <time>2021-06-26T22:04:39.000Z</time>
        <extensions>
          <ns3:TrackPointExtension>
            <ns3:atemp>27.0</ns3:atemp>
            <ns3:hr>106</ns3:hr>
          </ns3:TrackPointExtension>
        </extensions>
      </trkpt>
      <trkpt lat="36.8115094117820262908935546875" lon="-118.419015705585479736328125">
        <ele>3337</ele>
        <time>2021-06-26T22:04:41.000Z</time>
        <extensions>
          <ns3:TrackPointExtension>
            <ns3:atemp>27.0</ns3:atemp>
            <ns3:hr>103</ns3:hr>
          </ns3:TrackPointExtension>
        </extensions>
      </trkpt>
      <trkpt lat="36.81149004958570003509521484375" lon="-118.41898662038147449493408203125">
        <ele>3336.60009765625</ele>
        <time>2021-06-26T22:04:44.000Z</time>
        <extensions>
          <ns3:TrackPointExtension>
            <ns3:atemp>27.0</ns3:atemp>
            <ns3:hr>103</ns3:hr>
          </ns3:TrackPointExtension>
        </extensions>
      </trkpt>
      <trkpt lat="36.81146590970456600189208984375" lon="-118.418967090547084808349609375">
        <ele>3336.60009765625</ele>
        <time>2021-06-26T22:04:47.000Z</time>
        <extensions>
          <ns3:TrackPointExtension>
            <ns3:atemp>27.0</ns3:atemp>
            <ns3:hr>100</ns3:hr>
          </ns3:TrackPointExtension>
        </extensions>
      </trkpt>
      <trkpt lat="36.811423413455486297607421875" lon="-118.4189276956021785736083984375">
        <ele>3337.39990234375</ele>
        <time>2021-06-26T22:04:52.000Z</time>
        <extensions>
          <ns3:TrackPointExtension>
            <ns3:atemp>27.0</ns3:atemp>
            <ns3:hr>99</ns3:hr>
          </ns3:TrackPointExtension>
        </extensions>
      </trkpt>
      <trkpt lat="36.811375133693218231201171875" lon="-118.41889207251369953155517578125">
        <ele>3337.39990234375</ele>
        <time>2021-06-26T22:04:58.000Z</time>
        <extensions>
          <ns3:TrackPointExtension>
            <ns3:atemp>27.0</ns3:atemp>
            <ns3:hr>96</ns3:hr>
          </ns3:TrackPointExtension>
        </extensions>
      </trkpt>
      <trkpt lat="36.811363734304904937744140625" lon="-118.41888134367763996124267578125">
        <ele>3337</ele>
        <time>2021-06-26T22:05:00.000Z</time>
        <extensions>
          <ns3:TrackPointExtension>
            <ns3:atemp>27.0</ns3:atemp>
            <ns3:hr>97</ns3:hr>
          </ns3:TrackPointExtension>
        </extensions>
      </trkpt>
      <trkpt lat="36.8113457970321178436279296875" lon="-118.4188639931380748748779296875">
        <ele>3336.800048828125</ele>
        <time>2021-06-26T22:05:02.000Z</time>
        <extensions>
          <ns3:TrackPointExtension>
            <ns3:atemp>27.0</ns3:atemp>
            <ns3:hr>94</ns3:hr>
          </ns3:TrackPointExtension>
        </extensions>
      </trkpt>
      <trkpt lat="36.81126910261809825897216796875" lon="-118.41879383660852909088134765625">
        <ele>3337.39990234375</ele>
        <time>2021-06-26T22:05:12.000Z</time>
        <extensions>
          <ns3:TrackPointExtension>
            <ns3:atemp>27.0</ns3:atemp>
            <ns3:hr>96</ns3:hr>
          </ns3:TrackPointExtension>
        </extensions>
      </trkpt>
      <trkpt lat="36.8112592957913875579833984375" lon="-118.41877271421253681182861328125">
        <ele>3337.800048828125</ele>
        <time>2021-06-26T22:05:15.000Z</time>
        <extensions>
          <ns3:TrackPointExtension>
            <ns3:atemp>26.0</ns3:atemp>
            <ns3:hr>96</ns3:hr>
          </ns3:TrackPointExtension>
        </extensions>
      </trkpt>
      <trkpt lat="36.81124228052794933319091796875" lon="-118.418722338974475860595703125">
        <ele>3338</ele>
        <time>2021-06-26T22:05:20.000Z</time>
        <extensions>
          <ns3:TrackPointExtension>
            <ns3:atemp>26.0</ns3:atemp>
            <ns3:hr>97</ns3:hr>
          </ns3:TrackPointExtension>
        </extensions>
      </trkpt>
      <trkpt lat="36.8112359941005706787109375" lon="-118.4187158010900020599365234375">
        <ele>3338.800048828125</ele>
        <time>2021-06-26T22:05:21.000Z</time>
        <extensions>
          <ns3:TrackPointExtension>
            <ns3:atemp>26.0</ns3:atemp>
            <ns3:hr>97</ns3:hr>
          </ns3:TrackPointExtension>
        </extensions>
      </trkpt>
      <trkpt lat="36.81120523251593112945556640625" lon="-118.4186889789998531341552734375">
        <ele>3338.39990234375</ele>
        <time>2021-06-26T22:05:25.000Z</time>
        <extensions>
          <ns3:TrackPointExtension>
            <ns3:atemp>26.0</ns3:atemp>
            <ns3:hr>100</ns3:hr>
          </ns3:TrackPointExtension>
        </extensions>
      </trkpt>
      <trkpt lat="36.811180673539638519287109375" lon="-118.41867313720285892486572265625">
        <ele>3337.39990234375</ele>
        <time>2021-06-26T22:05:29.000Z</time>
        <extensions>
          <ns3:TrackPointExtension>
            <ns3:atemp>26.0</ns3:atemp>
            <ns3:hr>101</ns3:hr>
          </ns3:TrackPointExtension>
        </extensions>
      </trkpt>
      <trkpt lat="36.81112208403646945953369140625" lon="-118.4186200797557830810546875">
        <ele>3337.199951171875</ele>
        <time>2021-06-26T22:05:37.000Z</time>
        <extensions>
          <ns3:TrackPointExtension>
            <ns3:atemp>26.0</ns3:atemp>
            <ns3:hr>103</ns3:hr>
          </ns3:TrackPointExtension>
        </extensions>
      </trkpt>
      <trkpt lat="36.81110766716301441192626953125" lon="-118.41859971173107624053955078125">
        <ele>3337.39990234375</ele>
        <time>2021-06-26T22:05:39.000Z</time>
        <extensions>
          <ns3:TrackPointExtension>
            <ns3:atemp>26.0</ns3:atemp>
            <ns3:hr>103</ns3:hr>
          </ns3:TrackPointExtension>
        </extensions>
      </trkpt>
      <trkpt lat="36.811041869223117828369140625" lon="-118.4185208380222320556640625">
        <ele>3338.60009765625</ele>
        <time>2021-06-26T22:05:49.000Z</time>
        <extensions>
          <ns3:TrackPointExtension>
            <ns3:atemp>26.0</ns3:atemp>
            <ns3:hr>102</ns3:hr>
          </ns3:TrackPointExtension>
        </extensions>
      </trkpt>
      <trkpt lat="36.81101714260876178741455078125" lon="-118.418493680655956268310546875">
        <ele>3338.800048828125</ele>
        <time>2021-06-26T22:05:53.000Z</time>
        <extensions>
          <ns3:TrackPointExtension>
            <ns3:atemp>26.0</ns3:atemp>
            <ns3:hr>99</ns3:hr>
          </ns3:TrackPointExtension>
        </extensions>
      </trkpt>
      <trkpt lat="36.81099954061210155487060546875" lon="-118.4184710495173931121826171875">
        <ele>3339.199951171875</ele>
        <time>2021-06-26T22:05:56.000Z</time>
        <extensions>
          <ns3:TrackPointExtension>
            <ns3:atemp>26.0</ns3:atemp>
            <ns3:hr>103</ns3:hr>
          </ns3:TrackPointExtension>
        </extensions>
      </trkpt>
      <trkpt lat="36.81097238324582576751708984375" lon="-118.418441377580165863037109375">
        <ele>3339.199951171875</ele>
        <time>2021-06-26T22:06:00.000Z</time>
        <extensions>
          <ns3:TrackPointExtension>
            <ns3:atemp>26.0</ns3:atemp>
            <ns3:hr>105</ns3:hr>
          </ns3:TrackPointExtension>
        </extensions>
      </trkpt>
      <trkpt lat="36.81096366606652736663818359375" lon="-118.418431989848613739013671875">
        <ele>3339</ele>
        <time>2021-06-26T22:06:04.000Z</time>
        <extensions>
          <ns3:TrackPointExtension>
            <ns3:atemp>26.0</ns3:atemp>
            <ns3:hr>107</ns3:hr>
          </ns3:TrackPointExtension>
        </extensions>
      </trkpt>
      <trkpt lat="36.8109696172177791595458984375" lon="-118.41843643225729465484619140625">
        <ele>3338.60009765625</ele>
        <time>2021-06-26T22:06:06.000Z</time>
        <extensions>
          <ns3:TrackPointExtension>
            <ns3:atemp>26.0</ns3:atemp>
            <ns3:hr>107</ns3:hr>
          </ns3:TrackPointExtension>
        </extensions>
      </trkpt>
      <trkpt lat="36.8109592236578464508056640625" lon="-118.4184274636209011077880859375">
        <ele>3338.199951171875</ele>
        <time>2021-06-26T22:06:10.000Z</time>
        <extensions>
          <ns3:TrackPointExtension>
            <ns3:atemp>26.0</ns3:atemp>
            <ns3:hr>110</ns3:hr>
          </ns3:TrackPointExtension>
        </extensions>
      </trkpt>
      <trkpt lat="36.8109545297920703887939453125" lon="-118.4184291400015354156494140625">
        <ele>3338.39990234375</ele>
        <time>2021-06-26T22:06:19.000Z</time>
        <extensions>
          <ns3:TrackPointExtension>
            <ns3:atemp>26.0</ns3:atemp>
            <ns3:hr>107</ns3:hr>
          </ns3:TrackPointExtension>
        </extensions>
      </trkpt>
      <trkpt lat="36.81096064858138561248779296875" lon="-118.41842922382056713104248046875">
        <ele>3338.39990234375</ele>
        <time>2021-06-26T22:06:23.000Z</time>
        <extensions>
          <ns3:TrackPointExtension>
            <ns3:atemp>26.0</ns3:atemp>
            <ns3:hr>104</ns3:hr>
          </ns3:TrackPointExtension>
        </extensions>
      </trkpt>
      <trkpt lat="36.81099249981343746185302734375" lon="-118.4184338338673114776611328125">
        <ele>3338.60009765625</ele>
        <time>2021-06-26T22:06:36.000Z</time>
        <extensions>
          <ns3:TrackPointExtension>
            <ns3:atemp>26.0</ns3:atemp>
            <ns3:hr>101</ns3:hr>
          </ns3:TrackPointExtension>
        </extensions>
      </trkpt>
      <trkpt lat="36.810999624431133270263671875" lon="-118.4184398688375949859619140625">
        <ele>3338.800048828125</ele>
        <time>2021-06-26T22:06:49.000Z</time>
        <extensions>
          <ns3:TrackPointExtension>
            <ns3:atemp>26.0</ns3:atemp>
            <ns3:hr>98</ns3:hr>
          </ns3:TrackPointExtension>
        </extensions>
      </trkpt>
      <trkpt lat="36.81099534966051578521728515625" lon="-118.41844598762691020965576171875">
        <ele>3339.800048828125</ele>
        <time>2021-06-26T22:07:02.000Z</time>
        <extensions>
          <ns3:TrackPointExtension>
            <ns3:atemp>26.0</ns3:atemp>
            <ns3:hr>97</ns3:hr>
          </ns3:TrackPointExtension>
        </extensions>
      </trkpt>
      <trkpt lat="36.81099283508956432342529296875" lon="-118.41844598762691020965576171875">
        <ele>3339.60009765625</ele>
        <time>2021-06-26T22:07:07.000Z</time>
        <extensions>
          <ns3:TrackPointExtension>
            <ns3:atemp>26.0</ns3:atemp>
            <ns3:hr>100</ns3:hr>
          </ns3:TrackPointExtension>
        </extensions>
      </trkpt>
      <trkpt lat="36.810982190072536468505859375" lon="-118.418414555490016937255859375">
        <ele>3339.39990234375</ele>
        <time>2021-06-26T22:07:32.000Z</time>
        <extensions>
          <ns3:TrackPointExtension>
            <ns3:atemp>26.0</ns3:atemp>
            <ns3:hr>96</ns3:hr>
          </ns3:TrackPointExtension>
        </extensions>
      </trkpt>
      <trkpt lat="36.81097975932061672210693359375" lon="-118.4184174053370952606201171875">
        <ele>3339.199951171875</ele>
        <time>2021-06-26T22:07:40.000Z</time>
        <extensions>
          <ns3:TrackPointExtension>
            <ns3:atemp>26.0</ns3:atemp>
            <ns3:hr>99</ns3:hr>
          </ns3:TrackPointExtension>
        </extensions>
      </trkpt>
      <trkpt lat="36.81092552840709686279296875" lon="-118.41835412196815013885498046875">
        <ele>3339.199951171875</ele>
        <time>2021-06-26T22:07:46.000Z</time>
        <extensions>
          <ns3:TrackPointExtension>
            <ns3:atemp>26.0</ns3:atemp>
            <ns3:hr>101</ns3:hr>
          </ns3:TrackPointExtension>
        </extensions>
      </trkpt>
      <trkpt lat="36.81085436604917049407958984375" lon="-118.418259657919406890869140625">
        <ele>3340.199951171875</ele>
        <time>2021-06-26T22:07:55.000Z</time>
        <extensions>
          <ns3:TrackPointExtension>
            <ns3:atemp>26.0</ns3:atemp>
            <ns3:hr>102</ns3:hr>
          </ns3:TrackPointExtension>
        </extensions>
      </trkpt>
      <trkpt lat="36.8108318187296390533447265625" lon="-118.418227136135101318359375">
        <ele>3340.199951171875</ele>
        <time>2021-06-26T22:07:58.000Z</time>
        <extensions>
          <ns3:TrackPointExtension>
            <ns3:atemp>27.0</ns3:atemp>
            <ns3:hr>105</ns3:hr>
          </ns3:TrackPointExtension>
        </extensions>
      </trkpt>
      <trkpt lat="36.8108070082962512969970703125" lon="-118.418195284903049468994140625">
        <ele>3340.199951171875</ele>
        <time>2021-06-26T22:08:01.000Z</time>
        <extensions>
          <ns3:TrackPointExtension>
            <ns3:atemp>27.0</ns3:atemp>
            <ns3:hr>108</ns3:hr>
          </ns3:TrackPointExtension>
        </extensions>
      </trkpt>
      <trkpt lat="36.81079007685184478759765625" lon="-118.41816351749002933502197265625">
        <ele>3340.199951171875</ele>
        <time>2021-06-26T22:08:04.000Z</time>
        <extensions>
          <ns3:TrackPointExtension>
            <ns3:atemp>27.0</ns3:atemp>
            <ns3:hr>113</ns3:hr>
          </ns3:TrackPointExtension>
        </extensions>
      </trkpt>
      <trkpt lat="36.81077255867421627044677734375" lon="-118.418141305446624755859375">
        <ele>3340.39990234375</ele>
        <time>2021-06-26T22:08:06.000Z</time>
        <extensions>
          <ns3:TrackPointExtension>
            <ns3:atemp>27.0</ns3:atemp>
            <ns3:hr>112</ns3:hr>
          </ns3:TrackPointExtension>
        </extensions>
      </trkpt>
      <trkpt lat="36.8107439763844013214111328125" lon="-118.41810400597751140594482421875">
        <ele>3340.39990234375</ele>
        <time>2021-06-26T22:08:10.000Z</time>
        <extensions>
          <ns3:TrackPointExtension>
            <ns3:atemp>27.0</ns3:atemp>
            <ns3:hr>108</ns3:hr>
          </ns3:TrackPointExtension>
        </extensions>
      </trkpt>
      <trkpt lat="36.81072997860610485076904296875" lon="-118.41809637844562530517578125">
        <ele>3340.39990234375</ele>
        <time>2021-06-26T22:08:11.000Z</time>
        <extensions>
          <ns3:TrackPointExtension>
            <ns3:atemp>27.0</ns3:atemp>
            <ns3:hr>108</ns3:hr>
          </ns3:TrackPointExtension>
        </extensions>
      </trkpt>
      <trkpt lat="36.81068672798573970794677734375" lon="-118.4180673770606517791748046875">
        <ele>3340.199951171875</ele>
        <time>2021-06-26T22:08:16.000Z</time>
        <extensions>
          <ns3:TrackPointExtension>
            <ns3:atemp>27.0</ns3:atemp>
            <ns3:hr>105</ns3:hr>
          </ns3:TrackPointExtension>
        </extensions>
      </trkpt>
      <trkpt lat="36.81066409684717655181884765625" lon="-118.41802664101123809814453125">
        <ele>3340.199951171875</ele>
        <time>2021-06-26T22:08:20.000Z</time>
        <extensions>
          <ns3:TrackPointExtension>
            <ns3:atemp>27.0</ns3:atemp>
            <ns3:hr>108</ns3:hr>
          </ns3:TrackPointExtension>
        </extensions>
      </trkpt>
      <trkpt lat="36.81065957061946392059326171875" lon="-118.41801188886165618896484375">
        <ele>3340.199951171875</ele>
        <time>2021-06-26T22:08:21.000Z</time>
        <extensions>
          <ns3:TrackPointExtension>
            <ns3:atemp>27.0</ns3:atemp>
            <ns3:hr>108</ns3:hr>
          </ns3:TrackPointExtension>
        </extensions>
      </trkpt>
      <trkpt lat="36.81065504439175128936767578125" lon="-118.4179916046559810638427734375">
        <ele>3340</ele>
        <time>2021-06-26T22:08:23.000Z</time>
        <extensions>
          <ns3:TrackPointExtension>
            <ns3:atemp>27.0</ns3:atemp>
            <ns3:hr>111</ns3:hr>
          </ns3:TrackPointExtension>
        </extensions>
      </trkpt>
      <trkpt lat="36.81065060198307037353515625" lon="-118.41798112727701663970947265625">
        <ele>3340</ele>
        <time>2021-06-26T22:08:24.000Z</time>
        <extensions>
          <ns3:TrackPointExtension>
            <ns3:atemp>27.0</ns3:atemp>
            <ns3:hr>108</ns3:hr>
          </ns3:TrackPointExtension>
        </extensions>
      </trkpt>
      <trkpt lat="36.810644567012786865234375" lon="-118.41797308064997196197509765625">
        <ele>3339.800048828125</ele>
        <time>2021-06-26T22:08:25.000Z</time>
        <extensions>
          <ns3:TrackPointExtension>
            <ns3:atemp>27.0</ns3:atemp>
            <ns3:hr>108</ns3:hr>
          </ns3:TrackPointExtension>
        </extensions>
      </trkpt>
      <trkpt lat="36.81062051095068454742431640625" lon="-118.41795212589204311370849609375">
        <ele>3339.199951171875</ele>
        <time>2021-06-26T22:08:28.000Z</time>
        <extensions>
          <ns3:TrackPointExtension>
            <ns3:atemp>27.0</ns3:atemp>
            <ns3:hr>107</ns3:hr>
          </ns3:TrackPointExtension>
        </extensions>
      </trkpt>
      <trkpt lat="36.81060140021145343780517578125" lon="-118.41791507788002490997314453125">
        <ele>3338.800048828125</ele>
        <time>2021-06-26T22:08:32.000Z</time>
        <extensions>
          <ns3:TrackPointExtension>
            <ns3:atemp>27.0</ns3:atemp>
            <ns3:hr>110</ns3:hr>
          </ns3:TrackPointExtension>
        </extensions>
      </trkpt>
      <trkpt lat="36.8105984665453433990478515625" lon="-118.417903594672679901123046875">
        <ele>3338.60009765625</ele>
        <time>2021-06-26T22:08:33.000Z</time>
        <extensions>
          <ns3:TrackPointExtension>
            <ns3:atemp>27.0</ns3:atemp>
            <ns3:hr>108</ns3:hr>
          </ns3:TrackPointExtension>
        </extensions>
      </trkpt>
      <trkpt lat="36.81056569330394268035888671875" lon="-118.41778784058988094329833984375">
        <ele>3339.39990234375</ele>
        <time>2021-06-26T22:08:43.000Z</time>
        <extensions>
          <ns3:TrackPointExtension>
            <ns3:atemp>27.0</ns3:atemp>
            <ns3:hr>110</ns3:hr>
          </ns3:TrackPointExtension>
        </extensions>
      </trkpt>
      <trkpt lat="36.81055965833365917205810546875" lon="-118.41777996160089969635009765625">
        <ele>3339.60009765625</ele>
        <time>2021-06-26T22:08:44.000Z</time>
        <extensions>
          <ns3:TrackPointExtension>
            <ns3:atemp>27.0</ns3:atemp>
            <ns3:hr>110</ns3:hr>
          </ns3:TrackPointExtension>
        </extensions>
      </trkpt>
      <trkpt lat="36.81052495725452899932861328125" lon="-118.4177310951054096221923828125">
        <ele>3340</ele>
        <time>2021-06-26T22:08:50.000Z</time>
        <extensions>
          <ns3:TrackPointExtension>
            <ns3:atemp>27.0</ns3:atemp>
            <ns3:hr>109</ns3:hr>
          </ns3:TrackPointExtension>
        </extensions>
      </trkpt>
      <trkpt lat="36.81051556952297687530517578125" lon="-118.41770251281559467315673828125">
        <ele>3341</ele>
        <time>2021-06-26T22:08:53.000Z</time>
        <extensions>
          <ns3:TrackPointExtension>
            <ns3:atemp>27.0</ns3:atemp>
            <ns3:hr>111</ns3:hr>
          </ns3:TrackPointExtension>
        </extensions>
      </trkpt>
      <trkpt lat="36.81049260310828685760498046875" lon="-118.41767803765833377838134765625">
        <ele>3341</ele>
        <time>2021-06-26T22:08:56.000Z</time>
        <extensions>
          <ns3:TrackPointExtension>
            <ns3:atemp>27.0</ns3:atemp>
            <ns3:hr>114</ns3:hr>
          </ns3:TrackPointExtension>
        </extensions>
      </trkpt>
      <trkpt lat="36.81047483347356319427490234375" lon="-118.41765976510941982269287109375">
        <ele>3341</ele>
        <time>2021-06-26T22:08:58.000Z</time>
        <extensions>
          <ns3:TrackPointExtension>
            <ns3:atemp>27.0</ns3:atemp>
            <ns3:hr>115</ns3:hr>
          </ns3:TrackPointExtension>
        </extensions>
      </trkpt>
      <trkpt lat="36.8104318343102931976318359375" lon="-118.4175906144082546234130859375">
        <ele>3341.60009765625</ele>
        <time>2021-06-26T22:09:06.000Z</time>
        <extensions>
          <ns3:TrackPointExtension>
            <ns3:atemp>27.0</ns3:atemp>
            <ns3:hr>118</ns3:hr>
          </ns3:TrackPointExtension>
        </extensions>
      </trkpt>
      <trkpt lat="36.8104177527129650115966796875" lon="-118.41757209040224552154541015625">
        <ele>3342</ele>
        <time>2021-06-26T22:09:09.000Z</time>
        <extensions>
          <ns3:TrackPointExtension>
            <ns3:atemp>27.0</ns3:atemp>
            <ns3:hr>120</ns3:hr>
          </ns3:TrackPointExtension>
        </extensions>
      </trkpt>
      <trkpt lat="36.8104100413620471954345703125" lon="-118.41756521724164485931396484375">
        <ele>3342.199951171875</ele>
        <time>2021-06-26T22:09:10.000Z</time>
        <extensions>
          <ns3:TrackPointExtension>
            <ns3:atemp>27.0</ns3:atemp>
            <ns3:hr>122</ns3:hr>
          </ns3:TrackPointExtension>
        </extensions>
      </trkpt>
      <trkpt lat="36.81040761061012744903564453125" lon="-118.41755800880491733551025390625">
        <ele>3342.39990234375</ele>
        <time>2021-06-26T22:09:11.000Z</time>
        <extensions>
          <ns3:TrackPointExtension>
            <ns3:atemp>27.0</ns3:atemp>
            <ns3:hr>124</ns3:hr>
          </ns3:TrackPointExtension>
        </extensions>
      </trkpt>
      <trkpt lat="36.81040308438241481781005859375" lon="-118.41754543595016002655029296875">
        <ele>3342.60009765625</ele>
        <time>2021-06-26T22:09:12.000Z</time>
        <extensions>
          <ns3:TrackPointExtension>
            <ns3:atemp>27.0</ns3:atemp>
            <ns3:hr>124</ns3:hr>
          </ns3:TrackPointExtension>
        </extensions>
      </trkpt>
      <trkpt lat="36.81037760339677333831787109375" lon="-118.417505957186222076416015625">
        <ele>3343.199951171875</ele>
        <time>2021-06-26T22:09:17.000Z</time>
        <extensions>
          <ns3:TrackPointExtension>
            <ns3:atemp>27.0</ns3:atemp>
            <ns3:hr>126</ns3:hr>
          </ns3:TrackPointExtension>
        </extensions>
      </trkpt>
      <trkpt lat="36.8103362806141376495361328125" lon="-118.4174715913832187652587890625">
        <ele>3344</ele>
        <time>2021-06-26T22:09:25.000Z</time>
        <extensions>
          <ns3:TrackPointExtension>
            <ns3:atemp>27.0</ns3:atemp>
            <ns3:hr>126</ns3:hr>
          </ns3:TrackPointExtension>
        </extensions>
      </trkpt>
      <trkpt lat="36.81029512546956539154052734375" lon="-118.41743647120893001556396484375">
        <ele>3344.39990234375</ele>
        <time>2021-06-26T22:09:30.000Z</time>
        <extensions>
          <ns3:TrackPointExtension>
            <ns3:atemp>27.0</ns3:atemp>
            <ns3:hr>126</ns3:hr>
          </ns3:TrackPointExtension>
        </extensions>
      </trkpt>
      <trkpt lat="36.81029093451797962188720703125" lon="-118.41741870157420635223388671875">
        <ele>3344.800048828125</ele>
        <time>2021-06-26T22:09:33.000Z</time>
        <extensions>
          <ns3:TrackPointExtension>
            <ns3:atemp>27.0</ns3:atemp>
            <ns3:hr>126</ns3:hr>
          </ns3:TrackPointExtension>
        </extensions>
      </trkpt>
      <trkpt lat="36.81028121151030063629150390625" lon="-118.41739959083497524261474609375">
        <ele>3345.199951171875</ele>
        <time>2021-06-26T22:09:35.000Z</time>
        <extensions>
          <ns3:TrackPointExtension>
            <ns3:atemp>27.0</ns3:atemp>
            <ns3:hr>126</ns3:hr>
          </ns3:TrackPointExtension>
        </extensions>
      </trkpt>
      <trkpt lat="36.81027785874903202056884765625" lon="-118.41739288531243801116943359375">
        <ele>3345.39990234375</ele>
        <time>2021-06-26T22:09:36.000Z</time>
        <extensions>
          <ns3:TrackPointExtension>
            <ns3:atemp>27.0</ns3:atemp>
            <ns3:hr>126</ns3:hr>
          </ns3:TrackPointExtension>
        </extensions>
      </trkpt>
      <trkpt lat="36.81027643382549285888671875" lon="-118.41738869436085224151611328125">
        <ele>3345.60009765625</ele>
        <time>2021-06-26T22:09:37.000Z</time>
        <extensions>
          <ns3:TrackPointExtension>
            <ns3:atemp>27.0</ns3:atemp>
            <ns3:hr>125</ns3:hr>
          </ns3:TrackPointExtension>
        </extensions>
      </trkpt>
      <trkpt lat="36.81027366779744625091552734375" lon="-118.4173871017992496490478515625">
        <ele>3346</ele>
        <time>2021-06-26T22:09:38.000Z</time>
        <extensions>
          <ns3:TrackPointExtension>
            <ns3:atemp>27.0</ns3:atemp>
            <ns3:hr>125</ns3:hr>
          </ns3:TrackPointExtension>
        </extensions>
      </trkpt>
      <trkpt lat="36.8102678842842578887939453125" lon="-118.4173609502613544464111328125">
        <ele>3346.39990234375</ele>
        <time>2021-06-26T22:09:42.000Z</time>
        <extensions>
          <ns3:TrackPointExtension>
            <ns3:atemp>27.0</ns3:atemp>
            <ns3:hr>124</ns3:hr>
          </ns3:TrackPointExtension>
        </extensions>
      </trkpt>
      <trkpt lat="36.81026595644652843475341796875" lon="-118.417355753481388092041015625">
        <ele>3346.39990234375</ele>
        <time>2021-06-26T22:09:43.000Z</time>
        <extensions>
          <ns3:TrackPointExtension>
            <ns3:atemp>27.0</ns3:atemp>
            <ns3:hr>124</ns3:hr>
          </ns3:TrackPointExtension>
        </extensions>
      </trkpt>
      <trkpt lat="36.8102531321346759796142578125" lon="-118.4173285961151123046875">
        <ele>3346.60009765625</ele>
        <time>2021-06-26T22:09:46.000Z</time>
        <extensions>
          <ns3:TrackPointExtension>
            <ns3:atemp>27.0</ns3:atemp>
            <ns3:hr>121</ns3:hr>
          </ns3:TrackPointExtension>
        </extensions>
      </trkpt>
      <trkpt lat="36.81024433113634586334228515625" lon="-118.4173170290887355804443359375">
        <ele>3346.800048828125</ele>
        <time>2021-06-26T22:09:48.000Z</time>
        <extensions>
          <ns3:TrackPointExtension>
            <ns3:atemp>27.0</ns3:atemp>
            <ns3:hr>120</ns3:hr>
          </ns3:TrackPointExtension>
        </extensions>
      </trkpt>
      <trkpt lat="36.8102182634174823760986328125" lon="-118.4172814898192882537841796875">
        <ele>3347.39990234375</ele>
        <time>2021-06-26T22:09:53.000Z</time>
        <extensions>
          <ns3:TrackPointExtension>
            <ns3:atemp>27.0</ns3:atemp>
            <ns3:hr>120</ns3:hr>
          </ns3:TrackPointExtension>
        </extensions>
      </trkpt>
      <trkpt lat="36.81019890122115612030029296875" lon="-118.417266570031642913818359375">
        <ele>3347.800048828125</ele>
        <time>2021-06-26T22:09:56.000Z</time>
        <extensions>
          <ns3:TrackPointExtension>
            <ns3:atemp>28.0</ns3:atemp>
            <ns3:hr>120</ns3:hr>
          </ns3:TrackPointExtension>
        </extensions>
      </trkpt>
      <trkpt lat="36.81019102223217487335205078125" lon="-118.4172519855201244354248046875">
        <ele>3348</ele>
        <time>2021-06-26T22:09:58.000Z</time>
        <extensions>
          <ns3:TrackPointExtension>
            <ns3:atemp>28.0</ns3:atemp>
            <ns3:hr>120</ns3:hr>
          </ns3:TrackPointExtension>
        </extensions>
      </trkpt>
      <trkpt lat="36.81016453541815280914306640625" lon="-118.4172345511615276336669921875">
        <ele>3348.800048828125</ele>
        <time>2021-06-26T22:10:02.000Z</time>
        <extensions>
          <ns3:TrackPointExtension>
            <ns3:atemp>28.0</ns3:atemp>
            <ns3:hr>120</ns3:hr>
          </ns3:TrackPointExtension>
        </extensions>
      </trkpt>
      <trkpt lat="36.81014358066022396087646484375" lon="-118.41721066273748874664306640625">
        <ele>3349</ele>
        <time>2021-06-26T22:10:05.000Z</time>
        <extensions>
          <ns3:TrackPointExtension>
            <ns3:atemp>28.0</ns3:atemp>
            <ns3:hr>119</ns3:hr>
          </ns3:TrackPointExtension>
        </extensions>
      </trkpt>
      <trkpt lat="36.81012757122516632080078125" lon="-118.4171762131154537200927734375">
        <ele>3349.800048828125</ele>
        <time>2021-06-26T22:10:09.000Z</time>
        <extensions>
          <ns3:TrackPointExtension>
            <ns3:atemp>28.0</ns3:atemp>
            <ns3:hr>119</ns3:hr>
          </ns3:TrackPointExtension>
        </extensions>
      </trkpt>
      <trkpt lat="36.810106448829174041748046875" lon="-118.41714553534984588623046875">
        <ele>3350.199951171875</ele>
        <time>2021-06-26T22:10:13.000Z</time>
        <extensions>
          <ns3:TrackPointExtension>
            <ns3:atemp>28.0</ns3:atemp>
            <ns3:hr>121</ns3:hr>
          </ns3:TrackPointExtension>
        </extensions>
      </trkpt>
      <trkpt lat="36.81005758233368396759033203125" lon="-118.4171104989945888519287109375">
        <ele>3351</ele>
        <time>2021-06-26T22:10:19.000Z</time>
        <extensions>
          <ns3:TrackPointExtension>
            <ns3:atemp>28.0</ns3:atemp>
            <ns3:hr>120</ns3:hr>
          </ns3:TrackPointExtension>
        </extensions>
      </trkpt>
      <trkpt lat="36.81003947742283344268798828125" lon="-118.4170913882553577423095703125">
        <ele>3351.199951171875</ele>
        <time>2021-06-26T22:10:22.000Z</time>
        <extensions>
          <ns3:TrackPointExtension>
            <ns3:atemp>28.0</ns3:atemp>
            <ns3:hr>118</ns3:hr>
          </ns3:TrackPointExtension>
        </extensions>
      </trkpt>
      <trkpt lat="36.81001885794103145599365234375" lon="-118.41704520396888256072998046875">
        <ele>3351.39990234375</ele>
        <time>2021-06-26T22:10:27.000Z</time>
        <extensions>
          <ns3:TrackPointExtension>
            <ns3:atemp>28.0</ns3:atemp>
            <ns3:hr>119</ns3:hr>
          </ns3:TrackPointExtension>
        </extensions>
      </trkpt>
      <trkpt lat="36.8100154213607311248779296875" lon="-118.41700161807239055633544921875">
        <ele>3352.39990234375</ele>
        <time>2021-06-26T22:10:31.000Z</time>
        <extensions>
          <ns3:TrackPointExtension>
            <ns3:atemp>28.0</ns3:atemp>
            <ns3:hr>120</ns3:hr>
          </ns3:TrackPointExtension>
        </extensions>
      </trkpt>
      <trkpt lat="36.81001097895205020904541015625" lon="-118.41697161085903644561767578125">
        <ele>3353.39990234375</ele>
        <time>2021-06-26T22:10:35.000Z</time>
        <extensions>
          <ns3:TrackPointExtension>
            <ns3:atemp>28.0</ns3:atemp>
            <ns3:hr>122</ns3:hr>
          </ns3:TrackPointExtension>
        </extensions>
      </trkpt>
      <trkpt lat="36.8100083805620670318603515625" lon="-118.41696423478424549102783203125">
        <ele>3353.39990234375</ele>
        <time>2021-06-26T22:10:36.000Z</time>
        <extensions>
          <ns3:TrackPointExtension>
            <ns3:atemp>28.0</ns3:atemp>
            <ns3:hr>122</ns3:hr>
          </ns3:TrackPointExtension>
        </extensions>
      </trkpt>
      <trkpt lat="36.809987761080265045166015625" lon="-118.416903801262378692626953125">
        <ele>3354.199951171875</ele>
        <time>2021-06-26T22:10:43.000Z</time>
        <extensions>
          <ns3:TrackPointExtension>
            <ns3:atemp>28.0</ns3:atemp>
            <ns3:hr>119</ns3:hr>
          </ns3:TrackPointExtension>
        </extensions>
      </trkpt>
      <trkpt lat="36.8099761940538883209228515625" lon="-118.4168882109224796295166015625">
        <ele>3354.60009765625</ele>
        <time>2021-06-26T22:10:45.000Z</time>
        <extensions>
          <ns3:TrackPointExtension>
            <ns3:atemp>28.0</ns3:atemp>
            <ns3:hr>118</ns3:hr>
          </ns3:TrackPointExtension>
        </extensions>
      </trkpt>
      <trkpt lat="36.809952892363071441650390625" lon="-118.4168577007949352264404296875">
        <ele>3355.199951171875</ele>
        <time>2021-06-26T22:10:49.000Z</time>
        <extensions>
          <ns3:TrackPointExtension>
            <ns3:atemp>28.0</ns3:atemp>
            <ns3:hr>119</ns3:hr>
          </ns3:TrackPointExtension>
        </extensions>
      </trkpt>
      <trkpt lat="36.80993579328060150146484375" lon="-118.4168469719588756561279296875">
        <ele>3355.60009765625</ele>
        <time>2021-06-26T22:10:52.000Z</time>
        <extensions>
          <ns3:TrackPointExtension>
            <ns3:atemp>28.0</ns3:atemp>
            <ns3:hr>119</ns3:hr>
          </ns3:TrackPointExtension>
        </extensions>
      </trkpt>
      <trkpt lat="36.80992498062551021575927734375" lon="-118.41683632694184780120849609375">
        <ele>3355.800048828125</ele>
        <time>2021-06-26T22:10:54.000Z</time>
        <extensions>
          <ns3:TrackPointExtension>
            <ns3:atemp>28.0</ns3:atemp>
            <ns3:hr>120</ns3:hr>
          </ns3:TrackPointExtension>
        </extensions>
      </trkpt>
      <trkpt lat="36.80987603031098842620849609375" lon="-118.41679743491113185882568359375">
        <ele>3356.39990234375</ele>
        <time>2021-06-26T22:11:02.000Z</time>
        <extensions>
          <ns3:TrackPointExtension>
            <ns3:atemp>28.0</ns3:atemp>
            <ns3:hr>120</ns3:hr>
          </ns3:TrackPointExtension>
        </extensions>
      </trkpt>
      <trkpt lat="36.80986697785556316375732421875" lon="-118.41678955592215061187744140625">
        <ele>3356.800048828125</ele>
        <time>2021-06-26T22:11:04.000Z</time>
        <extensions>
          <ns3:TrackPointExtension>
            <ns3:atemp>28.0</ns3:atemp>
            <ns3:hr>120</ns3:hr>
          </ns3:TrackPointExtension>
        </extensions>
      </trkpt>
      <trkpt lat="36.80985976941883563995361328125" lon="-118.41676809825003147125244140625">
        <ele>3357.60009765625</ele>
        <time>2021-06-26T22:11:10.000Z</time>
        <extensions>
          <ns3:TrackPointExtension>
            <ns3:atemp>28.0</ns3:atemp>
            <ns3:hr>120</ns3:hr>
          </ns3:TrackPointExtension>
        </extensions>
      </trkpt>
      <trkpt lat="36.80987854488193988800048828125" lon="-118.41675954870879650115966796875">
        <ele>3358</ele>
        <time>2021-06-26T22:11:14.000Z</time>
        <extensions>
          <ns3:TrackPointExtension>
            <ns3:atemp>28.0</ns3:atemp>
            <ns3:hr>118</ns3:hr>
          </ns3:TrackPointExtension>
        </extensions>
      </trkpt>
      <trkpt lat="36.80989095009863376617431640625" lon="-118.41676893644034862518310546875">
        <ele>3358.800048828125</ele>
        <time>2021-06-26T22:11:17.000Z</time>
        <extensions>
          <ns3:TrackPointExtension>
            <ns3:atemp>28.0</ns3:atemp>
            <ns3:hr>116</ns3:hr>
          </ns3:TrackPointExtension>
        </extensions>
      </trkpt>
      <trkpt lat="36.8098953925073146820068359375" lon="-118.41677212156355381011962890625">
        <ele>3359</ele>
        <time>2021-06-26T22:11:18.000Z</time>
        <extensions>
          <ns3:TrackPointExtension>
            <ns3:atemp>28.0</ns3:atemp>
            <ns3:hr>116</ns3:hr>
          </ns3:TrackPointExtension>
        </extensions>
      </trkpt>
      <trkpt lat="36.80991299450397491455078125" lon="-118.41674186289310455322265625">
        <ele>3359.800048828125</ele>
        <time>2021-06-26T22:11:25.000Z</time>
        <extensions>
          <ns3:TrackPointExtension>
            <ns3:atemp>28.0</ns3:atemp>
            <ns3:hr>118</ns3:hr>
          </ns3:TrackPointExtension>
        </extensions>
      </trkpt>
      <trkpt lat="36.80990503169596195220947265625" lon="-118.41672752983868122100830078125">
        <ele>3360.199951171875</ele>
        <time>2021-06-26T22:11:27.000Z</time>
        <extensions>
          <ns3:TrackPointExtension>
            <ns3:atemp>28.0</ns3:atemp>
            <ns3:hr>119</ns3:hr>
          </ns3:TrackPointExtension>
        </extensions>
      </trkpt>
      <trkpt lat="36.8098823167383670806884765625" lon="-118.416696600615978240966796875">
        <ele>3360.199951171875</ele>
        <time>2021-06-26T22:11:30.000Z</time>
        <extensions>
          <ns3:TrackPointExtension>
            <ns3:atemp>28.0</ns3:atemp>
            <ns3:hr>122</ns3:hr>
          </ns3:TrackPointExtension>
        </extensions>
      </trkpt>
      <trkpt lat="36.80987586267292499542236328125" lon="-118.416680507361888885498046875">
        <ele>3360.800048828125</ele>
        <time>2021-06-26T22:11:32.000Z</time>
        <extensions>
          <ns3:TrackPointExtension>
            <ns3:atemp>28.0</ns3:atemp>
            <ns3:hr>122</ns3:hr>
          </ns3:TrackPointExtension>
        </extensions>
      </trkpt>
      <trkpt lat="36.80987385101616382598876953125" lon="-118.41664656065404415130615234375">
        <ele>3361.199951171875</ele>
        <time>2021-06-26T22:11:36.000Z</time>
        <extensions>
          <ns3:TrackPointExtension>
            <ns3:atemp>28.0</ns3:atemp>
            <ns3:hr>123</ns3:hr>
          </ns3:TrackPointExtension>
        </extensions>
      </trkpt>
      <trkpt lat="36.8098518066108226776123046875" lon="-118.4165951795876026153564453125">
        <ele>3362.39990234375</ele>
        <time>2021-06-26T22:11:42.000Z</time>
        <extensions>
          <ns3:TrackPointExtension>
            <ns3:atemp>28.0</ns3:atemp>
            <ns3:hr>124</ns3:hr>
          </ns3:TrackPointExtension>
        </extensions>
      </trkpt>
      <trkpt lat="36.809842586517333984375" lon="-118.41657548211514949798583984375">
        <ele>3362.39990234375</ele>
        <time>2021-06-26T22:11:44.000Z</time>
        <extensions>
          <ns3:TrackPointExtension>
            <ns3:atemp>28.0</ns3:atemp>
            <ns3:hr>120</ns3:hr>
          </ns3:TrackPointExtension>
        </extensions>
      </trkpt>
      <trkpt lat="36.80983378551900386810302734375" lon="-118.416540361940860748291015625">
        <ele>3362.800048828125</ele>
        <time>2021-06-26T22:11:48.000Z</time>
        <extensions>
          <ns3:TrackPointExtension>
            <ns3:atemp>28.0</ns3:atemp>
            <ns3:hr>125</ns3:hr>
          </ns3:TrackPointExtension>
        </extensions>
      </trkpt>
      <trkpt lat="36.8098166026175022125244140625" lon="-118.41651119291782379150390625">
        <ele>3363.39990234375</ele>
        <time>2021-06-26T22:11:52.000Z</time>
        <extensions>
          <ns3:TrackPointExtension>
            <ns3:atemp>28.0</ns3:atemp>
            <ns3:hr>125</ns3:hr>
          </ns3:TrackPointExtension>
        </extensions>
      </trkpt>
      <trkpt lat="36.80979154072701930999755859375" lon="-118.4164520166814327239990234375">
        <ele>3364.60009765625</ele>
        <time>2021-06-26T22:11:59.000Z</time>
        <extensions>
          <ns3:TrackPointExtension>
            <ns3:atemp>28.0</ns3:atemp>
            <ns3:hr>125</ns3:hr>
          </ns3:TrackPointExtension>
        </extensions>
      </trkpt>
      <trkpt lat="36.80978600867092609405517578125" lon="-118.416445814073085784912109375">
        <ele>3364.60009765625</ele>
        <time>2021-06-26T22:12:00.000Z</time>
        <extensions>
          <ns3:TrackPointExtension>
            <ns3:atemp>28.0</ns3:atemp>
            <ns3:hr>125</ns3:hr>
          </ns3:TrackPointExtension>
        </extensions>
      </trkpt>
      <trkpt lat="36.80975851602852344512939453125" lon="-118.4163960255682468414306640625">
        <ele>3365.60009765625</ele>
        <time>2021-06-26T22:12:08.000Z</time>
        <extensions>
          <ns3:TrackPointExtension>
            <ns3:atemp>28.0</ns3:atemp>
            <ns3:hr>125</ns3:hr>
          </ns3:TrackPointExtension>
        </extensions>
      </trkpt>
      <trkpt lat="36.80973789654672145843505859375" lon="-118.41633978299796581268310546875">
        <ele>3366.60009765625</ele>
        <time>2021-06-26T22:12:15.000Z</time>
        <extensions>
          <ns3:TrackPointExtension>
            <ns3:atemp>28.0</ns3:atemp>
            <ns3:hr>124</ns3:hr>
          </ns3:TrackPointExtension>
        </extensions>
      </trkpt>
      <trkpt lat="36.80973202921450138092041015625" lon="-118.41632754541933536529541015625">
        <ele>3366.800048828125</ele>
        <time>2021-06-26T22:12:17.000Z</time>
        <extensions>
          <ns3:TrackPointExtension>
            <ns3:atemp>28.0</ns3:atemp>
            <ns3:hr>123</ns3:hr>
          </ns3:TrackPointExtension>
        </extensions>
      </trkpt>
      <trkpt lat="36.80971861816942691802978515625" lon="-118.4162736497819423675537109375">
        <ele>3368</ele>
        <time>2021-06-26T22:12:25.000Z</time>
        <extensions>
          <ns3:TrackPointExtension>
            <ns3:atemp>28.0</ns3:atemp>
            <ns3:hr>122</ns3:hr>
          </ns3:TrackPointExtension>
        </extensions>
      </trkpt>
      <trkpt lat="36.80970738641917705535888671875" lon="-118.4162407927215099334716796875">
        <ele>3368.60009765625</ele>
        <time>2021-06-26T22:12:30.000Z</time>
        <extensions>
          <ns3:TrackPointExtension>
            <ns3:atemp>28.0</ns3:atemp>
            <ns3:hr>118</ns3:hr>
          </ns3:TrackPointExtension>
        </extensions>
      </trkpt>
      <trkpt lat="36.80970302782952785491943359375" lon="-118.4162347577512264251708984375">
        <ele>3368.800048828125</ele>
        <time>2021-06-26T22:12:31.000Z</time>
        <extensions>
          <ns3:TrackPointExtension>
            <ns3:atemp>28.0</ns3:atemp>
            <ns3:hr>122</ns3:hr>
          </ns3:TrackPointExtension>
        </extensions>
      </trkpt>
      <trkpt lat="36.80969112552702426910400390625" lon="-118.41621908359229564666748046875">
        <ele>3369</ele>
        <time>2021-06-26T22:12:34.000Z</time>
        <extensions>
          <ns3:TrackPointExtension>
            <ns3:atemp>28.0</ns3:atemp>
            <ns3:hr>122</ns3:hr>
          </ns3:TrackPointExtension>
        </extensions>
      </trkpt>
      <trkpt lat="36.80966950021684169769287109375" lon="-118.41620198450982570648193359375">
        <ele>3369.199951171875</ele>
        <time>2021-06-26T22:12:37.000Z</time>
        <extensions>
          <ns3:TrackPointExtension>
            <ns3:atemp>28.0</ns3:atemp>
            <ns3:hr>119</ns3:hr>
          </ns3:TrackPointExtension>
        </extensions>
      </trkpt>
      <trkpt lat="36.8096553348004817962646484375" lon="-118.4161868132650852203369140625">
        <ele>3369.60009765625</ele>
        <time>2021-06-26T22:12:40.000Z</time>
        <extensions>
          <ns3:TrackPointExtension>
            <ns3:atemp>28.0</ns3:atemp>
            <ns3:hr>116</ns3:hr>
          </ns3:TrackPointExtension>
        </extensions>
      </trkpt>
      <trkpt lat="36.80965156294405460357666015625" lon="-118.416168205440044403076171875">
        <ele>3369.800048828125</ele>
        <time>2021-06-26T22:12:43.000Z</time>
        <extensions>
          <ns3:TrackPointExtension>
            <ns3:atemp>28.0</ns3:atemp>
            <ns3:hr>116</ns3:hr>
          </ns3:TrackPointExtension>
        </extensions>
      </trkpt>
      <trkpt lat="36.80964150466024875640869140625" lon="-118.41614314354956150054931640625">
        <ele>3370.39990234375</ele>
        <time>2021-06-26T22:12:48.000Z</time>
        <extensions>
          <ns3:TrackPointExtension>
            <ns3:atemp>28.0</ns3:atemp>
            <ns3:hr>114</ns3:hr>
          </ns3:TrackPointExtension>
        </extensions>
      </trkpt>
      <trkpt lat="36.809636056423187255859375" lon="-118.41613526456058025360107421875">
        <ele>3370.800048828125</ele>
        <time>2021-06-26T22:12:51.000Z</time>
        <extensions>
          <ns3:TrackPointExtension>
            <ns3:atemp>28.0</ns3:atemp>
            <ns3:hr>111</ns3:hr>
          </ns3:TrackPointExtension>
        </extensions>
      </trkpt>
      <trkpt lat="36.8096322007477283477783203125" lon="-118.41612051241099834442138671875">
        <ele>3371.39990234375</ele>
        <time>2021-06-26T22:12:53.000Z</time>
        <extensions>
          <ns3:TrackPointExtension>
            <ns3:atemp>28.0</ns3:atemp>
            <ns3:hr>110</ns3:hr>
          </ns3:TrackPointExtension>
        </extensions>
      </trkpt>
      <trkpt lat="36.80962993763387203216552734375" lon="-118.41609234921634197235107421875">
        <ele>3372.60009765625</ele>
        <time>2021-06-26T22:12:58.000Z</time>
        <extensions>
          <ns3:TrackPointExtension>
            <ns3:atemp>28.0</ns3:atemp>
            <ns3:hr>110</ns3:hr>
          </ns3:TrackPointExtension>
        </extensions>
      </trkpt>
      <trkpt lat="36.80963161401450634002685546875" lon="-118.4160848893225193023681640625">
        <ele>3372.60009765625</ele>
        <time>2021-06-26T22:12:59.000Z</time>
        <extensions>
          <ns3:TrackPointExtension>
            <ns3:atemp>28.0</ns3:atemp>
            <ns3:hr>110</ns3:hr>
          </ns3:TrackPointExtension>
        </extensions>
      </trkpt>
      <trkpt lat="36.8096291832625865936279296875" lon="-118.41606351546943187713623046875">
        <ele>3373.39990234375</ele>
        <time>2021-06-26T22:13:02.000Z</time>
        <extensions>
          <ns3:TrackPointExtension>
            <ns3:atemp>28.0</ns3:atemp>
            <ns3:hr>107</ns3:hr>
          </ns3:TrackPointExtension>
        </extensions>
      </trkpt>
      <trkpt lat="36.80962725542485713958740234375" lon="-118.41605655848979949951171875">
        <ele>3373.800048828125</ele>
        <time>2021-06-26T22:13:03.000Z</time>
        <extensions>
          <ns3:TrackPointExtension>
            <ns3:atemp>28.0</ns3:atemp>
            <ns3:hr>109</ns3:hr>
          </ns3:TrackPointExtension>
        </extensions>
      </trkpt>
      <trkpt lat="36.80961526930332183837890625" lon="-118.41603510081768035888671875">
        <ele>3374.199951171875</ele>
        <time>2021-06-26T22:13:08.000Z</time>
        <extensions>
          <ns3:TrackPointExtension>
            <ns3:atemp>28.0</ns3:atemp>
            <ns3:hr>111</ns3:hr>
          </ns3:TrackPointExtension>
        </extensions>
      </trkpt>
      <trkpt lat="36.80961250327527523040771484375" lon="-118.41602378524839878082275390625">
        <ele>3375</ele>
        <time>2021-06-26T22:13:10.000Z</time>
        <extensions>
          <ns3:TrackPointExtension>
            <ns3:atemp>28.0</ns3:atemp>
            <ns3:hr>110</ns3:hr>
          </ns3:TrackPointExtension>
        </extensions>
      </trkpt>
      <trkpt lat="36.809614598751068115234375" lon="-118.41601339168846607208251953125">
        <ele>3375</ele>
        <time>2021-06-26T22:13:12.000Z</time>
        <extensions>
          <ns3:TrackPointExtension>
            <ns3:atemp>28.0</ns3:atemp>
            <ns3:hr>113</ns3:hr>
          </ns3:TrackPointExtension>
        </extensions>
      </trkpt>
      <trkpt lat="36.80961283855140209197998046875" lon="-118.4160034172236919403076171875">
        <ele>3375.39990234375</ele>
        <time>2021-06-26T22:13:15.000Z</time>
        <extensions>
          <ns3:TrackPointExtension>
            <ns3:atemp>28.0</ns3:atemp>
            <ns3:hr>117</ns3:hr>
          </ns3:TrackPointExtension>
        </extensions>
      </trkpt>
      <trkpt lat="36.8096197955310344696044921875" lon="-118.41599998064339160919189453125">
        <ele>3375.39990234375</ele>
        <time>2021-06-26T22:13:16.000Z</time>
        <extensions>
          <ns3:TrackPointExtension>
            <ns3:atemp>28.0</ns3:atemp>
            <ns3:hr>118</ns3:hr>
          </ns3:TrackPointExtension>
        </extensions>
      </trkpt>
      <trkpt lat="36.8096355535089969635009765625" lon="-118.41597097925841808319091796875">
        <ele>3376</ele>
        <time>2021-06-26T22:13:19.000Z</time>
        <extensions>
          <ns3:TrackPointExtension>
            <ns3:atemp>28.0</ns3:atemp>
            <ns3:hr>118</ns3:hr>
          </ns3:TrackPointExtension>
        </extensions>
      </trkpt>
      <trkpt lat="36.8096436001360416412353515625" lon="-118.4159309975802898406982421875">
        <ele>3376.60009765625</ele>
        <time>2021-06-26T22:13:23.000Z</time>
        <extensions>
          <ns3:TrackPointExtension>
            <ns3:atemp>28.0</ns3:atemp>
            <ns3:hr>119</ns3:hr>
          </ns3:TrackPointExtension>
        </extensions>
      </trkpt>
      <trkpt lat="36.80965592153370380401611328125" lon="-118.41590962372720241546630859375">
        <ele>3377</ele>
        <time>2021-06-26T22:13:29.000Z</time>
        <extensions>
          <ns3:TrackPointExtension>
            <ns3:atemp>28.0</ns3:atemp>
            <ns3:hr>120</ns3:hr>
          </ns3:TrackPointExtension>
        </extensions>
      </trkpt>
      <trkpt lat="36.80965810082852840423583984375" lon="-118.415908031165599822998046875">
        <ele>3377</ele>
        <time>2021-06-26T22:13:30.000Z</time>
        <extensions>
          <ns3:TrackPointExtension>
            <ns3:atemp>28.0</ns3:atemp>
            <ns3:hr>121</ns3:hr>
          </ns3:TrackPointExtension>
        </extensions>
      </trkpt>
      <trkpt lat="36.8096583522856235504150390625" lon="-118.415901325643062591552734375">
        <ele>3377</ele>
        <time>2021-06-26T22:13:35.000Z</time>
        <extensions>
          <ns3:TrackPointExtension>
            <ns3:atemp>28.0</ns3:atemp>
            <ns3:hr>118</ns3:hr>
          </ns3:TrackPointExtension>
        </extensions>
      </trkpt>
      <trkpt lat="36.80965625680983066558837890625" lon="-118.41590392403304576873779296875">
        <ele>3377</ele>
        <time>2021-06-26T22:13:38.000Z</time>
        <extensions>
          <ns3:TrackPointExtension>
            <ns3:atemp>28.0</ns3:atemp>
            <ns3:hr>115</ns3:hr>
          </ns3:TrackPointExtension>
        </extensions>
      </trkpt>
      <trkpt lat="36.80965625680983066558837890625" lon="-118.415905348956584930419921875">
        <ele>3377.39990234375</ele>
        <time>2021-06-26T22:13:50.000Z</time>
        <extensions>
          <ns3:TrackPointExtension>
            <ns3:atemp>28.0</ns3:atemp>
            <ns3:hr>111</ns3:hr>
          </ns3:TrackPointExtension>
        </extensions>
      </trkpt>
      <trkpt lat="36.80965541861951351165771484375" lon="-118.4159132279455661773681640625">
        <ele>3377.60009765625</ele>
        <time>2021-06-26T22:14:05.000Z</time>
        <extensions>
          <ns3:TrackPointExtension>
            <ns3:atemp>28.0</ns3:atemp>
            <ns3:hr>114</ns3:hr>
          </ns3:TrackPointExtension>
        </extensions>
      </trkpt>
      <trkpt lat="36.80965608917176723480224609375" lon="-118.41591565869748592376708984375">
        <ele>3378.199951171875</ele>
        <time>2021-06-26T22:14:11.000Z</time>
        <extensions>
          <ns3:TrackPointExtension>
            <ns3:atemp>28.0</ns3:atemp>
            <ns3:hr>115</ns3:hr>
          </ns3:TrackPointExtension>
        </extensions>
      </trkpt>
      <trkpt lat="36.809657849371433258056640625" lon="-118.4159189276397228240966796875">
        <ele>3379.199951171875</ele>
        <time>2021-06-26T22:14:19.000Z</time>
        <extensions>
          <ns3:TrackPointExtension>
            <ns3:atemp>28.0</ns3:atemp>
            <ns3:hr>113</ns3:hr>
          </ns3:TrackPointExtension>
        </extensions>
      </trkpt>
      <trkpt lat="36.80965910665690898895263671875" lon="-118.4159189276397228240966796875">
        <ele>3380.199951171875</ele>
        <time>2021-06-26T22:14:23.000Z</time>
        <extensions>
          <ns3:TrackPointExtension>
            <ns3:atemp>28.0</ns3:atemp>
            <ns3:hr>113</ns3:hr>
          </ns3:TrackPointExtension>
        </extensions>
      </trkpt>
      <trkpt lat="36.809673942625522613525390625" lon="-118.4159189276397228240966796875">
        <ele>3381.39990234375</ele>
        <time>2021-06-26T22:14:29.000Z</time>
        <extensions>
          <ns3:TrackPointExtension>
            <ns3:atemp>28.0</ns3:atemp>
            <ns3:hr>113</ns3:hr>
          </ns3:TrackPointExtension>
        </extensions>
      </trkpt>
      <trkpt lat="36.8096829950809478759765625" lon="-118.41591482050716876983642578125">
        <ele>3381.60009765625</ele>
        <time>2021-06-26T22:14:31.000Z</time>
        <extensions>
          <ns3:TrackPointExtension>
            <ns3:atemp>28.0</ns3:atemp>
            <ns3:hr>118</ns3:hr>
          </ns3:TrackPointExtension>
        </extensions>
      </trkpt>
      <trkpt lat="36.809684336185455322265625" lon="-118.41590409167110919952392578125">
        <ele>3382.199951171875</ele>
        <time>2021-06-26T22:14:33.000Z</time>
        <extensions>
          <ns3:TrackPointExtension>
            <ns3:atemp>28.0</ns3:atemp>
            <ns3:hr>122</ns3:hr>
          </ns3:TrackPointExtension>
        </extensions>
      </trkpt>
      <trkpt lat="36.8096744455397129058837890625" lon="-118.41587190516293048858642578125">
        <ele>3382.199951171875</ele>
        <time>2021-06-26T22:14:35.000Z</time>
        <extensions>
          <ns3:TrackPointExtension>
            <ns3:atemp>28.0</ns3:atemp>
            <ns3:hr>127</ns3:hr>
          </ns3:TrackPointExtension>
        </extensions>
      </trkpt>
      <trkpt lat="36.8096667341887950897216796875" lon="-118.41585271060466766357421875">
        <ele>3382.199951171875</ele>
        <time>2021-06-26T22:14:36.000Z</time>
        <extensions>
          <ns3:TrackPointExtension>
            <ns3:atemp>28.0</ns3:atemp>
            <ns3:hr>127</ns3:hr>
          </ns3:TrackPointExtension>
        </extensions>
      </trkpt>
      <trkpt lat="36.80964284576475620269775390625" lon="-118.4158002398908138275146484375">
        <ele>3382.39990234375</ele>
        <time>2021-06-26T22:14:39.000Z</time>
        <extensions>
          <ns3:TrackPointExtension>
            <ns3:atemp>28.0</ns3:atemp>
            <ns3:hr>127</ns3:hr>
          </ns3:TrackPointExtension>
        </extensions>
      </trkpt>
      <trkpt lat="36.80962189100682735443115234375" lon="-118.41576143167912960052490234375">
        <ele>3382.800048828125</ele>
        <time>2021-06-26T22:14:41.000Z</time>
        <extensions>
          <ns3:TrackPointExtension>
            <ns3:atemp>28.0</ns3:atemp>
            <ns3:hr>126</ns3:hr>
          </ns3:TrackPointExtension>
        </extensions>
      </trkpt>
      <trkpt lat="36.8095879442989826202392578125" lon="-118.41572572477161884307861328125">
        <ele>3382.800048828125</ele>
        <time>2021-06-26T22:14:45.000Z</time>
        <extensions>
          <ns3:TrackPointExtension>
            <ns3:atemp>28.0</ns3:atemp>
            <ns3:hr>130</ns3:hr>
          </ns3:TrackPointExtension>
        </extensions>
      </trkpt>
      <trkpt lat="36.8095741979777812957763671875" lon="-118.41571382246911525726318359375">
        <ele>3383.39990234375</ele>
        <time>2021-06-26T22:14:48.000Z</time>
        <extensions>
          <ns3:TrackPointExtension>
            <ns3:atemp>28.0</ns3:atemp>
            <ns3:hr>130</ns3:hr>
          </ns3:TrackPointExtension>
        </extensions>
      </trkpt>
      <trkpt lat="36.809574030339717864990234375" lon="-118.415700830519199371337890625">
        <ele>3384</ele>
        <time>2021-06-26T22:14:50.000Z</time>
        <extensions>
          <ns3:TrackPointExtension>
            <ns3:atemp>28.0</ns3:atemp>
            <ns3:hr>128</ns3:hr>
          </ns3:TrackPointExtension>
        </extensions>
      </trkpt>
      <trkpt lat="36.80955626070499420166015625" lon="-118.4156781993806362152099609375">
        <ele>3384.800048828125</ele>
        <time>2021-06-26T22:14:54.000Z</time>
        <extensions>
          <ns3:TrackPointExtension>
            <ns3:atemp>28.0</ns3:atemp>
            <ns3:hr>127</ns3:hr>
          </ns3:TrackPointExtension>
        </extensions>
      </trkpt>
      <trkpt lat="36.809532456099987030029296875" lon="-118.41567459516227245330810546875">
        <ele>3385</ele>
        <time>2021-06-26T22:14:57.000Z</time>
        <extensions>
          <ns3:TrackPointExtension>
            <ns3:atemp>28.0</ns3:atemp>
            <ns3:hr>127</ns3:hr>
          </ns3:TrackPointExtension>
        </extensions>
      </trkpt>
      <trkpt lat="36.80950907059013843536376953125" lon="-118.41566118411719799041748046875">
        <ele>3385.60009765625</ele>
        <time>2021-06-26T22:15:01.000Z</time>
        <extensions>
          <ns3:TrackPointExtension>
            <ns3:atemp>28.0</ns3:atemp>
            <ns3:hr>126</ns3:hr>
          </ns3:TrackPointExtension>
        </extensions>
      </trkpt>
      <trkpt lat="36.80948124267160892486572265625" lon="-118.41565313749015331268310546875">
        <ele>3386</ele>
        <time>2021-06-26T22:15:04.000Z</time>
        <extensions>
          <ns3:TrackPointExtension>
            <ns3:atemp>28.0</ns3:atemp>
            <ns3:hr>126</ns3:hr>
          </ns3:TrackPointExtension>
        </extensions>
      </trkpt>
      <trkpt lat="36.80947638116776943206787109375" lon="-118.415635116398334503173828125">
        <ele>3386.800048828125</ele>
        <time>2021-06-26T22:15:09.000Z</time>
        <extensions>
          <ns3:TrackPointExtension>
            <ns3:atemp>28.0</ns3:atemp>
            <ns3:hr>124</ns3:hr>
          </ns3:TrackPointExtension>
        </extensions>
      </trkpt>
      <trkpt lat="36.80946682579815387725830078125" lon="-118.41566034592688083648681640625">
        <ele>3386.60009765625</ele>
        <time>2021-06-26T22:15:13.000Z</time>
        <extensions>
          <ns3:TrackPointExtension>
            <ns3:atemp>28.0</ns3:atemp>
            <ns3:hr>121</ns3:hr>
          </ns3:TrackPointExtension>
        </extensions>
      </trkpt>
      <trkpt lat="36.80946364067494869232177734375" lon="-118.41568063013255596160888671875">
        <ele>3386.60009765625</ele>
        <time>2021-06-26T22:15:15.000Z</time>
        <extensions>
          <ns3:TrackPointExtension>
            <ns3:atemp>27.0</ns3:atemp>
            <ns3:hr>120</ns3:hr>
          </ns3:TrackPointExtension>
        </extensions>
      </trkpt>
      <trkpt lat="36.80947504006326198577880859375" lon="-118.41569202952086925506591796875">
        <ele>3387</ele>
        <time>2021-06-26T22:15:23.000Z</time>
        <extensions>
          <ns3:TrackPointExtension>
            <ns3:atemp>27.0</ns3:atemp>
            <ns3:hr>118</ns3:hr>
          </ns3:TrackPointExtension>
        </extensions>
      </trkpt>
      <trkpt lat="36.80947504006326198577880859375" lon="-118.41569202952086925506591796875">
        <ele>3387.199951171875</ele>
        <time>2021-06-26T22:15:25.000Z</time>
        <extensions>
          <ns3:TrackPointExtension>
            <ns3:atemp>27.0</ns3:atemp>
            <ns3:hr>117</ns3:hr>
          </ns3:TrackPointExtension>
        </extensions>
      </trkpt>
      <trkpt lat="36.80947504006326198577880859375" lon="-118.41569202952086925506591796875">
        <ele>3386.800048828125</ele>
        <time>2021-06-26T22:15:31.000Z</time>
        <extensions>
          <ns3:TrackPointExtension>
            <ns3:atemp>27.0</ns3:atemp>
            <ns3:hr>114</ns3:hr>
          </ns3:TrackPointExtension>
        </extensions>
      </trkpt>
      <trkpt lat="36.80947872810065746307373046875" lon="-118.4156926162540912628173828125">
        <ele>3387.39990234375</ele>
        <time>2021-06-26T22:15:51.000Z</time>
        <extensions>
          <ns3:TrackPointExtension>
            <ns3:atemp>27.0</ns3:atemp>
            <ns3:hr>114</ns3:hr>
          </ns3:TrackPointExtension>
        </extensions>
      </trkpt>
      <trkpt lat="36.8094702623784542083740234375" lon="-118.41569253243505954742431640625">
        <ele>3387.39990234375</ele>
        <time>2021-06-26T22:15:58.000Z</time>
        <extensions>
          <ns3:TrackPointExtension>
            <ns3:atemp>27.0</ns3:atemp>
            <ns3:hr>111</ns3:hr>
          </ns3:TrackPointExtension>
        </extensions>
      </trkpt>
      <trkpt lat="36.8094702623784542083740234375" lon="-118.41569286771118640899658203125">
        <ele>3387.199951171875</ele>
        <time>2021-06-26T22:16:00.000Z</time>
        <extensions>
          <ns3:TrackPointExtension>
            <ns3:atemp>27.0</ns3:atemp>
            <ns3:hr>108</ns3:hr>
          </ns3:TrackPointExtension>
        </extensions>
      </trkpt>
      <trkpt lat="36.8094702623784542083740234375" lon="-118.41569605283439159393310546875">
        <ele>3387.39990234375</ele>
        <time>2021-06-26T22:16:05.000Z</time>
        <extensions>
          <ns3:TrackPointExtension>
            <ns3:atemp>27.0</ns3:atemp>
            <ns3:hr>105</ns3:hr>
          </ns3:TrackPointExtension>
        </extensions>
      </trkpt>
      <trkpt lat="36.80947177112102508544921875" lon="-118.41570627875626087188720703125">
        <ele>3387.199951171875</ele>
        <time>2021-06-26T22:16:15.000Z</time>
        <extensions>
          <ns3:TrackPointExtension>
            <ns3:atemp>27.0</ns3:atemp>
            <ns3:hr>100</ns3:hr>
          </ns3:TrackPointExtension>
        </extensions>
      </trkpt>
      <trkpt lat="36.80947269313037395477294921875" lon="-118.4157103858888149261474609375">
        <ele>3387.199951171875</ele>
        <time>2021-06-26T22:16:18.000Z</time>
        <extensions>
          <ns3:TrackPointExtension>
            <ns3:atemp>27.0</ns3:atemp>
            <ns3:hr>97</ns3:hr>
          </ns3:TrackPointExtension>
        </extensions>
      </trkpt>
      <trkpt lat="36.80950739420950412750244140625" lon="-118.4156463481485843658447265625">
        <ele>3387.199951171875</ele>
        <time>2021-06-26T22:16:54.000Z</time>
        <extensions>
          <ns3:TrackPointExtension>
            <ns3:atemp>27.0</ns3:atemp>
            <ns3:hr>94</ns3:hr>
          </ns3:TrackPointExtension>
        </extensions>
      </trkpt>
      <trkpt lat="36.80951963178813457489013671875" lon="-118.4156272374093532562255859375">
        <ele>3387.199951171875</ele>
        <time>2021-06-26T22:16:55.000Z</time>
        <extensions>
          <ns3:TrackPointExtension>
            <ns3:atemp>27.0</ns3:atemp>
            <ns3:hr>94</ns3:hr>
          </ns3:TrackPointExtension>
        </extensions>
      </trkpt>
      <trkpt lat="36.80961904115974903106689453125" lon="-118.41550997458398342132568359375">
        <ele>3387.199951171875</ele>
        <time>2021-06-26T22:17:07.000Z</time>
        <extensions>
          <ns3:TrackPointExtension>
            <ns3:atemp>27.0</ns3:atemp>
            <ns3:hr>98</ns3:hr>
          </ns3:TrackPointExtension>
        </extensions>
      </trkpt>
      <trkpt lat="36.80962272919714450836181640625" lon="-118.4154998324811458587646484375">
        <ele>3387.199951171875</ele>
        <time>2021-06-26T22:17:08.000Z</time>
        <extensions>
          <ns3:TrackPointExtension>
            <ns3:atemp>27.0</ns3:atemp>
            <ns3:hr>101</ns3:hr>
          </ns3:TrackPointExtension>
        </extensions>
      </trkpt>
      <trkpt lat="36.8096266686916351318359375" lon="-118.41549069620668888092041015625">
        <ele>3387.199951171875</ele>
        <time>2021-06-26T22:17:09.000Z</time>
        <extensions>
          <ns3:TrackPointExtension>
            <ns3:atemp>27.0</ns3:atemp>
            <ns3:hr>104</ns3:hr>
          </ns3:TrackPointExtension>
        </extensions>
      </trkpt>
      <trkpt lat="36.80963312275707721710205078125" lon="-118.41547041200101375579833984375">
        <ele>3387.199951171875</ele>
        <time>2021-06-26T22:17:11.000Z</time>
        <extensions>
          <ns3:TrackPointExtension>
            <ns3:atemp>27.0</ns3:atemp>
            <ns3:hr>108</ns3:hr>
          </ns3:TrackPointExtension>
        </extensions>
      </trkpt>
      <trkpt lat="36.8096328712999820709228515625" lon="-118.4154522232711315155029296875">
        <ele>3387.199951171875</ele>
        <time>2021-06-26T22:17:13.000Z</time>
        <extensions>
          <ns3:TrackPointExtension>
            <ns3:atemp>27.0</ns3:atemp>
            <ns3:hr>112</ns3:hr>
          </ns3:TrackPointExtension>
        </extensions>
      </trkpt>
      <trkpt lat="36.80963194929063320159912109375" lon="-118.4154408238828182220458984375">
        <ele>3387.199951171875</ele>
        <time>2021-06-26T22:17:14.000Z</time>
        <extensions>
          <ns3:TrackPointExtension>
            <ns3:atemp>27.0</ns3:atemp>
            <ns3:hr>115</ns3:hr>
          </ns3:TrackPointExtension>
        </extensions>
      </trkpt>
      <trkpt lat="36.809634380042552947998046875" lon="-118.41542062349617481231689453125">
        <ele>3387.199951171875</ele>
        <time>2021-06-26T22:17:16.000Z</time>
        <extensions>
          <ns3:TrackPointExtension>
            <ns3:atemp>27.0</ns3:atemp>
            <ns3:hr>120</ns3:hr>
          </ns3:TrackPointExtension>
        </extensions>
      </trkpt>
      <trkpt lat="36.8096375651657581329345703125" lon="-118.41540218330919742584228515625">
        <ele>3387.199951171875</ele>
        <time>2021-06-26T22:17:18.000Z</time>
        <extensions>
          <ns3:TrackPointExtension>
            <ns3:atemp>27.0</ns3:atemp>
            <ns3:hr>123</ns3:hr>
          </ns3:TrackPointExtension>
        </extensions>
      </trkpt>
      <trkpt lat="36.80964083410799503326416015625" lon="-118.41538441367447376251220703125">
        <ele>3387.199951171875</ele>
        <time>2021-06-26T22:17:20.000Z</time>
        <extensions>
          <ns3:TrackPointExtension>
            <ns3:atemp>27.0</ns3:atemp>
            <ns3:hr>126</ns3:hr>
          </ns3:TrackPointExtension>
        </extensions>
      </trkpt>
      <trkpt lat="36.80964234285056591033935546875" lon="-118.4153653867542743682861328125">
        <ele>3387.199951171875</ele>
        <time>2021-06-26T22:17:22.000Z</time>
        <extensions>
          <ns3:TrackPointExtension>
            <ns3:atemp>27.0</ns3:atemp>
            <ns3:hr>129</ns3:hr>
          </ns3:TrackPointExtension>
        </extensions>
      </trkpt>
      <trkpt lat="36.8096387386322021484375" lon="-118.4153335355222225189208984375">
        <ele>3387.199951171875</ele>
        <time>2021-06-26T22:17:25.000Z</time>
        <extensions>
          <ns3:TrackPointExtension>
            <ns3:atemp>27.0</ns3:atemp>
            <ns3:hr>132</ns3:hr>
          </ns3:TrackPointExtension>
        </extensions>
      </trkpt>
      <trkpt lat="36.80963295511901378631591796875" lon="-118.4152592718601226806640625">
        <ele>3387.199951171875</ele>
        <time>2021-06-26T22:17:33.000Z</time>
        <extensions>
          <ns3:TrackPointExtension>
            <ns3:atemp>27.0</ns3:atemp>
            <ns3:hr>134</ns3:hr>
          </ns3:TrackPointExtension>
        </extensions>
      </trkpt>
      <trkpt lat="36.80962557904422283172607421875" lon="-118.41523923911154270172119140625">
        <ele>3395.39990234375</ele>
        <time>2021-06-26T22:17:36.000Z</time>
        <extensions>
          <ns3:TrackPointExtension>
            <ns3:atemp>27.0</ns3:atemp>
            <ns3:hr>134</ns3:hr>
          </ns3:TrackPointExtension>
        </extensions>
      </trkpt>
      <trkpt lat="36.80961468257009983062744140625" lon="-118.4152071364223957061767578125">
        <ele>3395.39990234375</ele>
        <time>2021-06-26T22:17:40.000Z</time>
        <extensions>
          <ns3:TrackPointExtension>
            <ns3:atemp>27.0</ns3:atemp>
            <ns3:hr>132</ns3:hr>
          </ns3:TrackPointExtension>
        </extensions>
      </trkpt>
      <trkpt lat="36.80960898287594318389892578125" lon="-118.41518995352089405059814453125">
        <ele>3396.39990234375</ele>
        <time>2021-06-26T22:17:42.000Z</time>
        <extensions>
          <ns3:TrackPointExtension>
            <ns3:atemp>27.0</ns3:atemp>
            <ns3:hr>131</ns3:hr>
          </ns3:TrackPointExtension>
        </extensions>
      </trkpt>
      <trkpt lat="36.80960454046726226806640625" lon="-118.41518609784543514251708984375">
        <ele>3396.39990234375</ele>
        <time>2021-06-26T22:17:43.000Z</time>
        <extensions>
          <ns3:TrackPointExtension>
            <ns3:atemp>27.0</ns3:atemp>
            <ns3:hr>131</ns3:hr>
          </ns3:TrackPointExtension>
        </extensions>
      </trkpt>
      <trkpt lat="36.80958568118512630462646484375" lon="-118.415169082581996917724609375">
        <ele>3396.39990234375</ele>
        <time>2021-06-26T22:17:46.000Z</time>
        <extensions>
          <ns3:TrackPointExtension>
            <ns3:atemp>27.0</ns3:atemp>
            <ns3:hr>134</ns3:hr>
          </ns3:TrackPointExtension>
        </extensions>
      </trkpt>
      <trkpt lat="36.809568665921688079833984375" lon="-118.41514997184276580810546875">
        <ele>3396.800048828125</ele>
        <time>2021-06-26T22:17:49.000Z</time>
        <extensions>
          <ns3:TrackPointExtension>
            <ns3:atemp>27.0</ns3:atemp>
            <ns3:hr>133</ns3:hr>
          </ns3:TrackPointExtension>
        </extensions>
      </trkpt>
      <trkpt lat="36.80956439115107059478759765625" lon="-118.4151434339582920074462890625">
        <ele>3396.800048828125</ele>
        <time>2021-06-26T22:17:50.000Z</time>
        <extensions>
          <ns3:TrackPointExtension>
            <ns3:atemp>27.0</ns3:atemp>
            <ns3:hr>133</ns3:hr>
          </ns3:TrackPointExtension>
        </extensions>
      </trkpt>
      <trkpt lat="36.80955894291400909423828125" lon="-118.41513262130320072174072265625">
        <ele>3396.800048828125</ele>
        <time>2021-06-26T22:17:52.000Z</time>
        <extensions>
          <ns3:TrackPointExtension>
            <ns3:atemp>27.0</ns3:atemp>
            <ns3:hr>130</ns3:hr>
          </ns3:TrackPointExtension>
        </extensions>
      </trkpt>
      <trkpt lat="36.80955760180950164794921875" lon="-118.4151290170848369598388671875">
        <ele>3396.800048828125</ele>
        <time>2021-06-26T22:17:53.000Z</time>
        <extensions>
          <ns3:TrackPointExtension>
            <ns3:atemp>27.0</ns3:atemp>
            <ns3:hr>130</ns3:hr>
          </ns3:TrackPointExtension>
        </extensions>
      </trkpt>
      <trkpt lat="36.8095530755817890167236328125" lon="-118.415115438401699066162109375">
        <ele>3397.39990234375</ele>
        <time>2021-06-26T22:17:55.000Z</time>
        <extensions>
          <ns3:TrackPointExtension>
            <ns3:atemp>27.0</ns3:atemp>
            <ns3:hr>128</ns3:hr>
          </ns3:TrackPointExtension>
        </extensions>
      </trkpt>
      <trkpt lat="36.80955282412469387054443359375" lon="-118.4151092357933521270751953125">
        <ele>3397.60009765625</ele>
        <time>2021-06-26T22:17:56.000Z</time>
        <extensions>
          <ns3:TrackPointExtension>
            <ns3:atemp>27.0</ns3:atemp>
            <ns3:hr>126</ns3:hr>
          </ns3:TrackPointExtension>
        </extensions>
      </trkpt>
      <trkpt lat="36.80954930372536182403564453125" lon="-118.41509364545345306396484375">
        <ele>3397.800048828125</ele>
        <time>2021-06-26T22:17:59.000Z</time>
        <extensions>
          <ns3:TrackPointExtension>
            <ns3:atemp>27.0</ns3:atemp>
            <ns3:hr>122</ns3:hr>
          </ns3:TrackPointExtension>
        </extensions>
      </trkpt>
      <trkpt lat="36.80953270755708217620849609375" lon="-118.4150753729045391082763671875">
        <ele>3398</ele>
        <time>2021-06-26T22:18:02.000Z</time>
        <extensions>
          <ns3:TrackPointExtension>
            <ns3:atemp>27.0</ns3:atemp>
            <ns3:hr>119</ns3:hr>
          </ns3:TrackPointExtension>
        </extensions>
      </trkpt>
      <trkpt lat="36.80952751077711582183837890625" lon="-118.41506958939135074615478515625">
        <ele>3398.800048828125</ele>
        <time>2021-06-26T22:18:03.000Z</time>
        <extensions>
          <ns3:TrackPointExtension>
            <ns3:atemp>27.0</ns3:atemp>
            <ns3:hr>119</ns3:hr>
          </ns3:TrackPointExtension>
        </extensions>
      </trkpt>
      <trkpt lat="36.809520721435546875" lon="-118.4150663204491138458251953125">
        <ele>3398.800048828125</ele>
        <time>2021-06-26T22:18:04.000Z</time>
        <extensions>
          <ns3:TrackPointExtension>
            <ns3:atemp>27.0</ns3:atemp>
            <ns3:hr>118</ns3:hr>
          </ns3:TrackPointExtension>
        </extensions>
      </trkpt>
      <trkpt lat="36.80950840003788471221923828125" lon="-118.41505609452724456787109375">
        <ele>3398.800048828125</ele>
        <time>2021-06-26T22:18:06.000Z</time>
        <extensions>
          <ns3:TrackPointExtension>
            <ns3:atemp>28.0</ns3:atemp>
            <ns3:hr>117</ns3:hr>
          </ns3:TrackPointExtension>
        </extensions>
      </trkpt>
      <trkpt lat="36.8094635568559169769287109375" lon="-118.41503455303609371185302734375">
        <ele>3399.199951171875</ele>
        <time>2021-06-26T22:18:12.000Z</time>
        <extensions>
          <ns3:TrackPointExtension>
            <ns3:atemp>28.0</ns3:atemp>
            <ns3:hr>116</ns3:hr>
          </ns3:TrackPointExtension>
        </extensions>
      </trkpt>
      <trkpt lat="36.8094350583851337432861328125" lon="-118.4149932302534580230712890625">
        <ele>3399.60009765625</ele>
        <time>2021-06-26T22:18:18.000Z</time>
        <extensions>
          <ns3:TrackPointExtension>
            <ns3:atemp>28.0</ns3:atemp>
            <ns3:hr>114</ns3:hr>
          </ns3:TrackPointExtension>
        </extensions>
      </trkpt>
      <trkpt lat="36.80942558683454990386962890625" lon="-118.41498509980738162994384765625">
        <ele>3399.800048828125</ele>
        <time>2021-06-26T22:18:19.000Z</time>
        <extensions>
          <ns3:TrackPointExtension>
            <ns3:atemp>28.0</ns3:atemp>
            <ns3:hr>114</ns3:hr>
          </ns3:TrackPointExtension>
        </extensions>
      </trkpt>
      <trkpt lat="36.80937462486326694488525390625" lon="-118.41494570486247539520263671875">
        <ele>3400.39990234375</ele>
        <time>2021-06-26T22:18:24.000Z</time>
        <extensions>
          <ns3:TrackPointExtension>
            <ns3:atemp>28.0</ns3:atemp>
            <ns3:hr>117</ns3:hr>
          </ns3:TrackPointExtension>
        </extensions>
      </trkpt>
      <trkpt lat="36.80935232900083065032958984375" lon="-118.414941765367984771728515625">
        <ele>3400.800048828125</ele>
        <time>2021-06-26T22:18:26.000Z</time>
        <extensions>
          <ns3:TrackPointExtension>
            <ns3:atemp>28.0</ns3:atemp>
            <ns3:hr>120</ns3:hr>
          </ns3:TrackPointExtension>
        </extensions>
      </trkpt>
      <trkpt lat="36.809321902692317962646484375" lon="-118.41493531130254268646240234375">
        <ele>3400.800048828125</ele>
        <time>2021-06-26T22:18:28.000Z</time>
        <extensions>
          <ns3:TrackPointExtension>
            <ns3:atemp>28.0</ns3:atemp>
            <ns3:hr>123</ns3:hr>
          </ns3:TrackPointExtension>
        </extensions>
      </trkpt>
      <trkpt lat="36.8092986010015010833740234375" lon="-118.414938747882843017578125">
        <ele>3401.199951171875</ele>
        <time>2021-06-26T22:18:30.000Z</time>
        <extensions>
          <ns3:TrackPointExtension>
            <ns3:atemp>28.0</ns3:atemp>
            <ns3:hr>125</ns3:hr>
          </ns3:TrackPointExtension>
        </extensions>
      </trkpt>
      <trkpt lat="36.809274964034557342529296875" lon="-118.4149355627596378326416015625">
        <ele>3401.39990234375</ele>
        <time>2021-06-26T22:18:34.000Z</time>
        <extensions>
          <ns3:TrackPointExtension>
            <ns3:atemp>28.0</ns3:atemp>
            <ns3:hr>125</ns3:hr>
          </ns3:TrackPointExtension>
        </extensions>
      </trkpt>
      <trkpt lat="36.80927739478647708892822265625" lon="-118.41495006345212459564208984375">
        <ele>3402</ele>
        <time>2021-06-26T22:18:36.000Z</time>
        <extensions>
          <ns3:TrackPointExtension>
            <ns3:atemp>28.0</ns3:atemp>
            <ns3:hr>126</ns3:hr>
          </ns3:TrackPointExtension>
        </extensions>
      </trkpt>
      <trkpt lat="36.80930488742887973785400390625" lon="-118.41497235931456089019775390625">
        <ele>3401.60009765625</ele>
        <time>2021-06-26T22:18:41.000Z</time>
        <extensions>
          <ns3:TrackPointExtension>
            <ns3:atemp>28.0</ns3:atemp>
            <ns3:hr>123</ns3:hr>
          </ns3:TrackPointExtension>
        </extensions>
      </trkpt>
      <trkpt lat="36.8093155324459075927734375" lon="-118.4149838425219058990478515625">
        <ele>3401.60009765625</ele>
        <time>2021-06-26T22:18:50.000Z</time>
        <extensions>
          <ns3:TrackPointExtension>
            <ns3:atemp>28.0</ns3:atemp>
            <ns3:hr>120</ns3:hr>
          </ns3:TrackPointExtension>
        </extensions>
      </trkpt>
      <trkpt lat="36.8093155324459075927734375" lon="-118.4149838425219058990478515625">
        <ele>3401.60009765625</ele>
        <time>2021-06-26T22:18:55.000Z</time>
        <extensions>
          <ns3:TrackPointExtension>
            <ns3:atemp>28.0</ns3:atemp>
            <ns3:hr>117</ns3:hr>
          </ns3:TrackPointExtension>
        </extensions>
      </trkpt>
      <trkpt lat="36.8093155324459075927734375" lon="-118.4149838425219058990478515625">
        <ele>3401.60009765625</ele>
        <time>2021-06-26T22:18:57.000Z</time>
        <extensions>
          <ns3:TrackPointExtension>
            <ns3:atemp>28.0</ns3:atemp>
            <ns3:hr>115</ns3:hr>
          </ns3:TrackPointExtension>
        </extensions>
      </trkpt>
      <trkpt lat="36.80931310169398784637451171875" lon="-118.4150016121566295623779296875">
        <ele>3402</ele>
        <time>2021-06-26T22:19:07.000Z</time>
        <extensions>
          <ns3:TrackPointExtension>
            <ns3:atemp>28.0</ns3:atemp>
            <ns3:hr>112</ns3:hr>
          </ns3:TrackPointExtension>
        </extensions>
      </trkpt>
      <trkpt lat="36.80931310169398784637451171875" lon="-118.415004126727581024169921875">
        <ele>3402.199951171875</ele>
        <time>2021-06-26T22:19:10.000Z</time>
        <extensions>
          <ns3:TrackPointExtension>
            <ns3:atemp>28.0</ns3:atemp>
            <ns3:hr>109</ns3:hr>
          </ns3:TrackPointExtension>
        </extensions>
      </trkpt>
      <trkpt lat="36.8092905543744564056396484375" lon="-118.415010832250118255615234375">
        <ele>3402.199951171875</ele>
        <time>2021-06-26T22:19:25.000Z</time>
        <extensions>
          <ns3:TrackPointExtension>
            <ns3:atemp>28.0</ns3:atemp>
            <ns3:hr>106</ns3:hr>
          </ns3:TrackPointExtension>
        </extensions>
      </trkpt>
      <trkpt lat="36.8092888779938220977783203125" lon="-118.415010832250118255615234375">
        <ele>3402.199951171875</ele>
        <time>2021-06-26T22:19:27.000Z</time>
        <extensions>
          <ns3:TrackPointExtension>
            <ns3:atemp>28.0</ns3:atemp>
            <ns3:hr>103</ns3:hr>
          </ns3:TrackPointExtension>
        </extensions>
      </trkpt>
      <trkpt lat="36.80928745307028293609619140625" lon="-118.41501091606914997100830078125">
        <ele>3402</ele>
        <time>2021-06-26T22:19:30.000Z</time>
        <extensions>
          <ns3:TrackPointExtension>
            <ns3:atemp>28.0</ns3:atemp>
            <ns3:hr>100</ns3:hr>
          </ns3:TrackPointExtension>
        </extensions>
      </trkpt>
      <trkpt lat="36.80928259156644344329833984375" lon="-118.41501158662140369415283203125">
        <ele>3402.39990234375</ele>
        <time>2021-06-26T22:19:36.000Z</time>
        <extensions>
          <ns3:TrackPointExtension>
            <ns3:atemp>28.0</ns3:atemp>
            <ns3:hr>97</ns3:hr>
          </ns3:TrackPointExtension>
        </extensions>
      </trkpt>
      <trkpt lat="36.80927756242454051971435546875" lon="-118.41501091606914997100830078125">
        <ele>3402.60009765625</ele>
        <time>2021-06-26T22:19:40.000Z</time>
        <extensions>
          <ns3:TrackPointExtension>
            <ns3:atemp>28.0</ns3:atemp>
            <ns3:hr>94</ns3:hr>
          </ns3:TrackPointExtension>
        </extensions>
      </trkpt>
      <trkpt lat="36.80927596986293792724609375" lon="-118.41501024551689624786376953125">
        <ele>3403</ele>
        <time>2021-06-26T22:19:45.000Z</time>
        <extensions>
          <ns3:TrackPointExtension>
            <ns3:atemp>28.0</ns3:atemp>
            <ns3:hr>93</ns3:hr>
          </ns3:TrackPointExtension>
        </extensions>
      </trkpt>
      <trkpt lat="36.8092737905681133270263671875" lon="-118.41500923968851566314697265625">
        <ele>3402.800048828125</ele>
        <time>2021-06-26T22:19:52.000Z</time>
        <extensions>
          <ns3:TrackPointExtension>
            <ns3:atemp>28.0</ns3:atemp>
            <ns3:hr>92</ns3:hr>
          </ns3:TrackPointExtension>
        </extensions>
      </trkpt>
      <trkpt lat="36.809252835810184478759765625" lon="-118.4150063060224056243896484375">
        <ele>3402.800048828125</ele>
        <time>2021-06-26T22:19:58.000Z</time>
        <extensions>
          <ns3:TrackPointExtension>
            <ns3:atemp>28.0</ns3:atemp>
            <ns3:hr>95</ns3:hr>
          </ns3:TrackPointExtension>
        </extensions>
      </trkpt>
      <trkpt lat="36.8092516623437404632568359375" lon="-118.41500488109886646270751953125">
        <ele>3403</ele>
        <time>2021-06-26T22:20:03.000Z</time>
        <extensions>
          <ns3:TrackPointExtension>
            <ns3:atemp>28.0</ns3:atemp>
            <ns3:hr>98</ns3:hr>
          </ns3:TrackPointExtension>
        </extensions>
      </trkpt>
      <trkpt lat="36.8092503212392330169677734375" lon="-118.41500370763242244720458984375">
        <ele>3404</ele>
        <time>2021-06-26T22:20:07.000Z</time>
        <extensions>
          <ns3:TrackPointExtension>
            <ns3:atemp>28.0</ns3:atemp>
            <ns3:hr>98</ns3:hr>
          </ns3:TrackPointExtension>
        </extensions>
      </trkpt>
      <trkpt lat="36.8092446215450763702392578125" lon="-118.41499230824410915374755859375">
        <ele>3405.199951171875</ele>
        <time>2021-06-26T22:20:15.000Z</time>
        <extensions>
          <ns3:TrackPointExtension>
            <ns3:atemp>28.0</ns3:atemp>
            <ns3:hr>101</ns3:hr>
          </ns3:TrackPointExtension>
        </extensions>
      </trkpt>
      <trkpt lat="36.80924168787896633148193359375" lon="-118.4149540029466152191162109375">
        <ele>3405.39990234375</ele>
        <time>2021-06-26T22:20:17.000Z</time>
        <extensions>
          <ns3:TrackPointExtension>
            <ns3:atemp>28.0</ns3:atemp>
            <ns3:hr>104</ns3:hr>
          </ns3:TrackPointExtension>
        </extensions>
      </trkpt>
      <trkpt lat="36.80923615582287311553955078125" lon="-118.41489826329052448272705078125">
        <ele>3406.39990234375</ele>
        <time>2021-06-26T22:20:20.000Z</time>
        <extensions>
          <ns3:TrackPointExtension>
            <ns3:atemp>28.0</ns3:atemp>
            <ns3:hr>108</ns3:hr>
          </ns3:TrackPointExtension>
        </extensions>
      </trkpt>
      <trkpt lat="36.80923297069966793060302734375" lon="-118.414882086217403411865234375">
        <ele>3406.60009765625</ele>
        <time>2021-06-26T22:20:21.000Z</time>
        <extensions>
          <ns3:TrackPointExtension>
            <ns3:atemp>28.0</ns3:atemp>
            <ns3:hr>108</ns3:hr>
          </ns3:TrackPointExtension>
        </extensions>
      </trkpt>
      <trkpt lat="36.8092174641788005828857421875" lon="-118.41483690775930881500244140625">
        <ele>3406.60009765625</ele>
        <time>2021-06-26T22:20:24.000Z</time>
        <extensions>
          <ns3:TrackPointExtension>
            <ns3:atemp>28.0</ns3:atemp>
            <ns3:hr>111</ns3:hr>
          </ns3:TrackPointExtension>
        </extensions>
      </trkpt>
      <trkpt lat="36.80921201594173908233642578125" lon="-118.41483414173126220703125">
        <ele>3407</ele>
        <time>2021-06-26T22:20:25.000Z</time>
        <extensions>
          <ns3:TrackPointExtension>
            <ns3:atemp>28.0</ns3:atemp>
            <ns3:hr>112</ns3:hr>
          </ns3:TrackPointExtension>
        </extensions>
      </trkpt>
      <trkpt lat="36.80920581333339214324951171875" lon="-118.41483271680772304534912109375">
        <ele>3407.39990234375</ele>
        <time>2021-06-26T22:20:26.000Z</time>
        <extensions>
          <ns3:TrackPointExtension>
            <ns3:atemp>28.0</ns3:atemp>
            <ns3:hr>112</ns3:hr>
          </ns3:TrackPointExtension>
        </extensions>
      </trkpt>
      <trkpt lat="36.809188462793827056884765625" lon="-118.414829112589359283447265625">
        <ele>3407.800048828125</ele>
        <time>2021-06-26T22:20:28.000Z</time>
        <extensions>
          <ns3:TrackPointExtension>
            <ns3:atemp>28.0</ns3:atemp>
            <ns3:hr>112</ns3:hr>
          </ns3:TrackPointExtension>
        </extensions>
      </trkpt>
      <trkpt lat="36.80917530320584774017333984375" lon="-118.41483405791223049163818359375">
        <ele>3407.800048828125</ele>
        <time>2021-06-26T22:20:30.000Z</time>
        <extensions>
          <ns3:TrackPointExtension>
            <ns3:atemp>28.0</ns3:atemp>
            <ns3:hr>113</ns3:hr>
          </ns3:TrackPointExtension>
        </extensions>
      </trkpt>
      <trkpt lat="36.80914588272571563720703125" lon="-118.4148167073726654052734375">
        <ele>3408.60009765625</ele>
        <time>2021-06-26T22:20:35.000Z</time>
        <extensions>
          <ns3:TrackPointExtension>
            <ns3:atemp>28.0</ns3:atemp>
            <ns3:hr>114</ns3:hr>
          </ns3:TrackPointExtension>
        </extensions>
      </trkpt>
      <trkpt lat="36.80914345197379589080810546875" lon="-118.4148113429546356201171875">
        <ele>3408.800048828125</ele>
        <time>2021-06-26T22:20:36.000Z</time>
        <extensions>
          <ns3:TrackPointExtension>
            <ns3:atemp>28.0</ns3:atemp>
            <ns3:hr>114</ns3:hr>
          </ns3:TrackPointExtension>
        </extensions>
      </trkpt>
      <trkpt lat="36.80913087911903858184814453125" lon="-118.41479214839637279510498046875">
        <ele>3410</ele>
        <time>2021-06-26T22:20:39.000Z</time>
        <extensions>
          <ns3:TrackPointExtension>
            <ns3:atemp>28.0</ns3:atemp>
            <ns3:hr>115</ns3:hr>
          </ns3:TrackPointExtension>
        </extensions>
      </trkpt>
      <trkpt lat="36.8090813420712947845458984375" lon="-118.41478787362575531005859375">
        <ele>3410.60009765625</ele>
        <time>2021-06-26T22:20:46.000Z</time>
        <extensions>
          <ns3:TrackPointExtension>
            <ns3:atemp>28.0</ns3:atemp>
            <ns3:hr>118</ns3:hr>
          </ns3:TrackPointExtension>
        </extensions>
      </trkpt>
      <trkpt lat="36.8090618960559368133544921875" lon="-118.41477924026548862457275390625">
        <ele>3411</ele>
        <time>2021-06-26T22:20:49.000Z</time>
        <extensions>
          <ns3:TrackPointExtension>
            <ns3:atemp>28.0</ns3:atemp>
            <ns3:hr>119</ns3:hr>
          </ns3:TrackPointExtension>
        </extensions>
      </trkpt>
      <trkpt lat="36.8090551905333995819091796875" lon="-118.41477639041841030120849609375">
        <ele>3411.39990234375</ele>
        <time>2021-06-26T22:20:50.000Z</time>
        <extensions>
          <ns3:TrackPointExtension>
            <ns3:atemp>28.0</ns3:atemp>
            <ns3:hr>118</ns3:hr>
          </ns3:TrackPointExtension>
        </extensions>
      </trkpt>
      <trkpt lat="36.80903918109834194183349609375" lon="-118.4147726185619831085205078125">
        <ele>3411.60009765625</ele>
        <time>2021-06-26T22:20:52.000Z</time>
        <extensions>
          <ns3:TrackPointExtension>
            <ns3:atemp>28.0</ns3:atemp>
            <ns3:hr>117</ns3:hr>
          </ns3:TrackPointExtension>
        </extensions>
      </trkpt>
      <trkpt lat="36.8090273626148700714111328125" lon="-118.414765410125255584716796875">
        <ele>3411.60009765625</ele>
        <time>2021-06-26T22:20:54.000Z</time>
        <extensions>
          <ns3:TrackPointExtension>
            <ns3:atemp>28.0</ns3:atemp>
            <ns3:hr>115</ns3:hr>
          </ns3:TrackPointExtension>
        </extensions>
      </trkpt>
      <trkpt lat="36.80901956744492053985595703125" lon="-118.41476147063076496124267578125">
        <ele>3411.800048828125</ele>
        <time>2021-06-26T22:20:56.000Z</time>
        <extensions>
          <ns3:TrackPointExtension>
            <ns3:atemp>28.0</ns3:atemp>
            <ns3:hr>113</ns3:hr>
          </ns3:TrackPointExtension>
        </extensions>
      </trkpt>
      <trkpt lat="36.80902183055877685546875" lon="-118.41475971043109893798828125">
        <ele>3412</ele>
        <time>2021-06-26T22:20:58.000Z</time>
        <extensions>
          <ns3:TrackPointExtension>
            <ns3:atemp>28.0</ns3:atemp>
            <ns3:hr>112</ns3:hr>
          </ns3:TrackPointExtension>
        </extensions>
      </trkpt>
      <trkpt lat="36.80905024521052837371826171875" lon="-118.41475157998502254486083984375">
        <ele>3412.800048828125</ele>
        <time>2021-06-26T22:21:02.000Z</time>
        <extensions>
          <ns3:TrackPointExtension>
            <ns3:atemp>28.0</ns3:atemp>
            <ns3:hr>111</ns3:hr>
          </ns3:TrackPointExtension>
        </extensions>
      </trkpt>
      <trkpt lat="36.80911327712237834930419921875" lon="-118.41473699547350406646728515625">
        <ele>3412.60009765625</ele>
        <time>2021-06-26T22:21:09.000Z</time>
        <extensions>
          <ns3:TrackPointExtension>
            <ns3:atemp>28.0</ns3:atemp>
            <ns3:hr>113</ns3:hr>
          </ns3:TrackPointExtension>
        </extensions>
      </trkpt>
      <trkpt lat="36.80918284691870212554931640625" lon="-118.41470799408853054046630859375">
        <ele>3413.199951171875</ele>
        <time>2021-06-26T22:21:18.000Z</time>
        <extensions>
          <ns3:TrackPointExtension>
            <ns3:atemp>28.0</ns3:atemp>
            <ns3:hr>113</ns3:hr>
          </ns3:TrackPointExtension>
        </extensions>
      </trkpt>
      <trkpt lat="36.8092513270676136016845703125" lon="-118.4146844409406185150146484375">
        <ele>3413.800048828125</ele>
        <time>2021-06-26T22:21:26.000Z</time>
        <extensions>
          <ns3:TrackPointExtension>
            <ns3:atemp>28.0</ns3:atemp>
            <ns3:hr>110</ns3:hr>
          </ns3:TrackPointExtension>
        </extensions>
      </trkpt>
      <trkpt lat="36.8092600442469120025634765625" lon="-118.414681591093540191650390625">
        <ele>3414</ele>
        <time>2021-06-26T22:21:27.000Z</time>
        <extensions>
          <ns3:TrackPointExtension>
            <ns3:atemp>28.0</ns3:atemp>
            <ns3:hr>109</ns3:hr>
          </ns3:TrackPointExtension>
        </extensions>
      </trkpt>
      <trkpt lat="36.8092779815196990966796875" lon="-118.41465510427951812744140625">
        <ele>3414.39990234375</ele>
        <time>2021-06-26T22:21:31.000Z</time>
        <extensions>
          <ns3:TrackPointExtension>
            <ns3:atemp>28.0</ns3:atemp>
            <ns3:hr>112</ns3:hr>
          </ns3:TrackPointExtension>
        </extensions>
      </trkpt>
      <trkpt lat="36.8092806637287139892578125" lon="-118.4146502427756786346435546875">
        <ele>3414.60009765625</ele>
        <time>2021-06-26T22:21:32.000Z</time>
        <extensions>
          <ns3:TrackPointExtension>
            <ns3:atemp>28.0</ns3:atemp>
            <ns3:hr>112</ns3:hr>
          </ns3:TrackPointExtension>
        </extensions>
      </trkpt>
      <trkpt lat="36.80928292684257030487060546875" lon="-118.4146442078053951263427734375">
        <ele>3415</ele>
        <time>2021-06-26T22:21:33.000Z</time>
        <extensions>
          <ns3:TrackPointExtension>
            <ns3:atemp>28.0</ns3:atemp>
            <ns3:hr>113</ns3:hr>
          </ns3:TrackPointExtension>
        </extensions>
      </trkpt>
      <trkpt lat="36.80928644724190235137939453125" lon="-118.41463825665414333343505859375">
        <ele>3415.39990234375</ele>
        <time>2021-06-26T22:21:34.000Z</time>
        <extensions>
          <ns3:TrackPointExtension>
            <ns3:atemp>28.0</ns3:atemp>
            <ns3:hr>113</ns3:hr>
          </ns3:TrackPointExtension>
        </extensions>
      </trkpt>
      <trkpt lat="36.80930270813405513763427734375" lon="-118.41460271738469600677490234375">
        <ele>3416.199951171875</ele>
        <time>2021-06-26T22:21:39.000Z</time>
        <extensions>
          <ns3:TrackPointExtension>
            <ns3:atemp>28.0</ns3:atemp>
            <ns3:hr>111</ns3:hr>
          </ns3:TrackPointExtension>
        </extensions>
      </trkpt>
      <trkpt lat="36.80928795598447322845458984375" lon="-118.4145721234381198883056640625">
        <ele>3417.199951171875</ele>
        <time>2021-06-26T22:21:44.000Z</time>
        <extensions>
          <ns3:TrackPointExtension>
            <ns3:atemp>28.0</ns3:atemp>
            <ns3:hr>111</ns3:hr>
          </ns3:TrackPointExtension>
        </extensions>
      </trkpt>
      <trkpt lat="36.8092868663370609283447265625" lon="-118.41453566215932369232177734375">
        <ele>3417.199951171875</ele>
        <time>2021-06-26T22:21:52.000Z</time>
        <extensions>
          <ns3:TrackPointExtension>
            <ns3:atemp>28.0</ns3:atemp>
            <ns3:hr>110</ns3:hr>
          </ns3:TrackPointExtension>
        </extensions>
      </trkpt>
      <trkpt lat="36.80928996764123439788818359375" lon="-118.41449023224413394927978515625">
        <ele>3417.60009765625</ele>
        <time>2021-06-26T22:21:59.000Z</time>
        <extensions>
          <ns3:TrackPointExtension>
            <ns3:atemp>28.0</ns3:atemp>
            <ns3:hr>109</ns3:hr>
          </ns3:TrackPointExtension>
        </extensions>
      </trkpt>
      <trkpt lat="36.80928192101418972015380859375" lon="-118.41446341015398502349853515625">
        <ele>3418.39990234375</ele>
        <time>2021-06-26T22:22:03.000Z</time>
        <extensions>
          <ns3:TrackPointExtension>
            <ns3:atemp>28.0</ns3:atemp>
            <ns3:hr>109</ns3:hr>
          </ns3:TrackPointExtension>
        </extensions>
      </trkpt>
      <trkpt lat="36.809284351766109466552734375" lon="-118.414449580013751983642578125">
        <ele>3419.39990234375</ele>
        <time>2021-06-26T22:22:05.000Z</time>
        <extensions>
          <ns3:TrackPointExtension>
            <ns3:atemp>28.0</ns3:atemp>
            <ns3:hr>110</ns3:hr>
          </ns3:TrackPointExtension>
        </extensions>
      </trkpt>
      <trkpt lat="36.80928661487996578216552734375" lon="-118.41444111429154872894287109375">
        <ele>3419.39990234375</ele>
        <time>2021-06-26T22:22:06.000Z</time>
        <extensions>
          <ns3:TrackPointExtension>
            <ns3:atemp>28.0</ns3:atemp>
            <ns3:hr>110</ns3:hr>
          </ns3:TrackPointExtension>
        </extensions>
      </trkpt>
      <trkpt lat="36.8092875368893146514892578125" lon="-118.41440440155565738677978515625">
        <ele>3419.800048828125</ele>
        <time>2021-06-26T22:22:10.000Z</time>
        <extensions>
          <ns3:TrackPointExtension>
            <ns3:atemp>28.0</ns3:atemp>
            <ns3:hr>114</ns3:hr>
          </ns3:TrackPointExtension>
        </extensions>
      </trkpt>
      <trkpt lat="36.80928862653672695159912109375" lon="-118.4143956005573272705078125">
        <ele>3420.199951171875</ele>
        <time>2021-06-26T22:22:11.000Z</time>
        <extensions>
          <ns3:TrackPointExtension>
            <ns3:atemp>28.0</ns3:atemp>
            <ns3:hr>111</ns3:hr>
          </ns3:TrackPointExtension>
        </extensions>
      </trkpt>
      <trkpt lat="36.8092898838222026824951171875" lon="-118.41438864357769489288330078125">
        <ele>3420.800048828125</ele>
        <time>2021-06-26T22:22:12.000Z</time>
        <extensions>
          <ns3:TrackPointExtension>
            <ns3:atemp>28.0</ns3:atemp>
            <ns3:hr>111</ns3:hr>
          </ns3:TrackPointExtension>
        </extensions>
      </trkpt>
      <trkpt lat="36.80929097346961498260498046875" lon="-118.41436550952494144439697265625">
        <ele>3421</ele>
        <time>2021-06-26T22:22:15.000Z</time>
        <extensions>
          <ns3:TrackPointExtension>
            <ns3:atemp>28.0</ns3:atemp>
            <ns3:hr>111</ns3:hr>
          </ns3:TrackPointExtension>
        </extensions>
      </trkpt>
      <trkpt lat="36.80931352078914642333984375" lon="-118.41428755782544612884521484375">
        <ele>3421.800048828125</ele>
        <time>2021-06-26T22:22:23.000Z</time>
        <extensions>
          <ns3:TrackPointExtension>
            <ns3:atemp>28.0</ns3:atemp>
            <ns3:hr>112</ns3:hr>
          </ns3:TrackPointExtension>
        </extensions>
      </trkpt>
      <trkpt lat="36.80931963957846164703369140625" lon="-118.4142656810581684112548828125">
        <ele>3422</ele>
        <time>2021-06-26T22:22:25.000Z</time>
        <extensions>
          <ns3:TrackPointExtension>
            <ns3:atemp>28.0</ns3:atemp>
            <ns3:hr>113</ns3:hr>
          </ns3:TrackPointExtension>
        </extensions>
      </trkpt>
      <trkpt lat="36.80931461043655872344970703125" lon="-118.4142207540571689605712890625">
        <ele>3422.199951171875</ele>
        <time>2021-06-26T22:22:29.000Z</time>
        <extensions>
          <ns3:TrackPointExtension>
            <ns3:atemp>28.0</ns3:atemp>
            <ns3:hr>116</ns3:hr>
          </ns3:TrackPointExtension>
        </extensions>
      </trkpt>
      <trkpt lat="36.80930807255208492279052734375" lon="-118.41420072130858898162841796875">
        <ele>3422.199951171875</ele>
        <time>2021-06-26T22:22:31.000Z</time>
        <extensions>
          <ns3:TrackPointExtension>
            <ns3:atemp>28.0</ns3:atemp>
            <ns3:hr>114</ns3:hr>
          </ns3:TrackPointExtension>
        </extensions>
      </trkpt>
      <trkpt lat="36.8092818371951580047607421875" lon="-118.4141369350254535675048828125">
        <ele>3422.800048828125</ele>
        <time>2021-06-26T22:22:38.000Z</time>
        <extensions>
          <ns3:TrackPointExtension>
            <ns3:atemp>28.0</ns3:atemp>
            <ns3:hr>117</ns3:hr>
          </ns3:TrackPointExtension>
        </extensions>
      </trkpt>
      <trkpt lat="36.8092741258442401885986328125" lon="-118.4141191653907299041748046875">
        <ele>3422.800048828125</ele>
        <time>2021-06-26T22:22:41.000Z</time>
        <extensions>
          <ns3:TrackPointExtension>
            <ns3:atemp>28.0</ns3:atemp>
            <ns3:hr>118</ns3:hr>
          </ns3:TrackPointExtension>
        </extensions>
      </trkpt>
      <trkpt lat="36.80927538312971591949462890625" lon="-118.4141138009727001190185546875">
        <ele>3423</ele>
        <time>2021-06-26T22:22:42.000Z</time>
        <extensions>
          <ns3:TrackPointExtension>
            <ns3:atemp>28.0</ns3:atemp>
            <ns3:hr>118</ns3:hr>
          </ns3:TrackPointExtension>
        </extensions>
      </trkpt>
      <trkpt lat="36.80927840061485767364501953125" lon="-118.41408806852996349334716796875">
        <ele>3424.199951171875</ele>
        <time>2021-06-26T22:22:45.000Z</time>
        <extensions>
          <ns3:TrackPointExtension>
            <ns3:atemp>28.0</ns3:atemp>
            <ns3:hr>117</ns3:hr>
          </ns3:TrackPointExtension>
        </extensions>
      </trkpt>
      <trkpt lat="36.80927840061485767364501953125" lon="-118.41407817788422107696533203125">
        <ele>3424.199951171875</ele>
        <time>2021-06-26T22:22:46.000Z</time>
        <extensions>
          <ns3:TrackPointExtension>
            <ns3:atemp>28.0</ns3:atemp>
            <ns3:hr>117</ns3:hr>
          </ns3:TrackPointExtension>
        </extensions>
      </trkpt>
      <trkpt lat="36.80927873589098453521728515625" lon="-118.4140688739717006683349609375">
        <ele>3424.39990234375</ele>
        <time>2021-06-26T22:22:47.000Z</time>
        <extensions>
          <ns3:TrackPointExtension>
            <ns3:atemp>28.0</ns3:atemp>
            <ns3:hr>116</ns3:hr>
          </ns3:TrackPointExtension>
        </extensions>
      </trkpt>
      <trkpt lat="36.8092838488519191741943359375" lon="-118.4140490926802158355712890625">
        <ele>3424.60009765625</ele>
        <time>2021-06-26T22:22:49.000Z</time>
        <extensions>
          <ns3:TrackPointExtension>
            <ns3:atemp>28.0</ns3:atemp>
            <ns3:hr>114</ns3:hr>
          </ns3:TrackPointExtension>
        </extensions>
      </trkpt>
      <trkpt lat="36.80928208865225315093994140625" lon="-118.4140195883810520172119140625">
        <ele>3425.800048828125</ele>
        <time>2021-06-26T22:22:52.000Z</time>
        <extensions>
          <ns3:TrackPointExtension>
            <ns3:atemp>28.0</ns3:atemp>
            <ns3:hr>114</ns3:hr>
          </ns3:TrackPointExtension>
        </extensions>
      </trkpt>
      <trkpt lat="36.80926683358848094940185546875" lon="-118.41396443545818328857421875">
        <ele>3426.39990234375</ele>
        <time>2021-06-26T22:22:58.000Z</time>
        <extensions>
          <ns3:TrackPointExtension>
            <ns3:atemp>28.0</ns3:atemp>
            <ns3:hr>116</ns3:hr>
          </ns3:TrackPointExtension>
        </extensions>
      </trkpt>
      <trkpt lat="36.80923162959516048431396484375" lon="-118.4139220230281352996826171875">
        <ele>3428.60009765625</ele>
        <time>2021-06-26T22:23:04.000Z</time>
        <extensions>
          <ns3:TrackPointExtension>
            <ns3:atemp>28.0</ns3:atemp>
            <ns3:hr>116</ns3:hr>
          </ns3:TrackPointExtension>
        </extensions>
      </trkpt>
      <trkpt lat="36.809222660958766937255859375" lon="-118.41390148736536502838134765625">
        <ele>3428.199951171875</ele>
        <time>2021-06-26T22:23:08.000Z</time>
        <extensions>
          <ns3:TrackPointExtension>
            <ns3:atemp>28.0</ns3:atemp>
            <ns3:hr>117</ns3:hr>
          </ns3:TrackPointExtension>
        </extensions>
      </trkpt>
      <trkpt lat="36.80922157131135463714599609375" lon="-118.41389612294733524322509765625">
        <ele>3427.60009765625</ele>
        <time>2021-06-26T22:23:11.000Z</time>
        <extensions>
          <ns3:TrackPointExtension>
            <ns3:atemp>28.0</ns3:atemp>
            <ns3:hr>118</ns3:hr>
          </ns3:TrackPointExtension>
        </extensions>
      </trkpt>
      <trkpt lat="36.8092177994549274444580078125" lon="-118.4139022417366504669189453125">
        <ele>3427</ele>
        <time>2021-06-26T22:23:16.000Z</time>
        <extensions>
          <ns3:TrackPointExtension>
            <ns3:atemp>28.0</ns3:atemp>
            <ns3:hr>119</ns3:hr>
          </ns3:TrackPointExtension>
        </extensions>
      </trkpt>
      <trkpt lat="36.8092177994549274444580078125" lon="-118.4139022417366504669189453125">
        <ele>3426.800048828125</ele>
        <time>2021-06-26T22:23:24.000Z</time>
        <extensions>
          <ns3:TrackPointExtension>
            <ns3:atemp>28.0</ns3:atemp>
            <ns3:hr>116</ns3:hr>
          </ns3:TrackPointExtension>
        </extensions>
      </trkpt>
      <trkpt lat="36.80921855382621288299560546875" lon="-118.4139022417366504669189453125">
        <ele>3426.39990234375</ele>
        <time>2021-06-26T22:23:26.000Z</time>
        <extensions>
          <ns3:TrackPointExtension>
            <ns3:atemp>28.0</ns3:atemp>
            <ns3:hr>115</ns3:hr>
          </ns3:TrackPointExtension>
        </extensions>
      </trkpt>
      <trkpt lat="36.8092191405594348907470703125" lon="-118.4139022417366504669189453125">
        <ele>3425</ele>
        <time>2021-06-26T22:23:27.000Z</time>
        <extensions>
          <ns3:TrackPointExtension>
            <ns3:atemp>28.0</ns3:atemp>
            <ns3:hr>113</ns3:hr>
          </ns3:TrackPointExtension>
        </extensions>
      </trkpt>
      <trkpt lat="36.80921964347362518310546875" lon="-118.4139022417366504669189453125">
        <ele>3423.199951171875</ele>
        <time>2021-06-26T22:23:28.000Z</time>
        <extensions>
          <ns3:TrackPointExtension>
            <ns3:atemp>28.0</ns3:atemp>
            <ns3:hr>112</ns3:hr>
          </ns3:TrackPointExtension>
        </extensions>
      </trkpt>
      <trkpt lat="36.80921696126461029052734375" lon="-118.4138797782361507415771484375">
        <ele>3424.199951171875</ele>
        <time>2021-06-26T22:23:33.000Z</time>
        <extensions>
          <ns3:TrackPointExtension>
            <ns3:atemp>28.0</ns3:atemp>
            <ns3:hr>109</ns3:hr>
          </ns3:TrackPointExtension>
        </extensions>
      </trkpt>
      <trkpt lat="36.80921025574207305908203125" lon="-118.4138294868171215057373046875">
        <ele>3424.39990234375</ele>
        <time>2021-06-26T22:23:36.000Z</time>
        <extensions>
          <ns3:TrackPointExtension>
            <ns3:atemp>28.0</ns3:atemp>
            <ns3:hr>109</ns3:hr>
          </ns3:TrackPointExtension>
        </extensions>
      </trkpt>
      <trkpt lat="36.80919927544891834259033203125" lon="-118.413697220385074615478515625">
        <ele>3425</ele>
        <time>2021-06-26T22:23:46.000Z</time>
        <extensions>
          <ns3:TrackPointExtension>
            <ns3:atemp>28.0</ns3:atemp>
            <ns3:hr>108</ns3:hr>
          </ns3:TrackPointExtension>
        </extensions>
      </trkpt>
      <trkpt lat="36.80916172452270984649658203125" lon="-118.413665033876895904541015625">
        <ele>3423.60009765625</ele>
        <time>2021-06-26T22:23:51.000Z</time>
        <extensions>
          <ns3:TrackPointExtension>
            <ns3:atemp>27.0</ns3:atemp>
            <ns3:hr>106</ns3:hr>
          </ns3:TrackPointExtension>
        </extensions>
      </trkpt>
      <trkpt lat="36.8091453798115253448486328125" lon="-118.41365505941212177276611328125">
        <ele>3423.60009765625</ele>
        <time>2021-06-26T22:23:53.000Z</time>
        <extensions>
          <ns3:TrackPointExtension>
            <ns3:atemp>27.0</ns3:atemp>
            <ns3:hr>106</ns3:hr>
          </ns3:TrackPointExtension>
        </extensions>
      </trkpt>
      <trkpt lat="36.80912802927196025848388671875" lon="-118.4136363677680492401123046875">
        <ele>3423.800048828125</ele>
        <time>2021-06-26T22:23:56.000Z</time>
        <extensions>
          <ns3:TrackPointExtension>
            <ns3:atemp>27.0</ns3:atemp>
            <ns3:hr>103</ns3:hr>
          </ns3:TrackPointExtension>
        </extensions>
      </trkpt>
      <trkpt lat="36.8091232515871524810791015625" lon="-118.4135941229760646820068359375">
        <ele>3423.60009765625</ele>
        <time>2021-06-26T22:24:00.000Z</time>
        <extensions>
          <ns3:TrackPointExtension>
            <ns3:atemp>27.0</ns3:atemp>
            <ns3:hr>102</ns3:hr>
          </ns3:TrackPointExtension>
        </extensions>
      </trkpt>
      <trkpt lat="36.8091031350195407867431640625" lon="-118.41356336139142513275146484375">
        <ele>3422.60009765625</ele>
        <time>2021-06-26T22:24:04.000Z</time>
        <extensions>
          <ns3:TrackPointExtension>
            <ns3:atemp>27.0</ns3:atemp>
            <ns3:hr>101</ns3:hr>
          </ns3:TrackPointExtension>
        </extensions>
      </trkpt>
      <trkpt lat="36.80908494628965854644775390625" lon="-118.41354190371930599212646484375">
        <ele>3422.60009765625</ele>
        <time>2021-06-26T22:24:07.000Z</time>
        <extensions>
          <ns3:TrackPointExtension>
            <ns3:atemp>27.0</ns3:atemp>
            <ns3:hr>100</ns3:hr>
          </ns3:TrackPointExtension>
        </extensions>
      </trkpt>
      <trkpt lat="36.80906005203723907470703125" lon="-118.41351156122982501983642578125">
        <ele>3421.60009765625</ele>
        <time>2021-06-26T22:24:11.000Z</time>
        <extensions>
          <ns3:TrackPointExtension>
            <ns3:atemp>27.0</ns3:atemp>
            <ns3:hr>100</ns3:hr>
          </ns3:TrackPointExtension>
        </extensions>
      </trkpt>
      <trkpt lat="36.80903683416545391082763671875" lon="-118.41345925815403461456298828125">
        <ele>3421.39990234375</ele>
        <time>2021-06-26T22:24:16.000Z</time>
        <extensions>
          <ns3:TrackPointExtension>
            <ns3:atemp>27.0</ns3:atemp>
            <ns3:hr>100</ns3:hr>
          </ns3:TrackPointExtension>
        </extensions>
      </trkpt>
      <trkpt lat="36.80903188884258270263671875" lon="-118.413446433842182159423828125">
        <ele>3421.39990234375</ele>
        <time>2021-06-26T22:24:17.000Z</time>
        <extensions>
          <ns3:TrackPointExtension>
            <ns3:atemp>27.0</ns3:atemp>
            <ns3:hr>100</ns3:hr>
          </ns3:TrackPointExtension>
        </extensions>
      </trkpt>
      <trkpt lat="36.80902409367263317108154296875" lon="-118.4134219586849212646484375">
        <ele>3420.60009765625</ele>
        <time>2021-06-26T22:24:19.000Z</time>
        <extensions>
          <ns3:TrackPointExtension>
            <ns3:atemp>27.0</ns3:atemp>
            <ns3:hr>100</ns3:hr>
          </ns3:TrackPointExtension>
        </extensions>
      </trkpt>
      <trkpt lat="36.80900967679917812347412109375" lon="-118.41333855874836444854736328125">
        <ele>3419.60009765625</ele>
        <time>2021-06-26T22:24:27.000Z</time>
        <extensions>
          <ns3:TrackPointExtension>
            <ns3:atemp>27.0</ns3:atemp>
            <ns3:hr>98</ns3:hr>
          </ns3:TrackPointExtension>
        </extensions>
      </trkpt>
      <trkpt lat="36.808985285460948944091796875" lon="-118.41331710107624530792236328125">
        <ele>3419.199951171875</ele>
        <time>2021-06-26T22:24:30.000Z</time>
        <extensions>
          <ns3:TrackPointExtension>
            <ns3:atemp>27.0</ns3:atemp>
            <ns3:hr>99</ns3:hr>
          </ns3:TrackPointExtension>
        </extensions>
      </trkpt>
      <trkpt lat="36.808969192206859588623046875" lon="-118.4132930450141429901123046875">
        <ele>3418.199951171875</ele>
        <time>2021-06-26T22:24:35.000Z</time>
        <extensions>
          <ns3:TrackPointExtension>
            <ns3:atemp>27.0</ns3:atemp>
            <ns3:hr>96</ns3:hr>
          </ns3:TrackPointExtension>
        </extensions>
      </trkpt>
      <trkpt lat="36.80897296406328678131103515625" lon="-118.4132917039096355438232421875">
        <ele>3418.39990234375</ele>
        <time>2021-06-26T22:24:50.000Z</time>
        <extensions>
          <ns3:TrackPointExtension>
            <ns3:atemp>27.0</ns3:atemp>
            <ns3:hr>93</ns3:hr>
          </ns3:TrackPointExtension>
        </extensions>
      </trkpt>
      <trkpt lat="36.80897288024425506591796875" lon="-118.4132917039096355438232421875">
        <ele>3417.199951171875</ele>
        <time>2021-06-26T22:24:52.000Z</time>
        <extensions>
          <ns3:TrackPointExtension>
            <ns3:atemp>27.0</ns3:atemp>
            <ns3:hr>93</ns3:hr>
          </ns3:TrackPointExtension>
        </extensions>
      </trkpt>
      <trkpt lat="36.80897229351103305816650390625" lon="-118.4132953919470310211181640625">
        <ele>3418.199951171875</ele>
        <time>2021-06-26T22:25:03.000Z</time>
        <extensions>
          <ns3:TrackPointExtension>
            <ns3:atemp>27.0</ns3:atemp>
            <ns3:hr>93</ns3:hr>
          </ns3:TrackPointExtension>
        </extensions>
      </trkpt>
      <trkpt lat="36.8089735507965087890625" lon="-118.41329681687057018280029296875">
        <ele>3419.39990234375</ele>
        <time>2021-06-26T22:25:07.000Z</time>
        <extensions>
          <ns3:TrackPointExtension>
            <ns3:atemp>27.0</ns3:atemp>
            <ns3:hr>94</ns3:hr>
          </ns3:TrackPointExtension>
        </extensions>
      </trkpt>
      <trkpt lat="36.8089748919010162353515625" lon="-118.41330033726990222930908203125">
        <ele>3419.60009765625</ele>
        <time>2021-06-26T22:25:11.000Z</time>
        <extensions>
          <ns3:TrackPointExtension>
            <ns3:atemp>26.0</ns3:atemp>
            <ns3:hr>98</ns3:hr>
          </ns3:TrackPointExtension>
        </extensions>
      </trkpt>
      <trkpt lat="36.80900984443724155426025390625" lon="-118.4132905304431915283203125">
        <ele>3419</ele>
        <time>2021-06-26T22:25:16.000Z</time>
        <extensions>
          <ns3:TrackPointExtension>
            <ns3:atemp>26.0</ns3:atemp>
            <ns3:hr>99</ns3:hr>
          </ns3:TrackPointExtension>
        </extensions>
      </trkpt>
      <trkpt lat="36.8090521730482578277587890625" lon="-118.41327871195971965789794921875">
        <ele>3418.199951171875</ele>
        <time>2021-06-26T22:25:20.000Z</time>
        <extensions>
          <ns3:TrackPointExtension>
            <ns3:atemp>26.0</ns3:atemp>
            <ns3:hr>99</ns3:hr>
          </ns3:TrackPointExtension>
        </extensions>
      </trkpt>
      <trkpt lat="36.80908620357513427734375" lon="-118.413249291479587554931640625">
        <ele>3417.39990234375</ele>
        <time>2021-06-26T22:25:23.000Z</time>
        <extensions>
          <ns3:TrackPointExtension>
            <ns3:atemp>26.0</ns3:atemp>
            <ns3:hr>98</ns3:hr>
          </ns3:TrackPointExtension>
        </extensions>
      </trkpt>
      <trkpt lat="36.80910305120050907135009765625" lon="-118.41322557069361209869384765625">
        <ele>3417</ele>
        <time>2021-06-26T22:25:25.000Z</time>
        <extensions>
          <ns3:TrackPointExtension>
            <ns3:atemp>26.0</ns3:atemp>
            <ns3:hr>97</ns3:hr>
          </ns3:TrackPointExtension>
        </extensions>
      </trkpt>
      <trkpt lat="36.8091279454529285430908203125" lon="-118.41319489292800426483154296875">
        <ele>3416</ele>
        <time>2021-06-26T22:25:29.000Z</time>
        <extensions>
          <ns3:TrackPointExtension>
            <ns3:atemp>26.0</ns3:atemp>
            <ns3:hr>97</ns3:hr>
          </ns3:TrackPointExtension>
        </extensions>
      </trkpt>
      <trkpt lat="36.80913255549967288970947265625" lon="-118.41316924430429935455322265625">
        <ele>3415.60009765625</ele>
        <time>2021-06-26T22:25:31.000Z</time>
        <extensions>
          <ns3:TrackPointExtension>
            <ns3:atemp>26.0</ns3:atemp>
            <ns3:hr>97</ns3:hr>
          </ns3:TrackPointExtension>
        </extensions>
      </trkpt>
      <trkpt lat="36.80914345197379589080810546875" lon="-118.41312758624553680419921875">
        <ele>3414.800048828125</ele>
        <time>2021-06-26T22:25:35.000Z</time>
        <extensions>
          <ns3:TrackPointExtension>
            <ns3:atemp>26.0</ns3:atemp>
            <ns3:hr>96</ns3:hr>
          </ns3:TrackPointExtension>
        </extensions>
      </trkpt>
      <trkpt lat="36.809152923524379730224609375" lon="-118.41308441944420337677001953125">
        <ele>3413.800048828125</ele>
        <time>2021-06-26T22:25:38.000Z</time>
        <extensions>
          <ns3:TrackPointExtension>
            <ns3:atemp>26.0</ns3:atemp>
            <ns3:hr>97</ns3:hr>
          </ns3:TrackPointExtension>
        </extensions>
      </trkpt>
      <trkpt lat="36.80916138924658298492431640625" lon="-118.4130585193634033203125">
        <ele>3413.60009765625</ele>
        <time>2021-06-26T22:25:40.000Z</time>
        <extensions>
          <ns3:TrackPointExtension>
            <ns3:atemp>26.0</ns3:atemp>
            <ns3:hr>96</ns3:hr>
          </ns3:TrackPointExtension>
        </extensions>
      </trkpt>
      <trkpt lat="36.8091849423944950103759765625" lon="-118.41297377832233905792236328125">
        <ele>3413</ele>
        <time>2021-06-26T22:25:47.000Z</time>
        <extensions>
          <ns3:TrackPointExtension>
            <ns3:atemp>26.0</ns3:atemp>
            <ns3:hr>94</ns3:hr>
          </ns3:TrackPointExtension>
        </extensions>
      </trkpt>
      <trkpt lat="36.80919189937412738800048828125" lon="-118.4129530750215053558349609375">
        <ele>3412.800048828125</ele>
        <time>2021-06-26T22:25:49.000Z</time>
        <extensions>
          <ns3:TrackPointExtension>
            <ns3:atemp>26.0</ns3:atemp>
            <ns3:hr>94</ns3:hr>
          </ns3:TrackPointExtension>
        </extensions>
      </trkpt>
      <trkpt lat="36.80920363403856754302978515625" lon="-118.41287101618945598602294921875">
        <ele>3411.60009765625</ele>
        <time>2021-06-26T22:25:55.000Z</time>
        <extensions>
          <ns3:TrackPointExtension>
            <ns3:atemp>26.0</ns3:atemp>
            <ns3:hr>94</ns3:hr>
          </ns3:TrackPointExtension>
        </extensions>
      </trkpt>
      <trkpt lat="36.8092040531337261199951171875" lon="-118.4128558449447154998779296875">
        <ele>3411.60009765625</ele>
        <time>2021-06-26T22:25:56.000Z</time>
        <extensions>
          <ns3:TrackPointExtension>
            <ns3:atemp>26.0</ns3:atemp>
            <ns3:hr>94</ns3:hr>
          </ns3:TrackPointExtension>
        </extensions>
      </trkpt>
      <trkpt lat="36.80921033956110477447509765625" lon="-118.4127954952418804168701171875">
        <ele>3410.60009765625</ele>
        <time>2021-06-26T22:26:01.000Z</time>
        <extensions>
          <ns3:TrackPointExtension>
            <ns3:atemp>26.0</ns3:atemp>
            <ns3:hr>94</ns3:hr>
          </ns3:TrackPointExtension>
        </extensions>
      </trkpt>
      <trkpt lat="36.80920497514307498931884765625" lon="-118.41276347637176513671875">
        <ele>3410.39990234375</ele>
        <time>2021-06-26T22:26:03.000Z</time>
        <extensions>
          <ns3:TrackPointExtension>
            <ns3:atemp>26.0</ns3:atemp>
            <ns3:hr>93</ns3:hr>
          </ns3:TrackPointExtension>
        </extensions>
      </trkpt>
      <trkpt lat="36.80919424630701541900634765625" lon="-118.412669263780117034912109375">
        <ele>3410.199951171875</ele>
        <time>2021-06-26T22:26:10.000Z</time>
        <extensions>
          <ns3:TrackPointExtension>
            <ns3:atemp>26.0</ns3:atemp>
            <ns3:hr>90</ns3:hr>
          </ns3:TrackPointExtension>
        </extensions>
      </trkpt>
      <trkpt lat="36.809177063405513763427734375" lon="-118.4126097522675991058349609375">
        <ele>3409.39990234375</ele>
        <time>2021-06-26T22:26:15.000Z</time>
        <extensions>
          <ns3:TrackPointExtension>
            <ns3:atemp>26.0</ns3:atemp>
            <ns3:hr>90</ns3:hr>
          </ns3:TrackPointExtension>
        </extensions>
      </trkpt>
      <trkpt lat="36.809167005121707916259765625" lon="-118.4125648252665996551513671875">
        <ele>3409</ele>
        <time>2021-06-26T22:26:19.000Z</time>
        <extensions>
          <ns3:TrackPointExtension>
            <ns3:atemp>26.0</ns3:atemp>
            <ns3:hr>88</ns3:hr>
          </ns3:TrackPointExtension>
        </extensions>
      </trkpt>
      <trkpt lat="36.80916734039783477783203125" lon="-118.41254680417478084564208984375">
        <ele>3408.60009765625</ele>
        <time>2021-06-26T22:26:21.000Z</time>
        <extensions>
          <ns3:TrackPointExtension>
            <ns3:atemp>26.0</ns3:atemp>
            <ns3:hr>85</ns3:hr>
          </ns3:TrackPointExtension>
        </extensions>
      </trkpt>
      <trkpt lat="36.809164322912693023681640625" lon="-118.41253842227160930633544921875">
        <ele>3408.199951171875</ele>
        <time>2021-06-26T22:26:22.000Z</time>
        <extensions>
          <ns3:TrackPointExtension>
            <ns3:atemp>26.0</ns3:atemp>
            <ns3:hr>84</ns3:hr>
          </ns3:TrackPointExtension>
        </extensions>
      </trkpt>
      <trkpt lat="36.8091591261327266693115234375" lon="-118.4125353209674358367919921875">
        <ele>3408</ele>
        <time>2021-06-26T22:26:23.000Z</time>
        <extensions>
          <ns3:TrackPointExtension>
            <ns3:atemp>26.0</ns3:atemp>
            <ns3:hr>82</ns3:hr>
          </ns3:TrackPointExtension>
        </extensions>
      </trkpt>
      <trkpt lat="36.8091564439237117767333984375" lon="-118.41253892518579959869384765625">
        <ele>3407.800048828125</ele>
        <time>2021-06-26T22:26:25.000Z</time>
        <extensions>
          <ns3:TrackPointExtension>
            <ns3:atemp>26.0</ns3:atemp>
            <ns3:hr>80</ns3:hr>
          </ns3:TrackPointExtension>
        </extensions>
      </trkpt>
      <trkpt lat="36.80915283970534801483154296875" lon="-118.4125386737287044525146484375">
        <ele>3407.800048828125</ele>
        <time>2021-06-26T22:26:26.000Z</time>
        <extensions>
          <ns3:TrackPointExtension>
            <ns3:atemp>26.0</ns3:atemp>
            <ns3:hr>80</ns3:hr>
          </ns3:TrackPointExtension>
        </extensions>
      </trkpt>
      <trkpt lat="36.80916507728397846221923828125" lon="-118.41252903454005718231201171875">
        <ele>3407.800048828125</ele>
        <time>2021-06-26T22:26:28.000Z</time>
        <extensions>
          <ns3:TrackPointExtension>
            <ns3:atemp>26.0</ns3:atemp>
            <ns3:hr>80</ns3:hr>
          </ns3:TrackPointExtension>
        </extensions>
      </trkpt>
      <trkpt lat="36.8091323040425777435302734375" lon="-118.4124689362943172454833984375">
        <ele>3408</ele>
        <time>2021-06-26T22:26:35.000Z</time>
        <extensions>
          <ns3:TrackPointExtension>
            <ns3:atemp>26.0</ns3:atemp>
            <ns3:hr>81</ns3:hr>
          </ns3:TrackPointExtension>
        </extensions>
      </trkpt>
      <trkpt lat="36.80913649499416351318359375" lon="-118.4124618954956531524658203125">
        <ele>3408</ele>
        <time>2021-06-26T22:26:42.000Z</time>
        <extensions>
          <ns3:TrackPointExtension>
            <ns3:atemp>26.0</ns3:atemp>
            <ns3:hr>79</ns3:hr>
          </ns3:TrackPointExtension>
        </extensions>
      </trkpt>
      <trkpt lat="36.80913942866027355194091796875" lon="-118.4124779887497425079345703125">
        <ele>3407.800048828125</ele>
        <time>2021-06-26T22:26:50.000Z</time>
        <extensions>
          <ns3:TrackPointExtension>
            <ns3:atemp>26.0</ns3:atemp>
            <ns3:hr>79</ns3:hr>
          </ns3:TrackPointExtension>
        </extensions>
      </trkpt>
      <trkpt lat="36.80913942866027355194091796875" lon="-118.4124779887497425079345703125">
        <ele>3408</ele>
        <time>2021-06-26T22:26:53.000Z</time>
        <extensions>
          <ns3:TrackPointExtension>
            <ns3:atemp>26.0</ns3:atemp>
            <ns3:hr>82</ns3:hr>
          </ns3:TrackPointExtension>
        </extensions>
      </trkpt>
      <trkpt lat="36.80913942866027355194091796875" lon="-118.4124779887497425079345703125">
        <ele>3408</ele>
        <time>2021-06-26T22:26:58.000Z</time>
        <extensions>
          <ns3:TrackPointExtension>
            <ns3:atemp>26.0</ns3:atemp>
            <ns3:hr>85</ns3:hr>
          </ns3:TrackPointExtension>
        </extensions>
      </trkpt>
      <trkpt lat="36.8091514147818088531494140625" lon="-118.41245812363922595977783203125">
        <ele>3408</ele>
        <time>2021-06-26T22:27:08.000Z</time>
        <extensions>
          <ns3:TrackPointExtension>
            <ns3:atemp>27.0</ns3:atemp>
            <ns3:hr>88</ns3:hr>
          </ns3:TrackPointExtension>
        </extensions>
      </trkpt>
      <trkpt lat="36.80915183387696743011474609375" lon="-118.41242174617946147918701171875">
        <ele>3407.800048828125</ele>
        <time>2021-06-26T22:27:10.000Z</time>
        <extensions>
          <ns3:TrackPointExtension>
            <ns3:atemp>27.0</ns3:atemp>
            <ns3:hr>89</ns3:hr>
          </ns3:TrackPointExtension>
        </extensions>
      </trkpt>
      <trkpt lat="36.809158623218536376953125" lon="-118.4123881347477436065673828125">
        <ele>3407.800048828125</ele>
        <time>2021-06-26T22:27:12.000Z</time>
        <extensions>
          <ns3:TrackPointExtension>
            <ns3:atemp>26.0</ns3:atemp>
            <ns3:hr>89</ns3:hr>
          </ns3:TrackPointExtension>
        </extensions>
      </trkpt>
      <trkpt lat="36.80917815305292606353759765625" lon="-118.41229434125125408172607421875">
        <ele>3407.199951171875</ele>
        <time>2021-06-26T22:27:17.000Z</time>
        <extensions>
          <ns3:TrackPointExtension>
            <ns3:atemp>26.0</ns3:atemp>
            <ns3:hr>89</ns3:hr>
          </ns3:TrackPointExtension>
        </extensions>
      </trkpt>
      <trkpt lat="36.80917329154908657073974609375" lon="-118.412222675979137420654296875">
        <ele>3407.199951171875</ele>
        <time>2021-06-26T22:27:22.000Z</time>
        <extensions>
          <ns3:TrackPointExtension>
            <ns3:atemp>26.0</ns3:atemp>
            <ns3:hr>92</ns3:hr>
          </ns3:TrackPointExtension>
        </extensions>
      </trkpt>
      <trkpt lat="36.8091604672372341156005859375" lon="-118.4121665172278881072998046875">
        <ele>3407</ele>
        <time>2021-06-26T22:27:26.000Z</time>
        <extensions>
          <ns3:TrackPointExtension>
            <ns3:atemp>27.0</ns3:atemp>
            <ns3:hr>93</ns3:hr>
          </ns3:TrackPointExtension>
        </extensions>
      </trkpt>
      <trkpt lat="36.80913691408932209014892578125" lon="-118.41205797158181667327880859375">
        <ele>3407.60009765625</ele>
        <time>2021-06-26T22:27:35.000Z</time>
        <extensions>
          <ns3:TrackPointExtension>
            <ns3:atemp>26.0</ns3:atemp>
            <ns3:hr>91</ns3:hr>
          </ns3:TrackPointExtension>
        </extensions>
      </trkpt>
      <trkpt lat="36.80910238064825534820556640625" lon="-118.4120325744152069091796875">
        <ele>3407.199951171875</ele>
        <time>2021-06-26T22:27:38.000Z</time>
        <extensions>
          <ns3:TrackPointExtension>
            <ns3:atemp>27.0</ns3:atemp>
            <ns3:hr>88</ns3:hr>
          </ns3:TrackPointExtension>
        </extensions>
      </trkpt>
      <trkpt lat="36.80904529988765716552734375" lon="-118.4119787625968456268310546875">
        <ele>3407</ele>
        <time>2021-06-26T22:27:44.000Z</time>
        <extensions>
          <ns3:TrackPointExtension>
            <ns3:atemp>27.0</ns3:atemp>
            <ns3:hr>87</ns3:hr>
          </ns3:TrackPointExtension>
        </extensions>
      </trkpt>
      <trkpt lat="36.808980591595172882080078125" lon="-118.41190307401120662689208984375">
        <ele>3407.39990234375</ele>
        <time>2021-06-26T22:27:52.000Z</time>
        <extensions>
          <ns3:TrackPointExtension>
            <ns3:atemp>27.0</ns3:atemp>
            <ns3:hr>89</ns3:hr>
          </ns3:TrackPointExtension>
        </extensions>
      </trkpt>
      <trkpt lat="36.80893541313707828521728515625" lon="-118.41184205375611782073974609375">
        <ele>3407.39990234375</ele>
        <time>2021-06-26T22:27:58.000Z</time>
        <extensions>
          <ns3:TrackPointExtension>
            <ns3:atemp>27.0</ns3:atemp>
            <ns3:hr>92</ns3:hr>
          </ns3:TrackPointExtension>
        </extensions>
      </trkpt>
      <trkpt lat="36.808927953243255615234375" lon="-118.4118322469294071197509765625">
        <ele>3407.39990234375</ele>
        <time>2021-06-26T22:27:59.000Z</time>
        <extensions>
          <ns3:TrackPointExtension>
            <ns3:atemp>27.0</ns3:atemp>
            <ns3:hr>89</ns3:hr>
          </ns3:TrackPointExtension>
        </extensions>
      </trkpt>
      <trkpt lat="36.8089076690375804901123046875" lon="-118.411795534193515777587890625">
        <ele>3407.39990234375</ele>
        <time>2021-06-26T22:28:02.000Z</time>
        <extensions>
          <ns3:TrackPointExtension>
            <ns3:atemp>27.0</ns3:atemp>
            <ns3:hr>90</ns3:hr>
          </ns3:TrackPointExtension>
        </extensions>
      </trkpt>
      <trkpt lat="36.8088503368198871612548828125" lon="-118.41169436462223529815673828125">
        <ele>3407.60009765625</ele>
        <time>2021-06-26T22:28:11.000Z</time>
        <extensions>
          <ns3:TrackPointExtension>
            <ns3:atemp>27.0</ns3:atemp>
            <ns3:hr>89</ns3:hr>
          </ns3:TrackPointExtension>
        </extensions>
      </trkpt>
      <trkpt lat="36.808776073157787322998046875" lon="-118.4115945361554622650146484375">
        <ele>3407.60009765625</ele>
        <time>2021-06-26T22:28:20.000Z</time>
        <extensions>
          <ns3:TrackPointExtension>
            <ns3:atemp>27.0</ns3:atemp>
            <ns3:hr>91</ns3:hr>
          </ns3:TrackPointExtension>
        </extensions>
      </trkpt>
      <trkpt lat="36.80871530435979366302490234375" lon="-118.411556147038936614990234375">
        <ele>3407.800048828125</ele>
        <time>2021-06-26T22:28:26.000Z</time>
        <extensions>
          <ns3:TrackPointExtension>
            <ns3:atemp>27.0</ns3:atemp>
            <ns3:hr>94</ns3:hr>
          </ns3:TrackPointExtension>
        </extensions>
      </trkpt>
      <trkpt lat="36.8086991272866725921630859375" lon="-118.411550782620906829833984375">
        <ele>3407.800048828125</ele>
        <time>2021-06-26T22:28:28.000Z</time>
        <extensions>
          <ns3:TrackPointExtension>
            <ns3:atemp>27.0</ns3:atemp>
            <ns3:hr>96</ns3:hr>
          </ns3:TrackPointExtension>
        </extensions>
      </trkpt>
      <trkpt lat="36.8086904101073741912841796875" lon="-118.4115462563931941986083984375">
        <ele>3407.800048828125</ele>
        <time>2021-06-26T22:28:29.000Z</time>
        <extensions>
          <ns3:TrackPointExtension>
            <ns3:atemp>27.0</ns3:atemp>
            <ns3:hr>96</ns3:hr>
          </ns3:TrackPointExtension>
        </extensions>
      </trkpt>
      <trkpt lat="36.80866182781755924224853515625" lon="-118.4114909358322620391845703125">
        <ele>3407.39990234375</ele>
        <time>2021-06-26T22:28:34.000Z</time>
        <extensions>
          <ns3:TrackPointExtension>
            <ns3:atemp>27.0</ns3:atemp>
            <ns3:hr>94</ns3:hr>
          </ns3:TrackPointExtension>
        </extensions>
      </trkpt>
      <trkpt lat="36.8086320720613002777099609375" lon="-118.41140887700021266937255859375">
        <ele>3407.39990234375</ele>
        <time>2021-06-26T22:28:41.000Z</time>
        <extensions>
          <ns3:TrackPointExtension>
            <ns3:atemp>27.0</ns3:atemp>
            <ns3:hr>93</ns3:hr>
          </ns3:TrackPointExtension>
        </extensions>
      </trkpt>
      <trkpt lat="36.808606088161468505859375" lon="-118.41133494861423969268798828125">
        <ele>3407.60009765625</ele>
        <time>2021-06-26T22:28:47.000Z</time>
        <extensions>
          <ns3:TrackPointExtension>
            <ns3:atemp>27.0</ns3:atemp>
            <ns3:hr>90</ns3:hr>
          </ns3:TrackPointExtension>
        </extensions>
      </trkpt>
      <trkpt lat="36.80859326384961605072021484375" lon="-118.4112830646336078643798828125">
        <ele>3407.800048828125</ele>
        <time>2021-06-26T22:28:51.000Z</time>
        <extensions>
          <ns3:TrackPointExtension>
            <ns3:atemp>27.0</ns3:atemp>
            <ns3:hr>90</ns3:hr>
          </ns3:TrackPointExtension>
        </extensions>
      </trkpt>
      <trkpt lat="36.8085784278810024261474609375" lon="-118.41119773685932159423828125">
        <ele>3408.199951171875</ele>
        <time>2021-06-26T22:28:58.000Z</time>
        <extensions>
          <ns3:TrackPointExtension>
            <ns3:atemp>27.0</ns3:atemp>
            <ns3:hr>90</ns3:hr>
          </ns3:TrackPointExtension>
        </extensions>
      </trkpt>
      <trkpt lat="36.808572225272655487060546875" lon="-118.41115976683795452117919921875">
        <ele>3408.39990234375</ele>
        <time>2021-06-26T22:29:01.000Z</time>
        <extensions>
          <ns3:TrackPointExtension>
            <ns3:atemp>27.0</ns3:atemp>
            <ns3:hr>90</ns3:hr>
          </ns3:TrackPointExtension>
        </extensions>
      </trkpt>
      <trkpt lat="36.8085698783397674560546875" lon="-118.411151133477687835693359375">
        <ele>3408.199951171875</ele>
        <time>2021-06-26T22:29:02.000Z</time>
        <extensions>
          <ns3:TrackPointExtension>
            <ns3:atemp>27.0</ns3:atemp>
            <ns3:hr>87</ns3:hr>
          </ns3:TrackPointExtension>
        </extensions>
      </trkpt>
      <trkpt lat="36.80856560356914997100830078125" lon="-118.41113965027034282684326171875">
        <ele>3408.199951171875</ele>
        <time>2021-06-26T22:29:03.000Z</time>
        <extensions>
          <ns3:TrackPointExtension>
            <ns3:atemp>27.0</ns3:atemp>
            <ns3:hr>90</ns3:hr>
          </ns3:TrackPointExtension>
        </extensions>
      </trkpt>
      <trkpt lat="36.8085559643805027008056640625" lon="-118.41111416928470134735107421875">
        <ele>3408.199951171875</ele>
        <time>2021-06-26T22:29:08.000Z</time>
        <extensions>
          <ns3:TrackPointExtension>
            <ns3:atemp>27.0</ns3:atemp>
            <ns3:hr>86</ns3:hr>
          </ns3:TrackPointExtension>
        </extensions>
      </trkpt>
      <trkpt lat="36.808555461466312408447265625" lon="-118.41111592948436737060546875">
        <ele>3408.199951171875</ele>
        <time>2021-06-26T22:29:09.000Z</time>
        <extensions>
          <ns3:TrackPointExtension>
            <ns3:atemp>27.0</ns3:atemp>
            <ns3:hr>86</ns3:hr>
          </ns3:TrackPointExtension>
        </extensions>
      </trkpt>
      <trkpt lat="36.80855655111372470855712890625" lon="-118.41112473048269748687744140625">
        <ele>3408.39990234375</ele>
        <time>2021-06-26T22:29:16.000Z</time>
        <extensions>
          <ns3:TrackPointExtension>
            <ns3:atemp>27.0</ns3:atemp>
            <ns3:hr>89</ns3:hr>
          </ns3:TrackPointExtension>
        </extensions>
      </trkpt>
      <trkpt lat="36.80855655111372470855712890625" lon="-118.41112473048269748687744140625">
        <ele>3408.39990234375</ele>
        <time>2021-06-26T22:29:25.000Z</time>
        <extensions>
          <ns3:TrackPointExtension>
            <ns3:atemp>27.0</ns3:atemp>
            <ns3:hr>92</ns3:hr>
          </ns3:TrackPointExtension>
        </extensions>
      </trkpt>
      <trkpt lat="36.80855655111372470855712890625" lon="-118.41112473048269748687744140625">
        <ele>3408.39990234375</ele>
        <time>2021-06-26T22:29:28.000Z</time>
        <extensions>
          <ns3:TrackPointExtension>
            <ns3:atemp>27.0</ns3:atemp>
            <ns3:hr>93</ns3:hr>
          </ns3:TrackPointExtension>
        </extensions>
      </trkpt>
      <trkpt lat="36.80855655111372470855712890625" lon="-118.411131016910076141357421875">
        <ele>3408.39990234375</ele>
        <time>2021-06-26T22:29:35.000Z</time>
        <extensions>
          <ns3:TrackPointExtension>
            <ns3:atemp>27.0</ns3:atemp>
            <ns3:hr>96</ns3:hr>
          </ns3:TrackPointExtension>
        </extensions>
      </trkpt>
      <trkpt lat="36.80855537764728069305419921875" lon="-118.4111321903765201568603515625">
        <ele>3408.39990234375</ele>
        <time>2021-06-26T22:29:44.000Z</time>
        <extensions>
          <ns3:TrackPointExtension>
            <ns3:atemp>27.0</ns3:atemp>
            <ns3:hr>99</ns3:hr>
          </ns3:TrackPointExtension>
        </extensions>
      </trkpt>
      <trkpt lat="36.8085908330976963043212890625" lon="-118.4110926277935504913330078125">
        <ele>3408.39990234375</ele>
        <time>2021-06-26T22:29:50.000Z</time>
        <extensions>
          <ns3:TrackPointExtension>
            <ns3:atemp>27.0</ns3:atemp>
            <ns3:hr>96</ns3:hr>
          </ns3:TrackPointExtension>
        </extensions>
      </trkpt>
      <trkpt lat="36.808637939393520355224609375" lon="-118.410963378846645355224609375">
        <ele>3408.199951171875</ele>
        <time>2021-06-26T22:29:58.000Z</time>
        <extensions>
          <ns3:TrackPointExtension>
            <ns3:atemp>27.0</ns3:atemp>
            <ns3:hr>94</ns3:hr>
          </ns3:TrackPointExtension>
        </extensions>
      </trkpt>
      <trkpt lat="36.80863835848867893218994140625" lon="-118.410954661667346954345703125">
        <ele>3408</ele>
        <time>2021-06-26T22:29:59.000Z</time>
        <extensions>
          <ns3:TrackPointExtension>
            <ns3:atemp>27.0</ns3:atemp>
            <ns3:hr>94</ns3:hr>
          </ns3:TrackPointExtension>
        </extensions>
      </trkpt>
      <trkpt lat="36.80865093134343624114990234375" lon="-118.41091744601726531982421875">
        <ele>3407.199951171875</ele>
        <time>2021-06-26T22:30:02.000Z</time>
        <extensions>
          <ns3:TrackPointExtension>
            <ns3:atemp>27.0</ns3:atemp>
            <ns3:hr>93</ns3:hr>
          </ns3:TrackPointExtension>
        </extensions>
      </trkpt>
      <trkpt lat="36.80867691524326801300048828125" lon="-118.4108535759150981903076171875">
        <ele>3406.800048828125</ele>
        <time>2021-06-26T22:30:07.000Z</time>
        <extensions>
          <ns3:TrackPointExtension>
            <ns3:atemp>27.0</ns3:atemp>
            <ns3:hr>93</ns3:hr>
          </ns3:TrackPointExtension>
        </extensions>
      </trkpt>
      <trkpt lat="36.808693595230579376220703125" lon="-118.41083639301359653472900390625">
        <ele>3406.199951171875</ele>
        <time>2021-06-26T22:30:09.000Z</time>
        <extensions>
          <ns3:TrackPointExtension>
            <ns3:atemp>27.0</ns3:atemp>
            <ns3:hr>92</ns3:hr>
          </ns3:TrackPointExtension>
        </extensions>
      </trkpt>
      <trkpt lat="36.808719076216220855712890625" lon="-118.4107845090329647064208984375">
        <ele>3405.199951171875</ele>
        <time>2021-06-26T22:30:14.000Z</time>
        <extensions>
          <ns3:TrackPointExtension>
            <ns3:atemp>27.0</ns3:atemp>
            <ns3:hr>88</ns3:hr>
          </ns3:TrackPointExtension>
        </extensions>
      </trkpt>
      <trkpt lat="36.80873215198516845703125" lon="-118.4107692539691925048828125">
        <ele>3405.199951171875</ele>
        <time>2021-06-26T22:30:16.000Z</time>
        <extensions>
          <ns3:TrackPointExtension>
            <ns3:atemp>27.0</ns3:atemp>
            <ns3:hr>88</ns3:hr>
          </ns3:TrackPointExtension>
        </extensions>
      </trkpt>
      <trkpt lat="36.8087350018322467803955078125" lon="-118.41075995005667209625244140625">
        <ele>3404.800048828125</ele>
        <time>2021-06-26T22:30:17.000Z</time>
        <extensions>
          <ns3:TrackPointExtension>
            <ns3:atemp>27.0</ns3:atemp>
            <ns3:hr>87</ns3:hr>
          </ns3:TrackPointExtension>
        </extensions>
      </trkpt>
      <trkpt lat="36.8087420426309108734130859375" lon="-118.410725332796573638916015625">
        <ele>3403.60009765625</ele>
        <time>2021-06-26T22:30:20.000Z</time>
        <extensions>
          <ns3:TrackPointExtension>
            <ns3:atemp>27.0</ns3:atemp>
            <ns3:hr>88</ns3:hr>
          </ns3:TrackPointExtension>
        </extensions>
      </trkpt>
      <trkpt lat="36.80875134654343128204345703125" lon="-118.41070395894348621368408203125">
        <ele>3403.60009765625</ele>
        <time>2021-06-26T22:30:22.000Z</time>
        <extensions>
          <ns3:TrackPointExtension>
            <ns3:atemp>27.0</ns3:atemp>
            <ns3:hr>88</ns3:hr>
          </ns3:TrackPointExtension>
        </extensions>
      </trkpt>
      <trkpt lat="36.808766685426235198974609375" lon="-118.410617373883724212646484375">
        <ele>3402.60009765625</ele>
        <time>2021-06-26T22:30:29.000Z</time>
        <extensions>
          <ns3:TrackPointExtension>
            <ns3:atemp>27.0</ns3:atemp>
            <ns3:hr>87</ns3:hr>
          </ns3:TrackPointExtension>
        </extensions>
      </trkpt>
      <trkpt lat="36.8087551183998584747314453125" lon="-118.41059566475450992584228515625">
        <ele>3402.199951171875</ele>
        <time>2021-06-26T22:30:31.000Z</time>
        <extensions>
          <ns3:TrackPointExtension>
            <ns3:atemp>27.0</ns3:atemp>
            <ns3:hr>86</ns3:hr>
          </ns3:TrackPointExtension>
        </extensions>
      </trkpt>
      <trkpt lat="36.808735169470310211181640625" lon="-118.41056800447404384613037109375">
        <ele>3401.39990234375</ele>
        <time>2021-06-26T22:30:34.000Z</time>
        <extensions>
          <ns3:TrackPointExtension>
            <ns3:atemp>27.0</ns3:atemp>
            <ns3:hr>84</ns3:hr>
          </ns3:TrackPointExtension>
        </extensions>
      </trkpt>
      <trkpt lat="36.80868378840386867523193359375" lon="-118.4105266816914081573486328125">
        <ele>3400.60009765625</ele>
        <time>2021-06-26T22:30:40.000Z</time>
        <extensions>
          <ns3:TrackPointExtension>
            <ns3:atemp>27.0</ns3:atemp>
            <ns3:hr>83</ns3:hr>
          </ns3:TrackPointExtension>
        </extensions>
      </trkpt>
      <trkpt lat="36.808636598289012908935546875" lon="-118.41051201336085796356201171875">
        <ele>3400.39990234375</ele>
        <time>2021-06-26T22:30:45.000Z</time>
        <extensions>
          <ns3:TrackPointExtension>
            <ns3:atemp>27.0</ns3:atemp>
            <ns3:hr>83</ns3:hr>
          </ns3:TrackPointExtension>
        </extensions>
      </trkpt>
      <trkpt lat="36.80860768072307109832763671875" lon="-118.4105025418102741241455078125">
        <ele>3400.199951171875</ele>
        <time>2021-06-26T22:30:48.000Z</time>
        <extensions>
          <ns3:TrackPointExtension>
            <ns3:atemp>27.0</ns3:atemp>
            <ns3:hr>85</ns3:hr>
          </ns3:TrackPointExtension>
        </extensions>
      </trkpt>
      <trkpt lat="36.80857633240520954132080078125" lon="-118.4104908071458339691162109375">
        <ele>3399.60009765625</ele>
        <time>2021-06-26T22:30:52.000Z</time>
        <extensions>
          <ns3:TrackPointExtension>
            <ns3:atemp>27.0</ns3:atemp>
            <ns3:hr>86</ns3:hr>
          </ns3:TrackPointExtension>
        </extensions>
      </trkpt>
      <trkpt lat="36.80856644175946712493896484375" lon="-118.41049256734549999237060546875">
        <ele>3399.39990234375</ele>
        <time>2021-06-26T22:30:53.000Z</time>
        <extensions>
          <ns3:TrackPointExtension>
            <ns3:atemp>27.0</ns3:atemp>
            <ns3:hr>87</ns3:hr>
          </ns3:TrackPointExtension>
        </extensions>
      </trkpt>
      <trkpt lat="36.80855671875178813934326171875" lon="-118.41049365699291229248046875">
        <ele>3399</ele>
        <time>2021-06-26T22:30:54.000Z</time>
        <extensions>
          <ns3:TrackPointExtension>
            <ns3:atemp>27.0</ns3:atemp>
            <ns3:hr>87</ns3:hr>
          </ns3:TrackPointExtension>
        </extensions>
      </trkpt>
      <trkpt lat="36.80853291414678096771240234375" lon="-118.41048519127070903778076171875">
        <ele>3398</ele>
        <time>2021-06-26T22:30:57.000Z</time>
        <extensions>
          <ns3:TrackPointExtension>
            <ns3:atemp>27.0</ns3:atemp>
            <ns3:hr>88</ns3:hr>
          </ns3:TrackPointExtension>
        </extensions>
      </trkpt>
      <trkpt lat="36.80849402211606502532958984375" lon="-118.4104663319885730743408203125">
        <ele>3397.60009765625</ele>
        <time>2021-06-26T22:31:02.000Z</time>
        <extensions>
          <ns3:TrackPointExtension>
            <ns3:atemp>27.0</ns3:atemp>
            <ns3:hr>89</ns3:hr>
          </ns3:TrackPointExtension>
        </extensions>
      </trkpt>
      <trkpt lat="36.8084972910583019256591796875" lon="-118.41043137945234775543212890625">
        <ele>3397</ele>
        <time>2021-06-26T22:31:07.000Z</time>
        <extensions>
          <ns3:TrackPointExtension>
            <ns3:atemp>27.0</ns3:atemp>
            <ns3:hr>89</ns3:hr>
          </ns3:TrackPointExtension>
        </extensions>
      </trkpt>
      <trkpt lat="36.80850123055279254913330078125" lon="-118.41042199172079563140869140625">
        <ele>3396.800048828125</ele>
        <time>2021-06-26T22:31:08.000Z</time>
        <extensions>
          <ns3:TrackPointExtension>
            <ns3:atemp>27.0</ns3:atemp>
            <ns3:hr>89</ns3:hr>
          </ns3:TrackPointExtension>
        </extensions>
      </trkpt>
      <trkpt lat="36.80853391997516155242919921875" lon="-118.4103803336620330810546875">
        <ele>3395.800048828125</ele>
        <time>2021-06-26T22:31:13.000Z</time>
        <extensions>
          <ns3:TrackPointExtension>
            <ns3:atemp>27.0</ns3:atemp>
            <ns3:hr>91</ns3:hr>
          </ns3:TrackPointExtension>
        </extensions>
      </trkpt>
      <trkpt lat="36.80855101905763149261474609375" lon="-118.410371281206607818603515625">
        <ele>3395.39990234375</ele>
        <time>2021-06-26T22:31:15.000Z</time>
        <extensions>
          <ns3:TrackPointExtension>
            <ns3:atemp>27.0</ns3:atemp>
            <ns3:hr>90</ns3:hr>
          </ns3:TrackPointExtension>
        </extensions>
      </trkpt>
      <trkpt lat="36.80856124497950077056884765625" lon="-118.41036784462630748748779296875">
        <ele>3395.199951171875</ele>
        <time>2021-06-26T22:31:16.000Z</time>
        <extensions>
          <ns3:TrackPointExtension>
            <ns3:atemp>27.0</ns3:atemp>
            <ns3:hr>90</ns3:hr>
          </ns3:TrackPointExtension>
        </extensions>
      </trkpt>
      <trkpt lat="36.808578930795192718505859375" lon="-118.4103603847324848175048828125">
        <ele>3394.800048828125</ele>
        <time>2021-06-26T22:31:18.000Z</time>
        <extensions>
          <ns3:TrackPointExtension>
            <ns3:atemp>27.0</ns3:atemp>
            <ns3:hr>89</ns3:hr>
          </ns3:TrackPointExtension>
        </extensions>
      </trkpt>
      <trkpt lat="36.808597706258296966552734375" lon="-118.410317637026309967041015625">
        <ele>3393.800048828125</ele>
        <time>2021-06-26T22:31:23.000Z</time>
        <extensions>
          <ns3:TrackPointExtension>
            <ns3:atemp>27.0</ns3:atemp>
            <ns3:hr>89</ns3:hr>
          </ns3:TrackPointExtension>
        </extensions>
      </trkpt>
      <trkpt lat="36.808593012392520904541015625" lon="-118.4103052318096160888671875">
        <ele>3393.60009765625</ele>
        <time>2021-06-26T22:31:24.000Z</time>
        <extensions>
          <ns3:TrackPointExtension>
            <ns3:atemp>27.0</ns3:atemp>
            <ns3:hr>89</ns3:hr>
          </ns3:TrackPointExtension>
        </extensions>
      </trkpt>
      <trkpt lat="36.80859058164060115814208984375" lon="-118.41029743663966655731201171875">
        <ele>3393</ele>
        <time>2021-06-26T22:31:26.000Z</time>
        <extensions>
          <ns3:TrackPointExtension>
            <ns3:atemp>27.0</ns3:atemp>
            <ns3:hr>90</ns3:hr>
          </ns3:TrackPointExtension>
        </extensions>
      </trkpt>
      <trkpt lat="36.80859334766864776611328125" lon="-118.410283438861370086669921875">
        <ele>3393</ele>
        <time>2021-06-26T22:31:30.000Z</time>
        <extensions>
          <ns3:TrackPointExtension>
            <ns3:atemp>27.0</ns3:atemp>
            <ns3:hr>91</ns3:hr>
          </ns3:TrackPointExtension>
        </extensions>
      </trkpt>
      <trkpt lat="36.8085965327918529510498046875" lon="-118.4102779068052768707275390625">
        <ele>3393</ele>
        <time>2021-06-26T22:31:31.000Z</time>
        <extensions>
          <ns3:TrackPointExtension>
            <ns3:atemp>27.0</ns3:atemp>
            <ns3:hr>88</ns3:hr>
          </ns3:TrackPointExtension>
        </extensions>
      </trkpt>
      <trkpt lat="36.8086116202175617218017578125" lon="-118.41026005335152149200439453125">
        <ele>3392.60009765625</ele>
        <time>2021-06-26T22:31:34.000Z</time>
        <extensions>
          <ns3:TrackPointExtension>
            <ns3:atemp>27.0</ns3:atemp>
            <ns3:hr>89</ns3:hr>
          </ns3:TrackPointExtension>
        </extensions>
      </trkpt>
      <trkpt lat="36.808628551661968231201171875" lon="-118.41022267006337642669677734375">
        <ele>3392.199951171875</ele>
        <time>2021-06-26T22:31:38.000Z</time>
        <extensions>
          <ns3:TrackPointExtension>
            <ns3:atemp>27.0</ns3:atemp>
            <ns3:hr>85</ns3:hr>
          </ns3:TrackPointExtension>
        </extensions>
      </trkpt>
      <trkpt lat="36.808617822825908660888671875" lon="-118.41019970364868640899658203125">
        <ele>3391.800048828125</ele>
        <time>2021-06-26T22:31:40.000Z</time>
        <extensions>
          <ns3:TrackPointExtension>
            <ns3:atemp>27.0</ns3:atemp>
            <ns3:hr>82</ns3:hr>
          </ns3:TrackPointExtension>
        </extensions>
      </trkpt>
      <trkpt lat="36.80861572735011577606201171875" lon="-118.41017908416688442230224609375">
        <ele>3391.199951171875</ele>
        <time>2021-06-26T22:31:43.000Z</time>
        <extensions>
          <ns3:TrackPointExtension>
            <ns3:atemp>27.0</ns3:atemp>
            <ns3:hr>81</ns3:hr>
          </ns3:TrackPointExtension>
        </extensions>
      </trkpt>
      <trkpt lat="36.8086314015090465545654296875" lon="-118.41017246246337890625">
        <ele>3391</ele>
        <time>2021-06-26T22:31:45.000Z</time>
        <extensions>
          <ns3:TrackPointExtension>
            <ns3:atemp>27.0</ns3:atemp>
            <ns3:hr>80</ns3:hr>
          </ns3:TrackPointExtension>
        </extensions>
      </trkpt>
      <trkpt lat="36.80861505679786205291748046875" lon="-118.410125859081745147705078125">
        <ele>3389.800048828125</ele>
        <time>2021-06-26T22:31:50.000Z</time>
        <extensions>
          <ns3:TrackPointExtension>
            <ns3:atemp>27.0</ns3:atemp>
            <ns3:hr>77</ns3:hr>
          </ns3:TrackPointExtension>
        </extensions>
      </trkpt>
      <trkpt lat="36.80863182060420513153076171875" lon="-118.41009895317256450653076171875">
        <ele>3388.800048828125</ele>
        <time>2021-06-26T22:31:57.000Z</time>
        <extensions>
          <ns3:TrackPointExtension>
            <ns3:atemp>27.0</ns3:atemp>
            <ns3:hr>79</ns3:hr>
          </ns3:TrackPointExtension>
        </extensions>
      </trkpt>
      <trkpt lat="36.80867674760520458221435546875" lon="-118.41008135117590427398681640625">
        <ele>3388.199951171875</ele>
        <time>2021-06-26T22:32:02.000Z</time>
        <extensions>
          <ns3:TrackPointExtension>
            <ns3:atemp>27.0</ns3:atemp>
            <ns3:hr>82</ns3:hr>
          </ns3:TrackPointExtension>
        </extensions>
      </trkpt>
      <trkpt lat="36.8087132088840007781982421875" lon="-118.4100720472633838653564453125">
        <ele>3387.800048828125</ele>
        <time>2021-06-26T22:32:06.000Z</time>
        <extensions>
          <ns3:TrackPointExtension>
            <ns3:atemp>27.0</ns3:atemp>
            <ns3:hr>82</ns3:hr>
          </ns3:TrackPointExtension>
        </extensions>
      </trkpt>
      <trkpt lat="36.8087517656385898590087890625" lon="-118.41006190516054630279541015625">
        <ele>3387.60009765625</ele>
        <time>2021-06-26T22:32:10.000Z</time>
        <extensions>
          <ns3:TrackPointExtension>
            <ns3:atemp>27.0</ns3:atemp>
            <ns3:hr>81</ns3:hr>
          </ns3:TrackPointExtension>
        </extensions>
      </trkpt>
      <trkpt lat="36.808780096471309661865234375" lon="-118.41005369089543819427490234375">
        <ele>3386.60009765625</ele>
        <time>2021-06-26T22:32:13.000Z</time>
        <extensions>
          <ns3:TrackPointExtension>
            <ns3:atemp>27.0</ns3:atemp>
            <ns3:hr>80</ns3:hr>
          </ns3:TrackPointExtension>
        </extensions>
      </trkpt>
      <trkpt lat="36.80879493243992328643798828125" lon="-118.4100395254790782928466796875">
        <ele>3386</ele>
        <time>2021-06-26T22:32:15.000Z</time>
        <extensions>
          <ns3:TrackPointExtension>
            <ns3:atemp>27.0</ns3:atemp>
            <ns3:hr>78</ns3:hr>
          </ns3:TrackPointExtension>
        </extensions>
      </trkpt>
      <trkpt lat="36.80881462991237640380859375" lon="-118.41000759042799472808837890625">
        <ele>3385.60009765625</ele>
        <time>2021-06-26T22:32:19.000Z</time>
        <extensions>
          <ns3:TrackPointExtension>
            <ns3:atemp>27.0</ns3:atemp>
            <ns3:hr>79</ns3:hr>
          </ns3:TrackPointExtension>
        </extensions>
      </trkpt>
      <trkpt lat="36.80884145200252532958984375" lon="-118.40996970422565937042236328125">
        <ele>3385</ele>
        <time>2021-06-26T22:32:24.000Z</time>
        <extensions>
          <ns3:TrackPointExtension>
            <ns3:atemp>27.0</ns3:atemp>
            <ns3:hr>79</ns3:hr>
          </ns3:TrackPointExtension>
        </extensions>
      </trkpt>
      <trkpt lat="36.80885544978082180023193359375" lon="-118.40994137339293956756591796875">
        <ele>3384</ele>
        <time>2021-06-26T22:32:27.000Z</time>
        <extensions>
          <ns3:TrackPointExtension>
            <ns3:atemp>27.0</ns3:atemp>
            <ns3:hr>79</ns3:hr>
          </ns3:TrackPointExtension>
        </extensions>
      </trkpt>
      <trkpt lat="36.80887372232973575592041015625" lon="-118.40987683273851871490478515625">
        <ele>3382.60009765625</ele>
        <time>2021-06-26T22:32:33.000Z</time>
        <extensions>
          <ns3:TrackPointExtension>
            <ns3:atemp>27.0</ns3:atemp>
            <ns3:hr>79</ns3:hr>
          </ns3:TrackPointExtension>
        </extensions>
      </trkpt>
      <trkpt lat="36.8088955990970134735107421875" lon="-118.40979284606873989105224609375">
        <ele>3382</ele>
        <time>2021-06-26T22:32:41.000Z</time>
        <extensions>
          <ns3:TrackPointExtension>
            <ns3:atemp>27.0</ns3:atemp>
            <ns3:hr>77</ns3:hr>
          </ns3:TrackPointExtension>
        </extensions>
      </trkpt>
      <trkpt lat="36.808904148638248443603515625" lon="-118.40977155603468418121337890625">
        <ele>3381.60009765625</ele>
        <time>2021-06-26T22:32:43.000Z</time>
        <extensions>
          <ns3:TrackPointExtension>
            <ns3:atemp>27.0</ns3:atemp>
            <ns3:hr>77</ns3:hr>
          </ns3:TrackPointExtension>
        </extensions>
      </trkpt>
      <trkpt lat="36.80890993215143680572509765625" lon="-118.4097156487405300140380859375">
        <ele>3380.39990234375</ele>
        <time>2021-06-26T22:32:48.000Z</time>
        <extensions>
          <ns3:TrackPointExtension>
            <ns3:atemp>27.0</ns3:atemp>
            <ns3:hr>74</ns3:hr>
          </ns3:TrackPointExtension>
        </extensions>
      </trkpt>
      <trkpt lat="36.8089024722576141357421875" lon="-118.4097069315612316131591796875">
        <ele>3380.39990234375</ele>
        <time>2021-06-26T22:32:49.000Z</time>
        <extensions>
          <ns3:TrackPointExtension>
            <ns3:atemp>27.0</ns3:atemp>
            <ns3:hr>77</ns3:hr>
          </ns3:TrackPointExtension>
        </extensions>
      </trkpt>
      <trkpt lat="36.80889501236379146575927734375" lon="-118.409700058400630950927734375">
        <ele>3379</ele>
        <time>2021-06-26T22:32:50.000Z</time>
        <extensions>
          <ns3:TrackPointExtension>
            <ns3:atemp>27.0</ns3:atemp>
            <ns3:hr>77</ns3:hr>
          </ns3:TrackPointExtension>
        </extensions>
      </trkpt>
      <trkpt lat="36.80885695852339267730712890625" lon="-118.40968572534620761871337890625">
        <ele>3378.39990234375</ele>
        <time>2021-06-26T22:32:54.000Z</time>
        <extensions>
          <ns3:TrackPointExtension>
            <ns3:atemp>27.0</ns3:atemp>
            <ns3:hr>74</ns3:hr>
          </ns3:TrackPointExtension>
        </extensions>
      </trkpt>
      <trkpt lat="36.8088345788419246673583984375" lon="-118.4096831269562244415283203125">
        <ele>3378.39990234375</ele>
        <time>2021-06-26T22:32:56.000Z</time>
        <extensions>
          <ns3:TrackPointExtension>
            <ns3:atemp>27.0</ns3:atemp>
            <ns3:hr>77</ns3:hr>
          </ns3:TrackPointExtension>
        </extensions>
      </trkpt>
      <trkpt lat="36.80880121886730194091796875" lon="-118.4096791036427021026611328125">
        <ele>3377.39990234375</ele>
        <time>2021-06-26T22:33:00.000Z</time>
        <extensions>
          <ns3:TrackPointExtension>
            <ns3:atemp>27.0</ns3:atemp>
            <ns3:hr>78</ns3:hr>
          </ns3:TrackPointExtension>
        </extensions>
      </trkpt>
      <trkpt lat="36.80877146311104297637939453125" lon="-118.40966611169278621673583984375">
        <ele>3376.60009765625</ele>
        <time>2021-06-26T22:33:05.000Z</time>
        <extensions>
          <ns3:TrackPointExtension>
            <ns3:atemp>27.0</ns3:atemp>
            <ns3:hr>77</ns3:hr>
          </ns3:TrackPointExtension>
        </extensions>
      </trkpt>
      <trkpt lat="36.80876760743558406829833984375" lon="-118.409660495817661285400390625">
        <ele>3376.39990234375</ele>
        <time>2021-06-26T22:33:06.000Z</time>
        <extensions>
          <ns3:TrackPointExtension>
            <ns3:atemp>27.0</ns3:atemp>
            <ns3:hr>76</ns3:hr>
          </ns3:TrackPointExtension>
        </extensions>
      </trkpt>
      <trkpt lat="36.80875872261822223663330078125" lon="-118.40965270064771175384521484375">
        <ele>3376.39990234375</ele>
        <time>2021-06-26T22:33:07.000Z</time>
        <extensions>
          <ns3:TrackPointExtension>
            <ns3:atemp>27.0</ns3:atemp>
            <ns3:hr>76</ns3:hr>
          </ns3:TrackPointExtension>
        </extensions>
      </trkpt>
      <trkpt lat="36.80873374454677104949951171875" lon="-118.40963778086006641387939453125">
        <ele>3376</ele>
        <time>2021-06-26T22:33:09.000Z</time>
        <extensions>
          <ns3:TrackPointExtension>
            <ns3:atemp>27.0</ns3:atemp>
            <ns3:hr>78</ns3:hr>
          </ns3:TrackPointExtension>
        </extensions>
      </trkpt>
      <trkpt lat="36.80868060328066349029541015625" lon="-118.40960525907576084136962890625">
        <ele>3376</ele>
        <time>2021-06-26T22:33:14.000Z</time>
        <extensions>
          <ns3:TrackPointExtension>
            <ns3:atemp>27.0</ns3:atemp>
            <ns3:hr>76</ns3:hr>
          </ns3:TrackPointExtension>
        </extensions>
      </trkpt>
      <trkpt lat="36.8086478300392627716064453125" lon="-118.4095815382897853851318359375">
        <ele>3376.800048828125</ele>
        <time>2021-06-26T22:33:19.000Z</time>
        <extensions>
          <ns3:TrackPointExtension>
            <ns3:atemp>27.0</ns3:atemp>
            <ns3:hr>75</ns3:hr>
          </ns3:TrackPointExtension>
        </extensions>
      </trkpt>
      <trkpt lat="36.808654032647609710693359375" lon="-118.40958346612751483917236328125">
        <ele>3376.800048828125</ele>
        <time>2021-06-26T22:33:20.000Z</time>
        <extensions>
          <ns3:TrackPointExtension>
            <ns3:atemp>27.0</ns3:atemp>
            <ns3:hr>75</ns3:hr>
          </ns3:TrackPointExtension>
        </extensions>
      </trkpt>
      <trkpt lat="36.80869803763926029205322265625" lon="-118.40960919857025146484375">
        <ele>3375.60009765625</ele>
        <time>2021-06-26T22:33:26.000Z</time>
        <extensions>
          <ns3:TrackPointExtension>
            <ns3:atemp>27.0</ns3:atemp>
            <ns3:hr>78</ns3:hr>
          </ns3:TrackPointExtension>
        </extensions>
      </trkpt>
      <trkpt lat="36.8087093532085418701171875" lon="-118.4096159040927886962890625">
        <ele>3375.39990234375</ele>
        <time>2021-06-26T22:33:27.000Z</time>
        <extensions>
          <ns3:TrackPointExtension>
            <ns3:atemp>27.0</ns3:atemp>
            <ns3:hr>78</ns3:hr>
          </ns3:TrackPointExtension>
        </extensions>
      </trkpt>
      <trkpt lat="36.80873827077448368072509765625" lon="-118.40959838591516017913818359375">
        <ele>3375</ele>
        <time>2021-06-26T22:33:30.000Z</time>
        <extensions>
          <ns3:TrackPointExtension>
            <ns3:atemp>27.0</ns3:atemp>
            <ns3:hr>78</ns3:hr>
          </ns3:TrackPointExtension>
        </extensions>
      </trkpt>
      <trkpt lat="36.80877230130136013031005859375" lon="-118.40958665125072002410888671875">
        <ele>3375</ele>
        <time>2021-06-26T22:33:33.000Z</time>
        <extensions>
          <ns3:TrackPointExtension>
            <ns3:atemp>27.0</ns3:atemp>
            <ns3:hr>79</ns3:hr>
          </ns3:TrackPointExtension>
        </extensions>
      </trkpt>
      <trkpt lat="36.8088131211698055267333984375" lon="-118.40955446474254131317138671875">
        <ele>3374.199951171875</ele>
        <time>2021-06-26T22:33:39.000Z</time>
        <extensions>
          <ns3:TrackPointExtension>
            <ns3:atemp>27.0</ns3:atemp>
            <ns3:hr>79</ns3:hr>
          </ns3:TrackPointExtension>
        </extensions>
      </trkpt>
      <trkpt lat="36.80883902125060558319091796875" lon="-118.40954507701098918914794921875">
        <ele>3373.800048828125</ele>
        <time>2021-06-26T22:33:42.000Z</time>
        <extensions>
          <ns3:TrackPointExtension>
            <ns3:atemp>27.0</ns3:atemp>
            <ns3:hr>78</ns3:hr>
          </ns3:TrackPointExtension>
        </extensions>
      </trkpt>
      <trkpt lat="36.80885218083858489990234375" lon="-118.409530408680438995361328125">
        <ele>3373.199951171875</ele>
        <time>2021-06-26T22:33:44.000Z</time>
        <extensions>
          <ns3:TrackPointExtension>
            <ns3:atemp>27.0</ns3:atemp>
            <ns3:hr>78</ns3:hr>
          </ns3:TrackPointExtension>
        </extensions>
      </trkpt>
      <trkpt lat="36.808845810592174530029296875" lon="-118.40951867401599884033203125">
        <ele>3373</ele>
        <time>2021-06-26T22:33:45.000Z</time>
        <extensions>
          <ns3:TrackPointExtension>
            <ns3:atemp>27.0</ns3:atemp>
            <ns3:hr>78</ns3:hr>
          </ns3:TrackPointExtension>
        </extensions>
      </trkpt>
      <trkpt lat="36.8088273704051971435546875" lon="-118.4095081128180027008056640625">
        <ele>3372.199951171875</ele>
        <time>2021-06-26T22:33:47.000Z</time>
        <extensions>
          <ns3:TrackPointExtension>
            <ns3:atemp>27.0</ns3:atemp>
            <ns3:hr>76</ns3:hr>
          </ns3:TrackPointExtension>
        </extensions>
      </trkpt>
      <trkpt lat="36.80882259272038936614990234375" lon="-118.40949964709579944610595703125">
        <ele>3372.199951171875</ele>
        <time>2021-06-26T22:33:48.000Z</time>
        <extensions>
          <ns3:TrackPointExtension>
            <ns3:atemp>27.0</ns3:atemp>
            <ns3:hr>77</ns3:hr>
          </ns3:TrackPointExtension>
        </extensions>
      </trkpt>
      <trkpt lat="36.8087871372699737548828125" lon="-118.40947031043469905853271484375">
        <ele>3371.199951171875</ele>
        <time>2021-06-26T22:33:53.000Z</time>
        <extensions>
          <ns3:TrackPointExtension>
            <ns3:atemp>27.0</ns3:atemp>
            <ns3:hr>77</ns3:hr>
          </ns3:TrackPointExtension>
        </extensions>
      </trkpt>
      <trkpt lat="36.8087792582809925079345703125" lon="-118.409461677074432373046875">
        <ele>3371.39990234375</ele>
        <time>2021-06-26T22:33:54.000Z</time>
        <extensions>
          <ns3:TrackPointExtension>
            <ns3:atemp>27.0</ns3:atemp>
            <ns3:hr>77</ns3:hr>
          </ns3:TrackPointExtension>
        </extensions>
      </trkpt>
      <trkpt lat="36.80874757468700408935546875" lon="-118.40944834984838962554931640625">
        <ele>3371.199951171875</ele>
        <time>2021-06-26T22:33:57.000Z</time>
        <extensions>
          <ns3:TrackPointExtension>
            <ns3:atemp>27.0</ns3:atemp>
            <ns3:hr>76</ns3:hr>
          </ns3:TrackPointExtension>
        </extensions>
      </trkpt>
      <trkpt lat="36.8087361752986907958984375" lon="-118.409429155290126800537109375">
        <ele>3371.199951171875</ele>
        <time>2021-06-26T22:34:00.000Z</time>
        <extensions>
          <ns3:TrackPointExtension>
            <ns3:atemp>27.0</ns3:atemp>
            <ns3:hr>74</ns3:hr>
          </ns3:TrackPointExtension>
        </extensions>
      </trkpt>
      <trkpt lat="36.808732487261295318603515625" lon="-118.409419767558574676513671875">
        <ele>3371</ele>
        <time>2021-06-26T22:34:01.000Z</time>
        <extensions>
          <ns3:TrackPointExtension>
            <ns3:atemp>27.0</ns3:atemp>
            <ns3:hr>76</ns3:hr>
          </ns3:TrackPointExtension>
        </extensions>
      </trkpt>
      <trkpt lat="36.8087200820446014404296875" lon="-118.409400992095470428466796875">
        <ele>3371</ele>
        <time>2021-06-26T22:34:03.000Z</time>
        <extensions>
          <ns3:TrackPointExtension>
            <ns3:atemp>27.0</ns3:atemp>
            <ns3:hr>73</ns3:hr>
          </ns3:TrackPointExtension>
        </extensions>
      </trkpt>
      <trkpt lat="36.8087115325033664703369140625" lon="-118.40939437039196491241455078125">
        <ele>3370.60009765625</ele>
        <time>2021-06-26T22:34:04.000Z</time>
        <extensions>
          <ns3:TrackPointExtension>
            <ns3:atemp>27.0</ns3:atemp>
            <ns3:hr>76</ns3:hr>
          </ns3:TrackPointExtension>
        </extensions>
      </trkpt>
      <trkpt lat="36.808702647686004638671875" lon="-118.409388922154903411865234375">
        <ele>3370.199951171875</ele>
        <time>2021-06-26T22:34:05.000Z</time>
        <extensions>
          <ns3:TrackPointExtension>
            <ns3:atemp>27.0</ns3:atemp>
            <ns3:hr>76</ns3:hr>
          </ns3:TrackPointExtension>
        </extensions>
      </trkpt>
      <trkpt lat="36.80868454277515411376953125" lon="-118.40938062407076358795166015625">
        <ele>3369.800048828125</ele>
        <time>2021-06-26T22:34:07.000Z</time>
        <extensions>
          <ns3:TrackPointExtension>
            <ns3:atemp>27.0</ns3:atemp>
            <ns3:hr>72</ns3:hr>
          </ns3:TrackPointExtension>
        </extensions>
      </trkpt>
      <trkpt lat="36.80867624469101428985595703125" lon="-118.40937861241400241851806640625">
        <ele>3369.800048828125</ele>
        <time>2021-06-26T22:34:08.000Z</time>
        <extensions>
          <ns3:TrackPointExtension>
            <ns3:atemp>27.0</ns3:atemp>
            <ns3:hr>77</ns3:hr>
          </ns3:TrackPointExtension>
        </extensions>
      </trkpt>
      <trkpt lat="36.8086655996739864349365234375" lon="-118.40937039814889430999755859375">
        <ele>3369.39990234375</ele>
        <time>2021-06-26T22:34:10.000Z</time>
        <extensions>
          <ns3:TrackPointExtension>
            <ns3:atemp>27.0</ns3:atemp>
            <ns3:hr>77</ns3:hr>
          </ns3:TrackPointExtension>
        </extensions>
      </trkpt>
      <trkpt lat="36.80867272429168224334716796875" lon="-118.4093626029789447784423828125">
        <ele>3369.39990234375</ele>
        <time>2021-06-26T22:34:13.000Z</time>
        <extensions>
          <ns3:TrackPointExtension>
            <ns3:atemp>27.0</ns3:atemp>
            <ns3:hr>76</ns3:hr>
          </ns3:TrackPointExtension>
        </extensions>
      </trkpt>
      <trkpt lat="36.80868479423224925994873046875" lon="-118.40934793464839458465576171875">
        <ele>3369</ele>
        <time>2021-06-26T22:34:15.000Z</time>
        <extensions>
          <ns3:TrackPointExtension>
            <ns3:atemp>27.0</ns3:atemp>
            <ns3:hr>76</ns3:hr>
          </ns3:TrackPointExtension>
        </extensions>
      </trkpt>
      <trkpt lat="36.80868730880320072174072265625" lon="-118.4093317575752735137939453125">
        <ele>3368.39990234375</ele>
        <time>2021-06-26T22:34:17.000Z</time>
        <extensions>
          <ns3:TrackPointExtension>
            <ns3:atemp>27.0</ns3:atemp>
            <ns3:hr>76</ns3:hr>
          </ns3:TrackPointExtension>
        </extensions>
      </trkpt>
      <trkpt lat="36.808684207499027252197265625" lon="-118.40931306593120098114013671875">
        <ele>3368.199951171875</ele>
        <time>2021-06-26T22:34:19.000Z</time>
        <extensions>
          <ns3:TrackPointExtension>
            <ns3:atemp>27.0</ns3:atemp>
            <ns3:hr>77</ns3:hr>
          </ns3:TrackPointExtension>
        </extensions>
      </trkpt>
      <trkpt lat="36.80867909453809261322021484375" lon="-118.40930803678929805755615234375">
        <ele>3368</ele>
        <time>2021-06-26T22:34:20.000Z</time>
        <extensions>
          <ns3:TrackPointExtension>
            <ns3:atemp>27.0</ns3:atemp>
            <ns3:hr>77</ns3:hr>
          </ns3:TrackPointExtension>
        </extensions>
      </trkpt>
      <trkpt lat="36.8086686171591281890869140625" lon="-118.4092999063432216644287109375">
        <ele>3366.800048828125</ele>
        <time>2021-06-26T22:34:25.000Z</time>
        <extensions>
          <ns3:TrackPointExtension>
            <ns3:atemp>27.0</ns3:atemp>
            <ns3:hr>79</ns3:hr>
          </ns3:TrackPointExtension>
        </extensions>
      </trkpt>
      <trkpt lat="36.808663420379161834716796875" lon="-118.4092814661562442779541015625">
        <ele>3366.60009765625</ele>
        <time>2021-06-26T22:34:46.000Z</time>
        <extensions>
          <ns3:TrackPointExtension>
            <ns3:atemp>27.0</ns3:atemp>
            <ns3:hr>78</ns3:hr>
          </ns3:TrackPointExtension>
        </extensions>
      </trkpt>
      <trkpt lat="36.80870843119919300079345703125" lon="-118.40924249030649662017822265625">
        <ele>3365.60009765625</ele>
        <time>2021-06-26T22:34:51.000Z</time>
        <extensions>
          <ns3:TrackPointExtension>
            <ns3:atemp>27.0</ns3:atemp>
            <ns3:hr>77</ns3:hr>
          </ns3:TrackPointExtension>
        </extensions>
      </trkpt>
      <trkpt lat="36.808749921619892120361328125" lon="-118.40921198017895221710205078125">
        <ele>3364.800048828125</ele>
        <time>2021-06-26T22:34:54.000Z</time>
        <extensions>
          <ns3:TrackPointExtension>
            <ns3:atemp>27.0</ns3:atemp>
            <ns3:hr>77</ns3:hr>
          </ns3:TrackPointExtension>
        </extensions>
      </trkpt>
      <trkpt lat="36.80874112062156200408935546875" lon="-118.4091839008033275604248046875">
        <ele>3364.39990234375</ele>
        <time>2021-06-26T22:34:57.000Z</time>
        <extensions>
          <ns3:TrackPointExtension>
            <ns3:atemp>27.0</ns3:atemp>
            <ns3:hr>75</ns3:hr>
          </ns3:TrackPointExtension>
        </extensions>
      </trkpt>
      <trkpt lat="36.80873575620353221893310546875" lon="-118.40917828492820262908935546875">
        <ele>3364.199951171875</ele>
        <time>2021-06-26T22:34:58.000Z</time>
        <extensions>
          <ns3:TrackPointExtension>
            <ns3:atemp>27.0</ns3:atemp>
            <ns3:hr>74</ns3:hr>
          </ns3:TrackPointExtension>
        </extensions>
      </trkpt>
      <trkpt lat="36.80873391218483448028564453125" lon="-118.40915900655090808868408203125">
        <ele>3363.800048828125</ele>
        <time>2021-06-26T22:35:01.000Z</time>
        <extensions>
          <ns3:TrackPointExtension>
            <ns3:atemp>27.0</ns3:atemp>
            <ns3:hr>72</ns3:hr>
          </ns3:TrackPointExtension>
        </extensions>
      </trkpt>
      <trkpt lat="36.80873994715511798858642578125" lon="-118.4091537259519100189208984375">
        <ele>3363.199951171875</ele>
        <time>2021-06-26T22:35:02.000Z</time>
        <extensions>
          <ns3:TrackPointExtension>
            <ns3:atemp>27.0</ns3:atemp>
            <ns3:hr>72</ns3:hr>
          </ns3:TrackPointExtension>
        </extensions>
      </trkpt>
      <trkpt lat="36.8087437190115451812744140625" lon="-118.4091466851532459259033203125">
        <ele>3362.800048828125</ele>
        <time>2021-06-26T22:35:03.000Z</time>
        <extensions>
          <ns3:TrackPointExtension>
            <ns3:atemp>27.0</ns3:atemp>
            <ns3:hr>72</ns3:hr>
          </ns3:TrackPointExtension>
        </extensions>
      </trkpt>
      <trkpt lat="36.80874195881187915802001953125" lon="-118.409085161983966827392578125">
        <ele>3361.800048828125</ele>
        <time>2021-06-26T22:35:07.000Z</time>
        <extensions>
          <ns3:TrackPointExtension>
            <ns3:atemp>27.0</ns3:atemp>
            <ns3:hr>74</ns3:hr>
          </ns3:TrackPointExtension>
        </extensions>
      </trkpt>
      <trkpt lat="36.8087361752986907958984375" lon="-118.40907585807144641876220703125">
        <ele>3361.60009765625</ele>
        <time>2021-06-26T22:35:08.000Z</time>
        <extensions>
          <ns3:TrackPointExtension>
            <ns3:atemp>27.0</ns3:atemp>
            <ns3:hr>70</ns3:hr>
          </ns3:TrackPointExtension>
        </extensions>
      </trkpt>
      <trkpt lat="36.80872804485261440277099609375" lon="-118.40906797908246517181396484375">
        <ele>3361.60009765625</ele>
        <time>2021-06-26T22:35:09.000Z</time>
        <extensions>
          <ns3:TrackPointExtension>
            <ns3:atemp>27.0</ns3:atemp>
            <ns3:hr>70</ns3:hr>
          </ns3:TrackPointExtension>
        </extensions>
      </trkpt>
      <trkpt lat="36.8087085150182247161865234375" lon="-118.40905624441802501678466796875">
        <ele>3361.60009765625</ele>
        <time>2021-06-26T22:35:11.000Z</time>
        <extensions>
          <ns3:TrackPointExtension>
            <ns3:atemp>27.0</ns3:atemp>
            <ns3:hr>75</ns3:hr>
          </ns3:TrackPointExtension>
        </extensions>
      </trkpt>
      <trkpt lat="36.8087039887905120849609375" lon="-118.40905171819031238555908203125">
        <ele>3361.39990234375</ele>
        <time>2021-06-26T22:35:12.000Z</time>
        <extensions>
          <ns3:TrackPointExtension>
            <ns3:atemp>27.0</ns3:atemp>
            <ns3:hr>75</ns3:hr>
          </ns3:TrackPointExtension>
        </extensions>
      </trkpt>
      <trkpt lat="36.80870004929602146148681640625" lon="-118.40904132463037967681884765625">
        <ele>3361.199951171875</ele>
        <time>2021-06-26T22:35:14.000Z</time>
        <extensions>
          <ns3:TrackPointExtension>
            <ns3:atemp>27.0</ns3:atemp>
            <ns3:hr>78</ns3:hr>
          </ns3:TrackPointExtension>
        </extensions>
      </trkpt>
      <trkpt lat="36.808678843080997467041015625" lon="-118.4090300090610980987548828125">
        <ele>3360.39990234375</ele>
        <time>2021-06-26T22:35:17.000Z</time>
        <extensions>
          <ns3:TrackPointExtension>
            <ns3:atemp>27.0</ns3:atemp>
            <ns3:hr>80</ns3:hr>
          </ns3:TrackPointExtension>
        </extensions>
      </trkpt>
      <trkpt lat="36.80867942981421947479248046875" lon="-118.409018106758594512939453125">
        <ele>3360.39990234375</ele>
        <time>2021-06-26T22:35:20.000Z</time>
        <extensions>
          <ns3:TrackPointExtension>
            <ns3:atemp>27.0</ns3:atemp>
            <ns3:hr>80</ns3:hr>
          </ns3:TrackPointExtension>
        </extensions>
      </trkpt>
      <trkpt lat="36.8086716346442699432373046875" lon="-118.40900645591318607330322265625">
        <ele>3360</ele>
        <time>2021-06-26T22:35:22.000Z</time>
        <extensions>
          <ns3:TrackPointExtension>
            <ns3:atemp>27.0</ns3:atemp>
            <ns3:hr>81</ns3:hr>
          </ns3:TrackPointExtension>
        </extensions>
      </trkpt>
      <trkpt lat="36.808669455349445343017578125" lon="-118.40900327078998088836669921875">
        <ele>3359.800048828125</ele>
        <time>2021-06-26T22:35:23.000Z</time>
        <extensions>
          <ns3:TrackPointExtension>
            <ns3:atemp>27.0</ns3:atemp>
            <ns3:hr>82</ns3:hr>
          </ns3:TrackPointExtension>
        </extensions>
      </trkpt>
      <trkpt lat="36.8086612410843372344970703125" lon="-118.4090058691799640655517578125">
        <ele>3359.60009765625</ele>
        <time>2021-06-26T22:35:26.000Z</time>
        <extensions>
          <ns3:TrackPointExtension>
            <ns3:atemp>27.0</ns3:atemp>
            <ns3:hr>85</ns3:hr>
          </ns3:TrackPointExtension>
        </extensions>
      </trkpt>
      <trkpt lat="36.80865780450403690338134765625" lon="-118.4089989960193634033203125">
        <ele>3359.60009765625</ele>
        <time>2021-06-26T22:35:29.000Z</time>
        <extensions>
          <ns3:TrackPointExtension>
            <ns3:atemp>27.0</ns3:atemp>
            <ns3:hr>87</ns3:hr>
          </ns3:TrackPointExtension>
        </extensions>
      </trkpt>
      <trkpt lat="36.80867942981421947479248046875" lon="-118.40901575982570648193359375">
        <ele>3360.39990234375</ele>
        <time>2021-06-26T22:35:36.000Z</time>
        <extensions>
          <ns3:TrackPointExtension>
            <ns3:atemp>27.0</ns3:atemp>
            <ns3:hr>87</ns3:hr>
          </ns3:TrackPointExtension>
        </extensions>
      </trkpt>
      <trkpt lat="36.80867942981421947479248046875" lon="-118.40901575982570648193359375">
        <ele>3359.60009765625</ele>
        <time>2021-06-26T22:35:41.000Z</time>
        <extensions>
          <ns3:TrackPointExtension>
            <ns3:atemp>27.0</ns3:atemp>
            <ns3:hr>90</ns3:hr>
          </ns3:TrackPointExtension>
        </extensions>
      </trkpt>
      <trkpt lat="36.80867942981421947479248046875" lon="-118.40901575982570648193359375">
        <ele>3359.39990234375</ele>
        <time>2021-06-26T22:35:44.000Z</time>
        <extensions>
          <ns3:TrackPointExtension>
            <ns3:atemp>27.0</ns3:atemp>
            <ns3:hr>91</ns3:hr>
          </ns3:TrackPointExtension>
        </extensions>
      </trkpt>
      <trkpt lat="36.808676160871982574462890625" lon="-118.40901575982570648193359375">
        <ele>3359.60009765625</ele>
        <time>2021-06-26T22:35:49.000Z</time>
        <extensions>
          <ns3:TrackPointExtension>
            <ns3:atemp>27.0</ns3:atemp>
            <ns3:hr>94</ns3:hr>
          </ns3:TrackPointExtension>
        </extensions>
      </trkpt>
      <trkpt lat="36.80865696631371974945068359375" lon="-118.40902087278664112091064453125">
        <ele>3360</ele>
        <time>2021-06-26T22:36:14.000Z</time>
        <extensions>
          <ns3:TrackPointExtension>
            <ns3:atemp>27.0</ns3:atemp>
            <ns3:hr>91</ns3:hr>
          </ns3:TrackPointExtension>
        </extensions>
      </trkpt>
      <trkpt lat="36.8086548708379268646240234375" lon="-118.40902104042470455169677734375">
        <ele>3360</ele>
        <time>2021-06-26T22:36:22.000Z</time>
        <extensions>
          <ns3:TrackPointExtension>
            <ns3:atemp>27.0</ns3:atemp>
            <ns3:hr>88</ns3:hr>
          </ns3:TrackPointExtension>
        </extensions>
      </trkpt>
      <trkpt lat="36.80864959023892879486083984375" lon="-118.408985249698162078857421875">
        <ele>3358.199951171875</ele>
        <time>2021-06-26T22:36:40.000Z</time>
        <extensions>
          <ns3:TrackPointExtension>
            <ns3:atemp>27.0</ns3:atemp>
            <ns3:hr>89</ns3:hr>
          </ns3:TrackPointExtension>
        </extensions>
      </trkpt>
      <trkpt lat="36.8086350895464420318603515625" lon="-118.40893269516527652740478515625">
        <ele>3357.800048828125</ele>
        <time>2021-06-26T22:36:43.000Z</time>
        <extensions>
          <ns3:TrackPointExtension>
            <ns3:atemp>27.0</ns3:atemp>
            <ns3:hr>92</ns3:hr>
          </ns3:TrackPointExtension>
        </extensions>
      </trkpt>
      <trkpt lat="36.8086260370910167694091796875" lon="-118.40891894884407520294189453125">
        <ele>3357.199951171875</ele>
        <time>2021-06-26T22:36:44.000Z</time>
        <extensions>
          <ns3:TrackPointExtension>
            <ns3:atemp>27.0</ns3:atemp>
            <ns3:hr>92</ns3:hr>
          </ns3:TrackPointExtension>
        </extensions>
      </trkpt>
      <trkpt lat="36.80856761522591114044189453125" lon="-118.40885474346578121185302734375">
        <ele>3356.199951171875</ele>
        <time>2021-06-26T22:36:51.000Z</time>
        <extensions>
          <ns3:TrackPointExtension>
            <ns3:atemp>27.0</ns3:atemp>
            <ns3:hr>91</ns3:hr>
          </ns3:TrackPointExtension>
        </extensions>
      </trkpt>
      <trkpt lat="36.8085643462836742401123046875" lon="-118.4088486246764659881591796875">
        <ele>3355.800048828125</ele>
        <time>2021-06-26T22:36:52.000Z</time>
        <extensions>
          <ns3:TrackPointExtension>
            <ns3:atemp>27.0</ns3:atemp>
            <ns3:hr>90</ns3:hr>
          </ns3:TrackPointExtension>
        </extensions>
      </trkpt>
      <trkpt lat="36.80855772458016872406005859375" lon="-118.40883965604007244110107421875">
        <ele>3355.800048828125</ele>
        <time>2021-06-26T22:36:53.000Z</time>
        <extensions>
          <ns3:TrackPointExtension>
            <ns3:atemp>27.0</ns3:atemp>
            <ns3:hr>92</ns3:hr>
          </ns3:TrackPointExtension>
        </extensions>
      </trkpt>
      <trkpt lat="36.80852495133876800537109375" lon="-118.40880386531352996826171875">
        <ele>3354.39990234375</ele>
        <time>2021-06-26T22:36:58.000Z</time>
        <extensions>
          <ns3:TrackPointExtension>
            <ns3:atemp>27.0</ns3:atemp>
            <ns3:hr>92</ns3:hr>
          </ns3:TrackPointExtension>
        </extensions>
      </trkpt>
      <trkpt lat="36.8085055053234100341796875" lon="-118.40877461247146129608154296875">
        <ele>3354</ele>
        <time>2021-06-26T22:37:01.000Z</time>
        <extensions>
          <ns3:TrackPointExtension>
            <ns3:atemp>27.0</ns3:atemp>
            <ns3:hr>88</ns3:hr>
          </ns3:TrackPointExtension>
        </extensions>
      </trkpt>
      <trkpt lat="36.80849737487733364105224609375" lon="-118.40877193026244640350341796875">
        <ele>3354</ele>
        <time>2021-06-26T22:37:02.000Z</time>
        <extensions>
          <ns3:TrackPointExtension>
            <ns3:atemp>27.0</ns3:atemp>
            <ns3:hr>90</ns3:hr>
          </ns3:TrackPointExtension>
        </extensions>
      </trkpt>
      <trkpt lat="36.80847172625362873077392578125" lon="-118.40877092443406581878662109375">
        <ele>3353.39990234375</ele>
        <time>2021-06-26T22:37:05.000Z</time>
        <extensions>
          <ns3:TrackPointExtension>
            <ns3:atemp>27.0</ns3:atemp>
            <ns3:hr>91</ns3:hr>
          </ns3:TrackPointExtension>
        </extensions>
      </trkpt>
      <trkpt lat="36.80846351198852062225341796875" lon="-118.408765979111194610595703125">
        <ele>3353.199951171875</ele>
        <time>2021-06-26T22:37:06.000Z</time>
        <extensions>
          <ns3:TrackPointExtension>
            <ns3:atemp>27.0</ns3:atemp>
            <ns3:hr>91</ns3:hr>
          </ns3:TrackPointExtension>
        </extensions>
      </trkpt>
      <trkpt lat="36.808431409299373626708984375" lon="-118.40874619781970977783203125">
        <ele>3353</ele>
        <time>2021-06-26T22:37:10.000Z</time>
        <extensions>
          <ns3:TrackPointExtension>
            <ns3:atemp>27.0</ns3:atemp>
            <ns3:hr>88</ns3:hr>
          </ns3:TrackPointExtension>
        </extensions>
      </trkpt>
      <trkpt lat="36.808407269418239593505859375" lon="-118.40871845372021198272705078125">
        <ele>3352</ele>
        <time>2021-06-26T22:37:14.000Z</time>
        <extensions>
          <ns3:TrackPointExtension>
            <ns3:atemp>27.0</ns3:atemp>
            <ns3:hr>87</ns3:hr>
          </ns3:TrackPointExtension>
        </extensions>
      </trkpt>
      <trkpt lat="36.80840098299086093902587890625" lon="-118.408706299960613250732421875">
        <ele>3352</ele>
        <time>2021-06-26T22:37:15.000Z</time>
        <extensions>
          <ns3:TrackPointExtension>
            <ns3:atemp>27.0</ns3:atemp>
            <ns3:hr>87</ns3:hr>
          </ns3:TrackPointExtension>
        </extensions>
      </trkpt>
      <trkpt lat="36.8083839677274227142333984375" lon="-118.4086503088474273681640625">
        <ele>3350.800048828125</ele>
        <time>2021-06-26T22:37:21.000Z</time>
        <extensions>
          <ns3:TrackPointExtension>
            <ns3:atemp>27.0</ns3:atemp>
            <ns3:hr>86</ns3:hr>
          </ns3:TrackPointExtension>
        </extensions>
      </trkpt>
      <trkpt lat="36.8083819560706615447998046875" lon="-118.4086382389068603515625">
        <ele>3350.800048828125</ele>
        <time>2021-06-26T22:37:22.000Z</time>
        <extensions>
          <ns3:TrackPointExtension>
            <ns3:atemp>27.0</ns3:atemp>
            <ns3:hr>86</ns3:hr>
          </ns3:TrackPointExtension>
        </extensions>
      </trkpt>
      <trkpt lat="36.8083786033093929290771484375" lon="-118.40859540738165378570556640625">
        <ele>3349.800048828125</ele>
        <time>2021-06-26T22:37:26.000Z</time>
        <extensions>
          <ns3:TrackPointExtension>
            <ns3:atemp>27.0</ns3:atemp>
            <ns3:hr>89</ns3:hr>
          </ns3:TrackPointExtension>
        </extensions>
      </trkpt>
      <trkpt lat="36.808364689350128173828125" lon="-118.40851795859634876251220703125">
        <ele>3348.60009765625</ele>
        <time>2021-06-26T22:37:32.000Z</time>
        <extensions>
          <ns3:TrackPointExtension>
            <ns3:atemp>27.0</ns3:atemp>
            <ns3:hr>88</ns3:hr>
          </ns3:TrackPointExtension>
        </extensions>
      </trkpt>
      <trkpt lat="36.80831951089203357696533203125" lon="-118.408421985805034637451171875">
        <ele>3348.39990234375</ele>
        <time>2021-06-26T22:37:41.000Z</time>
        <extensions>
          <ns3:TrackPointExtension>
            <ns3:atemp>27.0</ns3:atemp>
            <ns3:hr>89</ns3:hr>
          </ns3:TrackPointExtension>
        </extensions>
      </trkpt>
      <trkpt lat="36.80829637683928012847900390625" lon="-118.40834780596196651458740234375">
        <ele>3348</ele>
        <time>2021-06-26T22:37:48.000Z</time>
        <extensions>
          <ns3:TrackPointExtension>
            <ns3:atemp>27.0</ns3:atemp>
            <ns3:hr>89</ns3:hr>
          </ns3:TrackPointExtension>
        </extensions>
      </trkpt>
      <trkpt lat="36.80827257223427295684814453125" lon="-118.4083128534257411956787109375">
        <ele>3347.60009765625</ele>
        <time>2021-06-26T22:37:51.000Z</time>
        <extensions>
          <ns3:TrackPointExtension>
            <ns3:atemp>27.0</ns3:atemp>
            <ns3:hr>88</ns3:hr>
          </ns3:TrackPointExtension>
        </extensions>
      </trkpt>
      <trkpt lat="36.8082377873361110687255859375" lon="-118.40824973769485950469970703125">
        <ele>3346.39990234375</ele>
        <time>2021-06-26T22:37:57.000Z</time>
        <extensions>
          <ns3:TrackPointExtension>
            <ns3:atemp>27.0</ns3:atemp>
            <ns3:hr>87</ns3:hr>
          </ns3:TrackPointExtension>
        </extensions>
      </trkpt>
      <trkpt lat="36.8082203529775142669677734375" lon="-118.40821537189185619354248046875">
        <ele>3346.39990234375</ele>
        <time>2021-06-26T22:38:00.000Z</time>
        <extensions>
          <ns3:TrackPointExtension>
            <ns3:atemp>27.0</ns3:atemp>
            <ns3:hr>90</ns3:hr>
          </ns3:TrackPointExtension>
        </extensions>
      </trkpt>
      <trkpt lat="36.8082102946937084197998046875" lon="-118.40819357894361019134521484375">
        <ele>3346.39990234375</ele>
        <time>2021-06-26T22:38:02.000Z</time>
        <extensions>
          <ns3:TrackPointExtension>
            <ns3:atemp>27.0</ns3:atemp>
            <ns3:hr>87</ns3:hr>
          </ns3:TrackPointExtension>
        </extensions>
      </trkpt>
      <trkpt lat="36.80816729553043842315673828125" lon="-118.40814211405813694000244140625">
        <ele>3346.39990234375</ele>
        <time>2021-06-26T22:38:07.000Z</time>
        <extensions>
          <ns3:TrackPointExtension>
            <ns3:atemp>27.0</ns3:atemp>
            <ns3:hr>87</ns3:hr>
          </ns3:TrackPointExtension>
        </extensions>
      </trkpt>
      <trkpt lat="36.80811130441725254058837890625" lon="-118.40812283568084239959716796875">
        <ele>3347</ele>
        <time>2021-06-26T22:38:13.000Z</time>
        <extensions>
          <ns3:TrackPointExtension>
            <ns3:atemp>27.0</ns3:atemp>
            <ns3:hr>90</ns3:hr>
          </ns3:TrackPointExtension>
        </extensions>
      </trkpt>
      <trkpt lat="36.80810610763728618621826171875" lon="-118.40812317095696926116943359375">
        <ele>3347.199951171875</ele>
        <time>2021-06-26T22:38:14.000Z</time>
        <extensions>
          <ns3:TrackPointExtension>
            <ns3:atemp>27.0</ns3:atemp>
            <ns3:hr>86</ns3:hr>
          </ns3:TrackPointExtension>
        </extensions>
      </trkpt>
      <trkpt lat="36.8080993182957172393798828125" lon="-118.408124260604381561279296875">
        <ele>3347.199951171875</ele>
        <time>2021-06-26T22:38:15.000Z</time>
        <extensions>
          <ns3:TrackPointExtension>
            <ns3:atemp>27.0</ns3:atemp>
            <ns3:hr>86</ns3:hr>
          </ns3:TrackPointExtension>
        </extensions>
      </trkpt>
      <trkpt lat="36.8080926127731800079345703125" lon="-118.40812300331890583038330078125">
        <ele>3347.800048828125</ele>
        <time>2021-06-26T22:38:16.000Z</time>
        <extensions>
          <ns3:TrackPointExtension>
            <ns3:atemp>27.0</ns3:atemp>
            <ns3:hr>86</ns3:hr>
          </ns3:TrackPointExtension>
        </extensions>
      </trkpt>
      <trkpt lat="36.8080859072506427764892578125" lon="-118.40811881236732006072998046875">
        <ele>3347.800048828125</ele>
        <time>2021-06-26T22:38:17.000Z</time>
        <extensions>
          <ns3:TrackPointExtension>
            <ns3:atemp>27.0</ns3:atemp>
            <ns3:hr>84</ns3:hr>
          </ns3:TrackPointExtension>
        </extensions>
      </trkpt>
      <trkpt lat="36.80806956253945827484130859375" lon="-118.4080915711820125579833984375">
        <ele>3347.800048828125</ele>
        <time>2021-06-26T22:38:20.000Z</time>
        <extensions>
          <ns3:TrackPointExtension>
            <ns3:atemp>27.0</ns3:atemp>
            <ns3:hr>87</ns3:hr>
          </ns3:TrackPointExtension>
        </extensions>
      </trkpt>
      <trkpt lat="36.808071322739124298095703125" lon="-118.4080657549202442169189453125">
        <ele>3347.60009765625</ele>
        <time>2021-06-26T22:38:23.000Z</time>
        <extensions>
          <ns3:TrackPointExtension>
            <ns3:atemp>27.0</ns3:atemp>
            <ns3:hr>90</ns3:hr>
          </ns3:TrackPointExtension>
        </extensions>
      </trkpt>
      <trkpt lat="36.8080610968172550201416015625" lon="-118.40802376158535480499267578125">
        <ele>3347.199951171875</ele>
        <time>2021-06-26T22:38:26.000Z</time>
        <extensions>
          <ns3:TrackPointExtension>
            <ns3:atemp>27.0</ns3:atemp>
            <ns3:hr>92</ns3:hr>
          </ns3:TrackPointExtension>
        </extensions>
      </trkpt>
      <trkpt lat="36.8080473504960536956787109375" lon="-118.4079893119633197784423828125">
        <ele>3346.39990234375</ele>
        <time>2021-06-26T22:38:29.000Z</time>
        <extensions>
          <ns3:TrackPointExtension>
            <ns3:atemp>27.0</ns3:atemp>
            <ns3:hr>93</ns3:hr>
          </ns3:TrackPointExtension>
        </extensions>
      </trkpt>
      <trkpt lat="36.80804760195314884185791015625" lon="-118.407976068556308746337890625">
        <ele>3346.39990234375</ele>
        <time>2021-06-26T22:38:30.000Z</time>
        <extensions>
          <ns3:TrackPointExtension>
            <ns3:atemp>27.0</ns3:atemp>
            <ns3:hr>93</ns3:hr>
          </ns3:TrackPointExtension>
        </extensions>
      </trkpt>
      <trkpt lat="36.80804911069571971893310546875" lon="-118.4079484082758426666259765625">
        <ele>3345.39990234375</ele>
        <time>2021-06-26T22:38:33.000Z</time>
        <extensions>
          <ns3:TrackPointExtension>
            <ns3:atemp>27.0</ns3:atemp>
            <ns3:hr>93</ns3:hr>
          </ns3:TrackPointExtension>
        </extensions>
      </trkpt>
      <trkpt lat="36.8080409802496433258056640625" lon="-118.40793617069721221923828125">
        <ele>3345.39990234375</ele>
        <time>2021-06-26T22:38:35.000Z</time>
        <extensions>
          <ns3:TrackPointExtension>
            <ns3:atemp>27.0</ns3:atemp>
            <ns3:hr>94</ns3:hr>
          </ns3:TrackPointExtension>
        </extensions>
      </trkpt>
      <trkpt lat="36.80804349482059478759765625" lon="-118.407919742166996002197265625">
        <ele>3345</ele>
        <time>2021-06-26T22:38:38.000Z</time>
        <extensions>
          <ns3:TrackPointExtension>
            <ns3:atemp>27.0</ns3:atemp>
            <ns3:hr>92</ns3:hr>
          </ns3:TrackPointExtension>
        </extensions>
      </trkpt>
      <trkpt lat="36.8080409802496433258056640625" lon="-118.407906331121921539306640625">
        <ele>3344.800048828125</ele>
        <time>2021-06-26T22:38:39.000Z</time>
        <extensions>
          <ns3:TrackPointExtension>
            <ns3:atemp>27.0</ns3:atemp>
            <ns3:hr>91</ns3:hr>
          </ns3:TrackPointExtension>
        </extensions>
      </trkpt>
      <trkpt lat="36.8080294132232666015625" lon="-118.4078501723706722259521484375">
        <ele>3344.199951171875</ele>
        <time>2021-06-26T22:38:44.000Z</time>
        <extensions>
          <ns3:TrackPointExtension>
            <ns3:atemp>27.0</ns3:atemp>
            <ns3:hr>92</ns3:hr>
          </ns3:TrackPointExtension>
        </extensions>
      </trkpt>
      <trkpt lat="36.80802446790039539337158203125" lon="-118.40783801861107349395751953125">
        <ele>3344.39990234375</ele>
        <time>2021-06-26T22:38:45.000Z</time>
        <extensions>
          <ns3:TrackPointExtension>
            <ns3:atemp>27.0</ns3:atemp>
            <ns3:hr>91</ns3:hr>
          </ns3:TrackPointExtension>
        </extensions>
      </trkpt>
      <trkpt lat="36.80801223032176494598388671875" lon="-118.4078027307987213134765625">
        <ele>3344.60009765625</ele>
        <time>2021-06-26T22:38:48.000Z</time>
        <extensions>
          <ns3:TrackPointExtension>
            <ns3:atemp>27.0</ns3:atemp>
            <ns3:hr>89</ns3:hr>
          </ns3:TrackPointExtension>
        </extensions>
      </trkpt>
      <trkpt lat="36.8079963885247707366943359375" lon="-118.40774732641875743865966796875">
        <ele>3343.800048828125</ele>
        <time>2021-06-26T22:38:53.000Z</time>
        <extensions>
          <ns3:TrackPointExtension>
            <ns3:atemp>27.0</ns3:atemp>
            <ns3:hr>93</ns3:hr>
          </ns3:TrackPointExtension>
        </extensions>
      </trkpt>
      <trkpt lat="36.8079943768680095672607421875" lon="-118.40771966613829135894775390625">
        <ele>3343.199951171875</ele>
        <time>2021-06-26T22:38:55.000Z</time>
        <extensions>
          <ns3:TrackPointExtension>
            <ns3:atemp>27.0</ns3:atemp>
            <ns3:hr>91</ns3:hr>
          </ns3:TrackPointExtension>
        </extensions>
      </trkpt>
      <trkpt lat="36.8079859949648380279541015625" lon="-118.40770491398870944976806640625">
        <ele>3343.199951171875</ele>
        <time>2021-06-26T22:38:56.000Z</time>
        <extensions>
          <ns3:TrackPointExtension>
            <ns3:atemp>27.0</ns3:atemp>
            <ns3:hr>92</ns3:hr>
          </ns3:TrackPointExtension>
        </extensions>
      </trkpt>
      <trkpt lat="36.80796696804463863372802734375" lon="-118.4076905809342861175537109375">
        <ele>3343.199951171875</ele>
        <time>2021-06-26T22:38:58.000Z</time>
        <extensions>
          <ns3:TrackPointExtension>
            <ns3:atemp>27.0</ns3:atemp>
            <ns3:hr>95</ns3:hr>
          </ns3:TrackPointExtension>
        </extensions>
      </trkpt>
      <trkpt lat="36.80795774795114994049072265625" lon="-118.40768337249755859375">
        <ele>3343.199951171875</ele>
        <time>2021-06-26T22:38:59.000Z</time>
        <extensions>
          <ns3:TrackPointExtension>
            <ns3:atemp>27.0</ns3:atemp>
            <ns3:hr>95</ns3:hr>
          </ns3:TrackPointExtension>
        </extensions>
      </trkpt>
      <trkpt lat="36.8079410679638385772705078125" lon="-118.4076731465756893157958984375">
        <ele>3343.60009765625</ele>
        <time>2021-06-26T22:39:02.000Z</time>
        <extensions>
          <ns3:TrackPointExtension>
            <ns3:atemp>27.0</ns3:atemp>
            <ns3:hr>98</ns3:hr>
          </ns3:TrackPointExtension>
        </extensions>
      </trkpt>
      <trkpt lat="36.807939223945140838623046875" lon="-118.40766970999538898468017578125">
        <ele>3343.60009765625</ele>
        <time>2021-06-26T22:39:03.000Z</time>
        <extensions>
          <ns3:TrackPointExtension>
            <ns3:atemp>27.0</ns3:atemp>
            <ns3:hr>98</ns3:hr>
          </ns3:TrackPointExtension>
        </extensions>
      </trkpt>
      <trkpt lat="36.807931847870349884033203125" lon="-118.40765059925615787506103515625">
        <ele>3342.60009765625</ele>
        <time>2021-06-26T22:39:06.000Z</time>
        <extensions>
          <ns3:TrackPointExtension>
            <ns3:atemp>27.0</ns3:atemp>
            <ns3:hr>99</ns3:hr>
          </ns3:TrackPointExtension>
        </extensions>
      </trkpt>
      <trkpt lat="36.80792656727135181427001953125" lon="-118.40762796811759471893310546875">
        <ele>3342.199951171875</ele>
        <time>2021-06-26T22:39:08.000Z</time>
        <extensions>
          <ns3:TrackPointExtension>
            <ns3:atemp>27.0</ns3:atemp>
            <ns3:hr>99</ns3:hr>
          </ns3:TrackPointExtension>
        </extensions>
      </trkpt>
      <trkpt lat="36.80789840407669544219970703125" lon="-118.407592512667179107666015625">
        <ele>3341</ele>
        <time>2021-06-26T22:39:12.000Z</time>
        <extensions>
          <ns3:TrackPointExtension>
            <ns3:atemp>27.0</ns3:atemp>
            <ns3:hr>98</ns3:hr>
          </ns3:TrackPointExtension>
        </extensions>
      </trkpt>
      <trkpt lat="36.80788029916584491729736328125" lon="-118.40756376273930072784423828125">
        <ele>3340.199951171875</ele>
        <time>2021-06-26T22:39:16.000Z</time>
        <extensions>
          <ns3:TrackPointExtension>
            <ns3:atemp>27.0</ns3:atemp>
            <ns3:hr>97</ns3:hr>
          </ns3:TrackPointExtension>
        </extensions>
      </trkpt>
      <trkpt lat="36.80787040852010250091552734375" lon="-118.40753610245883464813232421875">
        <ele>3339.800048828125</ele>
        <time>2021-06-26T22:39:19.000Z</time>
        <extensions>
          <ns3:TrackPointExtension>
            <ns3:atemp>27.0</ns3:atemp>
            <ns3:hr>97</ns3:hr>
          </ns3:TrackPointExtension>
        </extensions>
      </trkpt>
      <trkpt lat="36.80785096250474452972412109375" lon="-118.40749855153262615203857421875">
        <ele>3339.60009765625</ele>
        <time>2021-06-26T22:39:23.000Z</time>
        <extensions>
          <ns3:TrackPointExtension>
            <ns3:atemp>27.0</ns3:atemp>
            <ns3:hr>96</ns3:hr>
          </ns3:TrackPointExtension>
        </extensions>
      </trkpt>
      <trkpt lat="36.807837300002574920654296875" lon="-118.40748346410691738128662109375">
        <ele>3339.39990234375</ele>
        <time>2021-06-26T22:39:25.000Z</time>
        <extensions>
          <ns3:TrackPointExtension>
            <ns3:atemp>27.0</ns3:atemp>
            <ns3:hr>97</ns3:hr>
          </ns3:TrackPointExtension>
        </extensions>
      </trkpt>
      <trkpt lat="36.807829923927783966064453125" lon="-118.4074701368808746337890625">
        <ele>3338.800048828125</ele>
        <time>2021-06-26T22:39:27.000Z</time>
        <extensions>
          <ns3:TrackPointExtension>
            <ns3:atemp>27.0</ns3:atemp>
            <ns3:hr>96</ns3:hr>
          </ns3:TrackPointExtension>
        </extensions>
      </trkpt>
      <trkpt lat="36.80779078043997287750244140625" lon="-118.40741070918738842010498046875">
        <ele>3337.800048828125</ele>
        <time>2021-06-26T22:39:33.000Z</time>
        <extensions>
          <ns3:TrackPointExtension>
            <ns3:atemp>27.0</ns3:atemp>
            <ns3:hr>94</ns3:hr>
          </ns3:TrackPointExtension>
        </extensions>
      </trkpt>
      <trkpt lat="36.80777661502361297607421875" lon="-118.40739210136234760284423828125">
        <ele>3337.800048828125</ele>
        <time>2021-06-26T22:39:35.000Z</time>
        <extensions>
          <ns3:TrackPointExtension>
            <ns3:atemp>27.0</ns3:atemp>
            <ns3:hr>91</ns3:hr>
          </ns3:TrackPointExtension>
        </extensions>
      </trkpt>
      <trkpt lat="36.80777166970074176788330078125" lon="-118.40738707222044467926025390625">
        <ele>3337.800048828125</ele>
        <time>2021-06-26T22:39:36.000Z</time>
        <extensions>
          <ns3:TrackPointExtension>
            <ns3:atemp>27.0</ns3:atemp>
            <ns3:hr>91</ns3:hr>
          </ns3:TrackPointExtension>
        </extensions>
      </trkpt>
      <trkpt lat="36.807769574224948883056640625" lon="-118.40737449936568737030029296875">
        <ele>3337.60009765625</ele>
        <time>2021-06-26T22:39:38.000Z</time>
        <extensions>
          <ns3:TrackPointExtension>
            <ns3:atemp>27.0</ns3:atemp>
            <ns3:hr>91</ns3:hr>
          </ns3:TrackPointExtension>
        </extensions>
      </trkpt>
      <trkpt lat="36.807768903672695159912109375" lon="-118.407347761094570159912109375">
        <ele>3337.60009765625</ele>
        <time>2021-06-26T22:39:41.000Z</time>
        <extensions>
          <ns3:TrackPointExtension>
            <ns3:atemp>27.0</ns3:atemp>
            <ns3:hr>90</ns3:hr>
          </ns3:TrackPointExtension>
        </extensions>
      </trkpt>
      <trkpt lat="36.80774618871510028839111328125" lon="-118.40731247328221797943115234375">
        <ele>3337</ele>
        <time>2021-06-26T22:39:47.000Z</time>
        <extensions>
          <ns3:TrackPointExtension>
            <ns3:atemp>27.0</ns3:atemp>
            <ns3:hr>91</ns3:hr>
          </ns3:TrackPointExtension>
        </extensions>
      </trkpt>
      <trkpt lat="36.80774853564798831939697265625" lon="-118.40731163509190082550048828125">
        <ele>3336.800048828125</ele>
        <time>2021-06-26T22:39:48.000Z</time>
        <extensions>
          <ns3:TrackPointExtension>
            <ns3:atemp>27.0</ns3:atemp>
            <ns3:hr>91</ns3:hr>
          </ns3:TrackPointExtension>
        </extensions>
      </trkpt>
      <trkpt lat="36.80775021202862262725830078125" lon="-118.40731314383447170257568359375">
        <ele>3336.60009765625</ele>
        <time>2021-06-26T22:39:49.000Z</time>
        <extensions>
          <ns3:TrackPointExtension>
            <ns3:atemp>27.0</ns3:atemp>
            <ns3:hr>91</ns3:hr>
          </ns3:TrackPointExtension>
        </extensions>
      </trkpt>
      <trkpt lat="36.807744093239307403564453125" lon="-118.4073073603212833404541015625">
        <ele>3336</ele>
        <time>2021-06-26T22:39:56.000Z</time>
        <extensions>
          <ns3:TrackPointExtension>
            <ns3:atemp>27.0</ns3:atemp>
            <ns3:hr>90</ns3:hr>
          </ns3:TrackPointExtension>
        </extensions>
      </trkpt>
      <trkpt lat="36.807744093239307403564453125" lon="-118.4073073603212833404541015625">
        <ele>3335.800048828125</ele>
        <time>2021-06-26T22:40:00.000Z</time>
        <extensions>
          <ns3:TrackPointExtension>
            <ns3:atemp>27.0</ns3:atemp>
            <ns3:hr>87</ns3:hr>
          </ns3:TrackPointExtension>
        </extensions>
      </trkpt>
      <trkpt lat="36.807744093239307403564453125" lon="-118.4073073603212833404541015625">
        <ele>3336</ele>
        <time>2021-06-26T22:40:04.000Z</time>
        <extensions>
          <ns3:TrackPointExtension>
            <ns3:atemp>27.0</ns3:atemp>
            <ns3:hr>83</ns3:hr>
          </ns3:TrackPointExtension>
        </extensions>
      </trkpt>
      <trkpt lat="36.8077352084219455718994140625" lon="-118.40731297619640827178955078125">
        <ele>3336.199951171875</ele>
        <time>2021-06-26T22:40:39.000Z</time>
        <extensions>
          <ns3:TrackPointExtension>
            <ns3:atemp>27.0</ns3:atemp>
            <ns3:hr>86</ns3:hr>
          </ns3:TrackPointExtension>
        </extensions>
      </trkpt>
      <trkpt lat="36.80772808380424976348876953125" lon="-118.40726737864315509796142578125">
        <ele>3335.60009765625</ele>
        <time>2021-06-26T22:40:43.000Z</time>
        <extensions>
          <ns3:TrackPointExtension>
            <ns3:atemp>27.0</ns3:atemp>
            <ns3:hr>85</ns3:hr>
          </ns3:TrackPointExtension>
        </extensions>
      </trkpt>
      <trkpt lat="36.8077184446156024932861328125" lon="-118.40723879635334014892578125">
        <ele>3335.39990234375</ele>
        <time>2021-06-26T22:40:45.000Z</time>
        <extensions>
          <ns3:TrackPointExtension>
            <ns3:atemp>27.0</ns3:atemp>
            <ns3:hr>85</ns3:hr>
          </ns3:TrackPointExtension>
        </extensions>
      </trkpt>
      <trkpt lat="36.80767343379557132720947265625" lon="-118.40715858153998851776123046875">
        <ele>3335</ele>
        <time>2021-06-26T22:40:52.000Z</time>
        <extensions>
          <ns3:TrackPointExtension>
            <ns3:atemp>27.0</ns3:atemp>
            <ns3:hr>84</ns3:hr>
          </ns3:TrackPointExtension>
        </extensions>
      </trkpt>
      <trkpt lat="36.80765666998922824859619140625" lon="-118.40714030899107456207275390625">
        <ele>3334.800048828125</ele>
        <time>2021-06-26T22:40:54.000Z</time>
        <extensions>
          <ns3:TrackPointExtension>
            <ns3:atemp>27.0</ns3:atemp>
            <ns3:hr>81</ns3:hr>
          </ns3:TrackPointExtension>
        </extensions>
      </trkpt>
      <trkpt lat="36.80762372910976409912109375" lon="-118.4071008302271366119384765625">
        <ele>3335</ele>
        <time>2021-06-26T22:40:59.000Z</time>
        <extensions>
          <ns3:TrackPointExtension>
            <ns3:atemp>27.0</ns3:atemp>
            <ns3:hr>79</ns3:hr>
          </ns3:TrackPointExtension>
        </extensions>
      </trkpt>
      <trkpt lat="36.80760872550308704376220703125" lon="-118.40706847608089447021484375">
        <ele>3335.199951171875</ele>
        <time>2021-06-26T22:41:02.000Z</time>
        <extensions>
          <ns3:TrackPointExtension>
            <ns3:atemp>27.0</ns3:atemp>
            <ns3:hr>79</ns3:hr>
          </ns3:TrackPointExtension>
        </extensions>
      </trkpt>
      <trkpt lat="36.80756430141627788543701171875" lon="-118.406977951526641845703125">
        <ele>3334.800048828125</ele>
        <time>2021-06-26T22:41:10.000Z</time>
        <extensions>
          <ns3:TrackPointExtension>
            <ns3:atemp>27.0</ns3:atemp>
            <ns3:hr>76</ns3:hr>
          </ns3:TrackPointExtension>
        </extensions>
      </trkpt>
      <trkpt lat="36.80756597779691219329833984375" lon="-118.4069667197763919830322265625">
        <ele>3334.800048828125</ele>
        <time>2021-06-26T22:41:11.000Z</time>
        <extensions>
          <ns3:TrackPointExtension>
            <ns3:atemp>27.0</ns3:atemp>
            <ns3:hr>76</ns3:hr>
          </ns3:TrackPointExtension>
        </extensions>
      </trkpt>
      <trkpt lat="36.807565055787563323974609375" lon="-118.4069590084254741668701171875">
        <ele>3334.60009765625</ele>
        <time>2021-06-26T22:41:12.000Z</time>
        <extensions>
          <ns3:TrackPointExtension>
            <ns3:atemp>27.0</ns3:atemp>
            <ns3:hr>80</ns3:hr>
          </ns3:TrackPointExtension>
        </extensions>
      </trkpt>
      <trkpt lat="36.80755910463631153106689453125" lon="-118.40694953687489032745361328125">
        <ele>3334.199951171875</ele>
        <time>2021-06-26T22:41:13.000Z</time>
        <extensions>
          <ns3:TrackPointExtension>
            <ns3:atemp>27.0</ns3:atemp>
            <ns3:hr>79</ns3:hr>
          </ns3:TrackPointExtension>
        </extensions>
      </trkpt>
      <trkpt lat="36.80751417763531208038330078125" lon="-118.40691265650093555450439453125">
        <ele>3333.60009765625</ele>
        <time>2021-06-26T22:41:19.000Z</time>
        <extensions>
          <ns3:TrackPointExtension>
            <ns3:atemp>27.0</ns3:atemp>
            <ns3:hr>82</ns3:hr>
          </ns3:TrackPointExtension>
        </extensions>
      </trkpt>
      <trkpt lat="36.80747813545167446136474609375" lon="-118.4068845771253108978271484375">
        <ele>3333.199951171875</ele>
        <time>2021-06-26T22:41:23.000Z</time>
        <extensions>
          <ns3:TrackPointExtension>
            <ns3:atemp>27.0</ns3:atemp>
            <ns3:hr>82</ns3:hr>
          </ns3:TrackPointExtension>
        </extensions>
      </trkpt>
      <trkpt lat="36.80741158314049243927001953125" lon="-118.4068584255874156951904296875">
        <ele>3333</ele>
        <time>2021-06-26T22:41:29.000Z</time>
        <extensions>
          <ns3:TrackPointExtension>
            <ns3:atemp>27.0</ns3:atemp>
            <ns3:hr>83</ns3:hr>
          </ns3:TrackPointExtension>
        </extensions>
      </trkpt>
      <trkpt lat="36.80733731947839260101318359375" lon="-118.40683990158140659332275390625">
        <ele>3333.60009765625</ele>
        <time>2021-06-26T22:41:37.000Z</time>
        <extensions>
          <ns3:TrackPointExtension>
            <ns3:atemp>27.0</ns3:atemp>
            <ns3:hr>84</ns3:hr>
          </ns3:TrackPointExtension>
        </extensions>
      </trkpt>
      <trkpt lat="36.807307563722133636474609375" lon="-118.4068443439900875091552734375">
        <ele>3333.800048828125</ele>
        <time>2021-06-26T22:41:40.000Z</time>
        <extensions>
          <ns3:TrackPointExtension>
            <ns3:atemp>27.0</ns3:atemp>
            <ns3:hr>87</ns3:hr>
          </ns3:TrackPointExtension>
        </extensions>
      </trkpt>
      <trkpt lat="36.8072872795164585113525390625" lon="-118.40684711001813411712646484375">
        <ele>3334.199951171875</ele>
        <time>2021-06-26T22:41:42.000Z</time>
        <extensions>
          <ns3:TrackPointExtension>
            <ns3:atemp>27.0</ns3:atemp>
            <ns3:hr>88</ns3:hr>
          </ns3:TrackPointExtension>
        </extensions>
      </trkpt>
      <trkpt lat="36.8072510696947574615478515625" lon="-118.40684928931295871734619140625">
        <ele>3335</ele>
        <time>2021-06-26T22:41:47.000Z</time>
        <extensions>
          <ns3:TrackPointExtension>
            <ns3:atemp>27.0</ns3:atemp>
            <ns3:hr>92</ns3:hr>
          </ns3:TrackPointExtension>
        </extensions>
      </trkpt>
      <trkpt lat="36.80723254568874835968017578125" lon="-118.40684761293232440948486328125">
        <ele>3335.199951171875</ele>
        <time>2021-06-26T22:41:49.000Z</time>
        <extensions>
          <ns3:TrackPointExtension>
            <ns3:atemp>27.0</ns3:atemp>
            <ns3:hr>94</ns3:hr>
          </ns3:TrackPointExtension>
        </extensions>
      </trkpt>
      <trkpt lat="36.8072032928466796875" lon="-118.40685213916003704071044921875">
        <ele>3335.60009765625</ele>
        <time>2021-06-26T22:41:53.000Z</time>
        <extensions>
          <ns3:TrackPointExtension>
            <ns3:atemp>27.0</ns3:atemp>
            <ns3:hr>99</ns3:hr>
          </ns3:TrackPointExtension>
        </extensions>
      </trkpt>
      <trkpt lat="36.80719700641930103302001953125" lon="-118.4068572521209716796875">
        <ele>3335.60009765625</ele>
        <time>2021-06-26T22:41:54.000Z</time>
        <extensions>
          <ns3:TrackPointExtension>
            <ns3:atemp>27.0</ns3:atemp>
            <ns3:hr>96</ns3:hr>
          </ns3:TrackPointExtension>
        </extensions>
      </trkpt>
      <trkpt lat="36.8071907199919223785400390625" lon="-118.4068572521209716796875">
        <ele>3336</ele>
        <time>2021-06-26T22:41:55.000Z</time>
        <extensions>
          <ns3:TrackPointExtension>
            <ns3:atemp>27.0</ns3:atemp>
            <ns3:hr>100</ns3:hr>
          </ns3:TrackPointExtension>
        </extensions>
      </trkpt>
      <trkpt lat="36.80718678049743175506591796875" lon="-118.4068560786545276641845703125">
        <ele>3336.39990234375</ele>
        <time>2021-06-26T22:41:56.000Z</time>
        <extensions>
          <ns3:TrackPointExtension>
            <ns3:atemp>27.0</ns3:atemp>
            <ns3:hr>101</ns3:hr>
          </ns3:TrackPointExtension>
        </extensions>
      </trkpt>
      <trkpt lat="36.80716884322464466094970703125" lon="-118.40686471201479434967041015625">
        <ele>3336.60009765625</ele>
        <time>2021-06-26T22:41:58.000Z</time>
        <extensions>
          <ns3:TrackPointExtension>
            <ns3:atemp>27.0</ns3:atemp>
            <ns3:hr>104</ns3:hr>
          </ns3:TrackPointExtension>
        </extensions>
      </trkpt>
      <trkpt lat="36.8071538396179676055908203125" lon="-118.40687342919409275054931640625">
        <ele>3337</ele>
        <time>2021-06-26T22:42:00.000Z</time>
        <extensions>
          <ns3:TrackPointExtension>
            <ns3:atemp>27.0</ns3:atemp>
            <ns3:hr>106</ns3:hr>
          </ns3:TrackPointExtension>
        </extensions>
      </trkpt>
      <trkpt lat="36.807147301733493804931640625" lon="-118.4068728424608707427978515625">
        <ele>3337</ele>
        <time>2021-06-26T22:42:01.000Z</time>
        <extensions>
          <ns3:TrackPointExtension>
            <ns3:atemp>27.0</ns3:atemp>
            <ns3:hr>108</ns3:hr>
          </ns3:TrackPointExtension>
        </extensions>
      </trkpt>
      <trkpt lat="36.807127855718135833740234375" lon="-118.4068658016622066497802734375">
        <ele>3337</ele>
        <time>2021-06-26T22:42:03.000Z</time>
        <extensions>
          <ns3:TrackPointExtension>
            <ns3:atemp>27.0</ns3:atemp>
            <ns3:hr>111</ns3:hr>
          </ns3:TrackPointExtension>
        </extensions>
      </trkpt>
      <trkpt lat="36.80706985294818878173828125" lon="-118.4068829007446765899658203125">
        <ele>3336.800048828125</ele>
        <time>2021-06-26T22:42:08.000Z</time>
        <extensions>
          <ns3:TrackPointExtension>
            <ns3:atemp>27.0</ns3:atemp>
            <ns3:hr>111</ns3:hr>
          </ns3:TrackPointExtension>
        </extensions>
      </trkpt>
      <trkpt lat="36.80702903307974338531494140625" lon="-118.40689941309392452239990234375">
        <ele>3337.39990234375</ele>
        <time>2021-06-26T22:42:12.000Z</time>
        <extensions>
          <ns3:TrackPointExtension>
            <ns3:atemp>27.0</ns3:atemp>
            <ns3:hr>110</ns3:hr>
          </ns3:TrackPointExtension>
        </extensions>
      </trkpt>
      <trkpt lat="36.80701193399727344512939453125" lon="-118.4068953059613704681396484375">
        <ele>3337.39990234375</ele>
        <time>2021-06-26T22:42:15.000Z</time>
        <extensions>
          <ns3:TrackPointExtension>
            <ns3:atemp>27.0</ns3:atemp>
            <ns3:hr>111</ns3:hr>
          </ns3:TrackPointExtension>
        </extensions>
      </trkpt>
      <trkpt lat="36.8069523386657238006591796875" lon="-118.40687829069793224334716796875">
        <ele>3338</ele>
        <time>2021-06-26T22:42:20.000Z</time>
        <extensions>
          <ns3:TrackPointExtension>
            <ns3:atemp>27.0</ns3:atemp>
            <ns3:hr>114</ns3:hr>
          </ns3:TrackPointExtension>
        </extensions>
      </trkpt>
      <trkpt lat="36.8069444596767425537109375" lon="-118.4068738482892513275146484375">
        <ele>3338</ele>
        <time>2021-06-26T22:42:21.000Z</time>
        <extensions>
          <ns3:TrackPointExtension>
            <ns3:atemp>27.0</ns3:atemp>
            <ns3:hr>112</ns3:hr>
          </ns3:TrackPointExtension>
        </extensions>
      </trkpt>
      <trkpt lat="36.8068631552159786224365234375" lon="-118.4068010933697223663330078125">
        <ele>3337.800048828125</ele>
        <time>2021-06-26T22:42:30.000Z</time>
        <extensions>
          <ns3:TrackPointExtension>
            <ns3:atemp>27.0</ns3:atemp>
            <ns3:hr>110</ns3:hr>
          </ns3:TrackPointExtension>
        </extensions>
      </trkpt>
      <trkpt lat="36.8068219162523746490478515625" lon="-118.40677737258374691009521484375">
        <ele>3338.60009765625</ele>
        <time>2021-06-26T22:42:35.000Z</time>
        <extensions>
          <ns3:TrackPointExtension>
            <ns3:atemp>27.0</ns3:atemp>
            <ns3:hr>107</ns3:hr>
          </ns3:TrackPointExtension>
        </extensions>
      </trkpt>
      <trkpt lat="36.80679970420897006988525390625" lon="-118.40676094405353069305419921875">
        <ele>3338.800048828125</ele>
        <time>2021-06-26T22:42:38.000Z</time>
        <extensions>
          <ns3:TrackPointExtension>
            <ns3:atemp>27.0</ns3:atemp>
            <ns3:hr>106</ns3:hr>
          </ns3:TrackPointExtension>
        </extensions>
      </trkpt>
      <trkpt lat="36.8067917414009571075439453125" lon="-118.4067665599286556243896484375">
        <ele>3338.800048828125</ele>
        <time>2021-06-26T22:42:39.000Z</time>
        <extensions>
          <ns3:TrackPointExtension>
            <ns3:atemp>27.0</ns3:atemp>
            <ns3:hr>106</ns3:hr>
          </ns3:TrackPointExtension>
        </extensions>
      </trkpt>
      <trkpt lat="36.8067662604153156280517578125" lon="-118.40676899068057537078857421875">
        <ele>3340</ele>
        <time>2021-06-26T22:42:43.000Z</time>
        <extensions>
          <ns3:TrackPointExtension>
            <ns3:atemp>27.0</ns3:atemp>
            <ns3:hr>106</ns3:hr>
          </ns3:TrackPointExtension>
        </extensions>
      </trkpt>
      <trkpt lat="36.80674974806606769561767578125" lon="-118.40676060877740383148193359375">
        <ele>3340.39990234375</ele>
        <time>2021-06-26T22:42:45.000Z</time>
        <extensions>
          <ns3:TrackPointExtension>
            <ns3:atemp>27.0</ns3:atemp>
            <ns3:hr>107</ns3:hr>
          </ns3:TrackPointExtension>
        </extensions>
      </trkpt>
      <trkpt lat="36.80668688379228115081787109375" lon="-118.40674518607556819915771484375">
        <ele>3341.199951171875</ele>
        <time>2021-06-26T22:42:52.000Z</time>
        <extensions>
          <ns3:TrackPointExtension>
            <ns3:atemp>27.0</ns3:atemp>
            <ns3:hr>107</ns3:hr>
          </ns3:TrackPointExtension>
        </extensions>
      </trkpt>
      <trkpt lat="36.80667556822299957275390625" lon="-118.40674300678074359893798828125">
        <ele>3341.199951171875</ele>
        <time>2021-06-26T22:42:53.000Z</time>
        <extensions>
          <ns3:TrackPointExtension>
            <ns3:atemp>27.0</ns3:atemp>
            <ns3:hr>107</ns3:hr>
          </ns3:TrackPointExtension>
        </extensions>
      </trkpt>
      <trkpt lat="36.80660541169345378875732421875" lon="-118.40674526989459991455078125">
        <ele>3342</ele>
        <time>2021-06-26T22:43:00.000Z</time>
        <extensions>
          <ns3:TrackPointExtension>
            <ns3:atemp>27.0</ns3:atemp>
            <ns3:hr>110</ns3:hr>
          </ns3:TrackPointExtension>
        </extensions>
      </trkpt>
      <trkpt lat="36.8065486662089824676513671875" lon="-118.40675138868391513824462890625">
        <ele>3341.60009765625</ele>
        <time>2021-06-26T22:43:05.000Z</time>
        <extensions>
          <ns3:TrackPointExtension>
            <ns3:atemp>27.0</ns3:atemp>
            <ns3:hr>109</ns3:hr>
          </ns3:TrackPointExtension>
        </extensions>
      </trkpt>
      <trkpt lat="36.80650030262768268585205078125" lon="-118.4067504666745662689208984375">
        <ele>3341.39990234375</ele>
        <time>2021-06-26T22:43:11.000Z</time>
        <extensions>
          <ns3:TrackPointExtension>
            <ns3:atemp>27.0</ns3:atemp>
            <ns3:hr>108</ns3:hr>
          </ns3:TrackPointExtension>
        </extensions>
      </trkpt>
      <trkpt lat="36.80649275891482830047607421875" lon="-118.406748287379741668701171875">
        <ele>3341.39990234375</ele>
        <time>2021-06-26T22:43:12.000Z</time>
        <extensions>
          <ns3:TrackPointExtension>
            <ns3:atemp>27.0</ns3:atemp>
            <ns3:hr>108</ns3:hr>
          </ns3:TrackPointExtension>
        </extensions>
      </trkpt>
      <trkpt lat="36.80648169480264186859130859375" lon="-118.4067727625370025634765625">
        <ele>3341.199951171875</ele>
        <time>2021-06-26T22:43:15.000Z</time>
        <extensions>
          <ns3:TrackPointExtension>
            <ns3:atemp>27.0</ns3:atemp>
            <ns3:hr>105</ns3:hr>
          </ns3:TrackPointExtension>
        </extensions>
      </trkpt>
      <trkpt lat="36.8064738996326923370361328125" lon="-118.40673613362014293670654296875">
        <ele>3341.199951171875</ele>
        <time>2021-06-26T22:43:23.000Z</time>
        <extensions>
          <ns3:TrackPointExtension>
            <ns3:atemp>27.0</ns3:atemp>
            <ns3:hr>108</ns3:hr>
          </ns3:TrackPointExtension>
        </extensions>
      </trkpt>
      <trkpt lat="36.8064738996326923370361328125" lon="-118.40673613362014293670654296875">
        <ele>3340.800048828125</ele>
        <time>2021-06-26T22:43:29.000Z</time>
        <extensions>
          <ns3:TrackPointExtension>
            <ns3:atemp>27.0</ns3:atemp>
            <ns3:hr>108</ns3:hr>
          </ns3:TrackPointExtension>
        </extensions>
      </trkpt>
      <trkpt lat="36.80645436979830265045166015625" lon="-118.40674149803817272186279296875">
        <ele>3340.60009765625</ele>
        <time>2021-06-26T22:43:34.000Z</time>
        <extensions>
          <ns3:TrackPointExtension>
            <ns3:atemp>27.0</ns3:atemp>
            <ns3:hr>105</ns3:hr>
          </ns3:TrackPointExtension>
        </extensions>
      </trkpt>
      <trkpt lat="36.806412041187286376953125" lon="-118.4067561663687229156494140625">
        <ele>3340</ele>
        <time>2021-06-26T22:43:37.000Z</time>
        <extensions>
          <ns3:TrackPointExtension>
            <ns3:atemp>27.0</ns3:atemp>
            <ns3:hr>104</ns3:hr>
          </ns3:TrackPointExtension>
        </extensions>
      </trkpt>
      <trkpt lat="36.80637021549046039581298828125" lon="-118.40676982887089252471923828125">
        <ele>3338.800048828125</ele>
        <time>2021-06-26T22:43:40.000Z</time>
        <extensions>
          <ns3:TrackPointExtension>
            <ns3:atemp>27.0</ns3:atemp>
            <ns3:hr>104</ns3:hr>
          </ns3:TrackPointExtension>
        </extensions>
      </trkpt>
      <trkpt lat="36.806343309581279754638671875" lon="-118.40679530985653400421142578125">
        <ele>3338.60009765625</ele>
        <time>2021-06-26T22:43:43.000Z</time>
        <extensions>
          <ns3:TrackPointExtension>
            <ns3:atemp>27.0</ns3:atemp>
            <ns3:hr>101</ns3:hr>
          </ns3:TrackPointExtension>
        </extensions>
      </trkpt>
      <trkpt lat="36.80632243864238262176513671875" lon="-118.40679547749459743499755859375">
        <ele>3338.199951171875</ele>
        <time>2021-06-26T22:43:45.000Z</time>
        <extensions>
          <ns3:TrackPointExtension>
            <ns3:atemp>27.0</ns3:atemp>
            <ns3:hr>101</ns3:hr>
          </ns3:TrackPointExtension>
        </extensions>
      </trkpt>
      <trkpt lat="36.80628706701099872589111328125" lon="-118.40679246000945568084716796875">
        <ele>3337.60009765625</ele>
        <time>2021-06-26T22:43:48.000Z</time>
        <extensions>
          <ns3:TrackPointExtension>
            <ns3:atemp>27.0</ns3:atemp>
            <ns3:hr>100</ns3:hr>
          </ns3:TrackPointExtension>
        </extensions>
      </trkpt>
      <trkpt lat="36.8062646873295307159423828125" lon="-118.40680654160678386688232421875">
        <ele>3336.60009765625</ele>
        <time>2021-06-26T22:43:52.000Z</time>
        <extensions>
          <ns3:TrackPointExtension>
            <ns3:atemp>27.0</ns3:atemp>
            <ns3:hr>99</ns3:hr>
          </ns3:TrackPointExtension>
        </extensions>
      </trkpt>
      <trkpt lat="36.80625806562602519989013671875" lon="-118.40680821798741817474365234375">
        <ele>3336.199951171875</ele>
        <time>2021-06-26T22:43:53.000Z</time>
        <extensions>
          <ns3:TrackPointExtension>
            <ns3:atemp>27.0</ns3:atemp>
            <ns3:hr>101</ns3:hr>
          </ns3:TrackPointExtension>
        </extensions>
      </trkpt>
      <trkpt lat="36.806219257414340972900390625" lon="-118.4068067930638790130615234375">
        <ele>3336</ele>
        <time>2021-06-26T22:43:57.000Z</time>
        <extensions>
          <ns3:TrackPointExtension>
            <ns3:atemp>27.0</ns3:atemp>
            <ns3:hr>98</ns3:hr>
          </ns3:TrackPointExtension>
        </extensions>
      </trkpt>
      <trkpt lat="36.80619939230382442474365234375" lon="-118.40680427849292755126953125">
        <ele>3336</ele>
        <time>2021-06-26T22:43:59.000Z</time>
        <extensions>
          <ns3:TrackPointExtension>
            <ns3:atemp>27.0</ns3:atemp>
            <ns3:hr>97</ns3:hr>
          </ns3:TrackPointExtension>
        </extensions>
      </trkpt>
      <trkpt lat="36.8061704747378826141357421875" lon="-118.40678676031529903411865234375">
        <ele>3335.39990234375</ele>
        <time>2021-06-26T22:44:03.000Z</time>
        <extensions>
          <ns3:TrackPointExtension>
            <ns3:atemp>27.0</ns3:atemp>
            <ns3:hr>96</ns3:hr>
          </ns3:TrackPointExtension>
        </extensions>
      </trkpt>
      <trkpt lat="36.8061516992747783660888671875" lon="-118.4067853353917598724365234375">
        <ele>3334.39990234375</ele>
        <time>2021-06-26T22:44:05.000Z</time>
        <extensions>
          <ns3:TrackPointExtension>
            <ns3:atemp>27.0</ns3:atemp>
            <ns3:hr>95</ns3:hr>
          </ns3:TrackPointExtension>
        </extensions>
      </trkpt>
      <trkpt lat="36.80612144060432910919189453125" lon="-118.40679782442748546600341796875">
        <ele>3334</ele>
        <time>2021-06-26T22:44:08.000Z</time>
        <extensions>
          <ns3:TrackPointExtension>
            <ns3:atemp>27.0</ns3:atemp>
            <ns3:hr>95</ns3:hr>
          </ns3:TrackPointExtension>
        </extensions>
      </trkpt>
      <trkpt lat="36.80610015057027339935302734375" lon="-118.40679782442748546600341796875">
        <ele>3334.199951171875</ele>
        <time>2021-06-26T22:44:12.000Z</time>
        <extensions>
          <ns3:TrackPointExtension>
            <ns3:atemp>27.0</ns3:atemp>
            <ns3:hr>96</ns3:hr>
          </ns3:TrackPointExtension>
        </extensions>
      </trkpt>
      <trkpt lat="36.80608858354389667510986328125" lon="-118.40678273700177669525146484375">
        <ele>3333.800048828125</ele>
        <time>2021-06-26T22:44:14.000Z</time>
        <extensions>
          <ns3:TrackPointExtension>
            <ns3:atemp>27.0</ns3:atemp>
            <ns3:hr>96</ns3:hr>
          </ns3:TrackPointExtension>
        </extensions>
      </trkpt>
      <trkpt lat="36.80606377311050891876220703125" lon="-118.40678491629660129547119140625">
        <ele>3332.39990234375</ele>
        <time>2021-06-26T22:44:17.000Z</time>
        <extensions>
          <ns3:TrackPointExtension>
            <ns3:atemp>27.0</ns3:atemp>
            <ns3:hr>96</ns3:hr>
          </ns3:TrackPointExtension>
        </extensions>
      </trkpt>
      <trkpt lat="36.8060541339218616485595703125" lon="-118.406789191067218780517578125">
        <ele>3332</ele>
        <time>2021-06-26T22:44:18.000Z</time>
        <extensions>
          <ns3:TrackPointExtension>
            <ns3:atemp>27.0</ns3:atemp>
            <ns3:hr>96</ns3:hr>
          </ns3:TrackPointExtension>
        </extensions>
      </trkpt>
      <trkpt lat="36.806024126708507537841796875" lon="-118.40679849497973918914794921875">
        <ele>3332</ele>
        <time>2021-06-26T22:44:21.000Z</time>
        <extensions>
          <ns3:TrackPointExtension>
            <ns3:atemp>27.0</ns3:atemp>
            <ns3:hr>96</ns3:hr>
          </ns3:TrackPointExtension>
        </extensions>
      </trkpt>
      <trkpt lat="36.8060137331485748291015625" lon="-118.40679262764751911163330078125">
        <ele>3332</ele>
        <time>2021-06-26T22:44:23.000Z</time>
        <extensions>
          <ns3:TrackPointExtension>
            <ns3:atemp>26.0</ns3:atemp>
            <ns3:hr>97</ns3:hr>
          </ns3:TrackPointExtension>
        </extensions>
      </trkpt>
      <trkpt lat="36.80599403567612171173095703125" lon="-118.40677988715469837188720703125">
        <ele>3331.199951171875</ele>
        <time>2021-06-26T22:44:26.000Z</time>
        <extensions>
          <ns3:TrackPointExtension>
            <ns3:atemp>26.0</ns3:atemp>
            <ns3:hr>96</ns3:hr>
          </ns3:TrackPointExtension>
        </extensions>
      </trkpt>
      <trkpt lat="36.8059815466403961181640625" lon="-118.4067826531827449798583984375">
        <ele>3331</ele>
        <time>2021-06-26T22:44:28.000Z</time>
        <extensions>
          <ns3:TrackPointExtension>
            <ns3:atemp>26.0</ns3:atemp>
            <ns3:hr>96</ns3:hr>
          </ns3:TrackPointExtension>
        </extensions>
      </trkpt>
      <trkpt lat="36.80596478283405303955078125" lon="-118.40677670203149318695068359375">
        <ele>3330.800048828125</ele>
        <time>2021-06-26T22:44:30.000Z</time>
        <extensions>
          <ns3:TrackPointExtension>
            <ns3:atemp>26.0</ns3:atemp>
            <ns3:hr>95</ns3:hr>
          </ns3:TrackPointExtension>
        </extensions>
      </trkpt>
      <trkpt lat="36.80593620054423809051513671875" lon="-118.4067742712795734405517578125">
        <ele>3330.39990234375</ele>
        <time>2021-06-26T22:44:33.000Z</time>
        <extensions>
          <ns3:TrackPointExtension>
            <ns3:atemp>26.0</ns3:atemp>
            <ns3:hr>92</ns3:hr>
          </ns3:TrackPointExtension>
        </extensions>
      </trkpt>
      <trkpt lat="36.80592798627912998199462890625" lon="-118.4067732654511928558349609375">
        <ele>3329.39990234375</ele>
        <time>2021-06-26T22:44:34.000Z</time>
        <extensions>
          <ns3:TrackPointExtension>
            <ns3:atemp>26.0</ns3:atemp>
            <ns3:hr>92</ns3:hr>
          </ns3:TrackPointExtension>
        </extensions>
      </trkpt>
      <trkpt lat="36.80592094548046588897705078125" lon="-118.406775780022144317626953125">
        <ele>3329.39990234375</ele>
        <time>2021-06-26T22:44:35.000Z</time>
        <extensions>
          <ns3:TrackPointExtension>
            <ns3:atemp>26.0</ns3:atemp>
            <ns3:hr>91</ns3:hr>
          </ns3:TrackPointExtension>
        </extensions>
      </trkpt>
      <trkpt lat="36.8059082888066768646240234375" lon="-118.40676764957606792449951171875">
        <ele>3329</ele>
        <time>2021-06-26T22:44:38.000Z</time>
        <extensions>
          <ns3:TrackPointExtension>
            <ns3:atemp>26.0</ns3:atemp>
            <ns3:hr>90</ns3:hr>
          </ns3:TrackPointExtension>
        </extensions>
      </trkpt>
      <trkpt lat="36.8058844842016696929931640625" lon="-118.406761027872562408447265625">
        <ele>3327.800048828125</ele>
        <time>2021-06-26T22:44:41.000Z</time>
        <extensions>
          <ns3:TrackPointExtension>
            <ns3:atemp>26.0</ns3:atemp>
            <ns3:hr>86</ns3:hr>
          </ns3:TrackPointExtension>
        </extensions>
      </trkpt>
      <trkpt lat="36.80587132461369037628173828125" lon="-118.40675809420645236968994140625">
        <ele>3327.60009765625</ele>
        <time>2021-06-26T22:44:43.000Z</time>
        <extensions>
          <ns3:TrackPointExtension>
            <ns3:atemp>26.0</ns3:atemp>
            <ns3:hr>85</ns3:hr>
          </ns3:TrackPointExtension>
        </extensions>
      </trkpt>
      <trkpt lat="36.80586629547178745269775390625" lon="-118.406750969588756561279296875">
        <ele>3327.39990234375</ele>
        <time>2021-06-26T22:44:44.000Z</time>
        <extensions>
          <ns3:TrackPointExtension>
            <ns3:atemp>26.0</ns3:atemp>
            <ns3:hr>85</ns3:hr>
          </ns3:TrackPointExtension>
        </extensions>
      </trkpt>
      <trkpt lat="36.80585908703505992889404296875" lon="-118.406724147498607635498046875">
        <ele>3327</ele>
        <time>2021-06-26T22:44:48.000Z</time>
        <extensions>
          <ns3:TrackPointExtension>
            <ns3:atemp>26.0</ns3:atemp>
            <ns3:hr>84</ns3:hr>
          </ns3:TrackPointExtension>
        </extensions>
      </trkpt>
      <trkpt lat="36.8058807961642742156982421875" lon="-118.40669053606688976287841796875">
        <ele>3326.39990234375</ele>
        <time>2021-06-26T22:44:52.000Z</time>
        <extensions>
          <ns3:TrackPointExtension>
            <ns3:atemp>26.0</ns3:atemp>
            <ns3:hr>84</ns3:hr>
          </ns3:TrackPointExtension>
        </extensions>
      </trkpt>
      <trkpt lat="36.80591792799532413482666015625" lon="-118.4066686592996120452880859375">
        <ele>3325</ele>
        <time>2021-06-26T22:44:57.000Z</time>
        <extensions>
          <ns3:TrackPointExtension>
            <ns3:atemp>26.0</ns3:atemp>
            <ns3:hr>84</ns3:hr>
          </ns3:TrackPointExtension>
        </extensions>
      </trkpt>
      <trkpt lat="36.805923543870449066162109375" lon="-118.40666237287223339080810546875">
        <ele>3325</ele>
        <time>2021-06-26T22:44:58.000Z</time>
        <extensions>
          <ns3:TrackPointExtension>
            <ns3:atemp>26.0</ns3:atemp>
            <ns3:hr>84</ns3:hr>
          </ns3:TrackPointExtension>
        </extensions>
      </trkpt>
      <trkpt lat="36.80592547170817852020263671875" lon="-118.40664946474134922027587890625">
        <ele>3324.800048828125</ele>
        <time>2021-06-26T22:44:59.000Z</time>
        <extensions>
          <ns3:TrackPointExtension>
            <ns3:atemp>26.0</ns3:atemp>
            <ns3:hr>84</ns3:hr>
          </ns3:TrackPointExtension>
        </extensions>
      </trkpt>
      <trkpt lat="36.80592848919332027435302734375" lon="-118.4066210500895977020263671875">
        <ele>3324.39990234375</ele>
        <time>2021-06-26T22:45:02.000Z</time>
        <extensions>
          <ns3:TrackPointExtension>
            <ns3:atemp>26.0</ns3:atemp>
            <ns3:hr>87</ns3:hr>
          </ns3:TrackPointExtension>
        </extensions>
      </trkpt>
      <trkpt lat="36.8059317581355571746826171875" lon="-118.40661610476672649383544921875">
        <ele>3323.800048828125</ele>
        <time>2021-06-26T22:45:04.000Z</time>
        <extensions>
          <ns3:TrackPointExtension>
            <ns3:atemp>26.0</ns3:atemp>
            <ns3:hr>88</ns3:hr>
          </ns3:TrackPointExtension>
        </extensions>
      </trkpt>
      <trkpt lat="36.805940978229045867919921875" lon="-118.406612835824489593505859375">
        <ele>3323.60009765625</ele>
        <time>2021-06-26T22:45:05.000Z</time>
        <extensions>
          <ns3:TrackPointExtension>
            <ns3:atemp>26.0</ns3:atemp>
            <ns3:hr>87</ns3:hr>
          </ns3:TrackPointExtension>
        </extensions>
      </trkpt>
      <trkpt lat="36.8059659563004970550537109375" lon="-118.4065555036067962646484375">
        <ele>3323</ele>
        <time>2021-06-26T22:45:11.000Z</time>
        <extensions>
          <ns3:TrackPointExtension>
            <ns3:atemp>26.0</ns3:atemp>
            <ns3:hr>87</ns3:hr>
          </ns3:TrackPointExtension>
        </extensions>
      </trkpt>
      <trkpt lat="36.80596536956727504730224609375" lon="-118.40654184110462665557861328125">
        <ele>3322.800048828125</ele>
        <time>2021-06-26T22:45:12.000Z</time>
        <extensions>
          <ns3:TrackPointExtension>
            <ns3:atemp>26.0</ns3:atemp>
            <ns3:hr>87</ns3:hr>
          </ns3:TrackPointExtension>
        </extensions>
      </trkpt>
      <trkpt lat="36.80597090162336826324462890625" lon="-118.40653337538242340087890625">
        <ele>3322.199951171875</ele>
        <time>2021-06-26T22:45:14.000Z</time>
        <extensions>
          <ns3:TrackPointExtension>
            <ns3:atemp>26.0</ns3:atemp>
            <ns3:hr>86</ns3:hr>
          </ns3:TrackPointExtension>
        </extensions>
      </trkpt>
      <trkpt lat="36.805983223021030426025390625" lon="-118.40651501901447772979736328125">
        <ele>3321.60009765625</ele>
        <time>2021-06-26T22:45:16.000Z</time>
        <extensions>
          <ns3:TrackPointExtension>
            <ns3:atemp>27.0</ns3:atemp>
            <ns3:hr>86</ns3:hr>
          </ns3:TrackPointExtension>
        </extensions>
      </trkpt>
      <trkpt lat="36.80598246864974498748779296875" lon="-118.4065053798258304595947265625">
        <ele>3321.60009765625</ele>
        <time>2021-06-26T22:45:17.000Z</time>
        <extensions>
          <ns3:TrackPointExtension>
            <ns3:atemp>27.0</ns3:atemp>
            <ns3:hr>86</ns3:hr>
          </ns3:TrackPointExtension>
        </extensions>
      </trkpt>
      <trkpt lat="36.805980540812015533447265625" lon="-118.40649557299911975860595703125">
        <ele>3321.60009765625</ele>
        <time>2021-06-26T22:45:18.000Z</time>
        <extensions>
          <ns3:TrackPointExtension>
            <ns3:atemp>27.0</ns3:atemp>
            <ns3:hr>85</ns3:hr>
          </ns3:TrackPointExtension>
        </extensions>
      </trkpt>
      <trkpt lat="36.80597727186977863311767578125" lon="-118.40644679032266139984130859375">
        <ele>3320.60009765625</ele>
        <time>2021-06-26T22:45:23.000Z</time>
        <extensions>
          <ns3:TrackPointExtension>
            <ns3:atemp>27.0</ns3:atemp>
            <ns3:hr>86</ns3:hr>
          </ns3:TrackPointExtension>
        </extensions>
      </trkpt>
      <trkpt lat="36.80597760714590549468994140625" lon="-118.4064017795026302337646484375">
        <ele>3319.800048828125</ele>
        <time>2021-06-26T22:45:27.000Z</time>
        <extensions>
          <ns3:TrackPointExtension>
            <ns3:atemp>27.0</ns3:atemp>
            <ns3:hr>87</ns3:hr>
          </ns3:TrackPointExtension>
        </extensions>
      </trkpt>
      <trkpt lat="36.80597676895558834075927734375" lon="-118.40639163739979267120361328125">
        <ele>3319.199951171875</ele>
        <time>2021-06-26T22:45:28.000Z</time>
        <extensions>
          <ns3:TrackPointExtension>
            <ns3:atemp>27.0</ns3:atemp>
            <ns3:hr>88</ns3:hr>
          </ns3:TrackPointExtension>
        </extensions>
      </trkpt>
      <trkpt lat="36.80597961880266666412353515625" lon="-118.4062980115413665771484375">
        <ele>3318</ele>
        <time>2021-06-26T22:45:36.000Z</time>
        <extensions>
          <ns3:TrackPointExtension>
            <ns3:atemp>27.0</ns3:atemp>
            <ns3:hr>86</ns3:hr>
          </ns3:TrackPointExtension>
        </extensions>
      </trkpt>
      <trkpt lat="36.80597978644073009490966796875" lon="-118.40625182725489139556884765625">
        <ele>3317</ele>
        <time>2021-06-26T22:45:40.000Z</time>
        <extensions>
          <ns3:TrackPointExtension>
            <ns3:atemp>27.0</ns3:atemp>
            <ns3:hr>86</ns3:hr>
          </ns3:TrackPointExtension>
        </extensions>
      </trkpt>
      <trkpt lat="36.8059642799198627471923828125" lon="-118.40623028576374053955078125">
        <ele>3315.800048828125</ele>
        <time>2021-06-26T22:45:43.000Z</time>
        <extensions>
          <ns3:TrackPointExtension>
            <ns3:atemp>27.0</ns3:atemp>
            <ns3:hr>87</ns3:hr>
          </ns3:TrackPointExtension>
        </extensions>
      </trkpt>
      <trkpt lat="36.8059569038450717926025390625" lon="-118.40622634626924991607666015625">
        <ele>3315.199951171875</ele>
        <time>2021-06-26T22:45:44.000Z</time>
        <extensions>
          <ns3:TrackPointExtension>
            <ns3:atemp>27.0</ns3:atemp>
            <ns3:hr>87</ns3:hr>
          </ns3:TrackPointExtension>
        </extensions>
      </trkpt>
      <trkpt lat="36.8059542216360569000244140625" lon="-118.4062254242599010467529296875">
        <ele>3315</ele>
        <time>2021-06-26T22:45:45.000Z</time>
        <extensions>
          <ns3:TrackPointExtension>
            <ns3:atemp>27.0</ns3:atemp>
            <ns3:hr>87</ns3:hr>
          </ns3:TrackPointExtension>
        </extensions>
      </trkpt>
      <trkpt lat="36.805945672094821929931640625" lon="-118.40622517280280590057373046875">
        <ele>3315</ele>
        <time>2021-06-26T22:45:51.000Z</time>
        <extensions>
          <ns3:TrackPointExtension>
            <ns3:atemp>27.0</ns3:atemp>
            <ns3:hr>83</ns3:hr>
          </ns3:TrackPointExtension>
        </extensions>
      </trkpt>
      <trkpt lat="36.80594575591385364532470703125" lon="-118.406224586069583892822265625">
        <ele>3315</ele>
        <time>2021-06-26T22:45:52.000Z</time>
        <extensions>
          <ns3:TrackPointExtension>
            <ns3:atemp>27.0</ns3:atemp>
            <ns3:hr>86</ns3:hr>
          </ns3:TrackPointExtension>
        </extensions>
      </trkpt>
      <trkpt lat="36.8059434927999973297119140625" lon="-118.4062264300882816314697265625">
        <ele>3314.800048828125</ele>
        <time>2021-06-26T22:45:54.000Z</time>
        <extensions>
          <ns3:TrackPointExtension>
            <ns3:atemp>27.0</ns3:atemp>
            <ns3:hr>86</ns3:hr>
          </ns3:TrackPointExtension>
        </extensions>
      </trkpt>
      <trkpt lat="36.8059354461729526519775390625" lon="-118.406221568584442138671875">
        <ele>3314.60009765625</ele>
        <time>2021-06-26T22:45:56.000Z</time>
        <extensions>
          <ns3:TrackPointExtension>
            <ns3:atemp>27.0</ns3:atemp>
            <ns3:hr>86</ns3:hr>
          </ns3:TrackPointExtension>
        </extensions>
      </trkpt>
      <trkpt lat="36.8059354461729526519775390625" lon="-118.406221568584442138671875">
        <ele>3314.60009765625</ele>
        <time>2021-06-26T22:45:58.000Z</time>
        <extensions>
          <ns3:TrackPointExtension>
            <ns3:atemp>27.0</ns3:atemp>
            <ns3:hr>86</ns3:hr>
          </ns3:TrackPointExtension>
        </extensions>
      </trkpt>
      <trkpt lat="36.8059418164193630218505859375" lon="-118.4062264300882816314697265625">
        <ele>3313.60009765625</ele>
        <time>2021-06-26T22:46:13.000Z</time>
        <extensions>
          <ns3:TrackPointExtension>
            <ns3:atemp>28.0</ns3:atemp>
            <ns3:hr>87</ns3:hr>
          </ns3:TrackPointExtension>
        </extensions>
      </trkpt>
      <trkpt lat="36.80594223551452159881591796875" lon="-118.40622668154537677764892578125">
        <ele>3313.60009765625</ele>
        <time>2021-06-26T22:46:15.000Z</time>
        <extensions>
          <ns3:TrackPointExtension>
            <ns3:atemp>28.0</ns3:atemp>
            <ns3:hr>86</ns3:hr>
          </ns3:TrackPointExtension>
        </extensions>
      </trkpt>
      <trkpt lat="36.805937290191650390625" lon="-118.40622718445956707000732421875">
        <ele>3312.39990234375</ele>
        <time>2021-06-26T22:46:20.000Z</time>
        <extensions>
          <ns3:TrackPointExtension>
            <ns3:atemp>28.0</ns3:atemp>
            <ns3:hr>85</ns3:hr>
          </ns3:TrackPointExtension>
        </extensions>
      </trkpt>
      <trkpt lat="36.80587970651686191558837890625" lon="-118.4062170423567295074462890625">
        <ele>3312.199951171875</ele>
        <time>2021-06-26T22:46:25.000Z</time>
        <extensions>
          <ns3:TrackPointExtension>
            <ns3:atemp>28.0</ns3:atemp>
            <ns3:hr>82</ns3:hr>
          </ns3:TrackPointExtension>
        </extensions>
      </trkpt>
      <trkpt lat="36.80587283335626125335693359375" lon="-118.4062089957296848297119140625">
        <ele>3312.199951171875</ele>
        <time>2021-06-26T22:46:26.000Z</time>
        <extensions>
          <ns3:TrackPointExtension>
            <ns3:atemp>28.0</ns3:atemp>
            <ns3:hr>82</ns3:hr>
          </ns3:TrackPointExtension>
        </extensions>
      </trkpt>
      <trkpt lat="36.80586830712854862213134765625" lon="-118.40619969181716442108154296875">
        <ele>3312</ele>
        <time>2021-06-26T22:46:27.000Z</time>
        <extensions>
          <ns3:TrackPointExtension>
            <ns3:atemp>28.0</ns3:atemp>
            <ns3:hr>82</ns3:hr>
          </ns3:TrackPointExtension>
        </extensions>
      </trkpt>
      <trkpt lat="36.80585087276995182037353515625" lon="-118.4061593748629093170166015625">
        <ele>3311.60009765625</ele>
        <time>2021-06-26T22:46:31.000Z</time>
        <extensions>
          <ns3:TrackPointExtension>
            <ns3:atemp>28.0</ns3:atemp>
            <ns3:hr>81</ns3:hr>
          </ns3:TrackPointExtension>
        </extensions>
      </trkpt>
      <trkpt lat="36.80586730130016803741455078125" lon="-118.40614923276007175445556640625">
        <ele>3311.199951171875</ele>
        <time>2021-06-26T22:46:33.000Z</time>
        <extensions>
          <ns3:TrackPointExtension>
            <ns3:atemp>28.0</ns3:atemp>
            <ns3:hr>80</ns3:hr>
          </ns3:TrackPointExtension>
        </extensions>
      </trkpt>
      <trkpt lat="36.805881299078464508056640625" lon="-118.40610061772167682647705078125">
        <ele>3310.199951171875</ele>
        <time>2021-06-26T22:46:38.000Z</time>
        <extensions>
          <ns3:TrackPointExtension>
            <ns3:atemp>28.0</ns3:atemp>
            <ns3:hr>80</ns3:hr>
          </ns3:TrackPointExtension>
        </extensions>
      </trkpt>
      <trkpt lat="36.80588163435459136962890625" lon="-118.4060648269951343536376953125">
        <ele>3310.199951171875</ele>
        <time>2021-06-26T22:46:41.000Z</time>
        <extensions>
          <ns3:TrackPointExtension>
            <ns3:atemp>28.0</ns3:atemp>
            <ns3:hr>83</ns3:hr>
          </ns3:TrackPointExtension>
        </extensions>
      </trkpt>
      <trkpt lat="36.80588138289749622344970703125" lon="-118.40605116449296474456787109375">
        <ele>3309</ele>
        <time>2021-06-26T22:46:42.000Z</time>
        <extensions>
          <ns3:TrackPointExtension>
            <ns3:atemp>28.0</ns3:atemp>
            <ns3:hr>84</ns3:hr>
          </ns3:TrackPointExtension>
        </extensions>
      </trkpt>
      <trkpt lat="36.80590099655091762542724609375" lon="-118.40601260773837566375732421875">
        <ele>3308.39990234375</ele>
        <time>2021-06-26T22:46:47.000Z</time>
        <extensions>
          <ns3:TrackPointExtension>
            <ns3:atemp>28.0</ns3:atemp>
            <ns3:hr>84</ns3:hr>
          </ns3:TrackPointExtension>
        </extensions>
      </trkpt>
      <trkpt lat="36.80590954609215259552001953125" lon="-118.4059957601130008697509765625">
        <ele>3308</ele>
        <time>2021-06-26T22:46:49.000Z</time>
        <extensions>
          <ns3:TrackPointExtension>
            <ns3:atemp>28.0</ns3:atemp>
            <ns3:hr>84</ns3:hr>
          </ns3:TrackPointExtension>
        </extensions>
      </trkpt>
      <trkpt lat="36.80588565766811370849609375" lon="-118.40595460496842861175537109375">
        <ele>3307</ele>
        <time>2021-06-26T22:46:54.000Z</time>
        <extensions>
          <ns3:TrackPointExtension>
            <ns3:atemp>28.0</ns3:atemp>
            <ns3:hr>83</ns3:hr>
          </ns3:TrackPointExtension>
        </extensions>
      </trkpt>
      <trkpt lat="36.8058529682457447052001953125" lon="-118.405926860868930816650390625">
        <ele>3305.800048828125</ele>
        <time>2021-06-26T22:46:58.000Z</time>
        <extensions>
          <ns3:TrackPointExtension>
            <ns3:atemp>28.0</ns3:atemp>
            <ns3:hr>82</ns3:hr>
          </ns3:TrackPointExtension>
        </extensions>
      </trkpt>
      <trkpt lat="36.8058338575065135955810546875" lon="-118.40591504238545894622802734375">
        <ele>3305.199951171875</ele>
        <time>2021-06-26T22:47:00.000Z</time>
        <extensions>
          <ns3:TrackPointExtension>
            <ns3:atemp>28.0</ns3:atemp>
            <ns3:hr>82</ns3:hr>
          </ns3:TrackPointExtension>
        </extensions>
      </trkpt>
      <trkpt lat="36.8058191053569316864013671875" lon="-118.40589995495975017547607421875">
        <ele>3304.60009765625</ele>
        <time>2021-06-26T22:47:02.000Z</time>
        <extensions>
          <ns3:TrackPointExtension>
            <ns3:atemp>28.0</ns3:atemp>
            <ns3:hr>82</ns3:hr>
          </ns3:TrackPointExtension>
        </extensions>
      </trkpt>
      <trkpt lat="36.80579714477062225341796875" lon="-118.40584781952202320098876953125">
        <ele>3303.800048828125</ele>
        <time>2021-06-26T22:47:08.000Z</time>
        <extensions>
          <ns3:TrackPointExtension>
            <ns3:atemp>28.0</ns3:atemp>
            <ns3:hr>82</ns3:hr>
          </ns3:TrackPointExtension>
        </extensions>
      </trkpt>
      <trkpt lat="36.8057936243712902069091796875" lon="-118.40583474375307559967041015625">
        <ele>3303.39990234375</ele>
        <time>2021-06-26T22:47:09.000Z</time>
        <extensions>
          <ns3:TrackPointExtension>
            <ns3:atemp>28.0</ns3:atemp>
            <ns3:hr>80</ns3:hr>
          </ns3:TrackPointExtension>
        </extensions>
      </trkpt>
      <trkpt lat="36.80575582198798656463623046875" lon="-118.40580205433070659637451171875">
        <ele>3301.800048828125</ele>
        <time>2021-06-26T22:47:14.000Z</time>
        <extensions>
          <ns3:TrackPointExtension>
            <ns3:atemp>28.0</ns3:atemp>
            <ns3:hr>81</ns3:hr>
          </ns3:TrackPointExtension>
        </extensions>
      </trkpt>
      <trkpt lat="36.8057497031986713409423828125" lon="-118.40579719282686710357666015625">
        <ele>3301.39990234375</ele>
        <time>2021-06-26T22:47:16.000Z</time>
        <extensions>
          <ns3:TrackPointExtension>
            <ns3:atemp>28.0</ns3:atemp>
            <ns3:hr>83</ns3:hr>
          </ns3:TrackPointExtension>
        </extensions>
      </trkpt>
      <trkpt lat="36.80574953556060791015625" lon="-118.405792750418186187744140625">
        <ele>3301.39990234375</ele>
        <time>2021-06-26T22:47:17.000Z</time>
        <extensions>
          <ns3:TrackPointExtension>
            <ns3:atemp>28.0</ns3:atemp>
            <ns3:hr>83</ns3:hr>
          </ns3:TrackPointExtension>
        </extensions>
      </trkpt>
      <trkpt lat="36.8057419918477535247802734375" lon="-118.40573935769498348236083984375">
        <ele>3300.60009765625</ele>
        <time>2021-06-26T22:47:23.000Z</time>
        <extensions>
          <ns3:TrackPointExtension>
            <ns3:atemp>28.0</ns3:atemp>
            <ns3:hr>84</ns3:hr>
          </ns3:TrackPointExtension>
        </extensions>
      </trkpt>
      <trkpt lat="36.8057473562657833099365234375" lon="-118.405704237520694732666015625">
        <ele>3300.199951171875</ele>
        <time>2021-06-26T22:47:27.000Z</time>
        <extensions>
          <ns3:TrackPointExtension>
            <ns3:atemp>27.0</ns3:atemp>
            <ns3:hr>84</ns3:hr>
          </ns3:TrackPointExtension>
        </extensions>
      </trkpt>
      <trkpt lat="36.80575213395059108734130859375" lon="-118.405661322176456451416015625">
        <ele>3299.60009765625</ele>
        <time>2021-06-26T22:47:31.000Z</time>
        <extensions>
          <ns3:TrackPointExtension>
            <ns3:atemp>27.0</ns3:atemp>
            <ns3:hr>84</ns3:hr>
          </ns3:TrackPointExtension>
        </extensions>
      </trkpt>
      <trkpt lat="36.8057580851018428802490234375" lon="-118.40564128942787647247314453125">
        <ele>3298</ele>
        <time>2021-06-26T22:47:33.000Z</time>
        <extensions>
          <ns3:TrackPointExtension>
            <ns3:atemp>27.0</ns3:atemp>
            <ns3:hr>83</ns3:hr>
          </ns3:TrackPointExtension>
        </extensions>
      </trkpt>
      <trkpt lat="36.80576319806277751922607421875" lon="-118.405626453459262847900390625">
        <ele>3297.800048828125</ele>
        <time>2021-06-26T22:47:35.000Z</time>
        <extensions>
          <ns3:TrackPointExtension>
            <ns3:atemp>27.0</ns3:atemp>
            <ns3:hr>83</ns3:hr>
          </ns3:TrackPointExtension>
        </extensions>
      </trkpt>
      <trkpt lat="36.8057815544307231903076171875" lon="-118.40560155920684337615966796875">
        <ele>3297</ele>
        <time>2021-06-26T22:47:39.000Z</time>
        <extensions>
          <ns3:TrackPointExtension>
            <ns3:atemp>27.0</ns3:atemp>
            <ns3:hr>84</ns3:hr>
          </ns3:TrackPointExtension>
        </extensions>
      </trkpt>
      <trkpt lat="36.80579521693289279937744140625" lon="-118.40557037852704524993896484375">
        <ele>3296.60009765625</ele>
        <time>2021-06-26T22:47:43.000Z</time>
        <extensions>
          <ns3:TrackPointExtension>
            <ns3:atemp>27.0</ns3:atemp>
            <ns3:hr>83</ns3:hr>
          </ns3:TrackPointExtension>
        </extensions>
      </trkpt>
      <trkpt lat="36.80579856969416141510009765625" lon="-118.40554607100784778594970703125">
        <ele>3295.800048828125</ele>
        <time>2021-06-26T22:47:46.000Z</time>
        <extensions>
          <ns3:TrackPointExtension>
            <ns3:atemp>27.0</ns3:atemp>
            <ns3:hr>84</ns3:hr>
          </ns3:TrackPointExtension>
        </extensions>
      </trkpt>
      <trkpt lat="36.8057748489081859588623046875" lon="-118.40553903020918369293212890625">
        <ele>3294.60009765625</ele>
        <time>2021-06-26T22:47:49.000Z</time>
        <extensions>
          <ns3:TrackPointExtension>
            <ns3:atemp>27.0</ns3:atemp>
            <ns3:hr>82</ns3:hr>
          </ns3:TrackPointExtension>
        </extensions>
      </trkpt>
      <trkpt lat="36.8057248927652835845947265625" lon="-118.405551016330718994140625">
        <ele>3293.199951171875</ele>
        <time>2021-06-26T22:47:55.000Z</time>
        <extensions>
          <ns3:TrackPointExtension>
            <ns3:atemp>27.0</ns3:atemp>
            <ns3:hr>81</ns3:hr>
          </ns3:TrackPointExtension>
        </extensions>
      </trkpt>
      <trkpt lat="36.80572195909917354583740234375" lon="-118.40554766356945037841796875">
        <ele>3292.800048828125</ele>
        <time>2021-06-26T22:47:56.000Z</time>
        <extensions>
          <ns3:TrackPointExtension>
            <ns3:atemp>27.0</ns3:atemp>
            <ns3:hr>80</ns3:hr>
          </ns3:TrackPointExtension>
        </extensions>
      </trkpt>
      <trkpt lat="36.80572145618498325347900390625" lon="-118.405541963875293731689453125">
        <ele>3292.800048828125</ele>
        <time>2021-06-26T22:47:57.000Z</time>
        <extensions>
          <ns3:TrackPointExtension>
            <ns3:atemp>27.0</ns3:atemp>
            <ns3:hr>78</ns3:hr>
          </ns3:TrackPointExtension>
        </extensions>
      </trkpt>
      <trkpt lat="36.8057550676167011260986328125" lon="-118.40549091808497905731201171875">
        <ele>3292.800048828125</ele>
        <time>2021-06-26T22:48:02.000Z</time>
        <extensions>
          <ns3:TrackPointExtension>
            <ns3:atemp>27.0</ns3:atemp>
            <ns3:hr>79</ns3:hr>
          </ns3:TrackPointExtension>
        </extensions>
      </trkpt>
      <trkpt lat="36.8057725019752979278564453125" lon="-118.4054539538919925689697265625">
        <ele>3292.199951171875</ele>
        <time>2021-06-26T22:48:06.000Z</time>
        <extensions>
          <ns3:TrackPointExtension>
            <ns3:atemp>27.0</ns3:atemp>
            <ns3:hr>80</ns3:hr>
          </ns3:TrackPointExtension>
        </extensions>
      </trkpt>
      <trkpt lat="36.8057721666991710662841796875" lon="-118.40543995611369609832763671875">
        <ele>3291.800048828125</ele>
        <time>2021-06-26T22:48:07.000Z</time>
        <extensions>
          <ns3:TrackPointExtension>
            <ns3:atemp>27.0</ns3:atemp>
            <ns3:hr>83</ns3:hr>
          </ns3:TrackPointExtension>
        </extensions>
      </trkpt>
      <trkpt lat="36.80577292107045650482177734375" lon="-118.405425958335399627685546875">
        <ele>3291.800048828125</ele>
        <time>2021-06-26T22:48:08.000Z</time>
        <extensions>
          <ns3:TrackPointExtension>
            <ns3:atemp>27.0</ns3:atemp>
            <ns3:hr>80</ns3:hr>
          </ns3:TrackPointExtension>
        </extensions>
      </trkpt>
      <trkpt lat="36.805778704583644866943359375" lon="-118.40540148317813873291015625">
        <ele>3291</ele>
        <time>2021-06-26T22:48:10.000Z</time>
        <extensions>
          <ns3:TrackPointExtension>
            <ns3:atemp>27.0</ns3:atemp>
            <ns3:hr>80</ns3:hr>
          </ns3:TrackPointExtension>
        </extensions>
      </trkpt>
      <trkpt lat="36.80578566156327724456787109375" lon="-118.4053741581737995147705078125">
        <ele>3290.800048828125</ele>
        <time>2021-06-26T22:48:12.000Z</time>
        <extensions>
          <ns3:TrackPointExtension>
            <ns3:atemp>27.0</ns3:atemp>
            <ns3:hr>80</ns3:hr>
          </ns3:TrackPointExtension>
        </extensions>
      </trkpt>
      <trkpt lat="36.80579538457095623016357421875" lon="-118.40532294474542140960693359375">
        <ele>3289.60009765625</ele>
        <time>2021-06-26T22:48:18.000Z</time>
        <extensions>
          <ns3:TrackPointExtension>
            <ns3:atemp>27.0</ns3:atemp>
            <ns3:hr>78</ns3:hr>
          </ns3:TrackPointExtension>
        </extensions>
      </trkpt>
      <trkpt lat="36.805789768695831298828125" lon="-118.4053054265677928924560546875">
        <ele>3289.199951171875</ele>
        <time>2021-06-26T22:48:20.000Z</time>
        <extensions>
          <ns3:TrackPointExtension>
            <ns3:atemp>27.0</ns3:atemp>
            <ns3:hr>78</ns3:hr>
          </ns3:TrackPointExtension>
        </extensions>
      </trkpt>
      <trkpt lat="36.80578029714524745941162109375" lon="-118.4052772633731365203857421875">
        <ele>3288.39990234375</ele>
        <time>2021-06-26T22:48:22.000Z</time>
        <extensions>
          <ns3:TrackPointExtension>
            <ns3:atemp>27.0</ns3:atemp>
            <ns3:hr>77</ns3:hr>
          </ns3:TrackPointExtension>
        </extensions>
      </trkpt>
      <trkpt lat="36.80576906539499759674072265625" lon="-118.40525639243423938751220703125">
        <ele>3288.199951171875</ele>
        <time>2021-06-26T22:48:24.000Z</time>
        <extensions>
          <ns3:TrackPointExtension>
            <ns3:atemp>27.0</ns3:atemp>
            <ns3:hr>77</ns3:hr>
          </ns3:TrackPointExtension>
        </extensions>
      </trkpt>
      <trkpt lat="36.80575598962604999542236328125" lon="-118.4052299894392490386962890625">
        <ele>3287.60009765625</ele>
        <time>2021-06-26T22:48:27.000Z</time>
        <extensions>
          <ns3:TrackPointExtension>
            <ns3:atemp>27.0</ns3:atemp>
            <ns3:hr>78</ns3:hr>
          </ns3:TrackPointExtension>
        </extensions>
      </trkpt>
      <trkpt lat="36.805747859179973602294921875" lon="-118.40522454120218753814697265625">
        <ele>3286.800048828125</ele>
        <time>2021-06-26T22:48:28.000Z</time>
        <extensions>
          <ns3:TrackPointExtension>
            <ns3:atemp>28.0</ns3:atemp>
            <ns3:hr>78</ns3:hr>
          </ns3:TrackPointExtension>
        </extensions>
      </trkpt>
      <trkpt lat="36.805732436478137969970703125" lon="-118.40522311627864837646484375">
        <ele>3285.60009765625</ele>
        <time>2021-06-26T22:48:30.000Z</time>
        <extensions>
          <ns3:TrackPointExtension>
            <ns3:atemp>28.0</ns3:atemp>
            <ns3:hr>78</ns3:hr>
          </ns3:TrackPointExtension>
        </extensions>
      </trkpt>
      <trkpt lat="36.80572397075593471527099609375" lon="-118.40522454120218753814697265625">
        <ele>3285.199951171875</ele>
        <time>2021-06-26T22:48:31.000Z</time>
        <extensions>
          <ns3:TrackPointExtension>
            <ns3:atemp>28.0</ns3:atemp>
            <ns3:hr>78</ns3:hr>
          </ns3:TrackPointExtension>
        </extensions>
      </trkpt>
      <trkpt lat="36.80571424774825572967529296875" lon="-118.4052142314612865447998046875">
        <ele>3285</ele>
        <time>2021-06-26T22:48:33.000Z</time>
        <extensions>
          <ns3:TrackPointExtension>
            <ns3:atemp>28.0</ns3:atemp>
            <ns3:hr>78</ns3:hr>
          </ns3:TrackPointExtension>
        </extensions>
      </trkpt>
      <trkpt lat="36.8057118169963359832763671875" lon="-118.405208028852939605712890625">
        <ele>3285</ele>
        <time>2021-06-26T22:48:34.000Z</time>
        <extensions>
          <ns3:TrackPointExtension>
            <ns3:atemp>28.0</ns3:atemp>
            <ns3:hr>79</ns3:hr>
          </ns3:TrackPointExtension>
        </extensions>
      </trkpt>
      <trkpt lat="36.80571206845343112945556640625" lon="-118.40520677156746387481689453125">
        <ele>3285.199951171875</ele>
        <time>2021-06-26T22:48:35.000Z</time>
        <extensions>
          <ns3:TrackPointExtension>
            <ns3:atemp>28.0</ns3:atemp>
            <ns3:hr>79</ns3:hr>
          </ns3:TrackPointExtension>
        </extensions>
      </trkpt>
      <trkpt lat="36.8057168461382389068603515625" lon="-118.40520777739584445953369140625">
        <ele>3285.800048828125</ele>
        <time>2021-06-26T22:48:43.000Z</time>
        <extensions>
          <ns3:TrackPointExtension>
            <ns3:atemp>28.0</ns3:atemp>
            <ns3:hr>81</ns3:hr>
          </ns3:TrackPointExtension>
        </extensions>
      </trkpt>
      <trkpt lat="36.8057168461382389068603515625" lon="-118.40520777739584445953369140625">
        <ele>3284.60009765625</ele>
        <time>2021-06-26T22:48:48.000Z</time>
        <extensions>
          <ns3:TrackPointExtension>
            <ns3:atemp>28.0</ns3:atemp>
            <ns3:hr>82</ns3:hr>
          </ns3:TrackPointExtension>
        </extensions>
      </trkpt>
      <trkpt lat="36.80571391247212886810302734375" lon="-118.40521079488098621368408203125">
        <ele>3284.39990234375</ele>
        <time>2021-06-26T22:49:01.000Z</time>
        <extensions>
          <ns3:TrackPointExtension>
            <ns3:atemp>28.0</ns3:atemp>
            <ns3:hr>85</ns3:hr>
          </ns3:TrackPointExtension>
        </extensions>
      </trkpt>
      <trkpt lat="36.80571123026311397552490234375" lon="-118.40521129779517650604248046875">
        <ele>3284.39990234375</ele>
        <time>2021-06-26T22:49:06.000Z</time>
        <extensions>
          <ns3:TrackPointExtension>
            <ns3:atemp>28.0</ns3:atemp>
            <ns3:hr>88</ns3:hr>
          </ns3:TrackPointExtension>
        </extensions>
      </trkpt>
      <trkpt lat="36.8056963942945003509521484375" lon="-118.4052138961851596832275390625">
        <ele>3284.800048828125</ele>
        <time>2021-06-26T22:49:38.000Z</time>
        <extensions>
          <ns3:TrackPointExtension>
            <ns3:atemp>28.0</ns3:atemp>
            <ns3:hr>85</ns3:hr>
          </ns3:TrackPointExtension>
        </extensions>
      </trkpt>
      <trkpt lat="36.8056910298764705657958984375" lon="-118.4051964618265628814697265625">
        <ele>3283.60009765625</ele>
        <time>2021-06-26T22:49:49.000Z</time>
        <extensions>
          <ns3:TrackPointExtension>
            <ns3:atemp>28.0</ns3:atemp>
            <ns3:hr>83</ns3:hr>
          </ns3:TrackPointExtension>
        </extensions>
      </trkpt>
      <trkpt lat="36.8056900240480899810791015625" lon="-118.40519201941788196563720703125">
        <ele>3283.39990234375</ele>
        <time>2021-06-26T22:49:52.000Z</time>
        <extensions>
          <ns3:TrackPointExtension>
            <ns3:atemp>28.0</ns3:atemp>
            <ns3:hr>80</ns3:hr>
          </ns3:TrackPointExtension>
        </extensions>
      </trkpt>
      <trkpt lat="36.8056860007345676422119140625" lon="-118.40519034303724765777587890625">
        <ele>3282.39990234375</ele>
        <time>2021-06-26T22:49:55.000Z</time>
        <extensions>
          <ns3:TrackPointExtension>
            <ns3:atemp>28.0</ns3:atemp>
            <ns3:hr>80</ns3:hr>
          </ns3:TrackPointExtension>
        </extensions>
      </trkpt>
      <trkpt lat="36.80564451031386852264404296875" lon="-118.40517709963023662567138671875">
        <ele>3282</ele>
        <time>2021-06-26T22:50:00.000Z</time>
        <extensions>
          <ns3:TrackPointExtension>
            <ns3:atemp>28.0</ns3:atemp>
            <ns3:hr>78</ns3:hr>
          </ns3:TrackPointExtension>
        </extensions>
      </trkpt>
      <trkpt lat="36.80556924082338809967041015625" lon="-118.40517475269734859466552734375">
        <ele>3281.199951171875</ele>
        <time>2021-06-26T22:50:06.000Z</time>
        <extensions>
          <ns3:TrackPointExtension>
            <ns3:atemp>27.0</ns3:atemp>
            <ns3:hr>78</ns3:hr>
          </ns3:TrackPointExtension>
        </extensions>
      </trkpt>
      <trkpt lat="36.8055636249482631683349609375" lon="-118.4051746688783168792724609375">
        <ele>3281.199951171875</ele>
        <time>2021-06-26T22:50:07.000Z</time>
        <extensions>
          <ns3:TrackPointExtension>
            <ns3:atemp>27.0</ns3:atemp>
            <ns3:hr>79</ns3:hr>
          </ns3:TrackPointExtension>
        </extensions>
      </trkpt>
      <trkpt lat="36.80551727302372455596923828125" lon="-118.40518690645694732666015625">
        <ele>3281.60009765625</ele>
        <time>2021-06-26T22:50:12.000Z</time>
        <extensions>
          <ns3:TrackPointExtension>
            <ns3:atemp>27.0</ns3:atemp>
            <ns3:hr>82</ns3:hr>
          </ns3:TrackPointExtension>
        </extensions>
      </trkpt>
      <trkpt lat="36.80550604127347469329833984375" lon="-118.40519000776112079620361328125">
        <ele>3281.60009765625</ele>
        <time>2021-06-26T22:50:13.000Z</time>
        <extensions>
          <ns3:TrackPointExtension>
            <ns3:atemp>27.0</ns3:atemp>
            <ns3:hr>86</ns3:hr>
          </ns3:TrackPointExtension>
        </extensions>
      </trkpt>
      <trkpt lat="36.8054972402751445770263671875" lon="-118.40519201941788196563720703125">
        <ele>3281.60009765625</ele>
        <time>2021-06-26T22:50:14.000Z</time>
        <extensions>
          <ns3:TrackPointExtension>
            <ns3:atemp>27.0</ns3:atemp>
            <ns3:hr>89</ns3:hr>
          </ns3:TrackPointExtension>
        </extensions>
      </trkpt>
      <trkpt lat="36.80544912815093994140625" lon="-118.4051864035427570343017578125">
        <ele>3281.60009765625</ele>
        <time>2021-06-26T22:50:19.000Z</time>
        <extensions>
          <ns3:TrackPointExtension>
            <ns3:atemp>27.0</ns3:atemp>
            <ns3:hr>86</ns3:hr>
          </ns3:TrackPointExtension>
        </extensions>
      </trkpt>
      <trkpt lat="36.805414259433746337890625" lon="-118.40518078766763210296630859375">
        <ele>3281.60009765625</ele>
        <time>2021-06-26T22:50:23.000Z</time>
        <extensions>
          <ns3:TrackPointExtension>
            <ns3:atemp>27.0</ns3:atemp>
            <ns3:hr>88</ns3:hr>
          </ns3:TrackPointExtension>
        </extensions>
      </trkpt>
      <trkpt lat="36.80539959110319614410400390625" lon="-118.4051875770092010498046875">
        <ele>3281.39990234375</ele>
        <time>2021-06-26T22:50:26.000Z</time>
        <extensions>
          <ns3:TrackPointExtension>
            <ns3:atemp>27.0</ns3:atemp>
            <ns3:hr>91</ns3:hr>
          </ns3:TrackPointExtension>
        </extensions>
      </trkpt>
      <trkpt lat="36.80539439432322978973388671875" lon="-118.40518900193274021148681640625">
        <ele>3281.39990234375</ele>
        <time>2021-06-26T22:50:27.000Z</time>
        <extensions>
          <ns3:TrackPointExtension>
            <ns3:atemp>27.0</ns3:atemp>
            <ns3:hr>91</ns3:hr>
          </ns3:TrackPointExtension>
        </extensions>
      </trkpt>
      <trkpt lat="36.805387772619724273681640625" lon="-118.40518699027597904205322265625">
        <ele>3281.199951171875</ele>
        <time>2021-06-26T22:50:28.000Z</time>
        <extensions>
          <ns3:TrackPointExtension>
            <ns3:atemp>27.0</ns3:atemp>
            <ns3:hr>91</ns3:hr>
          </ns3:TrackPointExtension>
        </extensions>
      </trkpt>
      <trkpt lat="36.8053778819739818572998046875" lon="-118.40517257340252399444580078125">
        <ele>3281</ele>
        <time>2021-06-26T22:50:30.000Z</time>
        <extensions>
          <ns3:TrackPointExtension>
            <ns3:atemp>28.0</ns3:atemp>
            <ns3:hr>89</ns3:hr>
          </ns3:TrackPointExtension>
        </extensions>
      </trkpt>
      <trkpt lat="36.8053661473095417022705078125" lon="-118.4051253832876682281494140625">
        <ele>3279.800048828125</ele>
        <time>2021-06-26T22:50:35.000Z</time>
        <extensions>
          <ns3:TrackPointExtension>
            <ns3:atemp>28.0</ns3:atemp>
            <ns3:hr>91</ns3:hr>
          </ns3:TrackPointExtension>
        </extensions>
      </trkpt>
      <trkpt lat="36.805371344089508056640625" lon="-118.40511046350002288818359375">
        <ele>3279.60009765625</ele>
        <time>2021-06-26T22:50:38.000Z</time>
        <extensions>
          <ns3:TrackPointExtension>
            <ns3:atemp>28.0</ns3:atemp>
            <ns3:hr>92</ns3:hr>
          </ns3:TrackPointExtension>
        </extensions>
      </trkpt>
      <trkpt lat="36.8053728528320789337158203125" lon="-118.405110128223896026611328125">
        <ele>3279.39990234375</ele>
        <time>2021-06-26T22:50:39.000Z</time>
        <extensions>
          <ns3:TrackPointExtension>
            <ns3:atemp>28.0</ns3:atemp>
            <ns3:hr>95</ns3:hr>
          </ns3:TrackPointExtension>
        </extensions>
      </trkpt>
      <trkpt lat="36.8053812347352504730224609375" lon="-118.40510132722556591033935546875">
        <ele>3278.800048828125</ele>
        <time>2021-06-26T22:50:41.000Z</time>
        <extensions>
          <ns3:TrackPointExtension>
            <ns3:atemp>28.0</ns3:atemp>
            <ns3:hr>93</ns3:hr>
          </ns3:TrackPointExtension>
        </extensions>
      </trkpt>
      <trkpt lat="36.80540244095027446746826171875" lon="-118.4050901792943477630615234375">
        <ele>3277.800048828125</ele>
        <time>2021-06-26T22:50:44.000Z</time>
        <extensions>
          <ns3:TrackPointExtension>
            <ns3:atemp>28.0</ns3:atemp>
            <ns3:hr>90</ns3:hr>
          </ns3:TrackPointExtension>
        </extensions>
      </trkpt>
      <trkpt lat="36.8054154329001903533935546875" lon="-118.40508322231471538543701171875">
        <ele>3277.800048828125</ele>
        <time>2021-06-26T22:50:46.000Z</time>
        <extensions>
          <ns3:TrackPointExtension>
            <ns3:atemp>28.0</ns3:atemp>
            <ns3:hr>90</ns3:hr>
          </ns3:TrackPointExtension>
        </extensions>
      </trkpt>
      <trkpt lat="36.80543865077197551727294921875" lon="-118.40505279600620269775390625">
        <ele>3276.60009765625</ele>
        <time>2021-06-26T22:50:51.000Z</time>
        <extensions>
          <ns3:TrackPointExtension>
            <ns3:atemp>28.0</ns3:atemp>
            <ns3:hr>90</ns3:hr>
          </ns3:TrackPointExtension>
        </extensions>
      </trkpt>
      <trkpt lat="36.805441416800022125244140625" lon="-118.40504567138850688934326171875">
        <ele>3276.60009765625</ele>
        <time>2021-06-26T22:50:52.000Z</time>
        <extensions>
          <ns3:TrackPointExtension>
            <ns3:atemp>28.0</ns3:atemp>
            <ns3:hr>90</ns3:hr>
          </ns3:TrackPointExtension>
        </extensions>
      </trkpt>
      <trkpt lat="36.80544652976095676422119140625" lon="-118.40498037636280059814453125">
        <ele>3275</ele>
        <time>2021-06-26T22:50:58.000Z</time>
        <extensions>
          <ns3:TrackPointExtension>
            <ns3:atemp>28.0</ns3:atemp>
            <ns3:hr>90</ns3:hr>
          </ns3:TrackPointExtension>
        </extensions>
      </trkpt>
      <trkpt lat="36.80544435046613216400146484375" lon="-118.40497509576380252838134765625">
        <ele>3275</ele>
        <time>2021-06-26T22:50:59.000Z</time>
        <extensions>
          <ns3:TrackPointExtension>
            <ns3:atemp>28.0</ns3:atemp>
            <ns3:hr>90</ns3:hr>
          </ns3:TrackPointExtension>
        </extensions>
      </trkpt>
      <trkpt lat="36.80544552393257617950439453125" lon="-118.40497626923024654388427734375">
        <ele>3274.800048828125</ele>
        <time>2021-06-26T22:51:00.000Z</time>
        <extensions>
          <ns3:TrackPointExtension>
            <ns3:atemp>28.0</ns3:atemp>
            <ns3:hr>89</ns3:hr>
          </ns3:TrackPointExtension>
        </extensions>
      </trkpt>
      <trkpt lat="36.80544401519000530242919921875" lon="-118.4049818851053714752197265625">
        <ele>3274.60009765625</ele>
        <time>2021-06-26T22:51:13.000Z</time>
        <extensions>
          <ns3:TrackPointExtension>
            <ns3:atemp>28.0</ns3:atemp>
            <ns3:hr>90</ns3:hr>
          </ns3:TrackPointExtension>
        </extensions>
      </trkpt>
      <trkpt lat="36.8054030276834964752197265625" lon="-118.40496503747999668121337890625">
        <ele>3274.60009765625</ele>
        <time>2021-06-26T22:51:19.000Z</time>
        <extensions>
          <ns3:TrackPointExtension>
            <ns3:atemp>28.0</ns3:atemp>
            <ns3:hr>87</ns3:hr>
          </ns3:TrackPointExtension>
        </extensions>
      </trkpt>
      <trkpt lat="36.80533521808683872222900390625" lon="-118.40491038747131824493408203125">
        <ele>3274.60009765625</ele>
        <time>2021-06-26T22:51:25.000Z</time>
        <extensions>
          <ns3:TrackPointExtension>
            <ns3:atemp>28.0</ns3:atemp>
            <ns3:hr>84</ns3:hr>
          </ns3:TrackPointExtension>
        </extensions>
      </trkpt>
      <trkpt lat="36.8053289316594600677490234375" lon="-118.4049054421484470367431640625">
        <ele>3274.60009765625</ele>
        <time>2021-06-26T22:51:26.000Z</time>
        <extensions>
          <ns3:TrackPointExtension>
            <ns3:atemp>28.0</ns3:atemp>
            <ns3:hr>84</ns3:hr>
          </ns3:TrackPointExtension>
        </extensions>
      </trkpt>
      <trkpt lat="36.805308647453784942626953125" lon="-118.4048984013497829437255859375">
        <ele>3274.60009765625</ele>
        <time>2021-06-26T22:51:28.000Z</time>
        <extensions>
          <ns3:TrackPointExtension>
            <ns3:atemp>28.0</ns3:atemp>
            <ns3:hr>82</ns3:hr>
          </ns3:TrackPointExtension>
        </extensions>
      </trkpt>
      <trkpt lat="36.8052913807332515716552734375" lon="-118.404898233711719512939453125">
        <ele>3274.199951171875</ele>
        <time>2021-06-26T22:51:30.000Z</time>
        <extensions>
          <ns3:TrackPointExtension>
            <ns3:atemp>28.0</ns3:atemp>
            <ns3:hr>79</ns3:hr>
          </ns3:TrackPointExtension>
        </extensions>
      </trkpt>
      <trkpt lat="36.80528341792523860931396484375" lon="-118.40489647351205348968505859375">
        <ele>3273.800048828125</ele>
        <time>2021-06-26T22:51:31.000Z</time>
        <extensions>
          <ns3:TrackPointExtension>
            <ns3:atemp>28.0</ns3:atemp>
            <ns3:hr>82</ns3:hr>
          </ns3:TrackPointExtension>
        </extensions>
      </trkpt>
      <trkpt lat="36.80524989031255245208740234375" lon="-118.4048742614686489105224609375">
        <ele>3273.39990234375</ele>
        <time>2021-06-26T22:51:35.000Z</time>
        <extensions>
          <ns3:TrackPointExtension>
            <ns3:atemp>28.0</ns3:atemp>
            <ns3:hr>81</ns3:hr>
          </ns3:TrackPointExtension>
        </extensions>
      </trkpt>
      <trkpt lat="36.805246956646442413330078125" lon="-118.4048652090132236480712890625">
        <ele>3273.39990234375</ele>
        <time>2021-06-26T22:51:36.000Z</time>
        <extensions>
          <ns3:TrackPointExtension>
            <ns3:atemp>28.0</ns3:atemp>
            <ns3:hr>80</ns3:hr>
          </ns3:TrackPointExtension>
        </extensions>
      </trkpt>
      <trkpt lat="36.8052095733582973480224609375" lon="-118.404805697500705718994140625">
        <ele>3273.800048828125</ele>
        <time>2021-06-26T22:51:43.000Z</time>
        <extensions>
          <ns3:TrackPointExtension>
            <ns3:atemp>28.0</ns3:atemp>
            <ns3:hr>80</ns3:hr>
          </ns3:TrackPointExtension>
        </extensions>
      </trkpt>
      <trkpt lat="36.805155761539936065673828125" lon="-118.4047783724963665008544921875">
        <ele>3273</ele>
        <time>2021-06-26T22:51:51.000Z</time>
        <extensions>
          <ns3:TrackPointExtension>
            <ns3:atemp>28.0</ns3:atemp>
            <ns3:hr>81</ns3:hr>
          </ns3:TrackPointExtension>
        </extensions>
      </trkpt>
      <trkpt lat="36.80510605685412883758544921875" lon="-118.40477384626865386962890625">
        <ele>3273</ele>
        <time>2021-06-26T22:51:56.000Z</time>
        <extensions>
          <ns3:TrackPointExtension>
            <ns3:atemp>28.0</ns3:atemp>
            <ns3:hr>78</ns3:hr>
          </ns3:TrackPointExtension>
        </extensions>
      </trkpt>
      <trkpt lat="36.80508929304778575897216796875" lon="-118.404773175716400146484375">
        <ele>3272.60009765625</ele>
        <time>2021-06-26T22:51:58.000Z</time>
        <extensions>
          <ns3:TrackPointExtension>
            <ns3:atemp>28.0</ns3:atemp>
            <ns3:hr>78</ns3:hr>
          </ns3:TrackPointExtension>
        </extensions>
      </trkpt>
      <trkpt lat="36.80506548844277858734130859375" lon="-118.40474107302725315093994140625">
        <ele>3272.39990234375</ele>
        <time>2021-06-26T22:52:05.000Z</time>
        <extensions>
          <ns3:TrackPointExtension>
            <ns3:atemp>28.0</ns3:atemp>
            <ns3:hr>79</ns3:hr>
          </ns3:TrackPointExtension>
        </extensions>
      </trkpt>
      <trkpt lat="36.805070936679840087890625" lon="-118.40472296811640262603759765625">
        <ele>3271.60009765625</ele>
        <time>2021-06-26T22:52:08.000Z</time>
        <extensions>
          <ns3:TrackPointExtension>
            <ns3:atemp>28.0</ns3:atemp>
            <ns3:hr>79</ns3:hr>
          </ns3:TrackPointExtension>
        </extensions>
      </trkpt>
      <trkpt lat="36.805082671344280242919921875" lon="-118.4047240577638149261474609375">
        <ele>3271.199951171875</ele>
        <time>2021-06-26T22:52:10.000Z</time>
        <extensions>
          <ns3:TrackPointExtension>
            <ns3:atemp>28.0</ns3:atemp>
            <ns3:hr>79</ns3:hr>
          </ns3:TrackPointExtension>
        </extensions>
      </trkpt>
      <trkpt lat="36.8051059730350971221923828125" lon="-118.404730595648288726806640625">
        <ele>3271</ele>
        <time>2021-06-26T22:52:13.000Z</time>
        <extensions>
          <ns3:TrackPointExtension>
            <ns3:atemp>28.0</ns3:atemp>
            <ns3:hr>80</ns3:hr>
          </ns3:TrackPointExtension>
        </extensions>
      </trkpt>
      <trkpt lat="36.80512583814561367034912109375" lon="-118.40472313575446605682373046875">
        <ele>3271.199951171875</ele>
        <time>2021-06-26T22:52:16.000Z</time>
        <extensions>
          <ns3:TrackPointExtension>
            <ns3:atemp>28.0</ns3:atemp>
            <ns3:hr>82</ns3:hr>
          </ns3:TrackPointExtension>
        </extensions>
      </trkpt>
      <trkpt lat="36.805108487606048583984375" lon="-118.4047096408903598785400390625">
        <ele>3270</ele>
        <time>2021-06-26T22:52:18.000Z</time>
        <extensions>
          <ns3:TrackPointExtension>
            <ns3:atemp>28.0</ns3:atemp>
            <ns3:hr>83</ns3:hr>
          </ns3:TrackPointExtension>
        </extensions>
      </trkpt>
      <trkpt lat="36.80505190975964069366455078125" lon="-118.4046886861324310302734375">
        <ele>3269.199951171875</ele>
        <time>2021-06-26T22:52:23.000Z</time>
        <extensions>
          <ns3:TrackPointExtension>
            <ns3:atemp>28.0</ns3:atemp>
            <ns3:hr>86</ns3:hr>
          </ns3:TrackPointExtension>
        </extensions>
      </trkpt>
      <trkpt lat="36.805033385753631591796875" lon="-118.40468206442892551422119140625">
        <ele>3268.800048828125</ele>
        <time>2021-06-26T22:52:25.000Z</time>
        <extensions>
          <ns3:TrackPointExtension>
            <ns3:atemp>28.0</ns3:atemp>
            <ns3:hr>86</ns3:hr>
          </ns3:TrackPointExtension>
        </extensions>
      </trkpt>
      <trkpt lat="36.80501217953860759735107421875" lon="-118.40467569418251514434814453125">
        <ele>3269.39990234375</ele>
        <time>2021-06-26T22:52:27.000Z</time>
        <extensions>
          <ns3:TrackPointExtension>
            <ns3:atemp>28.0</ns3:atemp>
            <ns3:hr>87</ns3:hr>
          </ns3:TrackPointExtension>
        </extensions>
      </trkpt>
      <trkpt lat="36.80498845875263214111328125" lon="-118.40468055568635463714599609375">
        <ele>3268.800048828125</ele>
        <time>2021-06-26T22:52:30.000Z</time>
        <extensions>
          <ns3:TrackPointExtension>
            <ns3:atemp>28.0</ns3:atemp>
            <ns3:hr>90</ns3:hr>
          </ns3:TrackPointExtension>
        </extensions>
      </trkpt>
      <trkpt lat="36.80496373213827610015869140625" lon="-118.4046881832182407379150390625">
        <ele>3268.60009765625</ele>
        <time>2021-06-26T22:52:34.000Z</time>
        <extensions>
          <ns3:TrackPointExtension>
            <ns3:atemp>28.0</ns3:atemp>
            <ns3:hr>92</ns3:hr>
          </ns3:TrackPointExtension>
        </extensions>
      </trkpt>
      <trkpt lat="36.80494596250355243682861328125" lon="-118.404678963124752044677734375">
        <ele>3267.800048828125</ele>
        <time>2021-06-26T22:52:37.000Z</time>
        <extensions>
          <ns3:TrackPointExtension>
            <ns3:atemp>28.0</ns3:atemp>
            <ns3:hr>92</ns3:hr>
          </ns3:TrackPointExtension>
        </extensions>
      </trkpt>
      <trkpt lat="36.80493137799203395843505859375" lon="-118.40466278605163097381591796875">
        <ele>3267.60009765625</ele>
        <time>2021-06-26T22:52:39.000Z</time>
        <extensions>
          <ns3:TrackPointExtension>
            <ns3:atemp>28.0</ns3:atemp>
            <ns3:hr>93</ns3:hr>
          </ns3:TrackPointExtension>
        </extensions>
      </trkpt>
      <trkpt lat="36.80492333136498928070068359375" lon="-118.40466295368969440460205078125">
        <ele>3267.199951171875</ele>
        <time>2021-06-26T22:52:40.000Z</time>
        <extensions>
          <ns3:TrackPointExtension>
            <ns3:atemp>28.0</ns3:atemp>
            <ns3:hr>92</ns3:hr>
          </ns3:TrackPointExtension>
        </extensions>
      </trkpt>
      <trkpt lat="36.8049167096614837646484375" lon="-118.4046657197177410125732421875">
        <ele>3266.39990234375</ele>
        <time>2021-06-26T22:52:41.000Z</time>
        <extensions>
          <ns3:TrackPointExtension>
            <ns3:atemp>28.0</ns3:atemp>
            <ns3:hr>91</ns3:hr>
          </ns3:TrackPointExtension>
        </extensions>
      </trkpt>
      <trkpt lat="36.80490975268185138702392578125" lon="-118.40466898865997791290283203125">
        <ele>3266.39990234375</ele>
        <time>2021-06-26T22:52:42.000Z</time>
        <extensions>
          <ns3:TrackPointExtension>
            <ns3:atemp>28.0</ns3:atemp>
            <ns3:hr>88</ns3:hr>
          </ns3:TrackPointExtension>
        </extensions>
      </trkpt>
      <trkpt lat="36.8048967607319355010986328125" lon="-118.40463227592408657073974609375">
        <ele>3265.800048828125</ele>
        <time>2021-06-26T22:52:47.000Z</time>
        <extensions>
          <ns3:TrackPointExtension>
            <ns3:atemp>28.0</ns3:atemp>
            <ns3:hr>87</ns3:hr>
          </ns3:TrackPointExtension>
        </extensions>
      </trkpt>
      <trkpt lat="36.80490220896899700164794921875" lon="-118.40462322346866130828857421875">
        <ele>3265.39990234375</ele>
        <time>2021-06-26T22:52:49.000Z</time>
        <extensions>
          <ns3:TrackPointExtension>
            <ns3:atemp>28.0</ns3:atemp>
            <ns3:hr>85</ns3:hr>
          </ns3:TrackPointExtension>
        </extensions>
      </trkpt>
      <trkpt lat="36.8049131892621517181396484375" lon="-118.40460947714745998382568359375">
        <ele>3264.60009765625</ele>
        <time>2021-06-26T22:52:53.000Z</time>
        <extensions>
          <ns3:TrackPointExtension>
            <ns3:atemp>28.0</ns3:atemp>
            <ns3:hr>87</ns3:hr>
          </ns3:TrackPointExtension>
        </extensions>
      </trkpt>
      <trkpt lat="36.80491260252892971038818359375" lon="-118.40460042469203472137451171875">
        <ele>3264</ele>
        <time>2021-06-26T22:52:54.000Z</time>
        <extensions>
          <ns3:TrackPointExtension>
            <ns3:atemp>28.0</ns3:atemp>
            <ns3:hr>88</ns3:hr>
          </ns3:TrackPointExtension>
        </extensions>
      </trkpt>
      <trkpt lat="36.8049453757703304290771484375" lon="-118.4045768715441226959228515625">
        <ele>3262.800048828125</ele>
        <time>2021-06-26T22:52:59.000Z</time>
        <extensions>
          <ns3:TrackPointExtension>
            <ns3:atemp>27.0</ns3:atemp>
            <ns3:hr>88</ns3:hr>
          </ns3:TrackPointExtension>
        </extensions>
      </trkpt>
      <trkpt lat="36.80494286119937896728515625" lon="-118.40456907637417316436767578125">
        <ele>3262.800048828125</ele>
        <time>2021-06-26T22:53:00.000Z</time>
        <extensions>
          <ns3:TrackPointExtension>
            <ns3:atemp>28.0</ns3:atemp>
            <ns3:hr>88</ns3:hr>
          </ns3:TrackPointExtension>
        </extensions>
      </trkpt>
      <trkpt lat="36.80490371771156787872314453125" lon="-118.40452708303928375244140625">
        <ele>3261.800048828125</ele>
        <time>2021-06-26T22:53:05.000Z</time>
        <extensions>
          <ns3:TrackPointExtension>
            <ns3:atemp>28.0</ns3:atemp>
            <ns3:hr>86</ns3:hr>
          </ns3:TrackPointExtension>
        </extensions>
      </trkpt>
      <trkpt lat="36.80488779209554195404052734375" lon="-118.40452481992542743682861328125">
        <ele>3261.39990234375</ele>
        <time>2021-06-26T22:53:07.000Z</time>
        <extensions>
          <ns3:TrackPointExtension>
            <ns3:atemp>28.0</ns3:atemp>
            <ns3:hr>85</ns3:hr>
          </ns3:TrackPointExtension>
        </extensions>
      </trkpt>
      <trkpt lat="36.80487588979303836822509765625" lon="-118.40452113188803195953369140625">
        <ele>3261</ele>
        <time>2021-06-26T22:53:10.000Z</time>
        <extensions>
          <ns3:TrackPointExtension>
            <ns3:atemp>28.0</ns3:atemp>
            <ns3:hr>83</ns3:hr>
          </ns3:TrackPointExtension>
        </extensions>
      </trkpt>
      <trkpt lat="36.80487656034529209136962890625" lon="-118.40452230535447597503662109375">
        <ele>3261.199951171875</ele>
        <time>2021-06-26T22:53:15.000Z</time>
        <extensions>
          <ns3:TrackPointExtension>
            <ns3:atemp>28.0</ns3:atemp>
            <ns3:hr>84</ns3:hr>
          </ns3:TrackPointExtension>
        </extensions>
      </trkpt>
      <trkpt lat="36.80483146570622920989990234375" lon="-118.40452113188803195953369140625">
        <ele>3260.800048828125</ele>
        <time>2021-06-26T22:53:21.000Z</time>
        <extensions>
          <ns3:TrackPointExtension>
            <ns3:atemp>28.0</ns3:atemp>
            <ns3:hr>84</ns3:hr>
          </ns3:TrackPointExtension>
        </extensions>
      </trkpt>
      <trkpt lat="36.8048069067299365997314453125" lon="-118.40451995842158794403076171875">
        <ele>3260.39990234375</ele>
        <time>2021-06-26T22:53:23.000Z</time>
        <extensions>
          <ns3:TrackPointExtension>
            <ns3:atemp>28.0</ns3:atemp>
            <ns3:hr>84</ns3:hr>
          </ns3:TrackPointExtension>
        </extensions>
      </trkpt>
      <trkpt lat="36.804747395217418670654296875" lon="-118.40454610995948314666748046875">
        <ele>3260.199951171875</ele>
        <time>2021-06-26T22:53:29.000Z</time>
        <extensions>
          <ns3:TrackPointExtension>
            <ns3:atemp>28.0</ns3:atemp>
            <ns3:hr>83</ns3:hr>
          </ns3:TrackPointExtension>
        </extensions>
      </trkpt>
      <trkpt lat="36.80472099222242832183837890625" lon="-118.404545523226261138916015625">
        <ele>3260</ele>
        <time>2021-06-26T22:53:32.000Z</time>
        <extensions>
          <ns3:TrackPointExtension>
            <ns3:atemp>28.0</ns3:atemp>
            <ns3:hr>84</ns3:hr>
          </ns3:TrackPointExtension>
        </extensions>
      </trkpt>
      <trkpt lat="36.80471219122409820556640625" lon="-118.4045443497598171234130859375">
        <ele>3259.60009765625</ele>
        <time>2021-06-26T22:53:33.000Z</time>
        <extensions>
          <ns3:TrackPointExtension>
            <ns3:atemp>28.0</ns3:atemp>
            <ns3:hr>84</ns3:hr>
          </ns3:TrackPointExtension>
        </extensions>
      </trkpt>
      <trkpt lat="36.80466231890022754669189453125" lon="-118.40452984906733036041259765625">
        <ele>3258.60009765625</ele>
        <time>2021-06-26T22:53:37.000Z</time>
        <extensions>
          <ns3:TrackPointExtension>
            <ns3:atemp>28.0</ns3:atemp>
            <ns3:hr>87</ns3:hr>
          </ns3:TrackPointExtension>
        </extensions>
      </trkpt>
      <trkpt lat="36.804648153483867645263671875" lon="-118.40452180244028568267822265625">
        <ele>3258.39990234375</ele>
        <time>2021-06-26T22:53:38.000Z</time>
        <extensions>
          <ns3:TrackPointExtension>
            <ns3:atemp>28.0</ns3:atemp>
            <ns3:hr>87</ns3:hr>
          </ns3:TrackPointExtension>
        </extensions>
      </trkpt>
      <trkpt lat="36.80462778545916080474853515625" lon="-118.40450428426265716552734375">
        <ele>3257.800048828125</ele>
        <time>2021-06-26T22:53:40.000Z</time>
        <extensions>
          <ns3:TrackPointExtension>
            <ns3:atemp>28.0</ns3:atemp>
            <ns3:hr>88</ns3:hr>
          </ns3:TrackPointExtension>
        </extensions>
      </trkpt>
      <trkpt lat="36.804627366364002227783203125" lon="-118.404495231807231903076171875">
        <ele>3257.60009765625</ele>
        <time>2021-06-26T22:53:41.000Z</time>
        <extensions>
          <ns3:TrackPointExtension>
            <ns3:atemp>28.0</ns3:atemp>
            <ns3:hr>88</ns3:hr>
          </ns3:TrackPointExtension>
        </extensions>
      </trkpt>
      <trkpt lat="36.8046426214277744293212890625" lon="-118.404483497142791748046875">
        <ele>3257.199951171875</ele>
        <time>2021-06-26T22:53:43.000Z</time>
        <extensions>
          <ns3:TrackPointExtension>
            <ns3:atemp>28.0</ns3:atemp>
            <ns3:hr>88</ns3:hr>
          </ns3:TrackPointExtension>
        </extensions>
      </trkpt>
      <trkpt lat="36.80465443991124629974365234375" lon="-118.4044767916202545166015625">
        <ele>3257</ele>
        <time>2021-06-26T22:53:44.000Z</time>
        <extensions>
          <ns3:TrackPointExtension>
            <ns3:atemp>28.0</ns3:atemp>
            <ns3:hr>88</ns3:hr>
          </ns3:TrackPointExtension>
        </extensions>
      </trkpt>
      <trkpt lat="36.804685033857822418212890625" lon="-118.40443320572376251220703125">
        <ele>3255.800048828125</ele>
        <time>2021-06-26T22:53:49.000Z</time>
        <extensions>
          <ns3:TrackPointExtension>
            <ns3:atemp>28.0</ns3:atemp>
            <ns3:hr>88</ns3:hr>
          </ns3:TrackPointExtension>
        </extensions>
      </trkpt>
      <trkpt lat="36.80469098500907421112060546875" lon="-118.4044246561825275421142578125">
        <ele>3255.39990234375</ele>
        <time>2021-06-26T22:53:50.000Z</time>
        <extensions>
          <ns3:TrackPointExtension>
            <ns3:atemp>28.0</ns3:atemp>
            <ns3:hr>89</ns3:hr>
          </ns3:TrackPointExtension>
        </extensions>
      </trkpt>
      <trkpt lat="36.80471965111792087554931640625" lon="-118.4043948166072368621826171875">
        <ele>3254.800048828125</ele>
        <time>2021-06-26T22:53:54.000Z</time>
        <extensions>
          <ns3:TrackPointExtension>
            <ns3:atemp>28.0</ns3:atemp>
            <ns3:hr>89</ns3:hr>
          </ns3:TrackPointExtension>
        </extensions>
      </trkpt>
      <trkpt lat="36.80475770495831966400146484375" lon="-118.404369838535785675048828125">
        <ele>3254</ele>
        <time>2021-06-26T22:53:59.000Z</time>
        <extensions>
          <ns3:TrackPointExtension>
            <ns3:atemp>28.0</ns3:atemp>
            <ns3:hr>89</ns3:hr>
          </ns3:TrackPointExtension>
        </extensions>
      </trkpt>
      <trkpt lat="36.80477597750723361968994140625" lon="-118.40436170808970928192138671875">
        <ele>3253.199951171875</ele>
        <time>2021-06-26T22:54:01.000Z</time>
        <extensions>
          <ns3:TrackPointExtension>
            <ns3:atemp>28.0</ns3:atemp>
            <ns3:hr>91</ns3:hr>
          </ns3:TrackPointExtension>
        </extensions>
      </trkpt>
      <trkpt lat="36.80478326976299285888671875" lon="-118.40435416437685489654541015625">
        <ele>3253.199951171875</ele>
        <time>2021-06-26T22:54:02.000Z</time>
        <extensions>
          <ns3:TrackPointExtension>
            <ns3:atemp>28.0</ns3:atemp>
            <ns3:hr>91</ns3:hr>
          </ns3:TrackPointExtension>
        </extensions>
      </trkpt>
      <trkpt lat="36.80479726754128932952880859375" lon="-118.404344357550144195556640625">
        <ele>3252.800048828125</ele>
        <time>2021-06-26T22:54:04.000Z</time>
        <extensions>
          <ns3:TrackPointExtension>
            <ns3:atemp>28.0</ns3:atemp>
            <ns3:hr>88</ns3:hr>
          </ns3:TrackPointExtension>
        </extensions>
      </trkpt>
      <trkpt lat="36.8048048950731754302978515625" lon="-118.40433941222727298736572265625">
        <ele>3252.60009765625</ele>
        <time>2021-06-26T22:54:05.000Z</time>
        <extensions>
          <ns3:TrackPointExtension>
            <ns3:atemp>28.0</ns3:atemp>
            <ns3:hr>87</ns3:hr>
          </ns3:TrackPointExtension>
        </extensions>
      </trkpt>
      <trkpt lat="36.80485158227384090423583984375" lon="-118.40431141667068004608154296875">
        <ele>3252.199951171875</ele>
        <time>2021-06-26T22:54:10.000Z</time>
        <extensions>
          <ns3:TrackPointExtension>
            <ns3:atemp>28.0</ns3:atemp>
            <ns3:hr>85</ns3:hr>
          </ns3:TrackPointExtension>
        </extensions>
      </trkpt>
      <trkpt lat="36.8048585392534732818603515625" lon="-118.40430705808103084564208984375">
        <ele>3251.39990234375</ele>
        <time>2021-06-26T22:54:11.000Z</time>
        <extensions>
          <ns3:TrackPointExtension>
            <ns3:atemp>28.0</ns3:atemp>
            <ns3:hr>82</ns3:hr>
          </ns3:TrackPointExtension>
        </extensions>
      </trkpt>
      <trkpt lat="36.80487454868853092193603515625" lon="-118.404280655086040496826171875">
        <ele>3251</ele>
        <time>2021-06-26T22:54:14.000Z</time>
        <extensions>
          <ns3:TrackPointExtension>
            <ns3:atemp>28.0</ns3:atemp>
            <ns3:hr>83</ns3:hr>
          </ns3:TrackPointExtension>
        </extensions>
      </trkpt>
      <trkpt lat="36.80485728196799755096435546875" lon="-118.4042536653578281402587890625">
        <ele>3250.39990234375</ele>
        <time>2021-06-26T22:54:17.000Z</time>
        <extensions>
          <ns3:TrackPointExtension>
            <ns3:atemp>28.0</ns3:atemp>
            <ns3:hr>82</ns3:hr>
          </ns3:TrackPointExtension>
        </extensions>
      </trkpt>
      <trkpt lat="36.80484294891357421875" lon="-118.4042513184249401092529296875">
        <ele>3250</ele>
        <time>2021-06-26T22:54:19.000Z</time>
        <extensions>
          <ns3:TrackPointExtension>
            <ns3:atemp>28.0</ns3:atemp>
            <ns3:hr>82</ns3:hr>
          </ns3:TrackPointExtension>
        </extensions>
      </trkpt>
      <trkpt lat="36.80483649484813213348388671875" lon="-118.4042523242533206939697265625">
        <ele>3249.800048828125</ele>
        <time>2021-06-26T22:54:20.000Z</time>
        <extensions>
          <ns3:TrackPointExtension>
            <ns3:atemp>28.0</ns3:atemp>
            <ns3:hr>82</ns3:hr>
          </ns3:TrackPointExtension>
        </extensions>
      </trkpt>
      <trkpt lat="36.8048360757529735565185546875" lon="-118.40425626374781131744384765625">
        <ele>3249.39990234375</ele>
        <time>2021-06-26T22:54:22.000Z</time>
        <extensions>
          <ns3:TrackPointExtension>
            <ns3:atemp>28.0</ns3:atemp>
            <ns3:hr>82</ns3:hr>
          </ns3:TrackPointExtension>
        </extensions>
      </trkpt>
      <trkpt lat="36.80483431555330753326416015625" lon="-118.404255174100399017333984375">
        <ele>3249.39990234375</ele>
        <time>2021-06-26T22:54:26.000Z</time>
        <extensions>
          <ns3:TrackPointExtension>
            <ns3:atemp>28.0</ns3:atemp>
            <ns3:hr>82</ns3:hr>
          </ns3:TrackPointExtension>
        </extensions>
      </trkpt>
      <trkpt lat="36.80479190312325954437255859375" lon="-118.404237069189548492431640625">
        <ele>3249.199951171875</ele>
        <time>2021-06-26T22:54:32.000Z</time>
        <extensions>
          <ns3:TrackPointExtension>
            <ns3:atemp>28.0</ns3:atemp>
            <ns3:hr>82</ns3:hr>
          </ns3:TrackPointExtension>
        </extensions>
      </trkpt>
      <trkpt lat="36.804767511785030364990234375" lon="-118.40421200729906558990478515625">
        <ele>3248.60009765625</ele>
        <time>2021-06-26T22:54:37.000Z</time>
        <extensions>
          <ns3:TrackPointExtension>
            <ns3:atemp>28.0</ns3:atemp>
            <ns3:hr>83</ns3:hr>
          </ns3:TrackPointExtension>
        </extensions>
      </trkpt>
      <trkpt lat="36.80476273410022258758544921875" lon="-118.4041996859014034271240234375">
        <ele>3248.199951171875</ele>
        <time>2021-06-26T22:54:39.000Z</time>
        <extensions>
          <ns3:TrackPointExtension>
            <ns3:atemp>28.0</ns3:atemp>
            <ns3:hr>83</ns3:hr>
          </ns3:TrackPointExtension>
        </extensions>
      </trkpt>
      <trkpt lat="36.804786622524261474609375" lon="-118.40418535284698009490966796875">
        <ele>3247.39990234375</ele>
        <time>2021-06-26T22:54:43.000Z</time>
        <extensions>
          <ns3:TrackPointExtension>
            <ns3:atemp>28.0</ns3:atemp>
            <ns3:hr>84</ns3:hr>
          </ns3:TrackPointExtension>
        </extensions>
      </trkpt>
      <trkpt lat="36.80479257367551326751708984375" lon="-118.40417973697185516357421875">
        <ele>3247.199951171875</ele>
        <time>2021-06-26T22:54:44.000Z</time>
        <extensions>
          <ns3:TrackPointExtension>
            <ns3:atemp>28.0</ns3:atemp>
            <ns3:hr>84</ns3:hr>
          </ns3:TrackPointExtension>
        </extensions>
      </trkpt>
      <trkpt lat="36.80477430112659931182861328125" lon="-118.40412735007703304290771484375">
        <ele>3246.800048828125</ele>
        <time>2021-06-26T22:54:50.000Z</time>
        <extensions>
          <ns3:TrackPointExtension>
            <ns3:atemp>28.0</ns3:atemp>
            <ns3:hr>84</ns3:hr>
          </ns3:TrackPointExtension>
        </extensions>
      </trkpt>
      <trkpt lat="36.8047582916915416717529296875" lon="-118.4041094966232776641845703125">
        <ele>3246.39990234375</ele>
        <time>2021-06-26T22:54:52.000Z</time>
        <extensions>
          <ns3:TrackPointExtension>
            <ns3:atemp>28.0</ns3:atemp>
            <ns3:hr>86</ns3:hr>
          </ns3:TrackPointExtension>
        </extensions>
      </trkpt>
      <trkpt lat="36.8047529272735118865966796875" lon="-118.40410321019589900970458984375">
        <ele>3246.39990234375</ele>
        <time>2021-06-26T22:54:53.000Z</time>
        <extensions>
          <ns3:TrackPointExtension>
            <ns3:atemp>28.0</ns3:atemp>
            <ns3:hr>86</ns3:hr>
          </ns3:TrackPointExtension>
        </extensions>
      </trkpt>
      <trkpt lat="36.804754100739955902099609375" lon="-118.4040974266827106475830078125">
        <ele>3246</ele>
        <time>2021-06-26T22:54:55.000Z</time>
        <extensions>
          <ns3:TrackPointExtension>
            <ns3:atemp>28.0</ns3:atemp>
            <ns3:hr>86</ns3:hr>
          </ns3:TrackPointExtension>
        </extensions>
      </trkpt>
      <trkpt lat="36.804764829576015472412109375" lon="-118.4040986001491546630859375">
        <ele>3245.800048828125</ele>
        <time>2021-06-26T22:54:56.000Z</time>
        <extensions>
          <ns3:TrackPointExtension>
            <ns3:atemp>28.0</ns3:atemp>
            <ns3:hr>86</ns3:hr>
          </ns3:TrackPointExtension>
        </extensions>
      </trkpt>
      <trkpt lat="36.804780252277851104736328125" lon="-118.4040991030633449554443359375">
        <ele>3245.199951171875</ele>
        <time>2021-06-26T22:54:58.000Z</time>
        <extensions>
          <ns3:TrackPointExtension>
            <ns3:atemp>28.0</ns3:atemp>
            <ns3:hr>86</ns3:hr>
          </ns3:TrackPointExtension>
        </extensions>
      </trkpt>
      <trkpt lat="36.80482191033661365509033203125" lon="-118.40409114025533199310302734375">
        <ele>3244.60009765625</ele>
        <time>2021-06-26T22:55:03.000Z</time>
        <extensions>
          <ns3:TrackPointExtension>
            <ns3:atemp>28.0</ns3:atemp>
            <ns3:hr>85</ns3:hr>
          </ns3:TrackPointExtension>
        </extensions>
      </trkpt>
      <trkpt lat="36.804830543696880340576171875" lon="-118.40408359654247760772705078125">
        <ele>3244.60009765625</ele>
        <time>2021-06-26T22:55:04.000Z</time>
        <extensions>
          <ns3:TrackPointExtension>
            <ns3:atemp>28.0</ns3:atemp>
            <ns3:hr>85</ns3:hr>
          </ns3:TrackPointExtension>
        </extensions>
      </trkpt>
      <trkpt lat="36.8048451282083988189697265625" lon="-118.40407554991543292999267578125">
        <ele>3243.800048828125</ele>
        <time>2021-06-26T22:55:06.000Z</time>
        <extensions>
          <ns3:TrackPointExtension>
            <ns3:atemp>28.0</ns3:atemp>
            <ns3:hr>85</ns3:hr>
          </ns3:TrackPointExtension>
        </extensions>
      </trkpt>
      <trkpt lat="36.8048521690070629119873046875" lon="-118.40405828319489955902099609375">
        <ele>3242.800048828125</ele>
        <time>2021-06-26T22:55:08.000Z</time>
        <extensions>
          <ns3:TrackPointExtension>
            <ns3:atemp>28.0</ns3:atemp>
            <ns3:hr>86</ns3:hr>
          </ns3:TrackPointExtension>
        </extensions>
      </trkpt>
      <trkpt lat="36.80484051816165447235107421875" lon="-118.40403749607503414154052734375">
        <ele>3242.39990234375</ele>
        <time>2021-06-26T22:55:11.000Z</time>
        <extensions>
          <ns3:TrackPointExtension>
            <ns3:atemp>28.0</ns3:atemp>
            <ns3:hr>87</ns3:hr>
          </ns3:TrackPointExtension>
        </extensions>
      </trkpt>
      <trkpt lat="36.8048280291259288787841796875" lon="-118.40402391739189624786376953125">
        <ele>3242.39990234375</ele>
        <time>2021-06-26T22:55:14.000Z</time>
        <extensions>
          <ns3:TrackPointExtension>
            <ns3:atemp>28.0</ns3:atemp>
            <ns3:hr>87</ns3:hr>
          </ns3:TrackPointExtension>
        </extensions>
      </trkpt>
      <trkpt lat="36.80482056923210620880126953125" lon="-118.404014445841312408447265625">
        <ele>3242</ele>
        <time>2021-06-26T22:55:16.000Z</time>
        <extensions>
          <ns3:TrackPointExtension>
            <ns3:atemp>28.0</ns3:atemp>
            <ns3:hr>87</ns3:hr>
          </ns3:TrackPointExtension>
        </extensions>
      </trkpt>
      <trkpt lat="36.8048300407826900482177734375" lon="-118.40401100926101207733154296875">
        <ele>3241.800048828125</ele>
        <time>2021-06-26T22:55:18.000Z</time>
        <extensions>
          <ns3:TrackPointExtension>
            <ns3:atemp>28.0</ns3:atemp>
            <ns3:hr>87</ns3:hr>
          </ns3:TrackPointExtension>
        </extensions>
      </trkpt>
      <trkpt lat="36.804848648607730865478515625" lon="-118.4040032140910625457763671875">
        <ele>3241.60009765625</ele>
        <time>2021-06-26T22:55:20.000Z</time>
        <extensions>
          <ns3:TrackPointExtension>
            <ns3:atemp>28.0</ns3:atemp>
            <ns3:hr>86</ns3:hr>
          </ns3:TrackPointExtension>
        </extensions>
      </trkpt>
      <trkpt lat="36.8049044720828533172607421875" lon="-118.40400128625333309173583984375">
        <ele>3241.199951171875</ele>
        <time>2021-06-26T22:55:25.000Z</time>
        <extensions>
          <ns3:TrackPointExtension>
            <ns3:atemp>28.0</ns3:atemp>
            <ns3:hr>83</ns3:hr>
          </ns3:TrackPointExtension>
        </extensions>
      </trkpt>
      <trkpt lat="36.8049301207065582275390625" lon="-118.4040092490613460540771484375">
        <ele>3241.199951171875</ele>
        <time>2021-06-26T22:55:28.000Z</time>
        <extensions>
          <ns3:TrackPointExtension>
            <ns3:atemp>28.0</ns3:atemp>
            <ns3:hr>79</ns3:hr>
          </ns3:TrackPointExtension>
        </extensions>
      </trkpt>
      <trkpt lat="36.80500782094895839691162109375" lon="-118.40402693487703800201416015625">
        <ele>3241.39990234375</ele>
        <time>2021-06-26T22:55:35.000Z</time>
        <extensions>
          <ns3:TrackPointExtension>
            <ns3:atemp>28.0</ns3:atemp>
            <ns3:hr>79</ns3:hr>
          </ns3:TrackPointExtension>
        </extensions>
      </trkpt>
      <trkpt lat="36.8050234951078891754150390625" lon="-118.4040253423154354095458984375">
        <ele>3241.39990234375</ele>
        <time>2021-06-26T22:55:36.000Z</time>
        <extensions>
          <ns3:TrackPointExtension>
            <ns3:atemp>28.0</ns3:atemp>
            <ns3:hr>83</ns3:hr>
          </ns3:TrackPointExtension>
        </extensions>
      </trkpt>
      <trkpt lat="36.80503279902040958404541015625" lon="-118.4040216542780399322509765625">
        <ele>3241.39990234375</ele>
        <time>2021-06-26T22:55:37.000Z</time>
        <extensions>
          <ns3:TrackPointExtension>
            <ns3:atemp>28.0</ns3:atemp>
            <ns3:hr>80</ns3:hr>
          </ns3:TrackPointExtension>
        </extensions>
      </trkpt>
      <trkpt lat="36.8050573579967021942138671875" lon="-118.40401603840291500091552734375">
        <ele>3241.199951171875</ele>
        <time>2021-06-26T22:55:40.000Z</time>
        <extensions>
          <ns3:TrackPointExtension>
            <ns3:atemp>28.0</ns3:atemp>
            <ns3:hr>80</ns3:hr>
          </ns3:TrackPointExtension>
        </extensions>
      </trkpt>
      <trkpt lat="36.80507370270788669586181640625" lon="-118.40401385910809040069580078125">
        <ele>3240.60009765625</ele>
        <time>2021-06-26T22:55:42.000Z</time>
        <extensions>
          <ns3:TrackPointExtension>
            <ns3:atemp>29.0</ns3:atemp>
            <ns3:hr>81</ns3:hr>
          </ns3:TrackPointExtension>
        </extensions>
      </trkpt>
      <trkpt lat="36.80507873184978961944580078125" lon="-118.4040126018226146697998046875">
        <ele>3240.60009765625</ele>
        <time>2021-06-26T22:55:43.000Z</time>
        <extensions>
          <ns3:TrackPointExtension>
            <ns3:atemp>29.0</ns3:atemp>
            <ns3:hr>81</ns3:hr>
          </ns3:TrackPointExtension>
        </extensions>
      </trkpt>
      <trkpt lat="36.80508594028651714324951171875" lon="-118.40400765649974346160888671875">
        <ele>3240.39990234375</ele>
        <time>2021-06-26T22:55:44.000Z</time>
        <extensions>
          <ns3:TrackPointExtension>
            <ns3:atemp>29.0</ns3:atemp>
            <ns3:hr>81</ns3:hr>
          </ns3:TrackPointExtension>
        </extensions>
      </trkpt>
      <trkpt lat="36.80512927472591400146484375" lon="-118.40401251800358295440673828125">
        <ele>3240</ele>
        <time>2021-06-26T22:55:49.000Z</time>
        <extensions>
          <ns3:TrackPointExtension>
            <ns3:atemp>29.0</ns3:atemp>
            <ns3:hr>84</ns3:hr>
          </ns3:TrackPointExtension>
        </extensions>
      </trkpt>
      <trkpt lat="36.8051415123045444488525390625" lon="-118.40400807559490203857421875">
        <ele>3239.39990234375</ele>
        <time>2021-06-26T22:55:51.000Z</time>
        <extensions>
          <ns3:TrackPointExtension>
            <ns3:atemp>29.0</ns3:atemp>
            <ns3:hr>82</ns3:hr>
          </ns3:TrackPointExtension>
        </extensions>
      </trkpt>
      <trkpt lat="36.80514830164611339569091796875" lon="-118.404005728662014007568359375">
        <ele>3239.39990234375</ele>
        <time>2021-06-26T22:55:52.000Z</time>
        <extensions>
          <ns3:TrackPointExtension>
            <ns3:atemp>29.0</ns3:atemp>
            <ns3:hr>81</ns3:hr>
          </ns3:TrackPointExtension>
        </extensions>
      </trkpt>
      <trkpt lat="36.80516238324344158172607421875" lon="-118.40397027321159839630126953125">
        <ele>3238.39990234375</ele>
        <time>2021-06-26T22:55:56.000Z</time>
        <extensions>
          <ns3:TrackPointExtension>
            <ns3:atemp>29.0</ns3:atemp>
            <ns3:hr>83</ns3:hr>
          </ns3:TrackPointExtension>
        </extensions>
      </trkpt>
      <trkpt lat="36.8051693402230739593505859375" lon="-118.403930962085723876953125">
        <ele>3237.60009765625</ele>
        <time>2021-06-26T22:56:00.000Z</time>
        <extensions>
          <ns3:TrackPointExtension>
            <ns3:atemp>29.0</ns3:atemp>
            <ns3:hr>83</ns3:hr>
          </ns3:TrackPointExtension>
        </extensions>
      </trkpt>
      <trkpt lat="36.80514746345579624176025390625" lon="-118.40389315970242023468017578125">
        <ele>3236.800048828125</ele>
        <time>2021-06-26T22:56:04.000Z</time>
        <extensions>
          <ns3:TrackPointExtension>
            <ns3:atemp>29.0</ns3:atemp>
            <ns3:hr>84</ns3:hr>
          </ns3:TrackPointExtension>
        </extensions>
      </trkpt>
      <trkpt lat="36.8051452003419399261474609375" lon="-118.40386860072612762451171875">
        <ele>3236.800048828125</ele>
        <time>2021-06-26T22:56:07.000Z</time>
        <extensions>
          <ns3:TrackPointExtension>
            <ns3:atemp>29.0</ns3:atemp>
            <ns3:hr>81</ns3:hr>
          </ns3:TrackPointExtension>
        </extensions>
      </trkpt>
      <trkpt lat="36.8051760457456111907958984375" lon="-118.4038573689758777618408203125">
        <ele>3235.800048828125</ele>
        <time>2021-06-26T22:56:12.000Z</time>
        <extensions>
          <ns3:TrackPointExtension>
            <ns3:atemp>29.0</ns3:atemp>
            <ns3:hr>81</ns3:hr>
          </ns3:TrackPointExtension>
        </extensions>
      </trkpt>
      <trkpt lat="36.805186606943607330322265625" lon="-118.40382677502930164337158203125">
        <ele>3235.60009765625</ele>
        <time>2021-06-26T22:56:15.000Z</time>
        <extensions>
          <ns3:TrackPointExtension>
            <ns3:atemp>29.0</ns3:atemp>
            <ns3:hr>81</ns3:hr>
          </ns3:TrackPointExtension>
        </extensions>
      </trkpt>
      <trkpt lat="36.80519171990454196929931640625" lon="-118.4038198180496692657470703125">
        <ele>3235.60009765625</ele>
        <time>2021-06-26T22:56:16.000Z</time>
        <extensions>
          <ns3:TrackPointExtension>
            <ns3:atemp>29.0</ns3:atemp>
            <ns3:hr>80</ns3:hr>
          </ns3:TrackPointExtension>
        </extensions>
      </trkpt>
      <trkpt lat="36.805239580571651458740234375" lon="-118.40375603176653385162353515625">
        <ele>3234.800048828125</ele>
        <time>2021-06-26T22:56:25.000Z</time>
        <extensions>
          <ns3:TrackPointExtension>
            <ns3:atemp>29.0</ns3:atemp>
            <ns3:hr>83</ns3:hr>
          </ns3:TrackPointExtension>
        </extensions>
      </trkpt>
      <trkpt lat="36.80524553172290325164794921875" lon="-118.4037494100630283355712890625">
        <ele>3234.60009765625</ele>
        <time>2021-06-26T22:56:26.000Z</time>
        <extensions>
          <ns3:TrackPointExtension>
            <ns3:atemp>29.0</ns3:atemp>
            <ns3:hr>83</ns3:hr>
          </ns3:TrackPointExtension>
        </extensions>
      </trkpt>
      <trkpt lat="36.8052306957542896270751953125" lon="-118.40368880890309810638427734375">
        <ele>3233.199951171875</ele>
        <time>2021-06-26T22:56:32.000Z</time>
        <extensions>
          <ns3:TrackPointExtension>
            <ns3:atemp>29.0</ns3:atemp>
            <ns3:hr>82</ns3:hr>
          </ns3:TrackPointExtension>
        </extensions>
      </trkpt>
      <trkpt lat="36.80522181093692779541015625" lon="-118.40368227101862430572509765625">
        <ele>3233.199951171875</ele>
        <time>2021-06-26T22:56:33.000Z</time>
        <extensions>
          <ns3:TrackPointExtension>
            <ns3:atemp>29.0</ns3:atemp>
            <ns3:hr>82</ns3:hr>
          </ns3:TrackPointExtension>
        </extensions>
      </trkpt>
      <trkpt lat="36.80515483953058719635009765625" lon="-118.40365670621395111083984375">
        <ele>3232.199951171875</ele>
        <time>2021-06-26T22:56:41.000Z</time>
        <extensions>
          <ns3:TrackPointExtension>
            <ns3:atemp>29.0</ns3:atemp>
            <ns3:hr>81</ns3:hr>
          </ns3:TrackPointExtension>
        </extensions>
      </trkpt>
      <trkpt lat="36.80514193139970302581787109375" lon="-118.40363717637956142425537109375">
        <ele>3232</ele>
        <time>2021-06-26T22:56:44.000Z</time>
        <extensions>
          <ns3:TrackPointExtension>
            <ns3:atemp>29.0</ns3:atemp>
            <ns3:hr>80</ns3:hr>
          </ns3:TrackPointExtension>
        </extensions>
      </trkpt>
      <trkpt lat="36.805088706314563751220703125" lon="-118.40362627990543842315673828125">
        <ele>3231.199951171875</ele>
        <time>2021-06-26T22:56:50.000Z</time>
        <extensions>
          <ns3:TrackPointExtension>
            <ns3:atemp>29.0</ns3:atemp>
            <ns3:hr>78</ns3:hr>
          </ns3:TrackPointExtension>
        </extensions>
      </trkpt>
      <trkpt lat="36.80506850592792034149169921875" lon="-118.40362259186804294586181640625">
        <ele>3231.39990234375</ele>
        <time>2021-06-26T22:56:52.000Z</time>
        <extensions>
          <ns3:TrackPointExtension>
            <ns3:atemp>29.0</ns3:atemp>
            <ns3:hr>81</ns3:hr>
          </ns3:TrackPointExtension>
        </extensions>
      </trkpt>
      <trkpt lat="36.80502408184111118316650390625" lon="-118.40361236594617366790771484375">
        <ele>3231.199951171875</ele>
        <time>2021-06-26T22:56:58.000Z</time>
        <extensions>
          <ns3:TrackPointExtension>
            <ns3:atemp>29.0</ns3:atemp>
            <ns3:hr>80</ns3:hr>
          </ns3:TrackPointExtension>
        </extensions>
      </trkpt>
      <trkpt lat="36.80502374656498432159423828125" lon="-118.403612785041332244873046875">
        <ele>3231</ele>
        <time>2021-06-26T22:56:59.000Z</time>
        <extensions>
          <ns3:TrackPointExtension>
            <ns3:atemp>29.0</ns3:atemp>
            <ns3:hr>80</ns3:hr>
          </ns3:TrackPointExtension>
        </extensions>
      </trkpt>
      <trkpt lat="36.80499440990388393402099609375" lon="-118.4036131203174591064453125">
        <ele>3231.39990234375</ele>
        <time>2021-06-26T22:57:05.000Z</time>
        <extensions>
          <ns3:TrackPointExtension>
            <ns3:atemp>29.0</ns3:atemp>
            <ns3:hr>81</ns3:hr>
          </ns3:TrackPointExtension>
        </extensions>
      </trkpt>
      <trkpt lat="36.80495937354862689971923828125" lon="-118.40358420275151729583740234375">
        <ele>3231.800048828125</ele>
        <time>2021-06-26T22:57:10.000Z</time>
        <extensions>
          <ns3:TrackPointExtension>
            <ns3:atemp>29.0</ns3:atemp>
            <ns3:hr>84</ns3:hr>
          </ns3:TrackPointExtension>
        </extensions>
      </trkpt>
      <trkpt lat="36.8049276061356067657470703125" lon="-118.4035621583461761474609375">
        <ele>3231.800048828125</ele>
        <time>2021-06-26T22:57:13.000Z</time>
        <extensions>
          <ns3:TrackPointExtension>
            <ns3:atemp>29.0</ns3:atemp>
            <ns3:hr>84</ns3:hr>
          </ns3:TrackPointExtension>
        </extensions>
      </trkpt>
      <trkpt lat="36.8048786558210849761962890625" lon="-118.403545729815959930419921875">
        <ele>3232</ele>
        <time>2021-06-26T22:57:18.000Z</time>
        <extensions>
          <ns3:TrackPointExtension>
            <ns3:atemp>29.0</ns3:atemp>
            <ns3:hr>85</ns3:hr>
          </ns3:TrackPointExtension>
        </extensions>
      </trkpt>
      <trkpt lat="36.80485837161540985107421875" lon="-118.40354807674884796142578125">
        <ele>3232.39990234375</ele>
        <time>2021-06-26T22:57:20.000Z</time>
        <extensions>
          <ns3:TrackPointExtension>
            <ns3:atemp>29.0</ns3:atemp>
            <ns3:hr>87</ns3:hr>
          </ns3:TrackPointExtension>
        </extensions>
      </trkpt>
      <trkpt lat="36.804804392158985137939453125" lon="-118.4035606496036052703857421875">
        <ele>3232.60009765625</ele>
        <time>2021-06-26T22:57:27.000Z</time>
        <extensions>
          <ns3:TrackPointExtension>
            <ns3:atemp>29.0</ns3:atemp>
            <ns3:hr>87</ns3:hr>
          </ns3:TrackPointExtension>
        </extensions>
      </trkpt>
      <trkpt lat="36.80475887842476367950439453125" lon="-118.4035415388643741607666015625">
        <ele>3231.800048828125</ele>
        <time>2021-06-26T22:57:32.000Z</time>
        <extensions>
          <ns3:TrackPointExtension>
            <ns3:atemp>29.0</ns3:atemp>
            <ns3:hr>87</ns3:hr>
          </ns3:TrackPointExtension>
        </extensions>
      </trkpt>
      <trkpt lat="36.80472317151725292205810546875" lon="-118.40352167375385761260986328125">
        <ele>3231.199951171875</ele>
        <time>2021-06-26T22:57:36.000Z</time>
        <extensions>
          <ns3:TrackPointExtension>
            <ns3:atemp>29.0</ns3:atemp>
            <ns3:hr>88</ns3:hr>
          </ns3:TrackPointExtension>
        </extensions>
      </trkpt>
      <trkpt lat="36.80470406077802181243896484375" lon="-118.40352703817188739776611328125">
        <ele>3230.800048828125</ele>
        <time>2021-06-26T22:57:38.000Z</time>
        <extensions>
          <ns3:TrackPointExtension>
            <ns3:atemp>29.0</ns3:atemp>
            <ns3:hr>89</ns3:hr>
          </ns3:TrackPointExtension>
        </extensions>
      </trkpt>
      <trkpt lat="36.8046526797115802764892578125" lon="-118.40352661907672882080078125">
        <ele>3230.60009765625</ele>
        <time>2021-06-26T22:57:43.000Z</time>
        <extensions>
          <ns3:TrackPointExtension>
            <ns3:atemp>29.0</ns3:atemp>
            <ns3:hr>91</ns3:hr>
          </ns3:TrackPointExtension>
        </extensions>
      </trkpt>
      <trkpt lat="36.8046489916741847991943359375" lon="-118.4035237692296504974365234375">
        <ele>3230.199951171875</ele>
        <time>2021-06-26T22:57:44.000Z</time>
        <extensions>
          <ns3:TrackPointExtension>
            <ns3:atemp>29.0</ns3:atemp>
            <ns3:hr>91</ns3:hr>
          </ns3:TrackPointExtension>
        </extensions>
      </trkpt>
      <trkpt lat="36.80466684512794017791748046875" lon="-118.40350541286170482635498046875">
        <ele>3229.800048828125</ele>
        <time>2021-06-26T22:57:48.000Z</time>
        <extensions>
          <ns3:TrackPointExtension>
            <ns3:atemp>29.0</ns3:atemp>
            <ns3:hr>91</ns3:hr>
          </ns3:TrackPointExtension>
        </extensions>
      </trkpt>
      <trkpt lat="36.80467665195465087890625" lon="-118.403499126434326171875">
        <ele>3229.60009765625</ele>
        <time>2021-06-26T22:57:49.000Z</time>
        <extensions>
          <ns3:TrackPointExtension>
            <ns3:atemp>29.0</ns3:atemp>
            <ns3:hr>92</ns3:hr>
          </ns3:TrackPointExtension>
        </extensions>
      </trkpt>
      <trkpt lat="36.804726608097553253173828125" lon="-118.40344388969242572784423828125">
        <ele>3228.39990234375</ele>
        <time>2021-06-26T22:57:55.000Z</time>
        <extensions>
          <ns3:TrackPointExtension>
            <ns3:atemp>29.0</ns3:atemp>
            <ns3:hr>92</ns3:hr>
          </ns3:TrackPointExtension>
        </extensions>
      </trkpt>
      <trkpt lat="36.804791651666164398193359375" lon="-118.40340767987072467803955078125">
        <ele>3228.60009765625</ele>
        <time>2021-06-26T22:58:02.000Z</time>
        <extensions>
          <ns3:TrackPointExtension>
            <ns3:atemp>29.0</ns3:atemp>
            <ns3:hr>91</ns3:hr>
          </ns3:TrackPointExtension>
        </extensions>
      </trkpt>
      <trkpt lat="36.80480631999671459197998046875" lon="-118.4034000523388385772705078125">
        <ele>3228.800048828125</ele>
        <time>2021-06-26T22:58:04.000Z</time>
        <extensions>
          <ns3:TrackPointExtension>
            <ns3:atemp>29.0</ns3:atemp>
            <ns3:hr>94</ns3:hr>
          </ns3:TrackPointExtension>
        </extensions>
      </trkpt>
      <trkpt lat="36.804824508726596832275390625" lon="-118.40339996851980686187744140625">
        <ele>3228.800048828125</ele>
        <time>2021-06-26T22:58:06.000Z</time>
        <extensions>
          <ns3:TrackPointExtension>
            <ns3:atemp>29.0</ns3:atemp>
            <ns3:hr>91</ns3:hr>
          </ns3:TrackPointExtension>
        </extensions>
      </trkpt>
      <trkpt lat="36.80486239492893218994140625" lon="-118.4033904969692230224609375">
        <ele>3229</ele>
        <time>2021-06-26T22:58:10.000Z</time>
        <extensions>
          <ns3:TrackPointExtension>
            <ns3:atemp>29.0</ns3:atemp>
            <ns3:hr>93</ns3:hr>
          </ns3:TrackPointExtension>
        </extensions>
      </trkpt>
      <trkpt lat="36.80489432998001575469970703125" lon="-118.40337884612381458282470703125">
        <ele>3228.39990234375</ele>
        <time>2021-06-26T22:58:13.000Z</time>
        <extensions>
          <ns3:TrackPointExtension>
            <ns3:atemp>29.0</ns3:atemp>
            <ns3:hr>96</ns3:hr>
          </ns3:TrackPointExtension>
        </extensions>
      </trkpt>
      <trkpt lat="36.80494428612291812896728515625" lon="-118.40333643369376659393310546875">
        <ele>3228</ele>
        <time>2021-06-26T22:58:19.000Z</time>
        <extensions>
          <ns3:TrackPointExtension>
            <ns3:atemp>29.0</ns3:atemp>
            <ns3:hr>93</ns3:hr>
          </ns3:TrackPointExtension>
        </extensions>
      </trkpt>
      <trkpt lat="36.80496758781373500823974609375" lon="-118.40330173261463642120361328125">
        <ele>3227.800048828125</ele>
        <time>2021-06-26T22:58:22.000Z</time>
        <extensions>
          <ns3:TrackPointExtension>
            <ns3:atemp>29.0</ns3:atemp>
            <ns3:hr>90</ns3:hr>
          </ns3:TrackPointExtension>
        </extensions>
      </trkpt>
      <trkpt lat="36.80496943183243274688720703125" lon="-118.40328312478959560394287109375">
        <ele>3227.39990234375</ele>
        <time>2021-06-26T22:58:23.000Z</time>
        <extensions>
          <ns3:TrackPointExtension>
            <ns3:atemp>29.0</ns3:atemp>
            <ns3:hr>90</ns3:hr>
          </ns3:TrackPointExtension>
        </extensions>
      </trkpt>
      <trkpt lat="36.80496742017567157745361328125" lon="-118.403237946331501007080078125">
        <ele>3227.199951171875</ele>
        <time>2021-06-26T22:58:26.000Z</time>
        <extensions>
          <ns3:TrackPointExtension>
            <ns3:atemp>29.0</ns3:atemp>
            <ns3:hr>89</ns3:hr>
          </ns3:TrackPointExtension>
        </extensions>
      </trkpt>
      <trkpt lat="36.804977394640445709228515625" lon="-118.40322311036288738250732421875">
        <ele>3227.199951171875</ele>
        <time>2021-06-26T22:58:28.000Z</time>
        <extensions>
          <ns3:TrackPointExtension>
            <ns3:atemp>29.0</ns3:atemp>
            <ns3:hr>88</ns3:hr>
          </ns3:TrackPointExtension>
        </extensions>
      </trkpt>
      <trkpt lat="36.804990470409393310546875" lon="-118.40321590192615985870361328125">
        <ele>3227.39990234375</ele>
        <time>2021-06-26T22:58:30.000Z</time>
        <extensions>
          <ns3:TrackPointExtension>
            <ns3:atemp>29.0</ns3:atemp>
            <ns3:hr>87</ns3:hr>
          </ns3:TrackPointExtension>
        </extensions>
      </trkpt>
      <trkpt lat="36.80500597693026065826416015625" lon="-118.403219841420650482177734375">
        <ele>3227.60009765625</ele>
        <time>2021-06-26T22:58:32.000Z</time>
        <extensions>
          <ns3:TrackPointExtension>
            <ns3:atemp>29.0</ns3:atemp>
            <ns3:hr>88</ns3:hr>
          </ns3:TrackPointExtension>
        </extensions>
      </trkpt>
      <trkpt lat="36.80506615899503231048583984375" lon="-118.40322009287774562835693359375">
        <ele>3227.199951171875</ele>
        <time>2021-06-26T22:58:38.000Z</time>
        <extensions>
          <ns3:TrackPointExtension>
            <ns3:atemp>29.0</ns3:atemp>
            <ns3:hr>88</ns3:hr>
          </ns3:TrackPointExtension>
        </extensions>
      </trkpt>
      <trkpt lat="36.805086024105548858642578125" lon="-118.40320408344268798828125">
        <ele>3226.800048828125</ele>
        <time>2021-06-26T22:58:41.000Z</time>
        <extensions>
          <ns3:TrackPointExtension>
            <ns3:atemp>29.0</ns3:atemp>
            <ns3:hr>85</ns3:hr>
          </ns3:TrackPointExtension>
        </extensions>
      </trkpt>
      <trkpt lat="36.80510320700705051422119140625" lon="-118.40319343842566013336181640625">
        <ele>3226.39990234375</ele>
        <time>2021-06-26T22:58:43.000Z</time>
        <extensions>
          <ns3:TrackPointExtension>
            <ns3:atemp>29.0</ns3:atemp>
            <ns3:hr>88</ns3:hr>
          </ns3:TrackPointExtension>
        </extensions>
      </trkpt>
      <trkpt lat="36.80510957725346088409423828125" lon="-118.4031871519982814788818359375">
        <ele>3226.199951171875</ele>
        <time>2021-06-26T22:58:44.000Z</time>
        <extensions>
          <ns3:TrackPointExtension>
            <ns3:atemp>29.0</ns3:atemp>
            <ns3:hr>88</ns3:hr>
          </ns3:TrackPointExtension>
        </extensions>
      </trkpt>
      <trkpt lat="36.80513271130621433258056640625" lon="-118.40316116809844970703125">
        <ele>3225.60009765625</ele>
        <time>2021-06-26T22:58:47.000Z</time>
        <extensions>
          <ns3:TrackPointExtension>
            <ns3:atemp>29.0</ns3:atemp>
            <ns3:hr>88</ns3:hr>
          </ns3:TrackPointExtension>
        </extensions>
      </trkpt>
      <trkpt lat="36.80513958446681499481201171875" lon="-118.40313694439828395843505859375">
        <ele>3225.199951171875</ele>
        <time>2021-06-26T22:58:49.000Z</time>
        <extensions>
          <ns3:TrackPointExtension>
            <ns3:atemp>29.0</ns3:atemp>
            <ns3:hr>90</ns3:hr>
          </ns3:TrackPointExtension>
        </extensions>
      </trkpt>
      <trkpt lat="36.80517462082207202911376953125" lon="-118.40307692997157573699951171875">
        <ele>3224.800048828125</ele>
        <time>2021-06-26T22:58:55.000Z</time>
        <extensions>
          <ns3:TrackPointExtension>
            <ns3:atemp>29.0</ns3:atemp>
            <ns3:hr>88</ns3:hr>
          </ns3:TrackPointExtension>
        </extensions>
      </trkpt>
      <trkpt lat="36.80514981038868427276611328125" lon="-118.4029893390834331512451171875">
        <ele>3224.60009765625</ele>
        <time>2021-06-26T22:59:02.000Z</time>
        <extensions>
          <ns3:TrackPointExtension>
            <ns3:atemp>29.0</ns3:atemp>
            <ns3:hr>87</ns3:hr>
          </ns3:TrackPointExtension>
        </extensions>
      </trkpt>
      <trkpt lat="36.80513053201138973236083984375" lon="-118.40297534130513668060302734375">
        <ele>3224.60009765625</ele>
        <time>2021-06-26T22:59:04.000Z</time>
        <extensions>
          <ns3:TrackPointExtension>
            <ns3:atemp>29.0</ns3:atemp>
            <ns3:hr>83</ns3:hr>
          </ns3:TrackPointExtension>
        </extensions>
      </trkpt>
      <trkpt lat="36.805091388523578643798828125" lon="-118.40292002074420452117919921875">
        <ele>3224.800048828125</ele>
        <time>2021-06-26T22:59:10.000Z</time>
        <extensions>
          <ns3:TrackPointExtension>
            <ns3:atemp>29.0</ns3:atemp>
            <ns3:hr>80</ns3:hr>
          </ns3:TrackPointExtension>
        </extensions>
      </trkpt>
      <trkpt lat="36.8050711043179035186767578125" lon="-118.4029125608503818511962890625">
        <ele>3225</ele>
        <time>2021-06-26T22:59:12.000Z</time>
        <extensions>
          <ns3:TrackPointExtension>
            <ns3:atemp>29.0</ns3:atemp>
            <ns3:hr>81</ns3:hr>
          </ns3:TrackPointExtension>
        </extensions>
      </trkpt>
      <trkpt lat="36.8050302006304264068603515625" lon="-118.4029155783355236053466796875">
        <ele>3225.39990234375</ele>
        <time>2021-06-26T22:59:16.000Z</time>
        <extensions>
          <ns3:TrackPointExtension>
            <ns3:atemp>29.0</ns3:atemp>
            <ns3:hr>82</ns3:hr>
          </ns3:TrackPointExtension>
        </extensions>
      </trkpt>
      <trkpt lat="36.80496742017567157745361328125" lon="-118.402928151190280914306640625">
        <ele>3225.60009765625</ele>
        <time>2021-06-26T22:59:22.000Z</time>
        <extensions>
          <ns3:TrackPointExtension>
            <ns3:atemp>29.0</ns3:atemp>
            <ns3:hr>85</ns3:hr>
          </ns3:TrackPointExtension>
        </extensions>
      </trkpt>
      <trkpt lat="36.80495417676866054534912109375" lon="-118.40294416062533855438232421875">
        <ele>3225.800048828125</ele>
        <time>2021-06-26T22:59:24.000Z</time>
        <extensions>
          <ns3:TrackPointExtension>
            <ns3:atemp>30.0</ns3:atemp>
            <ns3:hr>85</ns3:hr>
          </ns3:TrackPointExtension>
        </extensions>
      </trkpt>
      <trkpt lat="36.8049302883446216583251953125" lon="-118.40295706875622272491455078125">
        <ele>3226</ele>
        <time>2021-06-26T22:59:27.000Z</time>
        <extensions>
          <ns3:TrackPointExtension>
            <ns3:atemp>29.0</ns3:atemp>
            <ns3:hr>89</ns3:hr>
          </ns3:TrackPointExtension>
        </extensions>
      </trkpt>
      <trkpt lat="36.8049229122698307037353515625" lon="-118.4029564820230007171630859375">
        <ele>3226.39990234375</ele>
        <time>2021-06-26T22:59:28.000Z</time>
        <extensions>
          <ns3:TrackPointExtension>
            <ns3:atemp>29.0</ns3:atemp>
            <ns3:hr>90</ns3:hr>
          </ns3:TrackPointExtension>
        </extensions>
      </trkpt>
      <trkpt lat="36.8049105070531368255615234375" lon="-118.4029564820230007171630859375">
        <ele>3226.60009765625</ele>
        <time>2021-06-26T22:59:30.000Z</time>
        <extensions>
          <ns3:TrackPointExtension>
            <ns3:atemp>29.0</ns3:atemp>
            <ns3:hr>94</ns3:hr>
          </ns3:TrackPointExtension>
        </extensions>
      </trkpt>
      <trkpt lat="36.8048897199332714080810546875" lon="-118.40295271016657352447509765625">
        <ele>3227.199951171875</ele>
        <time>2021-06-26T22:59:33.000Z</time>
        <extensions>
          <ns3:TrackPointExtension>
            <ns3:atemp>29.0</ns3:atemp>
            <ns3:hr>95</ns3:hr>
          </ns3:TrackPointExtension>
        </extensions>
      </trkpt>
      <trkpt lat="36.80486767552793025970458984375" lon="-118.4029531292617321014404296875">
        <ele>3227.39990234375</ele>
        <time>2021-06-26T22:59:36.000Z</time>
        <extensions>
          <ns3:TrackPointExtension>
            <ns3:atemp>29.0</ns3:atemp>
            <ns3:hr>98</ns3:hr>
          </ns3:TrackPointExtension>
        </extensions>
      </trkpt>
      <trkpt lat="36.80485677905380725860595703125" lon="-118.402952291071414947509765625">
        <ele>3227.60009765625</ele>
        <time>2021-06-26T22:59:38.000Z</time>
        <extensions>
          <ns3:TrackPointExtension>
            <ns3:atemp>29.0</ns3:atemp>
            <ns3:hr>99</ns3:hr>
          </ns3:TrackPointExtension>
        </extensions>
      </trkpt>
      <trkpt lat="36.804843954741954803466796875" lon="-118.402948267757892608642578125">
        <ele>3228</ele>
        <time>2021-06-26T22:59:40.000Z</time>
        <extensions>
          <ns3:TrackPointExtension>
            <ns3:atemp>29.0</ns3:atemp>
            <ns3:hr>102</ns3:hr>
          </ns3:TrackPointExtension>
        </extensions>
      </trkpt>
      <trkpt lat="36.8048263527452945709228515625" lon="-118.4029470942914485931396484375">
        <ele>3228.199951171875</ele>
        <time>2021-06-26T22:59:43.000Z</time>
        <extensions>
          <ns3:TrackPointExtension>
            <ns3:atemp>29.0</ns3:atemp>
            <ns3:hr>105</ns3:hr>
          </ns3:TrackPointExtension>
        </extensions>
      </trkpt>
      <trkpt lat="36.8048042245209217071533203125" lon="-118.4029605053365230560302734375">
        <ele>3228</ele>
        <time>2021-06-26T22:59:46.000Z</time>
        <extensions>
          <ns3:TrackPointExtension>
            <ns3:atemp>29.0</ns3:atemp>
            <ns3:hr>104</ns3:hr>
          </ns3:TrackPointExtension>
        </extensions>
      </trkpt>
      <trkpt lat="36.804766841232776641845703125" lon="-118.40298422612249851226806640625">
        <ele>3227.199951171875</ele>
        <time>2021-06-26T22:59:50.000Z</time>
        <extensions>
          <ns3:TrackPointExtension>
            <ns3:atemp>29.0</ns3:atemp>
            <ns3:hr>106</ns3:hr>
          </ns3:TrackPointExtension>
        </extensions>
      </trkpt>
      <trkpt lat="36.8047546036541461944580078125" lon="-118.40298942290246486663818359375">
        <ele>3227.199951171875</ele>
        <time>2021-06-26T22:59:52.000Z</time>
        <extensions>
          <ns3:TrackPointExtension>
            <ns3:atemp>29.0</ns3:atemp>
            <ns3:hr>109</ns3:hr>
          </ns3:TrackPointExtension>
        </extensions>
      </trkpt>
      <trkpt lat="36.8047316372394561767578125" lon="-118.4029947035014629364013671875">
        <ele>3227.39990234375</ele>
        <time>2021-06-26T22:59:55.000Z</time>
        <extensions>
          <ns3:TrackPointExtension>
            <ns3:atemp>29.0</ns3:atemp>
            <ns3:hr>112</ns3:hr>
          </ns3:TrackPointExtension>
        </extensions>
      </trkpt>
      <trkpt lat="36.804713867604732513427734375" lon="-118.4030014090240001678466796875">
        <ele>3227.39990234375</ele>
        <time>2021-06-26T22:59:57.000Z</time>
        <extensions>
          <ns3:TrackPointExtension>
            <ns3:atemp>29.0</ns3:atemp>
            <ns3:hr>113</ns3:hr>
          </ns3:TrackPointExtension>
        </extensions>
      </trkpt>
      <trkpt lat="36.80467690341174602508544921875" lon="-118.40299596078693866729736328125">
        <ele>3226.60009765625</ele>
        <time>2021-06-26T23:00:02.000Z</time>
        <extensions>
          <ns3:TrackPointExtension>
            <ns3:atemp>29.0</ns3:atemp>
            <ns3:hr>114</ns3:hr>
          </ns3:TrackPointExtension>
        </extensions>
      </trkpt>
      <trkpt lat="36.80465661920607089996337890625" lon="-118.40298590250313282012939453125">
        <ele>3226.39990234375</ele>
        <time>2021-06-26T23:00:04.000Z</time>
        <extensions>
          <ns3:TrackPointExtension>
            <ns3:atemp>29.0</ns3:atemp>
            <ns3:hr>115</ns3:hr>
          </ns3:TrackPointExtension>
        </extensions>
      </trkpt>
      <trkpt lat="36.80460766889154911041259765625" lon="-118.402922116219997406005859375">
        <ele>3226</ele>
        <time>2021-06-26T23:00:12.000Z</time>
        <extensions>
          <ns3:TrackPointExtension>
            <ns3:atemp>29.0</ns3:atemp>
            <ns3:hr>116</ns3:hr>
          </ns3:TrackPointExtension>
        </extensions>
      </trkpt>
      <trkpt lat="36.8046023882925510406494140625" lon="-118.402916081249713897705078125">
        <ele>3226</ele>
        <time>2021-06-26T23:00:13.000Z</time>
        <extensions>
          <ns3:TrackPointExtension>
            <ns3:atemp>29.0</ns3:atemp>
            <ns3:hr>113</ns3:hr>
          </ns3:TrackPointExtension>
        </extensions>
      </trkpt>
      <trkpt lat="36.804558970034122467041015625" lon="-118.40284877456724643707275390625">
        <ele>3226.39990234375</ele>
        <time>2021-06-26T23:00:20.000Z</time>
        <extensions>
          <ns3:TrackPointExtension>
            <ns3:atemp>29.0</ns3:atemp>
            <ns3:hr>111</ns3:hr>
          </ns3:TrackPointExtension>
        </extensions>
      </trkpt>
      <trkpt lat="36.804537512362003326416015625" lon="-118.4028218686580657958984375">
        <ele>3226.39990234375</ele>
        <time>2021-06-26T23:00:23.000Z</time>
        <extensions>
          <ns3:TrackPointExtension>
            <ns3:atemp>29.0</ns3:atemp>
            <ns3:hr>109</ns3:hr>
          </ns3:TrackPointExtension>
        </extensions>
      </trkpt>
      <trkpt lat="36.804475821554660797119140625" lon="-118.4027590043842792510986328125">
        <ele>3226.39990234375</ele>
        <time>2021-06-26T23:00:30.000Z</time>
        <extensions>
          <ns3:TrackPointExtension>
            <ns3:atemp>28.0</ns3:atemp>
            <ns3:hr>108</ns3:hr>
          </ns3:TrackPointExtension>
        </extensions>
      </trkpt>
      <trkpt lat="36.80440247990190982818603515625" lon="-118.40278230607509613037109375">
        <ele>3226.60009765625</ele>
        <time>2021-06-26T23:00:37.000Z</time>
        <extensions>
          <ns3:TrackPointExtension>
            <ns3:atemp>28.0</ns3:atemp>
            <ns3:hr>108</ns3:hr>
          </ns3:TrackPointExtension>
        </extensions>
      </trkpt>
      <trkpt lat="36.80439409799873828887939453125" lon="-118.40278607793152332305908203125">
        <ele>3226.800048828125</ele>
        <time>2021-06-26T23:00:38.000Z</time>
        <extensions>
          <ns3:TrackPointExtension>
            <ns3:atemp>28.0</ns3:atemp>
            <ns3:hr>108</ns3:hr>
          </ns3:TrackPointExtension>
        </extensions>
      </trkpt>
      <trkpt lat="36.80438923649489879608154296875" lon="-118.40278632938861846923828125">
        <ele>3226.800048828125</ele>
        <time>2021-06-26T23:00:40.000Z</time>
        <extensions>
          <ns3:TrackPointExtension>
            <ns3:atemp>28.0</ns3:atemp>
            <ns3:hr>108</ns3:hr>
          </ns3:TrackPointExtension>
        </extensions>
      </trkpt>
      <trkpt lat="36.80438487790524959564208984375" lon="-118.4027989022433757781982421875">
        <ele>3226.800048828125</ele>
        <time>2021-06-26T23:00:45.000Z</time>
        <extensions>
          <ns3:TrackPointExtension>
            <ns3:atemp>28.0</ns3:atemp>
            <ns3:hr>109</ns3:hr>
          </ns3:TrackPointExtension>
        </extensions>
      </trkpt>
      <trkpt lat="36.80438672192394733428955078125" lon="-118.402814827859401702880859375">
        <ele>3227</ele>
        <time>2021-06-26T23:00:56.000Z</time>
        <extensions>
          <ns3:TrackPointExtension>
            <ns3:atemp>28.0</ns3:atemp>
            <ns3:hr>110</ns3:hr>
          </ns3:TrackPointExtension>
        </extensions>
      </trkpt>
      <trkpt lat="36.80437666364014148712158203125" lon="-118.40283192694187164306640625">
        <ele>3227</ele>
        <time>2021-06-26T23:01:01.000Z</time>
        <extensions>
          <ns3:TrackPointExtension>
            <ns3:atemp>28.0</ns3:atemp>
            <ns3:hr>107</ns3:hr>
          </ns3:TrackPointExtension>
        </extensions>
      </trkpt>
      <trkpt lat="36.80437666364014148712158203125" lon="-118.40283192694187164306640625">
        <ele>3227.199951171875</ele>
        <time>2021-06-26T23:01:05.000Z</time>
        <extensions>
          <ns3:TrackPointExtension>
            <ns3:atemp>28.0</ns3:atemp>
            <ns3:hr>106</ns3:hr>
          </ns3:TrackPointExtension>
        </extensions>
      </trkpt>
      <trkpt lat="36.80437666364014148712158203125" lon="-118.40283192694187164306640625">
        <ele>3227.60009765625</ele>
        <time>2021-06-26T23:01:07.000Z</time>
        <extensions>
          <ns3:TrackPointExtension>
            <ns3:atemp>29.0</ns3:atemp>
            <ns3:hr>104</ns3:hr>
          </ns3:TrackPointExtension>
        </extensions>
      </trkpt>
      <trkpt lat="36.80437666364014148712158203125" lon="-118.40282924473285675048828125">
        <ele>3227.60009765625</ele>
        <time>2021-06-26T23:01:11.000Z</time>
        <extensions>
          <ns3:TrackPointExtension>
            <ns3:atemp>29.0</ns3:atemp>
            <ns3:hr>101</ns3:hr>
          </ns3:TrackPointExtension>
        </extensions>
      </trkpt>
      <trkpt lat="36.80437666364014148712158203125" lon="-118.40282798744738101959228515625">
        <ele>3227.60009765625</ele>
        <time>2021-06-26T23:01:13.000Z</time>
        <extensions>
          <ns3:TrackPointExtension>
            <ns3:atemp>29.0</ns3:atemp>
            <ns3:hr>98</ns3:hr>
          </ns3:TrackPointExtension>
        </extensions>
      </trkpt>
      <trkpt lat="36.8042905814945697784423828125" lon="-118.402805440127849578857421875">
        <ele>3228</ele>
        <time>2021-06-26T23:01:39.000Z</time>
        <extensions>
          <ns3:TrackPointExtension>
            <ns3:atemp>29.0</ns3:atemp>
            <ns3:hr>94</ns3:hr>
          </ns3:TrackPointExtension>
        </extensions>
      </trkpt>
      <trkpt lat="36.8042754940688610076904296875" lon="-118.40280502103269100189208984375">
        <ele>3227.60009765625</ele>
        <time>2021-06-26T23:01:45.000Z</time>
        <extensions>
          <ns3:TrackPointExtension>
            <ns3:atemp>29.0</ns3:atemp>
            <ns3:hr>97</ns3:hr>
          </ns3:TrackPointExtension>
        </extensions>
      </trkpt>
      <trkpt lat="36.8042372725903987884521484375" lon="-118.4028057754039764404296875">
        <ele>3227.60009765625</ele>
        <time>2021-06-26T23:01:52.000Z</time>
        <extensions>
          <ns3:TrackPointExtension>
            <ns3:atemp>29.0</ns3:atemp>
            <ns3:hr>100</ns3:hr>
          </ns3:TrackPointExtension>
        </extensions>
      </trkpt>
      <trkpt lat="36.80420047603547573089599609375" lon="-118.4028138220310211181640625">
        <ele>3227.800048828125</ele>
        <time>2021-06-26T23:01:55.000Z</time>
        <extensions>
          <ns3:TrackPointExtension>
            <ns3:atemp>29.0</ns3:atemp>
            <ns3:hr>98</ns3:hr>
          </ns3:TrackPointExtension>
        </extensions>
      </trkpt>
      <trkpt lat="36.804131157696247100830078125" lon="-118.40282496996223926544189453125">
        <ele>3228</ele>
        <time>2021-06-26T23:02:00.000Z</time>
        <extensions>
          <ns3:TrackPointExtension>
            <ns3:atemp>29.0</ns3:atemp>
            <ns3:hr>102</ns3:hr>
          </ns3:TrackPointExtension>
        </extensions>
      </trkpt>
      <trkpt lat="36.80411883629858493804931640625" lon="-118.4028223715722560882568359375">
        <ele>3228</ele>
        <time>2021-06-26T23:02:01.000Z</time>
        <extensions>
          <ns3:TrackPointExtension>
            <ns3:atemp>29.0</ns3:atemp>
            <ns3:hr>107</ns3:hr>
          </ns3:TrackPointExtension>
        </extensions>
      </trkpt>
      <trkpt lat="36.80410995148122310638427734375" lon="-118.40281792916357517242431640625">
        <ele>3228</ele>
        <time>2021-06-26T23:02:02.000Z</time>
        <extensions>
          <ns3:TrackPointExtension>
            <ns3:atemp>29.0</ns3:atemp>
            <ns3:hr>107</ns3:hr>
          </ns3:TrackPointExtension>
        </extensions>
      </trkpt>
      <trkpt lat="36.804100982844829559326171875" lon="-118.40281574986875057220458984375">
        <ele>3228</ele>
        <time>2021-06-26T23:02:03.000Z</time>
        <extensions>
          <ns3:TrackPointExtension>
            <ns3:atemp>29.0</ns3:atemp>
            <ns3:hr>106</ns3:hr>
          </ns3:TrackPointExtension>
        </extensions>
      </trkpt>
      <trkpt lat="36.80407944135367870330810546875" lon="-118.402826227247714996337890625">
        <ele>3227.800048828125</ele>
        <time>2021-06-26T23:02:05.000Z</time>
        <extensions>
          <ns3:TrackPointExtension>
            <ns3:atemp>29.0</ns3:atemp>
            <ns3:hr>108</ns3:hr>
          </ns3:TrackPointExtension>
        </extensions>
      </trkpt>
      <trkpt lat="36.8040637671947479248046875" lon="-118.402847014367580413818359375">
        <ele>3227.39990234375</ele>
        <time>2021-06-26T23:02:07.000Z</time>
        <extensions>
          <ns3:TrackPointExtension>
            <ns3:atemp>29.0</ns3:atemp>
            <ns3:hr>105</ns3:hr>
          </ns3:TrackPointExtension>
        </extensions>
      </trkpt>
      <trkpt lat="36.80405362509191036224365234375" lon="-118.40286285616457462310791015625">
        <ele>3227.199951171875</ele>
        <time>2021-06-26T23:02:09.000Z</time>
        <extensions>
          <ns3:TrackPointExtension>
            <ns3:atemp>29.0</ns3:atemp>
            <ns3:hr>105</ns3:hr>
          </ns3:TrackPointExtension>
        </extensions>
      </trkpt>
      <trkpt lat="36.80404834449291229248046875" lon="-118.40287685394287109375">
        <ele>3227</ele>
        <time>2021-06-26T23:02:13.000Z</time>
        <extensions>
          <ns3:TrackPointExtension>
            <ns3:atemp>29.0</ns3:atemp>
            <ns3:hr>103</ns3:hr>
          </ns3:TrackPointExtension>
        </extensions>
      </trkpt>
      <trkpt lat="36.80404054932296276092529296875" lon="-118.4028817154467105865478515625">
        <ele>3226.60009765625</ele>
        <time>2021-06-26T23:02:15.000Z</time>
        <extensions>
          <ns3:TrackPointExtension>
            <ns3:atemp>29.0</ns3:atemp>
            <ns3:hr>103</ns3:hr>
          </ns3:TrackPointExtension>
        </extensions>
      </trkpt>
      <trkpt lat="36.80400006473064422607421875" lon="-118.4028941206634044647216796875">
        <ele>3226.39990234375</ele>
        <time>2021-06-26T23:02:19.000Z</time>
        <extensions>
          <ns3:TrackPointExtension>
            <ns3:atemp>29.0</ns3:atemp>
            <ns3:hr>104</ns3:hr>
          </ns3:TrackPointExtension>
        </extensions>
      </trkpt>
      <trkpt lat="36.8039851449429988861083984375" lon="-118.40291163884103298187255859375">
        <ele>3226.60009765625</ele>
        <time>2021-06-26T23:02:21.000Z</time>
        <extensions>
          <ns3:TrackPointExtension>
            <ns3:atemp>29.0</ns3:atemp>
            <ns3:hr>103</ns3:hr>
          </ns3:TrackPointExtension>
        </extensions>
      </trkpt>
      <trkpt lat="36.8039135634899139404296875" lon="-118.4029742516577243804931640625">
        <ele>3225.60009765625</ele>
        <time>2021-06-26T23:02:29.000Z</time>
        <extensions>
          <ns3:TrackPointExtension>
            <ns3:atemp>29.0</ns3:atemp>
            <ns3:hr>101</ns3:hr>
          </ns3:TrackPointExtension>
        </extensions>
      </trkpt>
      <trkpt lat="36.80386888794600963592529296875" lon="-118.40300761163234710693359375">
        <ele>3225.60009765625</ele>
        <time>2021-06-26T23:02:34.000Z</time>
        <extensions>
          <ns3:TrackPointExtension>
            <ns3:atemp>30.0</ns3:atemp>
            <ns3:hr>101</ns3:hr>
          </ns3:TrackPointExtension>
        </extensions>
      </trkpt>
      <trkpt lat="36.803863942623138427734375" lon="-118.40300702489912509918212890625">
        <ele>3225.60009765625</ele>
        <time>2021-06-26T23:02:35.000Z</time>
        <extensions>
          <ns3:TrackPointExtension>
            <ns3:atemp>30.0</ns3:atemp>
            <ns3:hr>101</ns3:hr>
          </ns3:TrackPointExtension>
        </extensions>
      </trkpt>
      <trkpt lat="36.80385044775903224945068359375" lon="-118.40299478732049465179443359375">
        <ele>3226.39990234375</ele>
        <time>2021-06-26T23:02:37.000Z</time>
        <extensions>
          <ns3:TrackPointExtension>
            <ns3:atemp>30.0</ns3:atemp>
            <ns3:hr>102</ns3:hr>
          </ns3:TrackPointExtension>
        </extensions>
      </trkpt>
      <trkpt lat="36.80379361845552921295166015625" lon="-118.40295958332717418670654296875">
        <ele>3227.39990234375</ele>
        <time>2021-06-26T23:02:45.000Z</time>
        <extensions>
          <ns3:TrackPointExtension>
            <ns3:atemp>30.0</ns3:atemp>
            <ns3:hr>103</ns3:hr>
          </ns3:TrackPointExtension>
        </extensions>
      </trkpt>
      <trkpt lat="36.80379261262714862823486328125" lon="-118.4029541350901126861572265625">
        <ele>3227.39990234375</ele>
        <time>2021-06-26T23:02:46.000Z</time>
        <extensions>
          <ns3:TrackPointExtension>
            <ns3:atemp>30.0</ns3:atemp>
            <ns3:hr>105</ns3:hr>
          </ns3:TrackPointExtension>
        </extensions>
      </trkpt>
      <trkpt lat="36.80379160679876804351806640625" lon="-118.4029437415301799774169921875">
        <ele>3227.60009765625</ele>
        <time>2021-06-26T23:02:47.000Z</time>
        <extensions>
          <ns3:TrackPointExtension>
            <ns3:atemp>30.0</ns3:atemp>
            <ns3:hr>105</ns3:hr>
          </ns3:TrackPointExtension>
        </extensions>
      </trkpt>
      <trkpt lat="36.80378624238073825836181640625" lon="-118.40292555280029773712158203125">
        <ele>3228</ele>
        <time>2021-06-26T23:02:49.000Z</time>
        <extensions>
          <ns3:TrackPointExtension>
            <ns3:atemp>30.0</ns3:atemp>
            <ns3:hr>105</ns3:hr>
          </ns3:TrackPointExtension>
        </extensions>
      </trkpt>
      <trkpt lat="36.80378339253365993499755859375" lon="-118.40291641652584075927734375">
        <ele>3228.199951171875</ele>
        <time>2021-06-26T23:02:50.000Z</time>
        <extensions>
          <ns3:TrackPointExtension>
            <ns3:atemp>30.0</ns3:atemp>
            <ns3:hr>105</ns3:hr>
          </ns3:TrackPointExtension>
        </extensions>
      </trkpt>
      <trkpt lat="36.80377366952598094940185546875" lon="-118.40289822779595851898193359375">
        <ele>3228.39990234375</ele>
        <time>2021-06-26T23:02:52.000Z</time>
        <extensions>
          <ns3:TrackPointExtension>
            <ns3:atemp>30.0</ns3:atemp>
            <ns3:hr>110</ns3:hr>
          </ns3:TrackPointExtension>
        </extensions>
      </trkpt>
      <trkpt lat="36.803761683404445648193359375" lon="-118.40287509374320507049560546875">
        <ele>3228.60009765625</ele>
        <time>2021-06-26T23:02:54.000Z</time>
        <extensions>
          <ns3:TrackPointExtension>
            <ns3:atemp>30.0</ns3:atemp>
            <ns3:hr>111</ns3:hr>
          </ns3:TrackPointExtension>
        </extensions>
      </trkpt>
      <trkpt lat="36.8037360347807407379150390625" lon="-118.4028528816998004913330078125">
        <ele>3228.60009765625</ele>
        <time>2021-06-26T23:02:57.000Z</time>
        <extensions>
          <ns3:TrackPointExtension>
            <ns3:atemp>30.0</ns3:atemp>
            <ns3:hr>114</ns3:hr>
          </ns3:TrackPointExtension>
        </extensions>
      </trkpt>
      <trkpt lat="36.803725473582744598388671875" lon="-118.4028446674346923828125">
        <ele>3228.39990234375</ele>
        <time>2021-06-26T23:02:59.000Z</time>
        <extensions>
          <ns3:TrackPointExtension>
            <ns3:atemp>30.0</ns3:atemp>
            <ns3:hr>116</ns3:hr>
          </ns3:TrackPointExtension>
        </extensions>
      </trkpt>
      <trkpt lat="36.803715415298938751220703125" lon="-118.402826227247714996337890625">
        <ele>3228.199951171875</ele>
        <time>2021-06-26T23:03:02.000Z</time>
        <extensions>
          <ns3:TrackPointExtension>
            <ns3:atemp>30.0</ns3:atemp>
            <ns3:hr>117</ns3:hr>
          </ns3:TrackPointExtension>
        </extensions>
      </trkpt>
      <trkpt lat="36.8037072010338306427001953125" lon="-118.402812145650386810302734375">
        <ele>3228</ele>
        <time>2021-06-26T23:03:04.000Z</time>
        <extensions>
          <ns3:TrackPointExtension>
            <ns3:atemp>30.0</ns3:atemp>
            <ns3:hr>118</ns3:hr>
          </ns3:TrackPointExtension>
        </extensions>
      </trkpt>
      <trkpt lat="36.80368490517139434814453125" lon="-118.40279982425272464752197265625">
        <ele>3227.800048828125</ele>
        <time>2021-06-26T23:03:07.000Z</time>
        <extensions>
          <ns3:TrackPointExtension>
            <ns3:atemp>30.0</ns3:atemp>
            <ns3:hr>118</ns3:hr>
          </ns3:TrackPointExtension>
        </extensions>
      </trkpt>
      <trkpt lat="36.80366814136505126953125" lon="-118.40280200354754924774169921875">
        <ele>3227</ele>
        <time>2021-06-26T23:03:11.000Z</time>
        <extensions>
          <ns3:TrackPointExtension>
            <ns3:atemp>30.0</ns3:atemp>
            <ns3:hr>117</ns3:hr>
          </ns3:TrackPointExtension>
        </extensions>
      </trkpt>
      <trkpt lat="36.80366872809827327728271484375" lon="-118.4028039313852787017822265625">
        <ele>3227</ele>
        <time>2021-06-26T23:03:15.000Z</time>
        <extensions>
          <ns3:TrackPointExtension>
            <ns3:atemp>30.0</ns3:atemp>
            <ns3:hr>116</ns3:hr>
          </ns3:TrackPointExtension>
        </extensions>
      </trkpt>
      <trkpt lat="36.80367291904985904693603515625" lon="-118.40280711650848388671875">
        <ele>3227</ele>
        <time>2021-06-26T23:03:18.000Z</time>
        <extensions>
          <ns3:TrackPointExtension>
            <ns3:atemp>30.0</ns3:atemp>
            <ns3:hr>112</ns3:hr>
          </ns3:TrackPointExtension>
        </extensions>
      </trkpt>
      <trkpt lat="36.80363469757139682769775390625" lon="-118.4027802944183349609375">
        <ele>3227</ele>
        <time>2021-06-26T23:03:25.000Z</time>
        <extensions>
          <ns3:TrackPointExtension>
            <ns3:atemp>30.0</ns3:atemp>
            <ns3:hr>113</ns3:hr>
          </ns3:TrackPointExtension>
        </extensions>
      </trkpt>
      <trkpt lat="36.8035606853663921356201171875" lon="-118.4028133191168308258056640625">
        <ele>3227</ele>
        <time>2021-06-26T23:03:33.000Z</time>
        <extensions>
          <ns3:TrackPointExtension>
            <ns3:atemp>30.0</ns3:atemp>
            <ns3:hr>110</ns3:hr>
          </ns3:TrackPointExtension>
        </extensions>
      </trkpt>
      <trkpt lat="36.80352573283016681671142578125" lon="-118.4028072841465473175048828125">
        <ele>3227</ele>
        <time>2021-06-26T23:03:41.000Z</time>
        <extensions>
          <ns3:TrackPointExtension>
            <ns3:atemp>30.0</ns3:atemp>
            <ns3:hr>108</ns3:hr>
          </ns3:TrackPointExtension>
        </extensions>
      </trkpt>
      <trkpt lat="36.80349203757941722869873046875" lon="-118.4028434939682483673095703125">
        <ele>3227</ele>
        <time>2021-06-26T23:03:45.000Z</time>
        <extensions>
          <ns3:TrackPointExtension>
            <ns3:atemp>30.0</ns3:atemp>
            <ns3:hr>111</ns3:hr>
          </ns3:TrackPointExtension>
        </extensions>
      </trkpt>
      <trkpt lat="36.8034631200134754180908203125" lon="-118.4028567373752593994140625">
        <ele>3227</ele>
        <time>2021-06-26T23:03:48.000Z</time>
        <extensions>
          <ns3:TrackPointExtension>
            <ns3:atemp>30.0</ns3:atemp>
            <ns3:hr>113</ns3:hr>
          </ns3:TrackPointExtension>
        </extensions>
      </trkpt>
      <trkpt lat="36.80343772284686565399169921875" lon="-118.40285195969045162200927734375">
        <ele>3227</ele>
        <time>2021-06-26T23:03:51.000Z</time>
        <extensions>
          <ns3:TrackPointExtension>
            <ns3:atemp>30.0</ns3:atemp>
            <ns3:hr>110</ns3:hr>
          </ns3:TrackPointExtension>
        </extensions>
      </trkpt>
      <trkpt lat="36.803424060344696044921875" lon="-118.40283804573118686676025390625">
        <ele>3227</ele>
        <time>2021-06-26T23:03:54.000Z</time>
        <extensions>
          <ns3:TrackPointExtension>
            <ns3:atemp>30.0</ns3:atemp>
            <ns3:hr>110</ns3:hr>
          </ns3:TrackPointExtension>
        </extensions>
      </trkpt>
      <trkpt lat="36.8034238927066326141357421875" lon="-118.402838967740535736083984375">
        <ele>3227</ele>
        <time>2021-06-26T23:03:55.000Z</time>
        <extensions>
          <ns3:TrackPointExtension>
            <ns3:atemp>29.0</ns3:atemp>
            <ns3:hr>110</ns3:hr>
          </ns3:TrackPointExtension>
        </extensions>
      </trkpt>
      <trkpt lat="36.80337854661047458648681640625" lon="-118.40284458361566066741943359375">
        <ele>3226.60009765625</ele>
        <time>2021-06-26T23:04:00.000Z</time>
        <extensions>
          <ns3:TrackPointExtension>
            <ns3:atemp>29.0</ns3:atemp>
            <ns3:hr>108</ns3:hr>
          </ns3:TrackPointExtension>
        </extensions>
      </trkpt>
      <trkpt lat="36.8033662252128124237060546875" lon="-118.40284558944404125213623046875">
        <ele>3226.60009765625</ele>
        <time>2021-06-26T23:04:01.000Z</time>
        <extensions>
          <ns3:TrackPointExtension>
            <ns3:atemp>29.0</ns3:atemp>
            <ns3:hr>107</ns3:hr>
          </ns3:TrackPointExtension>
        </extensions>
      </trkpt>
      <trkpt lat="36.8033323623239994049072265625" lon="-118.402802087366580963134765625">
        <ele>3225.800048828125</ele>
        <time>2021-06-26T23:04:06.000Z</time>
        <extensions>
          <ns3:TrackPointExtension>
            <ns3:atemp>29.0</ns3:atemp>
            <ns3:hr>109</ns3:hr>
          </ns3:TrackPointExtension>
        </extensions>
      </trkpt>
      <trkpt lat="36.80331652052700519561767578125" lon="-118.40276797302067279815673828125">
        <ele>3225.39990234375</ele>
        <time>2021-06-26T23:04:09.000Z</time>
        <extensions>
          <ns3:TrackPointExtension>
            <ns3:atemp>29.0</ns3:atemp>
            <ns3:hr>109</ns3:hr>
          </ns3:TrackPointExtension>
        </extensions>
      </trkpt>
      <trkpt lat="36.803306378424167633056640625" lon="-118.40274198912084102630615234375">
        <ele>3225.199951171875</ele>
        <time>2021-06-26T23:04:11.000Z</time>
        <extensions>
          <ns3:TrackPointExtension>
            <ns3:atemp>29.0</ns3:atemp>
            <ns3:hr>110</ns3:hr>
          </ns3:TrackPointExtension>
        </extensions>
      </trkpt>
      <trkpt lat="36.80330327711999416351318359375" lon="-118.402717597782611846923828125">
        <ele>3225.199951171875</ele>
        <time>2021-06-26T23:04:13.000Z</time>
        <extensions>
          <ns3:TrackPointExtension>
            <ns3:atemp>29.0</ns3:atemp>
            <ns3:hr>110</ns3:hr>
          </ns3:TrackPointExtension>
        </extensions>
      </trkpt>
      <trkpt lat="36.8032974936068058013916015625" lon="-118.40270846150815486907958984375">
        <ele>3225.199951171875</ele>
        <time>2021-06-26T23:04:14.000Z</time>
        <extensions>
          <ns3:TrackPointExtension>
            <ns3:atemp>29.0</ns3:atemp>
            <ns3:hr>111</ns3:hr>
          </ns3:TrackPointExtension>
        </extensions>
      </trkpt>
      <trkpt lat="36.80325650610029697418212890625" lon="-118.40269639156758785247802734375">
        <ele>3225.60009765625</ele>
        <time>2021-06-26T23:04:19.000Z</time>
        <extensions>
          <ns3:TrackPointExtension>
            <ns3:atemp>29.0</ns3:atemp>
            <ns3:hr>111</ns3:hr>
          </ns3:TrackPointExtension>
        </extensions>
      </trkpt>
      <trkpt lat="36.8031992577016353607177734375" lon="-118.4026922844350337982177734375">
        <ele>3225.800048828125</ele>
        <time>2021-06-26T23:04:25.000Z</time>
        <extensions>
          <ns3:TrackPointExtension>
            <ns3:atemp>29.0</ns3:atemp>
            <ns3:hr>113</ns3:hr>
          </ns3:TrackPointExtension>
        </extensions>
      </trkpt>
      <trkpt lat="36.8031891994178295135498046875" lon="-118.40270343236625194549560546875">
        <ele>3225.800048828125</ele>
        <time>2021-06-26T23:04:27.000Z</time>
        <extensions>
          <ns3:TrackPointExtension>
            <ns3:atemp>29.0</ns3:atemp>
            <ns3:hr>113</ns3:hr>
          </ns3:TrackPointExtension>
        </extensions>
      </trkpt>
      <trkpt lat="36.80317285470664501190185546875" lon="-118.402683399617671966552734375">
        <ele>3225.800048828125</ele>
        <time>2021-06-26T23:04:29.000Z</time>
        <extensions>
          <ns3:TrackPointExtension>
            <ns3:atemp>29.0</ns3:atemp>
            <ns3:hr>113</ns3:hr>
          </ns3:TrackPointExtension>
        </extensions>
      </trkpt>
      <trkpt lat="36.80315827019512653350830078125" lon="-118.4026600979268550872802734375">
        <ele>3225.800048828125</ele>
        <time>2021-06-26T23:04:31.000Z</time>
        <extensions>
          <ns3:TrackPointExtension>
            <ns3:atemp>29.0</ns3:atemp>
            <ns3:hr>113</ns3:hr>
          </ns3:TrackPointExtension>
        </extensions>
      </trkpt>
      <trkpt lat="36.80307478643953800201416015625" lon="-118.4025782905519008636474609375">
        <ele>3226.800048828125</ele>
        <time>2021-06-26T23:04:41.000Z</time>
        <extensions>
          <ns3:TrackPointExtension>
            <ns3:atemp>29.0</ns3:atemp>
            <ns3:hr>110</ns3:hr>
          </ns3:TrackPointExtension>
        </extensions>
      </trkpt>
      <trkpt lat="36.80306472815573215484619140625" lon="-118.4025735966861248016357421875">
        <ele>3227</ele>
        <time>2021-06-26T23:04:42.000Z</time>
        <extensions>
          <ns3:TrackPointExtension>
            <ns3:atemp>29.0</ns3:atemp>
            <ns3:hr>109</ns3:hr>
          </ns3:TrackPointExtension>
        </extensions>
      </trkpt>
      <trkpt lat="36.803014017641544342041015625" lon="-118.4025595150887966156005859375">
        <ele>3228</ele>
        <time>2021-06-26T23:04:47.000Z</time>
        <extensions>
          <ns3:TrackPointExtension>
            <ns3:atemp>29.0</ns3:atemp>
            <ns3:hr>107</ns3:hr>
          </ns3:TrackPointExtension>
        </extensions>
      </trkpt>
      <trkpt lat="36.8029575236141681671142578125" lon="-118.4025678969919681549072265625">
        <ele>3228.199951171875</ele>
        <time>2021-06-26T23:04:53.000Z</time>
        <extensions>
          <ns3:TrackPointExtension>
            <ns3:atemp>29.0</ns3:atemp>
            <ns3:hr>110</ns3:hr>
          </ns3:TrackPointExtension>
        </extensions>
      </trkpt>
      <trkpt lat="36.802890300750732421875" lon="-118.40255624614655971527099609375">
        <ele>3229.199951171875</ele>
        <time>2021-06-26T23:05:02.000Z</time>
        <extensions>
          <ns3:TrackPointExtension>
            <ns3:atemp>29.0</ns3:atemp>
            <ns3:hr>110</ns3:hr>
          </ns3:TrackPointExtension>
        </extensions>
      </trkpt>
      <trkpt lat="36.80285182781517505645751953125" lon="-118.4025360457599163055419921875">
        <ele>3230</ele>
        <time>2021-06-26T23:05:08.000Z</time>
        <extensions>
          <ns3:TrackPointExtension>
            <ns3:atemp>29.0</ns3:atemp>
            <ns3:hr>113</ns3:hr>
          </ns3:TrackPointExtension>
        </extensions>
      </trkpt>
      <trkpt lat="36.80285082198679447174072265625" lon="-118.402529172599315643310546875">
        <ele>3230</ele>
        <time>2021-06-26T23:05:09.000Z</time>
        <extensions>
          <ns3:TrackPointExtension>
            <ns3:atemp>29.0</ns3:atemp>
            <ns3:hr>112</ns3:hr>
          </ns3:TrackPointExtension>
        </extensions>
      </trkpt>
      <trkpt lat="36.802855096757411956787109375" lon="-118.40250377543270587921142578125">
        <ele>3229.800048828125</ele>
        <time>2021-06-26T23:05:12.000Z</time>
        <extensions>
          <ns3:TrackPointExtension>
            <ns3:atemp>29.0</ns3:atemp>
            <ns3:hr>115</ns3:hr>
          </ns3:TrackPointExtension>
        </extensions>
      </trkpt>
      <trkpt lat="36.80285132490098476409912109375" lon="-118.4024978242814540863037109375">
        <ele>3230</ele>
        <time>2021-06-26T23:05:15.000Z</time>
        <extensions>
          <ns3:TrackPointExtension>
            <ns3:atemp>29.0</ns3:atemp>
            <ns3:hr>116</ns3:hr>
          </ns3:TrackPointExtension>
        </extensions>
      </trkpt>
      <trkpt lat="36.80285803042352199554443359375" lon="-118.40247242711484432220458984375">
        <ele>3230</ele>
        <time>2021-06-26T23:05:20.000Z</time>
        <extensions>
          <ns3:TrackPointExtension>
            <ns3:atemp>29.0</ns3:atemp>
            <ns3:hr>119</ns3:hr>
          </ns3:TrackPointExtension>
        </extensions>
      </trkpt>
      <trkpt lat="36.8028542585670948028564453125" lon="-118.40246119536459445953369140625">
        <ele>3230.60009765625</ele>
        <time>2021-06-26T23:05:22.000Z</time>
        <extensions>
          <ns3:TrackPointExtension>
            <ns3:atemp>29.0</ns3:atemp>
            <ns3:hr>119</ns3:hr>
          </ns3:TrackPointExtension>
        </extensions>
      </trkpt>
      <trkpt lat="36.802860461175441741943359375" lon="-118.40246069245040416717529296875">
        <ele>3230.199951171875</ele>
        <time>2021-06-26T23:05:24.000Z</time>
        <extensions>
          <ns3:TrackPointExtension>
            <ns3:atemp>29.0</ns3:atemp>
            <ns3:hr>119</ns3:hr>
          </ns3:TrackPointExtension>
        </extensions>
      </trkpt>
      <trkpt lat="36.80286146700382232666015625" lon="-118.40245935134589672088623046875">
        <ele>3230.39990234375</ele>
        <time>2021-06-26T23:05:31.000Z</time>
        <extensions>
          <ns3:TrackPointExtension>
            <ns3:atemp>29.0</ns3:atemp>
            <ns3:hr>120</ns3:hr>
          </ns3:TrackPointExtension>
        </extensions>
      </trkpt>
      <trkpt lat="36.80286146700382232666015625" lon="-118.40245935134589672088623046875">
        <ele>3230.39990234375</ele>
        <time>2021-06-26T23:05:32.000Z</time>
        <extensions>
          <ns3:TrackPointExtension>
            <ns3:atemp>29.0</ns3:atemp>
            <ns3:hr>120</ns3:hr>
          </ns3:TrackPointExtension>
        </extensions>
      </trkpt>
      <trkpt lat="36.80290513671934604644775390625" lon="-118.40247477404773235321044921875">
        <ele>3230.60009765625</ele>
        <time>2021-06-26T23:05:50.000Z</time>
        <extensions>
          <ns3:TrackPointExtension>
            <ns3:atemp>29.0</ns3:atemp>
            <ns3:hr>123</ns3:hr>
          </ns3:TrackPointExtension>
        </extensions>
      </trkpt>
      <trkpt lat="36.8029353953897953033447265625" lon="-118.4024787135422229766845703125">
        <ele>3230.60009765625</ele>
        <time>2021-06-26T23:05:52.000Z</time>
        <extensions>
          <ns3:TrackPointExtension>
            <ns3:atemp>29.0</ns3:atemp>
            <ns3:hr>122</ns3:hr>
          </ns3:TrackPointExtension>
        </extensions>
      </trkpt>
      <trkpt lat="36.8030346371233463287353515625" lon="-118.40245909988880157470703125">
        <ele>3230.60009765625</ele>
        <time>2021-06-26T23:06:00.000Z</time>
        <extensions>
          <ns3:TrackPointExtension>
            <ns3:atemp>29.0</ns3:atemp>
            <ns3:hr>121</ns3:hr>
          </ns3:TrackPointExtension>
        </extensions>
      </trkpt>
      <trkpt lat="36.80309641174972057342529296875" lon="-118.40246873907744884490966796875">
        <ele>3229.800048828125</ele>
        <time>2021-06-26T23:06:06.000Z</time>
        <extensions>
          <ns3:TrackPointExtension>
            <ns3:atemp>29.0</ns3:atemp>
            <ns3:hr>119</ns3:hr>
          </ns3:TrackPointExtension>
        </extensions>
      </trkpt>
      <trkpt lat="36.8031452782452106475830078125" lon="-118.4024488739669322967529296875">
        <ele>3229.39990234375</ele>
        <time>2021-06-26T23:06:12.000Z</time>
        <extensions>
          <ns3:TrackPointExtension>
            <ns3:atemp>29.0</ns3:atemp>
            <ns3:hr>117</ns3:hr>
          </ns3:TrackPointExtension>
        </extensions>
      </trkpt>
      <trkpt lat="36.8031506426632404327392578125" lon="-118.4024492092430591583251953125">
        <ele>3229.60009765625</ele>
        <time>2021-06-26T23:06:13.000Z</time>
        <extensions>
          <ns3:TrackPointExtension>
            <ns3:atemp>29.0</ns3:atemp>
            <ns3:hr>117</ns3:hr>
          </ns3:TrackPointExtension>
        </extensions>
      </trkpt>
      <trkpt lat="36.80320839397609233856201171875" lon="-118.4024431742727756500244140625">
        <ele>3229.39990234375</ele>
        <time>2021-06-26T23:06:19.000Z</time>
        <extensions>
          <ns3:TrackPointExtension>
            <ns3:atemp>29.0</ns3:atemp>
            <ns3:hr>114</ns3:hr>
          </ns3:TrackPointExtension>
        </extensions>
      </trkpt>
      <trkpt lat="36.8032458610832691192626953125" lon="-118.4024160169064998626708984375">
        <ele>3229</ele>
        <time>2021-06-26T23:06:23.000Z</time>
        <extensions>
          <ns3:TrackPointExtension>
            <ns3:atemp>29.0</ns3:atemp>
            <ns3:hr>113</ns3:hr>
          </ns3:TrackPointExtension>
        </extensions>
      </trkpt>
      <trkpt lat="36.803271509706974029541015625" lon="-118.40240604244172573089599609375">
        <ele>3228.60009765625</ele>
        <time>2021-06-26T23:06:26.000Z</time>
        <extensions>
          <ns3:TrackPointExtension>
            <ns3:atemp>29.0</ns3:atemp>
            <ns3:hr>112</ns3:hr>
          </ns3:TrackPointExtension>
        </extensions>
      </trkpt>
      <trkpt lat="36.80328668095171451568603515625" lon="-118.40241945348680019378662109375">
        <ele>3228</ele>
        <time>2021-06-26T23:06:28.000Z</time>
        <extensions>
          <ns3:TrackPointExtension>
            <ns3:atemp>29.0</ns3:atemp>
            <ns3:hr>113</ns3:hr>
          </ns3:TrackPointExtension>
        </extensions>
      </trkpt>
      <trkpt lat="36.8033045344054698944091796875" lon="-118.40242959558963775634765625">
        <ele>3228</ele>
        <time>2021-06-26T23:06:30.000Z</time>
        <extensions>
          <ns3:TrackPointExtension>
            <ns3:atemp>29.0</ns3:atemp>
            <ns3:hr>112</ns3:hr>
          </ns3:TrackPointExtension>
        </extensions>
      </trkpt>
      <trkpt lat="36.8033665604889392852783203125" lon="-118.40245817787945270538330078125">
        <ele>3227</ele>
        <time>2021-06-26T23:06:38.000Z</time>
        <extensions>
          <ns3:TrackPointExtension>
            <ns3:atemp>29.0</ns3:atemp>
            <ns3:hr>112</ns3:hr>
          </ns3:TrackPointExtension>
        </extensions>
      </trkpt>
      <trkpt lat="36.80337737314403057098388671875" lon="-118.4024545736610889434814453125">
        <ele>3226.60009765625</ele>
        <time>2021-06-26T23:06:39.000Z</time>
        <extensions>
          <ns3:TrackPointExtension>
            <ns3:atemp>29.0</ns3:atemp>
            <ns3:hr>112</ns3:hr>
          </ns3:TrackPointExtension>
        </extensions>
      </trkpt>
      <trkpt lat="36.80340235121548175811767578125" lon="-118.4024126641452312469482421875">
        <ele>3226.199951171875</ele>
        <time>2021-06-26T23:06:44.000Z</time>
        <extensions>
          <ns3:TrackPointExtension>
            <ns3:atemp>29.0</ns3:atemp>
            <ns3:hr>111</ns3:hr>
          </ns3:TrackPointExtension>
        </extensions>
      </trkpt>
      <trkpt lat="36.80340738035738468170166015625" lon="-118.40237452648580074310302734375">
        <ele>3226.39990234375</ele>
        <time>2021-06-26T23:06:47.000Z</time>
        <extensions>
          <ns3:TrackPointExtension>
            <ns3:atemp>29.0</ns3:atemp>
            <ns3:hr>112</ns3:hr>
          </ns3:TrackPointExtension>
        </extensions>
      </trkpt>
      <trkpt lat="36.8034071289002895355224609375" lon="-118.40231400914490222930908203125">
        <ele>3226.199951171875</ele>
        <time>2021-06-26T23:06:52.000Z</time>
        <extensions>
          <ns3:TrackPointExtension>
            <ns3:atemp>29.0</ns3:atemp>
            <ns3:hr>114</ns3:hr>
          </ns3:TrackPointExtension>
        </extensions>
      </trkpt>
      <trkpt lat="36.8034017644822597503662109375" lon="-118.402279056608676910400390625">
        <ele>3226</ele>
        <time>2021-06-26T23:06:56.000Z</time>
        <extensions>
          <ns3:TrackPointExtension>
            <ns3:atemp>29.0</ns3:atemp>
            <ns3:hr>113</ns3:hr>
          </ns3:TrackPointExtension>
        </extensions>
      </trkpt>
      <trkpt lat="36.80340821854770183563232421875" lon="-118.402222059667110443115234375">
        <ele>3225.199951171875</ele>
        <time>2021-06-26T23:07:01.000Z</time>
        <extensions>
          <ns3:TrackPointExtension>
            <ns3:atemp>29.0</ns3:atemp>
            <ns3:hr>111</ns3:hr>
          </ns3:TrackPointExtension>
        </extensions>
      </trkpt>
      <trkpt lat="36.80340436287224292755126953125" lon="-118.402183838188648223876953125">
        <ele>3225.39990234375</ele>
        <time>2021-06-26T23:07:04.000Z</time>
        <extensions>
          <ns3:TrackPointExtension>
            <ns3:atemp>29.0</ns3:atemp>
            <ns3:hr>110</ns3:hr>
          </ns3:TrackPointExtension>
        </extensions>
      </trkpt>
      <trkpt lat="36.80342129431664943695068359375" lon="-118.4021327085793018341064453125">
        <ele>3225.39990234375</ele>
        <time>2021-06-26T23:07:09.000Z</time>
        <extensions>
          <ns3:TrackPointExtension>
            <ns3:atemp>29.0</ns3:atemp>
            <ns3:hr>110</ns3:hr>
          </ns3:TrackPointExtension>
        </extensions>
      </trkpt>
      <trkpt lat="36.80344996042549610137939453125" lon="-118.402124829590320587158203125">
        <ele>3225.60009765625</ele>
        <time>2021-06-26T23:07:13.000Z</time>
        <extensions>
          <ns3:TrackPointExtension>
            <ns3:atemp>29.0</ns3:atemp>
            <ns3:hr>107</ns3:hr>
          </ns3:TrackPointExtension>
        </extensions>
      </trkpt>
      <trkpt lat="36.8034731782972812652587890625" lon="-118.40211133472621440887451171875">
        <ele>3225.800048828125</ele>
        <time>2021-06-26T23:07:16.000Z</time>
        <extensions>
          <ns3:TrackPointExtension>
            <ns3:atemp>29.0</ns3:atemp>
            <ns3:hr>108</ns3:hr>
          </ns3:TrackPointExtension>
        </extensions>
      </trkpt>
      <trkpt lat="36.80351818911731243133544921875" lon="-118.4020964987576007843017578125">
        <ele>3225</ele>
        <time>2021-06-26T23:07:23.000Z</time>
        <extensions>
          <ns3:TrackPointExtension>
            <ns3:atemp>29.0</ns3:atemp>
            <ns3:hr>111</ns3:hr>
          </ns3:TrackPointExtension>
        </extensions>
      </trkpt>
      <trkpt lat="36.80352170951664447784423828125" lon="-118.40210102498531341552734375">
        <ele>3225</ele>
        <time>2021-06-26T23:07:24.000Z</time>
        <extensions>
          <ns3:TrackPointExtension>
            <ns3:atemp>29.0</ns3:atemp>
            <ns3:hr>112</ns3:hr>
          </ns3:TrackPointExtension>
        </extensions>
      </trkpt>
      <trkpt lat="36.803526990115642547607421875" lon="-118.40210479684174060821533203125">
        <ele>3224.800048828125</ele>
        <time>2021-06-26T23:07:25.000Z</time>
        <extensions>
          <ns3:TrackPointExtension>
            <ns3:atemp>29.0</ns3:atemp>
            <ns3:hr>111</ns3:hr>
          </ns3:TrackPointExtension>
        </extensions>
      </trkpt>
      <trkpt lat="36.80355791933834552764892578125" lon="-118.4021092392504215240478515625">
        <ele>3224.39990234375</ele>
        <time>2021-06-26T23:07:29.000Z</time>
        <extensions>
          <ns3:TrackPointExtension>
            <ns3:atemp>29.0</ns3:atemp>
            <ns3:hr>110</ns3:hr>
          </ns3:TrackPointExtension>
        </extensions>
      </trkpt>
      <trkpt lat="36.80359681136906147003173828125" lon="-118.40211552567780017852783203125">
        <ele>3222</ele>
        <time>2021-06-26T23:23:50.000Z</time>
        <extensions>
          <ns3:TrackPointExtension>
            <ns3:atemp>30.0</ns3:atemp>
            <ns3:hr>97</ns3:hr>
          </ns3:TrackPointExtension>
        </extensions>
      </trkpt>
      <trkpt lat="36.80359681136906147003173828125" lon="-118.40211552567780017852783203125">
        <ele>3222</ele>
        <time>2021-06-26T23:23:51.000Z</time>
        <extensions>
          <ns3:TrackPointExtension>
            <ns3:atemp>30.0</ns3:atemp>
            <ns3:hr>97</ns3:hr>
          </ns3:TrackPointExtension>
        </extensions>
      </trkpt>
      <trkpt lat="36.80359681136906147003173828125" lon="-118.40211552567780017852783203125">
        <ele>3222</ele>
        <time>2021-06-26T23:23:54.000Z</time>
        <extensions>
          <ns3:TrackPointExtension>
            <ns3:atemp>30.0</ns3:atemp>
            <ns3:hr>98</ns3:hr>
          </ns3:TrackPointExtension>
        </extensions>
      </trkpt>
      <trkpt lat="36.80359681136906147003173828125" lon="-118.40211552567780017852783203125">
        <ele>3222.199951171875</ele>
        <time>2021-06-26T23:23:56.000Z</time>
        <extensions>
          <ns3:TrackPointExtension>
            <ns3:atemp>30.0</ns3:atemp>
            <ns3:hr>95</ns3:hr>
          </ns3:TrackPointExtension>
        </extensions>
      </trkpt>
      <trkpt lat="36.803596727550029754638671875" lon="-118.4021156094968318939208984375">
        <ele>3222.199951171875</ele>
        <time>2021-06-26T23:23:58.000Z</time>
        <extensions>
          <ns3:TrackPointExtension>
            <ns3:atemp>30.0</ns3:atemp>
            <ns3:hr>92</ns3:hr>
          </ns3:TrackPointExtension>
        </extensions>
      </trkpt>
      <trkpt lat="36.80363888852298259735107421875" lon="-118.40207814238965511322021484375">
        <ele>3221.800048828125</ele>
        <time>2021-06-26T23:24:04.000Z</time>
        <extensions>
          <ns3:TrackPointExtension>
            <ns3:atemp>30.0</ns3:atemp>
            <ns3:hr>90</ns3:hr>
          </ns3:TrackPointExtension>
        </extensions>
      </trkpt>
      <trkpt lat="36.80369831621646881103515625" lon="-118.40208082459867000579833984375">
        <ele>3222.199951171875</ele>
        <time>2021-06-26T23:24:11.000Z</time>
        <extensions>
          <ns3:TrackPointExtension>
            <ns3:atemp>30.0</ns3:atemp>
            <ns3:hr>87</ns3:hr>
          </ns3:TrackPointExtension>
        </extensions>
      </trkpt>
      <trkpt lat="36.8037038482725620269775390625" lon="-118.402078561484813690185546875">
        <ele>3222.39990234375</ele>
        <time>2021-06-26T23:24:12.000Z</time>
        <extensions>
          <ns3:TrackPointExtension>
            <ns3:atemp>30.0</ns3:atemp>
            <ns3:hr>87</ns3:hr>
          </ns3:TrackPointExtension>
        </extensions>
      </trkpt>
      <trkpt lat="36.8037222884595394134521484375" lon="-118.40207478962838649749755859375">
        <ele>3223</ele>
        <time>2021-06-26T23:24:15.000Z</time>
        <extensions>
          <ns3:TrackPointExtension>
            <ns3:atemp>30.0</ns3:atemp>
            <ns3:hr>88</ns3:hr>
          </ns3:TrackPointExtension>
        </extensions>
      </trkpt>
      <trkpt lat="36.80375321768224239349365234375" lon="-118.4020723588764667510986328125">
        <ele>3223.39990234375</ele>
        <time>2021-06-26T23:24:20.000Z</time>
        <extensions>
          <ns3:TrackPointExtension>
            <ns3:atemp>30.0</ns3:atemp>
            <ns3:hr>88</ns3:hr>
          </ns3:TrackPointExtension>
        </extensions>
      </trkpt>
      <trkpt lat="36.80375958792865276336669921875" lon="-118.40207017958164215087890625">
        <ele>3223.800048828125</ele>
        <time>2021-06-26T23:24:23.000Z</time>
        <extensions>
          <ns3:TrackPointExtension>
            <ns3:atemp>30.0</ns3:atemp>
            <ns3:hr>91</ns3:hr>
          </ns3:TrackPointExtension>
        </extensions>
      </trkpt>
      <trkpt lat="36.80380384437739849090576171875" lon="-118.402057103812694549560546875">
        <ele>3224</ele>
        <time>2021-06-26T23:24:32.000Z</time>
        <extensions>
          <ns3:TrackPointExtension>
            <ns3:atemp>30.0</ns3:atemp>
            <ns3:hr>90</ns3:hr>
          </ns3:TrackPointExtension>
        </extensions>
      </trkpt>
      <trkpt lat="36.8038208596408367156982421875" lon="-118.40205115266144275665283203125">
        <ele>3224</ele>
        <time>2021-06-26T23:24:34.000Z</time>
        <extensions>
          <ns3:TrackPointExtension>
            <ns3:atemp>30.0</ns3:atemp>
            <ns3:hr>89</ns3:hr>
          </ns3:TrackPointExtension>
        </extensions>
      </trkpt>
      <trkpt lat="36.80384592153131961822509765625" lon="-118.40203992091119289398193359375">
        <ele>3223.800048828125</ele>
        <time>2021-06-26T23:24:38.000Z</time>
        <extensions>
          <ns3:TrackPointExtension>
            <ns3:atemp>30.0</ns3:atemp>
            <ns3:hr>89</ns3:hr>
          </ns3:TrackPointExtension>
        </extensions>
      </trkpt>
      <trkpt lat="36.80388472974300384521484375" lon="-118.40204344131052494049072265625">
        <ele>3223</ele>
        <time>2021-06-26T23:24:43.000Z</time>
        <extensions>
          <ns3:TrackPointExtension>
            <ns3:atemp>30.0</ns3:atemp>
            <ns3:hr>87</ns3:hr>
          </ns3:TrackPointExtension>
        </extensions>
      </trkpt>
      <trkpt lat="36.80391582660377025604248046875" lon="-118.4020555950701236724853515625">
        <ele>3222.39990234375</ele>
        <time>2021-06-26T23:24:46.000Z</time>
        <extensions>
          <ns3:TrackPointExtension>
            <ns3:atemp>30.0</ns3:atemp>
            <ns3:hr>86</ns3:hr>
          </ns3:TrackPointExtension>
        </extensions>
      </trkpt>
      <trkpt lat="36.803973577916622161865234375" lon="-118.4020237438380718231201171875">
        <ele>3222</ele>
        <time>2021-06-26T23:24:52.000Z</time>
        <extensions>
          <ns3:TrackPointExtension>
            <ns3:atemp>30.0</ns3:atemp>
            <ns3:hr>82</ns3:hr>
          </ns3:TrackPointExtension>
        </extensions>
      </trkpt>
      <trkpt lat="36.80399277247488498687744140625" lon="-118.40200572274625301361083984375">
        <ele>3222</ele>
        <time>2021-06-26T23:24:54.000Z</time>
        <extensions>
          <ns3:TrackPointExtension>
            <ns3:atemp>31.0</ns3:atemp>
            <ns3:hr>83</ns3:hr>
          </ns3:TrackPointExtension>
        </extensions>
      </trkpt>
      <trkpt lat="36.80403317324817180633544921875" lon="-118.4019493125379085540771484375">
        <ele>3222.39990234375</ele>
        <time>2021-06-26T23:25:00.000Z</time>
        <extensions>
          <ns3:TrackPointExtension>
            <ns3:atemp>31.0</ns3:atemp>
            <ns3:hr>84</ns3:hr>
          </ns3:TrackPointExtension>
        </extensions>
      </trkpt>
      <trkpt lat="36.8040190078318119049072265625" lon="-118.40191888622939586639404296875">
        <ele>3222.60009765625</ele>
        <time>2021-06-26T23:25:03.000Z</time>
        <extensions>
          <ns3:TrackPointExtension>
            <ns3:atemp>31.0</ns3:atemp>
            <ns3:hr>84</ns3:hr>
          </ns3:TrackPointExtension>
        </extensions>
      </trkpt>
      <trkpt lat="36.8039928562939167022705078125" lon="-118.4018832631409168243408203125">
        <ele>3223.60009765625</ele>
        <time>2021-06-26T23:25:07.000Z</time>
        <extensions>
          <ns3:TrackPointExtension>
            <ns3:atemp>31.0</ns3:atemp>
            <ns3:hr>87</ns3:hr>
          </ns3:TrackPointExtension>
        </extensions>
      </trkpt>
      <trkpt lat="36.80397802032530307769775390625" lon="-118.40185585431754589080810546875">
        <ele>3224</ele>
        <time>2021-06-26T23:25:10.000Z</time>
        <extensions>
          <ns3:TrackPointExtension>
            <ns3:atemp>31.0</ns3:atemp>
            <ns3:hr>86</ns3:hr>
          </ns3:TrackPointExtension>
        </extensions>
      </trkpt>
      <trkpt lat="36.80397466756403446197509765625" lon="-118.40184529311954975128173828125">
        <ele>3224</ele>
        <time>2021-06-26T23:25:11.000Z</time>
        <extensions>
          <ns3:TrackPointExtension>
            <ns3:atemp>31.0</ns3:atemp>
            <ns3:hr>89</ns3:hr>
          </ns3:TrackPointExtension>
        </extensions>
      </trkpt>
      <trkpt lat="36.80396997369825839996337890625" lon="-118.40183590538799762725830078125">
        <ele>3224.39990234375</ele>
        <time>2021-06-26T23:25:12.000Z</time>
        <extensions>
          <ns3:TrackPointExtension>
            <ns3:atemp>31.0</ns3:atemp>
            <ns3:hr>91</ns3:hr>
          </ns3:TrackPointExtension>
        </extensions>
      </trkpt>
      <trkpt lat="36.8039663694798946380615234375" lon="-118.4018215723335742950439453125">
        <ele>3224.60009765625</ele>
        <time>2021-06-26T23:25:14.000Z</time>
        <extensions>
          <ns3:TrackPointExtension>
            <ns3:atemp>31.0</ns3:atemp>
            <ns3:hr>92</ns3:hr>
          </ns3:TrackPointExtension>
        </extensions>
      </trkpt>
      <trkpt lat="36.803954131901264190673828125" lon="-118.40180254541337490081787109375">
        <ele>3224.60009765625</ele>
        <time>2021-06-26T23:25:17.000Z</time>
        <extensions>
          <ns3:TrackPointExtension>
            <ns3:atemp>31.0</ns3:atemp>
            <ns3:hr>95</ns3:hr>
          </ns3:TrackPointExtension>
        </extensions>
      </trkpt>
      <trkpt lat="36.8039341829717159271240234375" lon="-118.401781506836414337158203125">
        <ele>3224.39990234375</ele>
        <time>2021-06-26T23:25:21.000Z</time>
        <extensions>
          <ns3:TrackPointExtension>
            <ns3:atemp>31.0</ns3:atemp>
            <ns3:hr>95</ns3:hr>
          </ns3:TrackPointExtension>
        </extensions>
      </trkpt>
      <trkpt lat="36.803934015333652496337890625" lon="-118.4017746336758136749267578125">
        <ele>3224.199951171875</ele>
        <time>2021-06-26T23:25:22.000Z</time>
        <extensions>
          <ns3:TrackPointExtension>
            <ns3:atemp>31.0</ns3:atemp>
            <ns3:hr>97</ns3:hr>
          </ns3:TrackPointExtension>
        </extensions>
      </trkpt>
      <trkpt lat="36.8039237894117832183837890625" lon="-118.4017521701753139495849609375">
        <ele>3224</ele>
        <time>2021-06-26T23:25:25.000Z</time>
        <extensions>
          <ns3:TrackPointExtension>
            <ns3:atemp>31.0</ns3:atemp>
            <ns3:hr>95</ns3:hr>
          </ns3:TrackPointExtension>
        </extensions>
      </trkpt>
      <trkpt lat="36.80390459485352039337158203125" lon="-118.401697687804698944091796875">
        <ele>3223.199951171875</ele>
        <time>2021-06-26T23:25:30.000Z</time>
        <extensions>
          <ns3:TrackPointExtension>
            <ns3:atemp>31.0</ns3:atemp>
            <ns3:hr>96</ns3:hr>
          </ns3:TrackPointExtension>
        </extensions>
      </trkpt>
      <trkpt lat="36.80390627123415470123291015625" lon="-118.401671536266803741455078125">
        <ele>3223</ele>
        <time>2021-06-26T23:25:32.000Z</time>
        <extensions>
          <ns3:TrackPointExtension>
            <ns3:atemp>31.0</ns3:atemp>
            <ns3:hr>94</ns3:hr>
          </ns3:TrackPointExtension>
        </extensions>
      </trkpt>
      <trkpt lat="36.80390744470059871673583984375" lon="-118.40166005305945873260498046875">
        <ele>3223</ele>
        <time>2021-06-26T23:25:33.000Z</time>
        <extensions>
          <ns3:TrackPointExtension>
            <ns3:atemp>31.0</ns3:atemp>
            <ns3:hr>93</ns3:hr>
          </ns3:TrackPointExtension>
        </extensions>
      </trkpt>
      <trkpt lat="36.803916580975055694580078125" lon="-118.40160548686981201171875">
        <ele>3223</ele>
        <time>2021-06-26T23:25:37.000Z</time>
        <extensions>
          <ns3:TrackPointExtension>
            <ns3:atemp>31.0</ns3:atemp>
            <ns3:hr>90</ns3:hr>
          </ns3:TrackPointExtension>
        </extensions>
      </trkpt>
      <trkpt lat="36.80391230620443820953369140625" lon="-118.40156801976263523101806640625">
        <ele>3223</ele>
        <time>2021-06-26T23:25:40.000Z</time>
        <extensions>
          <ns3:TrackPointExtension>
            <ns3:atemp>31.0</ns3:atemp>
            <ns3:hr>92</ns3:hr>
          </ns3:TrackPointExtension>
        </extensions>
      </trkpt>
      <trkpt lat="36.80386369116604328155517578125" lon="-118.40148621238768100738525390625">
        <ele>3223</ele>
        <time>2021-06-26T23:25:47.000Z</time>
        <extensions>
          <ns3:TrackPointExtension>
            <ns3:atemp>31.0</ns3:atemp>
            <ns3:hr>95</ns3:hr>
          </ns3:TrackPointExtension>
        </extensions>
      </trkpt>
      <trkpt lat="36.803860254585742950439453125" lon="-118.40147514827549457550048828125">
        <ele>3223</ele>
        <time>2021-06-26T23:25:48.000Z</time>
        <extensions>
          <ns3:TrackPointExtension>
            <ns3:atemp>31.0</ns3:atemp>
            <ns3:hr>95</ns3:hr>
          </ns3:TrackPointExtension>
        </extensions>
      </trkpt>
      <trkpt lat="36.80385815910995006561279296875" lon="-118.40146508999168872833251953125">
        <ele>3222.60009765625</ele>
        <time>2021-06-26T23:25:49.000Z</time>
        <extensions>
          <ns3:TrackPointExtension>
            <ns3:atemp>31.0</ns3:atemp>
            <ns3:hr>96</ns3:hr>
          </ns3:TrackPointExtension>
        </extensions>
      </trkpt>
      <trkpt lat="36.8038097955286502838134765625" lon="-118.4013739787042140960693359375">
        <ele>3222.800048828125</ele>
        <time>2021-06-26T23:25:57.000Z</time>
        <extensions>
          <ns3:TrackPointExtension>
            <ns3:atemp>31.0</ns3:atemp>
            <ns3:hr>93</ns3:hr>
          </ns3:TrackPointExtension>
        </extensions>
      </trkpt>
      <trkpt lat="36.80379462428390979766845703125" lon="-118.40134941972792148590087890625">
        <ele>3222.60009765625</ele>
        <time>2021-06-26T23:25:59.000Z</time>
        <extensions>
          <ns3:TrackPointExtension>
            <ns3:atemp>31.0</ns3:atemp>
            <ns3:hr>93</ns3:hr>
          </ns3:TrackPointExtension>
        </extensions>
      </trkpt>
      <trkpt lat="36.80378423072397708892822265625" lon="-118.40131639502942562103271484375">
        <ele>3222.39990234375</ele>
        <time>2021-06-26T23:26:02.000Z</time>
        <extensions>
          <ns3:TrackPointExtension>
            <ns3:atemp>31.0</ns3:atemp>
            <ns3:hr>96</ns3:hr>
          </ns3:TrackPointExtension>
        </extensions>
      </trkpt>
      <trkpt lat="36.80377853102982044219970703125" lon="-118.4012774191796779632568359375">
        <ele>3222</ele>
        <time>2021-06-26T23:26:05.000Z</time>
        <extensions>
          <ns3:TrackPointExtension>
            <ns3:atemp>31.0</ns3:atemp>
            <ns3:hr>93</ns3:hr>
          </ns3:TrackPointExtension>
        </extensions>
      </trkpt>
      <trkpt lat="36.80376595817506313323974609375" lon="-118.40121011249721050262451171875">
        <ele>3221.60009765625</ele>
        <time>2021-06-26T23:26:10.000Z</time>
        <extensions>
          <ns3:TrackPointExtension>
            <ns3:atemp>31.0</ns3:atemp>
            <ns3:hr>92</ns3:hr>
          </ns3:TrackPointExtension>
        </extensions>
      </trkpt>
      <trkpt lat="36.8037588335573673248291015625" lon="-118.40111707337200641632080078125">
        <ele>3221.800048828125</ele>
        <time>2021-06-26T23:26:18.000Z</time>
        <extensions>
          <ns3:TrackPointExtension>
            <ns3:atemp>30.0</ns3:atemp>
            <ns3:hr>96</ns3:hr>
          </ns3:TrackPointExtension>
        </extensions>
      </trkpt>
      <trkpt lat="36.8037611804902553558349609375" lon="-118.40109293349087238311767578125">
        <ele>3222</ele>
        <time>2021-06-26T23:26:20.000Z</time>
        <extensions>
          <ns3:TrackPointExtension>
            <ns3:atemp>30.0</ns3:atemp>
            <ns3:hr>98</ns3:hr>
          </ns3:TrackPointExtension>
        </extensions>
      </trkpt>
      <trkpt lat="36.80375170893967151641845703125" lon="-118.4010001458227634429931640625">
        <ele>3222.199951171875</ele>
        <time>2021-06-26T23:26:27.000Z</time>
        <extensions>
          <ns3:TrackPointExtension>
            <ns3:atemp>30.0</ns3:atemp>
            <ns3:hr>96</ns3:hr>
          </ns3:TrackPointExtension>
        </extensions>
      </trkpt>
      <trkpt lat="36.80374265648424625396728515625" lon="-118.4009964577853679656982421875">
        <ele>3222</ele>
        <time>2021-06-26T23:26:30.000Z</time>
        <extensions>
          <ns3:TrackPointExtension>
            <ns3:atemp>30.0</ns3:atemp>
            <ns3:hr>95</ns3:hr>
          </ns3:TrackPointExtension>
        </extensions>
      </trkpt>
      <trkpt lat="36.8037346936762332916259765625" lon="-118.40099000371992588043212890625">
        <ele>3222.199951171875</ele>
        <time>2021-06-26T23:26:35.000Z</time>
        <extensions>
          <ns3:TrackPointExtension>
            <ns3:atemp>30.0</ns3:atemp>
            <ns3:hr>92</ns3:hr>
          </ns3:TrackPointExtension>
        </extensions>
      </trkpt>
      <trkpt lat="36.80373578332364559173583984375" lon="-118.40099168010056018829345703125">
        <ele>3222.60009765625</ele>
        <time>2021-06-26T23:26:42.000Z</time>
        <extensions>
          <ns3:TrackPointExtension>
            <ns3:atemp>30.0</ns3:atemp>
            <ns3:hr>89</ns3:hr>
          </ns3:TrackPointExtension>
        </extensions>
      </trkpt>
      <trkpt lat="36.80373310111463069915771484375" lon="-118.40098732151091098785400390625">
        <ele>3222.60009765625</ele>
        <time>2021-06-26T23:26:43.000Z</time>
        <extensions>
          <ns3:TrackPointExtension>
            <ns3:atemp>30.0</ns3:atemp>
            <ns3:hr>89</ns3:hr>
          </ns3:TrackPointExtension>
        </extensions>
      </trkpt>
      <trkpt lat="36.8037212826311588287353515625" lon="-118.40090249665081501007080078125">
        <ele>3222.60009765625</ele>
        <time>2021-06-26T23:26:50.000Z</time>
        <extensions>
          <ns3:TrackPointExtension>
            <ns3:atemp>30.0</ns3:atemp>
            <ns3:hr>88</ns3:hr>
          </ns3:TrackPointExtension>
        </extensions>
      </trkpt>
      <trkpt lat="36.803725473582744598388671875" lon="-118.4008920192718505859375">
        <ele>3222.60009765625</ele>
        <time>2021-06-26T23:26:51.000Z</time>
        <extensions>
          <ns3:TrackPointExtension>
            <ns3:atemp>30.0</ns3:atemp>
            <ns3:hr>88</ns3:hr>
          </ns3:TrackPointExtension>
        </extensions>
      </trkpt>
      <trkpt lat="36.8037256412208080291748046875" lon="-118.40080291964113712310791015625">
        <ele>3222.60009765625</ele>
        <time>2021-06-26T23:26:58.000Z</time>
        <extensions>
          <ns3:TrackPointExtension>
            <ns3:atemp>30.0</ns3:atemp>
            <ns3:hr>89</ns3:hr>
          </ns3:TrackPointExtension>
        </extensions>
      </trkpt>
      <trkpt lat="36.80372538976371288299560546875" lon="-118.400775678455829620361328125">
        <ele>3222.60009765625</ele>
        <time>2021-06-26T23:27:00.000Z</time>
        <extensions>
          <ns3:TrackPointExtension>
            <ns3:atemp>30.0</ns3:atemp>
            <ns3:hr>89</ns3:hr>
          </ns3:TrackPointExtension>
        </extensions>
      </trkpt>
      <trkpt lat="36.80371709167957305908203125" lon="-118.4007299132645130157470703125">
        <ele>3222</ele>
        <time>2021-06-26T23:27:04.000Z</time>
        <extensions>
          <ns3:TrackPointExtension>
            <ns3:atemp>29.0</ns3:atemp>
            <ns3:hr>91</ns3:hr>
          </ns3:TrackPointExtension>
        </extensions>
      </trkpt>
      <trkpt lat="36.80369689129292964935302734375" lon="-118.4006910212337970733642578125">
        <ele>3221.39990234375</ele>
        <time>2021-06-26T23:27:07.000Z</time>
        <extensions>
          <ns3:TrackPointExtension>
            <ns3:atemp>29.0</ns3:atemp>
            <ns3:hr>92</ns3:hr>
          </ns3:TrackPointExtension>
        </extensions>
      </trkpt>
      <trkpt lat="36.8036478571593761444091796875" lon="-118.4005981497466564178466796875">
        <ele>3221.39990234375</ele>
        <time>2021-06-26T23:27:15.000Z</time>
        <extensions>
          <ns3:TrackPointExtension>
            <ns3:atemp>29.0</ns3:atemp>
            <ns3:hr>95</ns3:hr>
          </ns3:TrackPointExtension>
        </extensions>
      </trkpt>
      <trkpt lat="36.803633607923984527587890625" lon="-118.40056411921977996826171875">
        <ele>3221.60009765625</ele>
        <time>2021-06-26T23:27:18.000Z</time>
        <extensions>
          <ns3:TrackPointExtension>
            <ns3:atemp>29.0</ns3:atemp>
            <ns3:hr>94</ns3:hr>
          </ns3:TrackPointExtension>
        </extensions>
      </trkpt>
      <trkpt lat="36.80362078361213207244873046875" lon="-118.4005446732044219970703125">
        <ele>3221.60009765625</ele>
        <time>2021-06-26T23:27:20.000Z</time>
        <extensions>
          <ns3:TrackPointExtension>
            <ns3:atemp>29.0</ns3:atemp>
            <ns3:hr>97</ns3:hr>
          </ns3:TrackPointExtension>
        </extensions>
      </trkpt>
      <trkpt lat="36.80358231067657470703125" lon="-118.4004865027964115142822265625">
        <ele>3221</ele>
        <time>2021-06-26T23:27:26.000Z</time>
        <extensions>
          <ns3:TrackPointExtension>
            <ns3:atemp>29.0</ns3:atemp>
            <ns3:hr>100</ns3:hr>
          </ns3:TrackPointExtension>
        </extensions>
      </trkpt>
      <trkpt lat="36.80357736535370349884033203125" lon="-118.400475941598415374755859375">
        <ele>3220.800048828125</ele>
        <time>2021-06-26T23:27:27.000Z</time>
        <extensions>
          <ns3:TrackPointExtension>
            <ns3:atemp>29.0</ns3:atemp>
            <ns3:hr>97</ns3:hr>
          </ns3:TrackPointExtension>
        </extensions>
      </trkpt>
      <trkpt lat="36.8035221286118030548095703125" lon="-118.40034292079508304595947265625">
        <ele>3220.60009765625</ele>
        <time>2021-06-26T23:27:38.000Z</time>
        <extensions>
          <ns3:TrackPointExtension>
            <ns3:atemp>29.0</ns3:atemp>
            <ns3:hr>97</ns3:hr>
          </ns3:TrackPointExtension>
        </extensions>
      </trkpt>
      <trkpt lat="36.80348013527691364288330078125" lon="-118.40023697353899478912353515625">
        <ele>3220.800048828125</ele>
        <time>2021-06-26T23:27:46.000Z</time>
        <extensions>
          <ns3:TrackPointExtension>
            <ns3:atemp>29.0</ns3:atemp>
            <ns3:hr>94</ns3:hr>
          </ns3:TrackPointExtension>
        </extensions>
      </trkpt>
      <trkpt lat="36.803471334278583526611328125" lon="-118.40019322000443935394287109375">
        <ele>3220.60009765625</ele>
        <time>2021-06-26T23:27:49.000Z</time>
        <extensions>
          <ns3:TrackPointExtension>
            <ns3:atemp>29.0</ns3:atemp>
            <ns3:hr>97</ns3:hr>
          </ns3:TrackPointExtension>
        </extensions>
      </trkpt>
      <trkpt lat="36.8034738488495349884033203125" lon="-118.4000721015036106109619140625">
        <ele>3221.39990234375</ele>
        <time>2021-06-26T23:27:58.000Z</time>
        <extensions>
          <ns3:TrackPointExtension>
            <ns3:atemp>29.0</ns3:atemp>
            <ns3:hr>100</ns3:hr>
          </ns3:TrackPointExtension>
        </extensions>
      </trkpt>
      <trkpt lat="36.803476698696613311767578125" lon="-118.40004670433700084686279296875">
        <ele>3221.60009765625</ele>
        <time>2021-06-26T23:28:00.000Z</time>
        <extensions>
          <ns3:TrackPointExtension>
            <ns3:atemp>29.0</ns3:atemp>
            <ns3:hr>101</ns3:hr>
          </ns3:TrackPointExtension>
        </extensions>
      </trkpt>
      <trkpt lat="36.80348801426589488983154296875" lon="-118.39997730217874050140380859375">
        <ele>3221.60009765625</ele>
        <time>2021-06-26T23:28:05.000Z</time>
        <extensions>
          <ns3:TrackPointExtension>
            <ns3:atemp>29.0</ns3:atemp>
            <ns3:hr>101</ns3:hr>
          </ns3:TrackPointExtension>
        </extensions>
      </trkpt>
      <trkpt lat="36.80348013527691364288330078125" lon="-118.39995467104017734527587890625">
        <ele>3221.800048828125</ele>
        <time>2021-06-26T23:28:07.000Z</time>
        <extensions>
          <ns3:TrackPointExtension>
            <ns3:atemp>29.0</ns3:atemp>
            <ns3:hr>101</ns3:hr>
          </ns3:TrackPointExtension>
        </extensions>
      </trkpt>
      <trkpt lat="36.80347326211631298065185546875" lon="-118.3999446965754032135009765625">
        <ele>3221.800048828125</ele>
        <time>2021-06-26T23:28:08.000Z</time>
        <extensions>
          <ns3:TrackPointExtension>
            <ns3:atemp>29.0</ns3:atemp>
            <ns3:hr>103</ns3:hr>
          </ns3:TrackPointExtension>
        </extensions>
      </trkpt>
      <trkpt lat="36.80344618856906890869140625" lon="-118.39990924112498760223388671875">
        <ele>3221.800048828125</ele>
        <time>2021-06-26T23:28:12.000Z</time>
        <extensions>
          <ns3:TrackPointExtension>
            <ns3:atemp>29.0</ns3:atemp>
            <ns3:hr>106</ns3:hr>
          </ns3:TrackPointExtension>
        </extensions>
      </trkpt>
      <trkpt lat="36.803429760038852691650390625" lon="-118.3998913876712322235107421875">
        <ele>3221.800048828125</ele>
        <time>2021-06-26T23:28:14.000Z</time>
        <extensions>
          <ns3:TrackPointExtension>
            <ns3:atemp>29.0</ns3:atemp>
            <ns3:hr>102</ns3:hr>
          </ns3:TrackPointExtension>
        </extensions>
      </trkpt>
      <trkpt lat="36.80340486578643321990966796875" lon="-118.39985844679176807403564453125">
        <ele>3221.60009765625</ele>
        <time>2021-06-26T23:28:17.000Z</time>
        <extensions>
          <ns3:TrackPointExtension>
            <ns3:atemp>29.0</ns3:atemp>
            <ns3:hr>103</ns3:hr>
          </ns3:TrackPointExtension>
        </extensions>
      </trkpt>
      <trkpt lat="36.80335608310997486114501953125" lon="-118.399800024926662445068359375">
        <ele>3222</ele>
        <time>2021-06-26T23:28:23.000Z</time>
        <extensions>
          <ns3:TrackPointExtension>
            <ns3:atemp>29.0</ns3:atemp>
            <ns3:hr>100</ns3:hr>
          </ns3:TrackPointExtension>
        </extensions>
      </trkpt>
      <trkpt lat="36.80332842282950878143310546875" lon="-118.399755097925662994384765625">
        <ele>3222</ele>
        <time>2021-06-26T23:28:27.000Z</time>
        <extensions>
          <ns3:TrackPointExtension>
            <ns3:atemp>29.0</ns3:atemp>
            <ns3:hr>98</ns3:hr>
          </ns3:TrackPointExtension>
        </extensions>
      </trkpt>
      <trkpt lat="36.80330947972834110260009765625" lon="-118.39972190558910369873046875">
        <ele>3221.39990234375</ele>
        <time>2021-06-26T23:28:30.000Z</time>
        <extensions>
          <ns3:TrackPointExtension>
            <ns3:atemp>29.0</ns3:atemp>
            <ns3:hr>95</ns3:hr>
          </ns3:TrackPointExtension>
        </extensions>
      </trkpt>
      <trkpt lat="36.803262792527675628662109375" lon="-118.399650156497955322265625">
        <ele>3221</ele>
        <time>2021-06-26T23:28:37.000Z</time>
        <extensions>
          <ns3:TrackPointExtension>
            <ns3:atemp>29.0</ns3:atemp>
            <ns3:hr>91</ns3:hr>
          </ns3:TrackPointExtension>
        </extensions>
      </trkpt>
      <trkpt lat="36.80323965847492218017578125" lon="-118.3996191434562206268310546875">
        <ele>3221</ele>
        <time>2021-06-26T23:28:40.000Z</time>
        <extensions>
          <ns3:TrackPointExtension>
            <ns3:atemp>29.0</ns3:atemp>
            <ns3:hr>94</ns3:hr>
          </ns3:TrackPointExtension>
        </extensions>
      </trkpt>
      <trkpt lat="36.80322096683084964752197265625" lon="-118.39957329444587230682373046875">
        <ele>3221.39990234375</ele>
        <time>2021-06-26T23:28:44.000Z</time>
        <extensions>
          <ns3:TrackPointExtension>
            <ns3:atemp>29.0</ns3:atemp>
            <ns3:hr>91</ns3:hr>
          </ns3:TrackPointExtension>
        </extensions>
      </trkpt>
      <trkpt lat="36.803215183317661285400390625" lon="-118.39955887757241725921630859375">
        <ele>3221.39990234375</ele>
        <time>2021-06-26T23:28:45.000Z</time>
        <extensions>
          <ns3:TrackPointExtension>
            <ns3:atemp>29.0</ns3:atemp>
            <ns3:hr>92</ns3:hr>
          </ns3:TrackPointExtension>
        </extensions>
      </trkpt>
      <trkpt lat="36.80321476422250270843505859375" lon="-118.39950372464954853057861328125">
        <ele>3221.39990234375</ele>
        <time>2021-06-26T23:28:49.000Z</time>
        <extensions>
          <ns3:TrackPointExtension>
            <ns3:atemp>29.0</ns3:atemp>
            <ns3:hr>89</ns3:hr>
          </ns3:TrackPointExtension>
        </extensions>
      </trkpt>
      <trkpt lat="36.80321526713669300079345703125" lon="-118.3994612284004688262939453125">
        <ele>3221.60009765625</ele>
        <time>2021-06-26T23:28:52.000Z</time>
        <extensions>
          <ns3:TrackPointExtension>
            <ns3:atemp>29.0</ns3:atemp>
            <ns3:hr>89</ns3:hr>
          </ns3:TrackPointExtension>
        </extensions>
      </trkpt>
      <trkpt lat="36.80317989550530910491943359375" lon="-118.39932384900748729705810546875">
        <ele>3222</ele>
        <time>2021-06-26T23:29:03.000Z</time>
        <extensions>
          <ns3:TrackPointExtension>
            <ns3:atemp>29.0</ns3:atemp>
            <ns3:hr>91</ns3:hr>
          </ns3:TrackPointExtension>
        </extensions>
      </trkpt>
      <trkpt lat="36.80316648446023464202880859375" lon="-118.39930306188762187957763671875">
        <ele>3221.800048828125</ele>
        <time>2021-06-26T23:29:05.000Z</time>
        <extensions>
          <ns3:TrackPointExtension>
            <ns3:atemp>29.0</ns3:atemp>
            <ns3:hr>93</ns3:hr>
          </ns3:TrackPointExtension>
        </extensions>
      </trkpt>
      <trkpt lat="36.803150475025177001953125" lon="-118.3992878906428813934326171875">
        <ele>3221.39990234375</ele>
        <time>2021-06-26T23:29:08.000Z</time>
        <extensions>
          <ns3:TrackPointExtension>
            <ns3:atemp>29.0</ns3:atemp>
            <ns3:hr>97</ns3:hr>
          </ns3:TrackPointExtension>
        </extensions>
      </trkpt>
      <trkpt lat="36.803144104778766632080078125" lon="-118.3992798440158367156982421875">
        <ele>3221.39990234375</ele>
        <time>2021-06-26T23:29:09.000Z</time>
        <extensions>
          <ns3:TrackPointExtension>
            <ns3:atemp>29.0</ns3:atemp>
            <ns3:hr>93</ns3:hr>
          </ns3:TrackPointExtension>
        </extensions>
      </trkpt>
      <trkpt lat="36.8031291849911212921142578125" lon="-118.399255536496639251708984375">
        <ele>3221.60009765625</ele>
        <time>2021-06-26T23:29:11.000Z</time>
        <extensions>
          <ns3:TrackPointExtension>
            <ns3:atemp>29.0</ns3:atemp>
            <ns3:hr>93</ns3:hr>
          </ns3:TrackPointExtension>
        </extensions>
      </trkpt>
      <trkpt lat="36.80310420691967010498046875" lon="-118.399198539555072784423828125">
        <ele>3221.60009765625</ele>
        <time>2021-06-26T23:29:16.000Z</time>
        <extensions>
          <ns3:TrackPointExtension>
            <ns3:atemp>29.0</ns3:atemp>
            <ns3:hr>92</ns3:hr>
          </ns3:TrackPointExtension>
        </extensions>
      </trkpt>
      <trkpt lat="36.80305751971900463104248046875" lon="-118.3990937657654285430908203125">
        <ele>3221.39990234375</ele>
        <time>2021-06-26T23:29:26.000Z</time>
        <extensions>
          <ns3:TrackPointExtension>
            <ns3:atemp>29.0</ns3:atemp>
            <ns3:hr>94</ns3:hr>
          </ns3:TrackPointExtension>
        </extensions>
      </trkpt>
      <trkpt lat="36.8030567653477191925048828125" lon="-118.39909150265157222747802734375">
        <ele>3221.39990234375</ele>
        <time>2021-06-26T23:29:27.000Z</time>
        <extensions>
          <ns3:TrackPointExtension>
            <ns3:atemp>29.0</ns3:atemp>
            <ns3:hr>95</ns3:hr>
          </ns3:TrackPointExtension>
        </extensions>
      </trkpt>
      <trkpt lat="36.80304779671132564544677734375" lon="-118.39910809881985187530517578125">
        <ele>3220.800048828125</ele>
        <time>2021-06-26T23:29:39.000Z</time>
        <extensions>
          <ns3:TrackPointExtension>
            <ns3:atemp>29.0</ns3:atemp>
            <ns3:hr>95</ns3:hr>
          </ns3:TrackPointExtension>
        </extensions>
      </trkpt>
      <trkpt lat="36.8030480481684207916259765625" lon="-118.39910843409597873687744140625">
        <ele>3220.800048828125</ele>
        <time>2021-06-26T23:29:40.000Z</time>
        <extensions>
          <ns3:TrackPointExtension>
            <ns3:atemp>29.0</ns3:atemp>
            <ns3:hr>95</ns3:hr>
          </ns3:TrackPointExtension>
        </extensions>
      </trkpt>
      <trkpt lat="36.8030306138098239898681640625" lon="-118.39911438524723052978515625">
        <ele>3220.60009765625</ele>
        <time>2021-06-26T23:29:48.000Z</time>
        <extensions>
          <ns3:TrackPointExtension>
            <ns3:atemp>29.0</ns3:atemp>
            <ns3:hr>96</ns3:hr>
          </ns3:TrackPointExtension>
        </extensions>
      </trkpt>
      <trkpt lat="36.803031452000141143798828125" lon="-118.39911849237978458404541015625">
        <ele>3220.199951171875</ele>
        <time>2021-06-26T23:29:57.000Z</time>
        <extensions>
          <ns3:TrackPointExtension>
            <ns3:atemp>29.0</ns3:atemp>
            <ns3:hr>99</ns3:hr>
          </ns3:TrackPointExtension>
        </extensions>
      </trkpt>
      <trkpt lat="36.803031452000141143798828125" lon="-118.39911698363721370697021484375">
        <ele>3220</ele>
        <time>2021-06-26T23:30:07.000Z</time>
        <extensions>
          <ns3:TrackPointExtension>
            <ns3:atemp>29.0</ns3:atemp>
            <ns3:hr>96</ns3:hr>
          </ns3:TrackPointExtension>
        </extensions>
      </trkpt>
      <trkpt lat="36.803031452000141143798828125" lon="-118.39911681599915027618408203125">
        <ele>3219.800048828125</ele>
        <time>2021-06-26T23:30:08.000Z</time>
        <extensions>
          <ns3:TrackPointExtension>
            <ns3:atemp>29.0</ns3:atemp>
            <ns3:hr>94</ns3:hr>
          </ns3:TrackPointExtension>
        </extensions>
      </trkpt>
      <trkpt lat="36.803031452000141143798828125" lon="-118.399115391075611114501953125">
        <ele>3219.60009765625</ele>
        <time>2021-06-26T23:30:11.000Z</time>
        <extensions>
          <ns3:TrackPointExtension>
            <ns3:atemp>29.0</ns3:atemp>
            <ns3:hr>90</ns3:hr>
          </ns3:TrackPointExtension>
        </extensions>
      </trkpt>
      <trkpt lat="36.803032457828521728515625" lon="-118.39911212213337421417236328125">
        <ele>3219.60009765625</ele>
        <time>2021-06-26T23:30:15.000Z</time>
        <extensions>
          <ns3:TrackPointExtension>
            <ns3:atemp>29.0</ns3:atemp>
            <ns3:hr>87</ns3:hr>
          </ns3:TrackPointExtension>
        </extensions>
      </trkpt>
      <trkpt lat="36.8030332960188388824462890625" lon="-118.39910809881985187530517578125">
        <ele>3220</ele>
        <time>2021-06-26T23:30:18.000Z</time>
        <extensions>
          <ns3:TrackPointExtension>
            <ns3:atemp>29.0</ns3:atemp>
            <ns3:hr>84</ns3:hr>
          </ns3:TrackPointExtension>
        </extensions>
      </trkpt>
      <trkpt lat="36.8030369840562343597412109375" lon="-118.39910767972469329833984375">
        <ele>3220.199951171875</ele>
        <time>2021-06-26T23:30:26.000Z</time>
        <extensions>
          <ns3:TrackPointExtension>
            <ns3:atemp>29.0</ns3:atemp>
            <ns3:hr>81</ns3:hr>
          </ns3:TrackPointExtension>
        </extensions>
      </trkpt>
      <trkpt lat="36.803039498627185821533203125" lon="-118.39910767972469329833984375">
        <ele>3220.39990234375</ele>
        <time>2021-06-26T23:30:32.000Z</time>
        <extensions>
          <ns3:TrackPointExtension>
            <ns3:atemp>29.0</ns3:atemp>
            <ns3:hr>84</ns3:hr>
          </ns3:TrackPointExtension>
        </extensions>
      </trkpt>
      <trkpt lat="36.803040169179439544677734375" lon="-118.3991078473627567291259765625">
        <ele>3221.199951171875</ele>
        <time>2021-06-26T23:30:35.000Z</time>
        <extensions>
          <ns3:TrackPointExtension>
            <ns3:atemp>29.0</ns3:atemp>
            <ns3:hr>87</ns3:hr>
          </ns3:TrackPointExtension>
        </extensions>
      </trkpt>
      <trkpt lat="36.8030446954071521759033203125" lon="-118.39910793118178844451904296875">
        <ele>3221.199951171875</ele>
        <time>2021-06-26T23:30:40.000Z</time>
        <extensions>
          <ns3:TrackPointExtension>
            <ns3:atemp>29.0</ns3:atemp>
            <ns3:hr>90</ns3:hr>
          </ns3:TrackPointExtension>
        </extensions>
      </trkpt>
      <trkpt lat="36.8030503951013088226318359375" lon="-118.3991043269634246826171875">
        <ele>3221.199951171875</ele>
        <time>2021-06-26T23:30:56.000Z</time>
        <extensions>
          <ns3:TrackPointExtension>
            <ns3:atemp>29.0</ns3:atemp>
            <ns3:hr>89</ns3:hr>
          </ns3:TrackPointExtension>
        </extensions>
      </trkpt>
      <trkpt lat="36.8030443601310253143310546875" lon="-118.399099297821521759033203125">
        <ele>3221.199951171875</ele>
        <time>2021-06-26T23:31:16.000Z</time>
        <extensions>
          <ns3:TrackPointExtension>
            <ns3:atemp>29.0</ns3:atemp>
            <ns3:hr>86</ns3:hr>
          </ns3:TrackPointExtension>
        </extensions>
      </trkpt>
      <trkpt lat="36.803043521940708160400390625" lon="-118.3990937657654285430908203125">
        <ele>3221.199951171875</ele>
        <time>2021-06-26T23:31:24.000Z</time>
        <extensions>
          <ns3:TrackPointExtension>
            <ns3:atemp>28.0</ns3:atemp>
            <ns3:hr>89</ns3:hr>
          </ns3:TrackPointExtension>
        </extensions>
      </trkpt>
      <trkpt lat="36.80304276756942272186279296875" lon="-118.39908613823354244232177734375">
        <ele>3221.199951171875</ele>
        <time>2021-06-26T23:31:32.000Z</time>
        <extensions>
          <ns3:TrackPointExtension>
            <ns3:atemp>28.0</ns3:atemp>
            <ns3:hr>85</ns3:hr>
          </ns3:TrackPointExtension>
        </extensions>
      </trkpt>
      <trkpt lat="36.803043521940708160400390625" lon="-118.39905864559113979339599609375">
        <ele>3221.199951171875</ele>
        <time>2021-06-26T23:31:44.000Z</time>
        <extensions>
          <ns3:TrackPointExtension>
            <ns3:atemp>28.0</ns3:atemp>
            <ns3:hr>88</ns3:hr>
          </ns3:TrackPointExtension>
        </extensions>
      </trkpt>
      <trkpt lat="36.8030426837503910064697265625" lon="-118.399048335850238800048828125">
        <ele>3221.199951171875</ele>
        <time>2021-06-26T23:31:55.000Z</time>
        <extensions>
          <ns3:TrackPointExtension>
            <ns3:atemp>28.0</ns3:atemp>
            <ns3:hr>85</ns3:hr>
          </ns3:TrackPointExtension>
        </extensions>
      </trkpt>
      <trkpt lat="36.8030423484742641448974609375" lon="-118.39904741384088993072509765625">
        <ele>3221.199951171875</ele>
        <time>2021-06-26T23:31:59.000Z</time>
        <extensions>
          <ns3:TrackPointExtension>
            <ns3:atemp>28.0</ns3:atemp>
            <ns3:hr>83</ns3:hr>
          </ns3:TrackPointExtension>
        </extensions>
      </trkpt>
      <trkpt lat="36.80304025299847126007080078125" lon="-118.3990485034883022308349609375">
        <ele>3221.199951171875</ele>
        <time>2021-06-26T23:32:11.000Z</time>
        <extensions>
          <ns3:TrackPointExtension>
            <ns3:atemp>28.0</ns3:atemp>
            <ns3:hr>87</ns3:hr>
          </ns3:TrackPointExtension>
        </extensions>
      </trkpt>
      <trkpt lat="36.8030497245490550994873046875" lon="-118.39898387901484966278076171875">
        <ele>3221.199951171875</ele>
        <time>2021-06-26T23:32:23.000Z</time>
        <extensions>
          <ns3:TrackPointExtension>
            <ns3:atemp>28.0</ns3:atemp>
            <ns3:hr>86</ns3:hr>
          </ns3:TrackPointExtension>
        </extensions>
      </trkpt>
      <trkpt lat="36.80304980836808681488037109375" lon="-118.3989529497921466827392578125">
        <ele>3221.199951171875</ele>
        <time>2021-06-26T23:32:25.000Z</time>
        <extensions>
          <ns3:TrackPointExtension>
            <ns3:atemp>28.0</ns3:atemp>
            <ns3:hr>85</ns3:hr>
          </ns3:TrackPointExtension>
        </extensions>
      </trkpt>
      <trkpt lat="36.80305165238678455352783203125" lon="-118.39891053736209869384765625">
        <ele>3221.199951171875</ele>
        <time>2021-06-26T23:32:28.000Z</time>
        <extensions>
          <ns3:TrackPointExtension>
            <ns3:atemp>28.0</ns3:atemp>
            <ns3:hr>81</ns3:hr>
          </ns3:TrackPointExtension>
        </extensions>
      </trkpt>
      <trkpt lat="36.80304880253970623016357421875" lon="-118.39888229034841060638427734375">
        <ele>3221</ele>
        <time>2021-06-26T23:32:30.000Z</time>
        <extensions>
          <ns3:TrackPointExtension>
            <ns3:atemp>28.0</ns3:atemp>
            <ns3:hr>81</ns3:hr>
          </ns3:TrackPointExtension>
        </extensions>
      </trkpt>
      <trkpt lat="36.80307361297309398651123046875" lon="-118.3987735770642757415771484375">
        <ele>3221</ele>
        <time>2021-06-26T23:32:39.000Z</time>
        <extensions>
          <ns3:TrackPointExtension>
            <ns3:atemp>28.0</ns3:atemp>
            <ns3:hr>81</ns3:hr>
          </ns3:TrackPointExtension>
        </extensions>
      </trkpt>
      <trkpt lat="36.803072355687618255615234375" lon="-118.39875857345759868621826171875">
        <ele>3221</ele>
        <time>2021-06-26T23:32:40.000Z</time>
        <extensions>
          <ns3:TrackPointExtension>
            <ns3:atemp>28.0</ns3:atemp>
            <ns3:hr>81</ns3:hr>
          </ns3:TrackPointExtension>
        </extensions>
      </trkpt>
      <trkpt lat="36.80311300791800022125244140625" lon="-118.39872571639716625213623046875">
        <ele>3221</ele>
        <time>2021-06-26T23:32:44.000Z</time>
        <extensions>
          <ns3:TrackPointExtension>
            <ns3:atemp>28.0</ns3:atemp>
            <ns3:hr>84</ns3:hr>
          </ns3:TrackPointExtension>
        </extensions>
      </trkpt>
      <trkpt lat="36.80313580669462680816650390625" lon="-118.3987001515924930572509765625">
        <ele>3220.60009765625</ele>
        <time>2021-06-26T23:32:47.000Z</time>
        <extensions>
          <ns3:TrackPointExtension>
            <ns3:atemp>28.0</ns3:atemp>
            <ns3:hr>84</ns3:hr>
          </ns3:TrackPointExtension>
        </extensions>
      </trkpt>
      <trkpt lat="36.803153492510318756103515625" lon="-118.3986823819577693939208984375">
        <ele>3220.800048828125</ele>
        <time>2021-06-26T23:32:49.000Z</time>
        <extensions>
          <ns3:TrackPointExtension>
            <ns3:atemp>28.0</ns3:atemp>
            <ns3:hr>81</ns3:hr>
          </ns3:TrackPointExtension>
        </extensions>
      </trkpt>
      <trkpt lat="36.80319649167358875274658203125" lon="-118.39862412773072719573974609375">
        <ele>3220.39990234375</ele>
        <time>2021-06-26T23:32:55.000Z</time>
        <extensions>
          <ns3:TrackPointExtension>
            <ns3:atemp>28.0</ns3:atemp>
            <ns3:hr>82</ns3:hr>
          </ns3:TrackPointExtension>
        </extensions>
      </trkpt>
      <trkpt lat="36.80325306951999664306640625" lon="-118.39854533784091472625732421875">
        <ele>3220</ele>
        <time>2021-06-26T23:33:03.000Z</time>
        <extensions>
          <ns3:TrackPointExtension>
            <ns3:atemp>28.0</ns3:atemp>
            <ns3:hr>80</ns3:hr>
          </ns3:TrackPointExtension>
        </extensions>
      </trkpt>
      <trkpt lat="36.80325784720480442047119140625" lon="-118.39853611774742603302001953125">
        <ele>3220</ele>
        <time>2021-06-26T23:33:04.000Z</time>
        <extensions>
          <ns3:TrackPointExtension>
            <ns3:atemp>28.0</ns3:atemp>
            <ns3:hr>80</ns3:hr>
          </ns3:TrackPointExtension>
        </extensions>
      </trkpt>
      <trkpt lat="36.80329791270196437835693359375" lon="-118.39851583354175090789794921875">
        <ele>3220</ele>
        <time>2021-06-26T23:33:08.000Z</time>
        <extensions>
          <ns3:TrackPointExtension>
            <ns3:atemp>28.0</ns3:atemp>
            <ns3:hr>82</ns3:hr>
          </ns3:TrackPointExtension>
        </extensions>
      </trkpt>
      <trkpt lat="36.80333462543785572052001953125" lon="-118.39850820600986480712890625">
        <ele>3220</ele>
        <time>2021-06-26T23:33:11.000Z</time>
        <extensions>
          <ns3:TrackPointExtension>
            <ns3:atemp>28.0</ns3:atemp>
            <ns3:hr>84</ns3:hr>
          </ns3:TrackPointExtension>
        </extensions>
      </trkpt>
      <trkpt lat="36.8033663928508758544921875" lon="-118.3984530530869960784912109375">
        <ele>3220.199951171875</ele>
        <time>2021-06-26T23:33:17.000Z</time>
        <extensions>
          <ns3:TrackPointExtension>
            <ns3:atemp>28.0</ns3:atemp>
            <ns3:hr>88</ns3:hr>
          </ns3:TrackPointExtension>
        </extensions>
      </trkpt>
      <trkpt lat="36.80336781777441501617431640625" lon="-118.39843821711838245391845703125">
        <ele>3220.199951171875</ele>
        <time>2021-06-26T23:33:18.000Z</time>
        <extensions>
          <ns3:TrackPointExtension>
            <ns3:atemp>28.0</ns3:atemp>
            <ns3:hr>88</ns3:hr>
          </ns3:TrackPointExtension>
        </extensions>
      </trkpt>
      <trkpt lat="36.8033930473029613494873046875" lon="-118.39835255406796932220458984375">
        <ele>3220.800048828125</ele>
        <time>2021-06-26T23:33:25.000Z</time>
        <extensions>
          <ns3:TrackPointExtension>
            <ns3:atemp>28.0</ns3:atemp>
            <ns3:hr>88</ns3:hr>
          </ns3:TrackPointExtension>
        </extensions>
      </trkpt>
      <trkpt lat="36.80339790880680084228515625" lon="-118.39834199286997318267822265625">
        <ele>3221</ele>
        <time>2021-06-26T23:33:26.000Z</time>
        <extensions>
          <ns3:TrackPointExtension>
            <ns3:atemp>28.0</ns3:atemp>
            <ns3:hr>88</ns3:hr>
          </ns3:TrackPointExtension>
        </extensions>
      </trkpt>
      <trkpt lat="36.80340218357741832733154296875" lon="-118.398330509662628173828125">
        <ele>3221.60009765625</ele>
        <time>2021-06-26T23:33:27.000Z</time>
        <extensions>
          <ns3:TrackPointExtension>
            <ns3:atemp>28.0</ns3:atemp>
            <ns3:hr>88</ns3:hr>
          </ns3:TrackPointExtension>
        </extensions>
      </trkpt>
      <trkpt lat="36.803408302366733551025390625" lon="-118.3983196131885051727294921875">
        <ele>3221.60009765625</ele>
        <time>2021-06-26T23:33:28.000Z</time>
        <extensions>
          <ns3:TrackPointExtension>
            <ns3:atemp>28.0</ns3:atemp>
            <ns3:hr>90</ns3:hr>
          </ns3:TrackPointExtension>
        </extensions>
      </trkpt>
      <trkpt lat="36.80341475643217563629150390625" lon="-118.39831114746630191802978515625">
        <ele>3221.800048828125</ele>
        <time>2021-06-26T23:33:29.000Z</time>
        <extensions>
          <ns3:TrackPointExtension>
            <ns3:atemp>28.0</ns3:atemp>
            <ns3:hr>97</ns3:hr>
          </ns3:TrackPointExtension>
        </extensions>
      </trkpt>
      <trkpt lat="36.803422383964061737060546875" lon="-118.3983035199344158172607421875">
        <ele>3221.800048828125</ele>
        <time>2021-06-26T23:33:30.000Z</time>
        <extensions>
          <ns3:TrackPointExtension>
            <ns3:atemp>28.0</ns3:atemp>
            <ns3:hr>96</ns3:hr>
          </ns3:TrackPointExtension>
        </extensions>
      </trkpt>
      <trkpt lat="36.80342984385788440704345703125" lon="-118.3982969820499420166015625">
        <ele>3222.199951171875</ele>
        <time>2021-06-26T23:33:31.000Z</time>
        <extensions>
          <ns3:TrackPointExtension>
            <ns3:atemp>28.0</ns3:atemp>
            <ns3:hr>96</ns3:hr>
          </ns3:TrackPointExtension>
        </extensions>
      </trkpt>
      <trkpt lat="36.8034453503787517547607421875" lon="-118.39828399010002613067626953125">
        <ele>3223</ele>
        <time>2021-06-26T23:33:33.000Z</time>
        <extensions>
          <ns3:TrackPointExtension>
            <ns3:atemp>28.0</ns3:atemp>
            <ns3:hr>98</ns3:hr>
          </ns3:TrackPointExtension>
        </extensions>
      </trkpt>
      <trkpt lat="36.803456582129001617431640625" lon="-118.3982696570456027984619140625">
        <ele>3223.39990234375</ele>
        <time>2021-06-26T23:33:35.000Z</time>
        <extensions>
          <ns3:TrackPointExtension>
            <ns3:atemp>28.0</ns3:atemp>
            <ns3:hr>99</ns3:hr>
          </ns3:TrackPointExtension>
        </extensions>
      </trkpt>
      <trkpt lat="36.8034708313643932342529296875" lon="-118.398240320384502410888671875">
        <ele>3223.39990234375</ele>
        <time>2021-06-26T23:33:39.000Z</time>
        <extensions>
          <ns3:TrackPointExtension>
            <ns3:atemp>28.0</ns3:atemp>
            <ns3:hr>100</ns3:hr>
          </ns3:TrackPointExtension>
        </extensions>
      </trkpt>
      <trkpt lat="36.8034939654171466827392578125" lon="-118.39821307919919490814208984375">
        <ele>3223.60009765625</ele>
        <time>2021-06-26T23:33:43.000Z</time>
        <extensions>
          <ns3:TrackPointExtension>
            <ns3:atemp>28.0</ns3:atemp>
            <ns3:hr>104</ns3:hr>
          </ns3:TrackPointExtension>
        </extensions>
      </trkpt>
      <trkpt lat="36.80352774448692798614501953125" lon="-118.3981985785067081451416015625">
        <ele>3223.800048828125</ele>
        <time>2021-06-26T23:33:46.000Z</time>
        <extensions>
          <ns3:TrackPointExtension>
            <ns3:atemp>28.0</ns3:atemp>
            <ns3:hr>102</ns3:hr>
          </ns3:TrackPointExtension>
        </extensions>
      </trkpt>
      <trkpt lat="36.80360418744385242462158203125" lon="-118.39816865511238574981689453125">
        <ele>3224</ele>
        <time>2021-06-26T23:33:53.000Z</time>
        <extensions>
          <ns3:TrackPointExtension>
            <ns3:atemp>28.0</ns3:atemp>
            <ns3:hr>105</ns3:hr>
          </ns3:TrackPointExtension>
        </extensions>
      </trkpt>
      <trkpt lat="36.80366235785186290740966796875" lon="-118.3981573395431041717529296875">
        <ele>3223.60009765625</ele>
        <time>2021-06-26T23:33:58.000Z</time>
        <extensions>
          <ns3:TrackPointExtension>
            <ns3:atemp>28.0</ns3:atemp>
            <ns3:hr>104</ns3:hr>
          </ns3:TrackPointExtension>
        </extensions>
      </trkpt>
      <trkpt lat="36.80373393930494785308837890625" lon="-118.3981305174529552459716796875">
        <ele>3223</ele>
        <time>2021-06-26T23:34:05.000Z</time>
        <extensions>
          <ns3:TrackPointExtension>
            <ns3:atemp>28.0</ns3:atemp>
            <ns3:hr>103</ns3:hr>
          </ns3:TrackPointExtension>
        </extensions>
      </trkpt>
      <trkpt lat="36.80378993041813373565673828125" lon="-118.3981268294155597686767578125">
        <ele>3222.60009765625</ele>
        <time>2021-06-26T23:34:10.000Z</time>
        <extensions>
          <ns3:TrackPointExtension>
            <ns3:atemp>28.0</ns3:atemp>
            <ns3:hr>100</ns3:hr>
          </ns3:TrackPointExtension>
        </extensions>
      </trkpt>
      <trkpt lat="36.8038315884768962860107421875" lon="-118.39812255464494228363037109375">
        <ele>3222.60009765625</ele>
        <time>2021-06-26T23:34:14.000Z</time>
        <extensions>
          <ns3:TrackPointExtension>
            <ns3:atemp>29.0</ns3:atemp>
            <ns3:hr>101</ns3:hr>
          </ns3:TrackPointExtension>
        </extensions>
      </trkpt>
      <trkpt lat="36.80390350520610809326171875" lon="-118.3981248177587985992431640625">
        <ele>3222.60009765625</ele>
        <time>2021-06-26T23:34:21.000Z</time>
        <extensions>
          <ns3:TrackPointExtension>
            <ns3:atemp>29.0</ns3:atemp>
            <ns3:hr>98</ns3:hr>
          </ns3:TrackPointExtension>
        </extensions>
      </trkpt>
      <trkpt lat="36.80393426679074764251708984375" lon="-118.39812221936881542205810546875">
        <ele>3222.39990234375</ele>
        <time>2021-06-26T23:34:25.000Z</time>
        <extensions>
          <ns3:TrackPointExtension>
            <ns3:atemp>29.0</ns3:atemp>
            <ns3:hr>98</ns3:hr>
          </ns3:TrackPointExtension>
        </extensions>
      </trkpt>
      <trkpt lat="36.80397131480276584625244140625" lon="-118.3981248177587985992431640625">
        <ele>3222.199951171875</ele>
        <time>2021-06-26T23:34:29.000Z</time>
        <extensions>
          <ns3:TrackPointExtension>
            <ns3:atemp>29.0</ns3:atemp>
            <ns3:hr>94</ns3:hr>
          </ns3:TrackPointExtension>
        </extensions>
      </trkpt>
      <trkpt lat="36.80399260483682155609130859375" lon="-118.39812557213008403778076171875">
        <ele>3222.199951171875</ele>
        <time>2021-06-26T23:34:31.000Z</time>
        <extensions>
          <ns3:TrackPointExtension>
            <ns3:atemp>29.0</ns3:atemp>
            <ns3:hr>97</ns3:hr>
          </ns3:TrackPointExtension>
        </extensions>
      </trkpt>
      <trkpt lat="36.80400199256837368011474609375" lon="-118.39812439866364002227783203125">
        <ele>3222</ele>
        <time>2021-06-26T23:34:32.000Z</time>
        <extensions>
          <ns3:TrackPointExtension>
            <ns3:atemp>29.0</ns3:atemp>
            <ns3:hr>96</ns3:hr>
          </ns3:TrackPointExtension>
        </extensions>
      </trkpt>
      <trkpt lat="36.8040770106017589569091796875" lon="-118.39813512749969959259033203125">
        <ele>3221.800048828125</ele>
        <time>2021-06-26T23:34:40.000Z</time>
        <extensions>
          <ns3:TrackPointExtension>
            <ns3:atemp>29.0</ns3:atemp>
            <ns3:hr>95</ns3:hr>
          </ns3:TrackPointExtension>
        </extensions>
      </trkpt>
      <trkpt lat="36.804093606770038604736328125" lon="-118.3981432579457759857177734375">
        <ele>3221.60009765625</ele>
        <time>2021-06-26T23:34:42.000Z</time>
        <extensions>
          <ns3:TrackPointExtension>
            <ns3:atemp>29.0</ns3:atemp>
            <ns3:hr>93</ns3:hr>
          </ns3:TrackPointExtension>
        </extensions>
      </trkpt>
      <trkpt lat="36.80412235669791698455810546875" lon="-118.3981492929160594940185546875">
        <ele>3220.800048828125</ele>
        <time>2021-06-26T23:34:45.000Z</time>
        <extensions>
          <ns3:TrackPointExtension>
            <ns3:atemp>29.0</ns3:atemp>
            <ns3:hr>91</ns3:hr>
          </ns3:TrackPointExtension>
        </extensions>
      </trkpt>
      <trkpt lat="36.80419720709323883056640625" lon="-118.39816563762724399566650390625">
        <ele>3220.199951171875</ele>
        <time>2021-06-26T23:34:53.000Z</time>
        <extensions>
          <ns3:TrackPointExtension>
            <ns3:atemp>29.0</ns3:atemp>
            <ns3:hr>93</ns3:hr>
          </ns3:TrackPointExtension>
        </extensions>
      </trkpt>
      <trkpt lat="36.8042215146124362945556640625" lon="-118.39817116968333721160888671875">
        <ele>3220</ele>
        <time>2021-06-26T23:34:55.000Z</time>
        <extensions>
          <ns3:TrackPointExtension>
            <ns3:atemp>29.0</ns3:atemp>
            <ns3:hr>91</ns3:hr>
          </ns3:TrackPointExtension>
        </extensions>
      </trkpt>
      <trkpt lat="36.80425210855901241302490234375" lon="-118.3981751091778278350830078125">
        <ele>3219.60009765625</ele>
        <time>2021-06-26T23:34:57.000Z</time>
        <extensions>
          <ns3:TrackPointExtension>
            <ns3:atemp>29.0</ns3:atemp>
            <ns3:hr>91</ns3:hr>
          </ns3:TrackPointExtension>
        </extensions>
      </trkpt>
      <trkpt lat="36.8042942695319652557373046875" lon="-118.3981687389314174652099609375">
        <ele>3219.199951171875</ele>
        <time>2021-06-26T23:35:00.000Z</time>
        <extensions>
          <ns3:TrackPointExtension>
            <ns3:atemp>29.0</ns3:atemp>
            <ns3:hr>90</ns3:hr>
          </ns3:TrackPointExtension>
        </extensions>
      </trkpt>
      <trkpt lat="36.8044035695493221282958984375" lon="-118.398110903799533843994140625">
        <ele>3219.39990234375</ele>
        <time>2021-06-26T23:35:10.000Z</time>
        <extensions>
          <ns3:TrackPointExtension>
            <ns3:atemp>29.0</ns3:atemp>
            <ns3:hr>92</ns3:hr>
          </ns3:TrackPointExtension>
        </extensions>
      </trkpt>
      <trkpt lat="36.80443684570491313934326171875" lon="-118.39807997457683086395263671875">
        <ele>3219.800048828125</ele>
        <time>2021-06-26T23:35:14.000Z</time>
        <extensions>
          <ns3:TrackPointExtension>
            <ns3:atemp>29.0</ns3:atemp>
            <ns3:hr>89</ns3:hr>
          </ns3:TrackPointExtension>
        </extensions>
      </trkpt>
      <trkpt lat="36.8044689483940601348876953125" lon="-118.39805633760988712310791015625">
        <ele>3220</ele>
        <time>2021-06-26T23:35:18.000Z</time>
        <extensions>
          <ns3:TrackPointExtension>
            <ns3:atemp>29.0</ns3:atemp>
            <ns3:hr>89</ns3:hr>
          </ns3:TrackPointExtension>
        </extensions>
      </trkpt>
      <trkpt lat="36.804487220942974090576171875" lon="-118.3980503864586353302001953125">
        <ele>3220.199951171875</ele>
        <time>2021-06-26T23:35:20.000Z</time>
        <extensions>
          <ns3:TrackPointExtension>
            <ns3:atemp>29.0</ns3:atemp>
            <ns3:hr>90</ns3:hr>
          </ns3:TrackPointExtension>
        </extensions>
      </trkpt>
      <trkpt lat="36.80450725369155406951904296875" lon="-118.39803722687065601348876953125">
        <ele>3220.60009765625</ele>
        <time>2021-06-26T23:35:22.000Z</time>
        <extensions>
          <ns3:TrackPointExtension>
            <ns3:atemp>29.0</ns3:atemp>
            <ns3:hr>90</ns3:hr>
          </ns3:TrackPointExtension>
        </extensions>
      </trkpt>
      <trkpt lat="36.8045303039252758026123046875" lon="-118.39802716858685016632080078125">
        <ele>3221</ele>
        <time>2021-06-26T23:35:25.000Z</time>
        <extensions>
          <ns3:TrackPointExtension>
            <ns3:atemp>29.0</ns3:atemp>
            <ns3:hr>89</ns3:hr>
          </ns3:TrackPointExtension>
        </extensions>
      </trkpt>
      <trkpt lat="36.804564334452152252197265625" lon="-118.39801602065563201904296875">
        <ele>3221.39990234375</ele>
        <time>2021-06-26T23:35:29.000Z</time>
        <extensions>
          <ns3:TrackPointExtension>
            <ns3:atemp>29.0</ns3:atemp>
            <ns3:hr>91</ns3:hr>
          </ns3:TrackPointExtension>
        </extensions>
      </trkpt>
      <trkpt lat="36.8045819364488124847412109375" lon="-118.39800587855279445648193359375">
        <ele>3221.60009765625</ele>
        <time>2021-06-26T23:35:31.000Z</time>
        <extensions>
          <ns3:TrackPointExtension>
            <ns3:atemp>29.0</ns3:atemp>
            <ns3:hr>93</ns3:hr>
          </ns3:TrackPointExtension>
        </extensions>
      </trkpt>
      <trkpt lat="36.80459056980907917022705078125" lon="-118.39800017885863780975341796875">
        <ele>3221.800048828125</ele>
        <time>2021-06-26T23:35:32.000Z</time>
        <extensions>
          <ns3:TrackPointExtension>
            <ns3:atemp>29.0</ns3:atemp>
            <ns3:hr>97</ns3:hr>
          </ns3:TrackPointExtension>
        </extensions>
      </trkpt>
      <trkpt lat="36.8046144582331180572509765625" lon="-118.3979756198823451995849609375">
        <ele>3222.60009765625</ele>
        <time>2021-06-26T23:35:35.000Z</time>
        <extensions>
          <ns3:TrackPointExtension>
            <ns3:atemp>29.0</ns3:atemp>
            <ns3:hr>96</ns3:hr>
          </ns3:TrackPointExtension>
        </extensions>
      </trkpt>
      <trkpt lat="36.8046238459646701812744140625" lon="-118.39797067455947399139404296875">
        <ele>3222.800048828125</ele>
        <time>2021-06-26T23:35:36.000Z</time>
        <extensions>
          <ns3:TrackPointExtension>
            <ns3:atemp>29.0</ns3:atemp>
            <ns3:hr>96</ns3:hr>
          </ns3:TrackPointExtension>
        </extensions>
      </trkpt>
      <trkpt lat="36.8046328984200954437255859375" lon="-118.39796380139887332916259765625">
        <ele>3222.800048828125</ele>
        <time>2021-06-26T23:35:37.000Z</time>
        <extensions>
          <ns3:TrackPointExtension>
            <ns3:atemp>29.0</ns3:atemp>
            <ns3:hr>97</ns3:hr>
          </ns3:TrackPointExtension>
        </extensions>
      </trkpt>
      <trkpt lat="36.80469467304646968841552734375" lon="-118.39795567095279693603515625">
        <ele>3223.199951171875</ele>
        <time>2021-06-26T23:35:44.000Z</time>
        <extensions>
          <ns3:TrackPointExtension>
            <ns3:atemp>29.0</ns3:atemp>
            <ns3:hr>96</ns3:hr>
          </ns3:TrackPointExtension>
        </extensions>
      </trkpt>
      <trkpt lat="36.80471998639404773712158203125" lon="-118.397957347333431243896484375">
        <ele>3222.800048828125</ele>
        <time>2021-06-26T23:35:46.000Z</time>
        <extensions>
          <ns3:TrackPointExtension>
            <ns3:atemp>29.0</ns3:atemp>
            <ns3:hr>99</ns3:hr>
          </ns3:TrackPointExtension>
        </extensions>
      </trkpt>
      <trkpt lat="36.80475066415965557098388671875" lon="-118.39792742393910884857177734375">
        <ele>3222</ele>
        <time>2021-06-26T23:35:50.000Z</time>
        <extensions>
          <ns3:TrackPointExtension>
            <ns3:atemp>29.0</ns3:atemp>
            <ns3:hr>99</ns3:hr>
          </ns3:TrackPointExtension>
        </extensions>
      </trkpt>
      <trkpt lat="36.80476189590990543365478515625" lon="-118.3979156054556369781494140625">
        <ele>3222</ele>
        <time>2021-06-26T23:35:52.000Z</time>
        <extensions>
          <ns3:TrackPointExtension>
            <ns3:atemp>29.0</ns3:atemp>
            <ns3:hr>99</ns3:hr>
          </ns3:TrackPointExtension>
        </extensions>
      </trkpt>
      <trkpt lat="36.80476726032793521881103515625" lon="-118.39791812002658843994140625">
        <ele>3222</ele>
        <time>2021-06-26T23:35:53.000Z</time>
        <extensions>
          <ns3:TrackPointExtension>
            <ns3:atemp>29.0</ns3:atemp>
            <ns3:hr>99</ns3:hr>
          </ns3:TrackPointExtension>
        </extensions>
      </trkpt>
      <trkpt lat="36.804778575897216796875" lon="-118.39792273007333278656005859375">
        <ele>3221.60009765625</ele>
        <time>2021-06-26T23:36:03.000Z</time>
        <extensions>
          <ns3:TrackPointExtension>
            <ns3:atemp>29.0</ns3:atemp>
            <ns3:hr>101</ns3:hr>
          </ns3:TrackPointExtension>
        </extensions>
      </trkpt>
      <trkpt lat="36.8047825992107391357421875" lon="-118.39792373590171337127685546875">
        <ele>3221.800048828125</ele>
        <time>2021-06-26T23:36:07.000Z</time>
        <extensions>
          <ns3:TrackPointExtension>
            <ns3:atemp>29.0</ns3:atemp>
            <ns3:hr>104</ns3:hr>
          </ns3:TrackPointExtension>
        </extensions>
      </trkpt>
      <trkpt lat="36.8047825992107391357421875" lon="-118.39792373590171337127685546875">
        <ele>3221.800048828125</ele>
        <time>2021-06-26T23:36:10.000Z</time>
        <extensions>
          <ns3:TrackPointExtension>
            <ns3:atemp>29.0</ns3:atemp>
            <ns3:hr>106</ns3:hr>
          </ns3:TrackPointExtension>
        </extensions>
      </trkpt>
      <trkpt lat="36.80483984760940074920654296875" lon="-118.39788853190839290618896484375">
        <ele>3221</ele>
        <time>2021-06-26T23:36:18.000Z</time>
        <extensions>
          <ns3:TrackPointExtension>
            <ns3:atemp>29.0</ns3:atemp>
            <ns3:hr>108</ns3:hr>
          </ns3:TrackPointExtension>
        </extensions>
      </trkpt>
      <trkpt lat="36.80489315651357173919677734375" lon="-118.397862799465656280517578125">
        <ele>3220.60009765625</ele>
        <time>2021-06-26T23:36:23.000Z</time>
        <extensions>
          <ns3:TrackPointExtension>
            <ns3:atemp>29.0</ns3:atemp>
            <ns3:hr>108</ns3:hr>
          </ns3:TrackPointExtension>
        </extensions>
      </trkpt>
      <trkpt lat="36.80493640713393688201904296875" lon="-118.3978374861180782318115234375">
        <ele>3220.800048828125</ele>
        <time>2021-06-26T23:36:28.000Z</time>
        <extensions>
          <ns3:TrackPointExtension>
            <ns3:atemp>29.0</ns3:atemp>
            <ns3:hr>108</ns3:hr>
          </ns3:TrackPointExtension>
        </extensions>
      </trkpt>
      <trkpt lat="36.804977394640445709228515625" lon="-118.39782482944428920745849609375">
        <ele>3221.199951171875</ele>
        <time>2021-06-26T23:36:32.000Z</time>
        <extensions>
          <ns3:TrackPointExtension>
            <ns3:atemp>29.0</ns3:atemp>
            <ns3:hr>104</ns3:hr>
          </ns3:TrackPointExtension>
        </extensions>
      </trkpt>
      <trkpt lat="36.80501854978501796722412109375" lon="-118.39781661517918109893798828125">
        <ele>3221.39990234375</ele>
        <time>2021-06-26T23:36:35.000Z</time>
        <extensions>
          <ns3:TrackPointExtension>
            <ns3:atemp>29.0</ns3:atemp>
            <ns3:hr>101</ns3:hr>
          </ns3:TrackPointExtension>
        </extensions>
      </trkpt>
      <trkpt lat="36.80504168383777141571044921875" lon="-118.39781058020889759063720703125">
        <ele>3221.39990234375</ele>
        <time>2021-06-26T23:36:37.000Z</time>
        <extensions>
          <ns3:TrackPointExtension>
            <ns3:atemp>29.0</ns3:atemp>
            <ns3:hr>98</ns3:hr>
          </ns3:TrackPointExtension>
        </extensions>
      </trkpt>
      <trkpt lat="36.8051146902143955230712890625" lon="-118.39780102483928203582763671875">
        <ele>3221.60009765625</ele>
        <time>2021-06-26T23:36:43.000Z</time>
        <extensions>
          <ns3:TrackPointExtension>
            <ns3:atemp>29.0</ns3:atemp>
            <ns3:hr>97</ns3:hr>
          </ns3:TrackPointExtension>
        </extensions>
      </trkpt>
      <trkpt lat="36.805156432092189788818359375" lon="-118.39781644754111766815185546875">
        <ele>3222</ele>
        <time>2021-06-26T23:36:47.000Z</time>
        <extensions>
          <ns3:TrackPointExtension>
            <ns3:atemp>29.0</ns3:atemp>
            <ns3:hr>101</ns3:hr>
          </ns3:TrackPointExtension>
        </extensions>
      </trkpt>
      <trkpt lat="36.80517017841339111328125" lon="-118.39786590076982975006103515625">
        <ele>3222</ele>
        <time>2021-06-26T23:36:50.000Z</time>
        <extensions>
          <ns3:TrackPointExtension>
            <ns3:atemp>29.0</ns3:atemp>
            <ns3:hr>103</ns3:hr>
          </ns3:TrackPointExtension>
        </extensions>
      </trkpt>
      <trkpt lat="36.8051921389997005462646484375" lon="-118.3979306928813457489013671875">
        <ele>3222</ele>
        <time>2021-06-26T23:36:55.000Z</time>
        <extensions>
          <ns3:TrackPointExtension>
            <ns3:atemp>29.0</ns3:atemp>
            <ns3:hr>105</ns3:hr>
          </ns3:TrackPointExtension>
        </extensions>
      </trkpt>
      <trkpt lat="36.805223487317562103271484375" lon="-118.3980202116072177886962890625">
        <ele>3220.39990234375</ele>
        <time>2021-06-26T23:37:01.000Z</time>
        <extensions>
          <ns3:TrackPointExtension>
            <ns3:atemp>29.0</ns3:atemp>
            <ns3:hr>104</ns3:hr>
          </ns3:TrackPointExtension>
        </extensions>
      </trkpt>
      <trkpt lat="36.8052467890083789825439453125" lon="-118.39806488715112209320068359375">
        <ele>3220.199951171875</ele>
        <time>2021-06-26T23:37:04.000Z</time>
        <extensions>
          <ns3:TrackPointExtension>
            <ns3:atemp>29.0</ns3:atemp>
            <ns3:hr>102</ns3:hr>
          </ns3:TrackPointExtension>
        </extensions>
      </trkpt>
      <trkpt lat="36.80526606738567352294921875" lon="-118.3981033600866794586181640625">
        <ele>3219.60009765625</ele>
        <time>2021-06-26T23:37:07.000Z</time>
        <extensions>
          <ns3:TrackPointExtension>
            <ns3:atemp>29.0</ns3:atemp>
            <ns3:hr>105</ns3:hr>
          </ns3:TrackPointExtension>
        </extensions>
      </trkpt>
      <trkpt lat="36.805271767079830169677734375" lon="-118.3981154300272464752197265625">
        <ele>3219.39990234375</ele>
        <time>2021-06-26T23:37:08.000Z</time>
        <extensions>
          <ns3:TrackPointExtension>
            <ns3:atemp>29.0</ns3:atemp>
            <ns3:hr>102</ns3:hr>
          </ns3:TrackPointExtension>
        </extensions>
      </trkpt>
      <trkpt lat="36.80527738295495510101318359375" lon="-118.39813009835779666900634765625">
        <ele>3219.39990234375</ele>
        <time>2021-06-26T23:37:09.000Z</time>
        <extensions>
          <ns3:TrackPointExtension>
            <ns3:atemp>29.0</ns3:atemp>
            <ns3:hr>102</ns3:hr>
          </ns3:TrackPointExtension>
        </extensions>
      </trkpt>
      <trkpt lat="36.80529481731355190277099609375" lon="-118.39819681830704212188720703125">
        <ele>3219.39990234375</ele>
        <time>2021-06-26T23:37:13.000Z</time>
        <extensions>
          <ns3:TrackPointExtension>
            <ns3:atemp>30.0</ns3:atemp>
            <ns3:hr>102</ns3:hr>
          </ns3:TrackPointExtension>
        </extensions>
      </trkpt>
      <trkpt lat="36.80532985366880893707275390625" lon="-118.3982388116419315338134765625">
        <ele>3219.39990234375</ele>
        <time>2021-06-26T23:37:17.000Z</time>
        <extensions>
          <ns3:TrackPointExtension>
            <ns3:atemp>30.0</ns3:atemp>
            <ns3:hr>99</ns3:hr>
          </ns3:TrackPointExtension>
        </extensions>
      </trkpt>
      <trkpt lat="36.805355586111545562744140625" lon="-118.3982766978442668914794921875">
        <ele>3219.199951171875</ele>
        <time>2021-06-26T23:37:20.000Z</time>
        <extensions>
          <ns3:TrackPointExtension>
            <ns3:atemp>30.0</ns3:atemp>
            <ns3:hr>99</ns3:hr>
          </ns3:TrackPointExtension>
        </extensions>
      </trkpt>
      <trkpt lat="36.805369667708873748779296875" lon="-118.39829455129802227020263671875">
        <ele>3219.199951171875</ele>
        <time>2021-06-26T23:37:22.000Z</time>
        <extensions>
          <ns3:TrackPointExtension>
            <ns3:atemp>30.0</ns3:atemp>
            <ns3:hr>98</ns3:hr>
          </ns3:TrackPointExtension>
        </extensions>
      </trkpt>
      <trkpt lat="36.8053956516087055206298828125" lon="-118.39832019992172718048095703125">
        <ele>3219</ele>
        <time>2021-06-26T23:37:25.000Z</time>
        <extensions>
          <ns3:TrackPointExtension>
            <ns3:atemp>30.0</ns3:atemp>
            <ns3:hr>95</ns3:hr>
          </ns3:TrackPointExtension>
        </extensions>
      </trkpt>
      <trkpt lat="36.80542691610753536224365234375" lon="-118.39835875667631626129150390625">
        <ele>3218.800048828125</ele>
        <time>2021-06-26T23:37:29.000Z</time>
        <extensions>
          <ns3:TrackPointExtension>
            <ns3:atemp>30.0</ns3:atemp>
            <ns3:hr>96</ns3:hr>
          </ns3:TrackPointExtension>
        </extensions>
      </trkpt>
      <trkpt lat="36.8054627068340778350830078125" lon="-118.3984203636646270751953125">
        <ele>3218.199951171875</ele>
        <time>2021-06-26T23:37:35.000Z</time>
        <extensions>
          <ns3:TrackPointExtension>
            <ns3:atemp>30.0</ns3:atemp>
            <ns3:hr>98</ns3:hr>
          </ns3:TrackPointExtension>
        </extensions>
      </trkpt>
      <trkpt lat="36.8054821528494358062744140625" lon="-118.39846520684659481048583984375">
        <ele>3217.800048828125</ele>
        <time>2021-06-26T23:37:38.000Z</time>
        <extensions>
          <ns3:TrackPointExtension>
            <ns3:atemp>30.0</ns3:atemp>
            <ns3:hr>96</ns3:hr>
          </ns3:TrackPointExtension>
        </extensions>
      </trkpt>
      <trkpt lat="36.8055255711078643798828125" lon="-118.39853075332939624786376953125">
        <ele>3217.199951171875</ele>
        <time>2021-06-26T23:37:45.000Z</time>
        <extensions>
          <ns3:TrackPointExtension>
            <ns3:atemp>30.0</ns3:atemp>
            <ns3:hr>98</ns3:hr>
          </ns3:TrackPointExtension>
        </extensions>
      </trkpt>
      <trkpt lat="36.80553303100168704986572265625" lon="-118.39854039251804351806640625">
        <ele>3216.60009765625</ele>
        <time>2021-06-26T23:37:46.000Z</time>
        <extensions>
          <ns3:TrackPointExtension>
            <ns3:atemp>30.0</ns3:atemp>
            <ns3:hr>97</ns3:hr>
          </ns3:TrackPointExtension>
        </extensions>
      </trkpt>
      <trkpt lat="36.80554158054292201995849609375" lon="-118.39854701422154903411865234375">
        <ele>3216.199951171875</ele>
        <time>2021-06-26T23:37:47.000Z</time>
        <extensions>
          <ns3:TrackPointExtension>
            <ns3:atemp>30.0</ns3:atemp>
            <ns3:hr>100</ns3:hr>
          </ns3:TrackPointExtension>
        </extensions>
      </trkpt>
      <trkpt lat="36.805567480623722076416015625" lon="-118.39857752434909343719482421875">
        <ele>3216.199951171875</ele>
        <time>2021-06-26T23:37:50.000Z</time>
        <extensions>
          <ns3:TrackPointExtension>
            <ns3:atemp>30.0</ns3:atemp>
            <ns3:hr>97</ns3:hr>
          </ns3:TrackPointExtension>
        </extensions>
      </trkpt>
      <trkpt lat="36.80557527579367160797119140625" lon="-118.3985871635377407073974609375">
        <ele>3216</ele>
        <time>2021-06-26T23:37:51.000Z</time>
        <extensions>
          <ns3:TrackPointExtension>
            <ns3:atemp>30.0</ns3:atemp>
            <ns3:hr>97</ns3:hr>
          </ns3:TrackPointExtension>
        </extensions>
      </trkpt>
      <trkpt lat="36.80559002794325351715087890625" lon="-118.39860267005860805511474609375">
        <ele>3216</ele>
        <time>2021-06-26T23:37:53.000Z</time>
        <extensions>
          <ns3:TrackPointExtension>
            <ns3:atemp>30.0</ns3:atemp>
            <ns3:hr>95</ns3:hr>
          </ns3:TrackPointExtension>
        </extensions>
      </trkpt>
      <trkpt lat="36.80561299435794353485107421875" lon="-118.39862161315977573394775390625">
        <ele>3215</ele>
        <time>2021-06-26T23:37:58.000Z</time>
        <extensions>
          <ns3:TrackPointExtension>
            <ns3:atemp>30.0</ns3:atemp>
            <ns3:hr>93</ns3:hr>
          </ns3:TrackPointExtension>
        </extensions>
      </trkpt>
      <trkpt lat="36.80562322027981281280517578125" lon="-118.39862446300685405731201171875">
        <ele>3215</ele>
        <time>2021-06-26T23:38:00.000Z</time>
        <extensions>
          <ns3:TrackPointExtension>
            <ns3:atemp>30.0</ns3:atemp>
            <ns3:hr>92</ns3:hr>
          </ns3:TrackPointExtension>
        </extensions>
      </trkpt>
      <trkpt lat="36.80564425885677337646484375" lon="-118.39865363202989101409912109375">
        <ele>3215</ele>
        <time>2021-06-26T23:38:03.000Z</time>
        <extensions>
          <ns3:TrackPointExtension>
            <ns3:atemp>30.0</ns3:atemp>
            <ns3:hr>90</ns3:hr>
          </ns3:TrackPointExtension>
        </extensions>
      </trkpt>
      <trkpt lat="36.805668734014034271240234375" lon="-118.3986840583384037017822265625">
        <ele>3214.800048828125</ele>
        <time>2021-06-26T23:38:06.000Z</time>
        <extensions>
          <ns3:TrackPointExtension>
            <ns3:atemp>30.0</ns3:atemp>
            <ns3:hr>88</ns3:hr>
          </ns3:TrackPointExtension>
        </extensions>
      </trkpt>
      <trkpt lat="36.80570268072187900543212890625" lon="-118.39873527176678180694580078125">
        <ele>3215</ele>
        <time>2021-06-26T23:38:10.000Z</time>
        <extensions>
          <ns3:TrackPointExtension>
            <ns3:atemp>31.0</ns3:atemp>
            <ns3:hr>85</ns3:hr>
          </ns3:TrackPointExtension>
        </extensions>
      </trkpt>
      <trkpt lat="36.805736124515533447265625" lon="-118.398778103291988372802734375">
        <ele>3215.199951171875</ele>
        <time>2021-06-26T23:38:14.000Z</time>
        <extensions>
          <ns3:TrackPointExtension>
            <ns3:atemp>31.0</ns3:atemp>
            <ns3:hr>85</ns3:hr>
          </ns3:TrackPointExtension>
        </extensions>
      </trkpt>
      <trkpt lat="36.80574492551386356353759765625" lon="-118.39877768419682979583740234375">
        <ele>3215.199951171875</ele>
        <time>2021-06-26T23:38:15.000Z</time>
        <extensions>
          <ns3:TrackPointExtension>
            <ns3:atemp>31.0</ns3:atemp>
            <ns3:hr>85</ns3:hr>
          </ns3:TrackPointExtension>
        </extensions>
      </trkpt>
      <trkpt lat="36.80576386861503124237060546875" lon="-118.3987779356539249420166015625">
        <ele>3215.60009765625</ele>
        <time>2021-06-26T23:38:17.000Z</time>
        <extensions>
          <ns3:TrackPointExtension>
            <ns3:atemp>31.0</ns3:atemp>
            <ns3:hr>84</ns3:hr>
          </ns3:TrackPointExtension>
        </extensions>
      </trkpt>
      <trkpt lat="36.80580661632120609283447265625" lon="-118.39880802668631076812744140625">
        <ele>3216.199951171875</ele>
        <time>2021-06-26T23:38:21.000Z</time>
        <extensions>
          <ns3:TrackPointExtension>
            <ns3:atemp>31.0</ns3:atemp>
            <ns3:hr>84</ns3:hr>
          </ns3:TrackPointExtension>
        </extensions>
      </trkpt>
      <trkpt lat="36.80582002736628055572509765625" lon="-118.39881121180951595306396484375">
        <ele>3216.199951171875</ele>
        <time>2021-06-26T23:38:22.000Z</time>
        <extensions>
          <ns3:TrackPointExtension>
            <ns3:atemp>31.0</ns3:atemp>
            <ns3:hr>84</ns3:hr>
          </ns3:TrackPointExtension>
        </extensions>
      </trkpt>
      <trkpt lat="36.80588305927813053131103515625" lon="-118.3988349325954914093017578125">
        <ele>3216.800048828125</ele>
        <time>2021-06-26T23:38:28.000Z</time>
        <extensions>
          <ns3:TrackPointExtension>
            <ns3:atemp>31.0</ns3:atemp>
            <ns3:hr>87</ns3:hr>
          </ns3:TrackPointExtension>
        </extensions>
      </trkpt>
      <trkpt lat="36.80589144118130207061767578125" lon="-118.3988419733941555023193359375">
        <ele>3217</ele>
        <time>2021-06-26T23:38:29.000Z</time>
        <extensions>
          <ns3:TrackPointExtension>
            <ns3:atemp>31.0</ns3:atemp>
            <ns3:hr>88</ns3:hr>
          </ns3:TrackPointExtension>
        </extensions>
      </trkpt>
      <trkpt lat="36.80589948780834674835205078125" lon="-118.39884893037378787994384765625">
        <ele>3217</ele>
        <time>2021-06-26T23:38:30.000Z</time>
        <extensions>
          <ns3:TrackPointExtension>
            <ns3:atemp>31.0</ns3:atemp>
            <ns3:hr>91</ns3:hr>
          </ns3:TrackPointExtension>
        </extensions>
      </trkpt>
      <trkpt lat="36.80590921081602573394775390625" lon="-118.39885580353438854217529296875">
        <ele>3217</ele>
        <time>2021-06-26T23:38:31.000Z</time>
        <extensions>
          <ns3:TrackPointExtension>
            <ns3:atemp>31.0</ns3:atemp>
            <ns3:hr>94</ns3:hr>
          </ns3:TrackPointExtension>
        </extensions>
      </trkpt>
      <trkpt lat="36.80592748336493968963623046875" lon="-118.3988949470221996307373046875">
        <ele>3217</ele>
        <time>2021-06-26T23:38:34.000Z</time>
        <extensions>
          <ns3:TrackPointExtension>
            <ns3:atemp>31.0</ns3:atemp>
            <ns3:hr>97</ns3:hr>
          </ns3:TrackPointExtension>
        </extensions>
      </trkpt>
      <trkpt lat="36.8059334345161914825439453125" lon="-118.3989177457988262176513671875">
        <ele>3217</ele>
        <time>2021-06-26T23:38:36.000Z</time>
        <extensions>
          <ns3:TrackPointExtension>
            <ns3:atemp>31.0</ns3:atemp>
            <ns3:hr>99</ns3:hr>
          </ns3:TrackPointExtension>
        </extensions>
      </trkpt>
      <trkpt lat="36.80593837983906269073486328125" lon="-118.3989298157393932342529296875">
        <ele>3216.800048828125</ele>
        <time>2021-06-26T23:38:37.000Z</time>
        <extensions>
          <ns3:TrackPointExtension>
            <ns3:atemp>31.0</ns3:atemp>
            <ns3:hr>99</ns3:hr>
          </ns3:TrackPointExtension>
        </extensions>
      </trkpt>
      <trkpt lat="36.8059575743973255157470703125" lon="-118.39907951653003692626953125">
        <ele>3215.60009765625</ele>
        <time>2021-06-26T23:38:46.000Z</time>
        <extensions>
          <ns3:TrackPointExtension>
            <ns3:atemp>31.0</ns3:atemp>
            <ns3:hr>100</ns3:hr>
          </ns3:TrackPointExtension>
        </extensions>
      </trkpt>
      <trkpt lat="36.80598481558263301849365234375" lon="-118.3991041593253612518310546875">
        <ele>3215</ele>
        <time>2021-06-26T23:38:49.000Z</time>
        <extensions>
          <ns3:TrackPointExtension>
            <ns3:atemp>31.0</ns3:atemp>
            <ns3:hr>98</ns3:hr>
          </ns3:TrackPointExtension>
        </extensions>
      </trkpt>
      <trkpt lat="36.8060501106083393096923828125" lon="-118.39920331723988056182861328125">
        <ele>3215</ele>
        <time>2021-06-26T23:38:57.000Z</time>
        <extensions>
          <ns3:TrackPointExtension>
            <ns3:atemp>31.0</ns3:atemp>
            <ns3:hr>98</ns3:hr>
          </ns3:TrackPointExtension>
        </extensions>
      </trkpt>
      <trkpt lat="36.80608254857361316680908203125" lon="-118.3992855437099933624267578125">
        <ele>3215.800048828125</ele>
        <time>2021-06-26T23:39:04.000Z</time>
        <extensions>
          <ns3:TrackPointExtension>
            <ns3:atemp>31.0</ns3:atemp>
            <ns3:hr>95</ns3:hr>
          </ns3:TrackPointExtension>
        </extensions>
      </trkpt>
      <trkpt lat="36.806087158620357513427734375" lon="-118.3992947638034820556640625">
        <ele>3216.199951171875</ele>
        <time>2021-06-26T23:39:05.000Z</time>
        <extensions>
          <ns3:TrackPointExtension>
            <ns3:atemp>31.0</ns3:atemp>
            <ns3:hr>96</ns3:hr>
          </ns3:TrackPointExtension>
        </extensions>
      </trkpt>
      <trkpt lat="36.80609210394322872161865234375" lon="-118.39930591173470020294189453125">
        <ele>3216.199951171875</ele>
        <time>2021-06-26T23:39:06.000Z</time>
        <extensions>
          <ns3:TrackPointExtension>
            <ns3:atemp>31.0</ns3:atemp>
            <ns3:hr>95</ns3:hr>
          </ns3:TrackPointExtension>
        </extensions>
      </trkpt>
      <trkpt lat="36.80609889328479766845703125" lon="-118.39931529946625232696533203125">
        <ele>3216.199951171875</ele>
        <time>2021-06-26T23:39:07.000Z</time>
        <extensions>
          <ns3:TrackPointExtension>
            <ns3:atemp>31.0</ns3:atemp>
            <ns3:hr>98</ns3:hr>
          </ns3:TrackPointExtension>
        </extensions>
      </trkpt>
      <trkpt lat="36.80611222051084041595458984375" lon="-118.39932753704488277435302734375">
        <ele>3216.60009765625</ele>
        <time>2021-06-26T23:39:09.000Z</time>
        <extensions>
          <ns3:TrackPointExtension>
            <ns3:atemp>31.0</ns3:atemp>
            <ns3:hr>98</ns3:hr>
          </ns3:TrackPointExtension>
        </extensions>
      </trkpt>
      <trkpt lat="36.8061232008039951324462890625" lon="-118.39932351373136043548583984375">
        <ele>3217.39990234375</ele>
        <time>2021-06-26T23:39:11.000Z</time>
        <extensions>
          <ns3:TrackPointExtension>
            <ns3:atemp>31.0</ns3:atemp>
            <ns3:hr>97</ns3:hr>
          </ns3:TrackPointExtension>
        </extensions>
      </trkpt>
      <trkpt lat="36.8061339296400547027587890625" lon="-118.3993244357407093048095703125">
        <ele>3218.39990234375</ele>
        <time>2021-06-26T23:39:13.000Z</time>
        <extensions>
          <ns3:TrackPointExtension>
            <ns3:atemp>31.0</ns3:atemp>
            <ns3:hr>97</ns3:hr>
          </ns3:TrackPointExtension>
        </extensions>
      </trkpt>
      <trkpt lat="36.80615656077861785888671875" lon="-118.3993073366582393646240234375">
        <ele>3218.60009765625</ele>
        <time>2021-06-26T23:39:16.000Z</time>
        <extensions>
          <ns3:TrackPointExtension>
            <ns3:atemp>31.0</ns3:atemp>
            <ns3:hr>98</ns3:hr>
          </ns3:TrackPointExtension>
        </extensions>
      </trkpt>
      <trkpt lat="36.80616326630115509033203125" lon="-118.3992942608892917633056640625">
        <ele>3218.60009765625</ele>
        <time>2021-06-26T23:39:17.000Z</time>
        <extensions>
          <ns3:TrackPointExtension>
            <ns3:atemp>31.0</ns3:atemp>
            <ns3:hr>101</ns3:hr>
          </ns3:TrackPointExtension>
        </extensions>
      </trkpt>
      <trkpt lat="36.806181706488132476806640625" lon="-118.399253524839878082275390625">
        <ele>3218.800048828125</ele>
        <time>2021-06-26T23:39:20.000Z</time>
        <extensions>
          <ns3:TrackPointExtension>
            <ns3:atemp>31.0</ns3:atemp>
            <ns3:hr>103</ns3:hr>
          </ns3:TrackPointExtension>
        </extensions>
      </trkpt>
      <trkpt lat="36.80620073340833187103271484375" lon="-118.39922762475907802581787109375">
        <ele>3219.39990234375</ele>
        <time>2021-06-26T23:39:23.000Z</time>
        <extensions>
          <ns3:TrackPointExtension>
            <ns3:atemp>31.0</ns3:atemp>
            <ns3:hr>106</ns3:hr>
          </ns3:TrackPointExtension>
        </extensions>
      </trkpt>
      <trkpt lat="36.8062068521976470947265625" lon="-118.39922175742685794830322265625">
        <ele>3219.39990234375</ele>
        <time>2021-06-26T23:39:24.000Z</time>
        <extensions>
          <ns3:TrackPointExtension>
            <ns3:atemp>31.0</ns3:atemp>
            <ns3:hr>106</ns3:hr>
          </ns3:TrackPointExtension>
        </extensions>
      </trkpt>
      <trkpt lat="36.806219257414340972900390625" lon="-118.39921052567660808563232421875">
        <ele>3219.39990234375</ele>
        <time>2021-06-26T23:39:26.000Z</time>
        <extensions>
          <ns3:TrackPointExtension>
            <ns3:atemp>31.0</ns3:atemp>
            <ns3:hr>111</ns3:hr>
          </ns3:TrackPointExtension>
        </extensions>
      </trkpt>
      <trkpt lat="36.8062271364033222198486328125" lon="-118.39920667000114917755126953125">
        <ele>3220.39990234375</ele>
        <time>2021-06-26T23:39:27.000Z</time>
        <extensions>
          <ns3:TrackPointExtension>
            <ns3:atemp>31.0</ns3:atemp>
            <ns3:hr>111</ns3:hr>
          </ns3:TrackPointExtension>
        </extensions>
      </trkpt>
      <trkpt lat="36.80623945780098438262939453125" lon="-118.3991926722228527069091796875">
        <ele>3220.800048828125</ele>
        <time>2021-06-26T23:39:29.000Z</time>
        <extensions>
          <ns3:TrackPointExtension>
            <ns3:atemp>31.0</ns3:atemp>
            <ns3:hr>114</ns3:hr>
          </ns3:TrackPointExtension>
        </extensions>
      </trkpt>
      <trkpt lat="36.80624901317059993743896484375" lon="-118.39918336831033229827880859375">
        <ele>3221.199951171875</ele>
        <time>2021-06-26T23:39:31.000Z</time>
        <extensions>
          <ns3:TrackPointExtension>
            <ns3:atemp>31.0</ns3:atemp>
            <ns3:hr>115</ns3:hr>
          </ns3:TrackPointExtension>
        </extensions>
      </trkpt>
      <trkpt lat="36.80625672452151775360107421875" lon="-118.39918278157711029052734375">
        <ele>3221.800048828125</ele>
        <time>2021-06-26T23:39:32.000Z</time>
        <extensions>
          <ns3:TrackPointExtension>
            <ns3:atemp>31.0</ns3:atemp>
            <ns3:hr>116</ns3:hr>
          </ns3:TrackPointExtension>
        </extensions>
      </trkpt>
      <trkpt lat="36.8063015677034854888916015625" lon="-118.39919962920248508453369140625">
        <ele>3222</ele>
        <time>2021-06-26T23:39:37.000Z</time>
        <extensions>
          <ns3:TrackPointExtension>
            <ns3:atemp>31.0</ns3:atemp>
            <ns3:hr>118</ns3:hr>
          </ns3:TrackPointExtension>
        </extensions>
      </trkpt>
      <trkpt lat="36.80631238035857677459716796875" lon="-118.39920289814472198486328125">
        <ele>3222.39990234375</ele>
        <time>2021-06-26T23:39:38.000Z</time>
        <extensions>
          <ns3:TrackPointExtension>
            <ns3:atemp>31.0</ns3:atemp>
            <ns3:hr>120</ns3:hr>
          </ns3:TrackPointExtension>
        </extensions>
      </trkpt>
      <trkpt lat="36.806361414492130279541015625" lon="-118.3992034010589122772216796875">
        <ele>3222.60009765625</ele>
        <time>2021-06-26T23:39:44.000Z</time>
        <extensions>
          <ns3:TrackPointExtension>
            <ns3:atemp>31.0</ns3:atemp>
            <ns3:hr>118</ns3:hr>
          </ns3:TrackPointExtension>
        </extensions>
      </trkpt>
      <trkpt lat="36.8062723986804485321044921875" lon="-118.39921438135206699371337890625">
        <ele>3222.60009765625</ele>
        <time>2021-06-27T00:14:06.000Z</time>
        <extensions>
          <ns3:TrackPointExtension>
            <ns3:atemp>29.0</ns3:atemp>
            <ns3:hr>82</ns3:hr>
          </ns3:TrackPointExtension>
        </extensions>
      </trkpt>
      <trkpt lat="36.8062723986804485321044921875" lon="-118.39921555481851100921630859375">
        <ele>3222.60009765625</ele>
        <time>2021-06-27T00:14:07.000Z</time>
        <extensions>
          <ns3:TrackPointExtension>
            <ns3:atemp>29.0</ns3:atemp>
            <ns3:hr>82</ns3:hr>
          </ns3:TrackPointExtension>
        </extensions>
      </trkpt>
      <trkpt lat="36.8062723986804485321044921875" lon="-118.399219326674938201904296875">
        <ele>3223</ele>
        <time>2021-06-27T00:14:10.000Z</time>
        <extensions>
          <ns3:TrackPointExtension>
            <ns3:atemp>29.0</ns3:atemp>
            <ns3:hr>80</ns3:hr>
          </ns3:TrackPointExtension>
        </extensions>
      </trkpt>
      <trkpt lat="36.8062723986804485321044921875" lon="-118.399219997227191925048828125">
        <ele>3223</ele>
        <time>2021-06-27T00:14:13.000Z</time>
        <extensions>
          <ns3:TrackPointExtension>
            <ns3:atemp>29.0</ns3:atemp>
            <ns3:hr>83</ns3:hr>
          </ns3:TrackPointExtension>
        </extensions>
      </trkpt>
      <trkpt lat="36.80641966871917247772216796875" lon="-118.39924606494605541229248046875">
        <ele>3222.199951171875</ele>
        <time>2021-06-27T00:14:32.000Z</time>
        <extensions>
          <ns3:TrackPointExtension>
            <ns3:atemp>29.0</ns3:atemp>
            <ns3:hr>82</ns3:hr>
          </ns3:TrackPointExtension>
        </extensions>
      </trkpt>
      <trkpt lat="36.8064262904226779937744140625" lon="-118.39924891479313373565673828125">
        <ele>3222</ele>
        <time>2021-06-27T00:14:33.000Z</time>
        <extensions>
          <ns3:TrackPointExtension>
            <ns3:atemp>29.0</ns3:atemp>
            <ns3:hr>85</ns3:hr>
          </ns3:TrackPointExtension>
        </extensions>
      </trkpt>
      <trkpt lat="36.8064400367438793182373046875" lon="-118.399281017482280731201171875">
        <ele>3220.800048828125</ele>
        <time>2021-06-27T00:14:40.000Z</time>
        <extensions>
          <ns3:TrackPointExtension>
            <ns3:atemp>29.0</ns3:atemp>
            <ns3:hr>87</ns3:hr>
          </ns3:TrackPointExtension>
        </extensions>
      </trkpt>
      <trkpt lat="36.80648840032517910003662109375" lon="-118.39931144379079341888427734375">
        <ele>3220.39990234375</ele>
        <time>2021-06-27T00:14:46.000Z</time>
        <extensions>
          <ns3:TrackPointExtension>
            <ns3:atemp>29.0</ns3:atemp>
            <ns3:hr>86</ns3:hr>
          </ns3:TrackPointExtension>
        </extensions>
      </trkpt>
      <trkpt lat="36.80658345110714435577392578125" lon="-118.39928336441516876220703125">
        <ele>3221</ele>
        <time>2021-06-27T00:14:55.000Z</time>
        <extensions>
          <ns3:TrackPointExtension>
            <ns3:atemp>29.0</ns3:atemp>
            <ns3:hr>83</ns3:hr>
          </ns3:TrackPointExtension>
        </extensions>
      </trkpt>
      <trkpt lat="36.806596778333187103271484375" lon="-118.39927003718912601470947265625">
        <ele>3221</ele>
        <time>2021-06-27T00:14:57.000Z</time>
        <extensions>
          <ns3:TrackPointExtension>
            <ns3:atemp>29.0</ns3:atemp>
            <ns3:hr>82</ns3:hr>
          </ns3:TrackPointExtension>
        </extensions>
      </trkpt>
      <trkpt lat="36.806626953184604644775390625" lon="-118.399237096309661865234375">
        <ele>3221.800048828125</ele>
        <time>2021-06-27T00:15:02.000Z</time>
        <extensions>
          <ns3:TrackPointExtension>
            <ns3:atemp>29.0</ns3:atemp>
            <ns3:hr>81</ns3:hr>
          </ns3:TrackPointExtension>
        </extensions>
      </trkpt>
      <trkpt lat="36.80663323961198329925537109375" lon="-118.39922167360782623291015625">
        <ele>3222</ele>
        <time>2021-06-27T00:15:04.000Z</time>
        <extensions>
          <ns3:TrackPointExtension>
            <ns3:atemp>29.0</ns3:atemp>
            <ns3:hr>80</ns3:hr>
          </ns3:TrackPointExtension>
        </extensions>
      </trkpt>
      <trkpt lat="36.80664111860096454620361328125" lon="-118.399205245077610015869140625">
        <ele>3222</ele>
        <time>2021-06-27T00:15:06.000Z</time>
        <extensions>
          <ns3:TrackPointExtension>
            <ns3:atemp>29.0</ns3:atemp>
            <ns3:hr>79</ns3:hr>
          </ns3:TrackPointExtension>
        </extensions>
      </trkpt>
      <trkpt lat="36.80664966814219951629638671875" lon="-118.399192504584789276123046875">
        <ele>3222.199951171875</ele>
        <time>2021-06-27T00:15:08.000Z</time>
        <extensions>
          <ns3:TrackPointExtension>
            <ns3:atemp>29.0</ns3:atemp>
            <ns3:hr>77</ns3:hr>
          </ns3:TrackPointExtension>
        </extensions>
      </trkpt>
      <trkpt lat="36.8066623248159885406494140625" lon="-118.399178087711334228515625">
        <ele>3222.199951171875</ele>
        <time>2021-06-27T00:15:10.000Z</time>
        <extensions>
          <ns3:TrackPointExtension>
            <ns3:atemp>29.0</ns3:atemp>
            <ns3:hr>76</ns3:hr>
          </ns3:TrackPointExtension>
        </extensions>
      </trkpt>
      <trkpt lat="36.80667682550847530364990234375" lon="-118.39917666278779506683349609375">
        <ele>3222.199951171875</ele>
        <time>2021-06-27T00:15:12.000Z</time>
        <extensions>
          <ns3:TrackPointExtension>
            <ns3:atemp>29.0</ns3:atemp>
            <ns3:hr>75</ns3:hr>
          </ns3:TrackPointExtension>
        </extensions>
      </trkpt>
      <trkpt lat="36.80671454407274723052978515625" lon="-118.39918144047260284423828125">
        <ele>3221.800048828125</ele>
        <time>2021-06-27T00:15:16.000Z</time>
        <extensions>
          <ns3:TrackPointExtension>
            <ns3:atemp>29.0</ns3:atemp>
            <ns3:hr>72</ns3:hr>
          </ns3:TrackPointExtension>
        </extensions>
      </trkpt>
      <trkpt lat="36.806748993694782257080078125" lon="-118.3991852961480617523193359375">
        <ele>3221.800048828125</ele>
        <time>2021-06-27T00:15:20.000Z</time>
        <extensions>
          <ns3:TrackPointExtension>
            <ns3:atemp>29.0</ns3:atemp>
            <ns3:hr>74</ns3:hr>
          </ns3:TrackPointExtension>
        </extensions>
      </trkpt>
      <trkpt lat="36.8068222515285015106201171875" lon="-118.3991346694529056549072265625">
        <ele>3222.39990234375</ele>
        <time>2021-06-27T00:15:28.000Z</time>
        <extensions>
          <ns3:TrackPointExtension>
            <ns3:atemp>29.0</ns3:atemp>
            <ns3:hr>75</ns3:hr>
          </ns3:TrackPointExtension>
        </extensions>
      </trkpt>
      <trkpt lat="36.80682334117591381072998046875" lon="-118.3991068415343761444091796875">
        <ele>3222.60009765625</ele>
        <time>2021-06-27T00:15:31.000Z</time>
        <extensions>
          <ns3:TrackPointExtension>
            <ns3:atemp>29.0</ns3:atemp>
            <ns3:hr>76</ns3:hr>
          </ns3:TrackPointExtension>
        </extensions>
      </trkpt>
      <trkpt lat="36.80683784186840057373046875" lon="-118.399076163768768310546875">
        <ele>3223</ele>
        <time>2021-06-27T00:15:34.000Z</time>
        <extensions>
          <ns3:TrackPointExtension>
            <ns3:atemp>30.0</ns3:atemp>
            <ns3:hr>75</ns3:hr>
          </ns3:TrackPointExtension>
        </extensions>
      </trkpt>
      <trkpt lat="36.8068371713161468505859375" lon="-118.39905344881117343902587890625">
        <ele>3223.199951171875</ele>
        <time>2021-06-27T00:15:36.000Z</time>
        <extensions>
          <ns3:TrackPointExtension>
            <ns3:atemp>30.0</ns3:atemp>
            <ns3:hr>75</ns3:hr>
          </ns3:TrackPointExtension>
        </extensions>
      </trkpt>
      <trkpt lat="36.80682786740362644195556640625" lon="-118.39897482655942440032958984375">
        <ele>3223.800048828125</ele>
        <time>2021-06-27T00:15:43.000Z</time>
        <extensions>
          <ns3:TrackPointExtension>
            <ns3:atemp>30.0</ns3:atemp>
            <ns3:hr>75</ns3:hr>
          </ns3:TrackPointExtension>
        </extensions>
      </trkpt>
      <trkpt lat="36.806801967322826385498046875" lon="-118.398947417736053466796875">
        <ele>3224.199951171875</ele>
        <time>2021-06-27T00:15:46.000Z</time>
        <extensions>
          <ns3:TrackPointExtension>
            <ns3:atemp>30.0</ns3:atemp>
            <ns3:hr>77</ns3:hr>
          </ns3:TrackPointExtension>
        </extensions>
      </trkpt>
      <trkpt lat="36.80678294040262699127197265625" lon="-118.39892989955842494964599609375">
        <ele>3224.60009765625</ele>
        <time>2021-06-27T00:15:50.000Z</time>
        <extensions>
          <ns3:TrackPointExtension>
            <ns3:atemp>30.0</ns3:atemp>
            <ns3:hr>78</ns3:hr>
          </ns3:TrackPointExtension>
        </extensions>
      </trkpt>
      <trkpt lat="36.8067647516727447509765625" lon="-118.3989096991717815399169921875">
        <ele>3225</ele>
        <time>2021-06-27T00:15:54.000Z</time>
        <extensions>
          <ns3:TrackPointExtension>
            <ns3:atemp>30.0</ns3:atemp>
            <ns3:hr>81</ns3:hr>
          </ns3:TrackPointExtension>
        </extensions>
      </trkpt>
      <trkpt lat="36.80676315911114215850830078125" lon="-118.39890190400183200836181640625">
        <ele>3225.199951171875</ele>
        <time>2021-06-27T00:15:55.000Z</time>
        <extensions>
          <ns3:TrackPointExtension>
            <ns3:atemp>30.0</ns3:atemp>
            <ns3:hr>81</ns3:hr>
          </ns3:TrackPointExtension>
        </extensions>
      </trkpt>
      <trkpt lat="36.80675947107374668121337890625" lon="-118.39886334724724292755126953125">
        <ele>3225.199951171875</ele>
        <time>2021-06-27T00:15:58.000Z</time>
        <extensions>
          <ns3:TrackPointExtension>
            <ns3:atemp>30.0</ns3:atemp>
            <ns3:hr>83</ns3:hr>
          </ns3:TrackPointExtension>
        </extensions>
      </trkpt>
      <trkpt lat="36.8067558668553829193115234375" lon="-118.398845829069614410400390625">
        <ele>3225.39990234375</ele>
        <time>2021-06-27T00:15:59.000Z</time>
        <extensions>
          <ns3:TrackPointExtension>
            <ns3:atemp>30.0</ns3:atemp>
            <ns3:hr>83</ns3:hr>
          </ns3:TrackPointExtension>
        </extensions>
      </trkpt>
      <trkpt lat="36.80675008334219455718994140625" lon="-118.39883216656744480133056640625">
        <ele>3225.60009765625</ele>
        <time>2021-06-27T00:16:00.000Z</time>
        <extensions>
          <ns3:TrackPointExtension>
            <ns3:atemp>30.0</ns3:atemp>
            <ns3:hr>84</ns3:hr>
          </ns3:TrackPointExtension>
        </extensions>
      </trkpt>
      <trkpt lat="36.80672259069979190826416015625" lon="-118.39878573082387447357177734375">
        <ele>3225.60009765625</ele>
        <time>2021-06-27T00:16:03.000Z</time>
        <extensions>
          <ns3:TrackPointExtension>
            <ns3:atemp>30.0</ns3:atemp>
            <ns3:hr>85</ns3:hr>
          </ns3:TrackPointExtension>
        </extensions>
      </trkpt>
      <trkpt lat="36.8067015521228313446044921875" lon="-118.39875320903956890106201171875">
        <ele>3226</ele>
        <time>2021-06-27T00:16:08.000Z</time>
        <extensions>
          <ns3:TrackPointExtension>
            <ns3:atemp>30.0</ns3:atemp>
            <ns3:hr>87</ns3:hr>
          </ns3:TrackPointExtension>
        </extensions>
      </trkpt>
      <trkpt lat="36.80669945664703845977783203125" lon="-118.398747257888317108154296875">
        <ele>3226.39990234375</ele>
        <time>2021-06-27T00:16:09.000Z</time>
        <extensions>
          <ns3:TrackPointExtension>
            <ns3:atemp>30.0</ns3:atemp>
            <ns3:hr>87</ns3:hr>
          </ns3:TrackPointExtension>
        </extensions>
      </trkpt>
      <trkpt lat="36.806710772216320037841796875" lon="-118.39873124845325946807861328125">
        <ele>3226.60009765625</ele>
        <time>2021-06-27T00:16:11.000Z</time>
        <extensions>
          <ns3:TrackPointExtension>
            <ns3:atemp>30.0</ns3:atemp>
            <ns3:hr>88</ns3:hr>
          </ns3:TrackPointExtension>
        </extensions>
      </trkpt>
      <trkpt lat="36.8067199923098087310791015625" lon="-118.3986800350248813629150390625">
        <ele>3227</ele>
        <time>2021-06-27T00:16:18.000Z</time>
        <extensions>
          <ns3:TrackPointExtension>
            <ns3:atemp>30.0</ns3:atemp>
            <ns3:hr>90</ns3:hr>
          </ns3:TrackPointExtension>
        </extensions>
      </trkpt>
      <trkpt lat="36.8067313916981220245361328125" lon="-118.3986444957554340362548828125">
        <ele>3227.60009765625</ele>
        <time>2021-06-27T00:16:22.000Z</time>
        <extensions>
          <ns3:TrackPointExtension>
            <ns3:atemp>30.0</ns3:atemp>
            <ns3:hr>91</ns3:hr>
          </ns3:TrackPointExtension>
        </extensions>
      </trkpt>
      <trkpt lat="36.8067649193108081817626953125" lon="-118.3986009098589420318603515625">
        <ele>3227.60009765625</ele>
        <time>2021-06-27T00:16:29.000Z</time>
        <extensions>
          <ns3:TrackPointExtension>
            <ns3:atemp>30.0</ns3:atemp>
            <ns3:hr>91</ns3:hr>
          </ns3:TrackPointExtension>
        </extensions>
      </trkpt>
      <trkpt lat="36.806809008121490478515625" lon="-118.3985184319317340850830078125">
        <ele>3228</ele>
        <time>2021-06-27T00:16:38.000Z</time>
        <extensions>
          <ns3:TrackPointExtension>
            <ns3:atemp>30.0</ns3:atemp>
            <ns3:hr>92</ns3:hr>
          </ns3:TrackPointExtension>
        </extensions>
      </trkpt>
      <trkpt lat="36.80681328289210796356201171875" lon="-118.398497812449932098388671875">
        <ele>3228.199951171875</ele>
        <time>2021-06-27T00:16:41.000Z</time>
        <extensions>
          <ns3:TrackPointExtension>
            <ns3:atemp>30.0</ns3:atemp>
            <ns3:hr>92</ns3:hr>
          </ns3:TrackPointExtension>
        </extensions>
      </trkpt>
      <trkpt lat="36.8068353272974491119384765625" lon="-118.39845967479050159454345703125">
        <ele>3228.800048828125</ele>
        <time>2021-06-27T00:16:45.000Z</time>
        <extensions>
          <ns3:TrackPointExtension>
            <ns3:atemp>30.0</ns3:atemp>
            <ns3:hr>92</ns3:hr>
          </ns3:TrackPointExtension>
        </extensions>
      </trkpt>
      <trkpt lat="36.8068366684019565582275390625" lon="-118.3984486944973468780517578125">
        <ele>3228.800048828125</ele>
        <time>2021-06-27T00:16:46.000Z</time>
        <extensions>
          <ns3:TrackPointExtension>
            <ns3:atemp>30.0</ns3:atemp>
            <ns3:hr>92</ns3:hr>
          </ns3:TrackPointExtension>
        </extensions>
      </trkpt>
      <trkpt lat="36.806836836040019989013671875" lon="-118.39844056405127048492431640625">
        <ele>3228.800048828125</ele>
        <time>2021-06-27T00:16:47.000Z</time>
        <extensions>
          <ns3:TrackPointExtension>
            <ns3:atemp>30.0</ns3:atemp>
            <ns3:hr>89</ns3:hr>
          </ns3:TrackPointExtension>
        </extensions>
      </trkpt>
      <trkpt lat="36.806838177144527435302734375" lon="-118.39843620546162128448486328125">
        <ele>3228.800048828125</ele>
        <time>2021-06-27T00:16:48.000Z</time>
        <extensions>
          <ns3:TrackPointExtension>
            <ns3:atemp>30.0</ns3:atemp>
            <ns3:hr>92</ns3:hr>
          </ns3:TrackPointExtension>
        </extensions>
      </trkpt>
      <trkpt lat="36.80681026540696620941162109375" lon="-118.39839630760252475738525390625">
        <ele>3229.39990234375</ele>
        <time>2021-06-27T00:16:52.000Z</time>
        <extensions>
          <ns3:TrackPointExtension>
            <ns3:atemp>30.0</ns3:atemp>
            <ns3:hr>91</ns3:hr>
          </ns3:TrackPointExtension>
        </extensions>
      </trkpt>
      <trkpt lat="36.80680624209344387054443359375" lon="-118.3983139134943485260009765625">
        <ele>3229.39990234375</ele>
        <time>2021-06-27T00:17:00.000Z</time>
        <extensions>
          <ns3:TrackPointExtension>
            <ns3:atemp>30.0</ns3:atemp>
            <ns3:hr>93</ns3:hr>
          </ns3:TrackPointExtension>
        </extensions>
      </trkpt>
      <trkpt lat="36.80681713856756687164306640625" lon="-118.39828080497682094573974609375">
        <ele>3229.60009765625</ele>
        <time>2021-06-27T00:17:04.000Z</time>
        <extensions>
          <ns3:TrackPointExtension>
            <ns3:atemp>30.0</ns3:atemp>
            <ns3:hr>93</ns3:hr>
          </ns3:TrackPointExtension>
        </extensions>
      </trkpt>
      <trkpt lat="36.80681697092950344085693359375" lon="-118.39824040420353412628173828125">
        <ele>3229.60009765625</ele>
        <time>2021-06-27T00:17:07.000Z</time>
        <extensions>
          <ns3:TrackPointExtension>
            <ns3:atemp>30.0</ns3:atemp>
            <ns3:hr>94</ns3:hr>
          </ns3:TrackPointExtension>
        </extensions>
      </trkpt>
      <trkpt lat="36.8068199045956134796142578125" lon="-118.39822414331138134002685546875">
        <ele>3229.39990234375</ele>
        <time>2021-06-27T00:17:08.000Z</time>
        <extensions>
          <ns3:TrackPointExtension>
            <ns3:atemp>30.0</ns3:atemp>
            <ns3:hr>91</ns3:hr>
          </ns3:TrackPointExtension>
        </extensions>
      </trkpt>
      <trkpt lat="36.806825101375579833984375" lon="-118.39815122075378894805908203125">
        <ele>3229</ele>
        <time>2021-06-27T00:17:15.000Z</time>
        <extensions>
          <ns3:TrackPointExtension>
            <ns3:atemp>30.0</ns3:atemp>
            <ns3:hr>90</ns3:hr>
          </ns3:TrackPointExtension>
        </extensions>
      </trkpt>
      <trkpt lat="36.8068272806704044342041015625" lon="-118.39808383025228977203369140625">
        <ele>3228.800048828125</ele>
        <time>2021-06-27T00:17:20.000Z</time>
        <extensions>
          <ns3:TrackPointExtension>
            <ns3:atemp>30.0</ns3:atemp>
            <ns3:hr>87</ns3:hr>
          </ns3:TrackPointExtension>
        </extensions>
      </trkpt>
      <trkpt lat="36.806817390024662017822265625" lon="-118.3980540744960308074951171875">
        <ele>3228.60009765625</ele>
        <time>2021-06-27T00:17:23.000Z</time>
        <extensions>
          <ns3:TrackPointExtension>
            <ns3:atemp>30.0</ns3:atemp>
            <ns3:hr>86</ns3:hr>
          </ns3:TrackPointExtension>
        </extensions>
      </trkpt>
      <trkpt lat="36.80683742277324199676513671875" lon="-118.3980513922870159149169921875">
        <ele>3228.60009765625</ele>
        <time>2021-06-27T00:17:28.000Z</time>
        <extensions>
          <ns3:TrackPointExtension>
            <ns3:atemp>30.0</ns3:atemp>
            <ns3:hr>89</ns3:hr>
          </ns3:TrackPointExtension>
        </extensions>
      </trkpt>
      <trkpt lat="36.80683440528810024261474609375" lon="-118.39803890325129032135009765625">
        <ele>3228.60009765625</ele>
        <time>2021-06-27T00:17:32.000Z</time>
        <extensions>
          <ns3:TrackPointExtension>
            <ns3:atemp>30.0</ns3:atemp>
            <ns3:hr>90</ns3:hr>
          </ns3:TrackPointExtension>
        </extensions>
      </trkpt>
      <trkpt lat="36.8068712018430233001708984375" lon="-118.3980238996446132659912109375">
        <ele>3228.199951171875</ele>
        <time>2021-06-27T00:17:41.000Z</time>
        <extensions>
          <ns3:TrackPointExtension>
            <ns3:atemp>30.0</ns3:atemp>
            <ns3:hr>88</ns3:hr>
          </ns3:TrackPointExtension>
        </extensions>
      </trkpt>
      <trkpt lat="36.8069084174931049346923828125" lon="-118.39800118468701839447021484375">
        <ele>3228</ele>
        <time>2021-06-27T00:17:46.000Z</time>
        <extensions>
          <ns3:TrackPointExtension>
            <ns3:atemp>30.0</ns3:atemp>
            <ns3:hr>85</ns3:hr>
          </ns3:TrackPointExtension>
        </extensions>
      </trkpt>
      <trkpt lat="36.80692962370812892913818359375" lon="-118.3979947306215763092041015625">
        <ele>3228</ele>
        <time>2021-06-27T00:17:48.000Z</time>
        <extensions>
          <ns3:TrackPointExtension>
            <ns3:atemp>30.0</ns3:atemp>
            <ns3:hr>84</ns3:hr>
          </ns3:TrackPointExtension>
        </extensions>
      </trkpt>
      <trkpt lat="36.8069905601441860198974609375" lon="-118.39799967594444751739501953125">
        <ele>3228.60009765625</ele>
        <time>2021-06-27T00:17:55.000Z</time>
        <extensions>
          <ns3:TrackPointExtension>
            <ns3:atemp>30.0</ns3:atemp>
            <ns3:hr>83</ns3:hr>
          </ns3:TrackPointExtension>
        </extensions>
      </trkpt>
      <trkpt lat="36.80703054182231426239013671875" lon="-118.39797821827232837677001953125">
        <ele>3228.800048828125</ele>
        <time>2021-06-27T00:18:01.000Z</time>
        <extensions>
          <ns3:TrackPointExtension>
            <ns3:atemp>30.0</ns3:atemp>
            <ns3:hr>86</ns3:hr>
          </ns3:TrackPointExtension>
        </extensions>
      </trkpt>
      <trkpt lat="36.8070535920560359954833984375" lon="-118.3979521505534648895263671875">
        <ele>3228.60009765625</ele>
        <time>2021-06-27T00:18:04.000Z</time>
        <extensions>
          <ns3:TrackPointExtension>
            <ns3:atemp>30.0</ns3:atemp>
            <ns3:hr>88</ns3:hr>
          </ns3:TrackPointExtension>
        </extensions>
      </trkpt>
      <trkpt lat="36.80708250962197780609130859375" lon="-118.39792759157717227935791015625">
        <ele>3228.39990234375</ele>
        <time>2021-06-27T00:18:07.000Z</time>
        <extensions>
          <ns3:TrackPointExtension>
            <ns3:atemp>30.0</ns3:atemp>
            <ns3:hr>91</ns3:hr>
          </ns3:TrackPointExtension>
        </extensions>
      </trkpt>
      <trkpt lat="36.80711545050144195556640625" lon="-118.3979115821421146392822265625">
        <ele>3228.199951171875</ele>
        <time>2021-06-27T00:18:10.000Z</time>
        <extensions>
          <ns3:TrackPointExtension>
            <ns3:atemp>30.0</ns3:atemp>
            <ns3:hr>92</ns3:hr>
          </ns3:TrackPointExtension>
        </extensions>
      </trkpt>
      <trkpt lat="36.80722986347973346710205078125" lon="-118.397901020944118499755859375">
        <ele>3228.199951171875</ele>
        <time>2021-06-27T00:18:20.000Z</time>
        <extensions>
          <ns3:TrackPointExtension>
            <ns3:atemp>30.0</ns3:atemp>
            <ns3:hr>93</ns3:hr>
          </ns3:TrackPointExtension>
        </extensions>
      </trkpt>
      <trkpt lat="36.8072797358036041259765625" lon="-118.397919796407222747802734375">
        <ele>3228.800048828125</ele>
        <time>2021-06-27T00:18:25.000Z</time>
        <extensions>
          <ns3:TrackPointExtension>
            <ns3:atemp>30.0</ns3:atemp>
            <ns3:hr>90</ns3:hr>
          </ns3:TrackPointExtension>
        </extensions>
      </trkpt>
      <trkpt lat="36.8073184601962566375732421875" lon="-118.39792993851006031036376953125">
        <ele>3229</ele>
        <time>2021-06-27T00:18:29.000Z</time>
        <extensions>
          <ns3:TrackPointExtension>
            <ns3:atemp>30.0</ns3:atemp>
            <ns3:hr>93</ns3:hr>
          </ns3:TrackPointExtension>
        </extensions>
      </trkpt>
      <trkpt lat="36.807328350841999053955078125" lon="-118.3979246579110622406005859375">
        <ele>3229</ele>
        <time>2021-06-27T00:18:30.000Z</time>
        <extensions>
          <ns3:TrackPointExtension>
            <ns3:atemp>30.0</ns3:atemp>
            <ns3:hr>92</ns3:hr>
          </ns3:TrackPointExtension>
        </extensions>
      </trkpt>
      <trkpt lat="36.80743463337421417236328125" lon="-118.39789398014545440673828125">
        <ele>3228.800048828125</ele>
        <time>2021-06-27T00:18:40.000Z</time>
        <extensions>
          <ns3:TrackPointExtension>
            <ns3:atemp>30.0</ns3:atemp>
            <ns3:hr>92</ns3:hr>
          </ns3:TrackPointExtension>
        </extensions>
      </trkpt>
      <trkpt lat="36.8074767105281352996826171875" lon="-118.3978934772312641143798828125">
        <ele>3229.199951171875</ele>
        <time>2021-06-27T00:18:44.000Z</time>
        <extensions>
          <ns3:TrackPointExtension>
            <ns3:atemp>30.0</ns3:atemp>
            <ns3:hr>92</ns3:hr>
          </ns3:TrackPointExtension>
        </extensions>
      </trkpt>
      <trkpt lat="36.80749121122062206268310546875" lon="-118.397899009287357330322265625">
        <ele>3229.199951171875</ele>
        <time>2021-06-27T00:18:46.000Z</time>
        <extensions>
          <ns3:TrackPointExtension>
            <ns3:atemp>30.0</ns3:atemp>
            <ns3:hr>93</ns3:hr>
          </ns3:TrackPointExtension>
        </extensions>
      </trkpt>
      <trkpt lat="36.80757955648005008697509765625" lon="-118.3979216404259204864501953125">
        <ele>3229.39990234375</ele>
        <time>2021-06-27T00:18:54.000Z</time>
        <extensions>
          <ns3:TrackPointExtension>
            <ns3:atemp>30.0</ns3:atemp>
            <ns3:hr>91</ns3:hr>
          </ns3:TrackPointExtension>
        </extensions>
      </trkpt>
      <trkpt lat="36.80766438134014606475830078125" lon="-118.39791233651340007781982421875">
        <ele>3229</ele>
        <time>2021-06-27T00:19:02.000Z</time>
        <extensions>
          <ns3:TrackPointExtension>
            <ns3:atemp>30.0</ns3:atemp>
            <ns3:hr>91</ns3:hr>
          </ns3:TrackPointExtension>
        </extensions>
      </trkpt>
      <trkpt lat="36.807768903672695159912109375" lon="-118.39791267178952693939208984375">
        <ele>3229</ele>
        <time>2021-06-27T00:19:11.000Z</time>
        <extensions>
          <ns3:TrackPointExtension>
            <ns3:atemp>30.0</ns3:atemp>
            <ns3:hr>94</ns3:hr>
          </ns3:TrackPointExtension>
        </extensions>
      </trkpt>
      <trkpt lat="36.80788013152778148651123046875" lon="-118.39793798513710498809814453125">
        <ele>3229.60009765625</ele>
        <time>2021-06-27T00:19:21.000Z</time>
        <extensions>
          <ns3:TrackPointExtension>
            <ns3:atemp>30.0</ns3:atemp>
            <ns3:hr>94</ns3:hr>
          </ns3:TrackPointExtension>
        </extensions>
      </trkpt>
      <trkpt lat="36.80789186619222164154052734375" lon="-118.39793815277516841888427734375">
        <ele>3229.800048828125</ele>
        <time>2021-06-27T00:19:22.000Z</time>
        <extensions>
          <ns3:TrackPointExtension>
            <ns3:atemp>30.0</ns3:atemp>
            <ns3:hr>93</ns3:hr>
          </ns3:TrackPointExtension>
        </extensions>
      </trkpt>
      <trkpt lat="36.80791885592043399810791015625" lon="-118.39793463237583637237548828125">
        <ele>3230</ele>
        <time>2021-06-27T00:19:24.000Z</time>
        <extensions>
          <ns3:TrackPointExtension>
            <ns3:atemp>30.0</ns3:atemp>
            <ns3:hr>90</ns3:hr>
          </ns3:TrackPointExtension>
        </extensions>
      </trkpt>
      <trkpt lat="36.80793846957385540008544921875" lon="-118.39794133789837360382080078125">
        <ele>3230.60009765625</ele>
        <time>2021-06-27T00:19:26.000Z</time>
        <extensions>
          <ns3:TrackPointExtension>
            <ns3:atemp>30.0</ns3:atemp>
            <ns3:hr>88</ns3:hr>
          </ns3:TrackPointExtension>
        </extensions>
      </trkpt>
      <trkpt lat="36.80794953368604183197021484375" lon="-118.39795256964862346649169921875">
        <ele>3231.199951171875</ele>
        <time>2021-06-27T00:19:28.000Z</time>
        <extensions>
          <ns3:TrackPointExtension>
            <ns3:atemp>30.0</ns3:atemp>
            <ns3:hr>89</ns3:hr>
          </ns3:TrackPointExtension>
        </extensions>
      </trkpt>
      <trkpt lat="36.80795690976083278656005859375" lon="-118.39796279557049274444580078125">
        <ele>3231.39990234375</ele>
        <time>2021-06-27T00:19:30.000Z</time>
        <extensions>
          <ns3:TrackPointExtension>
            <ns3:atemp>30.0</ns3:atemp>
            <ns3:hr>89</ns3:hr>
          </ns3:TrackPointExtension>
        </extensions>
      </trkpt>
      <trkpt lat="36.80796160362660884857177734375" lon="-118.39797419495880603790283203125">
        <ele>3231.60009765625</ele>
        <time>2021-06-27T00:19:32.000Z</time>
        <extensions>
          <ns3:TrackPointExtension>
            <ns3:atemp>30.0</ns3:atemp>
            <ns3:hr>92</ns3:hr>
          </ns3:TrackPointExtension>
        </extensions>
      </trkpt>
      <trkpt lat="36.80799915455281734466552734375" lon="-118.39801224879920482635498046875">
        <ele>3232.199951171875</ele>
        <time>2021-06-27T00:19:37.000Z</time>
        <extensions>
          <ns3:TrackPointExtension>
            <ns3:atemp>30.0</ns3:atemp>
            <ns3:hr>93</ns3:hr>
          </ns3:TrackPointExtension>
        </extensions>
      </trkpt>
      <trkpt lat="36.808006279170513153076171875" lon="-118.39802565984427928924560546875">
        <ele>3232.199951171875</ele>
        <time>2021-06-27T00:19:38.000Z</time>
        <extensions>
          <ns3:TrackPointExtension>
            <ns3:atemp>30.0</ns3:atemp>
            <ns3:hr>94</ns3:hr>
          </ns3:TrackPointExtension>
        </extensions>
      </trkpt>
      <trkpt lat="36.808016002178192138671875" lon="-118.3980326168239116668701171875">
        <ele>3232.199951171875</ele>
        <time>2021-06-27T00:19:39.000Z</time>
        <extensions>
          <ns3:TrackPointExtension>
            <ns3:atemp>30.0</ns3:atemp>
            <ns3:hr>96</ns3:hr>
          </ns3:TrackPointExtension>
        </extensions>
      </trkpt>
      <trkpt lat="36.8080560676753520965576171875" lon="-118.3980797231197357177734375">
        <ele>3232.199951171875</ele>
        <time>2021-06-27T00:19:43.000Z</time>
        <extensions>
          <ns3:TrackPointExtension>
            <ns3:atemp>30.0</ns3:atemp>
            <ns3:hr>99</ns3:hr>
          </ns3:TrackPointExtension>
        </extensions>
      </trkpt>
      <trkpt lat="36.808060593903064727783203125" lon="-118.39809154160320758819580078125">
        <ele>3232.199951171875</ele>
        <time>2021-06-27T00:19:44.000Z</time>
        <extensions>
          <ns3:TrackPointExtension>
            <ns3:atemp>30.0</ns3:atemp>
            <ns3:hr>99</ns3:hr>
          </ns3:TrackPointExtension>
        </extensions>
      </trkpt>
      <trkpt lat="36.8080641143023967742919921875" lon="-118.39809573255479335784912109375">
        <ele>3232.199951171875</ele>
        <time>2021-06-27T00:19:45.000Z</time>
        <extensions>
          <ns3:TrackPointExtension>
            <ns3:atemp>30.0</ns3:atemp>
            <ns3:hr>100</ns3:hr>
          </ns3:TrackPointExtension>
        </extensions>
      </trkpt>
      <trkpt lat="36.8081093765795230865478515625" lon="-118.39815172366797924041748046875">
        <ele>3232.39990234375</ele>
        <time>2021-06-27T00:19:50.000Z</time>
        <extensions>
          <ns3:TrackPointExtension>
            <ns3:atemp>30.0</ns3:atemp>
            <ns3:hr>103</ns3:hr>
          </ns3:TrackPointExtension>
        </extensions>
      </trkpt>
      <trkpt lat="36.808163188397884368896484375" lon="-118.39819313026964664459228515625">
        <ele>3232.800048828125</ele>
        <time>2021-06-27T00:19:56.000Z</time>
        <extensions>
          <ns3:TrackPointExtension>
            <ns3:atemp>30.0</ns3:atemp>
            <ns3:hr>102</ns3:hr>
          </ns3:TrackPointExtension>
        </extensions>
      </trkpt>
      <trkpt lat="36.80816444568336009979248046875" lon="-118.39820737950503826141357421875">
        <ele>3232.800048828125</ele>
        <time>2021-06-27T00:19:57.000Z</time>
        <extensions>
          <ns3:TrackPointExtension>
            <ns3:atemp>30.0</ns3:atemp>
            <ns3:hr>103</ns3:hr>
          </ns3:TrackPointExtension>
        </extensions>
      </trkpt>
      <trkpt lat="36.80821423418819904327392578125" lon="-118.39825063012540340423583984375">
        <ele>3233</ele>
        <time>2021-06-27T00:20:02.000Z</time>
        <extensions>
          <ns3:TrackPointExtension>
            <ns3:atemp>30.0</ns3:atemp>
            <ns3:hr>102</ns3:hr>
          </ns3:TrackPointExtension>
        </extensions>
      </trkpt>
      <trkpt lat="36.8082381226122379302978515625" lon="-118.3982575871050357818603515625">
        <ele>3233.199951171875</ele>
        <time>2021-06-27T00:20:06.000Z</time>
        <extensions>
          <ns3:TrackPointExtension>
            <ns3:atemp>30.0</ns3:atemp>
            <ns3:hr>102</ns3:hr>
          </ns3:TrackPointExtension>
        </extensions>
      </trkpt>
      <trkpt lat="36.808295287191867828369140625" lon="-118.39825498871505260467529296875">
        <ele>3233.39990234375</ele>
        <time>2021-06-27T00:20:12.000Z</time>
        <extensions>
          <ns3:TrackPointExtension>
            <ns3:atemp>30.0</ns3:atemp>
            <ns3:hr>101</ns3:hr>
          </ns3:TrackPointExtension>
        </extensions>
      </trkpt>
      <trkpt lat="36.808334849774837493896484375" lon="-118.39826655574142932891845703125">
        <ele>3233.39990234375</ele>
        <time>2021-06-27T00:20:16.000Z</time>
        <extensions>
          <ns3:TrackPointExtension>
            <ns3:atemp>30.0</ns3:atemp>
            <ns3:hr>99</ns3:hr>
          </ns3:TrackPointExtension>
        </extensions>
      </trkpt>
      <trkpt lat="36.80835597217082977294921875" lon="-118.39827309362590312957763671875">
        <ele>3233.199951171875</ele>
        <time>2021-06-27T00:20:18.000Z</time>
        <extensions>
          <ns3:TrackPointExtension>
            <ns3:atemp>30.0</ns3:atemp>
            <ns3:hr>102</ns3:hr>
          </ns3:TrackPointExtension>
        </extensions>
      </trkpt>
      <trkpt lat="36.808364354074001312255859375" lon="-118.39827544055879116058349609375">
        <ele>3233.199951171875</ele>
        <time>2021-06-27T00:20:19.000Z</time>
        <extensions>
          <ns3:TrackPointExtension>
            <ns3:atemp>30.0</ns3:atemp>
            <ns3:hr>98</ns3:hr>
          </ns3:TrackPointExtension>
        </extensions>
      </trkpt>
      <trkpt lat="36.808386147022247314453125" lon="-118.3982793800532817840576171875">
        <ele>3233.199951171875</ele>
        <time>2021-06-27T00:20:21.000Z</time>
        <extensions>
          <ns3:TrackPointExtension>
            <ns3:atemp>30.0</ns3:atemp>
            <ns3:hr>100</ns3:hr>
          </ns3:TrackPointExtension>
        </extensions>
      </trkpt>
      <trkpt lat="36.8084813654422760009765625" lon="-118.39830444194376468658447265625">
        <ele>3232.800048828125</ele>
        <time>2021-06-27T00:20:30.000Z</time>
        <extensions>
          <ns3:TrackPointExtension>
            <ns3:atemp>31.0</ns3:atemp>
            <ns3:hr>100</ns3:hr>
          </ns3:TrackPointExtension>
        </extensions>
      </trkpt>
      <trkpt lat="36.8085103668272495269775390625" lon="-118.3983050286769866943359375">
        <ele>3232</ele>
        <time>2021-06-27T00:20:33.000Z</time>
        <extensions>
          <ns3:TrackPointExtension>
            <ns3:atemp>31.0</ns3:atemp>
            <ns3:hr>99</ns3:hr>
          </ns3:TrackPointExtension>
        </extensions>
      </trkpt>
      <trkpt lat="36.80851933546364307403564453125" lon="-118.39830628596246242523193359375">
        <ele>3231.800048828125</ele>
        <time>2021-06-27T00:20:34.000Z</time>
        <extensions>
          <ns3:TrackPointExtension>
            <ns3:atemp>31.0</ns3:atemp>
            <ns3:hr>100</ns3:hr>
          </ns3:TrackPointExtension>
        </extensions>
      </trkpt>
      <trkpt lat="36.8085438944399356842041015625" lon="-118.39830511249601840972900390625">
        <ele>3231.39990234375</ele>
        <time>2021-06-27T00:20:36.000Z</time>
        <extensions>
          <ns3:TrackPointExtension>
            <ns3:atemp>31.0</ns3:atemp>
            <ns3:hr>97</ns3:hr>
          </ns3:TrackPointExtension>
        </extensions>
      </trkpt>
      <trkpt lat="36.80856225080788135528564453125" lon="-118.39830192737281322479248046875">
        <ele>3231</ele>
        <time>2021-06-27T00:20:38.000Z</time>
        <extensions>
          <ns3:TrackPointExtension>
            <ns3:atemp>31.0</ns3:atemp>
            <ns3:hr>96</ns3:hr>
          </ns3:TrackPointExtension>
        </extensions>
      </trkpt>
      <trkpt lat="36.80857323110103607177734375" lon="-118.39830125682055950164794921875">
        <ele>3230.60009765625</ele>
        <time>2021-06-27T00:20:39.000Z</time>
        <extensions>
          <ns3:TrackPointExtension>
            <ns3:atemp>31.0</ns3:atemp>
            <ns3:hr>96</ns3:hr>
          </ns3:TrackPointExtension>
        </extensions>
      </trkpt>
      <trkpt lat="36.80858890525996685028076171875" lon="-118.39830243028700351715087890625">
        <ele>3230.60009765625</ele>
        <time>2021-06-27T00:20:41.000Z</time>
        <extensions>
          <ns3:TrackPointExtension>
            <ns3:atemp>31.0</ns3:atemp>
            <ns3:hr>93</ns3:hr>
          </ns3:TrackPointExtension>
        </extensions>
      </trkpt>
      <trkpt lat="36.808598376810550689697265625" lon="-118.3983005024492740631103515625">
        <ele>3230.60009765625</ele>
        <time>2021-06-27T00:20:42.000Z</time>
        <extensions>
          <ns3:TrackPointExtension>
            <ns3:atemp>31.0</ns3:atemp>
            <ns3:hr>94</ns3:hr>
          </ns3:TrackPointExtension>
        </extensions>
      </trkpt>
      <trkpt lat="36.80871329270303249359130859375" lon="-118.39832288213074207305908203125">
        <ele>3230.39990234375</ele>
        <time>2021-06-27T00:20:51.000Z</time>
        <extensions>
          <ns3:TrackPointExtension>
            <ns3:atemp>31.0</ns3:atemp>
            <ns3:hr>95</ns3:hr>
          </ns3:TrackPointExtension>
        </extensions>
      </trkpt>
      <trkpt lat="36.808782778680324554443359375" lon="-118.398351632058620452880859375">
        <ele>3230.60009765625</ele>
        <time>2021-06-27T00:20:58.000Z</time>
        <extensions>
          <ns3:TrackPointExtension>
            <ns3:atemp>31.0</ns3:atemp>
            <ns3:hr>94</ns3:hr>
          </ns3:TrackPointExtension>
        </extensions>
      </trkpt>
      <trkpt lat="36.80888227187097072601318359375" lon="-118.39834584854543209075927734375">
        <ele>3230.39990234375</ele>
        <time>2021-06-27T00:21:07.000Z</time>
        <extensions>
          <ns3:TrackPointExtension>
            <ns3:atemp>31.0</ns3:atemp>
            <ns3:hr>92</ns3:hr>
          </ns3:TrackPointExtension>
        </extensions>
      </trkpt>
      <trkpt lat="36.80891118943691253662109375" lon="-118.3983427472412586212158203125">
        <ele>3230.39990234375</ele>
        <time>2021-06-27T00:21:10.000Z</time>
        <extensions>
          <ns3:TrackPointExtension>
            <ns3:atemp>31.0</ns3:atemp>
            <ns3:hr>91</ns3:hr>
          </ns3:TrackPointExtension>
        </extensions>
      </trkpt>
      <trkpt lat="36.80892183445394039154052734375" lon="-118.3983420766890048980712890625">
        <ele>3230.39990234375</ele>
        <time>2021-06-27T00:21:14.000Z</time>
        <extensions>
          <ns3:TrackPointExtension>
            <ns3:atemp>31.0</ns3:atemp>
            <ns3:hr>90</ns3:hr>
          </ns3:TrackPointExtension>
        </extensions>
      </trkpt>
      <trkpt lat="36.808922588825225830078125" lon="-118.39834459125995635986328125">
        <ele>3230.39990234375</ele>
        <time>2021-06-27T00:21:15.000Z</time>
        <extensions>
          <ns3:TrackPointExtension>
            <ns3:atemp>31.0</ns3:atemp>
            <ns3:hr>91</ns3:hr>
          </ns3:TrackPointExtension>
        </extensions>
      </trkpt>
      <trkpt lat="36.80893457494676113128662109375" lon="-118.39833386242389678955078125">
        <ele>3230.39990234375</ele>
        <time>2021-06-27T00:21:26.000Z</time>
        <extensions>
          <ns3:TrackPointExtension>
            <ns3:atemp>31.0</ns3:atemp>
            <ns3:hr>92</ns3:hr>
          </ns3:TrackPointExtension>
        </extensions>
      </trkpt>
      <trkpt lat="36.809008419513702392578125" lon="-118.39833386242389678955078125">
        <ele>3231</ele>
        <time>2021-06-27T00:21:34.000Z</time>
        <extensions>
          <ns3:TrackPointExtension>
            <ns3:atemp>31.0</ns3:atemp>
            <ns3:hr>92</ns3:hr>
          </ns3:TrackPointExtension>
        </extensions>
      </trkpt>
      <trkpt lat="36.8090920709073543548583984375" lon="-118.398363031446933746337890625">
        <ele>3230.60009765625</ele>
        <time>2021-06-27T00:21:39.000Z</time>
        <extensions>
          <ns3:TrackPointExtension>
            <ns3:atemp>31.0</ns3:atemp>
            <ns3:hr>89</ns3:hr>
          </ns3:TrackPointExtension>
        </extensions>
      </trkpt>
      <trkpt lat="36.8091131933033466339111328125" lon="-118.3983712457120418548583984375">
        <ele>3230</ele>
        <time>2021-06-27T00:21:41.000Z</time>
        <extensions>
          <ns3:TrackPointExtension>
            <ns3:atemp>31.0</ns3:atemp>
            <ns3:hr>90</ns3:hr>
          </ns3:TrackPointExtension>
        </extensions>
      </trkpt>
      <trkpt lat="36.80912300013005733489990234375" lon="-118.398375771939754486083984375">
        <ele>3229.800048828125</ele>
        <time>2021-06-27T00:21:42.000Z</time>
        <extensions>
          <ns3:TrackPointExtension>
            <ns3:atemp>32.0</ns3:atemp>
            <ns3:hr>90</ns3:hr>
          </ns3:TrackPointExtension>
        </extensions>
      </trkpt>
      <trkpt lat="36.80914998985826969146728515625" lon="-118.39839060790836811065673828125">
        <ele>3229.60009765625</ele>
        <time>2021-06-27T00:21:45.000Z</time>
        <extensions>
          <ns3:TrackPointExtension>
            <ns3:atemp>32.0</ns3:atemp>
            <ns3:hr>94</ns3:hr>
          </ns3:TrackPointExtension>
        </extensions>
      </trkpt>
      <trkpt lat="36.80917027406394481658935546875" lon="-118.39840921573340892791748046875">
        <ele>3229.199951171875</ele>
        <time>2021-06-27T00:21:47.000Z</time>
        <extensions>
          <ns3:TrackPointExtension>
            <ns3:atemp>32.0</ns3:atemp>
            <ns3:hr>96</ns3:hr>
          </ns3:TrackPointExtension>
        </extensions>
      </trkpt>
      <trkpt lat="36.8091909773647785186767578125" lon="-118.39841944165527820587158203125">
        <ele>3228.800048828125</ele>
        <time>2021-06-27T00:21:49.000Z</time>
        <extensions>
          <ns3:TrackPointExtension>
            <ns3:atemp>32.0</ns3:atemp>
            <ns3:hr>95</ns3:hr>
          </ns3:TrackPointExtension>
        </extensions>
      </trkpt>
      <trkpt lat="36.8092100881040096282958984375" lon="-118.39843285270035266876220703125">
        <ele>3228.39990234375</ele>
        <time>2021-06-27T00:21:51.000Z</time>
        <extensions>
          <ns3:TrackPointExtension>
            <ns3:atemp>32.0</ns3:atemp>
            <ns3:hr>96</ns3:hr>
          </ns3:TrackPointExtension>
        </extensions>
      </trkpt>
      <trkpt lat="36.80922039784491062164306640625" lon="-118.39844651520252227783203125">
        <ele>3228.199951171875</ele>
        <time>2021-06-27T00:21:52.000Z</time>
        <extensions>
          <ns3:TrackPointExtension>
            <ns3:atemp>32.0</ns3:atemp>
            <ns3:hr>97</ns3:hr>
          </ns3:TrackPointExtension>
        </extensions>
      </trkpt>
      <trkpt lat="36.8092442862689495086669921875" lon="-118.39847543276846408843994140625">
        <ele>3227.60009765625</ele>
        <time>2021-06-27T00:21:55.000Z</time>
        <extensions>
          <ns3:TrackPointExtension>
            <ns3:atemp>32.0</ns3:atemp>
            <ns3:hr>97</ns3:hr>
          </ns3:TrackPointExtension>
        </extensions>
      </trkpt>
      <trkpt lat="36.80930857546627521514892578125" lon="-118.3985088765621185302734375">
        <ele>3227</ele>
        <time>2021-06-27T00:22:01.000Z</time>
        <extensions>
          <ns3:TrackPointExtension>
            <ns3:atemp>31.0</ns3:atemp>
            <ns3:hr>99</ns3:hr>
          </ns3:TrackPointExtension>
        </extensions>
      </trkpt>
      <trkpt lat="36.8093281053006649017333984375" lon="-118.39851759374141693115234375">
        <ele>3227</ele>
        <time>2021-06-27T00:22:03.000Z</time>
        <extensions>
          <ns3:TrackPointExtension>
            <ns3:atemp>31.0</ns3:atemp>
            <ns3:hr>96</ns3:hr>
          </ns3:TrackPointExtension>
        </extensions>
      </trkpt>
      <trkpt lat="36.8093743734061717987060546875" lon="-118.3985606767237186431884765625">
        <ele>3226.199951171875</ele>
        <time>2021-06-27T00:22:08.000Z</time>
        <extensions>
          <ns3:TrackPointExtension>
            <ns3:atemp>31.0</ns3:atemp>
            <ns3:hr>94</ns3:hr>
          </ns3:TrackPointExtension>
        </extensions>
      </trkpt>
      <trkpt lat="36.809384264051914215087890625" lon="-118.3985653705894947052001953125">
        <ele>3226.199951171875</ele>
        <time>2021-06-27T00:22:09.000Z</time>
        <extensions>
          <ns3:TrackPointExtension>
            <ns3:atemp>31.0</ns3:atemp>
            <ns3:hr>94</ns3:hr>
          </ns3:TrackPointExtension>
        </extensions>
      </trkpt>
      <trkpt lat="36.80939306505024433135986328125" lon="-118.3985667116940021514892578125">
        <ele>3226.199951171875</ele>
        <time>2021-06-27T00:22:10.000Z</time>
        <extensions>
          <ns3:TrackPointExtension>
            <ns3:atemp>31.0</ns3:atemp>
            <ns3:hr>94</ns3:hr>
          </ns3:TrackPointExtension>
        </extensions>
      </trkpt>
      <trkpt lat="36.80944939143955707550048828125" lon="-118.39858054183423519134521484375">
        <ele>3225.39990234375</ele>
        <time>2021-06-27T00:22:15.000Z</time>
        <extensions>
          <ns3:TrackPointExtension>
            <ns3:atemp>31.0</ns3:atemp>
            <ns3:hr>95</ns3:hr>
          </ns3:TrackPointExtension>
        </extensions>
      </trkpt>
      <trkpt lat="36.8094736151397228240966796875" lon="-118.39858490042388439178466796875">
        <ele>3225.199951171875</ele>
        <time>2021-06-27T00:22:17.000Z</time>
        <extensions>
          <ns3:TrackPointExtension>
            <ns3:atemp>31.0</ns3:atemp>
            <ns3:hr>94</ns3:hr>
          </ns3:TrackPointExtension>
        </extensions>
      </trkpt>
      <trkpt lat="36.80953723378479480743408203125" lon="-118.39858288876712322235107421875">
        <ele>3225.60009765625</ele>
        <time>2021-06-27T00:22:24.000Z</time>
        <extensions>
          <ns3:TrackPointExtension>
            <ns3:atemp>31.0</ns3:atemp>
            <ns3:hr>92</ns3:hr>
          </ns3:TrackPointExtension>
        </extensions>
      </trkpt>
      <trkpt lat="36.8096090666949748992919921875" lon="-118.39859210886061191558837890625">
        <ele>3226</ele>
        <time>2021-06-27T00:22:31.000Z</time>
        <extensions>
          <ns3:TrackPointExtension>
            <ns3:atemp>31.0</ns3:atemp>
            <ns3:hr>93</ns3:hr>
          </ns3:TrackPointExtension>
        </extensions>
      </trkpt>
      <trkpt lat="36.80962071754038333892822265625" lon="-118.3985948748886585235595703125">
        <ele>3226</ele>
        <time>2021-06-27T00:22:32.000Z</time>
        <extensions>
          <ns3:TrackPointExtension>
            <ns3:atemp>31.0</ns3:atemp>
            <ns3:hr>94</ns3:hr>
          </ns3:TrackPointExtension>
        </extensions>
      </trkpt>
      <trkpt lat="36.80972255766391754150390625" lon="-118.39862513355910778045654296875">
        <ele>3225.800048828125</ele>
        <time>2021-06-27T00:22:42.000Z</time>
        <extensions>
          <ns3:TrackPointExtension>
            <ns3:atemp>31.0</ns3:atemp>
            <ns3:hr>93</ns3:hr>
          </ns3:TrackPointExtension>
        </extensions>
      </trkpt>
      <trkpt lat="36.80977360345423221588134765625" lon="-118.39865212328732013702392578125">
        <ele>3225.39990234375</ele>
        <time>2021-06-27T00:22:47.000Z</time>
        <extensions>
          <ns3:TrackPointExtension>
            <ns3:atemp>31.0</ns3:atemp>
            <ns3:hr>89</ns3:hr>
          </ns3:TrackPointExtension>
        </extensions>
      </trkpt>
      <trkpt lat="36.80979774333536624908447265625" lon="-118.39866385795176029205322265625">
        <ele>3225.199951171875</ele>
        <time>2021-06-27T00:22:49.000Z</time>
        <extensions>
          <ns3:TrackPointExtension>
            <ns3:atemp>31.0</ns3:atemp>
            <ns3:hr>92</ns3:hr>
          </ns3:TrackPointExtension>
        </extensions>
      </trkpt>
      <trkpt lat="36.8098310194909572601318359375" lon="-118.3986786939203739166259765625">
        <ele>3225.199951171875</ele>
        <time>2021-06-27T00:22:52.000Z</time>
        <extensions>
          <ns3:TrackPointExtension>
            <ns3:atemp>31.0</ns3:atemp>
            <ns3:hr>93</ns3:hr>
          </ns3:TrackPointExtension>
        </extensions>
      </trkpt>
      <trkpt lat="36.80984736420214176177978515625" lon="-118.398683555424213409423828125">
        <ele>3225</ele>
        <time>2021-06-27T00:22:54.000Z</time>
        <extensions>
          <ns3:TrackPointExtension>
            <ns3:atemp>31.0</ns3:atemp>
            <ns3:hr>90</ns3:hr>
          </ns3:TrackPointExtension>
        </extensions>
      </trkpt>
      <trkpt lat="36.8099406547844409942626953125" lon="-118.39868254959583282470703125">
        <ele>3224.60009765625</ele>
        <time>2021-06-27T00:23:03.000Z</time>
        <extensions>
          <ns3:TrackPointExtension>
            <ns3:atemp>31.0</ns3:atemp>
            <ns3:hr>91</ns3:hr>
          </ns3:TrackPointExtension>
        </extensions>
      </trkpt>
      <trkpt lat="36.80999815464019775390625" lon="-118.3987502753734588623046875">
        <ele>3224</ele>
        <time>2021-06-27T00:23:10.000Z</time>
        <extensions>
          <ns3:TrackPointExtension>
            <ns3:atemp>32.0</ns3:atemp>
            <ns3:hr>93</ns3:hr>
          </ns3:TrackPointExtension>
        </extensions>
      </trkpt>
      <trkpt lat="36.81001500226557254791259765625" lon="-118.39880299754440784454345703125">
        <ele>3223.39990234375</ele>
        <time>2021-06-27T00:23:13.000Z</time>
        <extensions>
          <ns3:TrackPointExtension>
            <ns3:atemp>32.0</ns3:atemp>
            <ns3:hr>93</ns3:hr>
          </ns3:TrackPointExtension>
        </extensions>
      </trkpt>
      <trkpt lat="36.810030676424503326416015625" lon="-118.39881238527595996856689453125">
        <ele>3223.39990234375</ele>
        <time>2021-06-27T00:23:18.000Z</time>
        <extensions>
          <ns3:TrackPointExtension>
            <ns3:atemp>32.0</ns3:atemp>
            <ns3:hr>91</ns3:hr>
          </ns3:TrackPointExtension>
        </extensions>
      </trkpt>
      <trkpt lat="36.81003210134804248809814453125" lon="-118.3988119661808013916015625">
        <ele>3223.39990234375</ele>
        <time>2021-06-27T00:23:20.000Z</time>
        <extensions>
          <ns3:TrackPointExtension>
            <ns3:atemp>32.0</ns3:atemp>
            <ns3:hr>91</ns3:hr>
          </ns3:TrackPointExtension>
        </extensions>
      </trkpt>
      <trkpt lat="36.8100449256598949432373046875" lon="-118.398859240114688873291015625">
        <ele>3222.800048828125</ele>
        <time>2021-06-27T00:23:23.000Z</time>
        <extensions>
          <ns3:TrackPointExtension>
            <ns3:atemp>32.0</ns3:atemp>
            <ns3:hr>91</ns3:hr>
          </ns3:TrackPointExtension>
        </extensions>
      </trkpt>
      <trkpt lat="36.810067556798458099365234375" lon="-118.3988964557647705078125">
        <ele>3223</ele>
        <time>2021-06-27T00:23:26.000Z</time>
        <extensions>
          <ns3:TrackPointExtension>
            <ns3:atemp>32.0</ns3:atemp>
            <ns3:hr>92</ns3:hr>
          </ns3:TrackPointExtension>
        </extensions>
      </trkpt>
      <trkpt lat="36.8101022578775882720947265625" lon="-118.39894582517445087432861328125">
        <ele>3223</ele>
        <time>2021-06-27T00:23:31.000Z</time>
        <extensions>
          <ns3:TrackPointExtension>
            <ns3:atemp>32.0</ns3:atemp>
            <ns3:hr>95</ns3:hr>
          </ns3:TrackPointExtension>
        </extensions>
      </trkpt>
      <trkpt lat="36.81010904721915721893310546875" lon="-118.3989502675831317901611328125">
        <ele>3223</ele>
        <time>2021-06-27T00:23:35.000Z</time>
        <extensions>
          <ns3:TrackPointExtension>
            <ns3:atemp>32.0</ns3:atemp>
            <ns3:hr>95</ns3:hr>
          </ns3:TrackPointExtension>
        </extensions>
      </trkpt>
      <trkpt lat="36.81007619015872478485107421875" lon="-118.39888195507228374481201171875">
        <ele>3222.800048828125</ele>
        <time>2021-06-27T00:23:43.000Z</time>
        <extensions>
          <ns3:TrackPointExtension>
            <ns3:atemp>32.0</ns3:atemp>
            <ns3:hr>98</ns3:hr>
          </ns3:TrackPointExtension>
        </extensions>
      </trkpt>
      <trkpt lat="36.81008071638643741607666015625" lon="-118.3988734893500804901123046875">
        <ele>3223</ele>
        <time>2021-06-27T00:23:51.000Z</time>
        <extensions>
          <ns3:TrackPointExtension>
            <ns3:atemp>31.0</ns3:atemp>
            <ns3:hr>99</ns3:hr>
          </ns3:TrackPointExtension>
        </extensions>
      </trkpt>
      <trkpt lat="36.8100838176906108856201171875" lon="-118.39887642301619052886962890625">
        <ele>3223.39990234375</ele>
        <time>2021-06-27T00:24:00.000Z</time>
        <extensions>
          <ns3:TrackPointExtension>
            <ns3:atemp>31.0</ns3:atemp>
            <ns3:hr>96</ns3:hr>
          </ns3:TrackPointExtension>
        </extensions>
      </trkpt>
      <trkpt lat="36.81011910550296306610107421875" lon="-118.39891858398914337158203125">
        <ele>3223.39990234375</ele>
        <time>2021-06-27T00:24:03.000Z</time>
        <extensions>
          <ns3:TrackPointExtension>
            <ns3:atemp>31.0</ns3:atemp>
            <ns3:hr>96</ns3:hr>
          </ns3:TrackPointExtension>
        </extensions>
      </trkpt>
      <trkpt lat="36.81018683128058910369873046875" lon="-118.39902210049331188201904296875">
        <ele>3224</ele>
        <time>2021-06-27T00:24:10.000Z</time>
        <extensions>
          <ns3:TrackPointExtension>
            <ns3:atemp>31.0</ns3:atemp>
            <ns3:hr>96</ns3:hr>
          </ns3:TrackPointExtension>
        </extensions>
      </trkpt>
      <trkpt lat="36.81020091287791728973388671875" lon="-118.3990468271076679229736328125">
        <ele>3224.39990234375</ele>
        <time>2021-06-27T00:24:12.000Z</time>
        <extensions>
          <ns3:TrackPointExtension>
            <ns3:atemp>31.0</ns3:atemp>
            <ns3:hr>97</ns3:hr>
          </ns3:TrackPointExtension>
        </extensions>
      </trkpt>
      <trkpt lat="36.8102588318288326263427734375" lon="-118.3991256169974803924560546875">
        <ele>3225</ele>
        <time>2021-06-27T00:24:19.000Z</time>
        <extensions>
          <ns3:TrackPointExtension>
            <ns3:atemp>31.0</ns3:atemp>
            <ns3:hr>95</ns3:hr>
          </ns3:TrackPointExtension>
        </extensions>
      </trkpt>
      <trkpt lat="36.81028506718575954437255859375" lon="-118.39915730059146881103515625">
        <ele>3225.39990234375</ele>
        <time>2021-06-27T00:24:22.000Z</time>
        <extensions>
          <ns3:TrackPointExtension>
            <ns3:atemp>31.0</ns3:atemp>
            <ns3:hr>94</ns3:hr>
          </ns3:TrackPointExtension>
        </extensions>
      </trkpt>
      <trkpt lat="36.8103027530014514923095703125" lon="-118.3991713821887969970703125">
        <ele>3226.199951171875</ele>
        <time>2021-06-27T00:24:24.000Z</time>
        <extensions>
          <ns3:TrackPointExtension>
            <ns3:atemp>31.0</ns3:atemp>
            <ns3:hr>93</ns3:hr>
          </ns3:TrackPointExtension>
        </extensions>
      </trkpt>
      <trkpt lat="36.81033066473901271820068359375" lon="-118.39918638579547405242919921875">
        <ele>3226.60009765625</ele>
        <time>2021-06-27T00:24:27.000Z</time>
        <extensions>
          <ns3:TrackPointExtension>
            <ns3:atemp>31.0</ns3:atemp>
            <ns3:hr>93</ns3:hr>
          </ns3:TrackPointExtension>
        </extensions>
      </trkpt>
      <trkpt lat="36.810346506536006927490234375" lon="-118.3991933427751064300537109375">
        <ele>3227</ele>
        <time>2021-06-27T00:24:29.000Z</time>
        <extensions>
          <ns3:TrackPointExtension>
            <ns3:atemp>31.0</ns3:atemp>
            <ns3:hr>93</ns3:hr>
          </ns3:TrackPointExtension>
        </extensions>
      </trkpt>
      <trkpt lat="36.81035430170595645904541015625" lon="-118.3991982042789459228515625">
        <ele>3227.199951171875</ele>
        <time>2021-06-27T00:24:30.000Z</time>
        <extensions>
          <ns3:TrackPointExtension>
            <ns3:atemp>31.0</ns3:atemp>
            <ns3:hr>93</ns3:hr>
          </ns3:TrackPointExtension>
        </extensions>
      </trkpt>
      <trkpt lat="36.81037223897874355316162109375" lon="-118.39921119622886180877685546875">
        <ele>3227.39990234375</ele>
        <time>2021-06-27T00:24:32.000Z</time>
        <extensions>
          <ns3:TrackPointExtension>
            <ns3:atemp>31.0</ns3:atemp>
            <ns3:hr>90</ns3:hr>
          </ns3:TrackPointExtension>
        </extensions>
      </trkpt>
      <trkpt lat="36.8103910982608795166015625" lon="-118.39920616708695888519287109375">
        <ele>3227.39990234375</ele>
        <time>2021-06-27T00:24:34.000Z</time>
        <extensions>
          <ns3:TrackPointExtension>
            <ns3:atemp>31.0</ns3:atemp>
            <ns3:hr>97</ns3:hr>
          </ns3:TrackPointExtension>
        </extensions>
      </trkpt>
      <trkpt lat="36.810404844582080841064453125" lon="-118.39919460006058216094970703125">
        <ele>3226.800048828125</ele>
        <time>2021-06-27T00:24:36.000Z</time>
        <extensions>
          <ns3:TrackPointExtension>
            <ns3:atemp>31.0</ns3:atemp>
            <ns3:hr>101</ns3:hr>
          </ns3:TrackPointExtension>
        </extensions>
      </trkpt>
      <trkpt lat="36.8104003183543682098388671875" lon="-118.3991913311183452606201171875">
        <ele>3226.800048828125</ele>
        <time>2021-06-27T00:24:37.000Z</time>
        <extensions>
          <ns3:TrackPointExtension>
            <ns3:atemp>31.0</ns3:atemp>
            <ns3:hr>104</ns3:hr>
          </ns3:TrackPointExtension>
        </extensions>
      </trkpt>
      <trkpt lat="36.8104016594588756561279296875" lon="-118.39918688870966434478759765625">
        <ele>3226.800048828125</ele>
        <time>2021-06-27T00:24:39.000Z</time>
        <extensions>
          <ns3:TrackPointExtension>
            <ns3:atemp>31.0</ns3:atemp>
            <ns3:hr>109</ns3:hr>
          </ns3:TrackPointExtension>
        </extensions>
      </trkpt>
      <trkpt lat="36.81039939634501934051513671875" lon="-118.39918655343353748321533203125">
        <ele>3226.60009765625</ele>
        <time>2021-06-27T00:24:40.000Z</time>
        <extensions>
          <ns3:TrackPointExtension>
            <ns3:atemp>31.0</ns3:atemp>
            <ns3:hr>104</ns3:hr>
          </ns3:TrackPointExtension>
        </extensions>
      </trkpt>
      <trkpt lat="36.81041347794234752655029296875" lon="-118.39921086095273494720458984375">
        <ele>3227.199951171875</ele>
        <time>2021-06-27T00:24:44.000Z</time>
        <extensions>
          <ns3:TrackPointExtension>
            <ns3:atemp>31.0</ns3:atemp>
            <ns3:hr>107</ns3:hr>
          </ns3:TrackPointExtension>
        </extensions>
      </trkpt>
      <trkpt lat="36.8104579858481884002685546875" lon="-118.39926752261817455291748046875">
        <ele>3227.60009765625</ele>
        <time>2021-06-27T00:24:49.000Z</time>
        <extensions>
          <ns3:TrackPointExtension>
            <ns3:atemp>31.0</ns3:atemp>
            <ns3:hr>110</ns3:hr>
          </ns3:TrackPointExtension>
        </extensions>
      </trkpt>
      <trkpt lat="36.810481958091259002685546875" lon="-118.39927825145423412322998046875">
        <ele>3227.60009765625</ele>
        <time>2021-06-27T00:24:52.000Z</time>
        <extensions>
          <ns3:TrackPointExtension>
            <ns3:atemp>31.0</ns3:atemp>
            <ns3:hr>113</ns3:hr>
          </ns3:TrackPointExtension>
        </extensions>
      </trkpt>
      <trkpt lat="36.8104903399944305419921875" lon="-118.3992999605834484100341796875">
        <ele>3227.800048828125</ele>
        <time>2021-06-27T00:24:54.000Z</time>
        <extensions>
          <ns3:TrackPointExtension>
            <ns3:atemp>31.0</ns3:atemp>
            <ns3:hr>116</ns3:hr>
          </ns3:TrackPointExtension>
        </extensions>
      </trkpt>
      <trkpt lat="36.81052847765386104583740234375" lon="-118.3993586339056491851806640625">
        <ele>3227.60009765625</ele>
        <time>2021-06-27T00:25:00.000Z</time>
        <extensions>
          <ns3:TrackPointExtension>
            <ns3:atemp>31.0</ns3:atemp>
            <ns3:hr>115</ns3:hr>
          </ns3:TrackPointExtension>
        </extensions>
      </trkpt>
      <trkpt lat="36.8105659447610378265380859375" lon="-118.3994052372872829437255859375">
        <ele>3227.60009765625</ele>
        <time>2021-06-27T00:25:05.000Z</time>
        <extensions>
          <ns3:TrackPointExtension>
            <ns3:atemp>31.0</ns3:atemp>
            <ns3:hr>119</ns3:hr>
          </ns3:TrackPointExtension>
        </extensions>
      </trkpt>
      <trkpt lat="36.810573823750019073486328125" lon="-118.3994156308472156524658203125">
        <ele>3227.60009765625</ele>
        <time>2021-06-27T00:25:06.000Z</time>
        <extensions>
          <ns3:TrackPointExtension>
            <ns3:atemp>31.0</ns3:atemp>
            <ns3:hr>115</ns3:hr>
          </ns3:TrackPointExtension>
        </extensions>
      </trkpt>
      <trkpt lat="36.8105843849480152130126953125" lon="-118.3994414471089839935302734375">
        <ele>3227</ele>
        <time>2021-06-27T00:25:10.000Z</time>
        <extensions>
          <ns3:TrackPointExtension>
            <ns3:atemp>31.0</ns3:atemp>
            <ns3:hr>115</ns3:hr>
          </ns3:TrackPointExtension>
        </extensions>
      </trkpt>
      <trkpt lat="36.81058430112898349761962890625" lon="-118.39944521896541118621826171875">
        <ele>3227</ele>
        <time>2021-06-27T00:25:14.000Z</time>
        <extensions>
          <ns3:TrackPointExtension>
            <ns3:atemp>31.0</ns3:atemp>
            <ns3:hr>112</ns3:hr>
          </ns3:TrackPointExtension>
        </extensions>
      </trkpt>
      <trkpt lat="36.81057809852063655853271484375" lon="-118.39944572187960147857666015625">
        <ele>3227.199951171875</ele>
        <time>2021-06-27T00:25:21.000Z</time>
        <extensions>
          <ns3:TrackPointExtension>
            <ns3:atemp>31.0</ns3:atemp>
            <ns3:hr>109</ns3:hr>
          </ns3:TrackPointExtension>
        </extensions>
      </trkpt>
      <trkpt lat="36.810582540929317474365234375" lon="-118.399477489292621612548828125">
        <ele>3227.800048828125</ele>
        <time>2021-06-27T00:25:38.000Z</time>
        <extensions>
          <ns3:TrackPointExtension>
            <ns3:atemp>31.0</ns3:atemp>
            <ns3:hr>108</ns3:hr>
          </ns3:TrackPointExtension>
        </extensions>
      </trkpt>
      <trkpt lat="36.810590922832489013671875" lon="-118.39954261668026447296142578125">
        <ele>3228.199951171875</ele>
        <time>2021-06-27T00:25:42.000Z</time>
        <extensions>
          <ns3:TrackPointExtension>
            <ns3:atemp>31.0</ns3:atemp>
            <ns3:hr>105</ns3:hr>
          </ns3:TrackPointExtension>
        </extensions>
      </trkpt>
      <trkpt lat="36.8105894140899181365966796875" lon="-118.39955334551632404327392578125">
        <ele>3228.60009765625</ele>
        <time>2021-06-27T00:25:43.000Z</time>
        <extensions>
          <ns3:TrackPointExtension>
            <ns3:atemp>31.0</ns3:atemp>
            <ns3:hr>105</ns3:hr>
          </ns3:TrackPointExtension>
        </extensions>
      </trkpt>
      <trkpt lat="36.8105860613286495208740234375" lon="-118.39959559030830860137939453125">
        <ele>3228.800048828125</ele>
        <time>2021-06-27T00:25:46.000Z</time>
        <extensions>
          <ns3:TrackPointExtension>
            <ns3:atemp>31.0</ns3:atemp>
            <ns3:hr>105</ns3:hr>
          </ns3:TrackPointExtension>
        </extensions>
      </trkpt>
      <trkpt lat="36.810581199824810028076171875" lon="-118.39965409599244594573974609375">
        <ele>3228.800048828125</ele>
        <time>2021-06-27T00:25:52.000Z</time>
        <extensions>
          <ns3:TrackPointExtension>
            <ns3:atemp>31.0</ns3:atemp>
            <ns3:hr>102</ns3:hr>
          </ns3:TrackPointExtension>
        </extensions>
      </trkpt>
      <trkpt lat="36.81058564223349094390869140625" lon="-118.39967169798910617828369140625">
        <ele>3228.800048828125</ele>
        <time>2021-06-27T00:25:55.000Z</time>
        <extensions>
          <ns3:TrackPointExtension>
            <ns3:atemp>31.0</ns3:atemp>
            <ns3:hr>101</ns3:hr>
          </ns3:TrackPointExtension>
        </extensions>
      </trkpt>
      <trkpt lat="36.81058731861412525177001953125" lon="-118.3996721170842647552490234375">
        <ele>3229</ele>
        <time>2021-06-27T00:25:56.000Z</time>
        <extensions>
          <ns3:TrackPointExtension>
            <ns3:atemp>31.0</ns3:atemp>
            <ns3:hr>100</ns3:hr>
          </ns3:TrackPointExtension>
        </extensions>
      </trkpt>
      <trkpt lat="36.8105894140899181365966796875" lon="-118.39968309737741947174072265625">
        <ele>3229</ele>
        <time>2021-06-27T00:25:58.000Z</time>
        <extensions>
          <ns3:TrackPointExtension>
            <ns3:atemp>31.0</ns3:atemp>
            <ns3:hr>100</ns3:hr>
          </ns3:TrackPointExtension>
        </extensions>
      </trkpt>
      <trkpt lat="36.81059972383081912994384765625" lon="-118.3997210673987865447998046875">
        <ele>3228.60009765625</ele>
        <time>2021-06-27T00:26:03.000Z</time>
        <extensions>
          <ns3:TrackPointExtension>
            <ns3:atemp>31.0</ns3:atemp>
            <ns3:hr>98</ns3:hr>
          </ns3:TrackPointExtension>
        </extensions>
      </trkpt>
      <trkpt lat="36.81060475297272205352783203125" lon="-118.39979834854602813720703125">
        <ele>3228.60009765625</ele>
        <time>2021-06-27T00:26:10.000Z</time>
        <extensions>
          <ns3:TrackPointExtension>
            <ns3:atemp>31.0</ns3:atemp>
            <ns3:hr>96</ns3:hr>
          </ns3:TrackPointExtension>
        </extensions>
      </trkpt>
      <trkpt lat="36.81060307659208774566650390625" lon="-118.39990119449794292449951171875">
        <ele>3229</ele>
        <time>2021-06-27T00:26:18.000Z</time>
        <extensions>
          <ns3:TrackPointExtension>
            <ns3:atemp>31.0</ns3:atemp>
            <ns3:hr>95</ns3:hr>
          </ns3:TrackPointExtension>
        </extensions>
      </trkpt>
      <trkpt lat="36.81057994253933429718017578125" lon="-118.39994452893733978271484375">
        <ele>3229</ele>
        <time>2021-06-27T00:26:23.000Z</time>
        <extensions>
          <ns3:TrackPointExtension>
            <ns3:atemp>31.0</ns3:atemp>
            <ns3:hr>92</ns3:hr>
          </ns3:TrackPointExtension>
        </extensions>
      </trkpt>
      <trkpt lat="36.81057055480778217315673828125" lon="-118.39994729496538639068603515625">
        <ele>3228.800048828125</ele>
        <time>2021-06-27T00:26:25.000Z</time>
        <extensions>
          <ns3:TrackPointExtension>
            <ns3:atemp>31.0</ns3:atemp>
            <ns3:hr>93</ns3:hr>
          </ns3:TrackPointExtension>
        </extensions>
      </trkpt>
      <trkpt lat="36.81056150235235691070556640625" lon="-118.39995031245052814483642578125">
        <ele>3228.60009765625</ele>
        <time>2021-06-27T00:26:26.000Z</time>
        <extensions>
          <ns3:TrackPointExtension>
            <ns3:atemp>31.0</ns3:atemp>
            <ns3:hr>93</ns3:hr>
          </ns3:TrackPointExtension>
        </extensions>
      </trkpt>
      <trkpt lat="36.8105354346334934234619140625" lon="-118.3999550901353359222412109375">
        <ele>3228.60009765625</ele>
        <time>2021-06-27T00:26:28.000Z</time>
        <extensions>
          <ns3:TrackPointExtension>
            <ns3:atemp>31.0</ns3:atemp>
            <ns3:hr>95</ns3:hr>
          </ns3:TrackPointExtension>
        </extensions>
      </trkpt>
      <trkpt lat="36.8105163238942623138427734375" lon="-118.3999742008745670318603515625">
        <ele>3228.199951171875</ele>
        <time>2021-06-27T00:26:30.000Z</time>
        <extensions>
          <ns3:TrackPointExtension>
            <ns3:atemp>31.0</ns3:atemp>
            <ns3:hr>98</ns3:hr>
          </ns3:TrackPointExtension>
        </extensions>
      </trkpt>
      <trkpt lat="36.81050651706755161285400390625" lon="-118.39999951422214508056640625">
        <ele>3228</ele>
        <time>2021-06-27T00:26:32.000Z</time>
        <extensions>
          <ns3:TrackPointExtension>
            <ns3:atemp>31.0</ns3:atemp>
            <ns3:hr>100</ns3:hr>
          </ns3:TrackPointExtension>
        </extensions>
      </trkpt>
      <trkpt lat="36.81050777435302734375" lon="-118.4000348858535289764404296875">
        <ele>3228</ele>
        <time>2021-06-27T00:26:34.000Z</time>
        <extensions>
          <ns3:TrackPointExtension>
            <ns3:atemp>31.0</ns3:atemp>
            <ns3:hr>103</ns3:hr>
          </ns3:TrackPointExtension>
        </extensions>
      </trkpt>
      <trkpt lat="36.81050685234367847442626953125" lon="-118.40004888363182544708251953125">
        <ele>3228</ele>
        <time>2021-06-27T00:26:35.000Z</time>
        <extensions>
          <ns3:TrackPointExtension>
            <ns3:atemp>31.0</ns3:atemp>
            <ns3:hr>104</ns3:hr>
          </ns3:TrackPointExtension>
        </extensions>
      </trkpt>
      <trkpt lat="36.8105173297226428985595703125" lon="-118.4001203812658786773681640625">
        <ele>3228.39990234375</ele>
        <time>2021-06-27T00:26:41.000Z</time>
        <extensions>
          <ns3:TrackPointExtension>
            <ns3:atemp>31.0</ns3:atemp>
            <ns3:hr>104</ns3:hr>
          </ns3:TrackPointExtension>
        </extensions>
      </trkpt>
      <trkpt lat="36.81050710380077362060546875" lon="-118.40012314729392528533935546875">
        <ele>3228.39990234375</ele>
        <time>2021-06-27T00:26:43.000Z</time>
        <extensions>
          <ns3:TrackPointExtension>
            <ns3:atemp>31.0</ns3:atemp>
            <ns3:hr>105</ns3:hr>
          </ns3:TrackPointExtension>
        </extensions>
      </trkpt>
      <trkpt lat="36.81049277074635028839111328125" lon="-118.4001113288104534149169921875">
        <ele>3228.800048828125</ele>
        <time>2021-06-27T00:26:46.000Z</time>
        <extensions>
          <ns3:TrackPointExtension>
            <ns3:atemp>31.0</ns3:atemp>
            <ns3:hr>104</ns3:hr>
          </ns3:TrackPointExtension>
        </extensions>
      </trkpt>
      <trkpt lat="36.81048371829092502593994140625" lon="-118.40011510066688060760498046875">
        <ele>3228.800048828125</ele>
        <time>2021-06-27T00:26:47.000Z</time>
        <extensions>
          <ns3:TrackPointExtension>
            <ns3:atemp>31.0</ns3:atemp>
            <ns3:hr>102</ns3:hr>
          </ns3:TrackPointExtension>
        </extensions>
      </trkpt>
      <trkpt lat="36.8104221113026142120361328125" lon="-118.4001036174595355987548828125">
        <ele>3228.39990234375</ele>
        <time>2021-06-27T00:26:56.000Z</time>
        <extensions>
          <ns3:TrackPointExtension>
            <ns3:atemp>31.0</ns3:atemp>
            <ns3:hr>102</ns3:hr>
          </ns3:TrackPointExtension>
        </extensions>
      </trkpt>
      <trkpt lat="36.8103855662047863006591796875" lon="-118.4001140110194683074951171875">
        <ele>3228.39990234375</ele>
        <time>2021-06-27T00:27:01.000Z</time>
        <extensions>
          <ns3:TrackPointExtension>
            <ns3:atemp>31.0</ns3:atemp>
            <ns3:hr>98</ns3:hr>
          </ns3:TrackPointExtension>
        </extensions>
      </trkpt>
      <trkpt lat="36.810352541506290435791015625" lon="-118.4001103229820728302001953125">
        <ele>3228.39990234375</ele>
        <time>2021-06-27T00:27:05.000Z</time>
        <extensions>
          <ns3:TrackPointExtension>
            <ns3:atemp>31.0</ns3:atemp>
            <ns3:hr>99</ns3:hr>
          </ns3:TrackPointExtension>
        </extensions>
      </trkpt>
      <trkpt lat="36.8103466741740703582763671875" lon="-118.40011225081980228424072265625">
        <ele>3228.39990234375</ele>
        <time>2021-06-27T00:27:06.000Z</time>
        <extensions>
          <ns3:TrackPointExtension>
            <ns3:atemp>31.0</ns3:atemp>
            <ns3:hr>99</ns3:hr>
          </ns3:TrackPointExtension>
        </extensions>
      </trkpt>
      <trkpt lat="36.81031675077974796295166015625" lon="-118.4001146815717220306396484375">
        <ele>3227</ele>
        <time>2021-06-27T00:27:11.000Z</time>
        <extensions>
          <ns3:TrackPointExtension>
            <ns3:atemp>31.0</ns3:atemp>
            <ns3:hr>99</ns3:hr>
          </ns3:TrackPointExtension>
        </extensions>
      </trkpt>
      <trkpt lat="36.81030015461146831512451171875" lon="-118.40012080036103725433349609375">
        <ele>3226.39990234375</ele>
        <time>2021-06-27T00:27:13.000Z</time>
        <extensions>
          <ns3:TrackPointExtension>
            <ns3:atemp>31.0</ns3:atemp>
            <ns3:hr>98</ns3:hr>
          </ns3:TrackPointExtension>
        </extensions>
      </trkpt>
      <trkpt lat="36.810229159891605377197265625" lon="-118.4000915475189685821533203125">
        <ele>3226</ele>
        <time>2021-06-27T00:27:22.000Z</time>
        <extensions>
          <ns3:TrackPointExtension>
            <ns3:atemp>31.0</ns3:atemp>
            <ns3:hr>98</ns3:hr>
          </ns3:TrackPointExtension>
        </extensions>
      </trkpt>
      <trkpt lat="36.81021147407591342926025390625" lon="-118.40009163133800029754638671875">
        <ele>3226.199951171875</ele>
        <time>2021-06-27T00:27:26.000Z</time>
        <extensions>
          <ns3:TrackPointExtension>
            <ns3:atemp>31.0</ns3:atemp>
            <ns3:hr>97</ns3:hr>
          </ns3:TrackPointExtension>
        </extensions>
      </trkpt>
      <trkpt lat="36.81022169999778270721435546875" lon="-118.40011023916304111480712890625">
        <ele>3226.39990234375</ele>
        <time>2021-06-27T00:27:29.000Z</time>
        <extensions>
          <ns3:TrackPointExtension>
            <ns3:atemp>31.0</ns3:atemp>
            <ns3:hr>97</ns3:hr>
          </ns3:TrackPointExtension>
        </extensions>
      </trkpt>
      <trkpt lat="36.8102301657199859619140625" lon="-118.40013622306287288665771484375">
        <ele>3226.60009765625</ele>
        <time>2021-06-27T00:27:31.000Z</time>
        <extensions>
          <ns3:TrackPointExtension>
            <ns3:atemp>31.0</ns3:atemp>
            <ns3:hr>98</ns3:hr>
          </ns3:TrackPointExtension>
        </extensions>
      </trkpt>
      <trkpt lat="36.81022589094936847686767578125" lon="-118.4001378156244754791259765625">
        <ele>3226.60009765625</ele>
        <time>2021-06-27T00:27:41.000Z</time>
        <extensions>
          <ns3:TrackPointExtension>
            <ns3:atemp>30.0</ns3:atemp>
            <ns3:hr>96</ns3:hr>
          </ns3:TrackPointExtension>
        </extensions>
      </trkpt>
      <trkpt lat="36.81023829616606235504150390625" lon="-118.40016270987689495086669921875">
        <ele>3226.60009765625</ele>
        <time>2021-06-27T00:28:06.000Z</time>
        <extensions>
          <ns3:TrackPointExtension>
            <ns3:atemp>30.0</ns3:atemp>
            <ns3:hr>93</ns3:hr>
          </ns3:TrackPointExtension>
        </extensions>
      </trkpt>
      <trkpt lat="36.810274086892604827880859375" lon="-118.400210402905941009521484375">
        <ele>3226.60009765625</ele>
        <time>2021-06-27T00:28:21.000Z</time>
        <extensions>
          <ns3:TrackPointExtension>
            <ns3:atemp>30.0</ns3:atemp>
            <ns3:hr>96</ns3:hr>
          </ns3:TrackPointExtension>
        </extensions>
      </trkpt>
      <trkpt lat="36.81027417071163654327392578125" lon="-118.40024049393832683563232421875">
        <ele>3226.60009765625</ele>
        <time>2021-06-27T00:28:27.000Z</time>
        <extensions>
          <ns3:TrackPointExtension>
            <ns3:atemp>30.0</ns3:atemp>
            <ns3:hr>99</ns3:hr>
          </ns3:TrackPointExtension>
        </extensions>
      </trkpt>
      <trkpt lat="36.810275427997112274169921875" lon="-118.4002417512238025665283203125">
        <ele>3226.60009765625</ele>
        <time>2021-06-27T00:28:30.000Z</time>
        <extensions>
          <ns3:TrackPointExtension>
            <ns3:atemp>30.0</ns3:atemp>
            <ns3:hr>102</ns3:hr>
          </ns3:TrackPointExtension>
        </extensions>
      </trkpt>
      <trkpt lat="36.8102776072919368743896484375" lon="-118.40024183504283428192138671875">
        <ele>3226.60009765625</ele>
        <time>2021-06-27T00:28:33.000Z</time>
        <extensions>
          <ns3:TrackPointExtension>
            <ns3:atemp>30.0</ns3:atemp>
            <ns3:hr>104</ns3:hr>
          </ns3:TrackPointExtension>
        </extensions>
      </trkpt>
      <trkpt lat="36.81033334694802761077880859375" lon="-118.40020244009792804718017578125">
        <ele>3226.60009765625</ele>
        <time>2021-06-27T00:28:39.000Z</time>
        <extensions>
          <ns3:TrackPointExtension>
            <ns3:atemp>30.0</ns3:atemp>
            <ns3:hr>104</ns3:hr>
          </ns3:TrackPointExtension>
        </extensions>
      </trkpt>
      <trkpt lat="36.8104045093059539794921875" lon="-118.400150723755359649658203125">
        <ele>3226.60009765625</ele>
        <time>2021-06-27T00:28:45.000Z</time>
        <extensions>
          <ns3:TrackPointExtension>
            <ns3:atemp>30.0</ns3:atemp>
            <ns3:hr>107</ns3:hr>
          </ns3:TrackPointExtension>
        </extensions>
      </trkpt>
      <trkpt lat="36.8104204349219799041748046875" lon="-118.40014862827956676483154296875">
        <ele>3226.60009765625</ele>
        <time>2021-06-27T00:28:47.000Z</time>
        <extensions>
          <ns3:TrackPointExtension>
            <ns3:atemp>30.0</ns3:atemp>
            <ns3:hr>107</ns3:hr>
          </ns3:TrackPointExtension>
        </extensions>
      </trkpt>
      <trkpt lat="36.810437031090259552001953125" lon="-118.40014125220477581024169921875">
        <ele>3226.39990234375</ele>
        <time>2021-06-27T00:28:51.000Z</time>
        <extensions>
          <ns3:TrackPointExtension>
            <ns3:atemp>30.0</ns3:atemp>
            <ns3:hr>108</ns3:hr>
          </ns3:TrackPointExtension>
        </extensions>
      </trkpt>
      <trkpt lat="36.81043124757707118988037109375" lon="-118.4001274220645427703857421875">
        <ele>3226.39990234375</ele>
        <time>2021-06-27T00:28:54.000Z</time>
        <extensions>
          <ns3:TrackPointExtension>
            <ns3:atemp>30.0</ns3:atemp>
            <ns3:hr>108</ns3:hr>
          </ns3:TrackPointExtension>
        </extensions>
      </trkpt>
      <trkpt lat="36.81041900999844074249267578125" lon="-118.40009816922247409820556640625">
        <ele>3226.199951171875</ele>
        <time>2021-06-27T00:28:58.000Z</time>
        <extensions>
          <ns3:TrackPointExtension>
            <ns3:atemp>30.0</ns3:atemp>
            <ns3:hr>105</ns3:hr>
          </ns3:TrackPointExtension>
        </extensions>
      </trkpt>
      <trkpt lat="36.81043460033833980560302734375" lon="-118.4001160226762294769287109375">
        <ele>3226.800048828125</ele>
        <time>2021-06-27T00:29:01.000Z</time>
        <extensions>
          <ns3:TrackPointExtension>
            <ns3:atemp>30.0</ns3:atemp>
            <ns3:hr>104</ns3:hr>
          </ns3:TrackPointExtension>
        </extensions>
      </trkpt>
      <trkpt lat="36.81048723869025707244873046875" lon="-118.4001200459897518157958984375">
        <ele>3227</ele>
        <time>2021-06-27T00:29:06.000Z</time>
        <extensions>
          <ns3:TrackPointExtension>
            <ns3:atemp>30.0</ns3:atemp>
            <ns3:hr>107</ns3:hr>
          </ns3:TrackPointExtension>
        </extensions>
      </trkpt>
      <trkpt lat="36.81051741354167461395263671875" lon="-118.4001230634748935699462890625">
        <ele>3227.199951171875</ele>
        <time>2021-06-27T00:29:09.000Z</time>
        <extensions>
          <ns3:TrackPointExtension>
            <ns3:atemp>30.0</ns3:atemp>
            <ns3:hr>110</ns3:hr>
          </ns3:TrackPointExtension>
        </extensions>
      </trkpt>
      <trkpt lat="36.8105708062648773193359375" lon="-118.400119878351688385009765625">
        <ele>3227.199951171875</ele>
        <time>2021-06-27T00:29:15.000Z</time>
        <extensions>
          <ns3:TrackPointExtension>
            <ns3:atemp>30.0</ns3:atemp>
            <ns3:hr>113</ns3:hr>
          </ns3:TrackPointExtension>
        </extensions>
      </trkpt>
      <trkpt lat="36.81058111600577831268310546875" lon="-118.4001361392438411712646484375">
        <ele>3226.60009765625</ele>
        <time>2021-06-27T00:29:17.000Z</time>
        <extensions>
          <ns3:TrackPointExtension>
            <ns3:atemp>30.0</ns3:atemp>
            <ns3:hr>112</ns3:hr>
          </ns3:TrackPointExtension>
        </extensions>
      </trkpt>
      <trkpt lat="36.81059695780277252197265625" lon="-118.4001555852591991424560546875">
        <ele>3226.199951171875</ele>
        <time>2021-06-27T00:29:19.000Z</time>
        <extensions>
          <ns3:TrackPointExtension>
            <ns3:atemp>30.0</ns3:atemp>
            <ns3:hr>109</ns3:hr>
          </ns3:TrackPointExtension>
        </extensions>
      </trkpt>
      <trkpt lat="36.81060324423015117645263671875" lon="-118.40016673319041728973388671875">
        <ele>3226.199951171875</ele>
        <time>2021-06-27T00:29:20.000Z</time>
        <extensions>
          <ns3:TrackPointExtension>
            <ns3:atemp>30.0</ns3:atemp>
            <ns3:hr>106</ns3:hr>
          </ns3:TrackPointExtension>
        </extensions>
      </trkpt>
      <trkpt lat="36.8106083571910858154296875" lon="-118.4001803956925868988037109375">
        <ele>3226.199951171875</ele>
        <time>2021-06-27T00:29:21.000Z</time>
        <extensions>
          <ns3:TrackPointExtension>
            <ns3:atemp>30.0</ns3:atemp>
            <ns3:hr>109</ns3:hr>
          </ns3:TrackPointExtension>
        </extensions>
      </trkpt>
      <trkpt lat="36.81062017567455768585205078125" lon="-118.40024032630026340484619140625">
        <ele>3226.199951171875</ele>
        <time>2021-06-27T00:29:25.000Z</time>
        <extensions>
          <ns3:TrackPointExtension>
            <ns3:atemp>30.0</ns3:atemp>
            <ns3:hr>109</ns3:hr>
          </ns3:TrackPointExtension>
        </extensions>
      </trkpt>
      <trkpt lat="36.81062989868223667144775390625" lon="-118.40027016587555408477783203125">
        <ele>3226</ele>
        <time>2021-06-27T00:29:27.000Z</time>
        <extensions>
          <ns3:TrackPointExtension>
            <ns3:atemp>30.0</ns3:atemp>
            <ns3:hr>108</ns3:hr>
          </ns3:TrackPointExtension>
        </extensions>
      </trkpt>
      <trkpt lat="36.810642890632152557373046875" lon="-118.400299251079559326171875">
        <ele>3225.60009765625</ele>
        <time>2021-06-27T00:29:30.000Z</time>
        <extensions>
          <ns3:TrackPointExtension>
            <ns3:atemp>30.0</ns3:atemp>
            <ns3:hr>111</ns3:hr>
          </ns3:TrackPointExtension>
        </extensions>
      </trkpt>
      <trkpt lat="36.81065990589559078216552734375" lon="-118.4003057889640331268310546875">
        <ele>3225.39990234375</ele>
        <time>2021-06-27T00:29:32.000Z</time>
        <extensions>
          <ns3:TrackPointExtension>
            <ns3:atemp>30.0</ns3:atemp>
            <ns3:hr>112</ns3:hr>
          </ns3:TrackPointExtension>
        </extensions>
      </trkpt>
      <trkpt lat="36.81070432998239994049072265625" lon="-118.4003704972565174102783203125">
        <ele>3225.199951171875</ele>
        <time>2021-06-27T00:29:40.000Z</time>
        <extensions>
          <ns3:TrackPointExtension>
            <ns3:atemp>30.0</ns3:atemp>
            <ns3:hr>113</ns3:hr>
          </ns3:TrackPointExtension>
        </extensions>
      </trkpt>
      <trkpt lat="36.81070650927722454071044921875" lon="-118.4003798849880695343017578125">
        <ele>3224.800048828125</ele>
        <time>2021-06-27T00:29:41.000Z</time>
        <extensions>
          <ns3:TrackPointExtension>
            <ns3:atemp>30.0</ns3:atemp>
            <ns3:hr>113</ns3:hr>
          </ns3:TrackPointExtension>
        </extensions>
      </trkpt>
      <trkpt lat="36.8107397854328155517578125" lon="-118.4004697389900684356689453125">
        <ele>3224</ele>
        <time>2021-06-27T00:29:49.000Z</time>
        <extensions>
          <ns3:TrackPointExtension>
            <ns3:atemp>30.0</ns3:atemp>
            <ns3:hr>112</ns3:hr>
          </ns3:TrackPointExtension>
        </extensions>
      </trkpt>
      <trkpt lat="36.810746155679225921630859375" lon="-118.40047971345484256744384765625">
        <ele>3223.39990234375</ele>
        <time>2021-06-27T00:29:50.000Z</time>
        <extensions>
          <ns3:TrackPointExtension>
            <ns3:atemp>30.0</ns3:atemp>
            <ns3:hr>111</ns3:hr>
          </ns3:TrackPointExtension>
        </extensions>
      </trkpt>
      <trkpt lat="36.8107979558408260345458984375" lon="-118.40053754858672618865966796875">
        <ele>3222.800048828125</ele>
        <time>2021-06-27T00:29:57.000Z</time>
        <extensions>
          <ns3:TrackPointExtension>
            <ns3:atemp>30.0</ns3:atemp>
            <ns3:hr>115</ns3:hr>
          </ns3:TrackPointExtension>
        </extensions>
      </trkpt>
      <trkpt lat="36.8108277954161167144775390625" lon="-118.400536961853504180908203125">
        <ele>3223</ele>
        <time>2021-06-27T00:29:59.000Z</time>
        <extensions>
          <ns3:TrackPointExtension>
            <ns3:atemp>30.0</ns3:atemp>
            <ns3:hr>112</ns3:hr>
          </ns3:TrackPointExtension>
        </extensions>
      </trkpt>
      <trkpt lat="36.8108415417373180389404296875" lon="-118.4005393087863922119140625">
        <ele>3223</ele>
        <time>2021-06-27T00:30:00.000Z</time>
        <extensions>
          <ns3:TrackPointExtension>
            <ns3:atemp>30.0</ns3:atemp>
            <ns3:hr>111</ns3:hr>
          </ns3:TrackPointExtension>
        </extensions>
      </trkpt>
      <trkpt lat="36.81089870631694793701171875" lon="-118.4005465172231197357177734375">
        <ele>3223</ele>
        <time>2021-06-27T00:30:05.000Z</time>
        <extensions>
          <ns3:TrackPointExtension>
            <ns3:atemp>30.0</ns3:atemp>
            <ns3:hr>108</ns3:hr>
          </ns3:TrackPointExtension>
        </extensions>
      </trkpt>
      <trkpt lat="36.81091890670359134674072265625" lon="-118.40055397711694240570068359375">
        <ele>3223</ele>
        <time>2021-06-27T00:30:07.000Z</time>
        <extensions>
          <ns3:TrackPointExtension>
            <ns3:atemp>30.0</ns3:atemp>
            <ns3:hr>105</ns3:hr>
          </ns3:TrackPointExtension>
        </extensions>
      </trkpt>
      <trkpt lat="36.8109474889934062957763671875" lon="-118.400564454495906829833984375">
        <ele>3223</ele>
        <time>2021-06-27T00:30:10.000Z</time>
        <extensions>
          <ns3:TrackPointExtension>
            <ns3:atemp>30.0</ns3:atemp>
            <ns3:hr>109</ns3:hr>
          </ns3:TrackPointExtension>
        </extensions>
      </trkpt>
      <trkpt lat="36.81097087450325489044189453125" lon="-118.4005890972912311553955078125">
        <ele>3223.39990234375</ele>
        <time>2021-06-27T00:30:15.000Z</time>
        <extensions>
          <ns3:TrackPointExtension>
            <ns3:atemp>31.0</ns3:atemp>
            <ns3:hr>107</ns3:hr>
          </ns3:TrackPointExtension>
        </extensions>
      </trkpt>
      <trkpt lat="36.8109719641506671905517578125" lon="-118.40060259215533733367919921875">
        <ele>3223.39990234375</ele>
        <time>2021-06-27T00:30:16.000Z</time>
        <extensions>
          <ns3:TrackPointExtension>
            <ns3:atemp>31.0</ns3:atemp>
            <ns3:hr>106</ns3:hr>
          </ns3:TrackPointExtension>
        </extensions>
      </trkpt>
      <trkpt lat="36.810974143445491790771484375" lon="-118.4006122313439846038818359375">
        <ele>3223.39990234375</ele>
        <time>2021-06-27T00:30:17.000Z</time>
        <extensions>
          <ns3:TrackPointExtension>
            <ns3:atemp>31.0</ns3:atemp>
            <ns3:hr>102</ns3:hr>
          </ns3:TrackPointExtension>
        </extensions>
      </trkpt>
      <trkpt lat="36.81099434383213520050048828125" lon="-118.400649614632129669189453125">
        <ele>3223.60009765625</ele>
        <time>2021-06-27T00:30:21.000Z</time>
        <extensions>
          <ns3:TrackPointExtension>
            <ns3:atemp>31.0</ns3:atemp>
            <ns3:hr>105</ns3:hr>
          </ns3:TrackPointExtension>
        </extensions>
      </trkpt>
      <trkpt lat="36.811006329953670501708984375" lon="-118.400670401751995086669921875">
        <ele>3223.199951171875</ele>
        <time>2021-06-27T00:30:23.000Z</time>
        <extensions>
          <ns3:TrackPointExtension>
            <ns3:atemp>31.0</ns3:atemp>
            <ns3:hr>105</ns3:hr>
          </ns3:TrackPointExtension>
        </extensions>
      </trkpt>
      <trkpt lat="36.81103608570992946624755859375" lon="-118.400697894394397735595703125">
        <ele>3223.60009765625</ele>
        <time>2021-06-27T00:30:26.000Z</time>
        <extensions>
          <ns3:TrackPointExtension>
            <ns3:atemp>31.0</ns3:atemp>
            <ns3:hr>105</ns3:hr>
          </ns3:TrackPointExtension>
        </extensions>
      </trkpt>
      <trkpt lat="36.81109878234565258026123046875" lon="-118.40075095184147357940673828125">
        <ele>3223.199951171875</ele>
        <time>2021-06-27T00:30:33.000Z</time>
        <extensions>
          <ns3:TrackPointExtension>
            <ns3:atemp>31.0</ns3:atemp>
            <ns3:hr>103</ns3:hr>
          </ns3:TrackPointExtension>
        </extensions>
      </trkpt>
      <trkpt lat="36.8111121095716953277587890625" lon="-118.40076084248721599578857421875">
        <ele>3223</ele>
        <time>2021-06-27T00:30:35.000Z</time>
        <extensions>
          <ns3:TrackPointExtension>
            <ns3:atemp>31.0</ns3:atemp>
            <ns3:hr>104</ns3:hr>
          </ns3:TrackPointExtension>
        </extensions>
      </trkpt>
      <trkpt lat="36.8111104331910610198974609375" lon="-118.40075648389756679534912109375">
        <ele>3222.60009765625</ele>
        <time>2021-06-27T00:30:37.000Z</time>
        <extensions>
          <ns3:TrackPointExtension>
            <ns3:atemp>31.0</ns3:atemp>
            <ns3:hr>103</ns3:hr>
          </ns3:TrackPointExtension>
        </extensions>
      </trkpt>
      <trkpt lat="36.8111064098775386810302734375" lon="-118.4007540531456470489501953125">
        <ele>3222.39990234375</ele>
        <time>2021-06-27T00:30:38.000Z</time>
        <extensions>
          <ns3:TrackPointExtension>
            <ns3:atemp>31.0</ns3:atemp>
            <ns3:hr>101</ns3:hr>
          </ns3:TrackPointExtension>
        </extensions>
      </trkpt>
      <trkpt lat="36.811104230582714080810546875" lon="-118.40075564570724964141845703125">
        <ele>3222.199951171875</ele>
        <time>2021-06-27T00:30:39.000Z</time>
        <extensions>
          <ns3:TrackPointExtension>
            <ns3:atemp>31.0</ns3:atemp>
            <ns3:hr>103</ns3:hr>
          </ns3:TrackPointExtension>
        </extensions>
      </trkpt>
      <trkpt lat="36.81110112927854061126708984375" lon="-118.4007647819817066192626953125">
        <ele>3222.199951171875</ele>
        <time>2021-06-27T00:30:42.000Z</time>
        <extensions>
          <ns3:TrackPointExtension>
            <ns3:atemp>31.0</ns3:atemp>
            <ns3:hr>104</ns3:hr>
          </ns3:TrackPointExtension>
        </extensions>
      </trkpt>
      <trkpt lat="36.81110163219273090362548828125" lon="-118.4007681347429752349853515625">
        <ele>3222.39990234375</ele>
        <time>2021-06-27T00:30:43.000Z</time>
        <extensions>
          <ns3:TrackPointExtension>
            <ns3:atemp>31.0</ns3:atemp>
            <ns3:hr>104</ns3:hr>
          </ns3:TrackPointExtension>
        </extensions>
      </trkpt>
      <trkpt lat="36.81113968603312969207763671875" lon="-118.40081012807786464691162109375">
        <ele>3222.60009765625</ele>
        <time>2021-06-27T00:30:49.000Z</time>
        <extensions>
          <ns3:TrackPointExtension>
            <ns3:atemp>31.0</ns3:atemp>
            <ns3:hr>105</ns3:hr>
          </ns3:TrackPointExtension>
        </extensions>
      </trkpt>
      <trkpt lat="36.81119316257536411285400390625" lon="-118.40085606090724468231201171875">
        <ele>3223.60009765625</ele>
        <time>2021-06-27T00:30:56.000Z</time>
        <extensions>
          <ns3:TrackPointExtension>
            <ns3:atemp>31.0</ns3:atemp>
            <ns3:hr>106</ns3:hr>
          </ns3:TrackPointExtension>
        </extensions>
      </trkpt>
      <trkpt lat="36.81121931411325931549072265625" lon="-118.40086544863879680633544921875">
        <ele>3223.60009765625</ele>
        <time>2021-06-27T00:30:59.000Z</time>
        <extensions>
          <ns3:TrackPointExtension>
            <ns3:atemp>31.0</ns3:atemp>
            <ns3:hr>109</ns3:hr>
          </ns3:TrackPointExtension>
        </extensions>
      </trkpt>
      <trkpt lat="36.81122568435966968536376953125" lon="-118.400864861905574798583984375">
        <ele>3223.60009765625</ele>
        <time>2021-06-27T00:31:00.000Z</time>
        <extensions>
          <ns3:TrackPointExtension>
            <ns3:atemp>31.0</ns3:atemp>
            <ns3:hr>105</ns3:hr>
          </ns3:TrackPointExtension>
        </extensions>
      </trkpt>
      <trkpt lat="36.81125887669622898101806640625" lon="-118.40084332041442394256591796875">
        <ele>3224.199951171875</ele>
        <time>2021-06-27T00:31:04.000Z</time>
        <extensions>
          <ns3:TrackPointExtension>
            <ns3:atemp>31.0</ns3:atemp>
            <ns3:hr>103</ns3:hr>
          </ns3:TrackPointExtension>
        </extensions>
      </trkpt>
      <trkpt lat="36.8112931586802005767822265625" lon="-118.4008289873600006103515625">
        <ele>3223.800048828125</ele>
        <time>2021-06-27T00:31:10.000Z</time>
        <extensions>
          <ns3:TrackPointExtension>
            <ns3:atemp>31.0</ns3:atemp>
            <ns3:hr>103</ns3:hr>
          </ns3:TrackPointExtension>
        </extensions>
      </trkpt>
      <trkpt lat="36.81131771765649318695068359375" lon="-118.40082672424614429473876953125">
        <ele>3223.800048828125</ele>
        <time>2021-06-27T00:31:17.000Z</time>
        <extensions>
          <ns3:TrackPointExtension>
            <ns3:atemp>31.0</ns3:atemp>
            <ns3:hr>103</ns3:hr>
          </ns3:TrackPointExtension>
        </extensions>
      </trkpt>
      <trkpt lat="36.81133213452994823455810546875" lon="-118.400798477232456207275390625">
        <ele>3223.60009765625</ele>
        <time>2021-06-27T00:31:26.000Z</time>
        <extensions>
          <ns3:TrackPointExtension>
            <ns3:atemp>31.0</ns3:atemp>
            <ns3:hr>100</ns3:hr>
          </ns3:TrackPointExtension>
        </extensions>
      </trkpt>
      <trkpt lat="36.81133213452994823455810546875" lon="-118.400798477232456207275390625">
        <ele>3223.60009765625</ele>
        <time>2021-06-27T00:31:31.000Z</time>
        <extensions>
          <ns3:TrackPointExtension>
            <ns3:atemp>31.0</ns3:atemp>
            <ns3:hr>98</ns3:hr>
          </ns3:TrackPointExtension>
        </extensions>
      </trkpt>
      <trkpt lat="36.8113521672785282135009765625" lon="-118.4008006565272808074951171875">
        <ele>3223.60009765625</ele>
        <time>2021-06-27T00:31:44.000Z</time>
        <extensions>
          <ns3:TrackPointExtension>
            <ns3:atemp>31.0</ns3:atemp>
            <ns3:hr>95</ns3:hr>
          </ns3:TrackPointExtension>
        </extensions>
      </trkpt>
      <trkpt lat="36.8113582022488117218017578125" lon="-118.4007996506989002227783203125">
        <ele>3223.60009765625</ele>
        <time>2021-06-27T00:31:51.000Z</time>
        <extensions>
          <ns3:TrackPointExtension>
            <ns3:atemp>31.0</ns3:atemp>
            <ns3:hr>92</ns3:hr>
          </ns3:TrackPointExtension>
        </extensions>
      </trkpt>
      <trkpt lat="36.8113525025546550750732421875" lon="-118.40078699402511119842529296875">
        <ele>3224.199951171875</ele>
        <time>2021-06-27T00:32:09.000Z</time>
        <extensions>
          <ns3:TrackPointExtension>
            <ns3:atemp>30.0</ns3:atemp>
            <ns3:hr>89</ns3:hr>
          </ns3:TrackPointExtension>
        </extensions>
      </trkpt>
      <trkpt lat="36.81133925914764404296875" lon="-118.4007852338254451751708984375">
        <ele>3224.39990234375</ele>
        <time>2021-06-27T00:32:12.000Z</time>
        <extensions>
          <ns3:TrackPointExtension>
            <ns3:atemp>30.0</ns3:atemp>
            <ns3:hr>86</ns3:hr>
          </ns3:TrackPointExtension>
        </extensions>
      </trkpt>
      <trkpt lat="36.81129089556634426116943359375" lon="-118.400761596858501434326171875">
        <ele>3224.199951171875</ele>
        <time>2021-06-27T00:32:43.000Z</time>
        <extensions>
          <ns3:TrackPointExtension>
            <ns3:atemp>31.0</ns3:atemp>
            <ns3:hr>89</ns3:hr>
          </ns3:TrackPointExtension>
        </extensions>
      </trkpt>
      <trkpt lat="36.81133900769054889678955078125" lon="-118.4008150734007358551025390625">
        <ele>3223.60009765625</ele>
        <time>2021-06-27T00:33:03.000Z</time>
        <extensions>
          <ns3:TrackPointExtension>
            <ns3:atemp>31.0</ns3:atemp>
            <ns3:hr>87</ns3:hr>
          </ns3:TrackPointExtension>
        </extensions>
      </trkpt>
      <trkpt lat="36.8113474734127521514892578125" lon="-118.40082890354096889495849609375">
        <ele>3223.60009765625</ele>
        <time>2021-06-27T00:33:04.000Z</time>
        <extensions>
          <ns3:TrackPointExtension>
            <ns3:atemp>31.0</ns3:atemp>
            <ns3:hr>87</ns3:hr>
          </ns3:TrackPointExtension>
        </extensions>
      </trkpt>
      <trkpt lat="36.811395585536956787109375" lon="-118.40093602426350116729736328125">
        <ele>3222.800048828125</ele>
        <time>2021-06-27T00:33:11.000Z</time>
        <extensions>
          <ns3:TrackPointExtension>
            <ns3:atemp>31.0</ns3:atemp>
            <ns3:hr>86</ns3:hr>
          </ns3:TrackPointExtension>
        </extensions>
      </trkpt>
      <trkpt lat="36.8113982677459716796875" lon="-118.40094876475632190704345703125">
        <ele>3222.60009765625</ele>
        <time>2021-06-27T00:33:12.000Z</time>
        <extensions>
          <ns3:TrackPointExtension>
            <ns3:atemp>31.0</ns3:atemp>
            <ns3:hr>82</ns3:hr>
          </ns3:TrackPointExtension>
        </extensions>
      </trkpt>
      <trkpt lat="36.81140287779271602630615234375" lon="-118.40095764957368373870849609375">
        <ele>3222.39990234375</ele>
        <time>2021-06-27T00:33:13.000Z</time>
        <extensions>
          <ns3:TrackPointExtension>
            <ns3:atemp>31.0</ns3:atemp>
            <ns3:hr>84</ns3:hr>
          </ns3:TrackPointExtension>
        </extensions>
      </trkpt>
      <trkpt lat="36.811433471739292144775390625" lon="-118.401029147207736968994140625">
        <ele>3222</ele>
        <time>2021-06-27T00:33:19.000Z</time>
        <extensions>
          <ns3:TrackPointExtension>
            <ns3:atemp>31.0</ns3:atemp>
            <ns3:hr>84</ns3:hr>
          </ns3:TrackPointExtension>
        </extensions>
      </trkpt>
      <trkpt lat="36.81149222888052463531494140625" lon="-118.40112159959971904754638671875">
        <ele>3222</ele>
        <time>2021-06-27T00:33:27.000Z</time>
        <extensions>
          <ns3:TrackPointExtension>
            <ns3:atemp>31.0</ns3:atemp>
            <ns3:hr>82</ns3:hr>
          </ns3:TrackPointExtension>
        </extensions>
      </trkpt>
      <trkpt lat="36.81151083670556545257568359375" lon="-118.40117189101874828338623046875">
        <ele>3222.199951171875</ele>
        <time>2021-06-27T00:33:32.000Z</time>
        <extensions>
          <ns3:TrackPointExtension>
            <ns3:atemp>31.0</ns3:atemp>
            <ns3:hr>77</ns3:hr>
          </ns3:TrackPointExtension>
        </extensions>
      </trkpt>
      <trkpt lat="36.8115141056478023529052734375" lon="-118.40118706226348876953125">
        <ele>3222.199951171875</ele>
        <time>2021-06-27T00:33:33.000Z</time>
        <extensions>
          <ns3:TrackPointExtension>
            <ns3:atemp>31.0</ns3:atemp>
            <ns3:hr>82</ns3:hr>
          </ns3:TrackPointExtension>
        </extensions>
      </trkpt>
      <trkpt lat="36.8115154467523097991943359375" lon="-118.40119586326181888580322265625">
        <ele>3222.39990234375</ele>
        <time>2021-06-27T00:33:35.000Z</time>
        <extensions>
          <ns3:TrackPointExtension>
            <ns3:atemp>31.0</ns3:atemp>
            <ns3:hr>83</ns3:hr>
          </ns3:TrackPointExtension>
        </extensions>
      </trkpt>
      <trkpt lat="36.8115184642374515533447265625" lon="-118.4012355096638202667236328125">
        <ele>3222.199951171875</ele>
        <time>2021-06-27T00:33:39.000Z</time>
        <extensions>
          <ns3:TrackPointExtension>
            <ns3:atemp>30.0</ns3:atemp>
            <ns3:hr>86</ns3:hr>
          </ns3:TrackPointExtension>
        </extensions>
      </trkpt>
      <trkpt lat="36.81152173317968845367431640625" lon="-118.40127934701740741729736328125">
        <ele>3222</ele>
        <time>2021-06-27T00:33:42.000Z</time>
        <extensions>
          <ns3:TrackPointExtension>
            <ns3:atemp>30.0</ns3:atemp>
            <ns3:hr>87</ns3:hr>
          </ns3:TrackPointExtension>
        </extensions>
      </trkpt>
      <trkpt lat="36.8115369044244289398193359375" lon="-118.40129761956632137298583984375">
        <ele>3222.199951171875</ele>
        <time>2021-06-27T00:33:44.000Z</time>
        <extensions>
          <ns3:TrackPointExtension>
            <ns3:atemp>30.0</ns3:atemp>
            <ns3:hr>88</ns3:hr>
          </ns3:TrackPointExtension>
        </extensions>
      </trkpt>
      <trkpt lat="36.81157168932259082794189453125" lon="-118.4013491682708263397216796875">
        <ele>3222.199951171875</ele>
        <time>2021-06-27T00:33:48.000Z</time>
        <extensions>
          <ns3:TrackPointExtension>
            <ns3:atemp>30.0</ns3:atemp>
            <ns3:hr>86</ns3:hr>
          </ns3:TrackPointExtension>
        </extensions>
      </trkpt>
      <trkpt lat="36.81157520972192287445068359375" lon="-118.40136450715363025665283203125">
        <ele>3222.199951171875</ele>
        <time>2021-06-27T00:33:49.000Z</time>
        <extensions>
          <ns3:TrackPointExtension>
            <ns3:atemp>30.0</ns3:atemp>
            <ns3:hr>86</ns3:hr>
          </ns3:TrackPointExtension>
        </extensions>
      </trkpt>
      <trkpt lat="36.81160806678235530853271484375" lon="-118.40144346468150615692138671875">
        <ele>3222</ele>
        <time>2021-06-27T00:33:56.000Z</time>
        <extensions>
          <ns3:TrackPointExtension>
            <ns3:atemp>30.0</ns3:atemp>
            <ns3:hr>85</ns3:hr>
          </ns3:TrackPointExtension>
        </extensions>
      </trkpt>
      <trkpt lat="36.81167059578001499176025390625" lon="-118.4015543572604656219482421875">
        <ele>3221.60009765625</ele>
        <time>2021-06-27T00:34:06.000Z</time>
        <extensions>
          <ns3:TrackPointExtension>
            <ns3:atemp>30.0</ns3:atemp>
            <ns3:hr>84</ns3:hr>
          </ns3:TrackPointExtension>
        </extensions>
      </trkpt>
      <trkpt lat="36.81167922914028167724609375" lon="-118.40156651102006435394287109375">
        <ele>3221.60009765625</ele>
        <time>2021-06-27T00:34:07.000Z</time>
        <extensions>
          <ns3:TrackPointExtension>
            <ns3:atemp>30.0</ns3:atemp>
            <ns3:hr>84</ns3:hr>
          </ns3:TrackPointExtension>
        </extensions>
      </trkpt>
      <trkpt lat="36.8117464520037174224853515625" lon="-118.40164395980536937713623046875">
        <ele>3223</ele>
        <time>2021-06-27T00:34:16.000Z</time>
        <extensions>
          <ns3:TrackPointExtension>
            <ns3:atemp>30.0</ns3:atemp>
            <ns3:hr>84</ns3:hr>
          </ns3:TrackPointExtension>
        </extensions>
      </trkpt>
      <trkpt lat="36.8117685802280902862548828125" lon="-118.40165351517498493194580078125">
        <ele>3223.60009765625</ele>
        <time>2021-06-27T00:34:19.000Z</time>
        <extensions>
          <ns3:TrackPointExtension>
            <ns3:atemp>30.0</ns3:atemp>
            <ns3:hr>82</ns3:hr>
          </ns3:TrackPointExtension>
        </extensions>
      </trkpt>
      <trkpt lat="36.81180001236498355865478515625" lon="-118.40167832560837268829345703125">
        <ele>3223.800048828125</ele>
        <time>2021-06-27T00:34:22.000Z</time>
        <extensions>
          <ns3:TrackPointExtension>
            <ns3:atemp>30.0</ns3:atemp>
            <ns3:hr>86</ns3:hr>
          </ns3:TrackPointExtension>
        </extensions>
      </trkpt>
      <trkpt lat="36.8118192069232463836669921875" lon="-118.401686288416385650634765625">
        <ele>3223.800048828125</ele>
        <time>2021-06-27T00:34:24.000Z</time>
        <extensions>
          <ns3:TrackPointExtension>
            <ns3:atemp>30.0</ns3:atemp>
            <ns3:hr>89</ns3:hr>
          </ns3:TrackPointExtension>
        </extensions>
      </trkpt>
      <trkpt lat="36.81184493936598300933837890625" lon="-118.401694335043430328369140625">
        <ele>3223.800048828125</ele>
        <time>2021-06-27T00:34:26.000Z</time>
        <extensions>
          <ns3:TrackPointExtension>
            <ns3:atemp>30.0</ns3:atemp>
            <ns3:hr>92</ns3:hr>
          </ns3:TrackPointExtension>
        </extensions>
      </trkpt>
      <trkpt lat="36.8118902854621410369873046875" lon="-118.4017032198607921600341796875">
        <ele>3223.800048828125</ele>
        <time>2021-06-27T00:34:30.000Z</time>
        <extensions>
          <ns3:TrackPointExtension>
            <ns3:atemp>30.0</ns3:atemp>
            <ns3:hr>93</ns3:hr>
          </ns3:TrackPointExtension>
        </extensions>
      </trkpt>
      <trkpt lat="36.8119013495743274688720703125" lon="-118.40171218849718570709228515625">
        <ele>3223.60009765625</ele>
        <time>2021-06-27T00:34:31.000Z</time>
        <extensions>
          <ns3:TrackPointExtension>
            <ns3:atemp>30.0</ns3:atemp>
            <ns3:hr>93</ns3:hr>
          </ns3:TrackPointExtension>
        </extensions>
      </trkpt>
      <trkpt lat="36.8119556643068790435791015625" lon="-118.401741944253444671630859375">
        <ele>3223.199951171875</ele>
        <time>2021-06-27T00:34:36.000Z</time>
        <extensions>
          <ns3:TrackPointExtension>
            <ns3:atemp>30.0</ns3:atemp>
            <ns3:hr>96</ns3:hr>
          </ns3:TrackPointExtension>
        </extensions>
      </trkpt>
      <trkpt lat="36.81199195794761180877685546875" lon="-118.4017561934888362884521484375">
        <ele>3223</ele>
        <time>2021-06-27T00:34:39.000Z</time>
        <extensions>
          <ns3:TrackPointExtension>
            <ns3:atemp>30.0</ns3:atemp>
            <ns3:hr>95</ns3:hr>
          </ns3:TrackPointExtension>
        </extensions>
      </trkpt>
      <trkpt lat="36.81202766485512256622314453125" lon="-118.40175644494593143463134765625">
        <ele>3223</ele>
        <time>2021-06-27T00:34:42.000Z</time>
        <extensions>
          <ns3:TrackPointExtension>
            <ns3:atemp>30.0</ns3:atemp>
            <ns3:hr>95</ns3:hr>
          </ns3:TrackPointExtension>
        </extensions>
      </trkpt>
      <trkpt lat="36.81209363043308258056640625" lon="-118.40180723927915096282958984375">
        <ele>3222.60009765625</ele>
        <time>2021-06-27T00:34:49.000Z</time>
        <extensions>
          <ns3:TrackPointExtension>
            <ns3:atemp>30.0</ns3:atemp>
            <ns3:hr>92</ns3:hr>
          </ns3:TrackPointExtension>
        </extensions>
      </trkpt>
      <trkpt lat="36.8121434189379215240478515625" lon="-118.40183774940669536590576171875">
        <ele>3223.39990234375</ele>
        <time>2021-06-27T00:34:57.000Z</time>
        <extensions>
          <ns3:TrackPointExtension>
            <ns3:atemp>30.0</ns3:atemp>
            <ns3:hr>93</ns3:hr>
          </ns3:TrackPointExtension>
        </extensions>
      </trkpt>
      <trkpt lat="36.81223176419734954833984375" lon="-118.40191871859133243560791015625">
        <ele>3223.39990234375</ele>
        <time>2021-06-27T00:35:06.000Z</time>
        <extensions>
          <ns3:TrackPointExtension>
            <ns3:atemp>30.0</ns3:atemp>
            <ns3:hr>90</ns3:hr>
          </ns3:TrackPointExtension>
        </extensions>
      </trkpt>
      <trkpt lat="36.81224022991955280303955078125" lon="-118.40192927978932857513427734375">
        <ele>3223.39990234375</ele>
        <time>2021-06-27T00:35:07.000Z</time>
        <extensions>
          <ns3:TrackPointExtension>
            <ns3:atemp>30.0</ns3:atemp>
            <ns3:hr>89</ns3:hr>
          </ns3:TrackPointExtension>
        </extensions>
      </trkpt>
      <trkpt lat="36.81227509863674640655517578125" lon="-118.4019479714334011077880859375">
        <ele>3223.800048828125</ele>
        <time>2021-06-27T00:35:10.000Z</time>
        <extensions>
          <ns3:TrackPointExtension>
            <ns3:atemp>30.0</ns3:atemp>
            <ns3:hr>86</ns3:hr>
          </ns3:TrackPointExtension>
        </extensions>
      </trkpt>
      <trkpt lat="36.8122852407395839691162109375" lon="-118.40196046046912670135498046875">
        <ele>3223.800048828125</ele>
        <time>2021-06-27T00:35:11.000Z</time>
        <extensions>
          <ns3:TrackPointExtension>
            <ns3:atemp>30.0</ns3:atemp>
            <ns3:hr>86</ns3:hr>
          </ns3:TrackPointExtension>
        </extensions>
      </trkpt>
      <trkpt lat="36.8123234622180461883544921875" lon="-118.40201846323907375335693359375">
        <ele>3223.800048828125</ele>
        <time>2021-06-27T00:35:16.000Z</time>
        <extensions>
          <ns3:TrackPointExtension>
            <ns3:atemp>30.0</ns3:atemp>
            <ns3:hr>84</ns3:hr>
          </ns3:TrackPointExtension>
        </extensions>
      </trkpt>
      <trkpt lat="36.81236478500068187713623046875" lon="-118.40204612351953983306884765625">
        <ele>3223.60009765625</ele>
        <time>2021-06-27T00:35:20.000Z</time>
        <extensions>
          <ns3:TrackPointExtension>
            <ns3:atemp>30.0</ns3:atemp>
            <ns3:hr>80</ns3:hr>
          </ns3:TrackPointExtension>
        </extensions>
      </trkpt>
      <trkpt lat="36.81238188408315181732177734375" lon="-118.4020666591823101043701171875">
        <ele>3223.39990234375</ele>
        <time>2021-06-27T00:35:22.000Z</time>
        <extensions>
          <ns3:TrackPointExtension>
            <ns3:atemp>30.0</ns3:atemp>
            <ns3:hr>84</ns3:hr>
          </ns3:TrackPointExtension>
        </extensions>
      </trkpt>
      <trkpt lat="36.8123881705105304718017578125" lon="-118.4020964987576007843017578125">
        <ele>3222.800048828125</ele>
        <time>2021-06-27T00:35:25.000Z</time>
        <extensions>
          <ns3:TrackPointExtension>
            <ns3:atemp>30.0</ns3:atemp>
            <ns3:hr>87</ns3:hr>
          </ns3:TrackPointExtension>
        </extensions>
      </trkpt>
      <trkpt lat="36.8123935349285602569580078125" lon="-118.40210898779332637786865234375">
        <ele>3222.60009765625</ele>
        <time>2021-06-27T00:35:27.000Z</time>
        <extensions>
          <ns3:TrackPointExtension>
            <ns3:atemp>30.0</ns3:atemp>
            <ns3:hr>90</ns3:hr>
          </ns3:TrackPointExtension>
        </extensions>
      </trkpt>
      <trkpt lat="36.812393032014369964599609375" lon="-118.4021115861833095550537109375">
        <ele>3222.39990234375</ele>
        <time>2021-06-27T00:35:28.000Z</time>
        <extensions>
          <ns3:TrackPointExtension>
            <ns3:atemp>30.0</ns3:atemp>
            <ns3:hr>92</ns3:hr>
          </ns3:TrackPointExtension>
        </extensions>
      </trkpt>
      <trkpt lat="36.81239269673824310302734375" lon="-118.4021139331161975860595703125">
        <ele>3222.39990234375</ele>
        <time>2021-06-27T00:35:30.000Z</time>
        <extensions>
          <ns3:TrackPointExtension>
            <ns3:atemp>30.0</ns3:atemp>
            <ns3:hr>95</ns3:hr>
          </ns3:TrackPointExtension>
        </extensions>
      </trkpt>
      <trkpt lat="36.81239278055727481842041015625" lon="-118.40211234055459499359130859375">
        <ele>3222.60009765625</ele>
        <time>2021-06-27T00:35:32.000Z</time>
        <extensions>
          <ns3:TrackPointExtension>
            <ns3:atemp>30.0</ns3:atemp>
            <ns3:hr>97</ns3:hr>
          </ns3:TrackPointExtension>
        </extensions>
      </trkpt>
      <trkpt lat="36.812399066984653472900390625" lon="-118.4021296910941600799560546875">
        <ele>3222.800048828125</ele>
        <time>2021-06-27T00:35:40.000Z</time>
        <extensions>
          <ns3:TrackPointExtension>
            <ns3:atemp>30.0</ns3:atemp>
            <ns3:hr>97</ns3:hr>
          </ns3:TrackPointExtension>
        </extensions>
      </trkpt>
      <trkpt lat="36.81237853132188320159912109375" lon="-118.402126170694828033447265625">
        <ele>3222.800048828125</ele>
        <time>2021-06-27T00:35:48.000Z</time>
        <extensions>
          <ns3:TrackPointExtension>
            <ns3:atemp>30.0</ns3:atemp>
            <ns3:hr>95</ns3:hr>
          </ns3:TrackPointExtension>
        </extensions>
      </trkpt>
      <trkpt lat="36.81237853132188320159912109375" lon="-118.402126170694828033447265625">
        <ele>3223</ele>
        <time>2021-06-27T00:35:55.000Z</time>
        <extensions>
          <ns3:TrackPointExtension>
            <ns3:atemp>30.0</ns3:atemp>
            <ns3:hr>98</ns3:hr>
          </ns3:TrackPointExtension>
        </extensions>
      </trkpt>
      <trkpt lat="36.81239093653857707977294921875" lon="-118.4021055512130260467529296875">
        <ele>3223.39990234375</ele>
        <time>2021-06-27T00:36:09.000Z</time>
        <extensions>
          <ns3:TrackPointExtension>
            <ns3:atemp>30.0</ns3:atemp>
            <ns3:hr>97</ns3:hr>
          </ns3:TrackPointExtension>
        </extensions>
      </trkpt>
      <trkpt lat="36.81239043362438678741455078125" lon="-118.40210412628948688507080078125">
        <ele>3223.39990234375</ele>
        <time>2021-06-27T00:36:11.000Z</time>
        <extensions>
          <ns3:TrackPointExtension>
            <ns3:atemp>30.0</ns3:atemp>
            <ns3:hr>97</ns3:hr>
          </ns3:TrackPointExtension>
        </extensions>
      </trkpt>
      <trkpt lat="36.8124062754213809967041015625" lon="-118.40216514654457569122314453125">
        <ele>3224.199951171875</ele>
        <time>2021-06-27T00:36:21.000Z</time>
        <extensions>
          <ns3:TrackPointExtension>
            <ns3:atemp>30.0</ns3:atemp>
            <ns3:hr>95</ns3:hr>
          </ns3:TrackPointExtension>
        </extensions>
      </trkpt>
      <trkpt lat="36.81239864788949489593505859375" lon="-118.402206636965274810791015625">
        <ele>3224.39990234375</ele>
        <time>2021-06-27T00:36:23.000Z</time>
        <extensions>
          <ns3:TrackPointExtension>
            <ns3:atemp>29.0</ns3:atemp>
            <ns3:hr>94</ns3:hr>
          </ns3:TrackPointExtension>
        </extensions>
      </trkpt>
      <trkpt lat="36.81240250356495380401611328125" lon="-118.40225013904273509979248046875">
        <ele>3224.39990234375</ele>
        <time>2021-06-27T00:36:25.000Z</time>
        <extensions>
          <ns3:TrackPointExtension>
            <ns3:atemp>29.0</ns3:atemp>
            <ns3:hr>93</ns3:hr>
          </ns3:TrackPointExtension>
        </extensions>
      </trkpt>
      <trkpt lat="36.812406443059444427490234375" lon="-118.40227176435291767120361328125">
        <ele>3224.39990234375</ele>
        <time>2021-06-27T00:36:26.000Z</time>
        <extensions>
          <ns3:TrackPointExtension>
            <ns3:atemp>29.0</ns3:atemp>
            <ns3:hr>93</ns3:hr>
          </ns3:TrackPointExtension>
        </extensions>
      </trkpt>
      <trkpt lat="36.81242295540869235992431640625" lon="-118.4023147635161876678466796875">
        <ele>3224.39990234375</ele>
        <time>2021-06-27T00:36:28.000Z</time>
        <extensions>
          <ns3:TrackPointExtension>
            <ns3:atemp>29.0</ns3:atemp>
            <ns3:hr>93</ns3:hr>
          </ns3:TrackPointExtension>
        </extensions>
      </trkpt>
      <trkpt lat="36.8124374561011791229248046875" lon="-118.40235860086977481842041015625">
        <ele>3224.199951171875</ele>
        <time>2021-06-27T00:36:30.000Z</time>
        <extensions>
          <ns3:TrackPointExtension>
            <ns3:atemp>29.0</ns3:atemp>
            <ns3:hr>92</ns3:hr>
          </ns3:TrackPointExtension>
        </extensions>
      </trkpt>
      <trkpt lat="36.81246117688715457916259765625" lon="-118.40246203355491161346435546875">
        <ele>3224.199951171875</ele>
        <time>2021-06-27T00:36:37.000Z</time>
        <extensions>
          <ns3:TrackPointExtension>
            <ns3:atemp>29.0</ns3:atemp>
            <ns3:hr>91</ns3:hr>
          </ns3:TrackPointExtension>
        </extensions>
      </trkpt>
      <trkpt lat="36.812478192150592803955078125" lon="-118.40251919813454151153564453125">
        <ele>3225.199951171875</ele>
        <time>2021-06-27T00:36:42.000Z</time>
        <extensions>
          <ns3:TrackPointExtension>
            <ns3:atemp>29.0</ns3:atemp>
            <ns3:hr>94</ns3:hr>
          </ns3:TrackPointExtension>
        </extensions>
      </trkpt>
      <trkpt lat="36.81247626431286334991455078125" lon="-118.402570746839046478271484375">
        <ele>3225.60009765625</ele>
        <time>2021-06-27T00:36:46.000Z</time>
        <extensions>
          <ns3:TrackPointExtension>
            <ns3:atemp>29.0</ns3:atemp>
            <ns3:hr>96</ns3:hr>
          </ns3:TrackPointExtension>
        </extensions>
      </trkpt>
      <trkpt lat="36.812469474971294403076171875" lon="-118.40259228833019733428955078125">
        <ele>3226.199951171875</ele>
        <time>2021-06-27T00:36:49.000Z</time>
        <extensions>
          <ns3:TrackPointExtension>
            <ns3:atemp>29.0</ns3:atemp>
            <ns3:hr>99</ns3:hr>
          </ns3:TrackPointExtension>
        </extensions>
      </trkpt>
      <trkpt lat="36.812460757791996002197265625" lon="-118.40263889171183109283447265625">
        <ele>3225.60009765625</ele>
        <time>2021-06-27T00:36:53.000Z</time>
        <extensions>
          <ns3:TrackPointExtension>
            <ns3:atemp>29.0</ns3:atemp>
            <ns3:hr>102</ns3:hr>
          </ns3:TrackPointExtension>
        </extensions>
      </trkpt>
      <trkpt lat="36.8124505318701267242431640625" lon="-118.4026651270687580108642578125">
        <ele>3225.60009765625</ele>
        <time>2021-06-27T00:36:55.000Z</time>
        <extensions>
          <ns3:TrackPointExtension>
            <ns3:atemp>29.0</ns3:atemp>
            <ns3:hr>103</ns3:hr>
          </ns3:TrackPointExtension>
        </extensions>
      </trkpt>
      <trkpt lat="36.81245170533657073974609375" lon="-118.40267895720899105072021484375">
        <ele>3225.60009765625</ele>
        <time>2021-06-27T00:36:56.000Z</time>
        <extensions>
          <ns3:TrackPointExtension>
            <ns3:atemp>29.0</ns3:atemp>
            <ns3:hr>103</ns3:hr>
          </ns3:TrackPointExtension>
        </extensions>
      </trkpt>
      <trkpt lat="36.81247659958899021148681640625" lon="-118.40274031274020671844482421875">
        <ele>3225</ele>
        <time>2021-06-27T00:36:59.000Z</time>
        <extensions>
          <ns3:TrackPointExtension>
            <ns3:atemp>29.0</ns3:atemp>
            <ns3:hr>104</ns3:hr>
          </ns3:TrackPointExtension>
        </extensions>
      </trkpt>
      <trkpt lat="36.8124984763562679290771484375" lon="-118.40276227332651615142822265625">
        <ele>3224.800048828125</ele>
        <time>2021-06-27T00:37:01.000Z</time>
        <extensions>
          <ns3:TrackPointExtension>
            <ns3:atemp>29.0</ns3:atemp>
            <ns3:hr>105</ns3:hr>
          </ns3:TrackPointExtension>
        </extensions>
      </trkpt>
      <trkpt lat="36.8125071935355663299560546875" lon="-118.40277166105806827545166015625">
        <ele>3224.60009765625</ele>
        <time>2021-06-27T00:37:02.000Z</time>
        <extensions>
          <ns3:TrackPointExtension>
            <ns3:atemp>29.0</ns3:atemp>
            <ns3:hr>105</ns3:hr>
          </ns3:TrackPointExtension>
        </extensions>
      </trkpt>
      <trkpt lat="36.81251985020935535430908203125" lon="-118.40278406627476215362548828125">
        <ele>3224.39990234375</ele>
        <time>2021-06-27T00:37:03.000Z</time>
        <extensions>
          <ns3:TrackPointExtension>
            <ns3:atemp>29.0</ns3:atemp>
            <ns3:hr>105</ns3:hr>
          </ns3:TrackPointExtension>
        </extensions>
      </trkpt>
      <trkpt lat="36.8125517852604389190673828125" lon="-118.40279831551015377044677734375">
        <ele>3224.39990234375</ele>
        <time>2021-06-27T00:37:06.000Z</time>
        <extensions>
          <ns3:TrackPointExtension>
            <ns3:atemp>29.0</ns3:atemp>
            <ns3:hr>103</ns3:hr>
          </ns3:TrackPointExtension>
        </extensions>
      </trkpt>
      <trkpt lat="36.8125608377158641815185546875" lon="-118.4028039313852787017822265625">
        <ele>3224.39990234375</ele>
        <time>2021-06-27T00:37:07.000Z</time>
        <extensions>
          <ns3:TrackPointExtension>
            <ns3:atemp>29.0</ns3:atemp>
            <ns3:hr>104</ns3:hr>
          </ns3:TrackPointExtension>
        </extensions>
      </trkpt>
      <trkpt lat="36.812625713646411895751953125" lon="-118.402873165905475616455078125">
        <ele>3224.60009765625</ele>
        <time>2021-06-27T00:37:14.000Z</time>
        <extensions>
          <ns3:TrackPointExtension>
            <ns3:atemp>29.0</ns3:atemp>
            <ns3:hr>103</ns3:hr>
          </ns3:TrackPointExtension>
        </extensions>
      </trkpt>
      <trkpt lat="36.812646500766277313232421875" lon="-118.40290007181465625762939453125">
        <ele>3224.800048828125</ele>
        <time>2021-06-27T00:37:16.000Z</time>
        <extensions>
          <ns3:TrackPointExtension>
            <ns3:atemp>29.0</ns3:atemp>
            <ns3:hr>102</ns3:hr>
          </ns3:TrackPointExtension>
        </extensions>
      </trkpt>
      <trkpt lat="36.812696121633052825927734375" lon="-118.4029239602386951446533203125">
        <ele>3225.199951171875</ele>
        <time>2021-06-27T00:37:21.000Z</time>
        <extensions>
          <ns3:TrackPointExtension>
            <ns3:atemp>29.0</ns3:atemp>
            <ns3:hr>101</ns3:hr>
          </ns3:TrackPointExtension>
        </extensions>
      </trkpt>
      <trkpt lat="36.81270777247846126556396484375" lon="-118.4029464237391948699951171875">
        <ele>3225.199951171875</ele>
        <time>2021-06-27T00:37:24.000Z</time>
        <extensions>
          <ns3:TrackPointExtension>
            <ns3:atemp>29.0</ns3:atemp>
            <ns3:hr>99</ns3:hr>
          </ns3:TrackPointExtension>
        </extensions>
      </trkpt>
      <trkpt lat="36.812706179916858673095703125" lon="-118.40295790694653987884521484375">
        <ele>3225.199951171875</ele>
        <time>2021-06-27T00:37:25.000Z</time>
        <extensions>
          <ns3:TrackPointExtension>
            <ns3:atemp>29.0</ns3:atemp>
            <ns3:hr>99</ns3:hr>
          </ns3:TrackPointExtension>
        </extensions>
      </trkpt>
      <trkpt lat="36.81268095038831233978271484375" lon="-118.403022699058055877685546875">
        <ele>3225</ele>
        <time>2021-06-27T00:37:32.000Z</time>
        <extensions>
          <ns3:TrackPointExtension>
            <ns3:atemp>29.0</ns3:atemp>
            <ns3:hr>99</ns3:hr>
          </ns3:TrackPointExtension>
        </extensions>
      </trkpt>
      <trkpt lat="36.81266837753355503082275390625" lon="-118.40307592414319515228271484375">
        <ele>3224.60009765625</ele>
        <time>2021-06-27T00:37:37.000Z</time>
        <extensions>
          <ns3:TrackPointExtension>
            <ns3:atemp>29.0</ns3:atemp>
            <ns3:hr>102</ns3:hr>
          </ns3:TrackPointExtension>
        </extensions>
      </trkpt>
      <trkpt lat="36.81266762316226959228515625" lon="-118.403142392635345458984375">
        <ele>3224</ele>
        <time>2021-06-27T00:37:42.000Z</time>
        <extensions>
          <ns3:TrackPointExtension>
            <ns3:atemp>29.0</ns3:atemp>
            <ns3:hr>103</ns3:hr>
          </ns3:TrackPointExtension>
        </extensions>
      </trkpt>
      <trkpt lat="36.812652535736560821533203125" lon="-118.40319880284368991851806640625">
        <ele>3223.39990234375</ele>
        <time>2021-06-27T00:37:47.000Z</time>
        <extensions>
          <ns3:TrackPointExtension>
            <ns3:atemp>29.0</ns3:atemp>
            <ns3:hr>102</ns3:hr>
          </ns3:TrackPointExtension>
        </extensions>
      </trkpt>
      <trkpt lat="36.81264876388013362884521484375" lon="-118.40323518030345439910888671875">
        <ele>3223</ele>
        <time>2021-06-27T00:37:50.000Z</time>
        <extensions>
          <ns3:TrackPointExtension>
            <ns3:atemp>29.0</ns3:atemp>
            <ns3:hr>103</ns3:hr>
          </ns3:TrackPointExtension>
        </extensions>
      </trkpt>
      <trkpt lat="36.8126503564417362213134765625" lon="-118.40324892662465572357177734375">
        <ele>3223.199951171875</ele>
        <time>2021-06-27T00:37:51.000Z</time>
        <extensions>
          <ns3:TrackPointExtension>
            <ns3:atemp>29.0</ns3:atemp>
            <ns3:hr>102</ns3:hr>
          </ns3:TrackPointExtension>
        </extensions>
      </trkpt>
      <trkpt lat="36.81266586296260356903076171875" lon="-118.403276503086090087890625">
        <ele>3223</ele>
        <time>2021-06-27T00:37:54.000Z</time>
        <extensions>
          <ns3:TrackPointExtension>
            <ns3:atemp>29.0</ns3:atemp>
            <ns3:hr>101</ns3:hr>
          </ns3:TrackPointExtension>
        </extensions>
      </trkpt>
      <trkpt lat="36.81270022876560688018798828125" lon="-118.40330240316689014434814453125">
        <ele>3222.800048828125</ele>
        <time>2021-06-27T00:37:57.000Z</time>
        <extensions>
          <ns3:TrackPointExtension>
            <ns3:atemp>29.0</ns3:atemp>
            <ns3:hr>101</ns3:hr>
          </ns3:TrackPointExtension>
        </extensions>
      </trkpt>
      <trkpt lat="36.81271992623805999755859375" lon="-118.40330357663333415985107421875">
        <ele>3222.800048828125</ele>
        <time>2021-06-27T00:37:58.000Z</time>
        <extensions>
          <ns3:TrackPointExtension>
            <ns3:atemp>29.0</ns3:atemp>
            <ns3:hr>100</ns3:hr>
          </ns3:TrackPointExtension>
        </extensions>
      </trkpt>
      <trkpt lat="36.81278027594089508056640625" lon="-118.4033236093819141387939453125">
        <ele>3223.199951171875</ele>
        <time>2021-06-27T00:38:03.000Z</time>
        <extensions>
          <ns3:TrackPointExtension>
            <ns3:atemp>29.0</ns3:atemp>
            <ns3:hr>97</ns3:hr>
          </ns3:TrackPointExtension>
        </extensions>
      </trkpt>
      <trkpt lat="36.812807433307170867919921875" lon="-118.4033584780991077423095703125">
        <ele>3223.60009765625</ele>
        <time>2021-06-27T00:38:07.000Z</time>
        <extensions>
          <ns3:TrackPointExtension>
            <ns3:atemp>29.0</ns3:atemp>
            <ns3:hr>97</ns3:hr>
          </ns3:TrackPointExtension>
        </extensions>
      </trkpt>
      <trkpt lat="36.81282587349414825439453125" lon="-118.4034034051001071929931640625">
        <ele>3223.60009765625</ele>
        <time>2021-06-27T00:38:11.000Z</time>
        <extensions>
          <ns3:TrackPointExtension>
            <ns3:atemp>29.0</ns3:atemp>
            <ns3:hr>98</ns3:hr>
          </ns3:TrackPointExtension>
        </extensions>
      </trkpt>
      <trkpt lat="36.81280852295458316802978515625" lon="-118.40343383140861988067626953125">
        <ele>3223.60009765625</ele>
        <time>2021-06-27T00:38:14.000Z</time>
        <extensions>
          <ns3:TrackPointExtension>
            <ns3:atemp>29.0</ns3:atemp>
            <ns3:hr>99</ns3:hr>
          </ns3:TrackPointExtension>
        </extensions>
      </trkpt>
      <trkpt lat="36.812806092202663421630859375" lon="-118.40346585027873516082763671875">
        <ele>3223.800048828125</ele>
        <time>2021-06-27T00:38:17.000Z</time>
        <extensions>
          <ns3:TrackPointExtension>
            <ns3:atemp>29.0</ns3:atemp>
            <ns3:hr>100</ns3:hr>
          </ns3:TrackPointExtension>
        </extensions>
      </trkpt>
      <trkpt lat="36.81282511912286281585693359375" lon="-118.40351966209709644317626953125">
        <ele>3223.60009765625</ele>
        <time>2021-06-27T00:38:22.000Z</time>
        <extensions>
          <ns3:TrackPointExtension>
            <ns3:atemp>29.0</ns3:atemp>
            <ns3:hr>101</ns3:hr>
          </ns3:TrackPointExtension>
        </extensions>
      </trkpt>
      <trkpt lat="36.81286401115357875823974609375" lon="-118.40355050750076770782470703125">
        <ele>3223.39990234375</ele>
        <time>2021-06-27T00:38:26.000Z</time>
        <extensions>
          <ns3:TrackPointExtension>
            <ns3:atemp>29.0</ns3:atemp>
            <ns3:hr>101</ns3:hr>
          </ns3:TrackPointExtension>
        </extensions>
      </trkpt>
      <trkpt lat="36.8128989636898040771484375" lon="-118.40353290550410747528076171875">
        <ele>3223.39990234375</ele>
        <time>2021-06-27T00:38:29.000Z</time>
        <extensions>
          <ns3:TrackPointExtension>
            <ns3:atemp>29.0</ns3:atemp>
            <ns3:hr>100</ns3:hr>
          </ns3:TrackPointExtension>
        </extensions>
      </trkpt>
      <trkpt lat="36.81295738555490970611572265625" lon="-118.40350843034684658050537109375">
        <ele>3223</ele>
        <time>2021-06-27T00:38:34.000Z</time>
        <extensions>
          <ns3:TrackPointExtension>
            <ns3:atemp>29.0</ns3:atemp>
            <ns3:hr>99</ns3:hr>
          </ns3:TrackPointExtension>
        </extensions>
      </trkpt>
      <trkpt lat="36.8130067549645900726318359375" lon="-118.40351614169776439666748046875">
        <ele>3223</ele>
        <time>2021-06-27T00:38:38.000Z</time>
        <extensions>
          <ns3:TrackPointExtension>
            <ns3:atemp>30.0</ns3:atemp>
            <ns3:hr>98</ns3:hr>
          </ns3:TrackPointExtension>
        </extensions>
      </trkpt>
      <trkpt lat="36.81310473941266536712646484375" lon="-118.40352930128574371337890625">
        <ele>3223.199951171875</ele>
        <time>2021-06-27T00:38:46.000Z</time>
        <extensions>
          <ns3:TrackPointExtension>
            <ns3:atemp>30.0</ns3:atemp>
            <ns3:hr>98</ns3:hr>
          </ns3:TrackPointExtension>
        </extensions>
      </trkpt>
      <trkpt lat="36.81312904693186283111572265625" lon="-118.4035428799688816070556640625">
        <ele>3223.199951171875</ele>
        <time>2021-06-27T00:38:49.000Z</time>
        <extensions>
          <ns3:TrackPointExtension>
            <ns3:atemp>30.0</ns3:atemp>
            <ns3:hr>98</ns3:hr>
          </ns3:TrackPointExtension>
        </extensions>
      </trkpt>
      <trkpt lat="36.81314648129045963287353515625" lon="-118.4035676904022693634033203125">
        <ele>3222.60009765625</ele>
        <time>2021-06-27T00:38:52.000Z</time>
        <extensions>
          <ns3:TrackPointExtension>
            <ns3:atemp>30.0</ns3:atemp>
            <ns3:hr>99</ns3:hr>
          </ns3:TrackPointExtension>
        </extensions>
      </trkpt>
      <trkpt lat="36.81317011825740337371826171875" lon="-118.40360264293849468231201171875">
        <ele>3222.60009765625</ele>
        <time>2021-06-27T00:38:55.000Z</time>
        <extensions>
          <ns3:TrackPointExtension>
            <ns3:atemp>30.0</ns3:atemp>
            <ns3:hr>98</ns3:hr>
          </ns3:TrackPointExtension>
        </extensions>
      </trkpt>
      <trkpt lat="36.813177578151226043701171875" lon="-118.4036505036056041717529296875">
        <ele>3222.60009765625</ele>
        <time>2021-06-27T00:38:59.000Z</time>
        <extensions>
          <ns3:TrackPointExtension>
            <ns3:atemp>30.0</ns3:atemp>
            <ns3:hr>99</ns3:hr>
          </ns3:TrackPointExtension>
        </extensions>
      </trkpt>
      <trkpt lat="36.81319333612918853759765625" lon="-118.40367942117154598236083984375">
        <ele>3222.60009765625</ele>
        <time>2021-06-27T00:39:02.000Z</time>
        <extensions>
          <ns3:TrackPointExtension>
            <ns3:atemp>30.0</ns3:atemp>
            <ns3:hr>99</ns3:hr>
          </ns3:TrackPointExtension>
        </extensions>
      </trkpt>
      <trkpt lat="36.81321253068745136260986328125" lon="-118.40369693934917449951171875">
        <ele>3223</ele>
        <time>2021-06-27T00:39:04.000Z</time>
        <extensions>
          <ns3:TrackPointExtension>
            <ns3:atemp>30.0</ns3:atemp>
            <ns3:hr>100</ns3:hr>
          </ns3:TrackPointExtension>
        </extensions>
      </trkpt>
      <trkpt lat="36.813243962824344635009765625" lon="-118.40371864847838878631591796875">
        <ele>3223</ele>
        <time>2021-06-27T00:39:07.000Z</time>
        <extensions>
          <ns3:TrackPointExtension>
            <ns3:atemp>30.0</ns3:atemp>
            <ns3:hr>100</ns3:hr>
          </ns3:TrackPointExtension>
        </extensions>
      </trkpt>
      <trkpt lat="36.8133048154413700103759765625" lon="-118.403769023716449737548828125">
        <ele>3223.60009765625</ele>
        <time>2021-06-27T00:39:15.000Z</time>
        <extensions>
          <ns3:TrackPointExtension>
            <ns3:atemp>30.0</ns3:atemp>
            <ns3:hr>101</ns3:hr>
          </ns3:TrackPointExtension>
        </extensions>
      </trkpt>
      <trkpt lat="36.8133480660617351531982421875" lon="-118.4038261882960796356201171875">
        <ele>3223.800048828125</ele>
        <time>2021-06-27T00:39:21.000Z</time>
        <extensions>
          <ns3:TrackPointExtension>
            <ns3:atemp>30.0</ns3:atemp>
            <ns3:hr>99</ns3:hr>
          </ns3:TrackPointExtension>
        </extensions>
      </trkpt>
      <trkpt lat="36.813355945050716400146484375" lon="-118.40383599512279033660888671875">
        <ele>3223.800048828125</ele>
        <time>2021-06-27T00:39:22.000Z</time>
        <extensions>
          <ns3:TrackPointExtension>
            <ns3:atemp>30.0</ns3:atemp>
            <ns3:hr>99</ns3:hr>
          </ns3:TrackPointExtension>
        </extensions>
      </trkpt>
      <trkpt lat="36.81338771246373653411865234375" lon="-118.40386348776519298553466796875">
        <ele>3223.800048828125</ele>
        <time>2021-06-27T00:39:26.000Z</time>
        <extensions>
          <ns3:TrackPointExtension>
            <ns3:atemp>30.0</ns3:atemp>
            <ns3:hr>105</ns3:hr>
          </ns3:TrackPointExtension>
        </extensions>
      </trkpt>
      <trkpt lat="36.81339827366173267364501953125" lon="-118.4038677625358104705810546875">
        <ele>3224</ele>
        <time>2021-06-27T00:39:27.000Z</time>
        <extensions>
          <ns3:TrackPointExtension>
            <ns3:atemp>30.0</ns3:atemp>
            <ns3:hr>102</ns3:hr>
          </ns3:TrackPointExtension>
        </extensions>
      </trkpt>
      <trkpt lat="36.81341034360229969024658203125" lon="-118.4038724564015865325927734375">
        <ele>3224</ele>
        <time>2021-06-27T00:39:28.000Z</time>
        <extensions>
          <ns3:TrackPointExtension>
            <ns3:atemp>30.0</ns3:atemp>
            <ns3:hr>101</ns3:hr>
          </ns3:TrackPointExtension>
        </extensions>
      </trkpt>
      <trkpt lat="36.8134208209812641143798828125" lon="-118.40387455187737941741943359375">
        <ele>3224.60009765625</ele>
        <time>2021-06-27T00:39:29.000Z</time>
        <extensions>
          <ns3:TrackPointExtension>
            <ns3:atemp>30.0</ns3:atemp>
            <ns3:hr>102</ns3:hr>
          </ns3:TrackPointExtension>
        </extensions>
      </trkpt>
      <trkpt lat="36.813432388007640838623046875" lon="-118.4038724564015865325927734375">
        <ele>3224.60009765625</ele>
        <time>2021-06-27T00:39:30.000Z</time>
        <extensions>
          <ns3:TrackPointExtension>
            <ns3:atemp>30.0</ns3:atemp>
            <ns3:hr>103</ns3:hr>
          </ns3:TrackPointExtension>
        </extensions>
      </trkpt>
      <trkpt lat="36.81345359422266483306884765625" lon="-118.4038746356964111328125">
        <ele>3224.60009765625</ele>
        <time>2021-06-27T00:39:32.000Z</time>
        <extensions>
          <ns3:TrackPointExtension>
            <ns3:atemp>30.0</ns3:atemp>
            <ns3:hr>104</ns3:hr>
          </ns3:TrackPointExtension>
        </extensions>
      </trkpt>
      <trkpt lat="36.81347304023802280426025390625" lon="-118.40388108976185321807861328125">
        <ele>3224.39990234375</ele>
        <time>2021-06-27T00:39:36.000Z</time>
        <extensions>
          <ns3:TrackPointExtension>
            <ns3:atemp>30.0</ns3:atemp>
            <ns3:hr>107</ns3:hr>
          </ns3:TrackPointExtension>
        </extensions>
      </trkpt>
      <trkpt lat="36.81350715458393096923828125" lon="-118.403888046741485595703125">
        <ele>3224.60009765625</ele>
        <time>2021-06-27T00:39:39.000Z</time>
        <extensions>
          <ns3:TrackPointExtension>
            <ns3:atemp>30.0</ns3:atemp>
            <ns3:hr>108</ns3:hr>
          </ns3:TrackPointExtension>
        </extensions>
      </trkpt>
      <trkpt lat="36.81355970911681652069091796875" lon="-118.4039163775742053985595703125">
        <ele>3224</ele>
        <time>2021-06-27T00:39:45.000Z</time>
        <extensions>
          <ns3:TrackPointExtension>
            <ns3:atemp>30.0</ns3:atemp>
            <ns3:hr>110</ns3:hr>
          </ns3:TrackPointExtension>
        </extensions>
      </trkpt>
      <trkpt lat="36.81357027031481266021728515625" lon="-118.4039271064102649688720703125">
        <ele>3224</ele>
        <time>2021-06-27T00:39:46.000Z</time>
        <extensions>
          <ns3:TrackPointExtension>
            <ns3:atemp>30.0</ns3:atemp>
            <ns3:hr>109</ns3:hr>
          </ns3:TrackPointExtension>
        </extensions>
      </trkpt>
      <trkpt lat="36.81359005160629749298095703125" lon="-118.403963483870029449462890625">
        <ele>3223.800048828125</ele>
        <time>2021-06-27T00:39:49.000Z</time>
        <extensions>
          <ns3:TrackPointExtension>
            <ns3:atemp>30.0</ns3:atemp>
            <ns3:hr>109</ns3:hr>
          </ns3:TrackPointExtension>
        </extensions>
      </trkpt>
      <trkpt lat="36.81360782124102115631103515625" lon="-118.40397647581994533538818359375">
        <ele>3223.60009765625</ele>
        <time>2021-06-27T00:39:51.000Z</time>
        <extensions>
          <ns3:TrackPointExtension>
            <ns3:atemp>30.0</ns3:atemp>
            <ns3:hr>108</ns3:hr>
          </ns3:TrackPointExtension>
        </extensions>
      </trkpt>
      <trkpt lat="36.81368309073150157928466796875" lon="-118.40403347276151180267333984375">
        <ele>3224</ele>
        <time>2021-06-27T00:39:59.000Z</time>
        <extensions>
          <ns3:TrackPointExtension>
            <ns3:atemp>30.0</ns3:atemp>
            <ns3:hr>107</ns3:hr>
          </ns3:TrackPointExtension>
        </extensions>
      </trkpt>
      <trkpt lat="36.81369222700595855712890625" lon="-118.4040407650172710418701171875">
        <ele>3224</ele>
        <time>2021-06-27T00:40:00.000Z</time>
        <extensions>
          <ns3:TrackPointExtension>
            <ns3:atemp>30.0</ns3:atemp>
            <ns3:hr>108</ns3:hr>
          </ns3:TrackPointExtension>
        </extensions>
      </trkpt>
      <trkpt lat="36.81370555423200130462646484375" lon="-118.40405543334782123565673828125">
        <ele>3224</ele>
        <time>2021-06-27T00:40:02.000Z</time>
        <extensions>
          <ns3:TrackPointExtension>
            <ns3:atemp>31.0</ns3:atemp>
            <ns3:hr>107</ns3:hr>
          </ns3:TrackPointExtension>
        </extensions>
      </trkpt>
      <trkpt lat="36.8137336336076259613037109375" lon="-118.404091559350490570068359375">
        <ele>3224</ele>
        <time>2021-06-27T00:40:06.000Z</time>
        <extensions>
          <ns3:TrackPointExtension>
            <ns3:atemp>31.0</ns3:atemp>
            <ns3:hr>105</ns3:hr>
          </ns3:TrackPointExtension>
        </extensions>
      </trkpt>
      <trkpt lat="36.8137678317725658416748046875" lon="-118.40411326847970485687255859375">
        <ele>3223.39990234375</ele>
        <time>2021-06-27T00:40:10.000Z</time>
        <extensions>
          <ns3:TrackPointExtension>
            <ns3:atemp>31.0</ns3:atemp>
            <ns3:hr>103</ns3:hr>
          </ns3:TrackPointExtension>
        </extensions>
      </trkpt>
      <trkpt lat="36.8138050474226474761962890625" lon="-118.40412609279155731201171875">
        <ele>3223</ele>
        <time>2021-06-27T00:40:14.000Z</time>
        <extensions>
          <ns3:TrackPointExtension>
            <ns3:atemp>31.0</ns3:atemp>
            <ns3:hr>102</ns3:hr>
          </ns3:TrackPointExtension>
        </extensions>
      </trkpt>
      <trkpt lat="36.8138377368450164794921875" lon="-118.40414981357753276824951171875">
        <ele>3222.800048828125</ele>
        <time>2021-06-27T00:40:17.000Z</time>
        <extensions>
          <ns3:TrackPointExtension>
            <ns3:atemp>31.0</ns3:atemp>
            <ns3:hr>101</ns3:hr>
          </ns3:TrackPointExtension>
        </extensions>
      </trkpt>
      <trkpt lat="36.81386128999292850494384765625" lon="-118.40417948551476001739501953125">
        <ele>3222.800048828125</ele>
        <time>2021-06-27T00:40:20.000Z</time>
        <extensions>
          <ns3:TrackPointExtension>
            <ns3:atemp>31.0</ns3:atemp>
            <ns3:hr>102</ns3:hr>
          </ns3:TrackPointExtension>
        </extensions>
      </trkpt>
      <trkpt lat="36.8138704262673854827880859375" lon="-118.40418803505599498748779296875">
        <ele>3222.800048828125</ele>
        <time>2021-06-27T00:40:21.000Z</time>
        <extensions>
          <ns3:TrackPointExtension>
            <ns3:atemp>31.0</ns3:atemp>
            <ns3:hr>102</ns3:hr>
          </ns3:TrackPointExtension>
        </extensions>
      </trkpt>
      <trkpt lat="36.81388978846371173858642578125" lon="-118.4042003564536571502685546875">
        <ele>3222.199951171875</ele>
        <time>2021-06-27T00:40:23.000Z</time>
        <extensions>
          <ns3:TrackPointExtension>
            <ns3:atemp>31.0</ns3:atemp>
            <ns3:hr>102</ns3:hr>
          </ns3:TrackPointExtension>
        </extensions>
      </trkpt>
      <trkpt lat="36.81390278041362762451171875" lon="-118.4042027033865451812744140625">
        <ele>3222.60009765625</ele>
        <time>2021-06-27T00:40:24.000Z</time>
        <extensions>
          <ns3:TrackPointExtension>
            <ns3:atemp>31.0</ns3:atemp>
            <ns3:hr>101</ns3:hr>
          </ns3:TrackPointExtension>
        </extensions>
      </trkpt>
      <trkpt lat="36.81392398662865161895751953125" lon="-118.40420748107135295867919921875">
        <ele>3222.60009765625</ele>
        <time>2021-06-27T00:40:26.000Z</time>
        <extensions>
          <ns3:TrackPointExtension>
            <ns3:atemp>31.0</ns3:atemp>
            <ns3:hr>101</ns3:hr>
          </ns3:TrackPointExtension>
        </extensions>
      </trkpt>
      <trkpt lat="36.813980899751186370849609375" lon="-118.4041735343635082244873046875">
        <ele>3222.60009765625</ele>
        <time>2021-06-27T00:40:32.000Z</time>
        <extensions>
          <ns3:TrackPointExtension>
            <ns3:atemp>31.0</ns3:atemp>
            <ns3:hr>98</ns3:hr>
          </ns3:TrackPointExtension>
        </extensions>
      </trkpt>
      <trkpt lat="36.8139807321131229400634765625" lon="-118.40417839586734771728515625">
        <ele>3222.39990234375</ele>
        <time>2021-06-27T00:40:34.000Z</time>
        <extensions>
          <ns3:TrackPointExtension>
            <ns3:atemp>31.0</ns3:atemp>
            <ns3:hr>96</ns3:hr>
          </ns3:TrackPointExtension>
        </extensions>
      </trkpt>
      <trkpt lat="36.8139837495982646942138671875" lon="-118.40414411388337612152099609375">
        <ele>3222.39990234375</ele>
        <time>2021-06-27T00:40:40.000Z</time>
        <extensions>
          <ns3:TrackPointExtension>
            <ns3:atemp>31.0</ns3:atemp>
            <ns3:hr>93</ns3:hr>
          </ns3:TrackPointExtension>
        </extensions>
      </trkpt>
      <trkpt lat="36.813976876437664031982421875" lon="-118.4041312895715236663818359375">
        <ele>3222.39990234375</ele>
        <time>2021-06-27T00:40:43.000Z</time>
        <extensions>
          <ns3:TrackPointExtension>
            <ns3:atemp>31.0</ns3:atemp>
            <ns3:hr>94</ns3:hr>
          </ns3:TrackPointExtension>
        </extensions>
      </trkpt>
      <trkpt lat="36.81396715342998504638671875" lon="-118.40413271449506282806396484375">
        <ele>3222.39990234375</ele>
        <time>2021-06-27T00:40:44.000Z</time>
        <extensions>
          <ns3:TrackPointExtension>
            <ns3:atemp>31.0</ns3:atemp>
            <ns3:hr>94</ns3:hr>
          </ns3:TrackPointExtension>
        </extensions>
      </trkpt>
      <trkpt lat="36.81396715342998504638671875" lon="-118.40413271449506282806396484375">
        <ele>3222.39990234375</ele>
        <time>2021-06-27T00:40:47.000Z</time>
        <extensions>
          <ns3:TrackPointExtension>
            <ns3:atemp>31.0</ns3:atemp>
            <ns3:hr>97</ns3:hr>
          </ns3:TrackPointExtension>
        </extensions>
      </trkpt>
      <trkpt lat="36.81396715342998504638671875" lon="-118.40413271449506282806396484375">
        <ele>3222.39990234375</ele>
        <time>2021-06-27T00:40:53.000Z</time>
        <extensions>
          <ns3:TrackPointExtension>
            <ns3:atemp>31.0</ns3:atemp>
            <ns3:hr>100</ns3:hr>
          </ns3:TrackPointExtension>
        </extensions>
      </trkpt>
      <trkpt lat="36.813974864780902862548828125" lon="-118.40416238643229007720947265625">
        <ele>3222.39990234375</ele>
        <time>2021-06-27T00:40:59.000Z</time>
        <extensions>
          <ns3:TrackPointExtension>
            <ns3:atemp>31.0</ns3:atemp>
            <ns3:hr>100</ns3:hr>
          </ns3:TrackPointExtension>
        </extensions>
      </trkpt>
      <trkpt lat="36.814021803438663482666015625" lon="-118.4042657352983951568603515625">
        <ele>3222.39990234375</ele>
        <time>2021-06-27T00:41:06.000Z</time>
        <extensions>
          <ns3:TrackPointExtension>
            <ns3:atemp>31.0</ns3:atemp>
            <ns3:hr>97</ns3:hr>
          </ns3:TrackPointExtension>
        </extensions>
      </trkpt>
      <trkpt lat="36.8140950612723827362060546875" lon="-118.404333628714084625244140625">
        <ele>3221.800048828125</ele>
        <time>2021-06-27T00:41:14.000Z</time>
        <extensions>
          <ns3:TrackPointExtension>
            <ns3:atemp>31.0</ns3:atemp>
            <ns3:hr>97</ns3:hr>
          </ns3:TrackPointExtension>
        </extensions>
      </trkpt>
      <trkpt lat="36.814103610813617706298828125" lon="-118.404341004788875579833984375">
        <ele>3221.800048828125</ele>
        <time>2021-06-27T00:41:15.000Z</time>
        <extensions>
          <ns3:TrackPointExtension>
            <ns3:atemp>31.0</ns3:atemp>
            <ns3:hr>97</ns3:hr>
          </ns3:TrackPointExtension>
        </extensions>
      </trkpt>
      <trkpt lat="36.814161948859691619873046875" lon="-118.404378555715084075927734375">
        <ele>3221.60009765625</ele>
        <time>2021-06-27T00:41:21.000Z</time>
        <extensions>
          <ns3:TrackPointExtension>
            <ns3:atemp>31.0</ns3:atemp>
            <ns3:hr>97</ns3:hr>
          </ns3:TrackPointExtension>
        </extensions>
      </trkpt>
      <trkpt lat="36.8141865916550159454345703125" lon="-118.4043961577117443084716796875">
        <ele>3221.39990234375</ele>
        <time>2021-06-27T00:41:23.000Z</time>
        <extensions>
          <ns3:TrackPointExtension>
            <ns3:atemp>31.0</ns3:atemp>
            <ns3:hr>100</ns3:hr>
          </ns3:TrackPointExtension>
        </extensions>
      </trkpt>
      <trkpt lat="36.81422724388539791107177734375" lon="-118.40441803447902202606201171875">
        <ele>3221.199951171875</ele>
        <time>2021-06-27T00:41:27.000Z</time>
        <extensions>
          <ns3:TrackPointExtension>
            <ns3:atemp>31.0</ns3:atemp>
            <ns3:hr>101</ns3:hr>
          </ns3:TrackPointExtension>
        </extensions>
      </trkpt>
      <trkpt lat="36.8142566643655300140380859375" lon="-118.40443454682826995849609375">
        <ele>3221</ele>
        <time>2021-06-27T00:41:30.000Z</time>
        <extensions>
          <ns3:TrackPointExtension>
            <ns3:atemp>31.0</ns3:atemp>
            <ns3:hr>102</ns3:hr>
          </ns3:TrackPointExtension>
        </extensions>
      </trkpt>
      <trkpt lat="36.8143032677471637725830078125" lon="-118.4045212157070636749267578125">
        <ele>3220.199951171875</ele>
        <time>2021-06-27T00:41:39.000Z</time>
        <extensions>
          <ns3:TrackPointExtension>
            <ns3:atemp>31.0</ns3:atemp>
            <ns3:hr>100</ns3:hr>
          </ns3:TrackPointExtension>
        </extensions>
      </trkpt>
      <trkpt lat="36.81431039236485958099365234375" lon="-118.40454091317951679229736328125">
        <ele>3219.800048828125</ele>
        <time>2021-06-27T00:41:41.000Z</time>
        <extensions>
          <ns3:TrackPointExtension>
            <ns3:atemp>31.0</ns3:atemp>
            <ns3:hr>99</ns3:hr>
          </ns3:TrackPointExtension>
        </extensions>
      </trkpt>
      <trkpt lat="36.8143331073224544525146484375" lon="-118.40458181686699390411376953125">
        <ele>3219.199951171875</ele>
        <time>2021-06-27T00:41:45.000Z</time>
        <extensions>
          <ns3:TrackPointExtension>
            <ns3:atemp>31.0</ns3:atemp>
            <ns3:hr>98</ns3:hr>
          </ns3:TrackPointExtension>
        </extensions>
      </trkpt>
      <trkpt lat="36.81434593163430690765380859375" lon="-118.4045943059027194976806640625">
        <ele>3219.199951171875</ele>
        <time>2021-06-27T00:41:46.000Z</time>
        <extensions>
          <ns3:TrackPointExtension>
            <ns3:atemp>31.0</ns3:atemp>
            <ns3:hr>98</ns3:hr>
          </ns3:TrackPointExtension>
        </extensions>
      </trkpt>
      <trkpt lat="36.8144068680703639984130859375" lon="-118.40465172193944454193115234375">
        <ele>3219.199951171875</ele>
        <time>2021-06-27T00:41:52.000Z</time>
        <extensions>
          <ns3:TrackPointExtension>
            <ns3:atemp>31.0</ns3:atemp>
            <ns3:hr>97</ns3:hr>
          </ns3:TrackPointExtension>
        </extensions>
      </trkpt>
      <trkpt lat="36.81443360634148120880126953125" lon="-118.40467385016381740570068359375">
        <ele>3219.199951171875</ele>
        <time>2021-06-27T00:41:55.000Z</time>
        <extensions>
          <ns3:TrackPointExtension>
            <ns3:atemp>31.0</ns3:atemp>
            <ns3:hr>94</ns3:hr>
          </ns3:TrackPointExtension>
        </extensions>
      </trkpt>
      <trkpt lat="36.81445238180458545684814453125" lon="-118.40469027869403362274169921875">
        <ele>3219.199951171875</ele>
        <time>2021-06-27T00:42:00.000Z</time>
        <extensions>
          <ns3:TrackPointExtension>
            <ns3:atemp>31.0</ns3:atemp>
            <ns3:hr>93</ns3:hr>
          </ns3:TrackPointExtension>
        </extensions>
      </trkpt>
      <trkpt lat="36.81445975787937641143798828125" lon="-118.40469916351139545440673828125">
        <ele>3219.199951171875</ele>
        <time>2021-06-27T00:42:02.000Z</time>
        <extensions>
          <ns3:TrackPointExtension>
            <ns3:atemp>31.0</ns3:atemp>
            <ns3:hr>93</ns3:hr>
          </ns3:TrackPointExtension>
        </extensions>
      </trkpt>
      <trkpt lat="36.81447417475283145904541015625" lon="-118.40473830699920654296875">
        <ele>3219.39990234375</ele>
        <time>2021-06-27T00:42:04.000Z</time>
        <extensions>
          <ns3:TrackPointExtension>
            <ns3:atemp>31.0</ns3:atemp>
            <ns3:hr>92</ns3:hr>
          </ns3:TrackPointExtension>
        </extensions>
      </trkpt>
      <trkpt lat="36.814489848911762237548828125" lon="-118.404777534306049346923828125">
        <ele>3219.60009765625</ele>
        <time>2021-06-27T00:42:06.000Z</time>
        <extensions>
          <ns3:TrackPointExtension>
            <ns3:atemp>31.0</ns3:atemp>
            <ns3:hr>92</ns3:hr>
          </ns3:TrackPointExtension>
        </extensions>
      </trkpt>
      <trkpt lat="36.8144967220723628997802734375" lon="-118.4047860838472843170166015625">
        <ele>3219.39990234375</ele>
        <time>2021-06-27T00:42:07.000Z</time>
        <extensions>
          <ns3:TrackPointExtension>
            <ns3:atemp>31.0</ns3:atemp>
            <ns3:hr>93</ns3:hr>
          </ns3:TrackPointExtension>
        </extensions>
      </trkpt>
      <trkpt lat="36.8145295791327953338623046875" lon="-118.40479086153209209442138671875">
        <ele>3219.60009765625</ele>
        <time>2021-06-27T00:42:09.000Z</time>
        <extensions>
          <ns3:TrackPointExtension>
            <ns3:atemp>31.0</ns3:atemp>
            <ns3:hr>93</ns3:hr>
          </ns3:TrackPointExtension>
        </extensions>
      </trkpt>
      <trkpt lat="36.81457274593412876129150390625" lon="-118.4047973155975341796875">
        <ele>3219.60009765625</ele>
        <time>2021-06-27T00:42:12.000Z</time>
        <extensions>
          <ns3:TrackPointExtension>
            <ns3:atemp>31.0</ns3:atemp>
            <ns3:hr>94</ns3:hr>
          </ns3:TrackPointExtension>
        </extensions>
      </trkpt>
      <trkpt lat="36.81459344923496246337890625" lon="-118.40480477549135684967041015625">
        <ele>3219.800048828125</ele>
        <time>2021-06-27T00:42:14.000Z</time>
        <extensions>
          <ns3:TrackPointExtension>
            <ns3:atemp>31.0</ns3:atemp>
            <ns3:hr>95</ns3:hr>
          </ns3:TrackPointExtension>
        </extensions>
      </trkpt>
      <trkpt lat="36.8146351911127567291259765625" lon="-118.4048477746546268463134765625">
        <ele>3220</ele>
        <time>2021-06-27T00:42:19.000Z</time>
        <extensions>
          <ns3:TrackPointExtension>
            <ns3:atemp>31.0</ns3:atemp>
            <ns3:hr>94</ns3:hr>
          </ns3:TrackPointExtension>
        </extensions>
      </trkpt>
      <trkpt lat="36.81465572677552700042724609375" lon="-118.40487417764961719512939453125">
        <ele>3220</ele>
        <time>2021-06-27T00:42:21.000Z</time>
        <extensions>
          <ns3:TrackPointExtension>
            <ns3:atemp>31.0</ns3:atemp>
            <ns3:hr>97</ns3:hr>
          </ns3:TrackPointExtension>
        </extensions>
      </trkpt>
      <trkpt lat="36.8146817944943904876708984375" lon="-118.40490653179585933685302734375">
        <ele>3220</ele>
        <time>2021-06-27T00:42:24.000Z</time>
        <extensions>
          <ns3:TrackPointExtension>
            <ns3:atemp>31.0</ns3:atemp>
            <ns3:hr>100</ns3:hr>
          </ns3:TrackPointExtension>
        </extensions>
      </trkpt>
      <trkpt lat="36.814695037901401519775390625" lon="-118.40492664836347103118896484375">
        <ele>3220</ele>
        <time>2021-06-27T00:42:26.000Z</time>
        <extensions>
          <ns3:TrackPointExtension>
            <ns3:atemp>31.0</ns3:atemp>
            <ns3:hr>101</ns3:hr>
          </ns3:TrackPointExtension>
        </extensions>
      </trkpt>
      <trkpt lat="36.8147190101444721221923828125" lon="-118.4049708209931850433349609375">
        <ele>3220.199951171875</ele>
        <time>2021-06-27T00:42:30.000Z</time>
        <extensions>
          <ns3:TrackPointExtension>
            <ns3:atemp>31.0</ns3:atemp>
            <ns3:hr>104</ns3:hr>
          </ns3:TrackPointExtension>
        </extensions>
      </trkpt>
      <trkpt lat="36.81472831405699253082275390625" lon="-118.4049805440008640289306640625">
        <ele>3220.199951171875</ele>
        <time>2021-06-27T00:42:31.000Z</time>
        <extensions>
          <ns3:TrackPointExtension>
            <ns3:atemp>31.0</ns3:atemp>
            <ns3:hr>104</ns3:hr>
          </ns3:TrackPointExtension>
        </extensions>
      </trkpt>
      <trkpt lat="36.81475664488971233367919921875" lon="-118.4050083719193935394287109375">
        <ele>3220.199951171875</ele>
        <time>2021-06-27T00:42:34.000Z</time>
        <extensions>
          <ns3:TrackPointExtension>
            <ns3:atemp>31.0</ns3:atemp>
            <ns3:hr>104</ns3:hr>
          </ns3:TrackPointExtension>
        </extensions>
      </trkpt>
      <trkpt lat="36.814792938530445098876953125" lon="-118.40504986234009265899658203125">
        <ele>3220.199951171875</ele>
        <time>2021-06-27T00:42:38.000Z</time>
        <extensions>
          <ns3:TrackPointExtension>
            <ns3:atemp>31.0</ns3:atemp>
            <ns3:hr>102</ns3:hr>
          </ns3:TrackPointExtension>
        </extensions>
      </trkpt>
      <trkpt lat="36.8148202635347843170166015625" lon="-118.40507115237414836883544921875">
        <ele>3220</ele>
        <time>2021-06-27T00:42:41.000Z</time>
        <extensions>
          <ns3:TrackPointExtension>
            <ns3:atemp>31.0</ns3:atemp>
            <ns3:hr>101</ns3:hr>
          </ns3:TrackPointExtension>
        </extensions>
      </trkpt>
      <trkpt lat="36.8149054236710071563720703125" lon="-118.405128233134746551513671875">
        <ele>3220.39990234375</ele>
        <time>2021-06-27T00:42:49.000Z</time>
        <extensions>
          <ns3:TrackPointExtension>
            <ns3:atemp>31.0</ns3:atemp>
            <ns3:hr>100</ns3:hr>
          </ns3:TrackPointExtension>
        </extensions>
      </trkpt>
      <trkpt lat="36.814953200519084930419921875" lon="-118.40516570024192333221435546875">
        <ele>3220.39990234375</ele>
        <time>2021-06-27T00:42:54.000Z</time>
        <extensions>
          <ns3:TrackPointExtension>
            <ns3:atemp>31.0</ns3:atemp>
            <ns3:hr>101</ns3:hr>
          </ns3:TrackPointExtension>
        </extensions>
      </trkpt>
      <trkpt lat="36.814977340400218963623046875" lon="-118.40518548153340816497802734375">
        <ele>3220.60009765625</ele>
        <time>2021-06-27T00:42:56.000Z</time>
        <extensions>
          <ns3:TrackPointExtension>
            <ns3:atemp>31.0</ns3:atemp>
            <ns3:hr>101</ns3:hr>
          </ns3:TrackPointExtension>
        </extensions>
      </trkpt>
      <trkpt lat="36.814995110034942626953125" lon="-118.40520434081554412841796875">
        <ele>3220.800048828125</ele>
        <time>2021-06-27T00:42:59.000Z</time>
        <extensions>
          <ns3:TrackPointExtension>
            <ns3:atemp>31.0</ns3:atemp>
            <ns3:hr>100</ns3:hr>
          </ns3:TrackPointExtension>
        </extensions>
      </trkpt>
      <trkpt lat="36.815004833042621612548828125" lon="-118.4052118845283985137939453125">
        <ele>3221</ele>
        <time>2021-06-27T00:43:02.000Z</time>
        <extensions>
          <ns3:TrackPointExtension>
            <ns3:atemp>31.0</ns3:atemp>
            <ns3:hr>97</ns3:hr>
          </ns3:TrackPointExtension>
        </extensions>
      </trkpt>
      <trkpt lat="36.81500676088035106658935546875" lon="-118.40520568192005157470703125">
        <ele>3221</ele>
        <time>2021-06-27T00:43:03.000Z</time>
        <extensions>
          <ns3:TrackPointExtension>
            <ns3:atemp>31.0</ns3:atemp>
            <ns3:hr>98</ns3:hr>
          </ns3:TrackPointExtension>
        </extensions>
      </trkpt>
      <trkpt lat="36.81500894017517566680908203125" lon="-118.4052018262445926666259765625">
        <ele>3221</ele>
        <time>2021-06-27T00:43:04.000Z</time>
        <extensions>
          <ns3:TrackPointExtension>
            <ns3:atemp>31.0</ns3:atemp>
            <ns3:hr>99</ns3:hr>
          </ns3:TrackPointExtension>
        </extensions>
      </trkpt>
      <trkpt lat="36.8150086887180805206298828125" lon="-118.4051983058452606201171875">
        <ele>3221</ele>
        <time>2021-06-27T00:43:05.000Z</time>
        <extensions>
          <ns3:TrackPointExtension>
            <ns3:atemp>31.0</ns3:atemp>
            <ns3:hr>100</ns3:hr>
          </ns3:TrackPointExtension>
        </extensions>
      </trkpt>
      <trkpt lat="36.81499041616916656494140625" lon="-118.40518933720886707305908203125">
        <ele>3221</ele>
        <time>2021-06-27T00:43:08.000Z</time>
        <extensions>
          <ns3:TrackPointExtension>
            <ns3:atemp>31.0</ns3:atemp>
            <ns3:hr>104</ns3:hr>
          </ns3:TrackPointExtension>
        </extensions>
      </trkpt>
      <trkpt lat="36.814988739788532257080078125" lon="-118.40520727448165416717529296875">
        <ele>3221.199951171875</ele>
        <time>2021-06-27T00:43:18.000Z</time>
        <extensions>
          <ns3:TrackPointExtension>
            <ns3:atemp>31.0</ns3:atemp>
            <ns3:hr>101</ns3:hr>
          </ns3:TrackPointExtension>
        </extensions>
      </trkpt>
      <trkpt lat="36.81499955244362354278564453125" lon="-118.40520123951137065887451171875">
        <ele>3221.199951171875</ele>
        <time>2021-06-27T00:43:30.000Z</time>
        <extensions>
          <ns3:TrackPointExtension>
            <ns3:atemp>31.0</ns3:atemp>
            <ns3:hr>104</ns3:hr>
          </ns3:TrackPointExtension>
        </extensions>
      </trkpt>
      <trkpt lat="36.81505302898585796356201171875" lon="-118.4052561409771442413330078125">
        <ele>3220.800048828125</ele>
        <time>2021-06-27T00:43:39.000Z</time>
        <extensions>
          <ns3:TrackPointExtension>
            <ns3:atemp>31.0</ns3:atemp>
            <ns3:hr>104</ns3:hr>
          </ns3:TrackPointExtension>
        </extensions>
      </trkpt>
      <trkpt lat="36.81514187715947628021240234375" lon="-118.40535052120685577392578125">
        <ele>3220.39990234375</ele>
        <time>2021-06-27T00:43:47.000Z</time>
        <extensions>
          <ns3:TrackPointExtension>
            <ns3:atemp>31.0</ns3:atemp>
            <ns3:hr>101</ns3:hr>
          </ns3:TrackPointExtension>
        </extensions>
      </trkpt>
      <trkpt lat="36.8151635862886905670166015625" lon="-118.40536653064191341400146484375">
        <ele>3220.199951171875</ele>
        <time>2021-06-27T00:43:49.000Z</time>
        <extensions>
          <ns3:TrackPointExtension>
            <ns3:atemp>31.0</ns3:atemp>
            <ns3:hr>101</ns3:hr>
          </ns3:TrackPointExtension>
        </extensions>
      </trkpt>
      <trkpt lat="36.8152326531708240509033203125" lon="-118.4053962863981723785400390625">
        <ele>3220.199951171875</ele>
        <time>2021-06-27T00:43:56.000Z</time>
        <extensions>
          <ns3:TrackPointExtension>
            <ns3:atemp>31.0</ns3:atemp>
            <ns3:hr>104</ns3:hr>
          </ns3:TrackPointExtension>
        </extensions>
      </trkpt>
      <trkpt lat="36.81524061597883701324462890625" lon="-118.4054070152342319488525390625">
        <ele>3220.199951171875</ele>
        <time>2021-06-27T00:43:57.000Z</time>
        <extensions>
          <ns3:TrackPointExtension>
            <ns3:atemp>31.0</ns3:atemp>
            <ns3:hr>104</ns3:hr>
          </ns3:TrackPointExtension>
        </extensions>
      </trkpt>
      <trkpt lat="36.81532175280153751373291015625" lon="-118.40548463165760040283203125">
        <ele>3220</ele>
        <time>2021-06-27T00:44:06.000Z</time>
        <extensions>
          <ns3:TrackPointExtension>
            <ns3:atemp>31.0</ns3:atemp>
            <ns3:hr>103</ns3:hr>
          </ns3:TrackPointExtension>
        </extensions>
      </trkpt>
      <trkpt lat="36.815361566841602325439453125" lon="-118.405513130128383636474609375">
        <ele>3219.800048828125</ele>
        <time>2021-06-27T00:44:10.000Z</time>
        <extensions>
          <ns3:TrackPointExtension>
            <ns3:atemp>31.0</ns3:atemp>
            <ns3:hr>104</ns3:hr>
          </ns3:TrackPointExtension>
        </extensions>
      </trkpt>
      <trkpt lat="36.8153826892375946044921875" lon="-118.405517153441905975341796875">
        <ele>3219.800048828125</ele>
        <time>2021-06-27T00:44:12.000Z</time>
        <extensions>
          <ns3:TrackPointExtension>
            <ns3:atemp>31.0</ns3:atemp>
            <ns3:hr>105</ns3:hr>
          </ns3:TrackPointExtension>
        </extensions>
      </trkpt>
      <trkpt lat="36.8153909035027027130126953125" lon="-118.4055240266025066375732421875">
        <ele>3219.800048828125</ele>
        <time>2021-06-27T00:44:13.000Z</time>
        <extensions>
          <ns3:TrackPointExtension>
            <ns3:atemp>31.0</ns3:atemp>
            <ns3:hr>108</ns3:hr>
          </ns3:TrackPointExtension>
        </extensions>
      </trkpt>
      <trkpt lat="36.815397441387176513671875" lon="-118.40552930720150470733642578125">
        <ele>3219.60009765625</ele>
        <time>2021-06-27T00:44:14.000Z</time>
        <extensions>
          <ns3:TrackPointExtension>
            <ns3:atemp>31.0</ns3:atemp>
            <ns3:hr>106</ns3:hr>
          </ns3:TrackPointExtension>
        </extensions>
      </trkpt>
      <trkpt lat="36.81540322490036487579345703125" lon="-118.4055314026772975921630859375">
        <ele>3219.60009765625</ele>
        <time>2021-06-27T00:44:15.000Z</time>
        <extensions>
          <ns3:TrackPointExtension>
            <ns3:atemp>31.0</ns3:atemp>
            <ns3:hr>107</ns3:hr>
          </ns3:TrackPointExtension>
        </extensions>
      </trkpt>
      <trkpt lat="36.81544697843492031097412109375" lon="-118.40552561916410923004150390625">
        <ele>3219</ele>
        <time>2021-06-27T00:44:19.000Z</time>
        <extensions>
          <ns3:TrackPointExtension>
            <ns3:atemp>31.0</ns3:atemp>
            <ns3:hr>103</ns3:hr>
          </ns3:TrackPointExtension>
        </extensions>
      </trkpt>
      <trkpt lat="36.81546877138316631317138671875" lon="-118.40553282760083675384521484375">
        <ele>3219</ele>
        <time>2021-06-27T00:44:21.000Z</time>
        <extensions>
          <ns3:TrackPointExtension>
            <ns3:atemp>31.0</ns3:atemp>
            <ns3:hr>102</ns3:hr>
          </ns3:TrackPointExtension>
        </extensions>
      </trkpt>
      <trkpt lat="36.815521158277988433837890625" lon="-118.4055374376475811004638671875">
        <ele>3218.800048828125</ele>
        <time>2021-06-27T00:44:25.000Z</time>
        <extensions>
          <ns3:TrackPointExtension>
            <ns3:atemp>31.0</ns3:atemp>
            <ns3:hr>103</ns3:hr>
          </ns3:TrackPointExtension>
        </extensions>
      </trkpt>
      <trkpt lat="36.81556415744125843048095703125" lon="-118.40553936548531055450439453125">
        <ele>3218.39990234375</ele>
        <time>2021-06-27T00:44:29.000Z</time>
        <extensions>
          <ns3:TrackPointExtension>
            <ns3:atemp>31.0</ns3:atemp>
            <ns3:hr>101</ns3:hr>
          </ns3:TrackPointExtension>
        </extensions>
      </trkpt>
      <trkpt lat="36.81561092846095561981201171875" lon="-118.40553584508597850799560546875">
        <ele>3217.39990234375</ele>
        <time>2021-06-27T00:44:34.000Z</time>
        <extensions>
          <ns3:TrackPointExtension>
            <ns3:atemp>31.0</ns3:atemp>
            <ns3:hr>101</ns3:hr>
          </ns3:TrackPointExtension>
        </extensions>
      </trkpt>
      <trkpt lat="36.81563003920018672943115234375" lon="-118.40553827583789825439453125">
        <ele>3217.199951171875</ele>
        <time>2021-06-27T00:44:36.000Z</time>
        <extensions>
          <ns3:TrackPointExtension>
            <ns3:atemp>31.0</ns3:atemp>
            <ns3:hr>101</ns3:hr>
          </ns3:TrackPointExtension>
        </extensions>
      </trkpt>
      <trkpt lat="36.81568083353340625762939453125" lon="-118.40555394999682903289794921875">
        <ele>3217</ele>
        <time>2021-06-27T00:44:40.000Z</time>
        <extensions>
          <ns3:TrackPointExtension>
            <ns3:atemp>31.0</ns3:atemp>
            <ns3:hr>98</ns3:hr>
          </ns3:TrackPointExtension>
        </extensions>
      </trkpt>
      <trkpt lat="36.8157271854579448699951171875" lon="-118.40557054616510868072509765625">
        <ele>3216.39990234375</ele>
        <time>2021-06-27T00:44:43.000Z</time>
        <extensions>
          <ns3:TrackPointExtension>
            <ns3:atemp>31.0</ns3:atemp>
            <ns3:hr>98</ns3:hr>
          </ns3:TrackPointExtension>
        </extensions>
      </trkpt>
      <trkpt lat="36.81576884351670742034912109375" lon="-118.40558747760951519012451171875">
        <ele>3216.39990234375</ele>
        <time>2021-06-27T00:44:50.000Z</time>
        <extensions>
          <ns3:TrackPointExtension>
            <ns3:atemp>31.0</ns3:atemp>
            <ns3:hr>97</ns3:hr>
          </ns3:TrackPointExtension>
        </extensions>
      </trkpt>
      <trkpt lat="36.815805472433567047119140625" lon="-118.4055699594318866729736328125">
        <ele>3216.199951171875</ele>
        <time>2021-06-27T00:44:53.000Z</time>
        <extensions>
          <ns3:TrackPointExtension>
            <ns3:atemp>31.0</ns3:atemp>
            <ns3:hr>98</ns3:hr>
          </ns3:TrackPointExtension>
        </extensions>
      </trkpt>
      <trkpt lat="36.81582592427730560302734375" lon="-118.405552692711353302001953125">
        <ele>3216</ele>
        <time>2021-06-27T00:44:55.000Z</time>
        <extensions>
          <ns3:TrackPointExtension>
            <ns3:atemp>31.0</ns3:atemp>
            <ns3:hr>95</ns3:hr>
          </ns3:TrackPointExtension>
        </extensions>
      </trkpt>
      <trkpt lat="36.81583941914141178131103515625" lon="-118.40554556809365749359130859375">
        <ele>3215.800048828125</ele>
        <time>2021-06-27T00:44:57.000Z</time>
        <extensions>
          <ns3:TrackPointExtension>
            <ns3:atemp>31.0</ns3:atemp>
            <ns3:hr>97</ns3:hr>
          </ns3:TrackPointExtension>
        </extensions>
      </trkpt>
      <trkpt lat="36.81588484905660152435302734375" lon="-118.40553433634340763092041015625">
        <ele>3215</ele>
        <time>2021-06-27T00:45:02.000Z</time>
        <extensions>
          <ns3:TrackPointExtension>
            <ns3:atemp>31.0</ns3:atemp>
            <ns3:hr>98</ns3:hr>
          </ns3:TrackPointExtension>
        </extensions>
      </trkpt>
      <trkpt lat="36.81595643050968647003173828125" lon="-118.4054918400943279266357421875">
        <ele>3214.39990234375</ele>
        <time>2021-06-27T00:45:10.000Z</time>
        <extensions>
          <ns3:TrackPointExtension>
            <ns3:atemp>31.0</ns3:atemp>
            <ns3:hr>97</ns3:hr>
          </ns3:TrackPointExtension>
        </extensions>
      </trkpt>
      <trkpt lat="36.8159729428589344024658203125" lon="-118.40548270381987094879150390625">
        <ele>3214.199951171875</ele>
        <time>2021-06-27T00:45:13.000Z</time>
        <extensions>
          <ns3:TrackPointExtension>
            <ns3:atemp>31.0</ns3:atemp>
            <ns3:hr>97</ns3:hr>
          </ns3:TrackPointExtension>
        </extensions>
      </trkpt>
      <trkpt lat="36.81598844937980175018310546875" lon="-118.40548018924891948699951171875">
        <ele>3214.199951171875</ele>
        <time>2021-06-27T00:45:15.000Z</time>
        <extensions>
          <ns3:TrackPointExtension>
            <ns3:atemp>31.0</ns3:atemp>
            <ns3:hr>95</ns3:hr>
          </ns3:TrackPointExtension>
        </extensions>
      </trkpt>
      <trkpt lat="36.81600856594741344451904296875" lon="-118.4054718911647796630859375">
        <ele>3213.800048828125</ele>
        <time>2021-06-27T00:45:17.000Z</time>
        <extensions>
          <ns3:TrackPointExtension>
            <ns3:atemp>31.0</ns3:atemp>
            <ns3:hr>95</ns3:hr>
          </ns3:TrackPointExtension>
        </extensions>
      </trkpt>
      <trkpt lat="36.8160386569797992706298828125" lon="-118.40547398664057254791259765625">
        <ele>3213.39990234375</ele>
        <time>2021-06-27T00:45:20.000Z</time>
        <extensions>
          <ns3:TrackPointExtension>
            <ns3:atemp>31.0</ns3:atemp>
            <ns3:hr>94</ns3:hr>
          </ns3:TrackPointExtension>
        </extensions>
      </trkpt>
      <trkpt lat="36.816066987812519073486328125" lon="-118.40549896471202373504638671875">
        <ele>3212.800048828125</ele>
        <time>2021-06-27T00:45:23.000Z</time>
        <extensions>
          <ns3:TrackPointExtension>
            <ns3:atemp>31.0</ns3:atemp>
            <ns3:hr>94</ns3:hr>
          </ns3:TrackPointExtension>
        </extensions>
      </trkpt>
      <trkpt lat="36.816073022782802581787109375" lon="-118.4055075980722904205322265625">
        <ele>3212.800048828125</ele>
        <time>2021-06-27T00:45:24.000Z</time>
        <extensions>
          <ns3:TrackPointExtension>
            <ns3:atemp>31.0</ns3:atemp>
            <ns3:hr>93</ns3:hr>
          </ns3:TrackPointExtension>
        </extensions>
      </trkpt>
      <trkpt lat="36.81615223176777362823486328125" lon="-118.40560222975909709930419921875">
        <ele>3212.60009765625</ele>
        <time>2021-06-27T00:45:34.000Z</time>
        <extensions>
          <ns3:TrackPointExtension>
            <ns3:atemp>31.0</ns3:atemp>
            <ns3:hr>93</ns3:hr>
          </ns3:TrackPointExtension>
        </extensions>
      </trkpt>
      <trkpt lat="36.8162287585437297821044921875" lon="-118.40569325722754001617431640625">
        <ele>3212.39990234375</ele>
        <time>2021-06-27T00:45:44.000Z</time>
        <extensions>
          <ns3:TrackPointExtension>
            <ns3:atemp>32.0</ns3:atemp>
            <ns3:hr>93</ns3:hr>
          </ns3:TrackPointExtension>
        </extensions>
      </trkpt>
      <trkpt lat="36.8162378109991550445556640625" lon="-118.40571136213839054107666015625">
        <ele>3212.39990234375</ele>
        <time>2021-06-27T00:45:46.000Z</time>
        <extensions>
          <ns3:TrackPointExtension>
            <ns3:atemp>32.0</ns3:atemp>
            <ns3:hr>91</ns3:hr>
          </ns3:TrackPointExtension>
        </extensions>
      </trkpt>
      <trkpt lat="36.816243343055248260498046875" lon="-118.40572468936443328857421875">
        <ele>3212.39990234375</ele>
        <time>2021-06-27T00:45:47.000Z</time>
        <extensions>
          <ns3:TrackPointExtension>
            <ns3:atemp>32.0</ns3:atemp>
            <ns3:hr>94</ns3:hr>
          </ns3:TrackPointExtension>
        </extensions>
      </trkpt>
      <trkpt lat="36.816261447966098785400390625" lon="-118.40575830079615116119384765625">
        <ele>3212.39990234375</ele>
        <time>2021-06-27T00:45:50.000Z</time>
        <extensions>
          <ns3:TrackPointExtension>
            <ns3:atemp>32.0</ns3:atemp>
            <ns3:hr>97</ns3:hr>
          </ns3:TrackPointExtension>
        </extensions>
      </trkpt>
      <trkpt lat="36.81626874022185802459716796875" lon="-118.40577020309865474700927734375">
        <ele>3212.39990234375</ele>
        <time>2021-06-27T00:45:51.000Z</time>
        <extensions>
          <ns3:TrackPointExtension>
            <ns3:atemp>32.0</ns3:atemp>
            <ns3:hr>98</ns3:hr>
          </ns3:TrackPointExtension>
        </extensions>
      </trkpt>
      <trkpt lat="36.81630696170032024383544921875" lon="-118.40580373071134090423583984375">
        <ele>3212.39990234375</ele>
        <time>2021-06-27T00:45:55.000Z</time>
        <extensions>
          <ns3:TrackPointExtension>
            <ns3:atemp>32.0</ns3:atemp>
            <ns3:hr>101</ns3:hr>
          </ns3:TrackPointExtension>
        </extensions>
      </trkpt>
      <trkpt lat="36.8163487873971462249755859375" lon="-118.40584941208362579345703125">
        <ele>3212.800048828125</ele>
        <time>2021-06-27T00:46:00.000Z</time>
        <extensions>
          <ns3:TrackPointExtension>
            <ns3:atemp>32.0</ns3:atemp>
            <ns3:hr>99</ns3:hr>
          </ns3:TrackPointExtension>
        </extensions>
      </trkpt>
      <trkpt lat="36.81638776324689388275146484375" lon="-118.40590816922485828399658203125">
        <ele>3212.60009765625</ele>
        <time>2021-06-27T00:46:05.000Z</time>
        <extensions>
          <ns3:TrackPointExtension>
            <ns3:atemp>32.0</ns3:atemp>
            <ns3:hr>102</ns3:hr>
          </ns3:TrackPointExtension>
        </extensions>
      </trkpt>
      <trkpt lat="36.81645515374839305877685546875" lon="-118.40598528273403644561767578125">
        <ele>3212.800048828125</ele>
        <time>2021-06-27T00:46:12.000Z</time>
        <extensions>
          <ns3:TrackPointExtension>
            <ns3:atemp>32.0</ns3:atemp>
            <ns3:hr>100</ns3:hr>
          </ns3:TrackPointExtension>
        </extensions>
      </trkpt>
      <trkpt lat="36.81655473075807094573974609375" lon="-118.40607069432735443115234375">
        <ele>3212.60009765625</ele>
        <time>2021-06-27T00:46:22.000Z</time>
        <extensions>
          <ns3:TrackPointExtension>
            <ns3:atemp>32.0</ns3:atemp>
            <ns3:hr>100</ns3:hr>
          </ns3:TrackPointExtension>
        </extensions>
      </trkpt>
      <trkpt lat="36.8165910243988037109375" lon="-118.4061020426452159881591796875">
        <ele>3212.60009765625</ele>
        <time>2021-06-27T00:46:26.000Z</time>
        <extensions>
          <ns3:TrackPointExtension>
            <ns3:atemp>32.0</ns3:atemp>
            <ns3:hr>103</ns3:hr>
          </ns3:TrackPointExtension>
        </extensions>
      </trkpt>
      <trkpt lat="36.81665715761482715606689453125" lon="-118.406175635755062103271484375">
        <ele>3213</ele>
        <time>2021-06-27T00:46:33.000Z</time>
        <extensions>
          <ns3:TrackPointExtension>
            <ns3:atemp>32.0</ns3:atemp>
            <ns3:hr>106</ns3:hr>
          </ns3:TrackPointExtension>
        </extensions>
      </trkpt>
      <trkpt lat="36.81666411459445953369140625" lon="-118.40618862770497798919677734375">
        <ele>3213.60009765625</ele>
        <time>2021-06-27T00:46:36.000Z</time>
        <extensions>
          <ns3:TrackPointExtension>
            <ns3:atemp>32.0</ns3:atemp>
            <ns3:hr>108</ns3:hr>
          </ns3:TrackPointExtension>
        </extensions>
      </trkpt>
      <trkpt lat="36.81666679680347442626953125" lon="-118.406203128397464752197265625">
        <ele>3213.800048828125</ele>
        <time>2021-06-27T00:46:38.000Z</time>
        <extensions>
          <ns3:TrackPointExtension>
            <ns3:atemp>32.0</ns3:atemp>
            <ns3:hr>108</ns3:hr>
          </ns3:TrackPointExtension>
        </extensions>
      </trkpt>
      <trkpt lat="36.8166716583073139190673828125" lon="-118.4062304534018039703369140625">
        <ele>3214</ele>
        <time>2021-06-27T00:46:40.000Z</time>
        <extensions>
          <ns3:TrackPointExtension>
            <ns3:atemp>32.0</ns3:atemp>
            <ns3:hr>109</ns3:hr>
          </ns3:TrackPointExtension>
        </extensions>
      </trkpt>
      <trkpt lat="36.81672857142984867095947265625" lon="-118.40628501959145069122314453125">
        <ele>3214.60009765625</ele>
        <time>2021-06-27T00:46:47.000Z</time>
        <extensions>
          <ns3:TrackPointExtension>
            <ns3:atemp>32.0</ns3:atemp>
            <ns3:hr>110</ns3:hr>
          </ns3:TrackPointExtension>
        </extensions>
      </trkpt>
      <trkpt lat="36.8167249672114849090576171875" lon="-118.40638828463852405548095703125">
        <ele>3213.60009765625</ele>
        <time>2021-06-27T00:46:56.000Z</time>
        <extensions>
          <ns3:TrackPointExtension>
            <ns3:atemp>32.0</ns3:atemp>
            <ns3:hr>108</ns3:hr>
          </ns3:TrackPointExtension>
        </extensions>
      </trkpt>
      <trkpt lat="36.816671155393123626708984375" lon="-118.406466655433177947998046875">
        <ele>3213</ele>
        <time>2021-06-27T00:47:03.000Z</time>
        <extensions>
          <ns3:TrackPointExtension>
            <ns3:atemp>32.0</ns3:atemp>
            <ns3:hr>111</ns3:hr>
          </ns3:TrackPointExtension>
        </extensions>
      </trkpt>
      <trkpt lat="36.81666436605155467987060546875" lon="-118.40647528879344463348388671875">
        <ele>3213</ele>
        <time>2021-06-27T00:47:04.000Z</time>
        <extensions>
          <ns3:TrackPointExtension>
            <ns3:atemp>32.0</ns3:atemp>
            <ns3:hr>111</ns3:hr>
          </ns3:TrackPointExtension>
        </extensions>
      </trkpt>
      <trkpt lat="36.81663402356207370758056640625" lon="-118.4065311960875988006591796875">
        <ele>3213.39990234375</ele>
        <time>2021-06-27T00:47:10.000Z</time>
        <extensions>
          <ns3:TrackPointExtension>
            <ns3:atemp>32.0</ns3:atemp>
            <ns3:hr>110</ns3:hr>
          </ns3:TrackPointExtension>
        </extensions>
      </trkpt>
      <trkpt lat="36.8166223727166652679443359375" lon="-118.40653865598142147064208984375">
        <ele>3213.800048828125</ele>
        <time>2021-06-27T00:47:12.000Z</time>
        <extensions>
          <ns3:TrackPointExtension>
            <ns3:atemp>32.0</ns3:atemp>
            <ns3:hr>110</ns3:hr>
          </ns3:TrackPointExtension>
        </extensions>
      </trkpt>
      <trkpt lat="36.81659295223653316497802734375" lon="-118.40655324049293994903564453125">
        <ele>3214</ele>
        <time>2021-06-27T00:47:15.000Z</time>
        <extensions>
          <ns3:TrackPointExtension>
            <ns3:atemp>32.0</ns3:atemp>
            <ns3:hr>113</ns3:hr>
          </ns3:TrackPointExtension>
        </extensions>
      </trkpt>
      <trkpt lat="36.816574595868587493896484375" lon="-118.40656681917607784271240234375">
        <ele>3214</ele>
        <time>2021-06-27T00:47:17.000Z</time>
        <extensions>
          <ns3:TrackPointExtension>
            <ns3:atemp>32.0</ns3:atemp>
            <ns3:hr>110</ns3:hr>
          </ns3:TrackPointExtension>
        </extensions>
      </trkpt>
      <trkpt lat="36.816566884517669677734375" lon="-118.40657721273601055145263671875">
        <ele>3214</ele>
        <time>2021-06-27T00:47:18.000Z</time>
        <extensions>
          <ns3:TrackPointExtension>
            <ns3:atemp>32.0</ns3:atemp>
            <ns3:hr>110</ns3:hr>
          </ns3:TrackPointExtension>
        </extensions>
      </trkpt>
      <trkpt lat="36.81655992753803730010986328125" lon="-118.40658701956272125244140625">
        <ele>3213.800048828125</ele>
        <time>2021-06-27T00:47:19.000Z</time>
        <extensions>
          <ns3:TrackPointExtension>
            <ns3:atemp>32.0</ns3:atemp>
            <ns3:hr>109</ns3:hr>
          </ns3:TrackPointExtension>
        </extensions>
      </trkpt>
      <trkpt lat="36.81655305437743663787841796875" lon="-118.406592048704624176025390625">
        <ele>3214</ele>
        <time>2021-06-27T00:47:20.000Z</time>
        <extensions>
          <ns3:TrackPointExtension>
            <ns3:atemp>32.0</ns3:atemp>
            <ns3:hr>109</ns3:hr>
          </ns3:TrackPointExtension>
        </extensions>
      </trkpt>
      <trkpt lat="36.81652153842151165008544921875" lon="-118.4066145122051239013671875">
        <ele>3213.800048828125</ele>
        <time>2021-06-27T00:47:25.000Z</time>
        <extensions>
          <ns3:TrackPointExtension>
            <ns3:atemp>32.0</ns3:atemp>
            <ns3:hr>106</ns3:hr>
          </ns3:TrackPointExtension>
        </extensions>
      </trkpt>
      <trkpt lat="36.816518604755401611328125" lon="-118.40662482194602489471435546875">
        <ele>3214</ele>
        <time>2021-06-27T00:47:26.000Z</time>
        <extensions>
          <ns3:TrackPointExtension>
            <ns3:atemp>32.0</ns3:atemp>
            <ns3:hr>105</ns3:hr>
          </ns3:TrackPointExtension>
        </extensions>
      </trkpt>
      <trkpt lat="36.81651265360414981842041015625" lon="-118.4066364727914333343505859375">
        <ele>3214</ele>
        <time>2021-06-27T00:47:27.000Z</time>
        <extensions>
          <ns3:TrackPointExtension>
            <ns3:atemp>32.0</ns3:atemp>
            <ns3:hr>104</ns3:hr>
          </ns3:TrackPointExtension>
        </extensions>
      </trkpt>
      <trkpt lat="36.81650645099580287933349609375" lon="-118.40665549971163272857666015625">
        <ele>3214</ele>
        <time>2021-06-27T00:47:29.000Z</time>
        <extensions>
          <ns3:TrackPointExtension>
            <ns3:atemp>32.0</ns3:atemp>
            <ns3:hr>108</ns3:hr>
          </ns3:TrackPointExtension>
        </extensions>
      </trkpt>
      <trkpt lat="36.81650075130164623260498046875" lon="-118.406688608229160308837890625">
        <ele>3214</ele>
        <time>2021-06-27T00:47:32.000Z</time>
        <extensions>
          <ns3:TrackPointExtension>
            <ns3:atemp>32.0</ns3:atemp>
            <ns3:hr>110</ns3:hr>
          </ns3:TrackPointExtension>
        </extensions>
      </trkpt>
      <trkpt lat="36.81654534302651882171630859375" lon="-118.40676865540444850921630859375">
        <ele>3214</ele>
        <time>2021-06-27T00:47:41.000Z</time>
        <extensions>
          <ns3:TrackPointExtension>
            <ns3:atemp>32.0</ns3:atemp>
            <ns3:hr>108</ns3:hr>
          </ns3:TrackPointExtension>
        </extensions>
      </trkpt>
      <trkpt lat="36.81653142906725406646728515625" lon="-118.40677066706120967864990234375">
        <ele>3214</ele>
        <time>2021-06-27T00:47:42.000Z</time>
        <extensions>
          <ns3:TrackPointExtension>
            <ns3:atemp>32.0</ns3:atemp>
            <ns3:hr>108</ns3:hr>
          </ns3:TrackPointExtension>
        </extensions>
      </trkpt>
      <trkpt lat="36.81651634164154529571533203125" lon="-118.40682598762214183807373046875">
        <ele>3213.60009765625</ele>
        <time>2021-06-27T00:47:48.000Z</time>
        <extensions>
          <ns3:TrackPointExtension>
            <ns3:atemp>32.0</ns3:atemp>
            <ns3:hr>108</ns3:hr>
          </ns3:TrackPointExtension>
        </extensions>
      </trkpt>
      <trkpt lat="36.8165412358939647674560546875" lon="-118.4068741835653781890869140625">
        <ele>3213.60009765625</ele>
        <time>2021-06-27T00:47:54.000Z</time>
        <extensions>
          <ns3:TrackPointExtension>
            <ns3:atemp>32.0</ns3:atemp>
            <ns3:hr>107</ns3:hr>
          </ns3:TrackPointExtension>
        </extensions>
      </trkpt>
      <trkpt lat="36.81654475629329681396484375" lon="-118.406846188008785247802734375">
        <ele>3213.39990234375</ele>
        <time>2021-06-27T00:47:58.000Z</time>
        <extensions>
          <ns3:TrackPointExtension>
            <ns3:atemp>32.0</ns3:atemp>
            <ns3:hr>104</ns3:hr>
          </ns3:TrackPointExtension>
        </extensions>
      </trkpt>
      <trkpt lat="36.816545426845550537109375" lon="-118.4068044461309909820556640625">
        <ele>3213.60009765625</ele>
        <time>2021-06-27T00:48:06.000Z</time>
        <extensions>
          <ns3:TrackPointExtension>
            <ns3:atemp>32.0</ns3:atemp>
            <ns3:hr>104</ns3:hr>
          </ns3:TrackPointExtension>
        </extensions>
      </trkpt>
      <trkpt lat="36.816545426845550537109375" lon="-118.4068044461309909820556640625">
        <ele>3213.39990234375</ele>
        <time>2021-06-27T00:48:10.000Z</time>
        <extensions>
          <ns3:TrackPointExtension>
            <ns3:atemp>32.0</ns3:atemp>
            <ns3:hr>107</ns3:hr>
          </ns3:TrackPointExtension>
        </extensions>
      </trkpt>
      <trkpt lat="36.816545426845550537109375" lon="-118.4068044461309909820556640625">
        <ele>3214.199951171875</ele>
        <time>2021-06-27T00:48:13.000Z</time>
        <extensions>
          <ns3:TrackPointExtension>
            <ns3:atemp>32.0</ns3:atemp>
            <ns3:hr>110</ns3:hr>
          </ns3:TrackPointExtension>
        </extensions>
      </trkpt>
      <trkpt lat="36.816545426845550537109375" lon="-118.40680503286421298980712890625">
        <ele>3215.39990234375</ele>
        <time>2021-06-27T00:48:20.000Z</time>
        <extensions>
          <ns3:TrackPointExtension>
            <ns3:atemp>32.0</ns3:atemp>
            <ns3:hr>108</ns3:hr>
          </ns3:TrackPointExtension>
        </extensions>
      </trkpt>
      <trkpt lat="36.8166136555373668670654296875" lon="-118.4068342857062816619873046875">
        <ele>3216.199951171875</ele>
        <time>2021-06-27T00:48:26.000Z</time>
        <extensions>
          <ns3:TrackPointExtension>
            <ns3:atemp>32.0</ns3:atemp>
            <ns3:hr>110</ns3:hr>
          </ns3:TrackPointExtension>
        </extensions>
      </trkpt>
      <trkpt lat="36.816683225333690643310546875" lon="-118.40687091462314128875732421875">
        <ele>3216.199951171875</ele>
        <time>2021-06-27T00:48:33.000Z</time>
        <extensions>
          <ns3:TrackPointExtension>
            <ns3:atemp>32.0</ns3:atemp>
            <ns3:hr>108</ns3:hr>
          </ns3:TrackPointExtension>
        </extensions>
      </trkpt>
      <trkpt lat="36.81669202633202075958251953125" lon="-118.406865298748016357421875">
        <ele>3216</ele>
        <time>2021-06-27T00:48:37.000Z</time>
        <extensions>
          <ns3:TrackPointExtension>
            <ns3:atemp>32.0</ns3:atemp>
            <ns3:hr>105</ns3:hr>
          </ns3:TrackPointExtension>
        </extensions>
      </trkpt>
      <trkpt lat="36.81668532080948352813720703125" lon="-118.406851552426815032958984375">
        <ele>3216</ele>
        <time>2021-06-27T00:48:39.000Z</time>
        <extensions>
          <ns3:TrackPointExtension>
            <ns3:atemp>32.0</ns3:atemp>
            <ns3:hr>103</ns3:hr>
          </ns3:TrackPointExtension>
        </extensions>
      </trkpt>
      <trkpt lat="36.8166766874492168426513671875" lon="-118.4068376384675502777099609375">
        <ele>3216</ele>
        <time>2021-06-27T00:48:42.000Z</time>
        <extensions>
          <ns3:TrackPointExtension>
            <ns3:atemp>32.0</ns3:atemp>
            <ns3:hr>100</ns3:hr>
          </ns3:TrackPointExtension>
        </extensions>
      </trkpt>
      <trkpt lat="36.8166367895901203155517578125" lon="-118.40681727044284343719482421875">
        <ele>3215.800048828125</ele>
        <time>2021-06-27T00:48:47.000Z</time>
        <extensions>
          <ns3:TrackPointExtension>
            <ns3:atemp>32.0</ns3:atemp>
            <ns3:hr>99</ns3:hr>
          </ns3:TrackPointExtension>
        </extensions>
      </trkpt>
      <trkpt lat="36.81660418398678302764892578125" lon="-118.40681307949125766754150390625">
        <ele>3215.800048828125</ele>
        <time>2021-06-27T00:48:52.000Z</time>
        <extensions>
          <ns3:TrackPointExtension>
            <ns3:atemp>32.0</ns3:atemp>
            <ns3:hr>98</ns3:hr>
          </ns3:TrackPointExtension>
        </extensions>
      </trkpt>
      <trkpt lat="36.8165915273129940032958984375" lon="-118.4067943878471851348876953125">
        <ele>3214.800048828125</ele>
        <time>2021-06-27T00:48:55.000Z</time>
        <extensions>
          <ns3:TrackPointExtension>
            <ns3:atemp>32.0</ns3:atemp>
            <ns3:hr>97</ns3:hr>
          </ns3:TrackPointExtension>
        </extensions>
      </trkpt>
      <trkpt lat="36.8165709078311920166015625" lon="-118.40677075088024139404296875">
        <ele>3214.199951171875</ele>
        <time>2021-06-27T00:48:58.000Z</time>
        <extensions>
          <ns3:TrackPointExtension>
            <ns3:atemp>32.0</ns3:atemp>
            <ns3:hr>97</ns3:hr>
          </ns3:TrackPointExtension>
        </extensions>
      </trkpt>
      <trkpt lat="36.8165600113570690155029296875" lon="-118.40673613362014293670654296875">
        <ele>3214.199951171875</ele>
        <time>2021-06-27T00:49:02.000Z</time>
        <extensions>
          <ns3:TrackPointExtension>
            <ns3:atemp>32.0</ns3:atemp>
            <ns3:hr>98</ns3:hr>
          </ns3:TrackPointExtension>
        </extensions>
      </trkpt>
      <trkpt lat="36.81656277738511562347412109375" lon="-118.40670495294034481048583984375">
        <ele>3214.60009765625</ele>
        <time>2021-06-27T00:49:10.000Z</time>
        <extensions>
          <ns3:TrackPointExtension>
            <ns3:atemp>32.0</ns3:atemp>
            <ns3:hr>98</ns3:hr>
          </ns3:TrackPointExtension>
        </extensions>
      </trkpt>
      <trkpt lat="36.81655389256775379180908203125" lon="-118.40664326213300228118896484375">
        <ele>3215.199951171875</ele>
        <time>2021-06-27T00:49:17.000Z</time>
        <extensions>
          <ns3:TrackPointExtension>
            <ns3:atemp>32.0</ns3:atemp>
            <ns3:hr>101</ns3:hr>
          </ns3:TrackPointExtension>
        </extensions>
      </trkpt>
      <trkpt lat="36.8165559880435466766357421875" lon="-118.406632281839847564697265625">
        <ele>3215.199951171875</ele>
        <time>2021-06-27T00:49:18.000Z</time>
        <extensions>
          <ns3:TrackPointExtension>
            <ns3:atemp>32.0</ns3:atemp>
            <ns3:hr>102</ns3:hr>
          </ns3:TrackPointExtension>
        </extensions>
      </trkpt>
      <trkpt lat="36.8165512941777706146240234375" lon="-118.40660755522549152374267578125">
        <ele>3214.60009765625</ele>
        <time>2021-06-27T00:49:20.000Z</time>
        <extensions>
          <ns3:TrackPointExtension>
            <ns3:atemp>32.0</ns3:atemp>
            <ns3:hr>105</ns3:hr>
          </ns3:TrackPointExtension>
        </extensions>
      </trkpt>
      <trkpt lat="36.8165492825210094451904296875" lon="-118.40659531764686107635498046875">
        <ele>3214.39990234375</ele>
        <time>2021-06-27T00:49:21.000Z</time>
        <extensions>
          <ns3:TrackPointExtension>
            <ns3:atemp>32.0</ns3:atemp>
            <ns3:hr>106</ns3:hr>
          </ns3:TrackPointExtension>
        </extensions>
      </trkpt>
      <trkpt lat="36.816546432673931121826171875" lon="-118.4065757878124713897705078125">
        <ele>3213.800048828125</ele>
        <time>2021-06-27T00:49:23.000Z</time>
        <extensions>
          <ns3:TrackPointExtension>
            <ns3:atemp>32.0</ns3:atemp>
            <ns3:hr>106</ns3:hr>
          </ns3:TrackPointExtension>
        </extensions>
      </trkpt>
      <trkpt lat="36.81654282845556735992431640625" lon="-118.40655692853033542633056640625">
        <ele>3213.800048828125</ele>
        <time>2021-06-27T00:49:25.000Z</time>
        <extensions>
          <ns3:TrackPointExtension>
            <ns3:atemp>32.0</ns3:atemp>
            <ns3:hr>106</ns3:hr>
          </ns3:TrackPointExtension>
        </extensions>
      </trkpt>
      <trkpt lat="36.8165365420281887054443359375" lon="-118.406542427837848663330078125">
        <ele>3213.60009765625</ele>
        <time>2021-06-27T00:49:28.000Z</time>
        <extensions>
          <ns3:TrackPointExtension>
            <ns3:atemp>32.0</ns3:atemp>
            <ns3:hr>104</ns3:hr>
          </ns3:TrackPointExtension>
        </extensions>
      </trkpt>
      <trkpt lat="36.81652757339179515838623046875" lon="-118.40653312392532825469970703125">
        <ele>3213.39990234375</ele>
        <time>2021-06-27T00:49:31.000Z</time>
        <extensions>
          <ns3:TrackPointExtension>
            <ns3:atemp>32.0</ns3:atemp>
            <ns3:hr>102</ns3:hr>
          </ns3:TrackPointExtension>
        </extensions>
      </trkpt>
      <trkpt lat="36.8165043555200099945068359375" lon="-118.40652943588793277740478515625">
        <ele>3213.60009765625</ele>
        <time>2021-06-27T00:49:38.000Z</time>
        <extensions>
          <ns3:TrackPointExtension>
            <ns3:atemp>32.0</ns3:atemp>
            <ns3:hr>102</ns3:hr>
          </ns3:TrackPointExtension>
        </extensions>
      </trkpt>
      <trkpt lat="36.81649982929229736328125" lon="-118.4065523184835910797119140625">
        <ele>3213.800048828125</ele>
        <time>2021-06-27T00:49:41.000Z</time>
        <extensions>
          <ns3:TrackPointExtension>
            <ns3:atemp>31.0</ns3:atemp>
            <ns3:hr>99</ns3:hr>
          </ns3:TrackPointExtension>
        </extensions>
      </trkpt>
      <trkpt lat="36.816494464874267578125" lon="-118.40656581334769725799560546875">
        <ele>3214.199951171875</ele>
        <time>2021-06-27T00:49:45.000Z</time>
        <extensions>
          <ns3:TrackPointExtension>
            <ns3:atemp>31.0</ns3:atemp>
            <ns3:hr>99</ns3:hr>
          </ns3:TrackPointExtension>
        </extensions>
      </trkpt>
      <trkpt lat="36.8164701573550701141357421875" lon="-118.406543768942356109619140625">
        <ele>3214</ele>
        <time>2021-06-27T00:49:50.000Z</time>
        <extensions>
          <ns3:TrackPointExtension>
            <ns3:atemp>31.0</ns3:atemp>
            <ns3:hr>99</ns3:hr>
          </ns3:TrackPointExtension>
        </extensions>
      </trkpt>
      <trkpt lat="36.81644576601684093475341796875" lon="-118.40648802928626537322998046875">
        <ele>3213.199951171875</ele>
        <time>2021-06-27T00:49:55.000Z</time>
        <extensions>
          <ns3:TrackPointExtension>
            <ns3:atemp>31.0</ns3:atemp>
            <ns3:hr>101</ns3:hr>
          </ns3:TrackPointExtension>
        </extensions>
      </trkpt>
      <trkpt lat="36.8164440058171749114990234375" lon="-118.40648333542048931121826171875">
        <ele>3213.199951171875</ele>
        <time>2021-06-27T00:49:56.000Z</time>
        <extensions>
          <ns3:TrackPointExtension>
            <ns3:atemp>31.0</ns3:atemp>
            <ns3:hr>102</ns3:hr>
          </ns3:TrackPointExtension>
        </extensions>
      </trkpt>
      <trkpt lat="36.8164316006004810333251953125" lon="-118.406459279358386993408203125">
        <ele>3212.60009765625</ele>
        <time>2021-06-27T00:50:01.000Z</time>
        <extensions>
          <ns3:TrackPointExtension>
            <ns3:atemp>31.0</ns3:atemp>
            <ns3:hr>102</ns3:hr>
          </ns3:TrackPointExtension>
        </extensions>
      </trkpt>
      <trkpt lat="36.81642699055373668670654296875" lon="-118.4064735285937786102294921875">
        <ele>3212.39990234375</ele>
        <time>2021-06-27T00:50:03.000Z</time>
        <extensions>
          <ns3:TrackPointExtension>
            <ns3:atemp>31.0</ns3:atemp>
            <ns3:hr>103</ns3:hr>
          </ns3:TrackPointExtension>
        </extensions>
      </trkpt>
      <trkpt lat="36.816425062716007232666015625" lon="-118.4065083973109722137451171875">
        <ele>3212.60009765625</ele>
        <time>2021-06-27T00:50:06.000Z</time>
        <extensions>
          <ns3:TrackPointExtension>
            <ns3:atemp>31.0</ns3:atemp>
            <ns3:hr>100</ns3:hr>
          </ns3:TrackPointExtension>
        </extensions>
      </trkpt>
      <trkpt lat="36.81642673909664154052734375" lon="-118.40653496794402599334716796875">
        <ele>3213.199951171875</ele>
        <time>2021-06-27T00:50:08.000Z</time>
        <extensions>
          <ns3:TrackPointExtension>
            <ns3:atemp>31.0</ns3:atemp>
            <ns3:hr>103</ns3:hr>
          </ns3:TrackPointExtension>
        </extensions>
      </trkpt>
      <trkpt lat="36.8164145015180110931396484375" lon="-118.40654234401881694793701171875">
        <ele>3213.39990234375</ele>
        <time>2021-06-27T00:50:11.000Z</time>
        <extensions>
          <ns3:TrackPointExtension>
            <ns3:atemp>31.0</ns3:atemp>
            <ns3:hr>103</ns3:hr>
          </ns3:TrackPointExtension>
        </extensions>
      </trkpt>
      <trkpt lat="36.816415004432201385498046875" lon="-118.40653932653367519378662109375">
        <ele>3213.39990234375</ele>
        <time>2021-06-27T00:50:13.000Z</time>
        <extensions>
          <ns3:TrackPointExtension>
            <ns3:atemp>31.0</ns3:atemp>
            <ns3:hr>102</ns3:hr>
          </ns3:TrackPointExtension>
        </extensions>
      </trkpt>
      <trkpt lat="36.816415004432201385498046875" lon="-118.40653932653367519378662109375">
        <ele>3213.199951171875</ele>
        <time>2021-06-27T00:50:18.000Z</time>
        <extensions>
          <ns3:TrackPointExtension>
            <ns3:atemp>31.0</ns3:atemp>
            <ns3:hr>104</ns3:hr>
          </ns3:TrackPointExtension>
        </extensions>
      </trkpt>
      <trkpt lat="36.816415004432201385498046875" lon="-118.40653932653367519378662109375">
        <ele>3213.60009765625</ele>
        <time>2021-06-27T00:50:21.000Z</time>
        <extensions>
          <ns3:TrackPointExtension>
            <ns3:atemp>31.0</ns3:atemp>
            <ns3:hr>100</ns3:hr>
          </ns3:TrackPointExtension>
        </extensions>
      </trkpt>
      <trkpt lat="36.81641743518412113189697265625" lon="-118.40653932653367519378662109375">
        <ele>3213.60009765625</ele>
        <time>2021-06-27T00:50:23.000Z</time>
        <extensions>
          <ns3:TrackPointExtension>
            <ns3:atemp>31.0</ns3:atemp>
            <ns3:hr>103</ns3:hr>
          </ns3:TrackPointExtension>
        </extensions>
      </trkpt>
      <trkpt lat="36.8164386413991451263427734375" lon="-118.4065608680248260498046875">
        <ele>3213.60009765625</ele>
        <time>2021-06-27T00:50:35.000Z</time>
        <extensions>
          <ns3:TrackPointExtension>
            <ns3:atemp>31.0</ns3:atemp>
            <ns3:hr>104</ns3:hr>
          </ns3:TrackPointExtension>
        </extensions>
      </trkpt>
    </trkseg>
  </trk>
</gpx>
